<?xml version="1.0" encoding="UTF-8" standalone="no" ?>
<gpx xmlns="http://www.topografix.com/GPX/1/1" xmlns:xsi="http://www.w3.org/2001/XMLSchema-instance" xsi:schemaLocation="http://www.topografix.com/GPX/1/1 http://www.topografix.com/GPX/1/1/gpx.xsd" version="1.1" creator="VisuGPX - https://www.visugpx.com">
  <metadata>
    <name>jogging club 09/10/2018</name>
    <desc><![CDATA[Rando jogging club du 09/10/2018]]></desc>
  </metadata>
  <trk>
    <name><![CDATA[jogging club 09/10/2018_1]]></name>
    <trkseg>
      <trkpt lat="48.10699" lon="1.36811">
        <ele>134</ele>
        <time>2018-10-09T12:13:35.000Z</time>
      </trkpt>
      <trkpt lat="48.107" lon="1.3681">
        <ele>134</ele>
        <time>2018-10-09T12:13:36.000Z</time>
      </trkpt>
      <trkpt lat="48.10701" lon="1.36809">
        <ele>133</ele>
        <time>2018-10-09T12:13:37.000Z</time>
      </trkpt>
      <trkpt lat="48.10702" lon="1.36808">
        <ele>133</ele>
        <time>2018-10-09T12:13:38.000Z</time>
      </trkpt>
      <trkpt lat="48.10704" lon="1.36807">
        <ele>132</ele>
        <time>2018-10-09T12:13:39.000Z</time>
      </trkpt>
      <trkpt lat="48.10705" lon="1.36806">
        <ele>132</ele>
        <time>2018-10-09T12:13:40.000Z</time>
      </trkpt>
      <trkpt lat="48.10706" lon="1.36804">
        <ele>132</ele>
        <time>2018-10-09T12:13:41.000Z</time>
      </trkpt>
      <trkpt lat="48.10707" lon="1.36803">
        <ele>132</ele>
        <time>2018-10-09T12:13:42.000Z</time>
      </trkpt>
      <trkpt lat="48.10708" lon="1.36801">
        <ele>132</ele>
        <time>2018-10-09T12:13:43.000Z</time>
      </trkpt>
      <trkpt lat="48.10709" lon="1.36799">
        <ele>131</ele>
        <time>2018-10-09T12:13:44.000Z</time>
      </trkpt>
      <trkpt lat="48.1071" lon="1.36798">
        <ele>131</ele>
        <time>2018-10-09T12:13:45.000Z</time>
      </trkpt>
      <trkpt lat="48.10711" lon="1.36796">
        <ele>131</ele>
        <time>2018-10-09T12:13:46.000Z</time>
      </trkpt>
      <trkpt lat="48.10712" lon="1.36794">
        <ele>131</ele>
        <time>2018-10-09T12:13:47.000Z</time>
      </trkpt>
      <trkpt lat="48.10713" lon="1.36793">
        <ele>131</ele>
        <time>2018-10-09T12:13:48.000Z</time>
      </trkpt>
      <trkpt lat="48.10713" lon="1.36791">
        <ele>131</ele>
        <time>2018-10-09T12:13:49.000Z</time>
      </trkpt>
      <trkpt lat="48.10714" lon="1.36789">
        <ele>132</ele>
        <time>2018-10-09T12:13:50.000Z</time>
      </trkpt>
      <trkpt lat="48.10715" lon="1.36787">
        <ele>132</ele>
        <time>2018-10-09T12:13:51.000Z</time>
      </trkpt>
      <trkpt lat="48.10716" lon="1.36785">
        <ele>132</ele>
        <time>2018-10-09T12:13:52.000Z</time>
      </trkpt>
      <trkpt lat="48.10717" lon="1.36783">
        <ele>132</ele>
        <time>2018-10-09T12:13:53.000Z</time>
      </trkpt>
      <trkpt lat="48.10717" lon="1.36781">
        <ele>132</ele>
        <time>2018-10-09T12:13:54.000Z</time>
      </trkpt>
      <trkpt lat="48.10718" lon="1.36779">
        <ele>132</ele>
        <time>2018-10-09T12:13:55.000Z</time>
      </trkpt>
      <trkpt lat="48.10719" lon="1.36776">
        <ele>132</ele>
        <time>2018-10-09T12:13:56.000Z</time>
      </trkpt>
      <trkpt lat="48.1072" lon="1.36774">
        <ele>132</ele>
        <time>2018-10-09T12:13:57.000Z</time>
      </trkpt>
      <trkpt lat="48.1072" lon="1.36772">
        <ele>132</ele>
        <time>2018-10-09T12:13:58.000Z</time>
      </trkpt>
      <trkpt lat="48.10721" lon="1.3677">
        <ele>132</ele>
        <time>2018-10-09T12:13:59.000Z</time>
      </trkpt>
      <trkpt lat="48.10721" lon="1.36768">
        <ele>131</ele>
        <time>2018-10-09T12:14:00.000Z</time>
      </trkpt>
      <trkpt lat="48.10722" lon="1.36766">
        <ele>132</ele>
        <time>2018-10-09T12:14:01.000Z</time>
      </trkpt>
      <trkpt lat="48.10722" lon="1.36763">
        <ele>131</ele>
        <time>2018-10-09T12:14:02.000Z</time>
      </trkpt>
      <trkpt lat="48.10722" lon="1.36762">
        <ele>131</ele>
        <time>2018-10-09T12:14:03.000Z</time>
      </trkpt>
      <trkpt lat="48.10723" lon="1.3676">
        <ele>131</ele>
        <time>2018-10-09T12:14:04.000Z</time>
      </trkpt>
      <trkpt lat="48.10723" lon="1.36758">
        <ele>131</ele>
        <time>2018-10-09T12:14:05.000Z</time>
      </trkpt>
      <trkpt lat="48.10724" lon="1.36756">
        <ele>130</ele>
        <time>2018-10-09T12:14:06.000Z</time>
      </trkpt>
      <trkpt lat="48.10724" lon="1.36754">
        <ele>130</ele>
        <time>2018-10-09T12:14:07.000Z</time>
      </trkpt>
      <trkpt lat="48.10724" lon="1.36752">
        <ele>130</ele>
        <time>2018-10-09T12:14:08.000Z</time>
      </trkpt>
      <trkpt lat="48.10724" lon="1.3675">
        <ele>130</ele>
        <time>2018-10-09T12:14:09.000Z</time>
      </trkpt>
      <trkpt lat="48.10724" lon="1.36748">
        <ele>130</ele>
        <time>2018-10-09T12:14:10.000Z</time>
      </trkpt>
      <trkpt lat="48.10724" lon="1.36746">
        <ele>130</ele>
        <time>2018-10-09T12:14:11.000Z</time>
      </trkpt>
      <trkpt lat="48.10725" lon="1.36744">
        <ele>130</ele>
        <time>2018-10-09T12:14:12.000Z</time>
      </trkpt>
      <trkpt lat="48.10725" lon="1.36742">
        <ele>129</ele>
        <time>2018-10-09T12:14:13.000Z</time>
      </trkpt>
      <trkpt lat="48.10725" lon="1.3674">
        <ele>129</ele>
        <time>2018-10-09T12:14:14.000Z</time>
      </trkpt>
      <trkpt lat="48.10725" lon="1.36738">
        <ele>129</ele>
        <time>2018-10-09T12:14:15.000Z</time>
      </trkpt>
      <trkpt lat="48.10725" lon="1.36736">
        <ele>129</ele>
        <time>2018-10-09T12:14:16.000Z</time>
      </trkpt>
      <trkpt lat="48.10726" lon="1.36733">
        <ele>129</ele>
        <time>2018-10-09T12:14:17.000Z</time>
      </trkpt>
      <trkpt lat="48.10726" lon="1.36731">
        <ele>129</ele>
        <time>2018-10-09T12:14:18.000Z</time>
      </trkpt>
      <trkpt lat="48.10726" lon="1.36729">
        <ele>128</ele>
        <time>2018-10-09T12:14:19.000Z</time>
      </trkpt>
      <trkpt lat="48.10726" lon="1.36727">
        <ele>128</ele>
        <time>2018-10-09T12:14:20.000Z</time>
      </trkpt>
      <trkpt lat="48.10726" lon="1.36725">
        <ele>128</ele>
        <time>2018-10-09T12:14:21.000Z</time>
      </trkpt>
      <trkpt lat="48.10727" lon="1.36723">
        <ele>128</ele>
        <time>2018-10-09T12:14:22.000Z</time>
      </trkpt>
      <trkpt lat="48.10727" lon="1.36721">
        <ele>129</ele>
        <time>2018-10-09T12:14:23.000Z</time>
      </trkpt>
      <trkpt lat="48.10727" lon="1.36719">
        <ele>128</ele>
        <time>2018-10-09T12:14:24.000Z</time>
      </trkpt>
      <trkpt lat="48.10728" lon="1.36716">
        <ele>128</ele>
        <time>2018-10-09T12:14:25.000Z</time>
      </trkpt>
      <trkpt lat="48.10729" lon="1.36714">
        <ele>128</ele>
        <time>2018-10-09T12:14:26.000Z</time>
      </trkpt>
      <trkpt lat="48.1073" lon="1.36713">
        <ele>128</ele>
        <time>2018-10-09T12:14:27.000Z</time>
      </trkpt>
      <trkpt lat="48.1073" lon="1.36711">
        <ele>128</ele>
        <time>2018-10-09T12:14:28.000Z</time>
      </trkpt>
      <trkpt lat="48.10731" lon="1.36709">
        <ele>128</ele>
        <time>2018-10-09T12:14:29.000Z</time>
      </trkpt>
      <trkpt lat="48.10732" lon="1.36708">
        <ele>128</ele>
        <time>2018-10-09T12:14:30.000Z</time>
      </trkpt>
      <trkpt lat="48.10733" lon="1.36706">
        <ele>129</ele>
        <time>2018-10-09T12:14:31.000Z</time>
      </trkpt>
      <trkpt lat="48.10733" lon="1.36704">
        <ele>129</ele>
        <time>2018-10-09T12:14:32.000Z</time>
      </trkpt>
      <trkpt lat="48.10734" lon="1.36702">
        <ele>129</ele>
        <time>2018-10-09T12:14:33.000Z</time>
      </trkpt>
      <trkpt lat="48.10735" lon="1.36701">
        <ele>129</ele>
        <time>2018-10-09T12:14:34.000Z</time>
      </trkpt>
      <trkpt lat="48.10736" lon="1.367">
        <ele>129</ele>
        <time>2018-10-09T12:14:35.000Z</time>
      </trkpt>
      <trkpt lat="48.10736" lon="1.36698">
        <ele>129</ele>
        <time>2018-10-09T12:14:36.000Z</time>
      </trkpt>
      <trkpt lat="48.10737" lon="1.36697">
        <ele>129</ele>
        <time>2018-10-09T12:14:37.000Z</time>
      </trkpt>
      <trkpt lat="48.10738" lon="1.36695">
        <ele>130</ele>
        <time>2018-10-09T12:14:38.000Z</time>
      </trkpt>
      <trkpt lat="48.10739" lon="1.36693">
        <ele>130</ele>
        <time>2018-10-09T12:14:39.000Z</time>
      </trkpt>
      <trkpt lat="48.1074" lon="1.36691">
        <ele>130</ele>
        <time>2018-10-09T12:14:40.000Z</time>
      </trkpt>
      <trkpt lat="48.10741" lon="1.36689">
        <ele>131</ele>
        <time>2018-10-09T12:14:41.000Z</time>
      </trkpt>
      <trkpt lat="48.10742" lon="1.36687">
        <ele>131</ele>
        <time>2018-10-09T12:14:42.000Z</time>
      </trkpt>
      <trkpt lat="48.10743" lon="1.36686">
        <ele>130</ele>
        <time>2018-10-09T12:14:43.000Z</time>
      </trkpt>
      <trkpt lat="48.10744" lon="1.36684">
        <ele>130</ele>
        <time>2018-10-09T12:14:44.000Z</time>
      </trkpt>
      <trkpt lat="48.10745" lon="1.36683">
        <ele>130</ele>
        <time>2018-10-09T12:14:45.000Z</time>
      </trkpt>
      <trkpt lat="48.10746" lon="1.36681">
        <ele>130</ele>
        <time>2018-10-09T12:14:46.000Z</time>
      </trkpt>
      <trkpt lat="48.10747" lon="1.36679">
        <ele>129</ele>
        <time>2018-10-09T12:14:47.000Z</time>
      </trkpt>
      <trkpt lat="48.10748" lon="1.36678">
        <ele>130</ele>
        <time>2018-10-09T12:14:48.000Z</time>
      </trkpt>
      <trkpt lat="48.10749" lon="1.36676">
        <ele>129</ele>
        <time>2018-10-09T12:14:49.000Z</time>
      </trkpt>
      <trkpt lat="48.1075" lon="1.36674">
        <ele>129</ele>
        <time>2018-10-09T12:14:50.000Z</time>
      </trkpt>
      <trkpt lat="48.10751" lon="1.36673">
        <ele>129</ele>
        <time>2018-10-09T12:14:51.000Z</time>
      </trkpt>
      <trkpt lat="48.10752" lon="1.36671">
        <ele>129</ele>
        <time>2018-10-09T12:14:52.000Z</time>
      </trkpt>
      <trkpt lat="48.10753" lon="1.36669">
        <ele>129</ele>
        <time>2018-10-09T12:14:53.000Z</time>
      </trkpt>
      <trkpt lat="48.10754" lon="1.36668">
        <ele>129</ele>
        <time>2018-10-09T12:14:54.000Z</time>
      </trkpt>
      <trkpt lat="48.10754" lon="1.36667">
        <ele>129</ele>
        <time>2018-10-09T12:14:55.000Z</time>
      </trkpt>
      <trkpt lat="48.10755" lon="1.36665">
        <ele>129</ele>
        <time>2018-10-09T12:14:56.000Z</time>
      </trkpt>
      <trkpt lat="48.10756" lon="1.36663">
        <ele>128</ele>
        <time>2018-10-09T12:14:57.000Z</time>
      </trkpt>
      <trkpt lat="48.10757" lon="1.36661">
        <ele>128</ele>
        <time>2018-10-09T12:14:58.000Z</time>
      </trkpt>
      <trkpt lat="48.10757" lon="1.36659">
        <ele>128</ele>
        <time>2018-10-09T12:14:59.000Z</time>
      </trkpt>
      <trkpt lat="48.10758" lon="1.36657">
        <ele>127</ele>
        <time>2018-10-09T12:15:00.000Z</time>
      </trkpt>
      <trkpt lat="48.10759" lon="1.36655">
        <ele>127</ele>
        <time>2018-10-09T12:15:01.000Z</time>
      </trkpt>
      <trkpt lat="48.1076" lon="1.36653">
        <ele>127</ele>
        <time>2018-10-09T12:15:02.000Z</time>
      </trkpt>
      <trkpt lat="48.10761" lon="1.36652">
        <ele>127</ele>
        <time>2018-10-09T12:15:03.000Z</time>
      </trkpt>
      <trkpt lat="48.10762" lon="1.36651">
        <ele>126</ele>
        <time>2018-10-09T12:15:04.000Z</time>
      </trkpt>
      <trkpt lat="48.10762" lon="1.36649">
        <ele>126</ele>
        <time>2018-10-09T12:15:05.000Z</time>
      </trkpt>
      <trkpt lat="48.10763" lon="1.36647">
        <ele>126</ele>
        <time>2018-10-09T12:15:06.000Z</time>
      </trkpt>
      <trkpt lat="48.10764" lon="1.36646">
        <ele>125</ele>
        <time>2018-10-09T12:15:07.000Z</time>
      </trkpt>
      <trkpt lat="48.10764" lon="1.36644">
        <ele>125</ele>
        <time>2018-10-09T12:15:08.000Z</time>
      </trkpt>
      <trkpt lat="48.10764" lon="1.36642">
        <ele>125</ele>
        <time>2018-10-09T12:15:09.000Z</time>
      </trkpt>
      <trkpt lat="48.10765" lon="1.3664">
        <ele>124</ele>
        <time>2018-10-09T12:15:10.000Z</time>
      </trkpt>
      <trkpt lat="48.10765" lon="1.36638">
        <ele>124</ele>
        <time>2018-10-09T12:15:11.000Z</time>
      </trkpt>
      <trkpt lat="48.10766" lon="1.36637">
        <ele>123</ele>
        <time>2018-10-09T12:15:12.000Z</time>
      </trkpt>
      <trkpt lat="48.10767" lon="1.36635">
        <ele>123</ele>
        <time>2018-10-09T12:15:13.000Z</time>
      </trkpt>
      <trkpt lat="48.10767" lon="1.36633">
        <ele>123</ele>
        <time>2018-10-09T12:15:14.000Z</time>
      </trkpt>
      <trkpt lat="48.10768" lon="1.36631">
        <ele>122</ele>
        <time>2018-10-09T12:15:15.000Z</time>
      </trkpt>
      <trkpt lat="48.10768" lon="1.36629">
        <ele>122</ele>
        <time>2018-10-09T12:15:16.000Z</time>
      </trkpt>
      <trkpt lat="48.10768" lon="1.36628">
        <ele>123</ele>
        <time>2018-10-09T12:15:17.000Z</time>
      </trkpt>
      <trkpt lat="48.10768" lon="1.36626">
        <ele>122</ele>
        <time>2018-10-09T12:15:18.000Z</time>
      </trkpt>
      <trkpt lat="48.10768" lon="1.36624">
        <ele>122</ele>
        <time>2018-10-09T12:15:19.000Z</time>
      </trkpt>
      <trkpt lat="48.10768" lon="1.36622">
        <ele>122</ele>
        <time>2018-10-09T12:15:20.000Z</time>
      </trkpt>
      <trkpt lat="48.10768" lon="1.3662">
        <ele>122</ele>
        <time>2018-10-09T12:15:21.000Z</time>
      </trkpt>
      <trkpt lat="48.10768" lon="1.36619">
        <ele>122</ele>
        <time>2018-10-09T12:15:22.000Z</time>
      </trkpt>
      <trkpt lat="48.10767" lon="1.36617">
        <ele>122</ele>
        <time>2018-10-09T12:15:23.000Z</time>
      </trkpt>
      <trkpt lat="48.10767" lon="1.36616">
        <ele>122</ele>
        <time>2018-10-09T12:15:24.000Z</time>
      </trkpt>
      <trkpt lat="48.10767" lon="1.36614">
        <ele>123</ele>
        <time>2018-10-09T12:15:25.000Z</time>
      </trkpt>
      <trkpt lat="48.10767" lon="1.36612">
        <ele>123</ele>
        <time>2018-10-09T12:15:26.000Z</time>
      </trkpt>
      <trkpt lat="48.10766" lon="1.3661">
        <ele>123</ele>
        <time>2018-10-09T12:15:27.000Z</time>
      </trkpt>
      <trkpt lat="48.10766" lon="1.36608">
        <ele>123</ele>
        <time>2018-10-09T12:15:28.000Z</time>
      </trkpt>
      <trkpt lat="48.10765" lon="1.36607">
        <ele>123</ele>
        <time>2018-10-09T12:15:29.000Z</time>
      </trkpt>
      <trkpt lat="48.10765" lon="1.36606">
        <ele>123</ele>
        <time>2018-10-09T12:15:30.000Z</time>
      </trkpt>
      <trkpt lat="48.10765" lon="1.36605">
        <ele>123</ele>
        <time>2018-10-09T12:15:31.000Z</time>
      </trkpt>
      <trkpt lat="48.10764" lon="1.36603">
        <ele>123</ele>
        <time>2018-10-09T12:15:32.000Z</time>
      </trkpt>
      <trkpt lat="48.10764" lon="1.36602">
        <ele>124</ele>
        <time>2018-10-09T12:15:33.000Z</time>
      </trkpt>
      <trkpt lat="48.10763" lon="1.36601">
        <ele>125</ele>
        <time>2018-10-09T12:15:34.000Z</time>
      </trkpt>
      <trkpt lat="48.10762" lon="1.366">
        <ele>125</ele>
        <time>2018-10-09T12:15:35.000Z</time>
      </trkpt>
      <trkpt lat="48.10762" lon="1.36598">
        <ele>126</ele>
        <time>2018-10-09T12:15:36.000Z</time>
      </trkpt>
      <trkpt lat="48.10761" lon="1.36597">
        <ele>126</ele>
        <time>2018-10-09T12:15:37.000Z</time>
      </trkpt>
      <trkpt lat="48.10761" lon="1.36595">
        <ele>126</ele>
        <time>2018-10-09T12:15:38.000Z</time>
      </trkpt>
      <trkpt lat="48.10761" lon="1.36593">
        <ele>126</ele>
        <time>2018-10-09T12:15:39.000Z</time>
      </trkpt>
      <trkpt lat="48.1076" lon="1.36592">
        <ele>127</ele>
        <time>2018-10-09T12:15:40.000Z</time>
      </trkpt>
      <trkpt lat="48.1076" lon="1.3659">
        <ele>127</ele>
        <time>2018-10-09T12:15:41.000Z</time>
      </trkpt>
      <trkpt lat="48.1076" lon="1.36589">
        <ele>127</ele>
        <time>2018-10-09T12:15:42.000Z</time>
      </trkpt>
      <trkpt lat="48.10759" lon="1.36587">
        <ele>126</ele>
        <time>2018-10-09T12:15:43.000Z</time>
      </trkpt>
      <trkpt lat="48.10759" lon="1.36586">
        <ele>127</ele>
        <time>2018-10-09T12:15:44.000Z</time>
      </trkpt>
      <trkpt lat="48.10759" lon="1.36585">
        <ele>127</ele>
        <time>2018-10-09T12:15:45.000Z</time>
      </trkpt>
      <trkpt lat="48.10758" lon="1.36583">
        <ele>127</ele>
        <time>2018-10-09T12:15:46.000Z</time>
      </trkpt>
      <trkpt lat="48.10759" lon="1.36581">
        <ele>126</ele>
        <time>2018-10-09T12:15:47.000Z</time>
      </trkpt>
      <trkpt lat="48.10759" lon="1.36579">
        <ele>126</ele>
        <time>2018-10-09T12:15:48.000Z</time>
      </trkpt>
      <trkpt lat="48.10759" lon="1.36577">
        <ele>125</ele>
        <time>2018-10-09T12:15:49.000Z</time>
      </trkpt>
      <trkpt lat="48.10759" lon="1.36576">
        <ele>126</ele>
        <time>2018-10-09T12:15:50.000Z</time>
      </trkpt>
      <trkpt lat="48.10759" lon="1.36574">
        <ele>126</ele>
        <time>2018-10-09T12:15:51.000Z</time>
      </trkpt>
      <trkpt lat="48.10758" lon="1.36573">
        <ele>126</ele>
        <time>2018-10-09T12:15:52.000Z</time>
      </trkpt>
      <trkpt lat="48.10758" lon="1.36571">
        <ele>126</ele>
        <time>2018-10-09T12:15:53.000Z</time>
      </trkpt>
      <trkpt lat="48.10758" lon="1.3657">
        <ele>126</ele>
        <time>2018-10-09T12:15:54.000Z</time>
      </trkpt>
      <trkpt lat="48.10758" lon="1.36568">
        <ele>125</ele>
        <time>2018-10-09T12:15:55.000Z</time>
      </trkpt>
      <trkpt lat="48.10757" lon="1.36566">
        <ele>124</ele>
        <time>2018-10-09T12:15:56.000Z</time>
      </trkpt>
      <trkpt lat="48.10757" lon="1.36564">
        <ele>122</ele>
        <time>2018-10-09T12:15:57.000Z</time>
      </trkpt>
      <trkpt lat="48.10756" lon="1.36562">
        <ele>121</ele>
        <time>2018-10-09T12:15:58.000Z</time>
      </trkpt>
      <trkpt lat="48.10755" lon="1.36561">
        <ele>121</ele>
        <time>2018-10-09T12:15:59.000Z</time>
      </trkpt>
      <trkpt lat="48.10755" lon="1.36559">
        <ele>122</ele>
        <time>2018-10-09T12:16:00.000Z</time>
      </trkpt>
      <trkpt lat="48.10754" lon="1.36558">
        <ele>122</ele>
        <time>2018-10-09T12:16:01.000Z</time>
      </trkpt>
      <trkpt lat="48.10754" lon="1.36557">
        <ele>122</ele>
        <time>2018-10-09T12:16:02.000Z</time>
      </trkpt>
      <trkpt lat="48.10754" lon="1.36554">
        <ele>123</ele>
        <time>2018-10-09T12:16:03.000Z</time>
      </trkpt>
      <trkpt lat="48.10753" lon="1.36552">
        <ele>122</ele>
        <time>2018-10-09T12:16:04.000Z</time>
      </trkpt>
      <trkpt lat="48.10753" lon="1.36549">
        <ele>122</ele>
        <time>2018-10-09T12:16:05.000Z</time>
      </trkpt>
      <trkpt lat="48.10753" lon="1.36547">
        <ele>123</ele>
        <time>2018-10-09T12:16:06.000Z</time>
      </trkpt>
      <trkpt lat="48.10752" lon="1.36545">
        <ele>123</ele>
        <time>2018-10-09T12:16:07.000Z</time>
      </trkpt>
      <trkpt lat="48.10752" lon="1.36542">
        <ele>123</ele>
        <time>2018-10-09T12:16:08.000Z</time>
      </trkpt>
      <trkpt lat="48.10751" lon="1.36541">
        <ele>122</ele>
        <time>2018-10-09T12:16:09.000Z</time>
      </trkpt>
      <trkpt lat="48.10751" lon="1.3654">
        <ele>122</ele>
        <time>2018-10-09T12:16:10.000Z</time>
      </trkpt>
      <trkpt lat="48.10751" lon="1.36538">
        <ele>122</ele>
        <time>2018-10-09T12:16:11.000Z</time>
      </trkpt>
      <trkpt lat="48.10751" lon="1.36537">
        <ele>123</ele>
        <time>2018-10-09T12:16:12.000Z</time>
      </trkpt>
      <trkpt lat="48.10751" lon="1.36535">
        <ele>122</ele>
        <time>2018-10-09T12:16:13.000Z</time>
      </trkpt>
      <trkpt lat="48.10751" lon="1.36532">
        <ele>122</ele>
        <time>2018-10-09T12:16:14.000Z</time>
      </trkpt>
      <trkpt lat="48.1075" lon="1.3653">
        <ele>122</ele>
        <time>2018-10-09T12:16:15.000Z</time>
      </trkpt>
      <trkpt lat="48.1075" lon="1.36528">
        <ele>121</ele>
        <time>2018-10-09T12:16:16.000Z</time>
      </trkpt>
      <trkpt lat="48.10749" lon="1.36526">
        <ele>121</ele>
        <time>2018-10-09T12:16:17.000Z</time>
      </trkpt>
      <trkpt lat="48.10749" lon="1.36524">
        <ele>121</ele>
        <time>2018-10-09T12:16:18.000Z</time>
      </trkpt>
      <trkpt lat="48.10749" lon="1.36522">
        <ele>121</ele>
        <time>2018-10-09T12:16:19.000Z</time>
      </trkpt>
      <trkpt lat="48.10749" lon="1.3652">
        <ele>121</ele>
        <time>2018-10-09T12:16:20.000Z</time>
      </trkpt>
      <trkpt lat="48.10749" lon="1.36517">
        <ele>121</ele>
        <time>2018-10-09T12:16:21.000Z</time>
      </trkpt>
      <trkpt lat="48.10749" lon="1.36515">
        <ele>121</ele>
        <time>2018-10-09T12:16:22.000Z</time>
      </trkpt>
      <trkpt lat="48.10749" lon="1.36513">
        <ele>121</ele>
        <time>2018-10-09T12:16:23.000Z</time>
      </trkpt>
      <trkpt lat="48.10748" lon="1.36511">
        <ele>121</ele>
        <time>2018-10-09T12:16:24.000Z</time>
      </trkpt>
      <trkpt lat="48.10748" lon="1.36508">
        <ele>121</ele>
        <time>2018-10-09T12:16:25.000Z</time>
      </trkpt>
      <trkpt lat="48.10748" lon="1.36506">
        <ele>120</ele>
        <time>2018-10-09T12:16:26.000Z</time>
      </trkpt>
      <trkpt lat="48.10748" lon="1.36505">
        <ele>120</ele>
        <time>2018-10-09T12:16:27.000Z</time>
      </trkpt>
      <trkpt lat="48.10748" lon="1.36503">
        <ele>120</ele>
        <time>2018-10-09T12:16:28.000Z</time>
      </trkpt>
      <trkpt lat="48.10748" lon="1.36501">
        <ele>119</ele>
        <time>2018-10-09T12:16:29.000Z</time>
      </trkpt>
      <trkpt lat="48.10748" lon="1.36499">
        <ele>118</ele>
        <time>2018-10-09T12:16:30.000Z</time>
      </trkpt>
      <trkpt lat="48.10748" lon="1.36497">
        <ele>118</ele>
        <time>2018-10-09T12:16:31.000Z</time>
      </trkpt>
      <trkpt lat="48.10748" lon="1.36495">
        <ele>117</ele>
        <time>2018-10-09T12:16:32.000Z</time>
      </trkpt>
      <trkpt lat="48.10748" lon="1.36493">
        <ele>117</ele>
        <time>2018-10-09T12:16:33.000Z</time>
      </trkpt>
      <trkpt lat="48.10748" lon="1.36491">
        <ele>117</ele>
        <time>2018-10-09T12:16:34.000Z</time>
      </trkpt>
      <trkpt lat="48.10747" lon="1.36489">
        <ele>116</ele>
        <time>2018-10-09T12:16:35.000Z</time>
      </trkpt>
      <trkpt lat="48.10747" lon="1.36486">
        <ele>116</ele>
        <time>2018-10-09T12:16:36.000Z</time>
      </trkpt>
      <trkpt lat="48.10747" lon="1.36484">
        <ele>116</ele>
        <time>2018-10-09T12:16:37.000Z</time>
      </trkpt>
      <trkpt lat="48.10747" lon="1.36482">
        <ele>116</ele>
        <time>2018-10-09T12:16:38.000Z</time>
      </trkpt>
      <trkpt lat="48.10747" lon="1.3648">
        <ele>116</ele>
        <time>2018-10-09T12:16:39.000Z</time>
      </trkpt>
      <trkpt lat="48.10747" lon="1.36479">
        <ele>116</ele>
        <time>2018-10-09T12:16:40.000Z</time>
      </trkpt>
      <trkpt lat="48.10747" lon="1.36477">
        <ele>116</ele>
        <time>2018-10-09T12:16:41.000Z</time>
      </trkpt>
      <trkpt lat="48.10746" lon="1.36475">
        <ele>116</ele>
        <time>2018-10-09T12:16:42.000Z</time>
      </trkpt>
      <trkpt lat="48.10746" lon="1.36474">
        <ele>116</ele>
        <time>2018-10-09T12:16:43.000Z</time>
      </trkpt>
      <trkpt lat="48.10746" lon="1.36472">
        <ele>116</ele>
        <time>2018-10-09T12:16:44.000Z</time>
      </trkpt>
      <trkpt lat="48.10746" lon="1.3647">
        <ele>116</ele>
        <time>2018-10-09T12:16:45.000Z</time>
      </trkpt>
      <trkpt lat="48.10745" lon="1.36468">
        <ele>116</ele>
        <time>2018-10-09T12:16:46.000Z</time>
      </trkpt>
      <trkpt lat="48.10745" lon="1.36466">
        <ele>116</ele>
        <time>2018-10-09T12:16:47.000Z</time>
      </trkpt>
      <trkpt lat="48.10745" lon="1.36464">
        <ele>115</ele>
        <time>2018-10-09T12:16:48.000Z</time>
      </trkpt>
      <trkpt lat="48.10744" lon="1.36462">
        <ele>115</ele>
        <time>2018-10-09T12:16:49.000Z</time>
      </trkpt>
      <trkpt lat="48.10744" lon="1.3646">
        <ele>114</ele>
        <time>2018-10-09T12:16:50.000Z</time>
      </trkpt>
      <trkpt lat="48.10744" lon="1.36458">
        <ele>114</ele>
        <time>2018-10-09T12:16:51.000Z</time>
      </trkpt>
      <trkpt lat="48.10743" lon="1.36455">
        <ele>113</ele>
        <time>2018-10-09T12:16:52.000Z</time>
      </trkpt>
      <trkpt lat="48.10743" lon="1.36454">
        <ele>113</ele>
        <time>2018-10-09T12:16:53.000Z</time>
      </trkpt>
      <trkpt lat="48.10742" lon="1.36452">
        <ele>112</ele>
        <time>2018-10-09T12:16:54.000Z</time>
      </trkpt>
      <trkpt lat="48.10742" lon="1.3645">
        <ele>112</ele>
        <time>2018-10-09T12:16:55.000Z</time>
      </trkpt>
      <trkpt lat="48.10741" lon="1.36448">
        <ele>112</ele>
        <time>2018-10-09T12:16:56.000Z</time>
      </trkpt>
      <trkpt lat="48.10741" lon="1.36446">
        <ele>112</ele>
        <time>2018-10-09T12:16:57.000Z</time>
      </trkpt>
      <trkpt lat="48.10741" lon="1.36444">
        <ele>112</ele>
        <time>2018-10-09T12:16:58.000Z</time>
      </trkpt>
      <trkpt lat="48.1074" lon="1.36442">
        <ele>113</ele>
        <time>2018-10-09T12:16:59.000Z</time>
      </trkpt>
      <trkpt lat="48.1074" lon="1.3644">
        <ele>112</ele>
        <time>2018-10-09T12:17:00.000Z</time>
      </trkpt>
      <trkpt lat="48.1074" lon="1.36437">
        <ele>112</ele>
        <time>2018-10-09T12:17:01.000Z</time>
      </trkpt>
      <trkpt lat="48.10739" lon="1.36435">
        <ele>112</ele>
        <time>2018-10-09T12:17:02.000Z</time>
      </trkpt>
      <trkpt lat="48.10739" lon="1.36433">
        <ele>112</ele>
        <time>2018-10-09T12:17:03.000Z</time>
      </trkpt>
      <trkpt lat="48.10738" lon="1.36431">
        <ele>111</ele>
        <time>2018-10-09T12:17:04.000Z</time>
      </trkpt>
      <trkpt lat="48.10738" lon="1.36429">
        <ele>110</ele>
        <time>2018-10-09T12:17:05.000Z</time>
      </trkpt>
      <trkpt lat="48.10737" lon="1.36426">
        <ele>110</ele>
        <time>2018-10-09T12:17:06.000Z</time>
      </trkpt>
      <trkpt lat="48.10737" lon="1.36424">
        <ele>110</ele>
        <time>2018-10-09T12:17:07.000Z</time>
      </trkpt>
      <trkpt lat="48.10737" lon="1.36422">
        <ele>110</ele>
        <time>2018-10-09T12:17:08.000Z</time>
      </trkpt>
      <trkpt lat="48.10736" lon="1.3642">
        <ele>109</ele>
        <time>2018-10-09T12:17:09.000Z</time>
      </trkpt>
      <trkpt lat="48.10736" lon="1.36418">
        <ele>110</ele>
        <time>2018-10-09T12:17:10.000Z</time>
      </trkpt>
      <trkpt lat="48.10736" lon="1.36416">
        <ele>109</ele>
        <time>2018-10-09T12:17:11.000Z</time>
      </trkpt>
      <trkpt lat="48.10736" lon="1.36414">
        <ele>109</ele>
        <time>2018-10-09T12:17:12.000Z</time>
      </trkpt>
      <trkpt lat="48.10735" lon="1.36412">
        <ele>109</ele>
        <time>2018-10-09T12:17:13.000Z</time>
      </trkpt>
      <trkpt lat="48.10735" lon="1.3641">
        <ele>109</ele>
        <time>2018-10-09T12:17:14.000Z</time>
      </trkpt>
      <trkpt lat="48.10735" lon="1.36408">
        <ele>109</ele>
        <time>2018-10-09T12:17:15.000Z</time>
      </trkpt>
      <trkpt lat="48.10734" lon="1.36406">
        <ele>109</ele>
        <time>2018-10-09T12:17:16.000Z</time>
      </trkpt>
      <trkpt lat="48.10734" lon="1.36404">
        <ele>109</ele>
        <time>2018-10-09T12:17:17.000Z</time>
      </trkpt>
      <trkpt lat="48.10734" lon="1.36402">
        <ele>109</ele>
        <time>2018-10-09T12:17:18.000Z</time>
      </trkpt>
      <trkpt lat="48.10733" lon="1.36401">
        <ele>109</ele>
        <time>2018-10-09T12:17:19.000Z</time>
      </trkpt>
      <trkpt lat="48.10733" lon="1.36399">
        <ele>109</ele>
        <time>2018-10-09T12:17:20.000Z</time>
      </trkpt>
      <trkpt lat="48.10732" lon="1.36397">
        <ele>110</ele>
        <time>2018-10-09T12:17:21.000Z</time>
      </trkpt>
      <trkpt lat="48.10732" lon="1.36396">
        <ele>110</ele>
        <time>2018-10-09T12:17:22.000Z</time>
      </trkpt>
      <trkpt lat="48.10731" lon="1.36394">
        <ele>110</ele>
        <time>2018-10-09T12:17:23.000Z</time>
      </trkpt>
      <trkpt lat="48.10731" lon="1.36392">
        <ele>109</ele>
        <time>2018-10-09T12:17:24.000Z</time>
      </trkpt>
      <trkpt lat="48.10731" lon="1.36391">
        <ele>109</ele>
        <time>2018-10-09T12:17:25.000Z</time>
      </trkpt>
      <trkpt lat="48.1073" lon="1.36389">
        <ele>109</ele>
        <time>2018-10-09T12:17:26.000Z</time>
      </trkpt>
      <trkpt lat="48.1073" lon="1.36388">
        <ele>109</ele>
        <time>2018-10-09T12:17:27.000Z</time>
      </trkpt>
      <trkpt lat="48.10729" lon="1.36386">
        <ele>110</ele>
        <time>2018-10-09T12:17:28.000Z</time>
      </trkpt>
      <trkpt lat="48.10729" lon="1.36384">
        <ele>110</ele>
        <time>2018-10-09T12:17:29.000Z</time>
      </trkpt>
      <trkpt lat="48.10728" lon="1.36382">
        <ele>110</ele>
        <time>2018-10-09T12:17:30.000Z</time>
      </trkpt>
      <trkpt lat="48.10728" lon="1.3638">
        <ele>110</ele>
        <time>2018-10-09T12:17:31.000Z</time>
      </trkpt>
      <trkpt lat="48.10727" lon="1.36378">
        <ele>110</ele>
        <time>2018-10-09T12:17:32.000Z</time>
      </trkpt>
      <trkpt lat="48.10727" lon="1.36377">
        <ele>110</ele>
        <time>2018-10-09T12:17:33.000Z</time>
      </trkpt>
      <trkpt lat="48.10727" lon="1.36375">
        <ele>110</ele>
        <time>2018-10-09T12:17:34.000Z</time>
      </trkpt>
      <trkpt lat="48.10726" lon="1.36373">
        <ele>110</ele>
        <time>2018-10-09T12:17:35.000Z</time>
      </trkpt>
      <trkpt lat="48.10726" lon="1.36371">
        <ele>110</ele>
        <time>2018-10-09T12:17:36.000Z</time>
      </trkpt>
      <trkpt lat="48.10725" lon="1.36369">
        <ele>110</ele>
        <time>2018-10-09T12:17:37.000Z</time>
      </trkpt>
      <trkpt lat="48.10724" lon="1.36368">
        <ele>110</ele>
        <time>2018-10-09T12:17:38.000Z</time>
      </trkpt>
      <trkpt lat="48.10724" lon="1.36366">
        <ele>110</ele>
        <time>2018-10-09T12:17:39.000Z</time>
      </trkpt>
      <trkpt lat="48.10723" lon="1.36365">
        <ele>110</ele>
        <time>2018-10-09T12:17:40.000Z</time>
      </trkpt>
      <trkpt lat="48.10723" lon="1.36363">
        <ele>110</ele>
        <time>2018-10-09T12:17:41.000Z</time>
      </trkpt>
      <trkpt lat="48.10722" lon="1.36361">
        <ele>111</ele>
        <time>2018-10-09T12:17:42.000Z</time>
      </trkpt>
      <trkpt lat="48.10722" lon="1.3636">
        <ele>111</ele>
        <time>2018-10-09T12:17:43.000Z</time>
      </trkpt>
      <trkpt lat="48.10721" lon="1.36358">
        <ele>111</ele>
        <time>2018-10-09T12:17:44.000Z</time>
      </trkpt>
      <trkpt lat="48.10721" lon="1.36356">
        <ele>111</ele>
        <time>2018-10-09T12:17:45.000Z</time>
      </trkpt>
      <trkpt lat="48.1072" lon="1.36354">
        <ele>111</ele>
        <time>2018-10-09T12:17:46.000Z</time>
      </trkpt>
      <trkpt lat="48.1072" lon="1.36353">
        <ele>111</ele>
        <time>2018-10-09T12:17:47.000Z</time>
      </trkpt>
      <trkpt lat="48.10719" lon="1.36351">
        <ele>111</ele>
        <time>2018-10-09T12:17:48.000Z</time>
      </trkpt>
      <trkpt lat="48.10718" lon="1.36349">
        <ele>111</ele>
        <time>2018-10-09T12:17:49.000Z</time>
      </trkpt>
      <trkpt lat="48.10718" lon="1.36348">
        <ele>111</ele>
        <time>2018-10-09T12:17:50.000Z</time>
      </trkpt>
      <trkpt lat="48.10717" lon="1.36346">
        <ele>111</ele>
        <time>2018-10-09T12:17:51.000Z</time>
      </trkpt>
      <trkpt lat="48.10717" lon="1.36345">
        <ele>111</ele>
        <time>2018-10-09T12:17:52.000Z</time>
      </trkpt>
      <trkpt lat="48.10716" lon="1.36343">
        <ele>111</ele>
        <time>2018-10-09T12:17:53.000Z</time>
      </trkpt>
      <trkpt lat="48.10716" lon="1.36342">
        <ele>110</ele>
        <time>2018-10-09T12:17:54.000Z</time>
      </trkpt>
      <trkpt lat="48.10715" lon="1.3634">
        <ele>111</ele>
        <time>2018-10-09T12:17:55.000Z</time>
      </trkpt>
      <trkpt lat="48.10715" lon="1.36339">
        <ele>110</ele>
        <time>2018-10-09T12:17:56.000Z</time>
      </trkpt>
      <trkpt lat="48.10714" lon="1.36338">
        <ele>110</ele>
        <time>2018-10-09T12:17:57.000Z</time>
      </trkpt>
      <trkpt lat="48.10713" lon="1.36337">
        <ele>110</ele>
        <time>2018-10-09T12:17:58.000Z</time>
      </trkpt>
      <trkpt lat="48.10713" lon="1.36335">
        <ele>110</ele>
        <time>2018-10-09T12:17:59.000Z</time>
      </trkpt>
      <trkpt lat="48.10712" lon="1.36334">
        <ele>110</ele>
        <time>2018-10-09T12:18:00.000Z</time>
      </trkpt>
      <trkpt lat="48.10712" lon="1.36332">
        <ele>110</ele>
        <time>2018-10-09T12:18:01.000Z</time>
      </trkpt>
      <trkpt lat="48.10712" lon="1.36331">
        <ele>109</ele>
        <time>2018-10-09T12:18:02.000Z</time>
      </trkpt>
      <trkpt lat="48.10711" lon="1.36329">
        <ele>109</ele>
        <time>2018-10-09T12:18:03.000Z</time>
      </trkpt>
      <trkpt lat="48.1071" lon="1.36328">
        <ele>109</ele>
        <time>2018-10-09T12:18:04.000Z</time>
      </trkpt>
      <trkpt lat="48.1071" lon="1.36326">
        <ele>109</ele>
        <time>2018-10-09T12:18:05.000Z</time>
      </trkpt>
      <trkpt lat="48.10709" lon="1.36325">
        <ele>109</ele>
        <time>2018-10-09T12:18:06.000Z</time>
      </trkpt>
      <trkpt lat="48.10709" lon="1.36323">
        <ele>109</ele>
        <time>2018-10-09T12:18:07.000Z</time>
      </trkpt>
      <trkpt lat="48.10708" lon="1.36322">
        <ele>109</ele>
        <time>2018-10-09T12:18:08.000Z</time>
      </trkpt>
      <trkpt lat="48.10708" lon="1.3632">
        <ele>109</ele>
        <time>2018-10-09T12:18:09.000Z</time>
      </trkpt>
      <trkpt lat="48.10707" lon="1.36319">
        <ele>109</ele>
        <time>2018-10-09T12:18:10.000Z</time>
      </trkpt>
      <trkpt lat="48.10707" lon="1.36318">
        <ele>109</ele>
        <time>2018-10-09T12:18:11.000Z</time>
      </trkpt>
      <trkpt lat="48.10706" lon="1.36316">
        <ele>109</ele>
        <time>2018-10-09T12:18:12.000Z</time>
      </trkpt>
      <trkpt lat="48.10706" lon="1.36315">
        <ele>109</ele>
        <time>2018-10-09T12:18:13.000Z</time>
      </trkpt>
      <trkpt lat="48.10705" lon="1.36313">
        <ele>108</ele>
        <time>2018-10-09T12:18:14.000Z</time>
      </trkpt>
      <trkpt lat="48.10704" lon="1.36312">
        <ele>108</ele>
        <time>2018-10-09T12:18:15.000Z</time>
      </trkpt>
      <trkpt lat="48.10704" lon="1.3631">
        <ele>109</ele>
        <time>2018-10-09T12:18:16.000Z</time>
      </trkpt>
      <trkpt lat="48.10703" lon="1.36309">
        <ele>109</ele>
        <time>2018-10-09T12:18:17.000Z</time>
      </trkpt>
      <trkpt lat="48.10703" lon="1.36307">
        <ele>109</ele>
        <time>2018-10-09T12:18:18.000Z</time>
      </trkpt>
      <trkpt lat="48.10702" lon="1.36306">
        <ele>108</ele>
        <time>2018-10-09T12:18:19.000Z</time>
      </trkpt>
      <trkpt lat="48.10701" lon="1.36304">
        <ele>108</ele>
        <time>2018-10-09T12:18:20.000Z</time>
      </trkpt>
      <trkpt lat="48.10701" lon="1.36303">
        <ele>108</ele>
        <time>2018-10-09T12:18:21.000Z</time>
      </trkpt>
      <trkpt lat="48.107" lon="1.36302">
        <ele>108</ele>
        <time>2018-10-09T12:18:22.000Z</time>
      </trkpt>
      <trkpt lat="48.10699" lon="1.36301">
        <ele>108</ele>
        <time>2018-10-09T12:18:23.000Z</time>
      </trkpt>
      <trkpt lat="48.10699" lon="1.363">
        <ele>108</ele>
        <time>2018-10-09T12:18:24.000Z</time>
      </trkpt>
      <trkpt lat="48.10698" lon="1.36298">
        <ele>108</ele>
        <time>2018-10-09T12:18:25.000Z</time>
      </trkpt>
      <trkpt lat="48.10697" lon="1.36297">
        <ele>108</ele>
        <time>2018-10-09T12:18:26.000Z</time>
      </trkpt>
      <trkpt lat="48.10697" lon="1.36296">
        <ele>108</ele>
        <time>2018-10-09T12:18:27.000Z</time>
      </trkpt>
      <trkpt lat="48.10696" lon="1.36294">
        <ele>108</ele>
        <time>2018-10-09T12:18:28.000Z</time>
      </trkpt>
      <trkpt lat="48.10695" lon="1.36293">
        <ele>108</ele>
        <time>2018-10-09T12:18:29.000Z</time>
      </trkpt>
      <trkpt lat="48.10695" lon="1.36291">
        <ele>109</ele>
        <time>2018-10-09T12:18:30.000Z</time>
      </trkpt>
      <trkpt lat="48.10694" lon="1.3629">
        <ele>109</ele>
        <time>2018-10-09T12:18:31.000Z</time>
      </trkpt>
      <trkpt lat="48.10693" lon="1.36288">
        <ele>108</ele>
        <time>2018-10-09T12:18:32.000Z</time>
      </trkpt>
      <trkpt lat="48.10692" lon="1.36287">
        <ele>109</ele>
        <time>2018-10-09T12:18:33.000Z</time>
      </trkpt>
      <trkpt lat="48.10692" lon="1.36286">
        <ele>109</ele>
        <time>2018-10-09T12:18:34.000Z</time>
      </trkpt>
      <trkpt lat="48.10691" lon="1.36284">
        <ele>109</ele>
        <time>2018-10-09T12:18:35.000Z</time>
      </trkpt>
      <trkpt lat="48.1069" lon="1.36283">
        <ele>109</ele>
        <time>2018-10-09T12:18:36.000Z</time>
      </trkpt>
      <trkpt lat="48.1069" lon="1.36281">
        <ele>109</ele>
        <time>2018-10-09T12:18:37.000Z</time>
      </trkpt>
      <trkpt lat="48.10689" lon="1.3628">
        <ele>110</ele>
        <time>2018-10-09T12:18:38.000Z</time>
      </trkpt>
      <trkpt lat="48.10688" lon="1.36279">
        <ele>110</ele>
        <time>2018-10-09T12:18:39.000Z</time>
      </trkpt>
      <trkpt lat="48.10688" lon="1.36278">
        <ele>110</ele>
        <time>2018-10-09T12:18:40.000Z</time>
      </trkpt>
      <trkpt lat="48.10687" lon="1.36276">
        <ele>110</ele>
        <time>2018-10-09T12:18:41.000Z</time>
      </trkpt>
      <trkpt lat="48.10687" lon="1.36275">
        <ele>110</ele>
        <time>2018-10-09T12:18:42.000Z</time>
      </trkpt>
      <trkpt lat="48.10686" lon="1.36274">
        <ele>110</ele>
        <time>2018-10-09T12:18:43.000Z</time>
      </trkpt>
      <trkpt lat="48.10685" lon="1.36273">
        <ele>110</ele>
        <time>2018-10-09T12:18:44.000Z</time>
      </trkpt>
      <trkpt lat="48.10684" lon="1.36272">
        <ele>109</ele>
        <time>2018-10-09T12:18:45.000Z</time>
      </trkpt>
      <trkpt lat="48.10684" lon="1.36271">
        <ele>109</ele>
        <time>2018-10-09T12:18:46.000Z</time>
      </trkpt>
      <trkpt lat="48.10683" lon="1.3627">
        <ele>110</ele>
        <time>2018-10-09T12:18:47.000Z</time>
      </trkpt>
      <trkpt lat="48.10682" lon="1.36268">
        <ele>110</ele>
        <time>2018-10-09T12:18:48.000Z</time>
      </trkpt>
      <trkpt lat="48.10682" lon="1.36267">
        <ele>110</ele>
        <time>2018-10-09T12:18:49.000Z</time>
      </trkpt>
      <trkpt lat="48.10681" lon="1.36265">
        <ele>110</ele>
        <time>2018-10-09T12:18:50.000Z</time>
      </trkpt>
      <trkpt lat="48.1068" lon="1.36263">
        <ele>111</ele>
        <time>2018-10-09T12:18:51.000Z</time>
      </trkpt>
      <trkpt lat="48.10679" lon="1.36261">
        <ele>111</ele>
        <time>2018-10-09T12:18:52.000Z</time>
      </trkpt>
      <trkpt lat="48.10678" lon="1.36259">
        <ele>111</ele>
        <time>2018-10-09T12:18:53.000Z</time>
      </trkpt>
      <trkpt lat="48.10678" lon="1.36257">
        <ele>111</ele>
        <time>2018-10-09T12:18:54.000Z</time>
      </trkpt>
      <trkpt lat="48.10677" lon="1.36255">
        <ele>112</ele>
        <time>2018-10-09T12:18:55.000Z</time>
      </trkpt>
      <trkpt lat="48.10677" lon="1.36253">
        <ele>111</ele>
        <time>2018-10-09T12:18:56.000Z</time>
      </trkpt>
      <trkpt lat="48.10676" lon="1.36251">
        <ele>111</ele>
        <time>2018-10-09T12:18:57.000Z</time>
      </trkpt>
      <trkpt lat="48.10676" lon="1.3625">
        <ele>111</ele>
        <time>2018-10-09T12:18:58.000Z</time>
      </trkpt>
      <trkpt lat="48.10675" lon="1.36248">
        <ele>111</ele>
        <time>2018-10-09T12:18:59.000Z</time>
      </trkpt>
      <trkpt lat="48.10675" lon="1.36246">
        <ele>111</ele>
        <time>2018-10-09T12:19:00.000Z</time>
      </trkpt>
      <trkpt lat="48.10675" lon="1.36244">
        <ele>111</ele>
        <time>2018-10-09T12:19:01.000Z</time>
      </trkpt>
      <trkpt lat="48.10674" lon="1.36243">
        <ele>111</ele>
        <time>2018-10-09T12:19:02.000Z</time>
      </trkpt>
      <trkpt lat="48.10674" lon="1.36241">
        <ele>111</ele>
        <time>2018-10-09T12:19:03.000Z</time>
      </trkpt>
      <trkpt lat="48.10673" lon="1.36239">
        <ele>111</ele>
        <time>2018-10-09T12:19:04.000Z</time>
      </trkpt>
      <trkpt lat="48.10672" lon="1.36238">
        <ele>111</ele>
        <time>2018-10-09T12:19:05.000Z</time>
      </trkpt>
      <trkpt lat="48.10672" lon="1.36236">
        <ele>111</ele>
        <time>2018-10-09T12:19:06.000Z</time>
      </trkpt>
      <trkpt lat="48.10671" lon="1.36235">
        <ele>112</ele>
        <time>2018-10-09T12:19:07.000Z</time>
      </trkpt>
      <trkpt lat="48.1067" lon="1.36233">
        <ele>112</ele>
        <time>2018-10-09T12:19:08.000Z</time>
      </trkpt>
      <trkpt lat="48.1067" lon="1.36231">
        <ele>111</ele>
        <time>2018-10-09T12:19:09.000Z</time>
      </trkpt>
      <trkpt lat="48.10669" lon="1.36229">
        <ele>112</ele>
        <time>2018-10-09T12:19:10.000Z</time>
      </trkpt>
      <trkpt lat="48.10668" lon="1.36228">
        <ele>112</ele>
        <time>2018-10-09T12:19:11.000Z</time>
      </trkpt>
      <trkpt lat="48.10668" lon="1.36226">
        <ele>111</ele>
        <time>2018-10-09T12:19:12.000Z</time>
      </trkpt>
      <trkpt lat="48.10667" lon="1.36225">
        <ele>111</ele>
        <time>2018-10-09T12:19:13.000Z</time>
      </trkpt>
      <trkpt lat="48.10666" lon="1.36223">
        <ele>110</ele>
        <time>2018-10-09T12:19:14.000Z</time>
      </trkpt>
      <trkpt lat="48.10665" lon="1.36221">
        <ele>110</ele>
        <time>2018-10-09T12:19:15.000Z</time>
      </trkpt>
      <trkpt lat="48.10665" lon="1.36219">
        <ele>110</ele>
        <time>2018-10-09T12:19:16.000Z</time>
      </trkpt>
      <trkpt lat="48.10664" lon="1.36217">
        <ele>110</ele>
        <time>2018-10-09T12:19:17.000Z</time>
      </trkpt>
      <trkpt lat="48.10664" lon="1.36215">
        <ele>110</ele>
        <time>2018-10-09T12:19:18.000Z</time>
      </trkpt>
      <trkpt lat="48.10664" lon="1.36213">
        <ele>110</ele>
        <time>2018-10-09T12:19:19.000Z</time>
      </trkpt>
      <trkpt lat="48.10664" lon="1.36212">
        <ele>110</ele>
        <time>2018-10-09T12:19:20.000Z</time>
      </trkpt>
      <trkpt lat="48.10663" lon="1.3621">
        <ele>110</ele>
        <time>2018-10-09T12:19:21.000Z</time>
      </trkpt>
      <trkpt lat="48.10663" lon="1.36209">
        <ele>111</ele>
        <time>2018-10-09T12:19:22.000Z</time>
      </trkpt>
      <trkpt lat="48.10662" lon="1.36207">
        <ele>111</ele>
        <time>2018-10-09T12:19:23.000Z</time>
      </trkpt>
      <trkpt lat="48.10662" lon="1.36205">
        <ele>111</ele>
        <time>2018-10-09T12:19:24.000Z</time>
      </trkpt>
      <trkpt lat="48.10661" lon="1.36203">
        <ele>111</ele>
        <time>2018-10-09T12:19:25.000Z</time>
      </trkpt>
      <trkpt lat="48.1066" lon="1.36201">
        <ele>112</ele>
        <time>2018-10-09T12:19:26.000Z</time>
      </trkpt>
      <trkpt lat="48.1066" lon="1.36199">
        <ele>112</ele>
        <time>2018-10-09T12:19:27.000Z</time>
      </trkpt>
      <trkpt lat="48.10659" lon="1.36198">
        <ele>112</ele>
        <time>2018-10-09T12:19:28.000Z</time>
      </trkpt>
      <trkpt lat="48.10659" lon="1.36196">
        <ele>112</ele>
        <time>2018-10-09T12:19:29.000Z</time>
      </trkpt>
      <trkpt lat="48.10658" lon="1.36194">
        <ele>112</ele>
        <time>2018-10-09T12:19:30.000Z</time>
      </trkpt>
      <trkpt lat="48.10658" lon="1.36192">
        <ele>111</ele>
        <time>2018-10-09T12:19:31.000Z</time>
      </trkpt>
      <trkpt lat="48.10657" lon="1.36191">
        <ele>112</ele>
        <time>2018-10-09T12:19:32.000Z</time>
      </trkpt>
      <trkpt lat="48.10657" lon="1.36189">
        <ele>112</ele>
        <time>2018-10-09T12:19:33.000Z</time>
      </trkpt>
      <trkpt lat="48.10656" lon="1.36188">
        <ele>111</ele>
        <time>2018-10-09T12:19:34.000Z</time>
      </trkpt>
      <trkpt lat="48.10655" lon="1.36186">
        <ele>111</ele>
        <time>2018-10-09T12:19:35.000Z</time>
      </trkpt>
      <trkpt lat="48.10655" lon="1.36184">
        <ele>111</ele>
        <time>2018-10-09T12:19:36.000Z</time>
      </trkpt>
      <trkpt lat="48.10654" lon="1.36183">
        <ele>111</ele>
        <time>2018-10-09T12:19:37.000Z</time>
      </trkpt>
      <trkpt lat="48.10654" lon="1.36181">
        <ele>111</ele>
        <time>2018-10-09T12:19:38.000Z</time>
      </trkpt>
      <trkpt lat="48.10653" lon="1.36179">
        <ele>111</ele>
        <time>2018-10-09T12:19:39.000Z</time>
      </trkpt>
      <trkpt lat="48.10653" lon="1.36178">
        <ele>111</ele>
        <time>2018-10-09T12:19:40.000Z</time>
      </trkpt>
      <trkpt lat="48.10652" lon="1.36176">
        <ele>111</ele>
        <time>2018-10-09T12:19:41.000Z</time>
      </trkpt>
      <trkpt lat="48.10652" lon="1.36175">
        <ele>111</ele>
        <time>2018-10-09T12:19:42.000Z</time>
      </trkpt>
      <trkpt lat="48.10651" lon="1.36173">
        <ele>110</ele>
        <time>2018-10-09T12:19:43.000Z</time>
      </trkpt>
      <trkpt lat="48.1065" lon="1.36172">
        <ele>110</ele>
        <time>2018-10-09T12:19:44.000Z</time>
      </trkpt>
      <trkpt lat="48.1065" lon="1.36171">
        <ele>111</ele>
        <time>2018-10-09T12:19:45.000Z</time>
      </trkpt>
      <trkpt lat="48.10649" lon="1.36169">
        <ele>110</ele>
        <time>2018-10-09T12:19:46.000Z</time>
      </trkpt>
      <trkpt lat="48.10649" lon="1.36167">
        <ele>111</ele>
        <time>2018-10-09T12:19:47.000Z</time>
      </trkpt>
      <trkpt lat="48.10648" lon="1.36166">
        <ele>110</ele>
        <time>2018-10-09T12:19:48.000Z</time>
      </trkpt>
      <trkpt lat="48.10648" lon="1.36164">
        <ele>111</ele>
        <time>2018-10-09T12:19:49.000Z</time>
      </trkpt>
      <trkpt lat="48.10647" lon="1.36162">
        <ele>110</ele>
        <time>2018-10-09T12:19:50.000Z</time>
      </trkpt>
      <trkpt lat="48.10647" lon="1.36161">
        <ele>110</ele>
        <time>2018-10-09T12:19:51.000Z</time>
      </trkpt>
      <trkpt lat="48.10646" lon="1.36159">
        <ele>111</ele>
        <time>2018-10-09T12:19:52.000Z</time>
      </trkpt>
      <trkpt lat="48.10645" lon="1.36158">
        <ele>110</ele>
        <time>2018-10-09T12:19:53.000Z</time>
      </trkpt>
      <trkpt lat="48.10645" lon="1.36156">
        <ele>110</ele>
        <time>2018-10-09T12:19:54.000Z</time>
      </trkpt>
      <trkpt lat="48.10644" lon="1.36154">
        <ele>110</ele>
        <time>2018-10-09T12:19:55.000Z</time>
      </trkpt>
      <trkpt lat="48.10643" lon="1.36153">
        <ele>110</ele>
        <time>2018-10-09T12:19:56.000Z</time>
      </trkpt>
      <trkpt lat="48.10643" lon="1.36151">
        <ele>110</ele>
        <time>2018-10-09T12:19:57.000Z</time>
      </trkpt>
      <trkpt lat="48.10642" lon="1.3615">
        <ele>110</ele>
        <time>2018-10-09T12:19:58.000Z</time>
      </trkpt>
      <trkpt lat="48.10641" lon="1.36148">
        <ele>110</ele>
        <time>2018-10-09T12:19:59.000Z</time>
      </trkpt>
      <trkpt lat="48.10641" lon="1.36146">
        <ele>110</ele>
        <time>2018-10-09T12:20:00.000Z</time>
      </trkpt>
      <trkpt lat="48.1064" lon="1.36145">
        <ele>110</ele>
        <time>2018-10-09T12:20:01.000Z</time>
      </trkpt>
      <trkpt lat="48.1064" lon="1.36143">
        <ele>110</ele>
        <time>2018-10-09T12:20:02.000Z</time>
      </trkpt>
      <trkpt lat="48.10639" lon="1.36141">
        <ele>110</ele>
        <time>2018-10-09T12:20:03.000Z</time>
      </trkpt>
      <trkpt lat="48.10639" lon="1.3614">
        <ele>110</ele>
        <time>2018-10-09T12:20:04.000Z</time>
      </trkpt>
      <trkpt lat="48.10638" lon="1.36138">
        <ele>111</ele>
        <time>2018-10-09T12:20:05.000Z</time>
      </trkpt>
      <trkpt lat="48.10638" lon="1.36137">
        <ele>111</ele>
        <time>2018-10-09T12:20:06.000Z</time>
      </trkpt>
      <trkpt lat="48.10637" lon="1.36135">
        <ele>111</ele>
        <time>2018-10-09T12:20:07.000Z</time>
      </trkpt>
      <trkpt lat="48.10636" lon="1.36134">
        <ele>111</ele>
        <time>2018-10-09T12:20:08.000Z</time>
      </trkpt>
      <trkpt lat="48.10636" lon="1.36133">
        <ele>110</ele>
        <time>2018-10-09T12:20:09.000Z</time>
      </trkpt>
      <trkpt lat="48.10635" lon="1.36131">
        <ele>111</ele>
        <time>2018-10-09T12:20:10.000Z</time>
      </trkpt>
      <trkpt lat="48.10635" lon="1.3613">
        <ele>111</ele>
        <time>2018-10-09T12:20:11.000Z</time>
      </trkpt>
      <trkpt lat="48.10634" lon="1.36129">
        <ele>111</ele>
        <time>2018-10-09T12:20:12.000Z</time>
      </trkpt>
      <trkpt lat="48.10634" lon="1.36128">
        <ele>110</ele>
        <time>2018-10-09T12:20:13.000Z</time>
      </trkpt>
      <trkpt lat="48.10633" lon="1.36126">
        <ele>111</ele>
        <time>2018-10-09T12:20:14.000Z</time>
      </trkpt>
      <trkpt lat="48.10633" lon="1.36125">
        <ele>110</ele>
        <time>2018-10-09T12:20:15.000Z</time>
      </trkpt>
      <trkpt lat="48.10632" lon="1.36124">
        <ele>110</ele>
        <time>2018-10-09T12:20:16.000Z</time>
      </trkpt>
      <trkpt lat="48.10632" lon="1.36122">
        <ele>110</ele>
        <time>2018-10-09T12:20:17.000Z</time>
      </trkpt>
      <trkpt lat="48.10631" lon="1.36121">
        <ele>110</ele>
        <time>2018-10-09T12:20:18.000Z</time>
      </trkpt>
      <trkpt lat="48.10631" lon="1.3612">
        <ele>111</ele>
        <time>2018-10-09T12:20:19.000Z</time>
      </trkpt>
      <trkpt lat="48.1063" lon="1.36118">
        <ele>111</ele>
        <time>2018-10-09T12:20:20.000Z</time>
      </trkpt>
      <trkpt lat="48.1063" lon="1.36117">
        <ele>112</ele>
        <time>2018-10-09T12:20:21.000Z</time>
      </trkpt>
      <trkpt lat="48.10629" lon="1.36115">
        <ele>112</ele>
        <time>2018-10-09T12:20:22.000Z</time>
      </trkpt>
      <trkpt lat="48.10629" lon="1.36114">
        <ele>112</ele>
        <time>2018-10-09T12:20:23.000Z</time>
      </trkpt>
      <trkpt lat="48.10629" lon="1.36113">
        <ele>112</ele>
        <time>2018-10-09T12:20:24.000Z</time>
      </trkpt>
      <trkpt lat="48.10629" lon="1.36112">
        <ele>112</ele>
        <time>2018-10-09T12:20:25.000Z</time>
      </trkpt>
      <trkpt lat="48.10628" lon="1.36111">
        <ele>112</ele>
        <time>2018-10-09T12:20:26.000Z</time>
      </trkpt>
      <trkpt lat="48.10628" lon="1.3611">
        <ele>113</ele>
        <time>2018-10-09T12:20:27.000Z</time>
      </trkpt>
      <trkpt lat="48.10628" lon="1.36109">
        <ele>113</ele>
        <time>2018-10-09T12:20:28.000Z</time>
      </trkpt>
      <trkpt lat="48.10627" lon="1.36107">
        <ele>113</ele>
        <time>2018-10-09T12:20:29.000Z</time>
      </trkpt>
      <trkpt lat="48.10627" lon="1.36106">
        <ele>113</ele>
        <time>2018-10-09T12:20:30.000Z</time>
      </trkpt>
      <trkpt lat="48.10626" lon="1.36104">
        <ele>113</ele>
        <time>2018-10-09T12:20:31.000Z</time>
      </trkpt>
      <trkpt lat="48.10626" lon="1.36103">
        <ele>113</ele>
        <time>2018-10-09T12:20:32.000Z</time>
      </trkpt>
      <trkpt lat="48.10625" lon="1.36101">
        <ele>112</ele>
        <time>2018-10-09T12:20:33.000Z</time>
      </trkpt>
      <trkpt lat="48.10624" lon="1.361">
        <ele>112</ele>
        <time>2018-10-09T12:20:34.000Z</time>
      </trkpt>
      <trkpt lat="48.10623" lon="1.36098">
        <ele>112</ele>
        <time>2018-10-09T12:20:35.000Z</time>
      </trkpt>
      <trkpt lat="48.10623" lon="1.36097">
        <ele>112</ele>
        <time>2018-10-09T12:20:36.000Z</time>
      </trkpt>
      <trkpt lat="48.10622" lon="1.36095">
        <ele>112</ele>
        <time>2018-10-09T12:20:37.000Z</time>
      </trkpt>
      <trkpt lat="48.10621" lon="1.36094">
        <ele>113</ele>
        <time>2018-10-09T12:20:38.000Z</time>
      </trkpt>
      <trkpt lat="48.10621" lon="1.36093">
        <ele>113</ele>
        <time>2018-10-09T12:20:39.000Z</time>
      </trkpt>
      <trkpt lat="48.1062" lon="1.36091">
        <ele>113</ele>
        <time>2018-10-09T12:20:40.000Z</time>
      </trkpt>
      <trkpt lat="48.1062" lon="1.3609">
        <ele>113</ele>
        <time>2018-10-09T12:20:41.000Z</time>
      </trkpt>
      <trkpt lat="48.1062" lon="1.36088">
        <ele>113</ele>
        <time>2018-10-09T12:20:42.000Z</time>
      </trkpt>
      <trkpt lat="48.10619" lon="1.36087">
        <ele>113</ele>
        <time>2018-10-09T12:20:43.000Z</time>
      </trkpt>
      <trkpt lat="48.10619" lon="1.36086">
        <ele>112</ele>
        <time>2018-10-09T12:20:44.000Z</time>
      </trkpt>
      <trkpt lat="48.10618" lon="1.36085">
        <ele>113</ele>
        <time>2018-10-09T12:20:45.000Z</time>
      </trkpt>
      <trkpt lat="48.10618" lon="1.36084">
        <ele>112</ele>
        <time>2018-10-09T12:20:46.000Z</time>
      </trkpt>
      <trkpt lat="48.10617" lon="1.36082">
        <ele>112</ele>
        <time>2018-10-09T12:20:47.000Z</time>
      </trkpt>
      <trkpt lat="48.10617" lon="1.36081">
        <ele>113</ele>
        <time>2018-10-09T12:20:48.000Z</time>
      </trkpt>
      <trkpt lat="48.10616" lon="1.3608">
        <ele>113</ele>
        <time>2018-10-09T12:20:49.000Z</time>
      </trkpt>
      <trkpt lat="48.10616" lon="1.36078">
        <ele>113</ele>
        <time>2018-10-09T12:20:50.000Z</time>
      </trkpt>
      <trkpt lat="48.10615" lon="1.36077">
        <ele>112</ele>
        <time>2018-10-09T12:20:51.000Z</time>
      </trkpt>
      <trkpt lat="48.10615" lon="1.36075">
        <ele>113</ele>
        <time>2018-10-09T12:20:52.000Z</time>
      </trkpt>
      <trkpt lat="48.10614" lon="1.36074">
        <ele>112</ele>
        <time>2018-10-09T12:20:53.000Z</time>
      </trkpt>
      <trkpt lat="48.10614" lon="1.36073">
        <ele>112</ele>
        <time>2018-10-09T12:20:54.000Z</time>
      </trkpt>
      <trkpt lat="48.10613" lon="1.36071">
        <ele>113</ele>
        <time>2018-10-09T12:20:55.000Z</time>
      </trkpt>
      <trkpt lat="48.10613" lon="1.36069">
        <ele>113</ele>
        <time>2018-10-09T12:20:56.000Z</time>
      </trkpt>
      <trkpt lat="48.10613" lon="1.36068">
        <ele>113</ele>
        <time>2018-10-09T12:20:57.000Z</time>
      </trkpt>
      <trkpt lat="48.10612" lon="1.36066">
        <ele>113</ele>
        <time>2018-10-09T12:20:58.000Z</time>
      </trkpt>
      <trkpt lat="48.10612" lon="1.36064">
        <ele>113</ele>
        <time>2018-10-09T12:20:59.000Z</time>
      </trkpt>
      <trkpt lat="48.10611" lon="1.36063">
        <ele>113</ele>
        <time>2018-10-09T12:21:00.000Z</time>
      </trkpt>
      <trkpt lat="48.10611" lon="1.36061">
        <ele>113</ele>
        <time>2018-10-09T12:21:01.000Z</time>
      </trkpt>
      <trkpt lat="48.1061" lon="1.3606">
        <ele>113</ele>
        <time>2018-10-09T12:21:02.000Z</time>
      </trkpt>
      <trkpt lat="48.1061" lon="1.36058">
        <ele>113</ele>
        <time>2018-10-09T12:21:03.000Z</time>
      </trkpt>
      <trkpt lat="48.10609" lon="1.36056">
        <ele>112</ele>
        <time>2018-10-09T12:21:04.000Z</time>
      </trkpt>
      <trkpt lat="48.10608" lon="1.36054">
        <ele>112</ele>
        <time>2018-10-09T12:21:05.000Z</time>
      </trkpt>
      <trkpt lat="48.10608" lon="1.36053">
        <ele>112</ele>
        <time>2018-10-09T12:21:06.000Z</time>
      </trkpt>
      <trkpt lat="48.10607" lon="1.36051">
        <ele>112</ele>
        <time>2018-10-09T12:21:07.000Z</time>
      </trkpt>
      <trkpt lat="48.10607" lon="1.3605">
        <ele>112</ele>
        <time>2018-10-09T12:21:08.000Z</time>
      </trkpt>
      <trkpt lat="48.10606" lon="1.36048">
        <ele>112</ele>
        <time>2018-10-09T12:21:09.000Z</time>
      </trkpt>
      <trkpt lat="48.10606" lon="1.36047">
        <ele>112</ele>
        <time>2018-10-09T12:21:10.000Z</time>
      </trkpt>
      <trkpt lat="48.10605" lon="1.36046">
        <ele>112</ele>
        <time>2018-10-09T12:21:11.000Z</time>
      </trkpt>
      <trkpt lat="48.10605" lon="1.36044">
        <ele>112</ele>
        <time>2018-10-09T12:21:12.000Z</time>
      </trkpt>
      <trkpt lat="48.10604" lon="1.36043">
        <ele>112</ele>
        <time>2018-10-09T12:21:13.000Z</time>
      </trkpt>
      <trkpt lat="48.10604" lon="1.36042">
        <ele>112</ele>
        <time>2018-10-09T12:21:14.000Z</time>
      </trkpt>
      <trkpt lat="48.10603" lon="1.3604">
        <ele>112</ele>
        <time>2018-10-09T12:21:15.000Z</time>
      </trkpt>
      <trkpt lat="48.10603" lon="1.36039">
        <ele>112</ele>
        <time>2018-10-09T12:21:16.000Z</time>
      </trkpt>
      <trkpt lat="48.10602" lon="1.36037">
        <ele>112</ele>
        <time>2018-10-09T12:21:17.000Z</time>
      </trkpt>
      <trkpt lat="48.10601" lon="1.36035">
        <ele>111</ele>
        <time>2018-10-09T12:21:18.000Z</time>
      </trkpt>
      <trkpt lat="48.10601" lon="1.36034">
        <ele>112</ele>
        <time>2018-10-09T12:21:19.000Z</time>
      </trkpt>
      <trkpt lat="48.106" lon="1.36032">
        <ele>112</ele>
        <time>2018-10-09T12:21:20.000Z</time>
      </trkpt>
      <trkpt lat="48.106" lon="1.36031">
        <ele>112</ele>
        <time>2018-10-09T12:21:21.000Z</time>
      </trkpt>
      <trkpt lat="48.10599" lon="1.36029">
        <ele>112</ele>
        <time>2018-10-09T12:21:22.000Z</time>
      </trkpt>
      <trkpt lat="48.10599" lon="1.36028">
        <ele>112</ele>
        <time>2018-10-09T12:21:23.000Z</time>
      </trkpt>
      <trkpt lat="48.10598" lon="1.36027">
        <ele>112</ele>
        <time>2018-10-09T12:21:24.000Z</time>
      </trkpt>
      <trkpt lat="48.10598" lon="1.36025">
        <ele>113</ele>
        <time>2018-10-09T12:21:25.000Z</time>
      </trkpt>
      <trkpt lat="48.10598" lon="1.36024">
        <ele>113</ele>
        <time>2018-10-09T12:21:26.000Z</time>
      </trkpt>
      <trkpt lat="48.10597" lon="1.36023">
        <ele>113</ele>
        <time>2018-10-09T12:21:27.000Z</time>
      </trkpt>
      <trkpt lat="48.10597" lon="1.36021">
        <ele>113</ele>
        <time>2018-10-09T12:21:28.000Z</time>
      </trkpt>
      <trkpt lat="48.10596" lon="1.36019">
        <ele>114</ele>
        <time>2018-10-09T12:21:29.000Z</time>
      </trkpt>
      <trkpt lat="48.10596" lon="1.36018">
        <ele>113</ele>
        <time>2018-10-09T12:21:30.000Z</time>
      </trkpt>
      <trkpt lat="48.10595" lon="1.36016">
        <ele>113</ele>
        <time>2018-10-09T12:21:31.000Z</time>
      </trkpt>
      <trkpt lat="48.10594" lon="1.36014">
        <ele>113</ele>
        <time>2018-10-09T12:21:32.000Z</time>
      </trkpt>
      <trkpt lat="48.10593" lon="1.36011">
        <ele>113</ele>
        <time>2018-10-09T12:21:33.000Z</time>
      </trkpt>
      <trkpt lat="48.10593" lon="1.3601">
        <ele>114</ele>
        <time>2018-10-09T12:21:34.000Z</time>
      </trkpt>
      <trkpt lat="48.10592" lon="1.36008">
        <ele>113</ele>
        <time>2018-10-09T12:21:35.000Z</time>
      </trkpt>
      <trkpt lat="48.10591" lon="1.36006">
        <ele>113</ele>
        <time>2018-10-09T12:21:36.000Z</time>
      </trkpt>
      <trkpt lat="48.10591" lon="1.36005">
        <ele>113</ele>
        <time>2018-10-09T12:21:37.000Z</time>
      </trkpt>
      <trkpt lat="48.10591" lon="1.36003">
        <ele>113</ele>
        <time>2018-10-09T12:21:38.000Z</time>
      </trkpt>
      <trkpt lat="48.1059" lon="1.36002">
        <ele>114</ele>
        <time>2018-10-09T12:21:39.000Z</time>
      </trkpt>
      <trkpt lat="48.1059" lon="1.36001">
        <ele>114</ele>
        <time>2018-10-09T12:21:40.000Z</time>
      </trkpt>
      <trkpt lat="48.10589" lon="1.35999">
        <ele>113</ele>
        <time>2018-10-09T12:21:41.000Z</time>
      </trkpt>
      <trkpt lat="48.10589" lon="1.35998">
        <ele>114</ele>
        <time>2018-10-09T12:21:42.000Z</time>
      </trkpt>
      <trkpt lat="48.10588" lon="1.35997">
        <ele>114</ele>
        <time>2018-10-09T12:21:43.000Z</time>
      </trkpt>
      <trkpt lat="48.10587" lon="1.35996">
        <ele>114</ele>
        <time>2018-10-09T12:21:44.000Z</time>
      </trkpt>
      <trkpt lat="48.10587" lon="1.35995">
        <ele>113</ele>
        <time>2018-10-09T12:21:45.000Z</time>
      </trkpt>
      <trkpt lat="48.10586" lon="1.35993">
        <ele>113</ele>
        <time>2018-10-09T12:21:46.000Z</time>
      </trkpt>
      <trkpt lat="48.10585" lon="1.35992">
        <ele>113</ele>
        <time>2018-10-09T12:21:47.000Z</time>
      </trkpt>
      <trkpt lat="48.10584" lon="1.3599">
        <ele>113</ele>
        <time>2018-10-09T12:21:48.000Z</time>
      </trkpt>
      <trkpt lat="48.10583" lon="1.35989">
        <ele>113</ele>
        <time>2018-10-09T12:21:49.000Z</time>
      </trkpt>
      <trkpt lat="48.10583" lon="1.35988">
        <ele>113</ele>
        <time>2018-10-09T12:21:50.000Z</time>
      </trkpt>
      <trkpt lat="48.10582" lon="1.35987">
        <ele>113</ele>
        <time>2018-10-09T12:21:51.000Z</time>
      </trkpt>
      <trkpt lat="48.10581" lon="1.35986">
        <ele>113</ele>
        <time>2018-10-09T12:21:52.000Z</time>
      </trkpt>
      <trkpt lat="48.1058" lon="1.35985">
        <ele>113</ele>
        <time>2018-10-09T12:21:53.000Z</time>
      </trkpt>
      <trkpt lat="48.10579" lon="1.35985">
        <ele>113</ele>
        <time>2018-10-09T12:21:54.000Z</time>
      </trkpt>
      <trkpt lat="48.10579" lon="1.35985">
        <ele>112</ele>
        <time>2018-10-09T12:21:55.000Z</time>
      </trkpt>
      <trkpt lat="48.10578" lon="1.35985">
        <ele>113</ele>
        <time>2018-10-09T12:21:56.000Z</time>
      </trkpt>
      <trkpt lat="48.10577" lon="1.35986">
        <ele>112</ele>
        <time>2018-10-09T12:21:57.000Z</time>
      </trkpt>
      <trkpt lat="48.10576" lon="1.35986">
        <ele>112</ele>
        <time>2018-10-09T12:21:58.000Z</time>
      </trkpt>
      <trkpt lat="48.10575" lon="1.35987">
        <ele>112</ele>
        <time>2018-10-09T12:21:59.000Z</time>
      </trkpt>
      <trkpt lat="48.10574" lon="1.35988">
        <ele>112</ele>
        <time>2018-10-09T12:22:00.000Z</time>
      </trkpt>
      <trkpt lat="48.10573" lon="1.35989">
        <ele>112</ele>
        <time>2018-10-09T12:22:01.000Z</time>
      </trkpt>
      <trkpt lat="48.10572" lon="1.3599">
        <ele>112</ele>
        <time>2018-10-09T12:22:02.000Z</time>
      </trkpt>
      <trkpt lat="48.10571" lon="1.35991">
        <ele>112</ele>
        <time>2018-10-09T12:22:03.000Z</time>
      </trkpt>
      <trkpt lat="48.1057" lon="1.35992">
        <ele>112</ele>
        <time>2018-10-09T12:22:04.000Z</time>
      </trkpt>
      <trkpt lat="48.10569" lon="1.35992">
        <ele>112</ele>
        <time>2018-10-09T12:22:05.000Z</time>
      </trkpt>
      <trkpt lat="48.10568" lon="1.35993">
        <ele>112</ele>
        <time>2018-10-09T12:22:06.000Z</time>
      </trkpt>
      <trkpt lat="48.10567" lon="1.35994">
        <ele>112</ele>
        <time>2018-10-09T12:22:07.000Z</time>
      </trkpt>
      <trkpt lat="48.10566" lon="1.35995">
        <ele>112</ele>
        <time>2018-10-09T12:22:08.000Z</time>
      </trkpt>
      <trkpt lat="48.10565" lon="1.35996">
        <ele>112</ele>
        <time>2018-10-09T12:22:09.000Z</time>
      </trkpt>
      <trkpt lat="48.10564" lon="1.35997">
        <ele>112</ele>
        <time>2018-10-09T12:22:10.000Z</time>
      </trkpt>
      <trkpt lat="48.10563" lon="1.35997">
        <ele>112</ele>
        <time>2018-10-09T12:22:11.000Z</time>
      </trkpt>
      <trkpt lat="48.10562" lon="1.35998">
        <ele>111</ele>
        <time>2018-10-09T12:22:12.000Z</time>
      </trkpt>
      <trkpt lat="48.10561" lon="1.35998">
        <ele>111</ele>
        <time>2018-10-09T12:22:13.000Z</time>
      </trkpt>
      <trkpt lat="48.1056" lon="1.35999">
        <ele>111</ele>
        <time>2018-10-09T12:22:14.000Z</time>
      </trkpt>
      <trkpt lat="48.10559" lon="1.35999">
        <ele>111</ele>
        <time>2018-10-09T12:22:15.000Z</time>
      </trkpt>
      <trkpt lat="48.10558" lon="1.35999">
        <ele>111</ele>
        <time>2018-10-09T12:22:16.000Z</time>
      </trkpt>
      <trkpt lat="48.10557" lon="1.36">
        <ele>111</ele>
        <time>2018-10-09T12:22:17.000Z</time>
      </trkpt>
      <trkpt lat="48.10555" lon="1.36">
        <ele>111</ele>
        <time>2018-10-09T12:22:18.000Z</time>
      </trkpt>
      <trkpt lat="48.10554" lon="1.36001">
        <ele>111</ele>
        <time>2018-10-09T12:22:19.000Z</time>
      </trkpt>
      <trkpt lat="48.10553" lon="1.36001">
        <ele>111</ele>
        <time>2018-10-09T12:22:20.000Z</time>
      </trkpt>
      <trkpt lat="48.10552" lon="1.36001">
        <ele>111</ele>
        <time>2018-10-09T12:22:21.000Z</time>
      </trkpt>
      <trkpt lat="48.1055" lon="1.36001">
        <ele>111</ele>
        <time>2018-10-09T12:22:22.000Z</time>
      </trkpt>
      <trkpt lat="48.10549" lon="1.36001">
        <ele>111</ele>
        <time>2018-10-09T12:22:23.000Z</time>
      </trkpt>
      <trkpt lat="48.10548" lon="1.36002">
        <ele>111</ele>
        <time>2018-10-09T12:22:24.000Z</time>
      </trkpt>
      <trkpt lat="48.10547" lon="1.36002">
        <ele>111</ele>
        <time>2018-10-09T12:22:25.000Z</time>
      </trkpt>
      <trkpt lat="48.10546" lon="1.36002">
        <ele>111</ele>
        <time>2018-10-09T12:22:26.000Z</time>
      </trkpt>
      <trkpt lat="48.10544" lon="1.36002">
        <ele>112</ele>
        <time>2018-10-09T12:22:27.000Z</time>
      </trkpt>
      <trkpt lat="48.10543" lon="1.36001">
        <ele>113</ele>
        <time>2018-10-09T12:22:28.000Z</time>
      </trkpt>
      <trkpt lat="48.10542" lon="1.36001">
        <ele>114</ele>
        <time>2018-10-09T12:22:29.000Z</time>
      </trkpt>
      <trkpt lat="48.1054" lon="1.36001">
        <ele>114</ele>
        <time>2018-10-09T12:22:30.000Z</time>
      </trkpt>
      <trkpt lat="48.10539" lon="1.36001">
        <ele>114</ele>
        <time>2018-10-09T12:22:31.000Z</time>
      </trkpt>
      <trkpt lat="48.10538" lon="1.36001">
        <ele>115</ele>
        <time>2018-10-09T12:22:32.000Z</time>
      </trkpt>
      <trkpt lat="48.10536" lon="1.36001">
        <ele>115</ele>
        <time>2018-10-09T12:22:33.000Z</time>
      </trkpt>
      <trkpt lat="48.10535" lon="1.36">
        <ele>115</ele>
        <time>2018-10-09T12:22:34.000Z</time>
      </trkpt>
      <trkpt lat="48.10534" lon="1.36">
        <ele>115</ele>
        <time>2018-10-09T12:22:35.000Z</time>
      </trkpt>
      <trkpt lat="48.10533" lon="1.36">
        <ele>116</ele>
        <time>2018-10-09T12:22:36.000Z</time>
      </trkpt>
      <trkpt lat="48.10531" lon="1.36">
        <ele>115</ele>
        <time>2018-10-09T12:22:37.000Z</time>
      </trkpt>
      <trkpt lat="48.1053" lon="1.36">
        <ele>115</ele>
        <time>2018-10-09T12:22:38.000Z</time>
      </trkpt>
      <trkpt lat="48.10529" lon="1.36">
        <ele>116</ele>
        <time>2018-10-09T12:22:39.000Z</time>
      </trkpt>
      <trkpt lat="48.10527" lon="1.35999">
        <ele>116</ele>
        <time>2018-10-09T12:22:40.000Z</time>
      </trkpt>
      <trkpt lat="48.10526" lon="1.35999">
        <ele>116</ele>
        <time>2018-10-09T12:22:41.000Z</time>
      </trkpt>
      <trkpt lat="48.10525" lon="1.35999">
        <ele>116</ele>
        <time>2018-10-09T12:22:42.000Z</time>
      </trkpt>
      <trkpt lat="48.10523" lon="1.35998">
        <ele>117</ele>
        <time>2018-10-09T12:22:43.000Z</time>
      </trkpt>
      <trkpt lat="48.10522" lon="1.35998">
        <ele>117</ele>
        <time>2018-10-09T12:22:44.000Z</time>
      </trkpt>
      <trkpt lat="48.10521" lon="1.35998">
        <ele>117</ele>
        <time>2018-10-09T12:22:45.000Z</time>
      </trkpt>
      <trkpt lat="48.10519" lon="1.35997">
        <ele>117</ele>
        <time>2018-10-09T12:22:46.000Z</time>
      </trkpt>
      <trkpt lat="48.10518" lon="1.35997">
        <ele>117</ele>
        <time>2018-10-09T12:22:47.000Z</time>
      </trkpt>
      <trkpt lat="48.10517" lon="1.35997">
        <ele>117</ele>
        <time>2018-10-09T12:22:48.000Z</time>
      </trkpt>
      <trkpt lat="48.10516" lon="1.35996">
        <ele>118</ele>
        <time>2018-10-09T12:22:49.000Z</time>
      </trkpt>
      <trkpt lat="48.10514" lon="1.35996">
        <ele>118</ele>
        <time>2018-10-09T12:22:50.000Z</time>
      </trkpt>
      <trkpt lat="48.10513" lon="1.35996">
        <ele>118</ele>
        <time>2018-10-09T12:22:51.000Z</time>
      </trkpt>
      <trkpt lat="48.10511" lon="1.35996">
        <ele>119</ele>
        <time>2018-10-09T12:22:52.000Z</time>
      </trkpt>
      <trkpt lat="48.1051" lon="1.35996">
        <ele>119</ele>
        <time>2018-10-09T12:22:53.000Z</time>
      </trkpt>
      <trkpt lat="48.10508" lon="1.35996">
        <ele>119</ele>
        <time>2018-10-09T12:22:54.000Z</time>
      </trkpt>
      <trkpt lat="48.10507" lon="1.35995">
        <ele>120</ele>
        <time>2018-10-09T12:22:55.000Z</time>
      </trkpt>
      <trkpt lat="48.10506" lon="1.35995">
        <ele>120</ele>
        <time>2018-10-09T12:22:56.000Z</time>
      </trkpt>
      <trkpt lat="48.10505" lon="1.35995">
        <ele>120</ele>
        <time>2018-10-09T12:22:57.000Z</time>
      </trkpt>
      <trkpt lat="48.10503" lon="1.35995">
        <ele>120</ele>
        <time>2018-10-09T12:22:58.000Z</time>
      </trkpt>
      <trkpt lat="48.10502" lon="1.35995">
        <ele>120</ele>
        <time>2018-10-09T12:22:59.000Z</time>
      </trkpt>
      <trkpt lat="48.10501" lon="1.35994">
        <ele>121</ele>
        <time>2018-10-09T12:23:00.000Z</time>
      </trkpt>
      <trkpt lat="48.105" lon="1.35994">
        <ele>121</ele>
        <time>2018-10-09T12:23:01.000Z</time>
      </trkpt>
      <trkpt lat="48.10499" lon="1.35994">
        <ele>121</ele>
        <time>2018-10-09T12:23:02.000Z</time>
      </trkpt>
      <trkpt lat="48.10498" lon="1.35994">
        <ele>122</ele>
        <time>2018-10-09T12:23:03.000Z</time>
      </trkpt>
      <trkpt lat="48.10496" lon="1.35994">
        <ele>122</ele>
        <time>2018-10-09T12:23:04.000Z</time>
      </trkpt>
      <trkpt lat="48.10495" lon="1.35994">
        <ele>122</ele>
        <time>2018-10-09T12:23:05.000Z</time>
      </trkpt>
      <trkpt lat="48.10494" lon="1.35994">
        <ele>122</ele>
        <time>2018-10-09T12:23:06.000Z</time>
      </trkpt>
      <trkpt lat="48.10493" lon="1.35993">
        <ele>122</ele>
        <time>2018-10-09T12:23:07.000Z</time>
      </trkpt>
      <trkpt lat="48.10491" lon="1.35993">
        <ele>122</ele>
        <time>2018-10-09T12:23:08.000Z</time>
      </trkpt>
      <trkpt lat="48.1049" lon="1.35993">
        <ele>123</ele>
        <time>2018-10-09T12:23:09.000Z</time>
      </trkpt>
      <trkpt lat="48.10489" lon="1.35993">
        <ele>123</ele>
        <time>2018-10-09T12:23:10.000Z</time>
      </trkpt>
      <trkpt lat="48.10488" lon="1.35992">
        <ele>123</ele>
        <time>2018-10-09T12:23:11.000Z</time>
      </trkpt>
      <trkpt lat="48.10487" lon="1.35992">
        <ele>123</ele>
        <time>2018-10-09T12:23:12.000Z</time>
      </trkpt>
      <trkpt lat="48.10486" lon="1.35991">
        <ele>122</ele>
        <time>2018-10-09T12:23:13.000Z</time>
      </trkpt>
      <trkpt lat="48.10485" lon="1.35991">
        <ele>122</ele>
        <time>2018-10-09T12:23:14.000Z</time>
      </trkpt>
      <trkpt lat="48.10485" lon="1.3599">
        <ele>123</ele>
        <time>2018-10-09T12:23:15.000Z</time>
      </trkpt>
      <trkpt lat="48.10485" lon="1.3599">
        <ele>123</ele>
        <time>2018-10-09T12:23:16.000Z</time>
      </trkpt>
      <trkpt lat="48.10484" lon="1.3599">
        <ele>124</ele>
        <time>2018-10-09T12:23:17.000Z</time>
      </trkpt>
      <trkpt lat="48.10484" lon="1.3599">
        <ele>124</ele>
        <time>2018-10-09T12:23:18.000Z</time>
      </trkpt>
      <trkpt lat="48.10484" lon="1.3599">
        <ele>124</ele>
        <time>2018-10-09T12:23:19.000Z</time>
      </trkpt>
      <trkpt lat="48.10484" lon="1.3599">
        <ele>123</ele>
        <time>2018-10-09T12:23:20.000Z</time>
      </trkpt>
      <trkpt lat="48.10484" lon="1.3599">
        <ele>123</ele>
        <time>2018-10-09T12:23:21.000Z</time>
      </trkpt>
      <trkpt lat="48.10485" lon="1.3599">
        <ele>123</ele>
        <time>2018-10-09T12:23:22.000Z</time>
      </trkpt>
      <trkpt lat="48.1048" lon="1.35988">
        <ele>124</ele>
        <time>2018-10-09T12:23:23.097Z</time>
      </trkpt>
      <trkpt lat="48.10479" lon="1.35988">
        <ele>124</ele>
        <time>2018-10-09T12:23:24.097Z</time>
      </trkpt>
      <trkpt lat="48.10478" lon="1.35988">
        <ele>124</ele>
        <time>2018-10-09T12:23:25.097Z</time>
      </trkpt>
      <trkpt lat="48.10477" lon="1.35988">
        <ele>124</ele>
        <time>2018-10-09T12:23:26.097Z</time>
      </trkpt>
      <trkpt lat="48.10475" lon="1.35988">
        <ele>124</ele>
        <time>2018-10-09T12:23:27.097Z</time>
      </trkpt>
      <trkpt lat="48.10474" lon="1.35988">
        <ele>124</ele>
        <time>2018-10-09T12:23:28.097Z</time>
      </trkpt>
      <trkpt lat="48.10473" lon="1.35988">
        <ele>124</ele>
        <time>2018-10-09T12:23:29.097Z</time>
      </trkpt>
      <trkpt lat="48.10471" lon="1.35988">
        <ele>124</ele>
        <time>2018-10-09T12:23:30.097Z</time>
      </trkpt>
      <trkpt lat="48.1047" lon="1.35988">
        <ele>124</ele>
        <time>2018-10-09T12:23:31.097Z</time>
      </trkpt>
      <trkpt lat="48.10469" lon="1.35988">
        <ele>124</ele>
        <time>2018-10-09T12:23:32.097Z</time>
      </trkpt>
      <trkpt lat="48.10467" lon="1.35987">
        <ele>124</ele>
        <time>2018-10-09T12:23:33.097Z</time>
      </trkpt>
      <trkpt lat="48.10466" lon="1.35987">
        <ele>124</ele>
        <time>2018-10-09T12:23:34.097Z</time>
      </trkpt>
      <trkpt lat="48.10465" lon="1.35987">
        <ele>124</ele>
        <time>2018-10-09T12:23:35.097Z</time>
      </trkpt>
      <trkpt lat="48.10463" lon="1.35987">
        <ele>124</ele>
        <time>2018-10-09T12:23:36.097Z</time>
      </trkpt>
      <trkpt lat="48.10462" lon="1.35987">
        <ele>124</ele>
        <time>2018-10-09T12:23:37.097Z</time>
      </trkpt>
      <trkpt lat="48.1046" lon="1.35987">
        <ele>125</ele>
        <time>2018-10-09T12:23:38.097Z</time>
      </trkpt>
      <trkpt lat="48.10459" lon="1.35987">
        <ele>125</ele>
        <time>2018-10-09T12:23:39.097Z</time>
      </trkpt>
      <trkpt lat="48.10457" lon="1.35988">
        <ele>125</ele>
        <time>2018-10-09T12:23:40.097Z</time>
      </trkpt>
      <trkpt lat="48.10456" lon="1.35988">
        <ele>125</ele>
        <time>2018-10-09T12:23:41.097Z</time>
      </trkpt>
      <trkpt lat="48.10455" lon="1.35988">
        <ele>125</ele>
        <time>2018-10-09T12:23:42.097Z</time>
      </trkpt>
      <trkpt lat="48.10453" lon="1.35987">
        <ele>125</ele>
        <time>2018-10-09T12:23:43.097Z</time>
      </trkpt>
      <trkpt lat="48.10452" lon="1.35987">
        <ele>125</ele>
        <time>2018-10-09T12:23:44.097Z</time>
      </trkpt>
      <trkpt lat="48.1045" lon="1.35987">
        <ele>125</ele>
        <time>2018-10-09T12:23:45.097Z</time>
      </trkpt>
      <trkpt lat="48.10449" lon="1.35987">
        <ele>125</ele>
        <time>2018-10-09T12:23:46.097Z</time>
      </trkpt>
      <trkpt lat="48.10447" lon="1.35987">
        <ele>126</ele>
        <time>2018-10-09T12:23:47.097Z</time>
      </trkpt>
      <trkpt lat="48.10446" lon="1.35987">
        <ele>126</ele>
        <time>2018-10-09T12:23:48.097Z</time>
      </trkpt>
      <trkpt lat="48.10444" lon="1.35987">
        <ele>126</ele>
        <time>2018-10-09T12:23:49.097Z</time>
      </trkpt>
      <trkpt lat="48.10443" lon="1.35987">
        <ele>126</ele>
        <time>2018-10-09T12:23:50.097Z</time>
      </trkpt>
      <trkpt lat="48.10441" lon="1.35987">
        <ele>126</ele>
        <time>2018-10-09T12:23:51.097Z</time>
      </trkpt>
      <trkpt lat="48.1044" lon="1.35988">
        <ele>126</ele>
        <time>2018-10-09T12:23:52.097Z</time>
      </trkpt>
      <trkpt lat="48.10438" lon="1.35987">
        <ele>127</ele>
        <time>2018-10-09T12:23:53.097Z</time>
      </trkpt>
      <trkpt lat="48.10436" lon="1.35987">
        <ele>127</ele>
        <time>2018-10-09T12:23:54.097Z</time>
      </trkpt>
      <trkpt lat="48.10435" lon="1.35987">
        <ele>127</ele>
        <time>2018-10-09T12:23:55.097Z</time>
      </trkpt>
      <trkpt lat="48.10433" lon="1.35987">
        <ele>126</ele>
        <time>2018-10-09T12:23:56.097Z</time>
      </trkpt>
      <trkpt lat="48.10432" lon="1.35987">
        <ele>126</ele>
        <time>2018-10-09T12:23:57.097Z</time>
      </trkpt>
      <trkpt lat="48.10431" lon="1.35987">
        <ele>126</ele>
        <time>2018-10-09T12:23:58.097Z</time>
      </trkpt>
      <trkpt lat="48.10429" lon="1.35987">
        <ele>126</ele>
        <time>2018-10-09T12:23:59.097Z</time>
      </trkpt>
      <trkpt lat="48.10428" lon="1.35988">
        <ele>127</ele>
        <time>2018-10-09T12:24:00.097Z</time>
      </trkpt>
      <trkpt lat="48.10426" lon="1.35988">
        <ele>127</ele>
        <time>2018-10-09T12:24:01.097Z</time>
      </trkpt>
      <trkpt lat="48.10425" lon="1.35988">
        <ele>127</ele>
        <time>2018-10-09T12:24:02.097Z</time>
      </trkpt>
      <trkpt lat="48.10424" lon="1.35988">
        <ele>128</ele>
        <time>2018-10-09T12:24:03.097Z</time>
      </trkpt>
      <trkpt lat="48.10422" lon="1.35988">
        <ele>128</ele>
        <time>2018-10-09T12:24:04.097Z</time>
      </trkpt>
      <trkpt lat="48.10421" lon="1.35988">
        <ele>128</ele>
        <time>2018-10-09T12:24:05.097Z</time>
      </trkpt>
      <trkpt lat="48.1042" lon="1.35989">
        <ele>128</ele>
        <time>2018-10-09T12:24:06.097Z</time>
      </trkpt>
      <trkpt lat="48.10418" lon="1.35989">
        <ele>128</ele>
        <time>2018-10-09T12:24:07.097Z</time>
      </trkpt>
      <trkpt lat="48.10417" lon="1.35989">
        <ele>128</ele>
        <time>2018-10-09T12:24:08.097Z</time>
      </trkpt>
      <trkpt lat="48.10416" lon="1.35988">
        <ele>128</ele>
        <time>2018-10-09T12:24:09.097Z</time>
      </trkpt>
      <trkpt lat="48.10414" lon="1.35988">
        <ele>128</ele>
        <time>2018-10-09T12:24:10.097Z</time>
      </trkpt>
      <trkpt lat="48.10413" lon="1.35986">
        <ele>128</ele>
        <time>2018-10-09T12:24:11.097Z</time>
      </trkpt>
      <trkpt lat="48.10412" lon="1.35985">
        <ele>128</ele>
        <time>2018-10-09T12:24:12.097Z</time>
      </trkpt>
      <trkpt lat="48.10411" lon="1.35983">
        <ele>128</ele>
        <time>2018-10-09T12:24:13.097Z</time>
      </trkpt>
      <trkpt lat="48.10411" lon="1.35981">
        <ele>128</ele>
        <time>2018-10-09T12:24:14.097Z</time>
      </trkpt>
      <trkpt lat="48.1041" lon="1.35979">
        <ele>128</ele>
        <time>2018-10-09T12:24:15.097Z</time>
      </trkpt>
      <trkpt lat="48.1041" lon="1.35977">
        <ele>128</ele>
        <time>2018-10-09T12:24:16.097Z</time>
      </trkpt>
      <trkpt lat="48.1041" lon="1.35975">
        <ele>128</ele>
        <time>2018-10-09T12:24:17.097Z</time>
      </trkpt>
      <trkpt lat="48.1041" lon="1.35973">
        <ele>128</ele>
        <time>2018-10-09T12:24:18.097Z</time>
      </trkpt>
      <trkpt lat="48.1041" lon="1.35971">
        <ele>128</ele>
        <time>2018-10-09T12:24:19.097Z</time>
      </trkpt>
      <trkpt lat="48.10409" lon="1.35969">
        <ele>128</ele>
        <time>2018-10-09T12:24:20.097Z</time>
      </trkpt>
      <trkpt lat="48.10409" lon="1.35967">
        <ele>128</ele>
        <time>2018-10-09T12:24:21.097Z</time>
      </trkpt>
      <trkpt lat="48.10409" lon="1.35966">
        <ele>128</ele>
        <time>2018-10-09T12:24:22.097Z</time>
      </trkpt>
      <trkpt lat="48.10409" lon="1.35964">
        <ele>128</ele>
        <time>2018-10-09T12:24:23.097Z</time>
      </trkpt>
      <trkpt lat="48.1041" lon="1.35962">
        <ele>128</ele>
        <time>2018-10-09T12:24:24.097Z</time>
      </trkpt>
      <trkpt lat="48.1041" lon="1.3596">
        <ele>128</ele>
        <time>2018-10-09T12:24:25.097Z</time>
      </trkpt>
      <trkpt lat="48.1041" lon="1.35958">
        <ele>128</ele>
        <time>2018-10-09T12:24:26.097Z</time>
      </trkpt>
      <trkpt lat="48.1041" lon="1.35957">
        <ele>128</ele>
        <time>2018-10-09T12:24:27.097Z</time>
      </trkpt>
      <trkpt lat="48.1041" lon="1.35955">
        <ele>129</ele>
        <time>2018-10-09T12:24:28.097Z</time>
      </trkpt>
      <trkpt lat="48.10411" lon="1.35953">
        <ele>129</ele>
        <time>2018-10-09T12:24:29.097Z</time>
      </trkpt>
      <trkpt lat="48.10411" lon="1.35951">
        <ele>129</ele>
        <time>2018-10-09T12:24:30.097Z</time>
      </trkpt>
      <trkpt lat="48.10411" lon="1.3595">
        <ele>129</ele>
        <time>2018-10-09T12:24:31.097Z</time>
      </trkpt>
      <trkpt lat="48.10412" lon="1.35948">
        <ele>129</ele>
        <time>2018-10-09T12:24:32.097Z</time>
      </trkpt>
      <trkpt lat="48.10413" lon="1.35947">
        <ele>130</ele>
        <time>2018-10-09T12:24:33.097Z</time>
      </trkpt>
      <trkpt lat="48.10413" lon="1.35945">
        <ele>130</ele>
        <time>2018-10-09T12:24:34.097Z</time>
      </trkpt>
      <trkpt lat="48.10414" lon="1.35944">
        <ele>130</ele>
        <time>2018-10-09T12:24:35.097Z</time>
      </trkpt>
      <trkpt lat="48.10414" lon="1.35942">
        <ele>130</ele>
        <time>2018-10-09T12:24:36.097Z</time>
      </trkpt>
      <trkpt lat="48.10415" lon="1.35941">
        <ele>130</ele>
        <time>2018-10-09T12:24:37.097Z</time>
      </trkpt>
      <trkpt lat="48.10415" lon="1.35939">
        <ele>130</ele>
        <time>2018-10-09T12:24:38.097Z</time>
      </trkpt>
      <trkpt lat="48.10416" lon="1.35938">
        <ele>130</ele>
        <time>2018-10-09T12:24:39.097Z</time>
      </trkpt>
      <trkpt lat="48.10416" lon="1.35936">
        <ele>131</ele>
        <time>2018-10-09T12:24:40.097Z</time>
      </trkpt>
      <trkpt lat="48.10417" lon="1.35934">
        <ele>131</ele>
        <time>2018-10-09T12:24:41.097Z</time>
      </trkpt>
      <trkpt lat="48.10417" lon="1.35933">
        <ele>131</ele>
        <time>2018-10-09T12:24:42.097Z</time>
      </trkpt>
      <trkpt lat="48.10418" lon="1.35931">
        <ele>131</ele>
        <time>2018-10-09T12:24:43.097Z</time>
      </trkpt>
      <trkpt lat="48.10418" lon="1.35929">
        <ele>131</ele>
        <time>2018-10-09T12:24:44.097Z</time>
      </trkpt>
      <trkpt lat="48.10419" lon="1.35928">
        <ele>131</ele>
        <time>2018-10-09T12:24:45.097Z</time>
      </trkpt>
      <trkpt lat="48.10419" lon="1.35926">
        <ele>131</ele>
        <time>2018-10-09T12:24:46.097Z</time>
      </trkpt>
      <trkpt lat="48.1042" lon="1.35925">
        <ele>131</ele>
        <time>2018-10-09T12:24:47.097Z</time>
      </trkpt>
      <trkpt lat="48.1042" lon="1.35923">
        <ele>131</ele>
        <time>2018-10-09T12:24:48.097Z</time>
      </trkpt>
      <trkpt lat="48.10421" lon="1.35922">
        <ele>131</ele>
        <time>2018-10-09T12:24:49.097Z</time>
      </trkpt>
      <trkpt lat="48.10421" lon="1.3592">
        <ele>131</ele>
        <time>2018-10-09T12:24:50.097Z</time>
      </trkpt>
      <trkpt lat="48.10421" lon="1.35919">
        <ele>131</ele>
        <time>2018-10-09T12:24:51.097Z</time>
      </trkpt>
      <trkpt lat="48.10421" lon="1.35917">
        <ele>131</ele>
        <time>2018-10-09T12:24:52.097Z</time>
      </trkpt>
      <trkpt lat="48.10422" lon="1.35916">
        <ele>131</ele>
        <time>2018-10-09T12:24:53.097Z</time>
      </trkpt>
      <trkpt lat="48.10422" lon="1.35914">
        <ele>131</ele>
        <time>2018-10-09T12:24:54.097Z</time>
      </trkpt>
      <trkpt lat="48.10423" lon="1.35913">
        <ele>131</ele>
        <time>2018-10-09T12:24:55.097Z</time>
      </trkpt>
      <trkpt lat="48.10424" lon="1.35911">
        <ele>131</ele>
        <time>2018-10-09T12:24:56.097Z</time>
      </trkpt>
      <trkpt lat="48.10425" lon="1.35909">
        <ele>131</ele>
        <time>2018-10-09T12:24:57.097Z</time>
      </trkpt>
      <trkpt lat="48.10425" lon="1.35908">
        <ele>131</ele>
        <time>2018-10-09T12:24:58.097Z</time>
      </trkpt>
      <trkpt lat="48.10426" lon="1.35906">
        <ele>130</ele>
        <time>2018-10-09T12:24:59.097Z</time>
      </trkpt>
      <trkpt lat="48.10426" lon="1.35905">
        <ele>130</ele>
        <time>2018-10-09T12:25:00.097Z</time>
      </trkpt>
      <trkpt lat="48.10427" lon="1.35903">
        <ele>131</ele>
        <time>2018-10-09T12:25:01.097Z</time>
      </trkpt>
      <trkpt lat="48.10428" lon="1.35901">
        <ele>131</ele>
        <time>2018-10-09T12:25:02.097Z</time>
      </trkpt>
      <trkpt lat="48.10428" lon="1.35899">
        <ele>131</ele>
        <time>2018-10-09T12:25:03.097Z</time>
      </trkpt>
      <trkpt lat="48.10429" lon="1.35898">
        <ele>131</ele>
        <time>2018-10-09T12:25:04.097Z</time>
      </trkpt>
      <trkpt lat="48.10429" lon="1.35896">
        <ele>131</ele>
        <time>2018-10-09T12:25:05.097Z</time>
      </trkpt>
      <trkpt lat="48.1043" lon="1.35894">
        <ele>131</ele>
        <time>2018-10-09T12:25:06.097Z</time>
      </trkpt>
      <trkpt lat="48.1043" lon="1.35893">
        <ele>132</ele>
        <time>2018-10-09T12:25:07.097Z</time>
      </trkpt>
      <trkpt lat="48.10431" lon="1.35891">
        <ele>131</ele>
        <time>2018-10-09T12:25:08.097Z</time>
      </trkpt>
      <trkpt lat="48.10432" lon="1.3589">
        <ele>131</ele>
        <time>2018-10-09T12:25:09.097Z</time>
      </trkpt>
      <trkpt lat="48.10432" lon="1.35888">
        <ele>131</ele>
        <time>2018-10-09T12:25:10.097Z</time>
      </trkpt>
      <trkpt lat="48.10433" lon="1.35887">
        <ele>131</ele>
        <time>2018-10-09T12:25:11.097Z</time>
      </trkpt>
      <trkpt lat="48.10433" lon="1.35885">
        <ele>131</ele>
        <time>2018-10-09T12:25:12.097Z</time>
      </trkpt>
      <trkpt lat="48.10434" lon="1.35884">
        <ele>131</ele>
        <time>2018-10-09T12:25:13.097Z</time>
      </trkpt>
      <trkpt lat="48.10435" lon="1.35882">
        <ele>131</ele>
        <time>2018-10-09T12:25:14.097Z</time>
      </trkpt>
      <trkpt lat="48.10435" lon="1.35881">
        <ele>131</ele>
        <time>2018-10-09T12:25:15.097Z</time>
      </trkpt>
      <trkpt lat="48.10436" lon="1.35879">
        <ele>131</ele>
        <time>2018-10-09T12:25:16.097Z</time>
      </trkpt>
      <trkpt lat="48.10437" lon="1.35878">
        <ele>132</ele>
        <time>2018-10-09T12:25:17.097Z</time>
      </trkpt>
      <trkpt lat="48.10437" lon="1.35876">
        <ele>132</ele>
        <time>2018-10-09T12:25:18.097Z</time>
      </trkpt>
      <trkpt lat="48.10438" lon="1.35875">
        <ele>132</ele>
        <time>2018-10-09T12:25:19.097Z</time>
      </trkpt>
      <trkpt lat="48.10439" lon="1.35873">
        <ele>132</ele>
        <time>2018-10-09T12:25:20.097Z</time>
      </trkpt>
      <trkpt lat="48.1044" lon="1.35872">
        <ele>132</ele>
        <time>2018-10-09T12:25:21.097Z</time>
      </trkpt>
      <trkpt lat="48.1044" lon="1.3587">
        <ele>132</ele>
        <time>2018-10-09T12:25:22.097Z</time>
      </trkpt>
      <trkpt lat="48.10441" lon="1.35869">
        <ele>132</ele>
        <time>2018-10-09T12:25:23.097Z</time>
      </trkpt>
      <trkpt lat="48.10441" lon="1.35867">
        <ele>132</ele>
        <time>2018-10-09T12:25:24.097Z</time>
      </trkpt>
      <trkpt lat="48.10442" lon="1.35866">
        <ele>132</ele>
        <time>2018-10-09T12:25:25.097Z</time>
      </trkpt>
      <trkpt lat="48.10443" lon="1.35864">
        <ele>132</ele>
        <time>2018-10-09T12:25:26.097Z</time>
      </trkpt>
      <trkpt lat="48.10443" lon="1.35863">
        <ele>132</ele>
        <time>2018-10-09T12:25:27.097Z</time>
      </trkpt>
      <trkpt lat="48.10444" lon="1.35862">
        <ele>132</ele>
        <time>2018-10-09T12:25:28.097Z</time>
      </trkpt>
      <trkpt lat="48.10445" lon="1.3586">
        <ele>132</ele>
        <time>2018-10-09T12:25:29.097Z</time>
      </trkpt>
      <trkpt lat="48.10446" lon="1.35859">
        <ele>132</ele>
        <time>2018-10-09T12:25:30.097Z</time>
      </trkpt>
      <trkpt lat="48.10446" lon="1.35858">
        <ele>132</ele>
        <time>2018-10-09T12:25:31.097Z</time>
      </trkpt>
      <trkpt lat="48.10447" lon="1.35857">
        <ele>132</ele>
        <time>2018-10-09T12:25:32.097Z</time>
      </trkpt>
      <trkpt lat="48.10447" lon="1.35856">
        <ele>132</ele>
        <time>2018-10-09T12:25:33.097Z</time>
      </trkpt>
      <trkpt lat="48.10447" lon="1.35855">
        <ele>132</ele>
        <time>2018-10-09T12:25:34.097Z</time>
      </trkpt>
      <trkpt lat="48.10447" lon="1.35855">
        <ele>132</ele>
        <time>2018-10-09T12:25:35.097Z</time>
      </trkpt>
      <trkpt lat="48.10448" lon="1.35854">
        <ele>132</ele>
        <time>2018-10-09T12:25:36.097Z</time>
      </trkpt>
      <trkpt lat="48.10448" lon="1.35854">
        <ele>132</ele>
        <time>2018-10-09T12:25:37.097Z</time>
      </trkpt>
      <trkpt lat="48.10448" lon="1.35852">
        <ele>132</ele>
        <time>2018-10-09T12:25:38.097Z</time>
      </trkpt>
      <trkpt lat="48.10449" lon="1.35851">
        <ele>132</ele>
        <time>2018-10-09T12:25:39.097Z</time>
      </trkpt>
      <trkpt lat="48.10449" lon="1.35849">
        <ele>132</ele>
        <time>2018-10-09T12:25:40.097Z</time>
      </trkpt>
      <trkpt lat="48.1045" lon="1.35848">
        <ele>133</ele>
        <time>2018-10-09T12:25:41.097Z</time>
      </trkpt>
      <trkpt lat="48.1045" lon="1.35846">
        <ele>133</ele>
        <time>2018-10-09T12:25:42.097Z</time>
      </trkpt>
      <trkpt lat="48.10451" lon="1.35844">
        <ele>133</ele>
        <time>2018-10-09T12:25:43.097Z</time>
      </trkpt>
      <trkpt lat="48.10452" lon="1.35843">
        <ele>133</ele>
        <time>2018-10-09T12:25:44.097Z</time>
      </trkpt>
      <trkpt lat="48.10453" lon="1.35841">
        <ele>133</ele>
        <time>2018-10-09T12:25:45.097Z</time>
      </trkpt>
      <trkpt lat="48.10453" lon="1.35839">
        <ele>133</ele>
        <time>2018-10-09T12:25:46.097Z</time>
      </trkpt>
      <trkpt lat="48.10454" lon="1.35838">
        <ele>133</ele>
        <time>2018-10-09T12:25:47.097Z</time>
      </trkpt>
      <trkpt lat="48.10455" lon="1.35836">
        <ele>133</ele>
        <time>2018-10-09T12:25:48.097Z</time>
      </trkpt>
      <trkpt lat="48.10455" lon="1.35834">
        <ele>133</ele>
        <time>2018-10-09T12:25:49.097Z</time>
      </trkpt>
      <trkpt lat="48.10456" lon="1.35833">
        <ele>133</ele>
        <time>2018-10-09T12:25:50.097Z</time>
      </trkpt>
      <trkpt lat="48.10457" lon="1.35832">
        <ele>133</ele>
        <time>2018-10-09T12:25:51.097Z</time>
      </trkpt>
      <trkpt lat="48.10457" lon="1.35831">
        <ele>132</ele>
        <time>2018-10-09T12:25:52.097Z</time>
      </trkpt>
      <trkpt lat="48.10458" lon="1.35829">
        <ele>132</ele>
        <time>2018-10-09T12:25:53.097Z</time>
      </trkpt>
      <trkpt lat="48.10459" lon="1.35827">
        <ele>132</ele>
        <time>2018-10-09T12:25:54.097Z</time>
      </trkpt>
      <trkpt lat="48.10459" lon="1.35825">
        <ele>132</ele>
        <time>2018-10-09T12:25:55.097Z</time>
      </trkpt>
      <trkpt lat="48.1046" lon="1.35824">
        <ele>133</ele>
        <time>2018-10-09T12:25:56.097Z</time>
      </trkpt>
      <trkpt lat="48.1046" lon="1.35822">
        <ele>133</ele>
        <time>2018-10-09T12:25:57.097Z</time>
      </trkpt>
      <trkpt lat="48.10461" lon="1.35821">
        <ele>133</ele>
        <time>2018-10-09T12:25:58.097Z</time>
      </trkpt>
      <trkpt lat="48.10461" lon="1.35819">
        <ele>133</ele>
        <time>2018-10-09T12:25:59.097Z</time>
      </trkpt>
      <trkpt lat="48.10462" lon="1.35817">
        <ele>133</ele>
        <time>2018-10-09T12:26:00.097Z</time>
      </trkpt>
      <trkpt lat="48.10463" lon="1.35816">
        <ele>133</ele>
        <time>2018-10-09T12:26:01.097Z</time>
      </trkpt>
      <trkpt lat="48.10463" lon="1.35814">
        <ele>133</ele>
        <time>2018-10-09T12:26:02.097Z</time>
      </trkpt>
      <trkpt lat="48.10464" lon="1.35813">
        <ele>133</ele>
        <time>2018-10-09T12:26:03.097Z</time>
      </trkpt>
      <trkpt lat="48.10464" lon="1.35811">
        <ele>133</ele>
        <time>2018-10-09T12:26:04.097Z</time>
      </trkpt>
      <trkpt lat="48.10465" lon="1.35809">
        <ele>134</ele>
        <time>2018-10-09T12:26:05.097Z</time>
      </trkpt>
      <trkpt lat="48.10465" lon="1.35808">
        <ele>134</ele>
        <time>2018-10-09T12:26:06.097Z</time>
      </trkpt>
      <trkpt lat="48.10466" lon="1.35806">
        <ele>134</ele>
        <time>2018-10-09T12:26:07.097Z</time>
      </trkpt>
      <trkpt lat="48.10466" lon="1.35804">
        <ele>134</ele>
        <time>2018-10-09T12:26:08.097Z</time>
      </trkpt>
      <trkpt lat="48.10467" lon="1.35803">
        <ele>134</ele>
        <time>2018-10-09T12:26:09.097Z</time>
      </trkpt>
      <trkpt lat="48.10467" lon="1.35801">
        <ele>133</ele>
        <time>2018-10-09T12:26:10.097Z</time>
      </trkpt>
      <trkpt lat="48.10467" lon="1.35799">
        <ele>133</ele>
        <time>2018-10-09T12:26:11.097Z</time>
      </trkpt>
      <trkpt lat="48.10468" lon="1.35797">
        <ele>133</ele>
        <time>2018-10-09T12:26:12.097Z</time>
      </trkpt>
      <trkpt lat="48.10469" lon="1.35795">
        <ele>133</ele>
        <time>2018-10-09T12:26:13.097Z</time>
      </trkpt>
      <trkpt lat="48.10469" lon="1.35793">
        <ele>134</ele>
        <time>2018-10-09T12:26:14.097Z</time>
      </trkpt>
      <trkpt lat="48.1047" lon="1.35791">
        <ele>134</ele>
        <time>2018-10-09T12:26:15.097Z</time>
      </trkpt>
      <trkpt lat="48.1047" lon="1.3579">
        <ele>134</ele>
        <time>2018-10-09T12:26:16.097Z</time>
      </trkpt>
      <trkpt lat="48.10471" lon="1.35788">
        <ele>134</ele>
        <time>2018-10-09T12:26:17.097Z</time>
      </trkpt>
      <trkpt lat="48.10471" lon="1.35786">
        <ele>134</ele>
        <time>2018-10-09T12:26:18.097Z</time>
      </trkpt>
      <trkpt lat="48.10472" lon="1.35784">
        <ele>133</ele>
        <time>2018-10-09T12:26:19.097Z</time>
      </trkpt>
      <trkpt lat="48.10472" lon="1.35783">
        <ele>134</ele>
        <time>2018-10-09T12:26:20.097Z</time>
      </trkpt>
      <trkpt lat="48.10473" lon="1.35781">
        <ele>134</ele>
        <time>2018-10-09T12:26:21.097Z</time>
      </trkpt>
      <trkpt lat="48.10473" lon="1.35779">
        <ele>134</ele>
        <time>2018-10-09T12:26:22.097Z</time>
      </trkpt>
      <trkpt lat="48.10474" lon="1.35777">
        <ele>134</ele>
        <time>2018-10-09T12:26:23.097Z</time>
      </trkpt>
      <trkpt lat="48.10474" lon="1.35776">
        <ele>134</ele>
        <time>2018-10-09T12:26:24.097Z</time>
      </trkpt>
      <trkpt lat="48.10475" lon="1.35774">
        <ele>134</ele>
        <time>2018-10-09T12:26:25.097Z</time>
      </trkpt>
      <trkpt lat="48.10475" lon="1.35773">
        <ele>134</ele>
        <time>2018-10-09T12:26:26.097Z</time>
      </trkpt>
      <trkpt lat="48.10475" lon="1.35771">
        <ele>134</ele>
        <time>2018-10-09T12:26:27.097Z</time>
      </trkpt>
      <trkpt lat="48.10476" lon="1.35769">
        <ele>134</ele>
        <time>2018-10-09T12:26:28.097Z</time>
      </trkpt>
      <trkpt lat="48.10476" lon="1.35768">
        <ele>134</ele>
        <time>2018-10-09T12:26:29.097Z</time>
      </trkpt>
      <trkpt lat="48.10477" lon="1.35766">
        <ele>134</ele>
        <time>2018-10-09T12:26:30.097Z</time>
      </trkpt>
      <trkpt lat="48.10477" lon="1.35764">
        <ele>134</ele>
        <time>2018-10-09T12:26:31.097Z</time>
      </trkpt>
      <trkpt lat="48.10477" lon="1.35763">
        <ele>134</ele>
        <time>2018-10-09T12:26:32.097Z</time>
      </trkpt>
      <trkpt lat="48.10478" lon="1.35761">
        <ele>134</ele>
        <time>2018-10-09T12:26:33.097Z</time>
      </trkpt>
      <trkpt lat="48.10478" lon="1.35759">
        <ele>134</ele>
        <time>2018-10-09T12:26:34.097Z</time>
      </trkpt>
      <trkpt lat="48.10479" lon="1.35757">
        <ele>134</ele>
        <time>2018-10-09T12:26:35.097Z</time>
      </trkpt>
      <trkpt lat="48.10479" lon="1.35756">
        <ele>134</ele>
        <time>2018-10-09T12:26:36.097Z</time>
      </trkpt>
      <trkpt lat="48.1048" lon="1.35754">
        <ele>134</ele>
        <time>2018-10-09T12:26:37.097Z</time>
      </trkpt>
      <trkpt lat="48.1048" lon="1.35753">
        <ele>134</ele>
        <time>2018-10-09T12:26:38.097Z</time>
      </trkpt>
      <trkpt lat="48.10481" lon="1.35751">
        <ele>134</ele>
        <time>2018-10-09T12:26:39.097Z</time>
      </trkpt>
      <trkpt lat="48.10481" lon="1.3575">
        <ele>134</ele>
        <time>2018-10-09T12:26:40.097Z</time>
      </trkpt>
      <trkpt lat="48.10481" lon="1.35748">
        <ele>134</ele>
        <time>2018-10-09T12:26:41.097Z</time>
      </trkpt>
      <trkpt lat="48.10482" lon="1.35746">
        <ele>134</ele>
        <time>2018-10-09T12:26:42.097Z</time>
      </trkpt>
      <trkpt lat="48.10482" lon="1.35745">
        <ele>134</ele>
        <time>2018-10-09T12:26:43.097Z</time>
      </trkpt>
      <trkpt lat="48.10483" lon="1.35743">
        <ele>134</ele>
        <time>2018-10-09T12:26:44.097Z</time>
      </trkpt>
      <trkpt lat="48.10483" lon="1.35741">
        <ele>134</ele>
        <time>2018-10-09T12:26:45.097Z</time>
      </trkpt>
      <trkpt lat="48.10484" lon="1.3574">
        <ele>134</ele>
        <time>2018-10-09T12:26:46.097Z</time>
      </trkpt>
      <trkpt lat="48.10484" lon="1.35738">
        <ele>134</ele>
        <time>2018-10-09T12:26:47.097Z</time>
      </trkpt>
      <trkpt lat="48.10485" lon="1.35737">
        <ele>134</ele>
        <time>2018-10-09T12:26:48.097Z</time>
      </trkpt>
      <trkpt lat="48.10485" lon="1.35735">
        <ele>134</ele>
        <time>2018-10-09T12:26:49.097Z</time>
      </trkpt>
      <trkpt lat="48.10485" lon="1.35733">
        <ele>134</ele>
        <time>2018-10-09T12:26:50.097Z</time>
      </trkpt>
      <trkpt lat="48.10486" lon="1.35731">
        <ele>134</ele>
        <time>2018-10-09T12:26:51.097Z</time>
      </trkpt>
      <trkpt lat="48.10486" lon="1.3573">
        <ele>134</ele>
        <time>2018-10-09T12:26:52.097Z</time>
      </trkpt>
      <trkpt lat="48.10487" lon="1.35728">
        <ele>134</ele>
        <time>2018-10-09T12:26:53.097Z</time>
      </trkpt>
      <trkpt lat="48.10487" lon="1.35726">
        <ele>134</ele>
        <time>2018-10-09T12:26:54.097Z</time>
      </trkpt>
      <trkpt lat="48.10487" lon="1.35725">
        <ele>134</ele>
        <time>2018-10-09T12:26:55.097Z</time>
      </trkpt>
      <trkpt lat="48.10488" lon="1.35723">
        <ele>134</ele>
        <time>2018-10-09T12:26:56.097Z</time>
      </trkpt>
      <trkpt lat="48.10488" lon="1.35721">
        <ele>134</ele>
        <time>2018-10-09T12:26:57.097Z</time>
      </trkpt>
      <trkpt lat="48.10488" lon="1.3572">
        <ele>134</ele>
        <time>2018-10-09T12:26:58.097Z</time>
      </trkpt>
      <trkpt lat="48.10489" lon="1.35718">
        <ele>134</ele>
        <time>2018-10-09T12:26:59.097Z</time>
      </trkpt>
      <trkpt lat="48.10489" lon="1.35717">
        <ele>134</ele>
        <time>2018-10-09T12:27:00.097Z</time>
      </trkpt>
      <trkpt lat="48.10489" lon="1.35715">
        <ele>134</ele>
        <time>2018-10-09T12:27:01.097Z</time>
      </trkpt>
      <trkpt lat="48.1049" lon="1.35713">
        <ele>134</ele>
        <time>2018-10-09T12:27:02.097Z</time>
      </trkpt>
      <trkpt lat="48.1049" lon="1.35712">
        <ele>134</ele>
        <time>2018-10-09T12:27:03.097Z</time>
      </trkpt>
      <trkpt lat="48.1049" lon="1.3571">
        <ele>134</ele>
        <time>2018-10-09T12:27:04.097Z</time>
      </trkpt>
      <trkpt lat="48.10491" lon="1.35709">
        <ele>134</ele>
        <time>2018-10-09T12:27:05.097Z</time>
      </trkpt>
      <trkpt lat="48.10491" lon="1.35707">
        <ele>134</ele>
        <time>2018-10-09T12:27:06.097Z</time>
      </trkpt>
      <trkpt lat="48.10492" lon="1.35705">
        <ele>135</ele>
        <time>2018-10-09T12:27:07.097Z</time>
      </trkpt>
      <trkpt lat="48.10492" lon="1.35704">
        <ele>135</ele>
        <time>2018-10-09T12:27:08.097Z</time>
      </trkpt>
      <trkpt lat="48.10493" lon="1.35702">
        <ele>135</ele>
        <time>2018-10-09T12:27:09.097Z</time>
      </trkpt>
      <trkpt lat="48.10493" lon="1.357">
        <ele>135</ele>
        <time>2018-10-09T12:27:10.097Z</time>
      </trkpt>
      <trkpt lat="48.10493" lon="1.35698">
        <ele>135</ele>
        <time>2018-10-09T12:27:11.097Z</time>
      </trkpt>
      <trkpt lat="48.10493" lon="1.35697">
        <ele>135</ele>
        <time>2018-10-09T12:27:12.097Z</time>
      </trkpt>
      <trkpt lat="48.10493" lon="1.35695">
        <ele>135</ele>
        <time>2018-10-09T12:27:13.097Z</time>
      </trkpt>
      <trkpt lat="48.10493" lon="1.35693">
        <ele>135</ele>
        <time>2018-10-09T12:27:14.097Z</time>
      </trkpt>
      <trkpt lat="48.10494" lon="1.35691">
        <ele>135</ele>
        <time>2018-10-09T12:27:15.097Z</time>
      </trkpt>
      <trkpt lat="48.10494" lon="1.35689">
        <ele>134</ele>
        <time>2018-10-09T12:27:16.097Z</time>
      </trkpt>
      <trkpt lat="48.10494" lon="1.35687">
        <ele>134</ele>
        <time>2018-10-09T12:27:17.097Z</time>
      </trkpt>
      <trkpt lat="48.10494" lon="1.35685">
        <ele>135</ele>
        <time>2018-10-09T12:27:18.097Z</time>
      </trkpt>
      <trkpt lat="48.10495" lon="1.35684">
        <ele>135</ele>
        <time>2018-10-09T12:27:19.097Z</time>
      </trkpt>
      <trkpt lat="48.10495" lon="1.35682">
        <ele>135</ele>
        <time>2018-10-09T12:27:20.097Z</time>
      </trkpt>
      <trkpt lat="48.10496" lon="1.3568">
        <ele>135</ele>
        <time>2018-10-09T12:27:21.097Z</time>
      </trkpt>
      <trkpt lat="48.10496" lon="1.35678">
        <ele>135</ele>
        <time>2018-10-09T12:27:22.097Z</time>
      </trkpt>
      <trkpt lat="48.10496" lon="1.35677">
        <ele>135</ele>
        <time>2018-10-09T12:27:23.097Z</time>
      </trkpt>
      <trkpt lat="48.10497" lon="1.35675">
        <ele>135</ele>
        <time>2018-10-09T12:27:24.097Z</time>
      </trkpt>
      <trkpt lat="48.10497" lon="1.35673">
        <ele>135</ele>
        <time>2018-10-09T12:27:25.097Z</time>
      </trkpt>
      <trkpt lat="48.10498" lon="1.35672">
        <ele>135</ele>
        <time>2018-10-09T12:27:26.097Z</time>
      </trkpt>
      <trkpt lat="48.10498" lon="1.3567">
        <ele>135</ele>
        <time>2018-10-09T12:27:27.097Z</time>
      </trkpt>
      <trkpt lat="48.10498" lon="1.35669">
        <ele>135</ele>
        <time>2018-10-09T12:27:28.097Z</time>
      </trkpt>
      <trkpt lat="48.10499" lon="1.35667">
        <ele>135</ele>
        <time>2018-10-09T12:27:29.097Z</time>
      </trkpt>
      <trkpt lat="48.10499" lon="1.35665">
        <ele>135</ele>
        <time>2018-10-09T12:27:30.097Z</time>
      </trkpt>
      <trkpt lat="48.105" lon="1.35663">
        <ele>135</ele>
        <time>2018-10-09T12:27:31.097Z</time>
      </trkpt>
      <trkpt lat="48.105" lon="1.35662">
        <ele>135</ele>
        <time>2018-10-09T12:27:32.097Z</time>
      </trkpt>
      <trkpt lat="48.105" lon="1.3566">
        <ele>135</ele>
        <time>2018-10-09T12:27:33.097Z</time>
      </trkpt>
      <trkpt lat="48.10501" lon="1.35659">
        <ele>135</ele>
        <time>2018-10-09T12:27:34.097Z</time>
      </trkpt>
      <trkpt lat="48.10501" lon="1.35657">
        <ele>135</ele>
        <time>2018-10-09T12:27:35.097Z</time>
      </trkpt>
      <trkpt lat="48.10501" lon="1.35655">
        <ele>136</ele>
        <time>2018-10-09T12:27:36.097Z</time>
      </trkpt>
      <trkpt lat="48.10502" lon="1.35654">
        <ele>136</ele>
        <time>2018-10-09T12:27:37.097Z</time>
      </trkpt>
      <trkpt lat="48.10502" lon="1.35652">
        <ele>136</ele>
        <time>2018-10-09T12:27:38.097Z</time>
      </trkpt>
      <trkpt lat="48.10503" lon="1.3565">
        <ele>136</ele>
        <time>2018-10-09T12:27:39.097Z</time>
      </trkpt>
      <trkpt lat="48.10503" lon="1.35649">
        <ele>136</ele>
        <time>2018-10-09T12:27:40.097Z</time>
      </trkpt>
      <trkpt lat="48.10503" lon="1.35647">
        <ele>136</ele>
        <time>2018-10-09T12:27:41.097Z</time>
      </trkpt>
      <trkpt lat="48.10504" lon="1.35646">
        <ele>136</ele>
        <time>2018-10-09T12:27:42.097Z</time>
      </trkpt>
      <trkpt lat="48.10504" lon="1.35644">
        <ele>136</ele>
        <time>2018-10-09T12:27:43.097Z</time>
      </trkpt>
      <trkpt lat="48.10504" lon="1.35642">
        <ele>136</ele>
        <time>2018-10-09T12:27:44.097Z</time>
      </trkpt>
      <trkpt lat="48.10505" lon="1.3564">
        <ele>136</ele>
        <time>2018-10-09T12:27:45.097Z</time>
      </trkpt>
      <trkpt lat="48.10505" lon="1.35638">
        <ele>136</ele>
        <time>2018-10-09T12:27:46.097Z</time>
      </trkpt>
      <trkpt lat="48.10505" lon="1.35636">
        <ele>136</ele>
        <time>2018-10-09T12:27:47.097Z</time>
      </trkpt>
      <trkpt lat="48.10505" lon="1.35634">
        <ele>136</ele>
        <time>2018-10-09T12:27:48.097Z</time>
      </trkpt>
      <trkpt lat="48.10506" lon="1.35633">
        <ele>136</ele>
        <time>2018-10-09T12:27:49.097Z</time>
      </trkpt>
      <trkpt lat="48.10506" lon="1.35631">
        <ele>136</ele>
        <time>2018-10-09T12:27:50.097Z</time>
      </trkpt>
      <trkpt lat="48.10506" lon="1.35629">
        <ele>136</ele>
        <time>2018-10-09T12:27:51.097Z</time>
      </trkpt>
      <trkpt lat="48.10506" lon="1.35627">
        <ele>136</ele>
        <time>2018-10-09T12:27:52.097Z</time>
      </trkpt>
      <trkpt lat="48.10507" lon="1.35625">
        <ele>136</ele>
        <time>2018-10-09T12:27:53.097Z</time>
      </trkpt>
      <trkpt lat="48.10507" lon="1.35623">
        <ele>136</ele>
        <time>2018-10-09T12:27:54.097Z</time>
      </trkpt>
      <trkpt lat="48.10507" lon="1.35621">
        <ele>136</ele>
        <time>2018-10-09T12:27:55.097Z</time>
      </trkpt>
      <trkpt lat="48.10507" lon="1.3562">
        <ele>136</ele>
        <time>2018-10-09T12:27:56.097Z</time>
      </trkpt>
      <trkpt lat="48.10508" lon="1.35618">
        <ele>136</ele>
        <time>2018-10-09T12:27:57.097Z</time>
      </trkpt>
      <trkpt lat="48.10508" lon="1.35616">
        <ele>136</ele>
        <time>2018-10-09T12:27:58.097Z</time>
      </trkpt>
      <trkpt lat="48.10508" lon="1.35614">
        <ele>136</ele>
        <time>2018-10-09T12:27:59.097Z</time>
      </trkpt>
      <trkpt lat="48.10508" lon="1.35612">
        <ele>136</ele>
        <time>2018-10-09T12:28:00.097Z</time>
      </trkpt>
      <trkpt lat="48.10509" lon="1.35611">
        <ele>136</ele>
        <time>2018-10-09T12:28:01.097Z</time>
      </trkpt>
      <trkpt lat="48.10509" lon="1.35609">
        <ele>136</ele>
        <time>2018-10-09T12:28:02.097Z</time>
      </trkpt>
      <trkpt lat="48.10509" lon="1.35607">
        <ele>136</ele>
        <time>2018-10-09T12:28:03.097Z</time>
      </trkpt>
      <trkpt lat="48.10509" lon="1.35605">
        <ele>136</ele>
        <time>2018-10-09T12:28:04.097Z</time>
      </trkpt>
      <trkpt lat="48.1051" lon="1.35604">
        <ele>136</ele>
        <time>2018-10-09T12:28:05.097Z</time>
      </trkpt>
      <trkpt lat="48.1051" lon="1.35602">
        <ele>136</ele>
        <time>2018-10-09T12:28:06.097Z</time>
      </trkpt>
      <trkpt lat="48.1051" lon="1.356">
        <ele>136</ele>
        <time>2018-10-09T12:28:07.097Z</time>
      </trkpt>
      <trkpt lat="48.10511" lon="1.35598">
        <ele>136</ele>
        <time>2018-10-09T12:28:08.097Z</time>
      </trkpt>
      <trkpt lat="48.10511" lon="1.35597">
        <ele>136</ele>
        <time>2018-10-09T12:28:09.097Z</time>
      </trkpt>
      <trkpt lat="48.10511" lon="1.35595">
        <ele>136</ele>
        <time>2018-10-09T12:28:10.097Z</time>
      </trkpt>
      <trkpt lat="48.10511" lon="1.35593">
        <ele>136</ele>
        <time>2018-10-09T12:28:11.097Z</time>
      </trkpt>
      <trkpt lat="48.10511" lon="1.35591">
        <ele>136</ele>
        <time>2018-10-09T12:28:12.097Z</time>
      </trkpt>
      <trkpt lat="48.10511" lon="1.35589">
        <ele>137</ele>
        <time>2018-10-09T12:28:13.097Z</time>
      </trkpt>
      <trkpt lat="48.10512" lon="1.35587">
        <ele>136</ele>
        <time>2018-10-09T12:28:14.097Z</time>
      </trkpt>
      <trkpt lat="48.10512" lon="1.35585">
        <ele>137</ele>
        <time>2018-10-09T12:28:15.097Z</time>
      </trkpt>
      <trkpt lat="48.10512" lon="1.35583">
        <ele>137</ele>
        <time>2018-10-09T12:28:16.097Z</time>
      </trkpt>
      <trkpt lat="48.10512" lon="1.35582">
        <ele>137</ele>
        <time>2018-10-09T12:28:17.097Z</time>
      </trkpt>
      <trkpt lat="48.10512" lon="1.3558">
        <ele>137</ele>
        <time>2018-10-09T12:28:18.097Z</time>
      </trkpt>
      <trkpt lat="48.10513" lon="1.35578">
        <ele>137</ele>
        <time>2018-10-09T12:28:19.097Z</time>
      </trkpt>
      <trkpt lat="48.10513" lon="1.35576">
        <ele>137</ele>
        <time>2018-10-09T12:28:20.097Z</time>
      </trkpt>
      <trkpt lat="48.10513" lon="1.35575">
        <ele>137</ele>
        <time>2018-10-09T12:28:21.097Z</time>
      </trkpt>
      <trkpt lat="48.10513" lon="1.35573">
        <ele>137</ele>
        <time>2018-10-09T12:28:22.097Z</time>
      </trkpt>
      <trkpt lat="48.10513" lon="1.35571">
        <ele>137</ele>
        <time>2018-10-09T12:28:23.097Z</time>
      </trkpt>
      <trkpt lat="48.10514" lon="1.35569">
        <ele>137</ele>
        <time>2018-10-09T12:28:24.097Z</time>
      </trkpt>
      <trkpt lat="48.10514" lon="1.35568">
        <ele>137</ele>
        <time>2018-10-09T12:28:25.097Z</time>
      </trkpt>
      <trkpt lat="48.10514" lon="1.35566">
        <ele>137</ele>
        <time>2018-10-09T12:28:26.097Z</time>
      </trkpt>
      <trkpt lat="48.10514" lon="1.35564">
        <ele>137</ele>
        <time>2018-10-09T12:28:27.097Z</time>
      </trkpt>
      <trkpt lat="48.10514" lon="1.35562">
        <ele>137</ele>
        <time>2018-10-09T12:28:28.097Z</time>
      </trkpt>
      <trkpt lat="48.10514" lon="1.3556">
        <ele>137</ele>
        <time>2018-10-09T12:28:29.097Z</time>
      </trkpt>
      <trkpt lat="48.10515" lon="1.35558">
        <ele>137</ele>
        <time>2018-10-09T12:28:30.097Z</time>
      </trkpt>
      <trkpt lat="48.10515" lon="1.35556">
        <ele>137</ele>
        <time>2018-10-09T12:28:31.097Z</time>
      </trkpt>
      <trkpt lat="48.10515" lon="1.35555">
        <ele>137</ele>
        <time>2018-10-09T12:28:32.097Z</time>
      </trkpt>
      <trkpt lat="48.10515" lon="1.35553">
        <ele>137</ele>
        <time>2018-10-09T12:28:33.097Z</time>
      </trkpt>
      <trkpt lat="48.10516" lon="1.35551">
        <ele>137</ele>
        <time>2018-10-09T12:28:34.097Z</time>
      </trkpt>
      <trkpt lat="48.10516" lon="1.35549">
        <ele>137</ele>
        <time>2018-10-09T12:28:35.097Z</time>
      </trkpt>
      <trkpt lat="48.10516" lon="1.35547">
        <ele>137</ele>
        <time>2018-10-09T12:28:36.097Z</time>
      </trkpt>
      <trkpt lat="48.10516" lon="1.35546">
        <ele>137</ele>
        <time>2018-10-09T12:28:37.097Z</time>
      </trkpt>
      <trkpt lat="48.10516" lon="1.35543">
        <ele>137</ele>
        <time>2018-10-09T12:28:38.097Z</time>
      </trkpt>
      <trkpt lat="48.10517" lon="1.35541">
        <ele>137</ele>
        <time>2018-10-09T12:28:39.097Z</time>
      </trkpt>
      <trkpt lat="48.10517" lon="1.35539">
        <ele>137</ele>
        <time>2018-10-09T12:28:40.097Z</time>
      </trkpt>
      <trkpt lat="48.10517" lon="1.35538">
        <ele>137</ele>
        <time>2018-10-09T12:28:41.097Z</time>
      </trkpt>
      <trkpt lat="48.10517" lon="1.35536">
        <ele>137</ele>
        <time>2018-10-09T12:28:42.097Z</time>
      </trkpt>
      <trkpt lat="48.10518" lon="1.35534">
        <ele>137</ele>
        <time>2018-10-09T12:28:43.097Z</time>
      </trkpt>
      <trkpt lat="48.10518" lon="1.35532">
        <ele>137</ele>
        <time>2018-10-09T12:28:44.097Z</time>
      </trkpt>
      <trkpt lat="48.10518" lon="1.3553">
        <ele>137</ele>
        <time>2018-10-09T12:28:45.097Z</time>
      </trkpt>
      <trkpt lat="48.10518" lon="1.35528">
        <ele>137</ele>
        <time>2018-10-09T12:28:46.097Z</time>
      </trkpt>
      <trkpt lat="48.10519" lon="1.35526">
        <ele>137</ele>
        <time>2018-10-09T12:28:47.097Z</time>
      </trkpt>
      <trkpt lat="48.10519" lon="1.35524">
        <ele>137</ele>
        <time>2018-10-09T12:28:48.097Z</time>
      </trkpt>
      <trkpt lat="48.10519" lon="1.35522">
        <ele>137</ele>
        <time>2018-10-09T12:28:49.097Z</time>
      </trkpt>
      <trkpt lat="48.10519" lon="1.3552">
        <ele>137</ele>
        <time>2018-10-09T12:28:50.097Z</time>
      </trkpt>
      <trkpt lat="48.1052" lon="1.35518">
        <ele>137</ele>
        <time>2018-10-09T12:28:51.097Z</time>
      </trkpt>
      <trkpt lat="48.1052" lon="1.35516">
        <ele>137</ele>
        <time>2018-10-09T12:28:52.097Z</time>
      </trkpt>
      <trkpt lat="48.1052" lon="1.35515">
        <ele>137</ele>
        <time>2018-10-09T12:28:53.097Z</time>
      </trkpt>
      <trkpt lat="48.1052" lon="1.35513">
        <ele>137</ele>
        <time>2018-10-09T12:28:54.097Z</time>
      </trkpt>
      <trkpt lat="48.1052" lon="1.35511">
        <ele>137</ele>
        <time>2018-10-09T12:28:55.097Z</time>
      </trkpt>
      <trkpt lat="48.10521" lon="1.35509">
        <ele>137</ele>
        <time>2018-10-09T12:28:56.097Z</time>
      </trkpt>
      <trkpt lat="48.10521" lon="1.35507">
        <ele>137</ele>
        <time>2018-10-09T12:28:57.097Z</time>
      </trkpt>
      <trkpt lat="48.10521" lon="1.35505">
        <ele>137</ele>
        <time>2018-10-09T12:28:58.097Z</time>
      </trkpt>
      <trkpt lat="48.10521" lon="1.35504">
        <ele>138</ele>
        <time>2018-10-09T12:28:59.097Z</time>
      </trkpt>
      <trkpt lat="48.10522" lon="1.35502">
        <ele>138</ele>
        <time>2018-10-09T12:29:00.097Z</time>
      </trkpt>
      <trkpt lat="48.10522" lon="1.355">
        <ele>138</ele>
        <time>2018-10-09T12:29:01.097Z</time>
      </trkpt>
      <trkpt lat="48.10522" lon="1.35498">
        <ele>138</ele>
        <time>2018-10-09T12:29:02.097Z</time>
      </trkpt>
      <trkpt lat="48.10522" lon="1.35496">
        <ele>138</ele>
        <time>2018-10-09T12:29:03.097Z</time>
      </trkpt>
      <trkpt lat="48.10522" lon="1.35494">
        <ele>138</ele>
        <time>2018-10-09T12:29:04.097Z</time>
      </trkpt>
      <trkpt lat="48.10522" lon="1.35492">
        <ele>138</ele>
        <time>2018-10-09T12:29:05.097Z</time>
      </trkpt>
      <trkpt lat="48.10523" lon="1.3549">
        <ele>138</ele>
        <time>2018-10-09T12:29:06.097Z</time>
      </trkpt>
      <trkpt lat="48.10523" lon="1.35488">
        <ele>138</ele>
        <time>2018-10-09T12:29:07.097Z</time>
      </trkpt>
      <trkpt lat="48.10523" lon="1.35487">
        <ele>138</ele>
        <time>2018-10-09T12:29:08.097Z</time>
      </trkpt>
      <trkpt lat="48.10523" lon="1.35485">
        <ele>138</ele>
        <time>2018-10-09T12:29:09.097Z</time>
      </trkpt>
      <trkpt lat="48.10523" lon="1.35483">
        <ele>138</ele>
        <time>2018-10-09T12:29:10.097Z</time>
      </trkpt>
      <trkpt lat="48.10523" lon="1.35481">
        <ele>138</ele>
        <time>2018-10-09T12:29:11.097Z</time>
      </trkpt>
      <trkpt lat="48.10524" lon="1.35479">
        <ele>138</ele>
        <time>2018-10-09T12:29:12.097Z</time>
      </trkpt>
      <trkpt lat="48.10524" lon="1.35477">
        <ele>138</ele>
        <time>2018-10-09T12:29:13.097Z</time>
      </trkpt>
      <trkpt lat="48.10524" lon="1.35475">
        <ele>138</ele>
        <time>2018-10-09T12:29:14.097Z</time>
      </trkpt>
      <trkpt lat="48.10524" lon="1.35473">
        <ele>138</ele>
        <time>2018-10-09T12:29:15.097Z</time>
      </trkpt>
      <trkpt lat="48.10524" lon="1.35471">
        <ele>138</ele>
        <time>2018-10-09T12:29:16.097Z</time>
      </trkpt>
      <trkpt lat="48.10525" lon="1.3547">
        <ele>138</ele>
        <time>2018-10-09T12:29:17.097Z</time>
      </trkpt>
      <trkpt lat="48.10525" lon="1.35468">
        <ele>138</ele>
        <time>2018-10-09T12:29:18.097Z</time>
      </trkpt>
      <trkpt lat="48.10525" lon="1.35466">
        <ele>138</ele>
        <time>2018-10-09T12:29:19.097Z</time>
      </trkpt>
      <trkpt lat="48.10525" lon="1.35464">
        <ele>138</ele>
        <time>2018-10-09T12:29:20.097Z</time>
      </trkpt>
      <trkpt lat="48.10525" lon="1.35462">
        <ele>138</ele>
        <time>2018-10-09T12:29:21.097Z</time>
      </trkpt>
      <trkpt lat="48.10525" lon="1.3546">
        <ele>138</ele>
        <time>2018-10-09T12:29:22.097Z</time>
      </trkpt>
      <trkpt lat="48.10526" lon="1.35458">
        <ele>138</ele>
        <time>2018-10-09T12:29:23.097Z</time>
      </trkpt>
      <trkpt lat="48.10526" lon="1.35456">
        <ele>138</ele>
        <time>2018-10-09T12:29:24.097Z</time>
      </trkpt>
      <trkpt lat="48.10526" lon="1.35454">
        <ele>138</ele>
        <time>2018-10-09T12:29:25.097Z</time>
      </trkpt>
      <trkpt lat="48.10526" lon="1.35452">
        <ele>139</ele>
        <time>2018-10-09T12:29:26.097Z</time>
      </trkpt>
      <trkpt lat="48.10526" lon="1.35451">
        <ele>138</ele>
        <time>2018-10-09T12:29:27.097Z</time>
      </trkpt>
      <trkpt lat="48.10527" lon="1.35449">
        <ele>139</ele>
        <time>2018-10-09T12:29:28.097Z</time>
      </trkpt>
      <trkpt lat="48.10527" lon="1.35447">
        <ele>139</ele>
        <time>2018-10-09T12:29:29.097Z</time>
      </trkpt>
      <trkpt lat="48.10527" lon="1.35445">
        <ele>138</ele>
        <time>2018-10-09T12:29:30.097Z</time>
      </trkpt>
      <trkpt lat="48.10527" lon="1.35443">
        <ele>138</ele>
        <time>2018-10-09T12:29:31.097Z</time>
      </trkpt>
      <trkpt lat="48.10528" lon="1.35441">
        <ele>139</ele>
        <time>2018-10-09T12:29:32.097Z</time>
      </trkpt>
      <trkpt lat="48.10528" lon="1.35439">
        <ele>139</ele>
        <time>2018-10-09T12:29:33.097Z</time>
      </trkpt>
      <trkpt lat="48.10528" lon="1.35437">
        <ele>139</ele>
        <time>2018-10-09T12:29:34.097Z</time>
      </trkpt>
      <trkpt lat="48.10528" lon="1.35435">
        <ele>139</ele>
        <time>2018-10-09T12:29:35.097Z</time>
      </trkpt>
      <trkpt lat="48.10528" lon="1.35433">
        <ele>139</ele>
        <time>2018-10-09T12:29:36.097Z</time>
      </trkpt>
      <trkpt lat="48.10529" lon="1.35431">
        <ele>139</ele>
        <time>2018-10-09T12:29:37.097Z</time>
      </trkpt>
      <trkpt lat="48.10529" lon="1.3543">
        <ele>139</ele>
        <time>2018-10-09T12:29:38.097Z</time>
      </trkpt>
      <trkpt lat="48.10529" lon="1.35428">
        <ele>139</ele>
        <time>2018-10-09T12:29:39.097Z</time>
      </trkpt>
      <trkpt lat="48.10529" lon="1.35426">
        <ele>139</ele>
        <time>2018-10-09T12:29:40.097Z</time>
      </trkpt>
      <trkpt lat="48.1053" lon="1.35424">
        <ele>139</ele>
        <time>2018-10-09T12:29:41.097Z</time>
      </trkpt>
      <trkpt lat="48.1053" lon="1.35422">
        <ele>139</ele>
        <time>2018-10-09T12:29:42.097Z</time>
      </trkpt>
      <trkpt lat="48.1053" lon="1.3542">
        <ele>139</ele>
        <time>2018-10-09T12:29:43.097Z</time>
      </trkpt>
      <trkpt lat="48.10531" lon="1.35418">
        <ele>139</ele>
        <time>2018-10-09T12:29:44.097Z</time>
      </trkpt>
      <trkpt lat="48.10531" lon="1.35417">
        <ele>139</ele>
        <time>2018-10-09T12:29:45.097Z</time>
      </trkpt>
      <trkpt lat="48.10531" lon="1.35415">
        <ele>139</ele>
        <time>2018-10-09T12:29:46.097Z</time>
      </trkpt>
      <trkpt lat="48.10531" lon="1.35413">
        <ele>139</ele>
        <time>2018-10-09T12:29:47.097Z</time>
      </trkpt>
      <trkpt lat="48.10532" lon="1.35411">
        <ele>139</ele>
        <time>2018-10-09T12:29:48.097Z</time>
      </trkpt>
      <trkpt lat="48.10532" lon="1.3541">
        <ele>138</ele>
        <time>2018-10-09T12:29:49.097Z</time>
      </trkpt>
      <trkpt lat="48.10532" lon="1.35408">
        <ele>138</ele>
        <time>2018-10-09T12:29:50.097Z</time>
      </trkpt>
      <trkpt lat="48.10533" lon="1.35406">
        <ele>138</ele>
        <time>2018-10-09T12:29:51.097Z</time>
      </trkpt>
      <trkpt lat="48.10533" lon="1.35404">
        <ele>138</ele>
        <time>2018-10-09T12:29:52.097Z</time>
      </trkpt>
      <trkpt lat="48.10533" lon="1.35402">
        <ele>138</ele>
        <time>2018-10-09T12:29:53.097Z</time>
      </trkpt>
      <trkpt lat="48.10534" lon="1.35401">
        <ele>139</ele>
        <time>2018-10-09T12:29:54.097Z</time>
      </trkpt>
      <trkpt lat="48.10534" lon="1.35399">
        <ele>139</ele>
        <time>2018-10-09T12:29:55.097Z</time>
      </trkpt>
      <trkpt lat="48.10534" lon="1.35397">
        <ele>139</ele>
        <time>2018-10-09T12:29:56.097Z</time>
      </trkpt>
      <trkpt lat="48.10534" lon="1.35395">
        <ele>139</ele>
        <time>2018-10-09T12:29:57.097Z</time>
      </trkpt>
      <trkpt lat="48.10534" lon="1.35394">
        <ele>139</ele>
        <time>2018-10-09T12:29:58.097Z</time>
      </trkpt>
      <trkpt lat="48.10535" lon="1.35392">
        <ele>139</ele>
        <time>2018-10-09T12:29:59.097Z</time>
      </trkpt>
      <trkpt lat="48.10535" lon="1.3539">
        <ele>138</ele>
        <time>2018-10-09T12:30:00.097Z</time>
      </trkpt>
      <trkpt lat="48.10535" lon="1.35389">
        <ele>138</ele>
        <time>2018-10-09T12:30:01.097Z</time>
      </trkpt>
      <trkpt lat="48.10535" lon="1.35387">
        <ele>138</ele>
        <time>2018-10-09T12:30:02.097Z</time>
      </trkpt>
      <trkpt lat="48.10536" lon="1.35385">
        <ele>138</ele>
        <time>2018-10-09T12:30:03.097Z</time>
      </trkpt>
      <trkpt lat="48.10536" lon="1.35384">
        <ele>138</ele>
        <time>2018-10-09T12:30:04.097Z</time>
      </trkpt>
      <trkpt lat="48.10536" lon="1.35382">
        <ele>138</ele>
        <time>2018-10-09T12:30:05.097Z</time>
      </trkpt>
      <trkpt lat="48.10537" lon="1.35381">
        <ele>137</ele>
        <time>2018-10-09T12:30:06.097Z</time>
      </trkpt>
      <trkpt lat="48.10537" lon="1.35379">
        <ele>138</ele>
        <time>2018-10-09T12:30:07.097Z</time>
      </trkpt>
      <trkpt lat="48.10537" lon="1.35377">
        <ele>137</ele>
        <time>2018-10-09T12:30:08.097Z</time>
      </trkpt>
      <trkpt lat="48.10538" lon="1.35375">
        <ele>138</ele>
        <time>2018-10-09T12:30:09.097Z</time>
      </trkpt>
      <trkpt lat="48.10538" lon="1.35373">
        <ele>138</ele>
        <time>2018-10-09T12:30:10.097Z</time>
      </trkpt>
      <trkpt lat="48.10538" lon="1.3537">
        <ele>138</ele>
        <time>2018-10-09T12:30:11.097Z</time>
      </trkpt>
      <trkpt lat="48.10538" lon="1.35368">
        <ele>138</ele>
        <time>2018-10-09T12:30:12.097Z</time>
      </trkpt>
      <trkpt lat="48.10539" lon="1.35366">
        <ele>138</ele>
        <time>2018-10-09T12:30:13.097Z</time>
      </trkpt>
      <trkpt lat="48.10539" lon="1.35364">
        <ele>138</ele>
        <time>2018-10-09T12:30:14.097Z</time>
      </trkpt>
      <trkpt lat="48.10539" lon="1.35362">
        <ele>138</ele>
        <time>2018-10-09T12:30:15.097Z</time>
      </trkpt>
      <trkpt lat="48.10539" lon="1.3536">
        <ele>138</ele>
        <time>2018-10-09T12:30:16.097Z</time>
      </trkpt>
      <trkpt lat="48.10539" lon="1.35358">
        <ele>138</ele>
        <time>2018-10-09T12:30:17.097Z</time>
      </trkpt>
      <trkpt lat="48.1054" lon="1.35356">
        <ele>138</ele>
        <time>2018-10-09T12:30:18.097Z</time>
      </trkpt>
      <trkpt lat="48.1054" lon="1.35354">
        <ele>138</ele>
        <time>2018-10-09T12:30:19.097Z</time>
      </trkpt>
      <trkpt lat="48.1054" lon="1.35352">
        <ele>137</ele>
        <time>2018-10-09T12:30:20.097Z</time>
      </trkpt>
      <trkpt lat="48.10541" lon="1.35351">
        <ele>137</ele>
        <time>2018-10-09T12:30:21.097Z</time>
      </trkpt>
      <trkpt lat="48.10541" lon="1.35349">
        <ele>137</ele>
        <time>2018-10-09T12:30:22.097Z</time>
      </trkpt>
      <trkpt lat="48.10541" lon="1.35347">
        <ele>137</ele>
        <time>2018-10-09T12:30:23.097Z</time>
      </trkpt>
      <trkpt lat="48.10541" lon="1.35345">
        <ele>137</ele>
        <time>2018-10-09T12:30:24.097Z</time>
      </trkpt>
      <trkpt lat="48.10541" lon="1.35343">
        <ele>137</ele>
        <time>2018-10-09T12:30:25.097Z</time>
      </trkpt>
      <trkpt lat="48.10542" lon="1.35341">
        <ele>137</ele>
        <time>2018-10-09T12:30:26.097Z</time>
      </trkpt>
      <trkpt lat="48.10542" lon="1.35339">
        <ele>137</ele>
        <time>2018-10-09T12:30:27.097Z</time>
      </trkpt>
      <trkpt lat="48.10542" lon="1.35337">
        <ele>137</ele>
        <time>2018-10-09T12:30:28.097Z</time>
      </trkpt>
      <trkpt lat="48.10542" lon="1.35335">
        <ele>137</ele>
        <time>2018-10-09T12:30:29.097Z</time>
      </trkpt>
      <trkpt lat="48.10542" lon="1.35333">
        <ele>137</ele>
        <time>2018-10-09T12:30:30.097Z</time>
      </trkpt>
      <trkpt lat="48.10542" lon="1.35331">
        <ele>137</ele>
        <time>2018-10-09T12:30:31.097Z</time>
      </trkpt>
      <trkpt lat="48.10543" lon="1.35329">
        <ele>137</ele>
        <time>2018-10-09T12:30:32.097Z</time>
      </trkpt>
      <trkpt lat="48.10543" lon="1.35327">
        <ele>137</ele>
        <time>2018-10-09T12:30:33.097Z</time>
      </trkpt>
      <trkpt lat="48.10543" lon="1.35325">
        <ele>137</ele>
        <time>2018-10-09T12:30:34.097Z</time>
      </trkpt>
      <trkpt lat="48.10543" lon="1.35324">
        <ele>137</ele>
        <time>2018-10-09T12:30:35.097Z</time>
      </trkpt>
      <trkpt lat="48.10544" lon="1.35322">
        <ele>137</ele>
        <time>2018-10-09T12:30:36.097Z</time>
      </trkpt>
      <trkpt lat="48.10544" lon="1.3532">
        <ele>138</ele>
        <time>2018-10-09T12:30:37.097Z</time>
      </trkpt>
      <trkpt lat="48.10544" lon="1.35318">
        <ele>138</ele>
        <time>2018-10-09T12:30:38.097Z</time>
      </trkpt>
      <trkpt lat="48.10544" lon="1.35316">
        <ele>138</ele>
        <time>2018-10-09T12:30:39.097Z</time>
      </trkpt>
      <trkpt lat="48.10545" lon="1.35314">
        <ele>138</ele>
        <time>2018-10-09T12:30:40.097Z</time>
      </trkpt>
      <trkpt lat="48.10545" lon="1.35313">
        <ele>138</ele>
        <time>2018-10-09T12:30:41.097Z</time>
      </trkpt>
      <trkpt lat="48.10545" lon="1.35311">
        <ele>138</ele>
        <time>2018-10-09T12:30:42.097Z</time>
      </trkpt>
      <trkpt lat="48.10545" lon="1.35309">
        <ele>138</ele>
        <time>2018-10-09T12:30:43.097Z</time>
      </trkpt>
      <trkpt lat="48.10546" lon="1.35307">
        <ele>138</ele>
        <time>2018-10-09T12:30:44.097Z</time>
      </trkpt>
      <trkpt lat="48.10546" lon="1.35305">
        <ele>138</ele>
        <time>2018-10-09T12:30:45.097Z</time>
      </trkpt>
      <trkpt lat="48.10546" lon="1.35303">
        <ele>138</ele>
        <time>2018-10-09T12:30:46.097Z</time>
      </trkpt>
      <trkpt lat="48.10546" lon="1.35301">
        <ele>138</ele>
        <time>2018-10-09T12:30:47.097Z</time>
      </trkpt>
      <trkpt lat="48.10547" lon="1.35299">
        <ele>138</ele>
        <time>2018-10-09T12:30:48.097Z</time>
      </trkpt>
      <trkpt lat="48.10547" lon="1.35297">
        <ele>137</ele>
        <time>2018-10-09T12:30:49.097Z</time>
      </trkpt>
      <trkpt lat="48.10547" lon="1.35296">
        <ele>137</ele>
        <time>2018-10-09T12:30:50.097Z</time>
      </trkpt>
      <trkpt lat="48.10547" lon="1.35294">
        <ele>137</ele>
        <time>2018-10-09T12:30:51.097Z</time>
      </trkpt>
      <trkpt lat="48.10548" lon="1.35292">
        <ele>137</ele>
        <time>2018-10-09T12:30:52.097Z</time>
      </trkpt>
      <trkpt lat="48.10548" lon="1.3529">
        <ele>137</ele>
        <time>2018-10-09T12:30:53.097Z</time>
      </trkpt>
      <trkpt lat="48.10548" lon="1.35288">
        <ele>137</ele>
        <time>2018-10-09T12:30:54.097Z</time>
      </trkpt>
      <trkpt lat="48.10548" lon="1.35287">
        <ele>137</ele>
        <time>2018-10-09T12:30:55.097Z</time>
      </trkpt>
      <trkpt lat="48.10549" lon="1.35285">
        <ele>137</ele>
        <time>2018-10-09T12:30:56.097Z</time>
      </trkpt>
      <trkpt lat="48.10549" lon="1.35283">
        <ele>137</ele>
        <time>2018-10-09T12:30:57.097Z</time>
      </trkpt>
      <trkpt lat="48.10549" lon="1.35281">
        <ele>137</ele>
        <time>2018-10-09T12:30:58.097Z</time>
      </trkpt>
      <trkpt lat="48.10549" lon="1.35279">
        <ele>137</ele>
        <time>2018-10-09T12:30:59.097Z</time>
      </trkpt>
      <trkpt lat="48.1055" lon="1.35277">
        <ele>137</ele>
        <time>2018-10-09T12:31:00.097Z</time>
      </trkpt>
      <trkpt lat="48.1055" lon="1.35275">
        <ele>137</ele>
        <time>2018-10-09T12:31:01.097Z</time>
      </trkpt>
      <trkpt lat="48.1055" lon="1.35273">
        <ele>137</ele>
        <time>2018-10-09T12:31:02.097Z</time>
      </trkpt>
      <trkpt lat="48.1055" lon="1.35271">
        <ele>137</ele>
        <time>2018-10-09T12:31:03.097Z</time>
      </trkpt>
      <trkpt lat="48.1055" lon="1.35269">
        <ele>137</ele>
        <time>2018-10-09T12:31:04.097Z</time>
      </trkpt>
      <trkpt lat="48.10551" lon="1.35267">
        <ele>137</ele>
        <time>2018-10-09T12:31:05.097Z</time>
      </trkpt>
      <trkpt lat="48.10551" lon="1.35265">
        <ele>137</ele>
        <time>2018-10-09T12:31:06.097Z</time>
      </trkpt>
      <trkpt lat="48.10551" lon="1.35263">
        <ele>137</ele>
        <time>2018-10-09T12:31:07.097Z</time>
      </trkpt>
      <trkpt lat="48.10551" lon="1.35261">
        <ele>137</ele>
        <time>2018-10-09T12:31:08.097Z</time>
      </trkpt>
      <trkpt lat="48.10551" lon="1.3526">
        <ele>137</ele>
        <time>2018-10-09T12:31:09.097Z</time>
      </trkpt>
      <trkpt lat="48.10552" lon="1.35258">
        <ele>137</ele>
        <time>2018-10-09T12:31:10.097Z</time>
      </trkpt>
      <trkpt lat="48.10552" lon="1.35256">
        <ele>137</ele>
        <time>2018-10-09T12:31:11.097Z</time>
      </trkpt>
      <trkpt lat="48.10552" lon="1.35254">
        <ele>137</ele>
        <time>2018-10-09T12:31:12.097Z</time>
      </trkpt>
      <trkpt lat="48.10553" lon="1.35252">
        <ele>137</ele>
        <time>2018-10-09T12:31:13.097Z</time>
      </trkpt>
      <trkpt lat="48.10553" lon="1.3525">
        <ele>137</ele>
        <time>2018-10-09T12:31:14.097Z</time>
      </trkpt>
      <trkpt lat="48.10553" lon="1.35248">
        <ele>137</ele>
        <time>2018-10-09T12:31:15.097Z</time>
      </trkpt>
      <trkpt lat="48.10553" lon="1.35247">
        <ele>137</ele>
        <time>2018-10-09T12:31:16.097Z</time>
      </trkpt>
      <trkpt lat="48.10554" lon="1.35245">
        <ele>137</ele>
        <time>2018-10-09T12:31:17.097Z</time>
      </trkpt>
      <trkpt lat="48.10554" lon="1.35243">
        <ele>136</ele>
        <time>2018-10-09T12:31:18.097Z</time>
      </trkpt>
      <trkpt lat="48.10554" lon="1.35241">
        <ele>137</ele>
        <time>2018-10-09T12:31:19.097Z</time>
      </trkpt>
      <trkpt lat="48.10554" lon="1.35239">
        <ele>137</ele>
        <time>2018-10-09T12:31:20.097Z</time>
      </trkpt>
      <trkpt lat="48.10555" lon="1.35237">
        <ele>137</ele>
        <time>2018-10-09T12:31:21.097Z</time>
      </trkpt>
      <trkpt lat="48.10555" lon="1.35235">
        <ele>137</ele>
        <time>2018-10-09T12:31:22.097Z</time>
      </trkpt>
      <trkpt lat="48.10555" lon="1.35233">
        <ele>136</ele>
        <time>2018-10-09T12:31:23.097Z</time>
      </trkpt>
      <trkpt lat="48.10555" lon="1.35231">
        <ele>137</ele>
        <time>2018-10-09T12:31:24.097Z</time>
      </trkpt>
      <trkpt lat="48.10555" lon="1.35229">
        <ele>137</ele>
        <time>2018-10-09T12:31:25.097Z</time>
      </trkpt>
      <trkpt lat="48.10555" lon="1.35228">
        <ele>137</ele>
        <time>2018-10-09T12:31:26.097Z</time>
      </trkpt>
      <trkpt lat="48.10556" lon="1.35226">
        <ele>137</ele>
        <time>2018-10-09T12:31:27.097Z</time>
      </trkpt>
      <trkpt lat="48.10556" lon="1.35224">
        <ele>137</ele>
        <time>2018-10-09T12:31:28.097Z</time>
      </trkpt>
      <trkpt lat="48.10556" lon="1.35222">
        <ele>137</ele>
        <time>2018-10-09T12:31:29.097Z</time>
      </trkpt>
      <trkpt lat="48.10556" lon="1.3522">
        <ele>137</ele>
        <time>2018-10-09T12:31:30.097Z</time>
      </trkpt>
      <trkpt lat="48.10556" lon="1.35218">
        <ele>137</ele>
        <time>2018-10-09T12:31:31.097Z</time>
      </trkpt>
      <trkpt lat="48.10556" lon="1.35216">
        <ele>137</ele>
        <time>2018-10-09T12:31:32.097Z</time>
      </trkpt>
      <trkpt lat="48.10557" lon="1.35214">
        <ele>137</ele>
        <time>2018-10-09T12:31:33.097Z</time>
      </trkpt>
      <trkpt lat="48.10557" lon="1.35212">
        <ele>136</ele>
        <time>2018-10-09T12:31:34.097Z</time>
      </trkpt>
      <trkpt lat="48.10557" lon="1.3521">
        <ele>136</ele>
        <time>2018-10-09T12:31:35.097Z</time>
      </trkpt>
      <trkpt lat="48.10558" lon="1.35208">
        <ele>136</ele>
        <time>2018-10-09T12:31:36.097Z</time>
      </trkpt>
      <trkpt lat="48.10558" lon="1.35207">
        <ele>136</ele>
        <time>2018-10-09T12:31:37.097Z</time>
      </trkpt>
      <trkpt lat="48.10558" lon="1.35205">
        <ele>136</ele>
        <time>2018-10-09T12:31:38.097Z</time>
      </trkpt>
      <trkpt lat="48.10558" lon="1.35203">
        <ele>136</ele>
        <time>2018-10-09T12:31:39.097Z</time>
      </trkpt>
      <trkpt lat="48.10558" lon="1.35201">
        <ele>136</ele>
        <time>2018-10-09T12:31:40.097Z</time>
      </trkpt>
      <trkpt lat="48.10559" lon="1.35199">
        <ele>136</ele>
        <time>2018-10-09T12:31:41.097Z</time>
      </trkpt>
      <trkpt lat="48.10559" lon="1.35197">
        <ele>136</ele>
        <time>2018-10-09T12:31:42.097Z</time>
      </trkpt>
      <trkpt lat="48.10559" lon="1.35195">
        <ele>136</ele>
        <time>2018-10-09T12:31:43.097Z</time>
      </trkpt>
      <trkpt lat="48.1056" lon="1.35193">
        <ele>136</ele>
        <time>2018-10-09T12:31:44.097Z</time>
      </trkpt>
      <trkpt lat="48.1056" lon="1.35191">
        <ele>137</ele>
        <time>2018-10-09T12:31:45.097Z</time>
      </trkpt>
      <trkpt lat="48.1056" lon="1.35189">
        <ele>137</ele>
        <time>2018-10-09T12:31:46.097Z</time>
      </trkpt>
      <trkpt lat="48.1056" lon="1.35187">
        <ele>137</ele>
        <time>2018-10-09T12:31:47.097Z</time>
      </trkpt>
      <trkpt lat="48.1056" lon="1.35186">
        <ele>137</ele>
        <time>2018-10-09T12:31:48.097Z</time>
      </trkpt>
      <trkpt lat="48.1056" lon="1.35184">
        <ele>137</ele>
        <time>2018-10-09T12:31:49.097Z</time>
      </trkpt>
      <trkpt lat="48.1056" lon="1.35182">
        <ele>137</ele>
        <time>2018-10-09T12:31:50.097Z</time>
      </trkpt>
      <trkpt lat="48.10561" lon="1.3518">
        <ele>137</ele>
        <time>2018-10-09T12:31:51.097Z</time>
      </trkpt>
      <trkpt lat="48.10561" lon="1.35178">
        <ele>137</ele>
        <time>2018-10-09T12:31:52.097Z</time>
      </trkpt>
      <trkpt lat="48.10561" lon="1.35176">
        <ele>137</ele>
        <time>2018-10-09T12:31:53.097Z</time>
      </trkpt>
      <trkpt lat="48.10561" lon="1.35174">
        <ele>137</ele>
        <time>2018-10-09T12:31:54.097Z</time>
      </trkpt>
      <trkpt lat="48.10561" lon="1.35172">
        <ele>138</ele>
        <time>2018-10-09T12:31:55.097Z</time>
      </trkpt>
      <trkpt lat="48.10561" lon="1.35169">
        <ele>137</ele>
        <time>2018-10-09T12:31:56.097Z</time>
      </trkpt>
      <trkpt lat="48.10562" lon="1.35167">
        <ele>137</ele>
        <time>2018-10-09T12:31:57.097Z</time>
      </trkpt>
      <trkpt lat="48.10562" lon="1.35165">
        <ele>137</ele>
        <time>2018-10-09T12:31:58.097Z</time>
      </trkpt>
      <trkpt lat="48.10562" lon="1.35164">
        <ele>137</ele>
        <time>2018-10-09T12:31:59.097Z</time>
      </trkpt>
      <trkpt lat="48.10562" lon="1.35162">
        <ele>138</ele>
        <time>2018-10-09T12:32:00.097Z</time>
      </trkpt>
      <trkpt lat="48.10562" lon="1.3516">
        <ele>137</ele>
        <time>2018-10-09T12:32:01.097Z</time>
      </trkpt>
      <trkpt lat="48.10562" lon="1.35158">
        <ele>137</ele>
        <time>2018-10-09T12:32:02.097Z</time>
      </trkpt>
      <trkpt lat="48.10563" lon="1.35156">
        <ele>137</ele>
        <time>2018-10-09T12:32:03.097Z</time>
      </trkpt>
      <trkpt lat="48.10563" lon="1.35154">
        <ele>137</ele>
        <time>2018-10-09T12:32:04.097Z</time>
      </trkpt>
      <trkpt lat="48.10563" lon="1.35152">
        <ele>137</ele>
        <time>2018-10-09T12:32:05.097Z</time>
      </trkpt>
      <trkpt lat="48.10563" lon="1.3515">
        <ele>137</ele>
        <time>2018-10-09T12:32:06.097Z</time>
      </trkpt>
      <trkpt lat="48.10564" lon="1.35148">
        <ele>137</ele>
        <time>2018-10-09T12:32:07.097Z</time>
      </trkpt>
      <trkpt lat="48.10564" lon="1.35146">
        <ele>137</ele>
        <time>2018-10-09T12:32:08.097Z</time>
      </trkpt>
      <trkpt lat="48.10564" lon="1.35144">
        <ele>137</ele>
        <time>2018-10-09T12:32:09.097Z</time>
      </trkpt>
      <trkpt lat="48.10564" lon="1.35142">
        <ele>137</ele>
        <time>2018-10-09T12:32:10.097Z</time>
      </trkpt>
      <trkpt lat="48.10565" lon="1.3514">
        <ele>137</ele>
        <time>2018-10-09T12:32:11.097Z</time>
      </trkpt>
      <trkpt lat="48.10565" lon="1.35138">
        <ele>137</ele>
        <time>2018-10-09T12:32:12.097Z</time>
      </trkpt>
      <trkpt lat="48.10565" lon="1.35136">
        <ele>137</ele>
        <time>2018-10-09T12:32:13.097Z</time>
      </trkpt>
      <trkpt lat="48.10566" lon="1.35134">
        <ele>137</ele>
        <time>2018-10-09T12:32:14.097Z</time>
      </trkpt>
      <trkpt lat="48.10566" lon="1.35132">
        <ele>137</ele>
        <time>2018-10-09T12:32:15.097Z</time>
      </trkpt>
      <trkpt lat="48.10566" lon="1.35131">
        <ele>137</ele>
        <time>2018-10-09T12:32:16.097Z</time>
      </trkpt>
      <trkpt lat="48.10567" lon="1.35129">
        <ele>137</ele>
        <time>2018-10-09T12:32:17.097Z</time>
      </trkpt>
      <trkpt lat="48.10567" lon="1.35127">
        <ele>137</ele>
        <time>2018-10-09T12:32:18.097Z</time>
      </trkpt>
      <trkpt lat="48.10568" lon="1.35125">
        <ele>137</ele>
        <time>2018-10-09T12:32:19.097Z</time>
      </trkpt>
      <trkpt lat="48.10568" lon="1.35123">
        <ele>137</ele>
        <time>2018-10-09T12:32:20.097Z</time>
      </trkpt>
      <trkpt lat="48.10568" lon="1.35122">
        <ele>137</ele>
        <time>2018-10-09T12:32:21.097Z</time>
      </trkpt>
      <trkpt lat="48.10568" lon="1.3512">
        <ele>136</ele>
        <time>2018-10-09T12:32:22.097Z</time>
      </trkpt>
      <trkpt lat="48.10569" lon="1.35118">
        <ele>137</ele>
        <time>2018-10-09T12:32:23.097Z</time>
      </trkpt>
      <trkpt lat="48.10569" lon="1.35116">
        <ele>137</ele>
        <time>2018-10-09T12:32:24.097Z</time>
      </trkpt>
      <trkpt lat="48.10569" lon="1.35115">
        <ele>137</ele>
        <time>2018-10-09T12:32:25.097Z</time>
      </trkpt>
      <trkpt lat="48.1057" lon="1.35113">
        <ele>137</ele>
        <time>2018-10-09T12:32:26.097Z</time>
      </trkpt>
      <trkpt lat="48.1057" lon="1.35111">
        <ele>137</ele>
        <time>2018-10-09T12:32:27.097Z</time>
      </trkpt>
      <trkpt lat="48.1057" lon="1.35109">
        <ele>137</ele>
        <time>2018-10-09T12:32:28.097Z</time>
      </trkpt>
      <trkpt lat="48.1057" lon="1.35107">
        <ele>137</ele>
        <time>2018-10-09T12:32:29.097Z</time>
      </trkpt>
      <trkpt lat="48.10571" lon="1.35105">
        <ele>137</ele>
        <time>2018-10-09T12:32:30.097Z</time>
      </trkpt>
      <trkpt lat="48.10571" lon="1.35103">
        <ele>137</ele>
        <time>2018-10-09T12:32:31.097Z</time>
      </trkpt>
      <trkpt lat="48.10572" lon="1.35101">
        <ele>137</ele>
        <time>2018-10-09T12:32:32.097Z</time>
      </trkpt>
      <trkpt lat="48.10572" lon="1.35099">
        <ele>137</ele>
        <time>2018-10-09T12:32:33.097Z</time>
      </trkpt>
      <trkpt lat="48.10572" lon="1.35097">
        <ele>138</ele>
        <time>2018-10-09T12:32:34.097Z</time>
      </trkpt>
      <trkpt lat="48.10573" lon="1.35095">
        <ele>138</ele>
        <time>2018-10-09T12:32:35.097Z</time>
      </trkpt>
      <trkpt lat="48.10573" lon="1.35093">
        <ele>137</ele>
        <time>2018-10-09T12:32:36.097Z</time>
      </trkpt>
      <trkpt lat="48.10574" lon="1.35091">
        <ele>137</ele>
        <time>2018-10-09T12:32:37.097Z</time>
      </trkpt>
      <trkpt lat="48.10574" lon="1.35089">
        <ele>137</ele>
        <time>2018-10-09T12:32:38.097Z</time>
      </trkpt>
      <trkpt lat="48.10575" lon="1.35088">
        <ele>137</ele>
        <time>2018-10-09T12:32:39.097Z</time>
      </trkpt>
      <trkpt lat="48.10575" lon="1.35086">
        <ele>137</ele>
        <time>2018-10-09T12:32:40.097Z</time>
      </trkpt>
      <trkpt lat="48.10575" lon="1.35084">
        <ele>137</ele>
        <time>2018-10-09T12:32:41.097Z</time>
      </trkpt>
      <trkpt lat="48.10576" lon="1.35082">
        <ele>137</ele>
        <time>2018-10-09T12:32:42.097Z</time>
      </trkpt>
      <trkpt lat="48.10576" lon="1.3508">
        <ele>137</ele>
        <time>2018-10-09T12:32:43.097Z</time>
      </trkpt>
      <trkpt lat="48.10577" lon="1.35079">
        <ele>138</ele>
        <time>2018-10-09T12:32:44.097Z</time>
      </trkpt>
      <trkpt lat="48.10577" lon="1.35077">
        <ele>138</ele>
        <time>2018-10-09T12:32:45.097Z</time>
      </trkpt>
      <trkpt lat="48.10578" lon="1.35075">
        <ele>138</ele>
        <time>2018-10-09T12:32:46.097Z</time>
      </trkpt>
      <trkpt lat="48.10578" lon="1.35074">
        <ele>138</ele>
        <time>2018-10-09T12:32:47.097Z</time>
      </trkpt>
      <trkpt lat="48.10578" lon="1.35072">
        <ele>137</ele>
        <time>2018-10-09T12:32:48.097Z</time>
      </trkpt>
      <trkpt lat="48.10579" lon="1.3507">
        <ele>138</ele>
        <time>2018-10-09T12:32:49.097Z</time>
      </trkpt>
      <trkpt lat="48.10579" lon="1.35068">
        <ele>138</ele>
        <time>2018-10-09T12:32:50.097Z</time>
      </trkpt>
      <trkpt lat="48.1058" lon="1.35067">
        <ele>138</ele>
        <time>2018-10-09T12:32:51.097Z</time>
      </trkpt>
      <trkpt lat="48.1058" lon="1.35064">
        <ele>138</ele>
        <time>2018-10-09T12:32:52.097Z</time>
      </trkpt>
      <trkpt lat="48.1058" lon="1.35062">
        <ele>138</ele>
        <time>2018-10-09T12:32:53.097Z</time>
      </trkpt>
      <trkpt lat="48.10581" lon="1.35061">
        <ele>138</ele>
        <time>2018-10-09T12:32:54.097Z</time>
      </trkpt>
      <trkpt lat="48.10581" lon="1.35059">
        <ele>138</ele>
        <time>2018-10-09T12:32:55.097Z</time>
      </trkpt>
      <trkpt lat="48.10582" lon="1.35057">
        <ele>138</ele>
        <time>2018-10-09T12:32:56.097Z</time>
      </trkpt>
      <trkpt lat="48.10582" lon="1.35055">
        <ele>138</ele>
        <time>2018-10-09T12:32:57.097Z</time>
      </trkpt>
      <trkpt lat="48.10583" lon="1.35053">
        <ele>138</ele>
        <time>2018-10-09T12:32:58.097Z</time>
      </trkpt>
      <trkpt lat="48.10583" lon="1.35051">
        <ele>138</ele>
        <time>2018-10-09T12:32:59.097Z</time>
      </trkpt>
      <trkpt lat="48.10583" lon="1.35049">
        <ele>138</ele>
        <time>2018-10-09T12:33:00.097Z</time>
      </trkpt>
      <trkpt lat="48.10584" lon="1.35047">
        <ele>138</ele>
        <time>2018-10-09T12:33:01.097Z</time>
      </trkpt>
      <trkpt lat="48.10584" lon="1.35045">
        <ele>138</ele>
        <time>2018-10-09T12:33:02.097Z</time>
      </trkpt>
      <trkpt lat="48.10585" lon="1.35043">
        <ele>138</ele>
        <time>2018-10-09T12:33:03.097Z</time>
      </trkpt>
      <trkpt lat="48.10585" lon="1.35042">
        <ele>138</ele>
        <time>2018-10-09T12:33:04.097Z</time>
      </trkpt>
      <trkpt lat="48.10585" lon="1.3504">
        <ele>138</ele>
        <time>2018-10-09T12:33:05.097Z</time>
      </trkpt>
      <trkpt lat="48.10586" lon="1.35038">
        <ele>138</ele>
        <time>2018-10-09T12:33:06.097Z</time>
      </trkpt>
      <trkpt lat="48.10586" lon="1.35036">
        <ele>138</ele>
        <time>2018-10-09T12:33:07.097Z</time>
      </trkpt>
      <trkpt lat="48.10587" lon="1.35034">
        <ele>138</ele>
        <time>2018-10-09T12:33:08.097Z</time>
      </trkpt>
      <trkpt lat="48.10587" lon="1.35033">
        <ele>138</ele>
        <time>2018-10-09T12:33:09.097Z</time>
      </trkpt>
      <trkpt lat="48.10588" lon="1.35031">
        <ele>138</ele>
        <time>2018-10-09T12:33:10.097Z</time>
      </trkpt>
      <trkpt lat="48.10588" lon="1.35029">
        <ele>138</ele>
        <time>2018-10-09T12:33:11.097Z</time>
      </trkpt>
      <trkpt lat="48.10588" lon="1.35027">
        <ele>138</ele>
        <time>2018-10-09T12:33:12.097Z</time>
      </trkpt>
      <trkpt lat="48.10589" lon="1.35025">
        <ele>138</ele>
        <time>2018-10-09T12:33:13.097Z</time>
      </trkpt>
      <trkpt lat="48.10589" lon="1.35023">
        <ele>138</ele>
        <time>2018-10-09T12:33:14.097Z</time>
      </trkpt>
      <trkpt lat="48.1059" lon="1.35022">
        <ele>138</ele>
        <time>2018-10-09T12:33:15.097Z</time>
      </trkpt>
      <trkpt lat="48.1059" lon="1.3502">
        <ele>138</ele>
        <time>2018-10-09T12:33:16.097Z</time>
      </trkpt>
      <trkpt lat="48.10591" lon="1.35018">
        <ele>138</ele>
        <time>2018-10-09T12:33:17.097Z</time>
      </trkpt>
      <trkpt lat="48.10591" lon="1.35016">
        <ele>138</ele>
        <time>2018-10-09T12:33:18.097Z</time>
      </trkpt>
      <trkpt lat="48.10592" lon="1.35014">
        <ele>138</ele>
        <time>2018-10-09T12:33:19.097Z</time>
      </trkpt>
      <trkpt lat="48.10592" lon="1.35013">
        <ele>138</ele>
        <time>2018-10-09T12:33:20.097Z</time>
      </trkpt>
      <trkpt lat="48.10593" lon="1.35011">
        <ele>138</ele>
        <time>2018-10-09T12:33:21.097Z</time>
      </trkpt>
      <trkpt lat="48.10593" lon="1.35009">
        <ele>138</ele>
        <time>2018-10-09T12:33:22.097Z</time>
      </trkpt>
      <trkpt lat="48.10594" lon="1.35007">
        <ele>138</ele>
        <time>2018-10-09T12:33:23.097Z</time>
      </trkpt>
      <trkpt lat="48.10594" lon="1.35006">
        <ele>138</ele>
        <time>2018-10-09T12:33:24.097Z</time>
      </trkpt>
      <trkpt lat="48.10594" lon="1.35004">
        <ele>138</ele>
        <time>2018-10-09T12:33:25.097Z</time>
      </trkpt>
      <trkpt lat="48.10595" lon="1.35002">
        <ele>138</ele>
        <time>2018-10-09T12:33:26.097Z</time>
      </trkpt>
      <trkpt lat="48.10595" lon="1.35">
        <ele>138</ele>
        <time>2018-10-09T12:33:27.097Z</time>
      </trkpt>
      <trkpt lat="48.10596" lon="1.34998">
        <ele>138</ele>
        <time>2018-10-09T12:33:28.097Z</time>
      </trkpt>
      <trkpt lat="48.10596" lon="1.34996">
        <ele>137</ele>
        <time>2018-10-09T12:33:29.097Z</time>
      </trkpt>
      <trkpt lat="48.10597" lon="1.34994">
        <ele>137</ele>
        <time>2018-10-09T12:33:30.097Z</time>
      </trkpt>
      <trkpt lat="48.10597" lon="1.34992">
        <ele>137</ele>
        <time>2018-10-09T12:33:31.097Z</time>
      </trkpt>
      <trkpt lat="48.10598" lon="1.34991">
        <ele>137</ele>
        <time>2018-10-09T12:33:32.097Z</time>
      </trkpt>
      <trkpt lat="48.10598" lon="1.34989">
        <ele>137</ele>
        <time>2018-10-09T12:33:33.097Z</time>
      </trkpt>
      <trkpt lat="48.10599" lon="1.34987">
        <ele>137</ele>
        <time>2018-10-09T12:33:34.097Z</time>
      </trkpt>
      <trkpt lat="48.10599" lon="1.34985">
        <ele>138</ele>
        <time>2018-10-09T12:33:35.097Z</time>
      </trkpt>
      <trkpt lat="48.106" lon="1.34983">
        <ele>137</ele>
        <time>2018-10-09T12:33:36.097Z</time>
      </trkpt>
      <trkpt lat="48.106" lon="1.34981">
        <ele>138</ele>
        <time>2018-10-09T12:33:37.097Z</time>
      </trkpt>
      <trkpt lat="48.10601" lon="1.34979">
        <ele>137</ele>
        <time>2018-10-09T12:33:38.097Z</time>
      </trkpt>
      <trkpt lat="48.10601" lon="1.34977">
        <ele>137</ele>
        <time>2018-10-09T12:33:39.097Z</time>
      </trkpt>
      <trkpt lat="48.10602" lon="1.34976">
        <ele>137</ele>
        <time>2018-10-09T12:33:40.097Z</time>
      </trkpt>
      <trkpt lat="48.10602" lon="1.34974">
        <ele>137</ele>
        <time>2018-10-09T12:33:41.097Z</time>
      </trkpt>
      <trkpt lat="48.10603" lon="1.34972">
        <ele>138</ele>
        <time>2018-10-09T12:33:42.097Z</time>
      </trkpt>
      <trkpt lat="48.10603" lon="1.3497">
        <ele>138</ele>
        <time>2018-10-09T12:33:43.097Z</time>
      </trkpt>
      <trkpt lat="48.10603" lon="1.34968">
        <ele>139</ele>
        <time>2018-10-09T12:33:44.097Z</time>
      </trkpt>
      <trkpt lat="48.10604" lon="1.34966">
        <ele>139</ele>
        <time>2018-10-09T12:33:45.097Z</time>
      </trkpt>
      <trkpt lat="48.10604" lon="1.34964">
        <ele>138</ele>
        <time>2018-10-09T12:33:46.097Z</time>
      </trkpt>
      <trkpt lat="48.10605" lon="1.34962">
        <ele>139</ele>
        <time>2018-10-09T12:33:47.097Z</time>
      </trkpt>
      <trkpt lat="48.10606" lon="1.3496">
        <ele>139</ele>
        <time>2018-10-09T12:33:48.097Z</time>
      </trkpt>
      <trkpt lat="48.10606" lon="1.34958">
        <ele>139</ele>
        <time>2018-10-09T12:33:49.097Z</time>
      </trkpt>
      <trkpt lat="48.10607" lon="1.34957">
        <ele>139</ele>
        <time>2018-10-09T12:33:50.097Z</time>
      </trkpt>
      <trkpt lat="48.10607" lon="1.34955">
        <ele>139</ele>
        <time>2018-10-09T12:33:51.097Z</time>
      </trkpt>
      <trkpt lat="48.10608" lon="1.34953">
        <ele>139</ele>
        <time>2018-10-09T12:33:52.097Z</time>
      </trkpt>
      <trkpt lat="48.10608" lon="1.34951">
        <ele>139</ele>
        <time>2018-10-09T12:33:53.097Z</time>
      </trkpt>
      <trkpt lat="48.10608" lon="1.34949">
        <ele>139</ele>
        <time>2018-10-09T12:33:54.097Z</time>
      </trkpt>
      <trkpt lat="48.10609" lon="1.34947">
        <ele>139</ele>
        <time>2018-10-09T12:33:55.097Z</time>
      </trkpt>
      <trkpt lat="48.10609" lon="1.34945">
        <ele>140</ele>
        <time>2018-10-09T12:33:56.097Z</time>
      </trkpt>
      <trkpt lat="48.1061" lon="1.34944">
        <ele>140</ele>
        <time>2018-10-09T12:33:57.097Z</time>
      </trkpt>
      <trkpt lat="48.1061" lon="1.34942">
        <ele>140</ele>
        <time>2018-10-09T12:33:58.097Z</time>
      </trkpt>
      <trkpt lat="48.10611" lon="1.3494">
        <ele>140</ele>
        <time>2018-10-09T12:33:59.097Z</time>
      </trkpt>
      <trkpt lat="48.10612" lon="1.34938">
        <ele>140</ele>
        <time>2018-10-09T12:34:00.097Z</time>
      </trkpt>
      <trkpt lat="48.10612" lon="1.34936">
        <ele>140</ele>
        <time>2018-10-09T12:34:01.097Z</time>
      </trkpt>
      <trkpt lat="48.10613" lon="1.34934">
        <ele>140</ele>
        <time>2018-10-09T12:34:02.097Z</time>
      </trkpt>
      <trkpt lat="48.10613" lon="1.34932">
        <ele>140</ele>
        <time>2018-10-09T12:34:03.097Z</time>
      </trkpt>
      <trkpt lat="48.10614" lon="1.34931">
        <ele>140</ele>
        <time>2018-10-09T12:34:04.097Z</time>
      </trkpt>
      <trkpt lat="48.10614" lon="1.34929">
        <ele>140</ele>
        <time>2018-10-09T12:34:05.097Z</time>
      </trkpt>
      <trkpt lat="48.10615" lon="1.34927">
        <ele>140</ele>
        <time>2018-10-09T12:34:06.097Z</time>
      </trkpt>
      <trkpt lat="48.10615" lon="1.34925">
        <ele>140</ele>
        <time>2018-10-09T12:34:07.097Z</time>
      </trkpt>
      <trkpt lat="48.10616" lon="1.34923">
        <ele>140</ele>
        <time>2018-10-09T12:34:08.097Z</time>
      </trkpt>
      <trkpt lat="48.10616" lon="1.34921">
        <ele>140</ele>
        <time>2018-10-09T12:34:09.097Z</time>
      </trkpt>
      <trkpt lat="48.10617" lon="1.34919">
        <ele>140</ele>
        <time>2018-10-09T12:34:10.097Z</time>
      </trkpt>
      <trkpt lat="48.10617" lon="1.34918">
        <ele>140</ele>
        <time>2018-10-09T12:34:11.097Z</time>
      </trkpt>
      <trkpt lat="48.10618" lon="1.34916">
        <ele>140</ele>
        <time>2018-10-09T12:34:12.097Z</time>
      </trkpt>
      <trkpt lat="48.10619" lon="1.34914">
        <ele>140</ele>
        <time>2018-10-09T12:34:13.097Z</time>
      </trkpt>
      <trkpt lat="48.10619" lon="1.34912">
        <ele>140</ele>
        <time>2018-10-09T12:34:14.097Z</time>
      </trkpt>
      <trkpt lat="48.1062" lon="1.3491">
        <ele>140</ele>
        <time>2018-10-09T12:34:15.097Z</time>
      </trkpt>
      <trkpt lat="48.1062" lon="1.34909">
        <ele>139</ele>
        <time>2018-10-09T12:34:16.097Z</time>
      </trkpt>
      <trkpt lat="48.10621" lon="1.34907">
        <ele>139</ele>
        <time>2018-10-09T12:34:17.097Z</time>
      </trkpt>
      <trkpt lat="48.10621" lon="1.34905">
        <ele>139</ele>
        <time>2018-10-09T12:34:18.097Z</time>
      </trkpt>
      <trkpt lat="48.10622" lon="1.34904">
        <ele>139</ele>
        <time>2018-10-09T12:34:19.097Z</time>
      </trkpt>
      <trkpt lat="48.10623" lon="1.34902">
        <ele>139</ele>
        <time>2018-10-09T12:34:20.097Z</time>
      </trkpt>
      <trkpt lat="48.10623" lon="1.349">
        <ele>139</ele>
        <time>2018-10-09T12:34:21.097Z</time>
      </trkpt>
      <trkpt lat="48.10624" lon="1.34898">
        <ele>139</ele>
        <time>2018-10-09T12:34:22.097Z</time>
      </trkpt>
      <trkpt lat="48.10624" lon="1.34896">
        <ele>139</ele>
        <time>2018-10-09T12:34:23.097Z</time>
      </trkpt>
      <trkpt lat="48.10625" lon="1.34895">
        <ele>139</ele>
        <time>2018-10-09T12:34:24.097Z</time>
      </trkpt>
      <trkpt lat="48.10625" lon="1.34893">
        <ele>139</ele>
        <time>2018-10-09T12:34:25.097Z</time>
      </trkpt>
      <trkpt lat="48.10626" lon="1.34891">
        <ele>139</ele>
        <time>2018-10-09T12:34:26.097Z</time>
      </trkpt>
      <trkpt lat="48.10626" lon="1.34889">
        <ele>139</ele>
        <time>2018-10-09T12:34:27.097Z</time>
      </trkpt>
      <trkpt lat="48.10627" lon="1.34887">
        <ele>139</ele>
        <time>2018-10-09T12:34:28.097Z</time>
      </trkpt>
      <trkpt lat="48.10627" lon="1.34886">
        <ele>139</ele>
        <time>2018-10-09T12:34:29.097Z</time>
      </trkpt>
      <trkpt lat="48.10628" lon="1.34884">
        <ele>139</ele>
        <time>2018-10-09T12:34:30.097Z</time>
      </trkpt>
      <trkpt lat="48.10628" lon="1.34882">
        <ele>139</ele>
        <time>2018-10-09T12:34:31.097Z</time>
      </trkpt>
      <trkpt lat="48.10629" lon="1.3488">
        <ele>139</ele>
        <time>2018-10-09T12:34:32.097Z</time>
      </trkpt>
      <trkpt lat="48.10629" lon="1.34878">
        <ele>139</ele>
        <time>2018-10-09T12:34:33.097Z</time>
      </trkpt>
      <trkpt lat="48.1063" lon="1.34876">
        <ele>139</ele>
        <time>2018-10-09T12:34:34.097Z</time>
      </trkpt>
      <trkpt lat="48.1063" lon="1.34875">
        <ele>139</ele>
        <time>2018-10-09T12:34:35.097Z</time>
      </trkpt>
      <trkpt lat="48.10631" lon="1.34873">
        <ele>139</ele>
        <time>2018-10-09T12:34:36.097Z</time>
      </trkpt>
      <trkpt lat="48.10631" lon="1.34871">
        <ele>139</ele>
        <time>2018-10-09T12:34:37.097Z</time>
      </trkpt>
      <trkpt lat="48.10631" lon="1.34869">
        <ele>139</ele>
        <time>2018-10-09T12:34:38.097Z</time>
      </trkpt>
      <trkpt lat="48.10632" lon="1.34867">
        <ele>139</ele>
        <time>2018-10-09T12:34:39.097Z</time>
      </trkpt>
      <trkpt lat="48.10632" lon="1.34866">
        <ele>139</ele>
        <time>2018-10-09T12:34:40.097Z</time>
      </trkpt>
      <trkpt lat="48.10633" lon="1.34864">
        <ele>139</ele>
        <time>2018-10-09T12:34:41.097Z</time>
      </trkpt>
      <trkpt lat="48.10633" lon="1.34862">
        <ele>139</ele>
        <time>2018-10-09T12:34:42.097Z</time>
      </trkpt>
      <trkpt lat="48.10634" lon="1.3486">
        <ele>139</ele>
        <time>2018-10-09T12:34:43.097Z</time>
      </trkpt>
      <trkpt lat="48.10634" lon="1.34858">
        <ele>139</ele>
        <time>2018-10-09T12:34:44.097Z</time>
      </trkpt>
      <trkpt lat="48.10634" lon="1.34856">
        <ele>139</ele>
        <time>2018-10-09T12:34:45.097Z</time>
      </trkpt>
      <trkpt lat="48.10634" lon="1.34854">
        <ele>139</ele>
        <time>2018-10-09T12:34:46.097Z</time>
      </trkpt>
      <trkpt lat="48.10635" lon="1.34852">
        <ele>139</ele>
        <time>2018-10-09T12:34:47.097Z</time>
      </trkpt>
      <trkpt lat="48.10635" lon="1.3485">
        <ele>139</ele>
        <time>2018-10-09T12:34:48.097Z</time>
      </trkpt>
      <trkpt lat="48.10635" lon="1.34848">
        <ele>139</ele>
        <time>2018-10-09T12:34:49.097Z</time>
      </trkpt>
      <trkpt lat="48.10636" lon="1.34846">
        <ele>139</ele>
        <time>2018-10-09T12:34:50.097Z</time>
      </trkpt>
      <trkpt lat="48.10636" lon="1.34844">
        <ele>139</ele>
        <time>2018-10-09T12:34:51.097Z</time>
      </trkpt>
      <trkpt lat="48.10636" lon="1.34843">
        <ele>139</ele>
        <time>2018-10-09T12:34:52.097Z</time>
      </trkpt>
      <trkpt lat="48.10636" lon="1.34841">
        <ele>139</ele>
        <time>2018-10-09T12:34:53.097Z</time>
      </trkpt>
      <trkpt lat="48.10637" lon="1.34839">
        <ele>139</ele>
        <time>2018-10-09T12:34:54.097Z</time>
      </trkpt>
      <trkpt lat="48.10637" lon="1.34837">
        <ele>139</ele>
        <time>2018-10-09T12:34:55.097Z</time>
      </trkpt>
      <trkpt lat="48.10637" lon="1.34835">
        <ele>139</ele>
        <time>2018-10-09T12:34:56.097Z</time>
      </trkpt>
      <trkpt lat="48.10637" lon="1.34833">
        <ele>139</ele>
        <time>2018-10-09T12:34:57.097Z</time>
      </trkpt>
      <trkpt lat="48.10638" lon="1.34832">
        <ele>138</ele>
        <time>2018-10-09T12:34:58.097Z</time>
      </trkpt>
      <trkpt lat="48.10638" lon="1.3483">
        <ele>139</ele>
        <time>2018-10-09T12:34:59.097Z</time>
      </trkpt>
      <trkpt lat="48.10638" lon="1.34828">
        <ele>139</ele>
        <time>2018-10-09T12:35:00.097Z</time>
      </trkpt>
      <trkpt lat="48.10638" lon="1.34826">
        <ele>139</ele>
        <time>2018-10-09T12:35:01.097Z</time>
      </trkpt>
      <trkpt lat="48.10639" lon="1.34824">
        <ele>139</ele>
        <time>2018-10-09T12:35:02.097Z</time>
      </trkpt>
      <trkpt lat="48.10639" lon="1.34822">
        <ele>139</ele>
        <time>2018-10-09T12:35:03.097Z</time>
      </trkpt>
      <trkpt lat="48.10639" lon="1.3482">
        <ele>138</ele>
        <time>2018-10-09T12:35:04.097Z</time>
      </trkpt>
      <trkpt lat="48.10639" lon="1.34818">
        <ele>139</ele>
        <time>2018-10-09T12:35:05.097Z</time>
      </trkpt>
      <trkpt lat="48.1064" lon="1.34817">
        <ele>139</ele>
        <time>2018-10-09T12:35:06.097Z</time>
      </trkpt>
      <trkpt lat="48.1064" lon="1.34815">
        <ele>138</ele>
        <time>2018-10-09T12:35:07.097Z</time>
      </trkpt>
      <trkpt lat="48.1064" lon="1.34813">
        <ele>138</ele>
        <time>2018-10-09T12:35:08.097Z</time>
      </trkpt>
      <trkpt lat="48.1064" lon="1.34811">
        <ele>138</ele>
        <time>2018-10-09T12:35:09.097Z</time>
      </trkpt>
      <trkpt lat="48.10641" lon="1.34809">
        <ele>138</ele>
        <time>2018-10-09T12:35:10.097Z</time>
      </trkpt>
      <trkpt lat="48.10641" lon="1.34807">
        <ele>138</ele>
        <time>2018-10-09T12:35:11.097Z</time>
      </trkpt>
      <trkpt lat="48.10641" lon="1.34805">
        <ele>138</ele>
        <time>2018-10-09T12:35:12.097Z</time>
      </trkpt>
      <trkpt lat="48.10641" lon="1.34803">
        <ele>138</ele>
        <time>2018-10-09T12:35:13.097Z</time>
      </trkpt>
      <trkpt lat="48.10642" lon="1.34801">
        <ele>138</ele>
        <time>2018-10-09T12:35:14.097Z</time>
      </trkpt>
      <trkpt lat="48.10642" lon="1.34799">
        <ele>137</ele>
        <time>2018-10-09T12:35:15.097Z</time>
      </trkpt>
      <trkpt lat="48.10642" lon="1.34797">
        <ele>137</ele>
        <time>2018-10-09T12:35:16.097Z</time>
      </trkpt>
      <trkpt lat="48.10642" lon="1.34796">
        <ele>137</ele>
        <time>2018-10-09T12:35:17.097Z</time>
      </trkpt>
      <trkpt lat="48.10643" lon="1.34794">
        <ele>137</ele>
        <time>2018-10-09T12:35:18.097Z</time>
      </trkpt>
      <trkpt lat="48.10643" lon="1.34792">
        <ele>138</ele>
        <time>2018-10-09T12:35:19.097Z</time>
      </trkpt>
      <trkpt lat="48.10643" lon="1.3479">
        <ele>138</ele>
        <time>2018-10-09T12:35:20.097Z</time>
      </trkpt>
      <trkpt lat="48.10643" lon="1.34788">
        <ele>138</ele>
        <time>2018-10-09T12:35:21.097Z</time>
      </trkpt>
      <trkpt lat="48.10644" lon="1.34786">
        <ele>138</ele>
        <time>2018-10-09T12:35:22.097Z</time>
      </trkpt>
      <trkpt lat="48.10644" lon="1.34785">
        <ele>138</ele>
        <time>2018-10-09T12:35:23.097Z</time>
      </trkpt>
      <trkpt lat="48.10644" lon="1.34783">
        <ele>137</ele>
        <time>2018-10-09T12:35:24.097Z</time>
      </trkpt>
      <trkpt lat="48.10644" lon="1.34781">
        <ele>137</ele>
        <time>2018-10-09T12:35:25.097Z</time>
      </trkpt>
      <trkpt lat="48.10645" lon="1.34779">
        <ele>137</ele>
        <time>2018-10-09T12:35:26.097Z</time>
      </trkpt>
      <trkpt lat="48.10645" lon="1.34777">
        <ele>137</ele>
        <time>2018-10-09T12:35:27.097Z</time>
      </trkpt>
      <trkpt lat="48.10645" lon="1.34775">
        <ele>137</ele>
        <time>2018-10-09T12:35:28.097Z</time>
      </trkpt>
      <trkpt lat="48.10645" lon="1.34774">
        <ele>137</ele>
        <time>2018-10-09T12:35:29.097Z</time>
      </trkpt>
      <trkpt lat="48.10646" lon="1.34772">
        <ele>137</ele>
        <time>2018-10-09T12:35:30.097Z</time>
      </trkpt>
      <trkpt lat="48.10646" lon="1.3477">
        <ele>138</ele>
        <time>2018-10-09T12:35:31.097Z</time>
      </trkpt>
      <trkpt lat="48.10646" lon="1.34768">
        <ele>138</ele>
        <time>2018-10-09T12:35:32.097Z</time>
      </trkpt>
      <trkpt lat="48.10646" lon="1.34766">
        <ele>138</ele>
        <time>2018-10-09T12:35:33.097Z</time>
      </trkpt>
      <trkpt lat="48.10647" lon="1.34765">
        <ele>138</ele>
        <time>2018-10-09T12:35:34.097Z</time>
      </trkpt>
      <trkpt lat="48.10647" lon="1.34763">
        <ele>138</ele>
        <time>2018-10-09T12:35:35.097Z</time>
      </trkpt>
      <trkpt lat="48.10648" lon="1.34761">
        <ele>138</ele>
        <time>2018-10-09T12:35:36.097Z</time>
      </trkpt>
      <trkpt lat="48.10648" lon="1.34759">
        <ele>139</ele>
        <time>2018-10-09T12:35:37.097Z</time>
      </trkpt>
      <trkpt lat="48.10648" lon="1.34757">
        <ele>139</ele>
        <time>2018-10-09T12:35:38.097Z</time>
      </trkpt>
      <trkpt lat="48.10648" lon="1.34755">
        <ele>139</ele>
        <time>2018-10-09T12:35:39.097Z</time>
      </trkpt>
      <trkpt lat="48.10649" lon="1.34754">
        <ele>139</ele>
        <time>2018-10-09T12:35:40.097Z</time>
      </trkpt>
      <trkpt lat="48.10649" lon="1.34752">
        <ele>139</ele>
        <time>2018-10-09T12:35:41.097Z</time>
      </trkpt>
      <trkpt lat="48.1065" lon="1.3475">
        <ele>139</ele>
        <time>2018-10-09T12:35:42.097Z</time>
      </trkpt>
      <trkpt lat="48.1065" lon="1.34748">
        <ele>138</ele>
        <time>2018-10-09T12:35:43.097Z</time>
      </trkpt>
      <trkpt lat="48.10651" lon="1.34747">
        <ele>139</ele>
        <time>2018-10-09T12:35:44.097Z</time>
      </trkpt>
      <trkpt lat="48.10651" lon="1.34745">
        <ele>139</ele>
        <time>2018-10-09T12:35:45.097Z</time>
      </trkpt>
      <trkpt lat="48.10652" lon="1.34743">
        <ele>139</ele>
        <time>2018-10-09T12:35:46.097Z</time>
      </trkpt>
      <trkpt lat="48.10652" lon="1.34741">
        <ele>139</ele>
        <time>2018-10-09T12:35:47.097Z</time>
      </trkpt>
      <trkpt lat="48.10653" lon="1.34739">
        <ele>139</ele>
        <time>2018-10-09T12:35:48.097Z</time>
      </trkpt>
      <trkpt lat="48.10653" lon="1.34737">
        <ele>139</ele>
        <time>2018-10-09T12:35:49.097Z</time>
      </trkpt>
      <trkpt lat="48.10654" lon="1.34736">
        <ele>139</ele>
        <time>2018-10-09T12:35:50.097Z</time>
      </trkpt>
      <trkpt lat="48.10654" lon="1.34734">
        <ele>139</ele>
        <time>2018-10-09T12:35:51.097Z</time>
      </trkpt>
      <trkpt lat="48.10655" lon="1.34732">
        <ele>139</ele>
        <time>2018-10-09T12:35:52.097Z</time>
      </trkpt>
      <trkpt lat="48.10655" lon="1.34731">
        <ele>139</ele>
        <time>2018-10-09T12:35:53.097Z</time>
      </trkpt>
      <trkpt lat="48.10656" lon="1.34729">
        <ele>140</ele>
        <time>2018-10-09T12:35:54.097Z</time>
      </trkpt>
      <trkpt lat="48.10657" lon="1.34727">
        <ele>140</ele>
        <time>2018-10-09T12:35:55.097Z</time>
      </trkpt>
      <trkpt lat="48.10657" lon="1.34725">
        <ele>140</ele>
        <time>2018-10-09T12:35:56.097Z</time>
      </trkpt>
      <trkpt lat="48.10658" lon="1.34724">
        <ele>140</ele>
        <time>2018-10-09T12:35:57.097Z</time>
      </trkpt>
      <trkpt lat="48.10658" lon="1.34722">
        <ele>140</ele>
        <time>2018-10-09T12:35:58.097Z</time>
      </trkpt>
      <trkpt lat="48.10659" lon="1.34721">
        <ele>140</ele>
        <time>2018-10-09T12:35:59.097Z</time>
      </trkpt>
      <trkpt lat="48.10659" lon="1.34719">
        <ele>140</ele>
        <time>2018-10-09T12:36:00.097Z</time>
      </trkpt>
      <trkpt lat="48.1066" lon="1.34717">
        <ele>140</ele>
        <time>2018-10-09T12:36:01.097Z</time>
      </trkpt>
      <trkpt lat="48.10661" lon="1.34716">
        <ele>140</ele>
        <time>2018-10-09T12:36:02.097Z</time>
      </trkpt>
      <trkpt lat="48.10661" lon="1.34714">
        <ele>140</ele>
        <time>2018-10-09T12:36:03.097Z</time>
      </trkpt>
      <trkpt lat="48.10662" lon="1.34712">
        <ele>140</ele>
        <time>2018-10-09T12:36:04.097Z</time>
      </trkpt>
      <trkpt lat="48.10662" lon="1.3471">
        <ele>140</ele>
        <time>2018-10-09T12:36:05.097Z</time>
      </trkpt>
      <trkpt lat="48.10663" lon="1.34709">
        <ele>140</ele>
        <time>2018-10-09T12:36:06.097Z</time>
      </trkpt>
      <trkpt lat="48.10663" lon="1.34707">
        <ele>140</ele>
        <time>2018-10-09T12:36:07.097Z</time>
      </trkpt>
      <trkpt lat="48.10664" lon="1.34706">
        <ele>140</ele>
        <time>2018-10-09T12:36:08.097Z</time>
      </trkpt>
      <trkpt lat="48.10665" lon="1.34704">
        <ele>140</ele>
        <time>2018-10-09T12:36:09.097Z</time>
      </trkpt>
      <trkpt lat="48.10665" lon="1.34703">
        <ele>140</ele>
        <time>2018-10-09T12:36:10.097Z</time>
      </trkpt>
      <trkpt lat="48.10666" lon="1.34701">
        <ele>140</ele>
        <time>2018-10-09T12:36:11.097Z</time>
      </trkpt>
      <trkpt lat="48.10667" lon="1.34699">
        <ele>140</ele>
        <time>2018-10-09T12:36:12.097Z</time>
      </trkpt>
      <trkpt lat="48.10667" lon="1.34698">
        <ele>140</ele>
        <time>2018-10-09T12:36:13.097Z</time>
      </trkpt>
      <trkpt lat="48.10668" lon="1.34696">
        <ele>140</ele>
        <time>2018-10-09T12:36:14.097Z</time>
      </trkpt>
      <trkpt lat="48.10669" lon="1.34694">
        <ele>140</ele>
        <time>2018-10-09T12:36:15.097Z</time>
      </trkpt>
      <trkpt lat="48.10669" lon="1.34693">
        <ele>140</ele>
        <time>2018-10-09T12:36:16.097Z</time>
      </trkpt>
      <trkpt lat="48.1067" lon="1.34691">
        <ele>140</ele>
        <time>2018-10-09T12:36:17.097Z</time>
      </trkpt>
      <trkpt lat="48.10671" lon="1.3469">
        <ele>140</ele>
        <time>2018-10-09T12:36:18.097Z</time>
      </trkpt>
      <trkpt lat="48.10671" lon="1.34688">
        <ele>140</ele>
        <time>2018-10-09T12:36:19.097Z</time>
      </trkpt>
      <trkpt lat="48.10672" lon="1.34687">
        <ele>140</ele>
        <time>2018-10-09T12:36:20.097Z</time>
      </trkpt>
      <trkpt lat="48.10673" lon="1.34685">
        <ele>140</ele>
        <time>2018-10-09T12:36:21.097Z</time>
      </trkpt>
      <trkpt lat="48.10674" lon="1.34684">
        <ele>140</ele>
        <time>2018-10-09T12:36:22.097Z</time>
      </trkpt>
      <trkpt lat="48.10675" lon="1.34682">
        <ele>140</ele>
        <time>2018-10-09T12:36:23.097Z</time>
      </trkpt>
      <trkpt lat="48.10675" lon="1.34681">
        <ele>140</ele>
        <time>2018-10-09T12:36:24.097Z</time>
      </trkpt>
      <trkpt lat="48.10676" lon="1.34679">
        <ele>140</ele>
        <time>2018-10-09T12:36:25.097Z</time>
      </trkpt>
      <trkpt lat="48.10677" lon="1.34678">
        <ele>140</ele>
        <time>2018-10-09T12:36:26.097Z</time>
      </trkpt>
      <trkpt lat="48.10678" lon="1.34676">
        <ele>140</ele>
        <time>2018-10-09T12:36:27.097Z</time>
      </trkpt>
      <trkpt lat="48.10678" lon="1.34675">
        <ele>140</ele>
        <time>2018-10-09T12:36:28.097Z</time>
      </trkpt>
      <trkpt lat="48.10679" lon="1.34673">
        <ele>140</ele>
        <time>2018-10-09T12:36:29.097Z</time>
      </trkpt>
      <trkpt lat="48.1068" lon="1.34672">
        <ele>140</ele>
        <time>2018-10-09T12:36:30.097Z</time>
      </trkpt>
      <trkpt lat="48.10681" lon="1.34671">
        <ele>140</ele>
        <time>2018-10-09T12:36:31.097Z</time>
      </trkpt>
      <trkpt lat="48.10682" lon="1.34669">
        <ele>140</ele>
        <time>2018-10-09T12:36:32.097Z</time>
      </trkpt>
      <trkpt lat="48.10682" lon="1.34668">
        <ele>140</ele>
        <time>2018-10-09T12:36:33.097Z</time>
      </trkpt>
      <trkpt lat="48.10683" lon="1.34666">
        <ele>140</ele>
        <time>2018-10-09T12:36:34.097Z</time>
      </trkpt>
      <trkpt lat="48.10684" lon="1.34665">
        <ele>139</ele>
        <time>2018-10-09T12:36:35.097Z</time>
      </trkpt>
      <trkpt lat="48.10685" lon="1.34663">
        <ele>139</ele>
        <time>2018-10-09T12:36:36.097Z</time>
      </trkpt>
      <trkpt lat="48.10685" lon="1.34662">
        <ele>139</ele>
        <time>2018-10-09T12:36:37.097Z</time>
      </trkpt>
      <trkpt lat="48.10686" lon="1.3466">
        <ele>139</ele>
        <time>2018-10-09T12:36:38.097Z</time>
      </trkpt>
      <trkpt lat="48.10687" lon="1.34659">
        <ele>139</ele>
        <time>2018-10-09T12:36:39.097Z</time>
      </trkpt>
      <trkpt lat="48.10688" lon="1.34657">
        <ele>139</ele>
        <time>2018-10-09T12:36:40.097Z</time>
      </trkpt>
      <trkpt lat="48.10689" lon="1.34656">
        <ele>139</ele>
        <time>2018-10-09T12:36:41.097Z</time>
      </trkpt>
      <trkpt lat="48.10689" lon="1.34655">
        <ele>139</ele>
        <time>2018-10-09T12:36:42.097Z</time>
      </trkpt>
      <trkpt lat="48.1069" lon="1.34653">
        <ele>139</ele>
        <time>2018-10-09T12:36:43.097Z</time>
      </trkpt>
      <trkpt lat="48.10691" lon="1.34651">
        <ele>139</ele>
        <time>2018-10-09T12:36:44.097Z</time>
      </trkpt>
      <trkpt lat="48.10692" lon="1.3465">
        <ele>139</ele>
        <time>2018-10-09T12:36:45.097Z</time>
      </trkpt>
      <trkpt lat="48.10692" lon="1.34648">
        <ele>139</ele>
        <time>2018-10-09T12:36:46.097Z</time>
      </trkpt>
      <trkpt lat="48.10693" lon="1.34647">
        <ele>139</ele>
        <time>2018-10-09T12:36:47.097Z</time>
      </trkpt>
      <trkpt lat="48.10694" lon="1.34645">
        <ele>139</ele>
        <time>2018-10-09T12:36:48.097Z</time>
      </trkpt>
      <trkpt lat="48.10694" lon="1.34644">
        <ele>139</ele>
        <time>2018-10-09T12:36:49.097Z</time>
      </trkpt>
      <trkpt lat="48.10695" lon="1.34642">
        <ele>139</ele>
        <time>2018-10-09T12:36:50.097Z</time>
      </trkpt>
      <trkpt lat="48.10696" lon="1.3464">
        <ele>139</ele>
        <time>2018-10-09T12:36:51.097Z</time>
      </trkpt>
      <trkpt lat="48.10696" lon="1.34639">
        <ele>139</ele>
        <time>2018-10-09T12:36:52.097Z</time>
      </trkpt>
      <trkpt lat="48.10697" lon="1.34637">
        <ele>139</ele>
        <time>2018-10-09T12:36:53.097Z</time>
      </trkpt>
      <trkpt lat="48.10698" lon="1.34636">
        <ele>140</ele>
        <time>2018-10-09T12:36:54.097Z</time>
      </trkpt>
      <trkpt lat="48.10698" lon="1.34634">
        <ele>140</ele>
        <time>2018-10-09T12:36:55.097Z</time>
      </trkpt>
      <trkpt lat="48.10699" lon="1.34633">
        <ele>140</ele>
        <time>2018-10-09T12:36:56.097Z</time>
      </trkpt>
      <trkpt lat="48.107" lon="1.34631">
        <ele>140</ele>
        <time>2018-10-09T12:36:57.097Z</time>
      </trkpt>
      <trkpt lat="48.107" lon="1.3463">
        <ele>140</ele>
        <time>2018-10-09T12:36:58.097Z</time>
      </trkpt>
      <trkpt lat="48.10701" lon="1.34628">
        <ele>140</ele>
        <time>2018-10-09T12:36:59.097Z</time>
      </trkpt>
      <trkpt lat="48.10702" lon="1.34626">
        <ele>140</ele>
        <time>2018-10-09T12:37:00.097Z</time>
      </trkpt>
      <trkpt lat="48.10702" lon="1.34624">
        <ele>140</ele>
        <time>2018-10-09T12:37:01.097Z</time>
      </trkpt>
      <trkpt lat="48.10703" lon="1.34623">
        <ele>140</ele>
        <time>2018-10-09T12:37:02.097Z</time>
      </trkpt>
      <trkpt lat="48.10704" lon="1.34621">
        <ele>140</ele>
        <time>2018-10-09T12:37:03.097Z</time>
      </trkpt>
      <trkpt lat="48.10704" lon="1.34619">
        <ele>140</ele>
        <time>2018-10-09T12:37:04.097Z</time>
      </trkpt>
      <trkpt lat="48.10705" lon="1.34618">
        <ele>140</ele>
        <time>2018-10-09T12:37:05.097Z</time>
      </trkpt>
      <trkpt lat="48.10706" lon="1.34616">
        <ele>140</ele>
        <time>2018-10-09T12:37:06.097Z</time>
      </trkpt>
      <trkpt lat="48.10706" lon="1.34614">
        <ele>140</ele>
        <time>2018-10-09T12:37:07.097Z</time>
      </trkpt>
      <trkpt lat="48.10707" lon="1.34612">
        <ele>140</ele>
        <time>2018-10-09T12:37:08.097Z</time>
      </trkpt>
      <trkpt lat="48.10708" lon="1.34611">
        <ele>140</ele>
        <time>2018-10-09T12:37:09.097Z</time>
      </trkpt>
      <trkpt lat="48.10708" lon="1.34609">
        <ele>140</ele>
        <time>2018-10-09T12:37:10.097Z</time>
      </trkpt>
      <trkpt lat="48.10709" lon="1.34607">
        <ele>140</ele>
        <time>2018-10-09T12:37:11.097Z</time>
      </trkpt>
      <trkpt lat="48.1071" lon="1.34606">
        <ele>140</ele>
        <time>2018-10-09T12:37:12.097Z</time>
      </trkpt>
      <trkpt lat="48.1071" lon="1.34604">
        <ele>140</ele>
        <time>2018-10-09T12:37:13.097Z</time>
      </trkpt>
      <trkpt lat="48.10711" lon="1.34602">
        <ele>140</ele>
        <time>2018-10-09T12:37:14.097Z</time>
      </trkpt>
      <trkpt lat="48.10711" lon="1.346">
        <ele>140</ele>
        <time>2018-10-09T12:37:15.097Z</time>
      </trkpt>
      <trkpt lat="48.10712" lon="1.34598">
        <ele>140</ele>
        <time>2018-10-09T12:37:16.097Z</time>
      </trkpt>
      <trkpt lat="48.10713" lon="1.34597">
        <ele>140</ele>
        <time>2018-10-09T12:37:17.097Z</time>
      </trkpt>
      <trkpt lat="48.10713" lon="1.34595">
        <ele>140</ele>
        <time>2018-10-09T12:37:18.097Z</time>
      </trkpt>
      <trkpt lat="48.10714" lon="1.34593">
        <ele>140</ele>
        <time>2018-10-09T12:37:19.097Z</time>
      </trkpt>
      <trkpt lat="48.10714" lon="1.34591">
        <ele>140</ele>
        <time>2018-10-09T12:37:20.097Z</time>
      </trkpt>
      <trkpt lat="48.10715" lon="1.34589">
        <ele>140</ele>
        <time>2018-10-09T12:37:21.097Z</time>
      </trkpt>
      <trkpt lat="48.10715" lon="1.34588">
        <ele>140</ele>
        <time>2018-10-09T12:37:22.097Z</time>
      </trkpt>
      <trkpt lat="48.10716" lon="1.34586">
        <ele>140</ele>
        <time>2018-10-09T12:37:23.097Z</time>
      </trkpt>
      <trkpt lat="48.10717" lon="1.34584">
        <ele>140</ele>
        <time>2018-10-09T12:37:24.097Z</time>
      </trkpt>
      <trkpt lat="48.10717" lon="1.34582">
        <ele>140</ele>
        <time>2018-10-09T12:37:25.097Z</time>
      </trkpt>
      <trkpt lat="48.10718" lon="1.34581">
        <ele>140</ele>
        <time>2018-10-09T12:37:26.097Z</time>
      </trkpt>
      <trkpt lat="48.10718" lon="1.34579">
        <ele>140</ele>
        <time>2018-10-09T12:37:27.097Z</time>
      </trkpt>
      <trkpt lat="48.10719" lon="1.34577">
        <ele>140</ele>
        <time>2018-10-09T12:37:28.097Z</time>
      </trkpt>
      <trkpt lat="48.10719" lon="1.34575">
        <ele>140</ele>
        <time>2018-10-09T12:37:29.097Z</time>
      </trkpt>
      <trkpt lat="48.1072" lon="1.34574">
        <ele>140</ele>
        <time>2018-10-09T12:37:30.097Z</time>
      </trkpt>
      <trkpt lat="48.10721" lon="1.34572">
        <ele>140</ele>
        <time>2018-10-09T12:37:31.097Z</time>
      </trkpt>
      <trkpt lat="48.10721" lon="1.3457">
        <ele>140</ele>
        <time>2018-10-09T12:37:32.097Z</time>
      </trkpt>
      <trkpt lat="48.10722" lon="1.34568">
        <ele>140</ele>
        <time>2018-10-09T12:37:33.097Z</time>
      </trkpt>
      <trkpt lat="48.10722" lon="1.34567">
        <ele>140</ele>
        <time>2018-10-09T12:37:34.097Z</time>
      </trkpt>
      <trkpt lat="48.10723" lon="1.34565">
        <ele>140</ele>
        <time>2018-10-09T12:37:35.097Z</time>
      </trkpt>
      <trkpt lat="48.10723" lon="1.34563">
        <ele>140</ele>
        <time>2018-10-09T12:37:36.097Z</time>
      </trkpt>
      <trkpt lat="48.10724" lon="1.34561">
        <ele>140</ele>
        <time>2018-10-09T12:37:37.097Z</time>
      </trkpt>
      <trkpt lat="48.10725" lon="1.3456">
        <ele>140</ele>
        <time>2018-10-09T12:37:38.097Z</time>
      </trkpt>
      <trkpt lat="48.10725" lon="1.34558">
        <ele>140</ele>
        <time>2018-10-09T12:37:39.097Z</time>
      </trkpt>
      <trkpt lat="48.10726" lon="1.34556">
        <ele>139</ele>
        <time>2018-10-09T12:37:40.097Z</time>
      </trkpt>
      <trkpt lat="48.10726" lon="1.34555">
        <ele>139</ele>
        <time>2018-10-09T12:37:41.097Z</time>
      </trkpt>
      <trkpt lat="48.10727" lon="1.34553">
        <ele>139</ele>
        <time>2018-10-09T12:37:42.097Z</time>
      </trkpt>
      <trkpt lat="48.10728" lon="1.34552">
        <ele>139</ele>
        <time>2018-10-09T12:37:43.097Z</time>
      </trkpt>
      <trkpt lat="48.10728" lon="1.3455">
        <ele>139</ele>
        <time>2018-10-09T12:37:44.097Z</time>
      </trkpt>
      <trkpt lat="48.10729" lon="1.34549">
        <ele>139</ele>
        <time>2018-10-09T12:37:45.097Z</time>
      </trkpt>
      <trkpt lat="48.1073" lon="1.34547">
        <ele>139</ele>
        <time>2018-10-09T12:37:46.097Z</time>
      </trkpt>
      <trkpt lat="48.10731" lon="1.34546">
        <ele>139</ele>
        <time>2018-10-09T12:37:47.097Z</time>
      </trkpt>
      <trkpt lat="48.10731" lon="1.34544">
        <ele>139</ele>
        <time>2018-10-09T12:37:48.097Z</time>
      </trkpt>
      <trkpt lat="48.10732" lon="1.34543">
        <ele>139</ele>
        <time>2018-10-09T12:37:49.097Z</time>
      </trkpt>
      <trkpt lat="48.10733" lon="1.34541">
        <ele>139</ele>
        <time>2018-10-09T12:37:50.097Z</time>
      </trkpt>
      <trkpt lat="48.10734" lon="1.3454">
        <ele>139</ele>
        <time>2018-10-09T12:37:51.097Z</time>
      </trkpt>
      <trkpt lat="48.10734" lon="1.34539">
        <ele>139</ele>
        <time>2018-10-09T12:37:52.097Z</time>
      </trkpt>
      <trkpt lat="48.10735" lon="1.34538">
        <ele>139</ele>
        <time>2018-10-09T12:37:53.097Z</time>
      </trkpt>
      <trkpt lat="48.10735" lon="1.34536">
        <ele>139</ele>
        <time>2018-10-09T12:37:54.097Z</time>
      </trkpt>
      <trkpt lat="48.10736" lon="1.34534">
        <ele>139</ele>
        <time>2018-10-09T12:37:55.097Z</time>
      </trkpt>
      <trkpt lat="48.10737" lon="1.34533">
        <ele>140</ele>
        <time>2018-10-09T12:37:56.097Z</time>
      </trkpt>
      <trkpt lat="48.10737" lon="1.34531">
        <ele>140</ele>
        <time>2018-10-09T12:37:57.097Z</time>
      </trkpt>
      <trkpt lat="48.10738" lon="1.34529">
        <ele>139</ele>
        <time>2018-10-09T12:37:58.097Z</time>
      </trkpt>
      <trkpt lat="48.10739" lon="1.34528">
        <ele>139</ele>
        <time>2018-10-09T12:37:59.097Z</time>
      </trkpt>
      <trkpt lat="48.10739" lon="1.34526">
        <ele>139</ele>
        <time>2018-10-09T12:38:00.097Z</time>
      </trkpt>
      <trkpt lat="48.1074" lon="1.34524">
        <ele>139</ele>
        <time>2018-10-09T12:38:01.097Z</time>
      </trkpt>
      <trkpt lat="48.10741" lon="1.34523">
        <ele>139</ele>
        <time>2018-10-09T12:38:02.097Z</time>
      </trkpt>
      <trkpt lat="48.10741" lon="1.34521">
        <ele>139</ele>
        <time>2018-10-09T12:38:03.097Z</time>
      </trkpt>
      <trkpt lat="48.10742" lon="1.3452">
        <ele>139</ele>
        <time>2018-10-09T12:38:04.097Z</time>
      </trkpt>
      <trkpt lat="48.10742" lon="1.34518">
        <ele>139</ele>
        <time>2018-10-09T12:38:05.097Z</time>
      </trkpt>
      <trkpt lat="48.10743" lon="1.34516">
        <ele>139</ele>
        <time>2018-10-09T12:38:06.097Z</time>
      </trkpt>
      <trkpt lat="48.10743" lon="1.34514">
        <ele>139</ele>
        <time>2018-10-09T12:38:07.097Z</time>
      </trkpt>
      <trkpt lat="48.10744" lon="1.34513">
        <ele>139</ele>
        <time>2018-10-09T12:38:08.097Z</time>
      </trkpt>
      <trkpt lat="48.10745" lon="1.34511">
        <ele>139</ele>
        <time>2018-10-09T12:38:09.097Z</time>
      </trkpt>
      <trkpt lat="48.10745" lon="1.34509">
        <ele>139</ele>
        <time>2018-10-09T12:38:10.097Z</time>
      </trkpt>
      <trkpt lat="48.10746" lon="1.34507">
        <ele>139</ele>
        <time>2018-10-09T12:38:11.097Z</time>
      </trkpt>
      <trkpt lat="48.10746" lon="1.34505">
        <ele>139</ele>
        <time>2018-10-09T12:38:12.097Z</time>
      </trkpt>
      <trkpt lat="48.10746" lon="1.34503">
        <ele>139</ele>
        <time>2018-10-09T12:38:13.097Z</time>
      </trkpt>
      <trkpt lat="48.10747" lon="1.34501">
        <ele>139</ele>
        <time>2018-10-09T12:38:14.097Z</time>
      </trkpt>
      <trkpt lat="48.10747" lon="1.345">
        <ele>139</ele>
        <time>2018-10-09T12:38:15.097Z</time>
      </trkpt>
      <trkpt lat="48.10747" lon="1.34498">
        <ele>139</ele>
        <time>2018-10-09T12:38:16.097Z</time>
      </trkpt>
      <trkpt lat="48.10748" lon="1.34496">
        <ele>138</ele>
        <time>2018-10-09T12:38:17.097Z</time>
      </trkpt>
      <trkpt lat="48.10748" lon="1.34495">
        <ele>138</ele>
        <time>2018-10-09T12:38:18.097Z</time>
      </trkpt>
      <trkpt lat="48.10748" lon="1.34493">
        <ele>138</ele>
        <time>2018-10-09T12:38:19.097Z</time>
      </trkpt>
      <trkpt lat="48.10749" lon="1.34491">
        <ele>138</ele>
        <time>2018-10-09T12:38:20.097Z</time>
      </trkpt>
      <trkpt lat="48.10749" lon="1.3449">
        <ele>137</ele>
        <time>2018-10-09T12:38:21.097Z</time>
      </trkpt>
      <trkpt lat="48.1075" lon="1.34488">
        <ele>137</ele>
        <time>2018-10-09T12:38:22.097Z</time>
      </trkpt>
      <trkpt lat="48.1075" lon="1.34486">
        <ele>137</ele>
        <time>2018-10-09T12:38:23.097Z</time>
      </trkpt>
      <trkpt lat="48.10751" lon="1.34485">
        <ele>137</ele>
        <time>2018-10-09T12:38:24.097Z</time>
      </trkpt>
      <trkpt lat="48.10751" lon="1.34483">
        <ele>137</ele>
        <time>2018-10-09T12:38:25.097Z</time>
      </trkpt>
      <trkpt lat="48.10752" lon="1.34481">
        <ele>136</ele>
        <time>2018-10-09T12:38:26.097Z</time>
      </trkpt>
      <trkpt lat="48.10753" lon="1.3448">
        <ele>137</ele>
        <time>2018-10-09T12:38:27.097Z</time>
      </trkpt>
      <trkpt lat="48.10753" lon="1.34478">
        <ele>137</ele>
        <time>2018-10-09T12:38:28.097Z</time>
      </trkpt>
      <trkpt lat="48.10754" lon="1.34476">
        <ele>137</ele>
        <time>2018-10-09T12:38:29.097Z</time>
      </trkpt>
      <trkpt lat="48.10755" lon="1.34474">
        <ele>137</ele>
        <time>2018-10-09T12:38:30.097Z</time>
      </trkpt>
      <trkpt lat="48.10755" lon="1.34472">
        <ele>137</ele>
        <time>2018-10-09T12:38:31.097Z</time>
      </trkpt>
      <trkpt lat="48.10756" lon="1.3447">
        <ele>137</ele>
        <time>2018-10-09T12:38:32.097Z</time>
      </trkpt>
      <trkpt lat="48.10757" lon="1.34468">
        <ele>137</ele>
        <time>2018-10-09T12:38:33.097Z</time>
      </trkpt>
      <trkpt lat="48.10757" lon="1.34466">
        <ele>137</ele>
        <time>2018-10-09T12:38:34.097Z</time>
      </trkpt>
      <trkpt lat="48.10758" lon="1.34464">
        <ele>137</ele>
        <time>2018-10-09T12:38:35.097Z</time>
      </trkpt>
      <trkpt lat="48.10758" lon="1.34463">
        <ele>137</ele>
        <time>2018-10-09T12:38:36.097Z</time>
      </trkpt>
      <trkpt lat="48.10759" lon="1.34461">
        <ele>137</ele>
        <time>2018-10-09T12:38:37.097Z</time>
      </trkpt>
      <trkpt lat="48.10759" lon="1.34459">
        <ele>137</ele>
        <time>2018-10-09T12:38:38.097Z</time>
      </trkpt>
      <trkpt lat="48.1076" lon="1.34457">
        <ele>137</ele>
        <time>2018-10-09T12:38:39.097Z</time>
      </trkpt>
      <trkpt lat="48.1076" lon="1.34455">
        <ele>137</ele>
        <time>2018-10-09T12:38:40.097Z</time>
      </trkpt>
      <trkpt lat="48.10761" lon="1.34453">
        <ele>137</ele>
        <time>2018-10-09T12:38:41.097Z</time>
      </trkpt>
      <trkpt lat="48.10762" lon="1.34451">
        <ele>137</ele>
        <time>2018-10-09T12:38:42.097Z</time>
      </trkpt>
      <trkpt lat="48.10762" lon="1.34449">
        <ele>137</ele>
        <time>2018-10-09T12:38:43.097Z</time>
      </trkpt>
      <trkpt lat="48.10762" lon="1.34447">
        <ele>138</ele>
        <time>2018-10-09T12:38:44.097Z</time>
      </trkpt>
      <trkpt lat="48.10763" lon="1.34445">
        <ele>137</ele>
        <time>2018-10-09T12:38:45.097Z</time>
      </trkpt>
      <trkpt lat="48.10763" lon="1.34443">
        <ele>137</ele>
        <time>2018-10-09T12:38:46.097Z</time>
      </trkpt>
      <trkpt lat="48.10764" lon="1.34441">
        <ele>137</ele>
        <time>2018-10-09T12:38:47.097Z</time>
      </trkpt>
      <trkpt lat="48.10764" lon="1.34439">
        <ele>137</ele>
        <time>2018-10-09T12:38:48.097Z</time>
      </trkpt>
      <trkpt lat="48.10765" lon="1.34437">
        <ele>137</ele>
        <time>2018-10-09T12:38:49.097Z</time>
      </trkpt>
      <trkpt lat="48.10765" lon="1.34435">
        <ele>137</ele>
        <time>2018-10-09T12:38:50.097Z</time>
      </trkpt>
      <trkpt lat="48.10765" lon="1.34433">
        <ele>137</ele>
        <time>2018-10-09T12:38:51.097Z</time>
      </trkpt>
      <trkpt lat="48.10766" lon="1.34431">
        <ele>137</ele>
        <time>2018-10-09T12:38:52.097Z</time>
      </trkpt>
      <trkpt lat="48.10766" lon="1.34429">
        <ele>137</ele>
        <time>2018-10-09T12:38:53.097Z</time>
      </trkpt>
      <trkpt lat="48.10767" lon="1.34427">
        <ele>137</ele>
        <time>2018-10-09T12:38:54.097Z</time>
      </trkpt>
      <trkpt lat="48.10767" lon="1.34425">
        <ele>137</ele>
        <time>2018-10-09T12:38:55.097Z</time>
      </trkpt>
      <trkpt lat="48.10768" lon="1.34423">
        <ele>137</ele>
        <time>2018-10-09T12:38:56.097Z</time>
      </trkpt>
      <trkpt lat="48.10769" lon="1.34421">
        <ele>137</ele>
        <time>2018-10-09T12:38:57.097Z</time>
      </trkpt>
      <trkpt lat="48.10769" lon="1.34419">
        <ele>137</ele>
        <time>2018-10-09T12:38:58.097Z</time>
      </trkpt>
      <trkpt lat="48.1077" lon="1.34417">
        <ele>137</ele>
        <time>2018-10-09T12:38:59.097Z</time>
      </trkpt>
      <trkpt lat="48.1077" lon="1.34416">
        <ele>137</ele>
        <time>2018-10-09T12:39:00.097Z</time>
      </trkpt>
      <trkpt lat="48.10771" lon="1.34414">
        <ele>137</ele>
        <time>2018-10-09T12:39:01.097Z</time>
      </trkpt>
      <trkpt lat="48.10771" lon="1.34412">
        <ele>137</ele>
        <time>2018-10-09T12:39:02.097Z</time>
      </trkpt>
      <trkpt lat="48.10772" lon="1.3441">
        <ele>137</ele>
        <time>2018-10-09T12:39:03.097Z</time>
      </trkpt>
      <trkpt lat="48.10772" lon="1.34408">
        <ele>138</ele>
        <time>2018-10-09T12:39:04.097Z</time>
      </trkpt>
      <trkpt lat="48.10773" lon="1.34406">
        <ele>137</ele>
        <time>2018-10-09T12:39:05.097Z</time>
      </trkpt>
      <trkpt lat="48.10773" lon="1.34404">
        <ele>137</ele>
        <time>2018-10-09T12:39:06.097Z</time>
      </trkpt>
      <trkpt lat="48.10774" lon="1.34402">
        <ele>137</ele>
        <time>2018-10-09T12:39:07.097Z</time>
      </trkpt>
      <trkpt lat="48.10774" lon="1.344">
        <ele>137</ele>
        <time>2018-10-09T12:39:08.097Z</time>
      </trkpt>
      <trkpt lat="48.10774" lon="1.34398">
        <ele>137</ele>
        <time>2018-10-09T12:39:09.097Z</time>
      </trkpt>
      <trkpt lat="48.10775" lon="1.34396">
        <ele>137</ele>
        <time>2018-10-09T12:39:10.097Z</time>
      </trkpt>
      <trkpt lat="48.10775" lon="1.34394">
        <ele>137</ele>
        <time>2018-10-09T12:39:11.097Z</time>
      </trkpt>
      <trkpt lat="48.10776" lon="1.34392">
        <ele>137</ele>
        <time>2018-10-09T12:39:12.097Z</time>
      </trkpt>
      <trkpt lat="48.10776" lon="1.3439">
        <ele>137</ele>
        <time>2018-10-09T12:39:13.097Z</time>
      </trkpt>
      <trkpt lat="48.10777" lon="1.34388">
        <ele>137</ele>
        <time>2018-10-09T12:39:14.097Z</time>
      </trkpt>
      <trkpt lat="48.10777" lon="1.34386">
        <ele>137</ele>
        <time>2018-10-09T12:39:15.097Z</time>
      </trkpt>
      <trkpt lat="48.10778" lon="1.34384">
        <ele>137</ele>
        <time>2018-10-09T12:39:16.097Z</time>
      </trkpt>
      <trkpt lat="48.10778" lon="1.34382">
        <ele>137</ele>
        <time>2018-10-09T12:39:17.097Z</time>
      </trkpt>
      <trkpt lat="48.10778" lon="1.3438">
        <ele>137</ele>
        <time>2018-10-09T12:39:18.097Z</time>
      </trkpt>
      <trkpt lat="48.10779" lon="1.34378">
        <ele>137</ele>
        <time>2018-10-09T12:39:19.097Z</time>
      </trkpt>
      <trkpt lat="48.10779" lon="1.34376">
        <ele>137</ele>
        <time>2018-10-09T12:39:20.097Z</time>
      </trkpt>
      <trkpt lat="48.1078" lon="1.34374">
        <ele>137</ele>
        <time>2018-10-09T12:39:21.097Z</time>
      </trkpt>
      <trkpt lat="48.1078" lon="1.34372">
        <ele>137</ele>
        <time>2018-10-09T12:39:22.097Z</time>
      </trkpt>
      <trkpt lat="48.10781" lon="1.3437">
        <ele>137</ele>
        <time>2018-10-09T12:39:23.097Z</time>
      </trkpt>
      <trkpt lat="48.10781" lon="1.34368">
        <ele>137</ele>
        <time>2018-10-09T12:39:24.097Z</time>
      </trkpt>
      <trkpt lat="48.10782" lon="1.34366">
        <ele>137</ele>
        <time>2018-10-09T12:39:25.097Z</time>
      </trkpt>
      <trkpt lat="48.10782" lon="1.34364">
        <ele>137</ele>
        <time>2018-10-09T12:39:26.097Z</time>
      </trkpt>
      <trkpt lat="48.10782" lon="1.34362">
        <ele>137</ele>
        <time>2018-10-09T12:39:27.097Z</time>
      </trkpt>
      <trkpt lat="48.10783" lon="1.34361">
        <ele>137</ele>
        <time>2018-10-09T12:39:28.097Z</time>
      </trkpt>
      <trkpt lat="48.10783" lon="1.34359">
        <ele>137</ele>
        <time>2018-10-09T12:39:29.097Z</time>
      </trkpt>
      <trkpt lat="48.10784" lon="1.34357">
        <ele>137</ele>
        <time>2018-10-09T12:39:30.097Z</time>
      </trkpt>
      <trkpt lat="48.10784" lon="1.34355">
        <ele>137</ele>
        <time>2018-10-09T12:39:31.097Z</time>
      </trkpt>
      <trkpt lat="48.10785" lon="1.34353">
        <ele>137</ele>
        <time>2018-10-09T12:39:32.097Z</time>
      </trkpt>
      <trkpt lat="48.10785" lon="1.34351">
        <ele>136</ele>
        <time>2018-10-09T12:39:33.097Z</time>
      </trkpt>
      <trkpt lat="48.10786" lon="1.34349">
        <ele>136</ele>
        <time>2018-10-09T12:39:34.097Z</time>
      </trkpt>
      <trkpt lat="48.10786" lon="1.34347">
        <ele>136</ele>
        <time>2018-10-09T12:39:35.097Z</time>
      </trkpt>
      <trkpt lat="48.10787" lon="1.34346">
        <ele>136</ele>
        <time>2018-10-09T12:39:36.097Z</time>
      </trkpt>
      <trkpt lat="48.10787" lon="1.34344">
        <ele>136</ele>
        <time>2018-10-09T12:39:37.097Z</time>
      </trkpt>
      <trkpt lat="48.10788" lon="1.34342">
        <ele>136</ele>
        <time>2018-10-09T12:39:38.097Z</time>
      </trkpt>
      <trkpt lat="48.10788" lon="1.3434">
        <ele>136</ele>
        <time>2018-10-09T12:39:39.097Z</time>
      </trkpt>
      <trkpt lat="48.10789" lon="1.34338">
        <ele>136</ele>
        <time>2018-10-09T12:39:40.097Z</time>
      </trkpt>
      <trkpt lat="48.10789" lon="1.34336">
        <ele>136</ele>
        <time>2018-10-09T12:39:41.097Z</time>
      </trkpt>
      <trkpt lat="48.1079" lon="1.34334">
        <ele>136</ele>
        <time>2018-10-09T12:39:42.097Z</time>
      </trkpt>
      <trkpt lat="48.1079" lon="1.34332">
        <ele>136</ele>
        <time>2018-10-09T12:39:43.097Z</time>
      </trkpt>
      <trkpt lat="48.1079" lon="1.34331">
        <ele>136</ele>
        <time>2018-10-09T12:39:44.097Z</time>
      </trkpt>
      <trkpt lat="48.10791" lon="1.34329">
        <ele>136</ele>
        <time>2018-10-09T12:39:45.097Z</time>
      </trkpt>
      <trkpt lat="48.10791" lon="1.34327">
        <ele>136</ele>
        <time>2018-10-09T12:39:46.097Z</time>
      </trkpt>
      <trkpt lat="48.10792" lon="1.34325">
        <ele>136</ele>
        <time>2018-10-09T12:39:47.097Z</time>
      </trkpt>
      <trkpt lat="48.10792" lon="1.34323">
        <ele>135</ele>
        <time>2018-10-09T12:39:48.097Z</time>
      </trkpt>
      <trkpt lat="48.10793" lon="1.34321">
        <ele>135</ele>
        <time>2018-10-09T12:39:49.097Z</time>
      </trkpt>
      <trkpt lat="48.10793" lon="1.3432">
        <ele>135</ele>
        <time>2018-10-09T12:39:50.097Z</time>
      </trkpt>
      <trkpt lat="48.10794" lon="1.34318">
        <ele>135</ele>
        <time>2018-10-09T12:39:51.097Z</time>
      </trkpt>
      <trkpt lat="48.10794" lon="1.34316">
        <ele>135</ele>
        <time>2018-10-09T12:39:52.097Z</time>
      </trkpt>
      <trkpt lat="48.10795" lon="1.34314">
        <ele>135</ele>
        <time>2018-10-09T12:39:53.097Z</time>
      </trkpt>
      <trkpt lat="48.10795" lon="1.34312">
        <ele>135</ele>
        <time>2018-10-09T12:39:54.097Z</time>
      </trkpt>
      <trkpt lat="48.10795" lon="1.3431">
        <ele>136</ele>
        <time>2018-10-09T12:39:55.097Z</time>
      </trkpt>
      <trkpt lat="48.10796" lon="1.34308">
        <ele>136</ele>
        <time>2018-10-09T12:39:56.097Z</time>
      </trkpt>
      <trkpt lat="48.10796" lon="1.34306">
        <ele>136</ele>
        <time>2018-10-09T12:39:57.097Z</time>
      </trkpt>
      <trkpt lat="48.10797" lon="1.34304">
        <ele>136</ele>
        <time>2018-10-09T12:39:58.097Z</time>
      </trkpt>
      <trkpt lat="48.10797" lon="1.34303">
        <ele>136</ele>
        <time>2018-10-09T12:39:59.097Z</time>
      </trkpt>
      <trkpt lat="48.10797" lon="1.34301">
        <ele>135</ele>
        <time>2018-10-09T12:40:00.097Z</time>
      </trkpt>
      <trkpt lat="48.10798" lon="1.34299">
        <ele>135</ele>
        <time>2018-10-09T12:40:01.097Z</time>
      </trkpt>
      <trkpt lat="48.10798" lon="1.34297">
        <ele>135</ele>
        <time>2018-10-09T12:40:02.097Z</time>
      </trkpt>
      <trkpt lat="48.10799" lon="1.34295">
        <ele>135</ele>
        <time>2018-10-09T12:40:03.097Z</time>
      </trkpt>
      <trkpt lat="48.10799" lon="1.34293">
        <ele>135</ele>
        <time>2018-10-09T12:40:04.097Z</time>
      </trkpt>
      <trkpt lat="48.10799" lon="1.34291">
        <ele>136</ele>
        <time>2018-10-09T12:40:05.097Z</time>
      </trkpt>
      <trkpt lat="48.108" lon="1.34289">
        <ele>135</ele>
        <time>2018-10-09T12:40:06.097Z</time>
      </trkpt>
      <trkpt lat="48.108" lon="1.34287">
        <ele>135</ele>
        <time>2018-10-09T12:40:07.097Z</time>
      </trkpt>
      <trkpt lat="48.108" lon="1.34285">
        <ele>135</ele>
        <time>2018-10-09T12:40:08.097Z</time>
      </trkpt>
      <trkpt lat="48.108" lon="1.34283">
        <ele>135</ele>
        <time>2018-10-09T12:40:09.097Z</time>
      </trkpt>
      <trkpt lat="48.10801" lon="1.34281">
        <ele>135</ele>
        <time>2018-10-09T12:40:10.097Z</time>
      </trkpt>
      <trkpt lat="48.10801" lon="1.34279">
        <ele>135</ele>
        <time>2018-10-09T12:40:11.097Z</time>
      </trkpt>
      <trkpt lat="48.10801" lon="1.34277">
        <ele>135</ele>
        <time>2018-10-09T12:40:12.097Z</time>
      </trkpt>
      <trkpt lat="48.10802" lon="1.34275">
        <ele>135</ele>
        <time>2018-10-09T12:40:13.097Z</time>
      </trkpt>
      <trkpt lat="48.10802" lon="1.34273">
        <ele>135</ele>
        <time>2018-10-09T12:40:14.097Z</time>
      </trkpt>
      <trkpt lat="48.10802" lon="1.34272">
        <ele>135</ele>
        <time>2018-10-09T12:40:15.097Z</time>
      </trkpt>
      <trkpt lat="48.10802" lon="1.3427">
        <ele>135</ele>
        <time>2018-10-09T12:40:16.097Z</time>
      </trkpt>
      <trkpt lat="48.10803" lon="1.34268">
        <ele>135</ele>
        <time>2018-10-09T12:40:17.097Z</time>
      </trkpt>
      <trkpt lat="48.10803" lon="1.34266">
        <ele>135</ele>
        <time>2018-10-09T12:40:18.097Z</time>
      </trkpt>
      <trkpt lat="48.10803" lon="1.34264">
        <ele>135</ele>
        <time>2018-10-09T12:40:19.097Z</time>
      </trkpt>
      <trkpt lat="48.10804" lon="1.34262">
        <ele>135</ele>
        <time>2018-10-09T12:40:20.097Z</time>
      </trkpt>
      <trkpt lat="48.10804" lon="1.3426">
        <ele>135</ele>
        <time>2018-10-09T12:40:21.097Z</time>
      </trkpt>
      <trkpt lat="48.10804" lon="1.34258">
        <ele>135</ele>
        <time>2018-10-09T12:40:22.097Z</time>
      </trkpt>
      <trkpt lat="48.10804" lon="1.34256">
        <ele>135</ele>
        <time>2018-10-09T12:40:23.097Z</time>
      </trkpt>
      <trkpt lat="48.10805" lon="1.34254">
        <ele>135</ele>
        <time>2018-10-09T12:40:24.097Z</time>
      </trkpt>
      <trkpt lat="48.10805" lon="1.34252">
        <ele>135</ele>
        <time>2018-10-09T12:40:25.097Z</time>
      </trkpt>
      <trkpt lat="48.10805" lon="1.3425">
        <ele>135</ele>
        <time>2018-10-09T12:40:26.097Z</time>
      </trkpt>
      <trkpt lat="48.10805" lon="1.34248">
        <ele>135</ele>
        <time>2018-10-09T12:40:27.097Z</time>
      </trkpt>
      <trkpt lat="48.10806" lon="1.34247">
        <ele>134</ele>
        <time>2018-10-09T12:40:28.097Z</time>
      </trkpt>
      <trkpt lat="48.10806" lon="1.34245">
        <ele>134</ele>
        <time>2018-10-09T12:40:29.097Z</time>
      </trkpt>
      <trkpt lat="48.10806" lon="1.34243">
        <ele>134</ele>
        <time>2018-10-09T12:40:30.097Z</time>
      </trkpt>
      <trkpt lat="48.10807" lon="1.34241">
        <ele>134</ele>
        <time>2018-10-09T12:40:31.097Z</time>
      </trkpt>
      <trkpt lat="48.10807" lon="1.34239">
        <ele>134</ele>
        <time>2018-10-09T12:40:32.097Z</time>
      </trkpt>
      <trkpt lat="48.10807" lon="1.34237">
        <ele>134</ele>
        <time>2018-10-09T12:40:33.097Z</time>
      </trkpt>
      <trkpt lat="48.10808" lon="1.34235">
        <ele>133</ele>
        <time>2018-10-09T12:40:34.097Z</time>
      </trkpt>
      <trkpt lat="48.10808" lon="1.34233">
        <ele>133</ele>
        <time>2018-10-09T12:40:35.097Z</time>
      </trkpt>
      <trkpt lat="48.10808" lon="1.34232">
        <ele>133</ele>
        <time>2018-10-09T12:40:36.097Z</time>
      </trkpt>
      <trkpt lat="48.10808" lon="1.3423">
        <ele>133</ele>
        <time>2018-10-09T12:40:37.097Z</time>
      </trkpt>
      <trkpt lat="48.10809" lon="1.34228">
        <ele>134</ele>
        <time>2018-10-09T12:40:38.097Z</time>
      </trkpt>
      <trkpt lat="48.10809" lon="1.34227">
        <ele>134</ele>
        <time>2018-10-09T12:40:39.097Z</time>
      </trkpt>
      <trkpt lat="48.10809" lon="1.34225">
        <ele>134</ele>
        <time>2018-10-09T12:40:40.097Z</time>
      </trkpt>
      <trkpt lat="48.10808" lon="1.34223">
        <ele>134</ele>
        <time>2018-10-09T12:40:41.097Z</time>
      </trkpt>
      <trkpt lat="48.10808" lon="1.34221">
        <ele>133</ele>
        <time>2018-10-09T12:40:42.097Z</time>
      </trkpt>
      <trkpt lat="48.10809" lon="1.34219">
        <ele>133</ele>
        <time>2018-10-09T12:40:43.097Z</time>
      </trkpt>
      <trkpt lat="48.10809" lon="1.34217">
        <ele>133</ele>
        <time>2018-10-09T12:40:44.097Z</time>
      </trkpt>
      <trkpt lat="48.10809" lon="1.34215">
        <ele>133</ele>
        <time>2018-10-09T12:40:45.097Z</time>
      </trkpt>
      <trkpt lat="48.1081" lon="1.34213">
        <ele>133</ele>
        <time>2018-10-09T12:40:46.097Z</time>
      </trkpt>
      <trkpt lat="48.1081" lon="1.34212">
        <ele>133</ele>
        <time>2018-10-09T12:40:47.097Z</time>
      </trkpt>
      <trkpt lat="48.10811" lon="1.3421">
        <ele>133</ele>
        <time>2018-10-09T12:40:48.097Z</time>
      </trkpt>
      <trkpt lat="48.10811" lon="1.34208">
        <ele>133</ele>
        <time>2018-10-09T12:40:49.097Z</time>
      </trkpt>
      <trkpt lat="48.10811" lon="1.34206">
        <ele>133</ele>
        <time>2018-10-09T12:40:50.097Z</time>
      </trkpt>
      <trkpt lat="48.10811" lon="1.34204">
        <ele>133</ele>
        <time>2018-10-09T12:40:51.097Z</time>
      </trkpt>
      <trkpt lat="48.10811" lon="1.34202">
        <ele>132</ele>
        <time>2018-10-09T12:40:52.097Z</time>
      </trkpt>
      <trkpt lat="48.10811" lon="1.342">
        <ele>132</ele>
        <time>2018-10-09T12:40:53.097Z</time>
      </trkpt>
      <trkpt lat="48.10811" lon="1.34198">
        <ele>132</ele>
        <time>2018-10-09T12:40:54.097Z</time>
      </trkpt>
      <trkpt lat="48.10811" lon="1.34196">
        <ele>132</ele>
        <time>2018-10-09T12:40:55.097Z</time>
      </trkpt>
      <trkpt lat="48.10811" lon="1.34194">
        <ele>132</ele>
        <time>2018-10-09T12:40:56.097Z</time>
      </trkpt>
      <trkpt lat="48.10811" lon="1.34193">
        <ele>132</ele>
        <time>2018-10-09T12:40:57.097Z</time>
      </trkpt>
      <trkpt lat="48.10811" lon="1.34191">
        <ele>132</ele>
        <time>2018-10-09T12:40:58.097Z</time>
      </trkpt>
      <trkpt lat="48.1081" lon="1.34189">
        <ele>132</ele>
        <time>2018-10-09T12:40:59.097Z</time>
      </trkpt>
      <trkpt lat="48.1081" lon="1.34187">
        <ele>132</ele>
        <time>2018-10-09T12:41:00.097Z</time>
      </trkpt>
      <trkpt lat="48.1081" lon="1.34185">
        <ele>132</ele>
        <time>2018-10-09T12:41:01.097Z</time>
      </trkpt>
      <trkpt lat="48.10809" lon="1.34184">
        <ele>132</ele>
        <time>2018-10-09T12:41:02.097Z</time>
      </trkpt>
      <trkpt lat="48.10809" lon="1.34183">
        <ele>132</ele>
        <time>2018-10-09T12:41:03.097Z</time>
      </trkpt>
      <trkpt lat="48.10808" lon="1.34182">
        <ele>132</ele>
        <time>2018-10-09T12:41:04.097Z</time>
      </trkpt>
      <trkpt lat="48.10807" lon="1.34181">
        <ele>131</ele>
        <time>2018-10-09T12:41:05.097Z</time>
      </trkpt>
      <trkpt lat="48.10807" lon="1.3418">
        <ele>132</ele>
        <time>2018-10-09T12:41:06.097Z</time>
      </trkpt>
      <trkpt lat="48.10806" lon="1.34179">
        <ele>132</ele>
        <time>2018-10-09T12:41:07.097Z</time>
      </trkpt>
      <trkpt lat="48.10805" lon="1.34178">
        <ele>131</ele>
        <time>2018-10-09T12:41:08.097Z</time>
      </trkpt>
      <trkpt lat="48.10804" lon="1.34177">
        <ele>131</ele>
        <time>2018-10-09T12:41:09.097Z</time>
      </trkpt>
      <trkpt lat="48.10802" lon="1.34177">
        <ele>131</ele>
        <time>2018-10-09T12:41:10.097Z</time>
      </trkpt>
      <trkpt lat="48.10801" lon="1.34176">
        <ele>131</ele>
        <time>2018-10-09T12:41:11.097Z</time>
      </trkpt>
      <trkpt lat="48.108" lon="1.34176">
        <ele>131</ele>
        <time>2018-10-09T12:41:12.097Z</time>
      </trkpt>
      <trkpt lat="48.10799" lon="1.34175">
        <ele>132</ele>
        <time>2018-10-09T12:41:13.097Z</time>
      </trkpt>
      <trkpt lat="48.10798" lon="1.34175">
        <ele>132</ele>
        <time>2018-10-09T12:41:14.097Z</time>
      </trkpt>
      <trkpt lat="48.10797" lon="1.34174">
        <ele>132</ele>
        <time>2018-10-09T12:41:15.097Z</time>
      </trkpt>
      <trkpt lat="48.10796" lon="1.34174">
        <ele>132</ele>
        <time>2018-10-09T12:41:16.097Z</time>
      </trkpt>
      <trkpt lat="48.10794" lon="1.34174">
        <ele>132</ele>
        <time>2018-10-09T12:41:17.097Z</time>
      </trkpt>
      <trkpt lat="48.10793" lon="1.34173">
        <ele>132</ele>
        <time>2018-10-09T12:41:18.097Z</time>
      </trkpt>
      <trkpt lat="48.10792" lon="1.34173">
        <ele>132</ele>
        <time>2018-10-09T12:41:19.097Z</time>
      </trkpt>
      <trkpt lat="48.10791" lon="1.34173">
        <ele>132</ele>
        <time>2018-10-09T12:41:20.097Z</time>
      </trkpt>
      <trkpt lat="48.1079" lon="1.34173">
        <ele>132</ele>
        <time>2018-10-09T12:41:21.097Z</time>
      </trkpt>
      <trkpt lat="48.10788" lon="1.34173">
        <ele>132</ele>
        <time>2018-10-09T12:41:22.097Z</time>
      </trkpt>
      <trkpt lat="48.10787" lon="1.34172">
        <ele>132</ele>
        <time>2018-10-09T12:41:23.097Z</time>
      </trkpt>
      <trkpt lat="48.10786" lon="1.34172">
        <ele>131</ele>
        <time>2018-10-09T12:41:24.097Z</time>
      </trkpt>
      <trkpt lat="48.10785" lon="1.34171">
        <ele>131</ele>
        <time>2018-10-09T12:41:25.097Z</time>
      </trkpt>
      <trkpt lat="48.10784" lon="1.34171">
        <ele>131</ele>
        <time>2018-10-09T12:41:26.097Z</time>
      </trkpt>
      <trkpt lat="48.10783" lon="1.3417">
        <ele>131</ele>
        <time>2018-10-09T12:41:27.097Z</time>
      </trkpt>
      <trkpt lat="48.10782" lon="1.34169">
        <ele>131</ele>
        <time>2018-10-09T12:41:28.097Z</time>
      </trkpt>
      <trkpt lat="48.10781" lon="1.34168">
        <ele>131</ele>
        <time>2018-10-09T12:41:29.097Z</time>
      </trkpt>
      <trkpt lat="48.1078" lon="1.34167">
        <ele>131</ele>
        <time>2018-10-09T12:41:30.097Z</time>
      </trkpt>
      <trkpt lat="48.1078" lon="1.34166">
        <ele>130</ele>
        <time>2018-10-09T12:41:31.097Z</time>
      </trkpt>
      <trkpt lat="48.10779" lon="1.34164">
        <ele>131</ele>
        <time>2018-10-09T12:41:32.097Z</time>
      </trkpt>
      <trkpt lat="48.10779" lon="1.34163">
        <ele>131</ele>
        <time>2018-10-09T12:41:33.097Z</time>
      </trkpt>
      <trkpt lat="48.10779" lon="1.34161">
        <ele>131</ele>
        <time>2018-10-09T12:41:34.097Z</time>
      </trkpt>
      <trkpt lat="48.10778" lon="1.3416">
        <ele>131</ele>
        <time>2018-10-09T12:41:35.097Z</time>
      </trkpt>
      <trkpt lat="48.10778" lon="1.34158">
        <ele>131</ele>
        <time>2018-10-09T12:41:36.097Z</time>
      </trkpt>
      <trkpt lat="48.10779" lon="1.34156">
        <ele>131</ele>
        <time>2018-10-09T12:41:37.097Z</time>
      </trkpt>
      <trkpt lat="48.10779" lon="1.34154">
        <ele>131</ele>
        <time>2018-10-09T12:41:38.097Z</time>
      </trkpt>
      <trkpt lat="48.10779" lon="1.34153">
        <ele>131</ele>
        <time>2018-10-09T12:41:39.097Z</time>
      </trkpt>
      <trkpt lat="48.10779" lon="1.34151">
        <ele>131</ele>
        <time>2018-10-09T12:41:40.097Z</time>
      </trkpt>
      <trkpt lat="48.1078" lon="1.34149">
        <ele>131</ele>
        <time>2018-10-09T12:41:41.097Z</time>
      </trkpt>
      <trkpt lat="48.1078" lon="1.34147">
        <ele>131</ele>
        <time>2018-10-09T12:41:42.097Z</time>
      </trkpt>
      <trkpt lat="48.1078" lon="1.34146">
        <ele>131</ele>
        <time>2018-10-09T12:41:43.097Z</time>
      </trkpt>
      <trkpt lat="48.10781" lon="1.34144">
        <ele>131</ele>
        <time>2018-10-09T12:41:44.097Z</time>
      </trkpt>
      <trkpt lat="48.10781" lon="1.34142">
        <ele>131</ele>
        <time>2018-10-09T12:41:45.097Z</time>
      </trkpt>
      <trkpt lat="48.10782" lon="1.3414">
        <ele>131</ele>
        <time>2018-10-09T12:41:46.097Z</time>
      </trkpt>
      <trkpt lat="48.10782" lon="1.34138">
        <ele>131</ele>
        <time>2018-10-09T12:41:47.097Z</time>
      </trkpt>
      <trkpt lat="48.10783" lon="1.34136">
        <ele>131</ele>
        <time>2018-10-09T12:41:48.097Z</time>
      </trkpt>
      <trkpt lat="48.10783" lon="1.34134">
        <ele>131</ele>
        <time>2018-10-09T12:41:49.097Z</time>
      </trkpt>
      <trkpt lat="48.10783" lon="1.34133">
        <ele>131</ele>
        <time>2018-10-09T12:41:50.097Z</time>
      </trkpt>
      <trkpt lat="48.10784" lon="1.34131">
        <ele>131</ele>
        <time>2018-10-09T12:41:51.097Z</time>
      </trkpt>
      <trkpt lat="48.10784" lon="1.34129">
        <ele>131</ele>
        <time>2018-10-09T12:41:52.097Z</time>
      </trkpt>
      <trkpt lat="48.10784" lon="1.34127">
        <ele>131</ele>
        <time>2018-10-09T12:41:53.097Z</time>
      </trkpt>
      <trkpt lat="48.10785" lon="1.34125">
        <ele>131</ele>
        <time>2018-10-09T12:41:54.097Z</time>
      </trkpt>
      <trkpt lat="48.10785" lon="1.34123">
        <ele>131</ele>
        <time>2018-10-09T12:41:55.097Z</time>
      </trkpt>
      <trkpt lat="48.10785" lon="1.34121">
        <ele>131</ele>
        <time>2018-10-09T12:41:56.097Z</time>
      </trkpt>
      <trkpt lat="48.10785" lon="1.34119">
        <ele>131</ele>
        <time>2018-10-09T12:41:57.097Z</time>
      </trkpt>
      <trkpt lat="48.10786" lon="1.34117">
        <ele>131</ele>
        <time>2018-10-09T12:41:58.097Z</time>
      </trkpt>
      <trkpt lat="48.10786" lon="1.34115">
        <ele>130</ele>
        <time>2018-10-09T12:41:59.097Z</time>
      </trkpt>
      <trkpt lat="48.10786" lon="1.34113">
        <ele>131</ele>
        <time>2018-10-09T12:42:00.097Z</time>
      </trkpt>
      <trkpt lat="48.10787" lon="1.34111">
        <ele>131</ele>
        <time>2018-10-09T12:42:01.097Z</time>
      </trkpt>
      <trkpt lat="48.10787" lon="1.34109">
        <ele>131</ele>
        <time>2018-10-09T12:42:02.097Z</time>
      </trkpt>
      <trkpt lat="48.10787" lon="1.34107">
        <ele>131</ele>
        <time>2018-10-09T12:42:03.097Z</time>
      </trkpt>
      <trkpt lat="48.10787" lon="1.34105">
        <ele>131</ele>
        <time>2018-10-09T12:42:04.097Z</time>
      </trkpt>
      <trkpt lat="48.10787" lon="1.34103">
        <ele>131</ele>
        <time>2018-10-09T12:42:05.097Z</time>
      </trkpt>
      <trkpt lat="48.10788" lon="1.34101">
        <ele>131</ele>
        <time>2018-10-09T12:42:06.097Z</time>
      </trkpt>
      <trkpt lat="48.10788" lon="1.34099">
        <ele>131</ele>
        <time>2018-10-09T12:42:07.097Z</time>
      </trkpt>
      <trkpt lat="48.10788" lon="1.34097">
        <ele>131</ele>
        <time>2018-10-09T12:42:08.097Z</time>
      </trkpt>
      <trkpt lat="48.10788" lon="1.34095">
        <ele>131</ele>
        <time>2018-10-09T12:42:09.097Z</time>
      </trkpt>
      <trkpt lat="48.10789" lon="1.34093">
        <ele>132</ele>
        <time>2018-10-09T12:42:10.097Z</time>
      </trkpt>
      <trkpt lat="48.10789" lon="1.34091">
        <ele>132</ele>
        <time>2018-10-09T12:42:11.097Z</time>
      </trkpt>
      <trkpt lat="48.10789" lon="1.34089">
        <ele>132</ele>
        <time>2018-10-09T12:42:12.097Z</time>
      </trkpt>
      <trkpt lat="48.10789" lon="1.34087">
        <ele>132</ele>
        <time>2018-10-09T12:42:13.097Z</time>
      </trkpt>
      <trkpt lat="48.10789" lon="1.34085">
        <ele>131</ele>
        <time>2018-10-09T12:42:14.097Z</time>
      </trkpt>
      <trkpt lat="48.1079" lon="1.34083">
        <ele>132</ele>
        <time>2018-10-09T12:42:15.097Z</time>
      </trkpt>
      <trkpt lat="48.1079" lon="1.34081">
        <ele>131</ele>
        <time>2018-10-09T12:42:16.097Z</time>
      </trkpt>
      <trkpt lat="48.1079" lon="1.34079">
        <ele>131</ele>
        <time>2018-10-09T12:42:17.097Z</time>
      </trkpt>
      <trkpt lat="48.1079" lon="1.34077">
        <ele>131</ele>
        <time>2018-10-09T12:42:18.097Z</time>
      </trkpt>
      <trkpt lat="48.10791" lon="1.34075">
        <ele>131</ele>
        <time>2018-10-09T12:42:19.097Z</time>
      </trkpt>
      <trkpt lat="48.10791" lon="1.34073">
        <ele>131</ele>
        <time>2018-10-09T12:42:20.097Z</time>
      </trkpt>
      <trkpt lat="48.10791" lon="1.34072">
        <ele>131</ele>
        <time>2018-10-09T12:42:21.097Z</time>
      </trkpt>
      <trkpt lat="48.10791" lon="1.3407">
        <ele>131</ele>
        <time>2018-10-09T12:42:22.097Z</time>
      </trkpt>
      <trkpt lat="48.10791" lon="1.34068">
        <ele>131</ele>
        <time>2018-10-09T12:42:23.097Z</time>
      </trkpt>
      <trkpt lat="48.10792" lon="1.34066">
        <ele>131</ele>
        <time>2018-10-09T12:42:24.097Z</time>
      </trkpt>
      <trkpt lat="48.10792" lon="1.34064">
        <ele>131</ele>
        <time>2018-10-09T12:42:25.097Z</time>
      </trkpt>
      <trkpt lat="48.10792" lon="1.34062">
        <ele>131</ele>
        <time>2018-10-09T12:42:26.097Z</time>
      </trkpt>
      <trkpt lat="48.10792" lon="1.3406">
        <ele>131</ele>
        <time>2018-10-09T12:42:27.097Z</time>
      </trkpt>
      <trkpt lat="48.10792" lon="1.34058">
        <ele>131</ele>
        <time>2018-10-09T12:42:28.097Z</time>
      </trkpt>
      <trkpt lat="48.10792" lon="1.34056">
        <ele>131</ele>
        <time>2018-10-09T12:42:29.097Z</time>
      </trkpt>
      <trkpt lat="48.10792" lon="1.34054">
        <ele>131</ele>
        <time>2018-10-09T12:42:30.097Z</time>
      </trkpt>
      <trkpt lat="48.10793" lon="1.34052">
        <ele>131</ele>
        <time>2018-10-09T12:42:31.097Z</time>
      </trkpt>
      <trkpt lat="48.10793" lon="1.3405">
        <ele>131</ele>
        <time>2018-10-09T12:42:32.097Z</time>
      </trkpt>
      <trkpt lat="48.10793" lon="1.34048">
        <ele>131</ele>
        <time>2018-10-09T12:42:33.097Z</time>
      </trkpt>
      <trkpt lat="48.10793" lon="1.34046">
        <ele>131</ele>
        <time>2018-10-09T12:42:34.097Z</time>
      </trkpt>
      <trkpt lat="48.10793" lon="1.34044">
        <ele>131</ele>
        <time>2018-10-09T12:42:35.097Z</time>
      </trkpt>
      <trkpt lat="48.10793" lon="1.34042">
        <ele>131</ele>
        <time>2018-10-09T12:42:36.097Z</time>
      </trkpt>
      <trkpt lat="48.10793" lon="1.3404">
        <ele>131</ele>
        <time>2018-10-09T12:42:37.097Z</time>
      </trkpt>
      <trkpt lat="48.10793" lon="1.34038">
        <ele>131</ele>
        <time>2018-10-09T12:42:38.097Z</time>
      </trkpt>
      <trkpt lat="48.10794" lon="1.34036">
        <ele>130</ele>
        <time>2018-10-09T12:42:39.097Z</time>
      </trkpt>
      <trkpt lat="48.10794" lon="1.34034">
        <ele>130</ele>
        <time>2018-10-09T12:42:40.097Z</time>
      </trkpt>
      <trkpt lat="48.10794" lon="1.34032">
        <ele>130</ele>
        <time>2018-10-09T12:42:41.097Z</time>
      </trkpt>
      <trkpt lat="48.10794" lon="1.3403">
        <ele>131</ele>
        <time>2018-10-09T12:42:42.097Z</time>
      </trkpt>
      <trkpt lat="48.10794" lon="1.34028">
        <ele>131</ele>
        <time>2018-10-09T12:42:43.097Z</time>
      </trkpt>
      <trkpt lat="48.10794" lon="1.34026">
        <ele>131</ele>
        <time>2018-10-09T12:42:44.097Z</time>
      </trkpt>
      <trkpt lat="48.10794" lon="1.34024">
        <ele>131</ele>
        <time>2018-10-09T12:42:45.097Z</time>
      </trkpt>
      <trkpt lat="48.10794" lon="1.34021">
        <ele>130</ele>
        <time>2018-10-09T12:42:46.097Z</time>
      </trkpt>
      <trkpt lat="48.10794" lon="1.34019">
        <ele>130</ele>
        <time>2018-10-09T12:42:47.097Z</time>
      </trkpt>
      <trkpt lat="48.10794" lon="1.34017">
        <ele>131</ele>
        <time>2018-10-09T12:42:48.097Z</time>
      </trkpt>
      <trkpt lat="48.10794" lon="1.34015">
        <ele>131</ele>
        <time>2018-10-09T12:42:49.097Z</time>
      </trkpt>
      <trkpt lat="48.10794" lon="1.34013">
        <ele>130</ele>
        <time>2018-10-09T12:42:50.097Z</time>
      </trkpt>
      <trkpt lat="48.10794" lon="1.34011">
        <ele>130</ele>
        <time>2018-10-09T12:42:51.097Z</time>
      </trkpt>
      <trkpt lat="48.10794" lon="1.34008">
        <ele>130</ele>
        <time>2018-10-09T12:42:52.097Z</time>
      </trkpt>
      <trkpt lat="48.10794" lon="1.34006">
        <ele>130</ele>
        <time>2018-10-09T12:42:53.097Z</time>
      </trkpt>
      <trkpt lat="48.10794" lon="1.34004">
        <ele>130</ele>
        <time>2018-10-09T12:42:54.097Z</time>
      </trkpt>
      <trkpt lat="48.10794" lon="1.34002">
        <ele>130</ele>
        <time>2018-10-09T12:42:55.097Z</time>
      </trkpt>
      <trkpt lat="48.10794" lon="1.34001">
        <ele>130</ele>
        <time>2018-10-09T12:42:56.097Z</time>
      </trkpt>
      <trkpt lat="48.10794" lon="1.33999">
        <ele>130</ele>
        <time>2018-10-09T12:42:57.097Z</time>
      </trkpt>
      <trkpt lat="48.10794" lon="1.33997">
        <ele>129</ele>
        <time>2018-10-09T12:42:58.097Z</time>
      </trkpt>
      <trkpt lat="48.10794" lon="1.33995">
        <ele>129</ele>
        <time>2018-10-09T12:42:59.097Z</time>
      </trkpt>
      <trkpt lat="48.10794" lon="1.33992">
        <ele>129</ele>
        <time>2018-10-09T12:43:00.097Z</time>
      </trkpt>
      <trkpt lat="48.10794" lon="1.3399">
        <ele>129</ele>
        <time>2018-10-09T12:43:01.097Z</time>
      </trkpt>
      <trkpt lat="48.10794" lon="1.33988">
        <ele>129</ele>
        <time>2018-10-09T12:43:02.097Z</time>
      </trkpt>
      <trkpt lat="48.10793" lon="1.33986">
        <ele>129</ele>
        <time>2018-10-09T12:43:03.097Z</time>
      </trkpt>
      <trkpt lat="48.10794" lon="1.33984">
        <ele>129</ele>
        <time>2018-10-09T12:43:04.097Z</time>
      </trkpt>
      <trkpt lat="48.10794" lon="1.33982">
        <ele>129</ele>
        <time>2018-10-09T12:43:05.097Z</time>
      </trkpt>
      <trkpt lat="48.10794" lon="1.3398">
        <ele>129</ele>
        <time>2018-10-09T12:43:06.097Z</time>
      </trkpt>
      <trkpt lat="48.10793" lon="1.33977">
        <ele>129</ele>
        <time>2018-10-09T12:43:07.097Z</time>
      </trkpt>
      <trkpt lat="48.10793" lon="1.33975">
        <ele>129</ele>
        <time>2018-10-09T12:43:08.097Z</time>
      </trkpt>
      <trkpt lat="48.10793" lon="1.33973">
        <ele>129</ele>
        <time>2018-10-09T12:43:09.097Z</time>
      </trkpt>
      <trkpt lat="48.10793" lon="1.3397">
        <ele>129</ele>
        <time>2018-10-09T12:43:10.097Z</time>
      </trkpt>
      <trkpt lat="48.10792" lon="1.33968">
        <ele>130</ele>
        <time>2018-10-09T12:43:11.097Z</time>
      </trkpt>
      <trkpt lat="48.10792" lon="1.33966">
        <ele>130</ele>
        <time>2018-10-09T12:43:12.097Z</time>
      </trkpt>
      <trkpt lat="48.10792" lon="1.33964">
        <ele>130</ele>
        <time>2018-10-09T12:43:13.097Z</time>
      </trkpt>
      <trkpt lat="48.10792" lon="1.33962">
        <ele>130</ele>
        <time>2018-10-09T12:43:14.097Z</time>
      </trkpt>
      <trkpt lat="48.10792" lon="1.3396">
        <ele>130</ele>
        <time>2018-10-09T12:43:15.097Z</time>
      </trkpt>
      <trkpt lat="48.10791" lon="1.33958">
        <ele>130</ele>
        <time>2018-10-09T12:43:16.097Z</time>
      </trkpt>
      <trkpt lat="48.10791" lon="1.33956">
        <ele>130</ele>
        <time>2018-10-09T12:43:17.097Z</time>
      </trkpt>
      <trkpt lat="48.10791" lon="1.33954">
        <ele>130</ele>
        <time>2018-10-09T12:43:18.097Z</time>
      </trkpt>
      <trkpt lat="48.10791" lon="1.33952">
        <ele>130</ele>
        <time>2018-10-09T12:43:19.097Z</time>
      </trkpt>
      <trkpt lat="48.10792" lon="1.3395">
        <ele>130</ele>
        <time>2018-10-09T12:43:20.097Z</time>
      </trkpt>
      <trkpt lat="48.10792" lon="1.33948">
        <ele>129</ele>
        <time>2018-10-09T12:43:21.097Z</time>
      </trkpt>
      <trkpt lat="48.10792" lon="1.33946">
        <ele>129</ele>
        <time>2018-10-09T12:43:22.097Z</time>
      </trkpt>
      <trkpt lat="48.10792" lon="1.33944">
        <ele>128</ele>
        <time>2018-10-09T12:43:23.097Z</time>
      </trkpt>
      <trkpt lat="48.10792" lon="1.33942">
        <ele>128</ele>
        <time>2018-10-09T12:43:24.097Z</time>
      </trkpt>
      <trkpt lat="48.10791" lon="1.3394">
        <ele>128</ele>
        <time>2018-10-09T12:43:25.097Z</time>
      </trkpt>
      <trkpt lat="48.10792" lon="1.33938">
        <ele>128</ele>
        <time>2018-10-09T12:43:26.097Z</time>
      </trkpt>
      <trkpt lat="48.10792" lon="1.33936">
        <ele>127</ele>
        <time>2018-10-09T12:43:27.097Z</time>
      </trkpt>
      <trkpt lat="48.10792" lon="1.33935">
        <ele>127</ele>
        <time>2018-10-09T12:43:28.097Z</time>
      </trkpt>
      <trkpt lat="48.10791" lon="1.33933">
        <ele>127</ele>
        <time>2018-10-09T12:43:29.097Z</time>
      </trkpt>
      <trkpt lat="48.10791" lon="1.33931">
        <ele>127</ele>
        <time>2018-10-09T12:43:30.097Z</time>
      </trkpt>
      <trkpt lat="48.10791" lon="1.33929">
        <ele>127</ele>
        <time>2018-10-09T12:43:31.097Z</time>
      </trkpt>
      <trkpt lat="48.10791" lon="1.33927">
        <ele>127</ele>
        <time>2018-10-09T12:43:32.097Z</time>
      </trkpt>
      <trkpt lat="48.10791" lon="1.33925">
        <ele>126</ele>
        <time>2018-10-09T12:43:33.097Z</time>
      </trkpt>
      <trkpt lat="48.1079" lon="1.33923">
        <ele>126</ele>
        <time>2018-10-09T12:43:34.097Z</time>
      </trkpt>
      <trkpt lat="48.1079" lon="1.33921">
        <ele>126</ele>
        <time>2018-10-09T12:43:35.097Z</time>
      </trkpt>
      <trkpt lat="48.1079" lon="1.3392">
        <ele>126</ele>
        <time>2018-10-09T12:43:36.097Z</time>
      </trkpt>
      <trkpt lat="48.10789" lon="1.33918">
        <ele>126</ele>
        <time>2018-10-09T12:43:37.097Z</time>
      </trkpt>
      <trkpt lat="48.10788" lon="1.33917">
        <ele>126</ele>
        <time>2018-10-09T12:43:38.097Z</time>
      </trkpt>
      <trkpt lat="48.10788" lon="1.33915">
        <ele>126</ele>
        <time>2018-10-09T12:43:39.097Z</time>
      </trkpt>
      <trkpt lat="48.10787" lon="1.33914">
        <ele>126</ele>
        <time>2018-10-09T12:43:40.097Z</time>
      </trkpt>
      <trkpt lat="48.10787" lon="1.33914">
        <ele>127</ele>
        <time>2018-10-09T12:43:41.097Z</time>
      </trkpt>
      <trkpt lat="48.10787" lon="1.33914">
        <ele>127</ele>
        <time>2018-10-09T12:43:42.097Z</time>
      </trkpt>
      <trkpt lat="48.10787" lon="1.33914">
        <ele>127</ele>
        <time>2018-10-09T12:43:43.097Z</time>
      </trkpt>
      <trkpt lat="48.10787" lon="1.33914">
        <ele>127</ele>
        <time>2018-10-09T12:43:44.097Z</time>
      </trkpt>
      <trkpt lat="48.10787" lon="1.33914">
        <ele>127</ele>
        <time>2018-10-09T12:43:45.097Z</time>
      </trkpt>
      <trkpt lat="48.10787" lon="1.33914">
        <ele>127</ele>
        <time>2018-10-09T12:43:46.097Z</time>
      </trkpt>
      <trkpt lat="48.10787" lon="1.33912">
        <ele>127</ele>
        <time>2018-10-09T12:43:47.097Z</time>
      </trkpt>
      <trkpt lat="48.10788" lon="1.3391">
        <ele>127</ele>
        <time>2018-10-09T12:43:48.097Z</time>
      </trkpt>
      <trkpt lat="48.10788" lon="1.33908">
        <ele>127</ele>
        <time>2018-10-09T12:43:49.097Z</time>
      </trkpt>
      <trkpt lat="48.10788" lon="1.33906">
        <ele>127</ele>
        <time>2018-10-09T12:43:50.097Z</time>
      </trkpt>
      <trkpt lat="48.10788" lon="1.33904">
        <ele>127</ele>
        <time>2018-10-09T12:43:51.097Z</time>
      </trkpt>
      <trkpt lat="48.10788" lon="1.33901">
        <ele>127</ele>
        <time>2018-10-09T12:43:52.097Z</time>
      </trkpt>
      <trkpt lat="48.10787" lon="1.33899">
        <ele>127</ele>
        <time>2018-10-09T12:43:53.097Z</time>
      </trkpt>
      <trkpt lat="48.10787" lon="1.33897">
        <ele>127</ele>
        <time>2018-10-09T12:43:54.097Z</time>
      </trkpt>
      <trkpt lat="48.10787" lon="1.33895">
        <ele>127</ele>
        <time>2018-10-09T12:43:55.097Z</time>
      </trkpt>
      <trkpt lat="48.10787" lon="1.33893">
        <ele>127</ele>
        <time>2018-10-09T12:43:56.097Z</time>
      </trkpt>
      <trkpt lat="48.10786" lon="1.33891">
        <ele>127</ele>
        <time>2018-10-09T12:43:57.097Z</time>
      </trkpt>
      <trkpt lat="48.10786" lon="1.33889">
        <ele>127</ele>
        <time>2018-10-09T12:43:58.097Z</time>
      </trkpt>
      <trkpt lat="48.10786" lon="1.33887">
        <ele>126</ele>
        <time>2018-10-09T12:43:59.097Z</time>
      </trkpt>
      <trkpt lat="48.10786" lon="1.33885">
        <ele>126</ele>
        <time>2018-10-09T12:44:00.097Z</time>
      </trkpt>
      <trkpt lat="48.10785" lon="1.33883">
        <ele>126</ele>
        <time>2018-10-09T12:44:01.097Z</time>
      </trkpt>
      <trkpt lat="48.10785" lon="1.33881">
        <ele>126</ele>
        <time>2018-10-09T12:44:02.097Z</time>
      </trkpt>
      <trkpt lat="48.10785" lon="1.3388">
        <ele>125</ele>
        <time>2018-10-09T12:44:03.097Z</time>
      </trkpt>
      <trkpt lat="48.10784" lon="1.33878">
        <ele>125</ele>
        <time>2018-10-09T12:44:04.097Z</time>
      </trkpt>
      <trkpt lat="48.10784" lon="1.33876">
        <ele>125</ele>
        <time>2018-10-09T12:44:05.097Z</time>
      </trkpt>
      <trkpt lat="48.10784" lon="1.33874">
        <ele>125</ele>
        <time>2018-10-09T12:44:06.097Z</time>
      </trkpt>
      <trkpt lat="48.10783" lon="1.33872">
        <ele>125</ele>
        <time>2018-10-09T12:44:07.097Z</time>
      </trkpt>
      <trkpt lat="48.10783" lon="1.3387">
        <ele>125</ele>
        <time>2018-10-09T12:44:08.097Z</time>
      </trkpt>
      <trkpt lat="48.10783" lon="1.33868">
        <ele>124</ele>
        <time>2018-10-09T12:44:09.097Z</time>
      </trkpt>
      <trkpt lat="48.10782" lon="1.33866">
        <ele>124</ele>
        <time>2018-10-09T12:44:10.097Z</time>
      </trkpt>
      <trkpt lat="48.10782" lon="1.33865">
        <ele>124</ele>
        <time>2018-10-09T12:44:11.097Z</time>
      </trkpt>
      <trkpt lat="48.10782" lon="1.33863">
        <ele>124</ele>
        <time>2018-10-09T12:44:12.097Z</time>
      </trkpt>
      <trkpt lat="48.10781" lon="1.3386">
        <ele>124</ele>
        <time>2018-10-09T12:44:13.097Z</time>
      </trkpt>
      <trkpt lat="48.10781" lon="1.33858">
        <ele>124</ele>
        <time>2018-10-09T12:44:14.097Z</time>
      </trkpt>
      <trkpt lat="48.1078" lon="1.33856">
        <ele>123</ele>
        <time>2018-10-09T12:44:15.097Z</time>
      </trkpt>
      <trkpt lat="48.1078" lon="1.33854">
        <ele>123</ele>
        <time>2018-10-09T12:44:16.097Z</time>
      </trkpt>
      <trkpt lat="48.10779" lon="1.33852">
        <ele>123</ele>
        <time>2018-10-09T12:44:17.097Z</time>
      </trkpt>
      <trkpt lat="48.10779" lon="1.33851">
        <ele>123</ele>
        <time>2018-10-09T12:44:18.097Z</time>
      </trkpt>
      <trkpt lat="48.10779" lon="1.3385">
        <ele>123</ele>
        <time>2018-10-09T12:44:19.097Z</time>
      </trkpt>
      <trkpt lat="48.10778" lon="1.33849">
        <ele>123</ele>
        <time>2018-10-09T12:44:20.097Z</time>
      </trkpt>
      <trkpt lat="48.10778" lon="1.33848">
        <ele>123</ele>
        <time>2018-10-09T12:44:21.097Z</time>
      </trkpt>
      <trkpt lat="48.10778" lon="1.33846">
        <ele>123</ele>
        <time>2018-10-09T12:44:22.097Z</time>
      </trkpt>
      <trkpt lat="48.10777" lon="1.33844">
        <ele>123</ele>
        <time>2018-10-09T12:44:23.097Z</time>
      </trkpt>
      <trkpt lat="48.10777" lon="1.33843">
        <ele>123</ele>
        <time>2018-10-09T12:44:24.097Z</time>
      </trkpt>
      <trkpt lat="48.10776" lon="1.33841">
        <ele>123</ele>
        <time>2018-10-09T12:44:25.097Z</time>
      </trkpt>
      <trkpt lat="48.10776" lon="1.33839">
        <ele>123</ele>
        <time>2018-10-09T12:44:26.097Z</time>
      </trkpt>
      <trkpt lat="48.10775" lon="1.33837">
        <ele>123</ele>
        <time>2018-10-09T12:44:27.097Z</time>
      </trkpt>
      <trkpt lat="48.10775" lon="1.33835">
        <ele>123</ele>
        <time>2018-10-09T12:44:28.097Z</time>
      </trkpt>
      <trkpt lat="48.10774" lon="1.33834">
        <ele>123</ele>
        <time>2018-10-09T12:44:29.097Z</time>
      </trkpt>
      <trkpt lat="48.10774" lon="1.33832">
        <ele>123</ele>
        <time>2018-10-09T12:44:30.097Z</time>
      </trkpt>
      <trkpt lat="48.10774" lon="1.3383">
        <ele>123</ele>
        <time>2018-10-09T12:44:31.097Z</time>
      </trkpt>
      <trkpt lat="48.10773" lon="1.33828">
        <ele>123</ele>
        <time>2018-10-09T12:44:32.097Z</time>
      </trkpt>
      <trkpt lat="48.10773" lon="1.33826">
        <ele>124</ele>
        <time>2018-10-09T12:44:33.097Z</time>
      </trkpt>
      <trkpt lat="48.10772" lon="1.33825">
        <ele>124</ele>
        <time>2018-10-09T12:44:34.097Z</time>
      </trkpt>
      <trkpt lat="48.10772" lon="1.33823">
        <ele>124</ele>
        <time>2018-10-09T12:44:35.097Z</time>
      </trkpt>
      <trkpt lat="48.10771" lon="1.33821">
        <ele>124</ele>
        <time>2018-10-09T12:44:36.097Z</time>
      </trkpt>
      <trkpt lat="48.1077" lon="1.33819">
        <ele>124</ele>
        <time>2018-10-09T12:44:37.097Z</time>
      </trkpt>
      <trkpt lat="48.1077" lon="1.33817">
        <ele>124</ele>
        <time>2018-10-09T12:44:38.097Z</time>
      </trkpt>
      <trkpt lat="48.10769" lon="1.33815">
        <ele>124</ele>
        <time>2018-10-09T12:44:39.097Z</time>
      </trkpt>
      <trkpt lat="48.10769" lon="1.33813">
        <ele>124</ele>
        <time>2018-10-09T12:44:40.097Z</time>
      </trkpt>
      <trkpt lat="48.10768" lon="1.33811">
        <ele>124</ele>
        <time>2018-10-09T12:44:41.097Z</time>
      </trkpt>
      <trkpt lat="48.10767" lon="1.33809">
        <ele>124</ele>
        <time>2018-10-09T12:44:42.097Z</time>
      </trkpt>
      <trkpt lat="48.10767" lon="1.33807">
        <ele>124</ele>
        <time>2018-10-09T12:44:43.097Z</time>
      </trkpt>
      <trkpt lat="48.10766" lon="1.33805">
        <ele>124</ele>
        <time>2018-10-09T12:44:44.097Z</time>
      </trkpt>
      <trkpt lat="48.10766" lon="1.33804">
        <ele>124</ele>
        <time>2018-10-09T12:44:45.097Z</time>
      </trkpt>
      <trkpt lat="48.10765" lon="1.33802">
        <ele>124</ele>
        <time>2018-10-09T12:44:46.097Z</time>
      </trkpt>
      <trkpt lat="48.10765" lon="1.338">
        <ele>125</ele>
        <time>2018-10-09T12:44:47.097Z</time>
      </trkpt>
      <trkpt lat="48.10764" lon="1.33798">
        <ele>125</ele>
        <time>2018-10-09T12:44:48.097Z</time>
      </trkpt>
      <trkpt lat="48.10763" lon="1.33797">
        <ele>125</ele>
        <time>2018-10-09T12:44:49.097Z</time>
      </trkpt>
      <trkpt lat="48.10763" lon="1.33795">
        <ele>125</ele>
        <time>2018-10-09T12:44:50.097Z</time>
      </trkpt>
      <trkpt lat="48.10762" lon="1.33794">
        <ele>125</ele>
        <time>2018-10-09T12:44:51.097Z</time>
      </trkpt>
      <trkpt lat="48.10761" lon="1.33792">
        <ele>125</ele>
        <time>2018-10-09T12:44:52.097Z</time>
      </trkpt>
      <trkpt lat="48.10761" lon="1.3379">
        <ele>125</ele>
        <time>2018-10-09T12:44:53.097Z</time>
      </trkpt>
      <trkpt lat="48.1076" lon="1.33788">
        <ele>125</ele>
        <time>2018-10-09T12:44:54.097Z</time>
      </trkpt>
      <trkpt lat="48.1076" lon="1.33787">
        <ele>125</ele>
        <time>2018-10-09T12:44:55.097Z</time>
      </trkpt>
      <trkpt lat="48.10759" lon="1.33785">
        <ele>125</ele>
        <time>2018-10-09T12:44:56.097Z</time>
      </trkpt>
      <trkpt lat="48.10759" lon="1.33783">
        <ele>125</ele>
        <time>2018-10-09T12:44:57.097Z</time>
      </trkpt>
      <trkpt lat="48.10758" lon="1.33781">
        <ele>125</ele>
        <time>2018-10-09T12:44:58.097Z</time>
      </trkpt>
      <trkpt lat="48.10758" lon="1.33779">
        <ele>125</ele>
        <time>2018-10-09T12:44:59.097Z</time>
      </trkpt>
      <trkpt lat="48.10757" lon="1.33777">
        <ele>125</ele>
        <time>2018-10-09T12:45:00.097Z</time>
      </trkpt>
      <trkpt lat="48.10756" lon="1.33775">
        <ele>125</ele>
        <time>2018-10-09T12:45:01.097Z</time>
      </trkpt>
      <trkpt lat="48.10756" lon="1.33773">
        <ele>125</ele>
        <time>2018-10-09T12:45:02.097Z</time>
      </trkpt>
      <trkpt lat="48.10755" lon="1.33772">
        <ele>125</ele>
        <time>2018-10-09T12:45:03.097Z</time>
      </trkpt>
      <trkpt lat="48.10755" lon="1.3377">
        <ele>125</ele>
        <time>2018-10-09T12:45:04.097Z</time>
      </trkpt>
      <trkpt lat="48.10754" lon="1.33768">
        <ele>125</ele>
        <time>2018-10-09T12:45:05.097Z</time>
      </trkpt>
      <trkpt lat="48.10753" lon="1.33767">
        <ele>125</ele>
        <time>2018-10-09T12:45:06.097Z</time>
      </trkpt>
      <trkpt lat="48.10753" lon="1.33765">
        <ele>125</ele>
        <time>2018-10-09T12:45:07.097Z</time>
      </trkpt>
      <trkpt lat="48.10752" lon="1.33763">
        <ele>125</ele>
        <time>2018-10-09T12:45:08.097Z</time>
      </trkpt>
      <trkpt lat="48.10752" lon="1.33761">
        <ele>125</ele>
        <time>2018-10-09T12:45:09.097Z</time>
      </trkpt>
      <trkpt lat="48.10751" lon="1.3376">
        <ele>125</ele>
        <time>2018-10-09T12:45:10.097Z</time>
      </trkpt>
      <trkpt lat="48.1075" lon="1.33758">
        <ele>125</ele>
        <time>2018-10-09T12:45:11.097Z</time>
      </trkpt>
      <trkpt lat="48.1075" lon="1.33756">
        <ele>125</ele>
        <time>2018-10-09T12:45:12.097Z</time>
      </trkpt>
      <trkpt lat="48.10749" lon="1.33755">
        <ele>125</ele>
        <time>2018-10-09T12:45:13.097Z</time>
      </trkpt>
      <trkpt lat="48.10749" lon="1.33753">
        <ele>125</ele>
        <time>2018-10-09T12:45:14.097Z</time>
      </trkpt>
      <trkpt lat="48.10748" lon="1.33751">
        <ele>125</ele>
        <time>2018-10-09T12:45:15.097Z</time>
      </trkpt>
      <trkpt lat="48.10748" lon="1.33749">
        <ele>125</ele>
        <time>2018-10-09T12:45:16.097Z</time>
      </trkpt>
      <trkpt lat="48.10747" lon="1.33747">
        <ele>125</ele>
        <time>2018-10-09T12:45:17.097Z</time>
      </trkpt>
      <trkpt lat="48.10746" lon="1.33745">
        <ele>125</ele>
        <time>2018-10-09T12:45:18.097Z</time>
      </trkpt>
      <trkpt lat="48.10746" lon="1.33744">
        <ele>125</ele>
        <time>2018-10-09T12:45:19.097Z</time>
      </trkpt>
      <trkpt lat="48.10745" lon="1.33742">
        <ele>125</ele>
        <time>2018-10-09T12:45:20.097Z</time>
      </trkpt>
      <trkpt lat="48.10745" lon="1.3374">
        <ele>125</ele>
        <time>2018-10-09T12:45:21.097Z</time>
      </trkpt>
      <trkpt lat="48.10744" lon="1.33738">
        <ele>125</ele>
        <time>2018-10-09T12:45:22.097Z</time>
      </trkpt>
      <trkpt lat="48.10743" lon="1.33736">
        <ele>125</ele>
        <time>2018-10-09T12:45:23.097Z</time>
      </trkpt>
      <trkpt lat="48.10743" lon="1.33734">
        <ele>125</ele>
        <time>2018-10-09T12:45:24.097Z</time>
      </trkpt>
      <trkpt lat="48.10742" lon="1.33733">
        <ele>125</ele>
        <time>2018-10-09T12:45:25.097Z</time>
      </trkpt>
      <trkpt lat="48.10741" lon="1.33731">
        <ele>125</ele>
        <time>2018-10-09T12:45:26.097Z</time>
      </trkpt>
      <trkpt lat="48.10741" lon="1.33729">
        <ele>125</ele>
        <time>2018-10-09T12:45:27.097Z</time>
      </trkpt>
      <trkpt lat="48.1074" lon="1.33727">
        <ele>125</ele>
        <time>2018-10-09T12:45:28.097Z</time>
      </trkpt>
      <trkpt lat="48.1074" lon="1.33726">
        <ele>125</ele>
        <time>2018-10-09T12:45:29.097Z</time>
      </trkpt>
      <trkpt lat="48.10739" lon="1.33724">
        <ele>125</ele>
        <time>2018-10-09T12:45:30.097Z</time>
      </trkpt>
      <trkpt lat="48.10739" lon="1.33722">
        <ele>125</ele>
        <time>2018-10-09T12:45:31.097Z</time>
      </trkpt>
      <trkpt lat="48.10738" lon="1.3372">
        <ele>125</ele>
        <time>2018-10-09T12:45:32.097Z</time>
      </trkpt>
      <trkpt lat="48.10737" lon="1.33718">
        <ele>125</ele>
        <time>2018-10-09T12:45:33.097Z</time>
      </trkpt>
      <trkpt lat="48.10737" lon="1.33717">
        <ele>125</ele>
        <time>2018-10-09T12:45:34.097Z</time>
      </trkpt>
      <trkpt lat="48.10736" lon="1.33715">
        <ele>125</ele>
        <time>2018-10-09T12:45:35.097Z</time>
      </trkpt>
      <trkpt lat="48.10736" lon="1.33713">
        <ele>125</ele>
        <time>2018-10-09T12:45:36.097Z</time>
      </trkpt>
      <trkpt lat="48.10735" lon="1.33711">
        <ele>125</ele>
        <time>2018-10-09T12:45:37.097Z</time>
      </trkpt>
      <trkpt lat="48.10734" lon="1.33709">
        <ele>125</ele>
        <time>2018-10-09T12:45:38.097Z</time>
      </trkpt>
      <trkpt lat="48.10734" lon="1.33707">
        <ele>125</ele>
        <time>2018-10-09T12:45:39.097Z</time>
      </trkpt>
      <trkpt lat="48.10733" lon="1.33705">
        <ele>125</ele>
        <time>2018-10-09T12:45:40.097Z</time>
      </trkpt>
      <trkpt lat="48.10733" lon="1.33703">
        <ele>125</ele>
        <time>2018-10-09T12:45:41.097Z</time>
      </trkpt>
      <trkpt lat="48.10732" lon="1.33702">
        <ele>125</ele>
        <time>2018-10-09T12:45:42.097Z</time>
      </trkpt>
      <trkpt lat="48.10731" lon="1.337">
        <ele>125</ele>
        <time>2018-10-09T12:45:43.097Z</time>
      </trkpt>
      <trkpt lat="48.10731" lon="1.33698">
        <ele>125</ele>
        <time>2018-10-09T12:45:44.097Z</time>
      </trkpt>
      <trkpt lat="48.1073" lon="1.33696">
        <ele>125</ele>
        <time>2018-10-09T12:45:45.097Z</time>
      </trkpt>
      <trkpt lat="48.1073" lon="1.33694">
        <ele>125</ele>
        <time>2018-10-09T12:45:46.097Z</time>
      </trkpt>
      <trkpt lat="48.10729" lon="1.33692">
        <ele>125</ele>
        <time>2018-10-09T12:45:47.097Z</time>
      </trkpt>
      <trkpt lat="48.10728" lon="1.3369">
        <ele>125</ele>
        <time>2018-10-09T12:45:48.097Z</time>
      </trkpt>
      <trkpt lat="48.10728" lon="1.33689">
        <ele>125</ele>
        <time>2018-10-09T12:45:49.097Z</time>
      </trkpt>
      <trkpt lat="48.10727" lon="1.33687">
        <ele>125</ele>
        <time>2018-10-09T12:45:50.097Z</time>
      </trkpt>
      <trkpt lat="48.10727" lon="1.33685">
        <ele>124</ele>
        <time>2018-10-09T12:45:51.097Z</time>
      </trkpt>
      <trkpt lat="48.10726" lon="1.33683">
        <ele>124</ele>
        <time>2018-10-09T12:45:52.097Z</time>
      </trkpt>
      <trkpt lat="48.10726" lon="1.33681">
        <ele>124</ele>
        <time>2018-10-09T12:45:53.097Z</time>
      </trkpt>
      <trkpt lat="48.10725" lon="1.3368">
        <ele>124</ele>
        <time>2018-10-09T12:45:54.097Z</time>
      </trkpt>
      <trkpt lat="48.10724" lon="1.33678">
        <ele>124</ele>
        <time>2018-10-09T12:45:55.097Z</time>
      </trkpt>
      <trkpt lat="48.10724" lon="1.33676">
        <ele>124</ele>
        <time>2018-10-09T12:45:56.097Z</time>
      </trkpt>
      <trkpt lat="48.10723" lon="1.33674">
        <ele>124</ele>
        <time>2018-10-09T12:45:57.097Z</time>
      </trkpt>
      <trkpt lat="48.10723" lon="1.33673">
        <ele>124</ele>
        <time>2018-10-09T12:45:58.097Z</time>
      </trkpt>
      <trkpt lat="48.10722" lon="1.33671">
        <ele>124</ele>
        <time>2018-10-09T12:45:59.097Z</time>
      </trkpt>
      <trkpt lat="48.10722" lon="1.33669">
        <ele>124</ele>
        <time>2018-10-09T12:46:00.097Z</time>
      </trkpt>
      <trkpt lat="48.10721" lon="1.33667">
        <ele>124</ele>
        <time>2018-10-09T12:46:01.097Z</time>
      </trkpt>
      <trkpt lat="48.1072" lon="1.33666">
        <ele>124</ele>
        <time>2018-10-09T12:46:02.097Z</time>
      </trkpt>
      <trkpt lat="48.1072" lon="1.33664">
        <ele>124</ele>
        <time>2018-10-09T12:46:03.097Z</time>
      </trkpt>
      <trkpt lat="48.10719" lon="1.33662">
        <ele>123</ele>
        <time>2018-10-09T12:46:04.097Z</time>
      </trkpt>
      <trkpt lat="48.10719" lon="1.3366">
        <ele>124</ele>
        <time>2018-10-09T12:46:05.097Z</time>
      </trkpt>
      <trkpt lat="48.10718" lon="1.33658">
        <ele>123</ele>
        <time>2018-10-09T12:46:06.097Z</time>
      </trkpt>
      <trkpt lat="48.10718" lon="1.33656">
        <ele>123</ele>
        <time>2018-10-09T12:46:07.097Z</time>
      </trkpt>
      <trkpt lat="48.10717" lon="1.33654">
        <ele>123</ele>
        <time>2018-10-09T12:46:08.097Z</time>
      </trkpt>
      <trkpt lat="48.10717" lon="1.33653">
        <ele>123</ele>
        <time>2018-10-09T12:46:09.097Z</time>
      </trkpt>
      <trkpt lat="48.10716" lon="1.33651">
        <ele>123</ele>
        <time>2018-10-09T12:46:10.097Z</time>
      </trkpt>
      <trkpt lat="48.10716" lon="1.33649">
        <ele>123</ele>
        <time>2018-10-09T12:46:11.097Z</time>
      </trkpt>
      <trkpt lat="48.10716" lon="1.33647">
        <ele>123</ele>
        <time>2018-10-09T12:46:12.097Z</time>
      </trkpt>
      <trkpt lat="48.10715" lon="1.33645">
        <ele>124</ele>
        <time>2018-10-09T12:46:13.097Z</time>
      </trkpt>
      <trkpt lat="48.10715" lon="1.33643">
        <ele>123</ele>
        <time>2018-10-09T12:46:14.097Z</time>
      </trkpt>
      <trkpt lat="48.10715" lon="1.33641">
        <ele>123</ele>
        <time>2018-10-09T12:46:15.097Z</time>
      </trkpt>
      <trkpt lat="48.10714" lon="1.33639">
        <ele>123</ele>
        <time>2018-10-09T12:46:16.097Z</time>
      </trkpt>
      <trkpt lat="48.10714" lon="1.33637">
        <ele>123</ele>
        <time>2018-10-09T12:46:17.097Z</time>
      </trkpt>
      <trkpt lat="48.10714" lon="1.33635">
        <ele>123</ele>
        <time>2018-10-09T12:46:18.097Z</time>
      </trkpt>
      <trkpt lat="48.10714" lon="1.33633">
        <ele>123</ele>
        <time>2018-10-09T12:46:19.097Z</time>
      </trkpt>
      <trkpt lat="48.10714" lon="1.33631">
        <ele>123</ele>
        <time>2018-10-09T12:46:20.097Z</time>
      </trkpt>
      <trkpt lat="48.10714" lon="1.33629">
        <ele>123</ele>
        <time>2018-10-09T12:46:21.097Z</time>
      </trkpt>
      <trkpt lat="48.10714" lon="1.33627">
        <ele>123</ele>
        <time>2018-10-09T12:46:22.097Z</time>
      </trkpt>
      <trkpt lat="48.10714" lon="1.33625">
        <ele>123</ele>
        <time>2018-10-09T12:46:23.097Z</time>
      </trkpt>
      <trkpt lat="48.10714" lon="1.33624">
        <ele>124</ele>
        <time>2018-10-09T12:46:24.097Z</time>
      </trkpt>
      <trkpt lat="48.10714" lon="1.33622">
        <ele>124</ele>
        <time>2018-10-09T12:46:25.097Z</time>
      </trkpt>
      <trkpt lat="48.10714" lon="1.3362">
        <ele>124</ele>
        <time>2018-10-09T12:46:26.097Z</time>
      </trkpt>
      <trkpt lat="48.10715" lon="1.33618">
        <ele>124</ele>
        <time>2018-10-09T12:46:27.097Z</time>
      </trkpt>
      <trkpt lat="48.10715" lon="1.33616">
        <ele>124</ele>
        <time>2018-10-09T12:46:28.097Z</time>
      </trkpt>
      <trkpt lat="48.10716" lon="1.33614">
        <ele>124</ele>
        <time>2018-10-09T12:46:29.097Z</time>
      </trkpt>
      <trkpt lat="48.10716" lon="1.33612">
        <ele>124</ele>
        <time>2018-10-09T12:46:30.097Z</time>
      </trkpt>
      <trkpt lat="48.10716" lon="1.3361">
        <ele>124</ele>
        <time>2018-10-09T12:46:31.097Z</time>
      </trkpt>
      <trkpt lat="48.10717" lon="1.33608">
        <ele>124</ele>
        <time>2018-10-09T12:46:32.097Z</time>
      </trkpt>
      <trkpt lat="48.10717" lon="1.33606">
        <ele>124</ele>
        <time>2018-10-09T12:46:33.097Z</time>
      </trkpt>
      <trkpt lat="48.10717" lon="1.33604">
        <ele>124</ele>
        <time>2018-10-09T12:46:34.097Z</time>
      </trkpt>
      <trkpt lat="48.10718" lon="1.33602">
        <ele>124</ele>
        <time>2018-10-09T12:46:35.097Z</time>
      </trkpt>
      <trkpt lat="48.10718" lon="1.336">
        <ele>124</ele>
        <time>2018-10-09T12:46:36.097Z</time>
      </trkpt>
      <trkpt lat="48.10718" lon="1.33598">
        <ele>124</ele>
        <time>2018-10-09T12:46:37.097Z</time>
      </trkpt>
      <trkpt lat="48.10719" lon="1.33597">
        <ele>124</ele>
        <time>2018-10-09T12:46:38.097Z</time>
      </trkpt>
      <trkpt lat="48.10719" lon="1.33595">
        <ele>124</ele>
        <time>2018-10-09T12:46:39.097Z</time>
      </trkpt>
      <trkpt lat="48.10719" lon="1.33593">
        <ele>124</ele>
        <time>2018-10-09T12:46:40.097Z</time>
      </trkpt>
      <trkpt lat="48.10719" lon="1.33591">
        <ele>124</ele>
        <time>2018-10-09T12:46:41.097Z</time>
      </trkpt>
      <trkpt lat="48.1072" lon="1.33589">
        <ele>124</ele>
        <time>2018-10-09T12:46:42.097Z</time>
      </trkpt>
      <trkpt lat="48.1072" lon="1.33587">
        <ele>124</ele>
        <time>2018-10-09T12:46:43.097Z</time>
      </trkpt>
      <trkpt lat="48.1072" lon="1.33585">
        <ele>124</ele>
        <time>2018-10-09T12:46:44.097Z</time>
      </trkpt>
      <trkpt lat="48.10721" lon="1.33583">
        <ele>124</ele>
        <time>2018-10-09T12:46:45.097Z</time>
      </trkpt>
      <trkpt lat="48.10721" lon="1.33581">
        <ele>124</ele>
        <time>2018-10-09T12:46:46.097Z</time>
      </trkpt>
      <trkpt lat="48.10721" lon="1.33579">
        <ele>124</ele>
        <time>2018-10-09T12:46:47.097Z</time>
      </trkpt>
      <trkpt lat="48.10722" lon="1.33577">
        <ele>124</ele>
        <time>2018-10-09T12:46:48.097Z</time>
      </trkpt>
      <trkpt lat="48.10722" lon="1.33575">
        <ele>124</ele>
        <time>2018-10-09T12:46:49.097Z</time>
      </trkpt>
      <trkpt lat="48.10722" lon="1.33573">
        <ele>124</ele>
        <time>2018-10-09T12:46:50.097Z</time>
      </trkpt>
      <trkpt lat="48.10722" lon="1.33571">
        <ele>124</ele>
        <time>2018-10-09T12:46:51.097Z</time>
      </trkpt>
      <trkpt lat="48.10723" lon="1.33569">
        <ele>124</ele>
        <time>2018-10-09T12:46:52.097Z</time>
      </trkpt>
      <trkpt lat="48.10723" lon="1.33567">
        <ele>124</ele>
        <time>2018-10-09T12:46:53.097Z</time>
      </trkpt>
      <trkpt lat="48.10723" lon="1.33565">
        <ele>123</ele>
        <time>2018-10-09T12:46:54.097Z</time>
      </trkpt>
      <trkpt lat="48.10723" lon="1.33563">
        <ele>123</ele>
        <time>2018-10-09T12:46:55.097Z</time>
      </trkpt>
      <trkpt lat="48.10724" lon="1.33562">
        <ele>123</ele>
        <time>2018-10-09T12:46:56.097Z</time>
      </trkpt>
      <trkpt lat="48.10724" lon="1.3356">
        <ele>123</ele>
        <time>2018-10-09T12:46:57.097Z</time>
      </trkpt>
      <trkpt lat="48.10724" lon="1.33558">
        <ele>123</ele>
        <time>2018-10-09T12:46:58.097Z</time>
      </trkpt>
      <trkpt lat="48.10724" lon="1.33557">
        <ele>123</ele>
        <time>2018-10-09T12:46:59.097Z</time>
      </trkpt>
      <trkpt lat="48.10724" lon="1.33555">
        <ele>123</ele>
        <time>2018-10-09T12:47:00.097Z</time>
      </trkpt>
      <trkpt lat="48.10724" lon="1.33553">
        <ele>122</ele>
        <time>2018-10-09T12:47:01.097Z</time>
      </trkpt>
      <trkpt lat="48.10724" lon="1.33551">
        <ele>122</ele>
        <time>2018-10-09T12:47:02.097Z</time>
      </trkpt>
      <trkpt lat="48.10724" lon="1.33549">
        <ele>122</ele>
        <time>2018-10-09T12:47:03.097Z</time>
      </trkpt>
      <trkpt lat="48.10725" lon="1.33548">
        <ele>122</ele>
        <time>2018-10-09T12:47:04.097Z</time>
      </trkpt>
      <trkpt lat="48.10725" lon="1.33546">
        <ele>122</ele>
        <time>2018-10-09T12:47:05.097Z</time>
      </trkpt>
      <trkpt lat="48.10725" lon="1.33544">
        <ele>122</ele>
        <time>2018-10-09T12:47:06.097Z</time>
      </trkpt>
      <trkpt lat="48.10725" lon="1.33542">
        <ele>122</ele>
        <time>2018-10-09T12:47:07.097Z</time>
      </trkpt>
      <trkpt lat="48.10725" lon="1.3354">
        <ele>122</ele>
        <time>2018-10-09T12:47:08.097Z</time>
      </trkpt>
      <trkpt lat="48.10726" lon="1.33538">
        <ele>122</ele>
        <time>2018-10-09T12:47:09.097Z</time>
      </trkpt>
      <trkpt lat="48.10726" lon="1.33536">
        <ele>122</ele>
        <time>2018-10-09T12:47:10.097Z</time>
      </trkpt>
      <trkpt lat="48.10726" lon="1.33535">
        <ele>121</ele>
        <time>2018-10-09T12:47:11.097Z</time>
      </trkpt>
      <trkpt lat="48.10726" lon="1.33533">
        <ele>121</ele>
        <time>2018-10-09T12:47:12.097Z</time>
      </trkpt>
      <trkpt lat="48.10726" lon="1.33531">
        <ele>121</ele>
        <time>2018-10-09T12:47:13.097Z</time>
      </trkpt>
      <trkpt lat="48.10726" lon="1.33529">
        <ele>121</ele>
        <time>2018-10-09T12:47:14.097Z</time>
      </trkpt>
      <trkpt lat="48.10726" lon="1.33527">
        <ele>121</ele>
        <time>2018-10-09T12:47:15.097Z</time>
      </trkpt>
      <trkpt lat="48.10726" lon="1.33525">
        <ele>121</ele>
        <time>2018-10-09T12:47:16.097Z</time>
      </trkpt>
      <trkpt lat="48.10726" lon="1.33523">
        <ele>121</ele>
        <time>2018-10-09T12:47:17.097Z</time>
      </trkpt>
      <trkpt lat="48.10726" lon="1.33521">
        <ele>121</ele>
        <time>2018-10-09T12:47:18.097Z</time>
      </trkpt>
      <trkpt lat="48.10726" lon="1.33519">
        <ele>121</ele>
        <time>2018-10-09T12:47:19.097Z</time>
      </trkpt>
      <trkpt lat="48.10726" lon="1.33517">
        <ele>121</ele>
        <time>2018-10-09T12:47:20.097Z</time>
      </trkpt>
      <trkpt lat="48.10727" lon="1.33515">
        <ele>121</ele>
        <time>2018-10-09T12:47:21.097Z</time>
      </trkpt>
      <trkpt lat="48.10727" lon="1.33513">
        <ele>121</ele>
        <time>2018-10-09T12:47:22.097Z</time>
      </trkpt>
      <trkpt lat="48.10727" lon="1.33511">
        <ele>120</ele>
        <time>2018-10-09T12:47:23.097Z</time>
      </trkpt>
      <trkpt lat="48.10727" lon="1.3351">
        <ele>120</ele>
        <time>2018-10-09T12:47:24.097Z</time>
      </trkpt>
      <trkpt lat="48.10727" lon="1.33508">
        <ele>120</ele>
        <time>2018-10-09T12:47:25.097Z</time>
      </trkpt>
      <trkpt lat="48.10727" lon="1.33506">
        <ele>120</ele>
        <time>2018-10-09T12:47:26.097Z</time>
      </trkpt>
      <trkpt lat="48.10727" lon="1.33504">
        <ele>120</ele>
        <time>2018-10-09T12:47:27.097Z</time>
      </trkpt>
      <trkpt lat="48.10727" lon="1.33503">
        <ele>120</ele>
        <time>2018-10-09T12:47:28.097Z</time>
      </trkpt>
      <trkpt lat="48.10727" lon="1.33501">
        <ele>121</ele>
        <time>2018-10-09T12:47:29.097Z</time>
      </trkpt>
      <trkpt lat="48.10727" lon="1.33499">
        <ele>121</ele>
        <time>2018-10-09T12:47:30.097Z</time>
      </trkpt>
      <trkpt lat="48.10727" lon="1.33498">
        <ele>120</ele>
        <time>2018-10-09T12:47:31.097Z</time>
      </trkpt>
      <trkpt lat="48.10727" lon="1.33496">
        <ele>120</ele>
        <time>2018-10-09T12:47:32.097Z</time>
      </trkpt>
      <trkpt lat="48.10727" lon="1.33495">
        <ele>120</ele>
        <time>2018-10-09T12:47:33.097Z</time>
      </trkpt>
      <trkpt lat="48.10726" lon="1.33494">
        <ele>120</ele>
        <time>2018-10-09T12:47:34.097Z</time>
      </trkpt>
      <trkpt lat="48.10726" lon="1.33494">
        <ele>120</ele>
        <time>2018-10-09T12:47:35.097Z</time>
      </trkpt>
      <trkpt lat="48.10725" lon="1.33494">
        <ele>120</ele>
        <time>2018-10-09T12:47:36.097Z</time>
      </trkpt>
      <trkpt lat="48.10724" lon="1.33495">
        <ele>120</ele>
        <time>2018-10-09T12:47:37.097Z</time>
      </trkpt>
      <trkpt lat="48.10723" lon="1.33495">
        <ele>120</ele>
        <time>2018-10-09T12:47:38.097Z</time>
      </trkpt>
      <trkpt lat="48.10722" lon="1.33496">
        <ele>120</ele>
        <time>2018-10-09T12:47:39.097Z</time>
      </trkpt>
      <trkpt lat="48.10721" lon="1.33497">
        <ele>119</ele>
        <time>2018-10-09T12:47:40.097Z</time>
      </trkpt>
      <trkpt lat="48.10721" lon="1.33499">
        <ele>119</ele>
        <time>2018-10-09T12:47:41.097Z</time>
      </trkpt>
      <trkpt lat="48.1072" lon="1.335">
        <ele>119</ele>
        <time>2018-10-09T12:47:42.097Z</time>
      </trkpt>
      <trkpt lat="48.1072" lon="1.33502">
        <ele>119</ele>
        <time>2018-10-09T12:47:43.097Z</time>
      </trkpt>
      <trkpt lat="48.1072" lon="1.33504">
        <ele>119</ele>
        <time>2018-10-09T12:47:44.097Z</time>
      </trkpt>
      <trkpt lat="48.1072" lon="1.33505">
        <ele>119</ele>
        <time>2018-10-09T12:47:45.097Z</time>
      </trkpt>
      <trkpt lat="48.1072" lon="1.33507">
        <ele>119</ele>
        <time>2018-10-09T12:47:46.097Z</time>
      </trkpt>
      <trkpt lat="48.1072" lon="1.33509">
        <ele>119</ele>
        <time>2018-10-09T12:47:47.097Z</time>
      </trkpt>
      <trkpt lat="48.1072" lon="1.33511">
        <ele>120</ele>
        <time>2018-10-09T12:47:48.097Z</time>
      </trkpt>
      <trkpt lat="48.1072" lon="1.33513">
        <ele>120</ele>
        <time>2018-10-09T12:47:49.097Z</time>
      </trkpt>
      <trkpt lat="48.1072" lon="1.33515">
        <ele>120</ele>
        <time>2018-10-09T12:47:50.097Z</time>
      </trkpt>
      <trkpt lat="48.1072" lon="1.33517">
        <ele>120</ele>
        <time>2018-10-09T12:47:51.097Z</time>
      </trkpt>
      <trkpt lat="48.1072" lon="1.33519">
        <ele>120</ele>
        <time>2018-10-09T12:47:52.097Z</time>
      </trkpt>
      <trkpt lat="48.1072" lon="1.33521">
        <ele>120</ele>
        <time>2018-10-09T12:47:53.097Z</time>
      </trkpt>
      <trkpt lat="48.1072" lon="1.33522">
        <ele>120</ele>
        <time>2018-10-09T12:47:54.097Z</time>
      </trkpt>
      <trkpt lat="48.10719" lon="1.33524">
        <ele>120</ele>
        <time>2018-10-09T12:47:55.097Z</time>
      </trkpt>
      <trkpt lat="48.10719" lon="1.33526">
        <ele>120</ele>
        <time>2018-10-09T12:47:56.097Z</time>
      </trkpt>
      <trkpt lat="48.10719" lon="1.33528">
        <ele>120</ele>
        <time>2018-10-09T12:47:57.097Z</time>
      </trkpt>
      <trkpt lat="48.10719" lon="1.3353">
        <ele>120</ele>
        <time>2018-10-09T12:47:58.097Z</time>
      </trkpt>
      <trkpt lat="48.10719" lon="1.33532">
        <ele>120</ele>
        <time>2018-10-09T12:47:59.097Z</time>
      </trkpt>
      <trkpt lat="48.10719" lon="1.33534">
        <ele>120</ele>
        <time>2018-10-09T12:48:00.097Z</time>
      </trkpt>
      <trkpt lat="48.10719" lon="1.33535">
        <ele>120</ele>
        <time>2018-10-09T12:48:01.097Z</time>
      </trkpt>
      <trkpt lat="48.10719" lon="1.33537">
        <ele>120</ele>
        <time>2018-10-09T12:48:02.097Z</time>
      </trkpt>
      <trkpt lat="48.10718" lon="1.33539">
        <ele>120</ele>
        <time>2018-10-09T12:48:03.097Z</time>
      </trkpt>
      <trkpt lat="48.10718" lon="1.3354">
        <ele>120</ele>
        <time>2018-10-09T12:48:04.097Z</time>
      </trkpt>
      <trkpt lat="48.10718" lon="1.33542">
        <ele>121</ele>
        <time>2018-10-09T12:48:05.097Z</time>
      </trkpt>
      <trkpt lat="48.10718" lon="1.33544">
        <ele>120</ele>
        <time>2018-10-09T12:48:06.097Z</time>
      </trkpt>
      <trkpt lat="48.10718" lon="1.33546">
        <ele>121</ele>
        <time>2018-10-09T12:48:07.097Z</time>
      </trkpt>
      <trkpt lat="48.10718" lon="1.33548">
        <ele>120</ele>
        <time>2018-10-09T12:48:08.097Z</time>
      </trkpt>
      <trkpt lat="48.10717" lon="1.3355">
        <ele>121</ele>
        <time>2018-10-09T12:48:09.097Z</time>
      </trkpt>
      <trkpt lat="48.10717" lon="1.33552">
        <ele>120</ele>
        <time>2018-10-09T12:48:10.097Z</time>
      </trkpt>
      <trkpt lat="48.10717" lon="1.33553">
        <ele>120</ele>
        <time>2018-10-09T12:48:11.097Z</time>
      </trkpt>
      <trkpt lat="48.10717" lon="1.33555">
        <ele>121</ele>
        <time>2018-10-09T12:48:12.097Z</time>
      </trkpt>
      <trkpt lat="48.10717" lon="1.33557">
        <ele>120</ele>
        <time>2018-10-09T12:48:13.097Z</time>
      </trkpt>
      <trkpt lat="48.10717" lon="1.33559">
        <ele>121</ele>
        <time>2018-10-09T12:48:14.097Z</time>
      </trkpt>
      <trkpt lat="48.10716" lon="1.33561">
        <ele>120</ele>
        <time>2018-10-09T12:48:15.097Z</time>
      </trkpt>
      <trkpt lat="48.10716" lon="1.33562">
        <ele>121</ele>
        <time>2018-10-09T12:48:16.097Z</time>
      </trkpt>
      <trkpt lat="48.10715" lon="1.33564">
        <ele>120</ele>
        <time>2018-10-09T12:48:17.097Z</time>
      </trkpt>
      <trkpt lat="48.10715" lon="1.33566">
        <ele>120</ele>
        <time>2018-10-09T12:48:18.097Z</time>
      </trkpt>
      <trkpt lat="48.10714" lon="1.33567">
        <ele>120</ele>
        <time>2018-10-09T12:48:19.097Z</time>
      </trkpt>
      <trkpt lat="48.10713" lon="1.33569">
        <ele>120</ele>
        <time>2018-10-09T12:48:20.097Z</time>
      </trkpt>
      <trkpt lat="48.10713" lon="1.3357">
        <ele>120</ele>
        <time>2018-10-09T12:48:21.097Z</time>
      </trkpt>
      <trkpt lat="48.10712" lon="1.33572">
        <ele>120</ele>
        <time>2018-10-09T12:48:22.097Z</time>
      </trkpt>
      <trkpt lat="48.10711" lon="1.33573">
        <ele>120</ele>
        <time>2018-10-09T12:48:23.097Z</time>
      </trkpt>
      <trkpt lat="48.1071" lon="1.33574">
        <ele>120</ele>
        <time>2018-10-09T12:48:24.097Z</time>
      </trkpt>
      <trkpt lat="48.10709" lon="1.33575">
        <ele>120</ele>
        <time>2018-10-09T12:48:25.097Z</time>
      </trkpt>
      <trkpt lat="48.10708" lon="1.33576">
        <ele>120</ele>
        <time>2018-10-09T12:48:26.097Z</time>
      </trkpt>
      <trkpt lat="48.10706" lon="1.33576">
        <ele>119</ele>
        <time>2018-10-09T12:48:27.097Z</time>
      </trkpt>
      <trkpt lat="48.10705" lon="1.33576">
        <ele>119</ele>
        <time>2018-10-09T12:48:28.097Z</time>
      </trkpt>
      <trkpt lat="48.10704" lon="1.33576">
        <ele>119</ele>
        <time>2018-10-09T12:48:29.097Z</time>
      </trkpt>
      <trkpt lat="48.10703" lon="1.33576">
        <ele>119</ele>
        <time>2018-10-09T12:48:30.097Z</time>
      </trkpt>
      <trkpt lat="48.10702" lon="1.33576">
        <ele>119</ele>
        <time>2018-10-09T12:48:31.097Z</time>
      </trkpt>
      <trkpt lat="48.10701" lon="1.33576">
        <ele>119</ele>
        <time>2018-10-09T12:48:32.097Z</time>
      </trkpt>
      <trkpt lat="48.10699" lon="1.33575">
        <ele>119</ele>
        <time>2018-10-09T12:48:33.097Z</time>
      </trkpt>
      <trkpt lat="48.10698" lon="1.33575">
        <ele>118</ele>
        <time>2018-10-09T12:48:34.097Z</time>
      </trkpt>
      <trkpt lat="48.10697" lon="1.33575">
        <ele>118</ele>
        <time>2018-10-09T12:48:35.097Z</time>
      </trkpt>
      <trkpt lat="48.10695" lon="1.33574">
        <ele>118</ele>
        <time>2018-10-09T12:48:36.097Z</time>
      </trkpt>
      <trkpt lat="48.10694" lon="1.33574">
        <ele>118</ele>
        <time>2018-10-09T12:48:37.097Z</time>
      </trkpt>
      <trkpt lat="48.10693" lon="1.33573">
        <ele>118</ele>
        <time>2018-10-09T12:48:38.097Z</time>
      </trkpt>
      <trkpt lat="48.10692" lon="1.33573">
        <ele>118</ele>
        <time>2018-10-09T12:48:39.097Z</time>
      </trkpt>
      <trkpt lat="48.1069" lon="1.33573">
        <ele>118</ele>
        <time>2018-10-09T12:48:40.097Z</time>
      </trkpt>
      <trkpt lat="48.10689" lon="1.33572">
        <ele>118</ele>
        <time>2018-10-09T12:48:41.097Z</time>
      </trkpt>
      <trkpt lat="48.10688" lon="1.33572">
        <ele>117</ele>
        <time>2018-10-09T12:48:42.097Z</time>
      </trkpt>
      <trkpt lat="48.10686" lon="1.33572">
        <ele>117</ele>
        <time>2018-10-09T12:48:43.097Z</time>
      </trkpt>
      <trkpt lat="48.10685" lon="1.33571">
        <ele>118</ele>
        <time>2018-10-09T12:48:44.097Z</time>
      </trkpt>
      <trkpt lat="48.10684" lon="1.33571">
        <ele>118</ele>
        <time>2018-10-09T12:48:45.097Z</time>
      </trkpt>
      <trkpt lat="48.10683" lon="1.3357">
        <ele>118</ele>
        <time>2018-10-09T12:48:46.097Z</time>
      </trkpt>
      <trkpt lat="48.10681" lon="1.3357">
        <ele>118</ele>
        <time>2018-10-09T12:48:47.097Z</time>
      </trkpt>
      <trkpt lat="48.1068" lon="1.3357">
        <ele>119</ele>
        <time>2018-10-09T12:48:48.097Z</time>
      </trkpt>
      <trkpt lat="48.10679" lon="1.33569">
        <ele>119</ele>
        <time>2018-10-09T12:48:49.097Z</time>
      </trkpt>
      <trkpt lat="48.10677" lon="1.33569">
        <ele>119</ele>
        <time>2018-10-09T12:48:50.097Z</time>
      </trkpt>
      <trkpt lat="48.10676" lon="1.33568">
        <ele>119</ele>
        <time>2018-10-09T12:48:51.097Z</time>
      </trkpt>
      <trkpt lat="48.10675" lon="1.33568">
        <ele>119</ele>
        <time>2018-10-09T12:48:52.097Z</time>
      </trkpt>
      <trkpt lat="48.10674" lon="1.33567">
        <ele>119</ele>
        <time>2018-10-09T12:48:53.097Z</time>
      </trkpt>
      <trkpt lat="48.10672" lon="1.33567">
        <ele>119</ele>
        <time>2018-10-09T12:48:54.097Z</time>
      </trkpt>
      <trkpt lat="48.10671" lon="1.33566">
        <ele>119</ele>
        <time>2018-10-09T12:48:55.097Z</time>
      </trkpt>
      <trkpt lat="48.1067" lon="1.33565">
        <ele>120</ele>
        <time>2018-10-09T12:48:56.097Z</time>
      </trkpt>
      <trkpt lat="48.10668" lon="1.33565">
        <ele>120</ele>
        <time>2018-10-09T12:48:57.097Z</time>
      </trkpt>
      <trkpt lat="48.10667" lon="1.33564">
        <ele>120</ele>
        <time>2018-10-09T12:48:58.097Z</time>
      </trkpt>
      <trkpt lat="48.10666" lon="1.33564">
        <ele>120</ele>
        <time>2018-10-09T12:48:59.097Z</time>
      </trkpt>
      <trkpt lat="48.10664" lon="1.33563">
        <ele>120</ele>
        <time>2018-10-09T12:49:00.097Z</time>
      </trkpt>
      <trkpt lat="48.10663" lon="1.33563">
        <ele>120</ele>
        <time>2018-10-09T12:49:01.097Z</time>
      </trkpt>
      <trkpt lat="48.10662" lon="1.33562">
        <ele>120</ele>
        <time>2018-10-09T12:49:02.097Z</time>
      </trkpt>
      <trkpt lat="48.10661" lon="1.33562">
        <ele>120</ele>
        <time>2018-10-09T12:49:03.097Z</time>
      </trkpt>
      <trkpt lat="48.10659" lon="1.33562">
        <ele>120</ele>
        <time>2018-10-09T12:49:04.097Z</time>
      </trkpt>
      <trkpt lat="48.10658" lon="1.33561">
        <ele>120</ele>
        <time>2018-10-09T12:49:05.097Z</time>
      </trkpt>
      <trkpt lat="48.10657" lon="1.33561">
        <ele>120</ele>
        <time>2018-10-09T12:49:06.097Z</time>
      </trkpt>
      <trkpt lat="48.10656" lon="1.33561">
        <ele>120</ele>
        <time>2018-10-09T12:49:07.097Z</time>
      </trkpt>
      <trkpt lat="48.10654" lon="1.33561">
        <ele>120</ele>
        <time>2018-10-09T12:49:08.097Z</time>
      </trkpt>
      <trkpt lat="48.10653" lon="1.3356">
        <ele>120</ele>
        <time>2018-10-09T12:49:09.097Z</time>
      </trkpt>
      <trkpt lat="48.10652" lon="1.3356">
        <ele>120</ele>
        <time>2018-10-09T12:49:10.097Z</time>
      </trkpt>
      <trkpt lat="48.10651" lon="1.33559">
        <ele>120</ele>
        <time>2018-10-09T12:49:11.097Z</time>
      </trkpt>
      <trkpt lat="48.10649" lon="1.33559">
        <ele>120</ele>
        <time>2018-10-09T12:49:12.097Z</time>
      </trkpt>
      <trkpt lat="48.10648" lon="1.33559">
        <ele>120</ele>
        <time>2018-10-09T12:49:13.097Z</time>
      </trkpt>
      <trkpt lat="48.10647" lon="1.33558">
        <ele>120</ele>
        <time>2018-10-09T12:49:14.097Z</time>
      </trkpt>
      <trkpt lat="48.10646" lon="1.33558">
        <ele>119</ele>
        <time>2018-10-09T12:49:15.097Z</time>
      </trkpt>
      <trkpt lat="48.10644" lon="1.33557">
        <ele>119</ele>
        <time>2018-10-09T12:49:16.097Z</time>
      </trkpt>
      <trkpt lat="48.10643" lon="1.33557">
        <ele>119</ele>
        <time>2018-10-09T12:49:17.097Z</time>
      </trkpt>
      <trkpt lat="48.10642" lon="1.33557">
        <ele>119</ele>
        <time>2018-10-09T12:49:18.097Z</time>
      </trkpt>
      <trkpt lat="48.1064" lon="1.33556">
        <ele>119</ele>
        <time>2018-10-09T12:49:19.097Z</time>
      </trkpt>
      <trkpt lat="48.10639" lon="1.33556">
        <ele>119</ele>
        <time>2018-10-09T12:49:20.097Z</time>
      </trkpt>
      <trkpt lat="48.10638" lon="1.33556">
        <ele>119</ele>
        <time>2018-10-09T12:49:21.097Z</time>
      </trkpt>
      <trkpt lat="48.10637" lon="1.33555">
        <ele>119</ele>
        <time>2018-10-09T12:49:22.097Z</time>
      </trkpt>
      <trkpt lat="48.10635" lon="1.33555">
        <ele>119</ele>
        <time>2018-10-09T12:49:23.097Z</time>
      </trkpt>
      <trkpt lat="48.10634" lon="1.33554">
        <ele>119</ele>
        <time>2018-10-09T12:49:24.097Z</time>
      </trkpt>
      <trkpt lat="48.10633" lon="1.33554">
        <ele>119</ele>
        <time>2018-10-09T12:49:25.097Z</time>
      </trkpt>
      <trkpt lat="48.10632" lon="1.33554">
        <ele>118</ele>
        <time>2018-10-09T12:49:26.097Z</time>
      </trkpt>
      <trkpt lat="48.10631" lon="1.33553">
        <ele>118</ele>
        <time>2018-10-09T12:49:27.097Z</time>
      </trkpt>
      <trkpt lat="48.1063" lon="1.33553">
        <ele>118</ele>
        <time>2018-10-09T12:49:28.097Z</time>
      </trkpt>
      <trkpt lat="48.10629" lon="1.33553">
        <ele>118</ele>
        <time>2018-10-09T12:49:29.097Z</time>
      </trkpt>
      <trkpt lat="48.10627" lon="1.33553">
        <ele>118</ele>
        <time>2018-10-09T12:49:30.097Z</time>
      </trkpt>
      <trkpt lat="48.10626" lon="1.33553">
        <ele>117</ele>
        <time>2018-10-09T12:49:31.097Z</time>
      </trkpt>
      <trkpt lat="48.10625" lon="1.33552">
        <ele>117</ele>
        <time>2018-10-09T12:49:32.097Z</time>
      </trkpt>
      <trkpt lat="48.10624" lon="1.33552">
        <ele>117</ele>
        <time>2018-10-09T12:49:33.097Z</time>
      </trkpt>
      <trkpt lat="48.10622" lon="1.33552">
        <ele>117</ele>
        <time>2018-10-09T12:49:34.097Z</time>
      </trkpt>
      <trkpt lat="48.10621" lon="1.33551">
        <ele>117</ele>
        <time>2018-10-09T12:49:35.097Z</time>
      </trkpt>
      <trkpt lat="48.1062" lon="1.33551">
        <ele>117</ele>
        <time>2018-10-09T12:49:36.097Z</time>
      </trkpt>
      <trkpt lat="48.10619" lon="1.33551">
        <ele>117</ele>
        <time>2018-10-09T12:49:37.097Z</time>
      </trkpt>
      <trkpt lat="48.10617" lon="1.33551">
        <ele>117</ele>
        <time>2018-10-09T12:49:38.097Z</time>
      </trkpt>
      <trkpt lat="48.10616" lon="1.3355">
        <ele>118</ele>
        <time>2018-10-09T12:49:39.097Z</time>
      </trkpt>
      <trkpt lat="48.10615" lon="1.3355">
        <ele>118</ele>
        <time>2018-10-09T12:49:40.097Z</time>
      </trkpt>
      <trkpt lat="48.10613" lon="1.3355">
        <ele>118</ele>
        <time>2018-10-09T12:49:41.097Z</time>
      </trkpt>
      <trkpt lat="48.10612" lon="1.33549">
        <ele>118</ele>
        <time>2018-10-09T12:49:42.097Z</time>
      </trkpt>
      <trkpt lat="48.1061" lon="1.33549">
        <ele>118</ele>
        <time>2018-10-09T12:49:43.097Z</time>
      </trkpt>
      <trkpt lat="48.10609" lon="1.33549">
        <ele>118</ele>
        <time>2018-10-09T12:49:44.097Z</time>
      </trkpt>
      <trkpt lat="48.10608" lon="1.33548">
        <ele>118</ele>
        <time>2018-10-09T12:49:45.097Z</time>
      </trkpt>
      <trkpt lat="48.10606" lon="1.33548">
        <ele>118</ele>
        <time>2018-10-09T12:49:46.097Z</time>
      </trkpt>
      <trkpt lat="48.10605" lon="1.33548">
        <ele>118</ele>
        <time>2018-10-09T12:49:47.097Z</time>
      </trkpt>
      <trkpt lat="48.10604" lon="1.33548">
        <ele>118</ele>
        <time>2018-10-09T12:49:48.097Z</time>
      </trkpt>
      <trkpt lat="48.10602" lon="1.33547">
        <ele>118</ele>
        <time>2018-10-09T12:49:49.097Z</time>
      </trkpt>
      <trkpt lat="48.10601" lon="1.33547">
        <ele>118</ele>
        <time>2018-10-09T12:49:50.097Z</time>
      </trkpt>
      <trkpt lat="48.10599" lon="1.33547">
        <ele>119</ele>
        <time>2018-10-09T12:49:51.097Z</time>
      </trkpt>
      <trkpt lat="48.10598" lon="1.33547">
        <ele>119</ele>
        <time>2018-10-09T12:49:52.097Z</time>
      </trkpt>
      <trkpt lat="48.10597" lon="1.33547">
        <ele>119</ele>
        <time>2018-10-09T12:49:53.097Z</time>
      </trkpt>
      <trkpt lat="48.10595" lon="1.33547">
        <ele>119</ele>
        <time>2018-10-09T12:49:54.097Z</time>
      </trkpt>
      <trkpt lat="48.10594" lon="1.33546">
        <ele>119</ele>
        <time>2018-10-09T12:49:55.097Z</time>
      </trkpt>
      <trkpt lat="48.10593" lon="1.33546">
        <ele>119</ele>
        <time>2018-10-09T12:49:56.097Z</time>
      </trkpt>
      <trkpt lat="48.10592" lon="1.33546">
        <ele>118</ele>
        <time>2018-10-09T12:49:57.097Z</time>
      </trkpt>
      <trkpt lat="48.1059" lon="1.33545">
        <ele>118</ele>
        <time>2018-10-09T12:49:58.097Z</time>
      </trkpt>
      <trkpt lat="48.10589" lon="1.33545">
        <ele>118</ele>
        <time>2018-10-09T12:49:59.097Z</time>
      </trkpt>
      <trkpt lat="48.10588" lon="1.33545">
        <ele>118</ele>
        <time>2018-10-09T12:50:00.097Z</time>
      </trkpt>
      <trkpt lat="48.10587" lon="1.33544">
        <ele>118</ele>
        <time>2018-10-09T12:50:01.097Z</time>
      </trkpt>
      <trkpt lat="48.10585" lon="1.33544">
        <ele>118</ele>
        <time>2018-10-09T12:50:02.097Z</time>
      </trkpt>
      <trkpt lat="48.10584" lon="1.33544">
        <ele>118</ele>
        <time>2018-10-09T12:50:03.097Z</time>
      </trkpt>
      <trkpt lat="48.10583" lon="1.33544">
        <ele>118</ele>
        <time>2018-10-09T12:50:04.097Z</time>
      </trkpt>
      <trkpt lat="48.10582" lon="1.33544">
        <ele>118</ele>
        <time>2018-10-09T12:50:05.097Z</time>
      </trkpt>
      <trkpt lat="48.1058" lon="1.33544">
        <ele>118</ele>
        <time>2018-10-09T12:50:06.097Z</time>
      </trkpt>
      <trkpt lat="48.10579" lon="1.33543">
        <ele>118</ele>
        <time>2018-10-09T12:50:07.097Z</time>
      </trkpt>
      <trkpt lat="48.10578" lon="1.33543">
        <ele>118</ele>
        <time>2018-10-09T12:50:08.097Z</time>
      </trkpt>
      <trkpt lat="48.10577" lon="1.33543">
        <ele>119</ele>
        <time>2018-10-09T12:50:09.097Z</time>
      </trkpt>
      <trkpt lat="48.10575" lon="1.33542">
        <ele>118</ele>
        <time>2018-10-09T12:50:10.097Z</time>
      </trkpt>
      <trkpt lat="48.10574" lon="1.33542">
        <ele>118</ele>
        <time>2018-10-09T12:50:11.097Z</time>
      </trkpt>
      <trkpt lat="48.10573" lon="1.33542">
        <ele>118</ele>
        <time>2018-10-09T12:50:12.097Z</time>
      </trkpt>
      <trkpt lat="48.10571" lon="1.33542">
        <ele>118</ele>
        <time>2018-10-09T12:50:13.097Z</time>
      </trkpt>
      <trkpt lat="48.1057" lon="1.33541">
        <ele>118</ele>
        <time>2018-10-09T12:50:14.097Z</time>
      </trkpt>
      <trkpt lat="48.10569" lon="1.33541">
        <ele>118</ele>
        <time>2018-10-09T12:50:15.097Z</time>
      </trkpt>
      <trkpt lat="48.10568" lon="1.33541">
        <ele>118</ele>
        <time>2018-10-09T12:50:16.097Z</time>
      </trkpt>
      <trkpt lat="48.10566" lon="1.33541">
        <ele>118</ele>
        <time>2018-10-09T12:50:17.097Z</time>
      </trkpt>
      <trkpt lat="48.10565" lon="1.33541">
        <ele>118</ele>
        <time>2018-10-09T12:50:18.097Z</time>
      </trkpt>
      <trkpt lat="48.10564" lon="1.3354">
        <ele>118</ele>
        <time>2018-10-09T12:50:19.097Z</time>
      </trkpt>
      <trkpt lat="48.10563" lon="1.3354">
        <ele>118</ele>
        <time>2018-10-09T12:50:20.097Z</time>
      </trkpt>
      <trkpt lat="48.10561" lon="1.3354">
        <ele>118</ele>
        <time>2018-10-09T12:50:21.097Z</time>
      </trkpt>
      <trkpt lat="48.1056" lon="1.3354">
        <ele>118</ele>
        <time>2018-10-09T12:50:22.097Z</time>
      </trkpt>
      <trkpt lat="48.10559" lon="1.3354">
        <ele>118</ele>
        <time>2018-10-09T12:50:23.097Z</time>
      </trkpt>
      <trkpt lat="48.10558" lon="1.3354">
        <ele>118</ele>
        <time>2018-10-09T12:50:24.097Z</time>
      </trkpt>
      <trkpt lat="48.10556" lon="1.3354">
        <ele>118</ele>
        <time>2018-10-09T12:50:25.097Z</time>
      </trkpt>
      <trkpt lat="48.10555" lon="1.3354">
        <ele>118</ele>
        <time>2018-10-09T12:50:26.097Z</time>
      </trkpt>
      <trkpt lat="48.10554" lon="1.3354">
        <ele>118</ele>
        <time>2018-10-09T12:50:27.097Z</time>
      </trkpt>
      <trkpt lat="48.10553" lon="1.33539">
        <ele>119</ele>
        <time>2018-10-09T12:50:28.097Z</time>
      </trkpt>
      <trkpt lat="48.10551" lon="1.33539">
        <ele>119</ele>
        <time>2018-10-09T12:50:29.097Z</time>
      </trkpt>
      <trkpt lat="48.1055" lon="1.33539">
        <ele>119</ele>
        <time>2018-10-09T12:50:30.097Z</time>
      </trkpt>
      <trkpt lat="48.10549" lon="1.33539">
        <ele>119</ele>
        <time>2018-10-09T12:50:31.097Z</time>
      </trkpt>
      <trkpt lat="48.10547" lon="1.33538">
        <ele>119</ele>
        <time>2018-10-09T12:50:32.097Z</time>
      </trkpt>
      <trkpt lat="48.10546" lon="1.33538">
        <ele>119</ele>
        <time>2018-10-09T12:50:33.097Z</time>
      </trkpt>
      <trkpt lat="48.10545" lon="1.33538">
        <ele>119</ele>
        <time>2018-10-09T12:50:34.097Z</time>
      </trkpt>
      <trkpt lat="48.10543" lon="1.33538">
        <ele>119</ele>
        <time>2018-10-09T12:50:35.097Z</time>
      </trkpt>
      <trkpt lat="48.10542" lon="1.33538">
        <ele>119</ele>
        <time>2018-10-09T12:50:36.097Z</time>
      </trkpt>
      <trkpt lat="48.10541" lon="1.33537">
        <ele>119</ele>
        <time>2018-10-09T12:50:37.097Z</time>
      </trkpt>
      <trkpt lat="48.1054" lon="1.33537">
        <ele>119</ele>
        <time>2018-10-09T12:50:38.097Z</time>
      </trkpt>
      <trkpt lat="48.10538" lon="1.33537">
        <ele>119</ele>
        <time>2018-10-09T12:50:39.097Z</time>
      </trkpt>
      <trkpt lat="48.10537" lon="1.33537">
        <ele>119</ele>
        <time>2018-10-09T12:50:40.097Z</time>
      </trkpt>
      <trkpt lat="48.10536" lon="1.33537">
        <ele>119</ele>
        <time>2018-10-09T12:50:41.097Z</time>
      </trkpt>
      <trkpt lat="48.10534" lon="1.33537">
        <ele>119</ele>
        <time>2018-10-09T12:50:42.097Z</time>
      </trkpt>
      <trkpt lat="48.10533" lon="1.33536">
        <ele>119</ele>
        <time>2018-10-09T12:50:43.097Z</time>
      </trkpt>
      <trkpt lat="48.10532" lon="1.33536">
        <ele>119</ele>
        <time>2018-10-09T12:50:44.097Z</time>
      </trkpt>
      <trkpt lat="48.10531" lon="1.33536">
        <ele>119</ele>
        <time>2018-10-09T12:50:45.097Z</time>
      </trkpt>
      <trkpt lat="48.10529" lon="1.33536">
        <ele>119</ele>
        <time>2018-10-09T12:50:46.097Z</time>
      </trkpt>
      <trkpt lat="48.10528" lon="1.33536">
        <ele>119</ele>
        <time>2018-10-09T12:50:47.097Z</time>
      </trkpt>
      <trkpt lat="48.10527" lon="1.33536">
        <ele>119</ele>
        <time>2018-10-09T12:50:48.097Z</time>
      </trkpt>
      <trkpt lat="48.10525" lon="1.33536">
        <ele>119</ele>
        <time>2018-10-09T12:50:49.097Z</time>
      </trkpt>
      <trkpt lat="48.10524" lon="1.33536">
        <ele>119</ele>
        <time>2018-10-09T12:50:50.097Z</time>
      </trkpt>
      <trkpt lat="48.10523" lon="1.33535">
        <ele>119</ele>
        <time>2018-10-09T12:50:51.097Z</time>
      </trkpt>
      <trkpt lat="48.10521" lon="1.33535">
        <ele>119</ele>
        <time>2018-10-09T12:50:52.097Z</time>
      </trkpt>
      <trkpt lat="48.1052" lon="1.33535">
        <ele>119</ele>
        <time>2018-10-09T12:50:53.097Z</time>
      </trkpt>
      <trkpt lat="48.10519" lon="1.33535">
        <ele>119</ele>
        <time>2018-10-09T12:50:54.097Z</time>
      </trkpt>
      <trkpt lat="48.10517" lon="1.33535">
        <ele>119</ele>
        <time>2018-10-09T12:50:55.097Z</time>
      </trkpt>
      <trkpt lat="48.10516" lon="1.33535">
        <ele>119</ele>
        <time>2018-10-09T12:50:56.097Z</time>
      </trkpt>
      <trkpt lat="48.10515" lon="1.33535">
        <ele>119</ele>
        <time>2018-10-09T12:50:57.097Z</time>
      </trkpt>
      <trkpt lat="48.10513" lon="1.33534">
        <ele>119</ele>
        <time>2018-10-09T12:50:58.097Z</time>
      </trkpt>
      <trkpt lat="48.10512" lon="1.33534">
        <ele>119</ele>
        <time>2018-10-09T12:50:59.097Z</time>
      </trkpt>
      <trkpt lat="48.10511" lon="1.33534">
        <ele>120</ele>
        <time>2018-10-09T12:51:00.097Z</time>
      </trkpt>
      <trkpt lat="48.10509" lon="1.33534">
        <ele>119</ele>
        <time>2018-10-09T12:51:01.097Z</time>
      </trkpt>
      <trkpt lat="48.10508" lon="1.33534">
        <ele>119</ele>
        <time>2018-10-09T12:51:02.097Z</time>
      </trkpt>
      <trkpt lat="48.10507" lon="1.33534">
        <ele>120</ele>
        <time>2018-10-09T12:51:03.097Z</time>
      </trkpt>
      <trkpt lat="48.10505" lon="1.33535">
        <ele>119</ele>
        <time>2018-10-09T12:51:04.097Z</time>
      </trkpt>
      <trkpt lat="48.10504" lon="1.33535">
        <ele>119</ele>
        <time>2018-10-09T12:51:05.097Z</time>
      </trkpt>
      <trkpt lat="48.10503" lon="1.33535">
        <ele>119</ele>
        <time>2018-10-09T12:51:06.097Z</time>
      </trkpt>
      <trkpt lat="48.10501" lon="1.33535">
        <ele>119</ele>
        <time>2018-10-09T12:51:07.097Z</time>
      </trkpt>
      <trkpt lat="48.105" lon="1.33535">
        <ele>120</ele>
        <time>2018-10-09T12:51:08.097Z</time>
      </trkpt>
      <trkpt lat="48.10499" lon="1.33535">
        <ele>120</ele>
        <time>2018-10-09T12:51:09.097Z</time>
      </trkpt>
      <trkpt lat="48.10497" lon="1.33535">
        <ele>120</ele>
        <time>2018-10-09T12:51:10.097Z</time>
      </trkpt>
      <trkpt lat="48.10496" lon="1.33535">
        <ele>120</ele>
        <time>2018-10-09T12:51:11.097Z</time>
      </trkpt>
      <trkpt lat="48.10495" lon="1.33535">
        <ele>119</ele>
        <time>2018-10-09T12:51:12.097Z</time>
      </trkpt>
      <trkpt lat="48.10493" lon="1.33535">
        <ele>119</ele>
        <time>2018-10-09T12:51:13.097Z</time>
      </trkpt>
      <trkpt lat="48.10492" lon="1.33535">
        <ele>119</ele>
        <time>2018-10-09T12:51:14.097Z</time>
      </trkpt>
      <trkpt lat="48.10491" lon="1.33535">
        <ele>119</ele>
        <time>2018-10-09T12:51:15.097Z</time>
      </trkpt>
      <trkpt lat="48.10489" lon="1.33536">
        <ele>119</ele>
        <time>2018-10-09T12:51:16.097Z</time>
      </trkpt>
      <trkpt lat="48.10488" lon="1.33536">
        <ele>119</ele>
        <time>2018-10-09T12:51:17.097Z</time>
      </trkpt>
      <trkpt lat="48.10487" lon="1.33536">
        <ele>119</ele>
        <time>2018-10-09T12:51:18.097Z</time>
      </trkpt>
      <trkpt lat="48.10485" lon="1.33536">
        <ele>119</ele>
        <time>2018-10-09T12:51:19.097Z</time>
      </trkpt>
      <trkpt lat="48.10484" lon="1.33536">
        <ele>119</ele>
        <time>2018-10-09T12:51:20.097Z</time>
      </trkpt>
      <trkpt lat="48.10483" lon="1.33536">
        <ele>119</ele>
        <time>2018-10-09T12:51:21.097Z</time>
      </trkpt>
      <trkpt lat="48.10481" lon="1.33536">
        <ele>119</ele>
        <time>2018-10-09T12:51:22.097Z</time>
      </trkpt>
      <trkpt lat="48.1048" lon="1.33536">
        <ele>119</ele>
        <time>2018-10-09T12:51:23.097Z</time>
      </trkpt>
      <trkpt lat="48.10479" lon="1.33536">
        <ele>119</ele>
        <time>2018-10-09T12:51:24.097Z</time>
      </trkpt>
      <trkpt lat="48.10478" lon="1.33537">
        <ele>119</ele>
        <time>2018-10-09T12:51:25.097Z</time>
      </trkpt>
      <trkpt lat="48.10476" lon="1.33537">
        <ele>119</ele>
        <time>2018-10-09T12:51:26.097Z</time>
      </trkpt>
      <trkpt lat="48.10475" lon="1.33537">
        <ele>119</ele>
        <time>2018-10-09T12:51:27.097Z</time>
      </trkpt>
      <trkpt lat="48.10474" lon="1.33537">
        <ele>119</ele>
        <time>2018-10-09T12:51:28.097Z</time>
      </trkpt>
      <trkpt lat="48.10472" lon="1.33537">
        <ele>119</ele>
        <time>2018-10-09T12:51:29.097Z</time>
      </trkpt>
      <trkpt lat="48.10471" lon="1.33537">
        <ele>119</ele>
        <time>2018-10-09T12:51:30.097Z</time>
      </trkpt>
      <trkpt lat="48.10469" lon="1.33538">
        <ele>119</ele>
        <time>2018-10-09T12:51:31.097Z</time>
      </trkpt>
      <trkpt lat="48.10468" lon="1.33538">
        <ele>119</ele>
        <time>2018-10-09T12:51:32.097Z</time>
      </trkpt>
      <trkpt lat="48.10467" lon="1.33538">
        <ele>119</ele>
        <time>2018-10-09T12:51:33.097Z</time>
      </trkpt>
      <trkpt lat="48.10465" lon="1.33538">
        <ele>119</ele>
        <time>2018-10-09T12:51:34.097Z</time>
      </trkpt>
      <trkpt lat="48.10464" lon="1.33538">
        <ele>118</ele>
        <time>2018-10-09T12:51:35.097Z</time>
      </trkpt>
      <trkpt lat="48.10463" lon="1.33538">
        <ele>118</ele>
        <time>2018-10-09T12:51:36.097Z</time>
      </trkpt>
      <trkpt lat="48.10462" lon="1.33538">
        <ele>119</ele>
        <time>2018-10-09T12:51:37.097Z</time>
      </trkpt>
      <trkpt lat="48.1046" lon="1.33538">
        <ele>119</ele>
        <time>2018-10-09T12:51:38.097Z</time>
      </trkpt>
      <trkpt lat="48.10459" lon="1.33538">
        <ele>119</ele>
        <time>2018-10-09T12:51:39.097Z</time>
      </trkpt>
      <trkpt lat="48.10458" lon="1.33538">
        <ele>119</ele>
        <time>2018-10-09T12:51:40.097Z</time>
      </trkpt>
      <trkpt lat="48.10457" lon="1.33538">
        <ele>119</ele>
        <time>2018-10-09T12:51:41.097Z</time>
      </trkpt>
      <trkpt lat="48.10455" lon="1.33538">
        <ele>119</ele>
        <time>2018-10-09T12:51:42.097Z</time>
      </trkpt>
      <trkpt lat="48.10454" lon="1.33538">
        <ele>119</ele>
        <time>2018-10-09T12:51:43.097Z</time>
      </trkpt>
      <trkpt lat="48.10453" lon="1.33538">
        <ele>119</ele>
        <time>2018-10-09T12:51:44.097Z</time>
      </trkpt>
      <trkpt lat="48.10451" lon="1.33537">
        <ele>119</ele>
        <time>2018-10-09T12:51:45.097Z</time>
      </trkpt>
      <trkpt lat="48.1045" lon="1.33537">
        <ele>119</ele>
        <time>2018-10-09T12:51:46.097Z</time>
      </trkpt>
      <trkpt lat="48.10449" lon="1.33537">
        <ele>119</ele>
        <time>2018-10-09T12:51:47.097Z</time>
      </trkpt>
      <trkpt lat="48.10448" lon="1.33537">
        <ele>119</ele>
        <time>2018-10-09T12:51:48.097Z</time>
      </trkpt>
      <trkpt lat="48.10446" lon="1.33537">
        <ele>119</ele>
        <time>2018-10-09T12:51:49.097Z</time>
      </trkpt>
      <trkpt lat="48.10445" lon="1.33537">
        <ele>119</ele>
        <time>2018-10-09T12:51:50.097Z</time>
      </trkpt>
      <trkpt lat="48.10444" lon="1.33537">
        <ele>119</ele>
        <time>2018-10-09T12:51:51.097Z</time>
      </trkpt>
      <trkpt lat="48.10443" lon="1.33537">
        <ele>119</ele>
        <time>2018-10-09T12:51:52.097Z</time>
      </trkpt>
      <trkpt lat="48.10441" lon="1.33537">
        <ele>119</ele>
        <time>2018-10-09T12:51:53.097Z</time>
      </trkpt>
      <trkpt lat="48.1044" lon="1.33536">
        <ele>119</ele>
        <time>2018-10-09T12:51:54.097Z</time>
      </trkpt>
      <trkpt lat="48.10439" lon="1.33536">
        <ele>119</ele>
        <time>2018-10-09T12:51:55.097Z</time>
      </trkpt>
      <trkpt lat="48.10438" lon="1.33536">
        <ele>119</ele>
        <time>2018-10-09T12:51:56.097Z</time>
      </trkpt>
      <trkpt lat="48.10436" lon="1.33536">
        <ele>119</ele>
        <time>2018-10-09T12:51:57.097Z</time>
      </trkpt>
      <trkpt lat="48.10435" lon="1.33536">
        <ele>119</ele>
        <time>2018-10-09T12:51:58.097Z</time>
      </trkpt>
      <trkpt lat="48.10434" lon="1.33536">
        <ele>119</ele>
        <time>2018-10-09T12:51:59.097Z</time>
      </trkpt>
      <trkpt lat="48.10433" lon="1.33536">
        <ele>119</ele>
        <time>2018-10-09T12:52:00.097Z</time>
      </trkpt>
      <trkpt lat="48.10431" lon="1.33536">
        <ele>119</ele>
        <time>2018-10-09T12:52:01.097Z</time>
      </trkpt>
      <trkpt lat="48.1043" lon="1.33536">
        <ele>119</ele>
        <time>2018-10-09T12:52:02.097Z</time>
      </trkpt>
      <trkpt lat="48.10429" lon="1.33535">
        <ele>119</ele>
        <time>2018-10-09T12:52:03.097Z</time>
      </trkpt>
      <trkpt lat="48.10428" lon="1.33535">
        <ele>120</ele>
        <time>2018-10-09T12:52:04.097Z</time>
      </trkpt>
      <trkpt lat="48.10426" lon="1.33535">
        <ele>120</ele>
        <time>2018-10-09T12:52:05.097Z</time>
      </trkpt>
      <trkpt lat="48.10425" lon="1.33535">
        <ele>120</ele>
        <time>2018-10-09T12:52:06.097Z</time>
      </trkpt>
      <trkpt lat="48.10424" lon="1.33535">
        <ele>120</ele>
        <time>2018-10-09T12:52:07.097Z</time>
      </trkpt>
      <trkpt lat="48.10423" lon="1.33535">
        <ele>120</ele>
        <time>2018-10-09T12:52:08.097Z</time>
      </trkpt>
      <trkpt lat="48.10422" lon="1.33535">
        <ele>120</ele>
        <time>2018-10-09T12:52:09.097Z</time>
      </trkpt>
      <trkpt lat="48.1042" lon="1.33535">
        <ele>120</ele>
        <time>2018-10-09T12:52:10.097Z</time>
      </trkpt>
      <trkpt lat="48.10419" lon="1.33535">
        <ele>120</ele>
        <time>2018-10-09T12:52:11.097Z</time>
      </trkpt>
      <trkpt lat="48.10418" lon="1.33535">
        <ele>120</ele>
        <time>2018-10-09T12:52:12.097Z</time>
      </trkpt>
      <trkpt lat="48.10416" lon="1.33535">
        <ele>120</ele>
        <time>2018-10-09T12:52:13.097Z</time>
      </trkpt>
      <trkpt lat="48.10415" lon="1.33535">
        <ele>120</ele>
        <time>2018-10-09T12:52:14.097Z</time>
      </trkpt>
      <trkpt lat="48.10414" lon="1.33536">
        <ele>120</ele>
        <time>2018-10-09T12:52:15.097Z</time>
      </trkpt>
      <trkpt lat="48.10413" lon="1.33536">
        <ele>120</ele>
        <time>2018-10-09T12:52:16.097Z</time>
      </trkpt>
      <trkpt lat="48.10411" lon="1.33536">
        <ele>120</ele>
        <time>2018-10-09T12:52:17.097Z</time>
      </trkpt>
      <trkpt lat="48.1041" lon="1.33536">
        <ele>120</ele>
        <time>2018-10-09T12:52:18.097Z</time>
      </trkpt>
      <trkpt lat="48.10409" lon="1.33536">
        <ele>120</ele>
        <time>2018-10-09T12:52:19.097Z</time>
      </trkpt>
      <trkpt lat="48.10408" lon="1.33537">
        <ele>120</ele>
        <time>2018-10-09T12:52:20.097Z</time>
      </trkpt>
      <trkpt lat="48.10406" lon="1.33537">
        <ele>120</ele>
        <time>2018-10-09T12:52:21.097Z</time>
      </trkpt>
      <trkpt lat="48.10405" lon="1.33537">
        <ele>120</ele>
        <time>2018-10-09T12:52:22.097Z</time>
      </trkpt>
      <trkpt lat="48.10404" lon="1.33537">
        <ele>120</ele>
        <time>2018-10-09T12:52:23.097Z</time>
      </trkpt>
      <trkpt lat="48.10402" lon="1.33537">
        <ele>120</ele>
        <time>2018-10-09T12:52:24.097Z</time>
      </trkpt>
      <trkpt lat="48.10401" lon="1.33537">
        <ele>120</ele>
        <time>2018-10-09T12:52:25.097Z</time>
      </trkpt>
      <trkpt lat="48.104" lon="1.33537">
        <ele>120</ele>
        <time>2018-10-09T12:52:26.097Z</time>
      </trkpt>
      <trkpt lat="48.10398" lon="1.33537">
        <ele>120</ele>
        <time>2018-10-09T12:52:27.097Z</time>
      </trkpt>
      <trkpt lat="48.10397" lon="1.33536">
        <ele>120</ele>
        <time>2018-10-09T12:52:28.097Z</time>
      </trkpt>
      <trkpt lat="48.10396" lon="1.33536">
        <ele>120</ele>
        <time>2018-10-09T12:52:29.097Z</time>
      </trkpt>
      <trkpt lat="48.10395" lon="1.33536">
        <ele>120</ele>
        <time>2018-10-09T12:52:30.097Z</time>
      </trkpt>
      <trkpt lat="48.10393" lon="1.33535">
        <ele>120</ele>
        <time>2018-10-09T12:52:31.097Z</time>
      </trkpt>
      <trkpt lat="48.10392" lon="1.33535">
        <ele>120</ele>
        <time>2018-10-09T12:52:32.097Z</time>
      </trkpt>
      <trkpt lat="48.10391" lon="1.33534">
        <ele>120</ele>
        <time>2018-10-09T12:52:33.097Z</time>
      </trkpt>
      <trkpt lat="48.1039" lon="1.33534">
        <ele>120</ele>
        <time>2018-10-09T12:52:34.097Z</time>
      </trkpt>
      <trkpt lat="48.10388" lon="1.33533">
        <ele>120</ele>
        <time>2018-10-09T12:52:35.097Z</time>
      </trkpt>
      <trkpt lat="48.10387" lon="1.33533">
        <ele>120</ele>
        <time>2018-10-09T12:52:36.097Z</time>
      </trkpt>
      <trkpt lat="48.10386" lon="1.33532">
        <ele>120</ele>
        <time>2018-10-09T12:52:37.097Z</time>
      </trkpt>
      <trkpt lat="48.10385" lon="1.33532">
        <ele>120</ele>
        <time>2018-10-09T12:52:38.097Z</time>
      </trkpt>
      <trkpt lat="48.10384" lon="1.33531">
        <ele>120</ele>
        <time>2018-10-09T12:52:39.097Z</time>
      </trkpt>
      <trkpt lat="48.10382" lon="1.33531">
        <ele>120</ele>
        <time>2018-10-09T12:52:40.097Z</time>
      </trkpt>
      <trkpt lat="48.10381" lon="1.3353">
        <ele>120</ele>
        <time>2018-10-09T12:52:41.097Z</time>
      </trkpt>
      <trkpt lat="48.1038" lon="1.33529">
        <ele>120</ele>
        <time>2018-10-09T12:52:42.097Z</time>
      </trkpt>
      <trkpt lat="48.10379" lon="1.33529">
        <ele>121</ele>
        <time>2018-10-09T12:52:43.097Z</time>
      </trkpt>
      <trkpt lat="48.10377" lon="1.33528">
        <ele>121</ele>
        <time>2018-10-09T12:52:44.097Z</time>
      </trkpt>
      <trkpt lat="48.10376" lon="1.33527">
        <ele>120</ele>
        <time>2018-10-09T12:52:45.097Z</time>
      </trkpt>
      <trkpt lat="48.10375" lon="1.33527">
        <ele>120</ele>
        <time>2018-10-09T12:52:46.097Z</time>
      </trkpt>
      <trkpt lat="48.10374" lon="1.33526">
        <ele>120</ele>
        <time>2018-10-09T12:52:47.097Z</time>
      </trkpt>
      <trkpt lat="48.10372" lon="1.33526">
        <ele>120</ele>
        <time>2018-10-09T12:52:48.097Z</time>
      </trkpt>
      <trkpt lat="48.10371" lon="1.33525">
        <ele>120</ele>
        <time>2018-10-09T12:52:49.097Z</time>
      </trkpt>
      <trkpt lat="48.1037" lon="1.33525">
        <ele>120</ele>
        <time>2018-10-09T12:52:50.097Z</time>
      </trkpt>
      <trkpt lat="48.10369" lon="1.33525">
        <ele>120</ele>
        <time>2018-10-09T12:52:51.097Z</time>
      </trkpt>
      <trkpt lat="48.10367" lon="1.33525">
        <ele>121</ele>
        <time>2018-10-09T12:52:52.097Z</time>
      </trkpt>
      <trkpt lat="48.10366" lon="1.33525">
        <ele>120</ele>
        <time>2018-10-09T12:52:53.097Z</time>
      </trkpt>
      <trkpt lat="48.10365" lon="1.33525">
        <ele>120</ele>
        <time>2018-10-09T12:52:54.097Z</time>
      </trkpt>
      <trkpt lat="48.10364" lon="1.33525">
        <ele>120</ele>
        <time>2018-10-09T12:52:55.097Z</time>
      </trkpt>
      <trkpt lat="48.10362" lon="1.33525">
        <ele>120</ele>
        <time>2018-10-09T12:52:56.097Z</time>
      </trkpt>
      <trkpt lat="48.10361" lon="1.33525">
        <ele>120</ele>
        <time>2018-10-09T12:52:57.097Z</time>
      </trkpt>
      <trkpt lat="48.1036" lon="1.33526">
        <ele>120</ele>
        <time>2018-10-09T12:52:58.097Z</time>
      </trkpt>
      <trkpt lat="48.10358" lon="1.33526">
        <ele>120</ele>
        <time>2018-10-09T12:52:59.097Z</time>
      </trkpt>
      <trkpt lat="48.10357" lon="1.33526">
        <ele>120</ele>
        <time>2018-10-09T12:53:00.097Z</time>
      </trkpt>
      <trkpt lat="48.10356" lon="1.33526">
        <ele>120</ele>
        <time>2018-10-09T12:53:01.097Z</time>
      </trkpt>
      <trkpt lat="48.10354" lon="1.33526">
        <ele>120</ele>
        <time>2018-10-09T12:53:02.097Z</time>
      </trkpt>
      <trkpt lat="48.10353" lon="1.33526">
        <ele>120</ele>
        <time>2018-10-09T12:53:03.097Z</time>
      </trkpt>
      <trkpt lat="48.10352" lon="1.33526">
        <ele>120</ele>
        <time>2018-10-09T12:53:04.097Z</time>
      </trkpt>
      <trkpt lat="48.10351" lon="1.33527">
        <ele>120</ele>
        <time>2018-10-09T12:53:05.097Z</time>
      </trkpt>
      <trkpt lat="48.10349" lon="1.33527">
        <ele>120</ele>
        <time>2018-10-09T12:53:06.097Z</time>
      </trkpt>
      <trkpt lat="48.10348" lon="1.33527">
        <ele>120</ele>
        <time>2018-10-09T12:53:07.097Z</time>
      </trkpt>
      <trkpt lat="48.10347" lon="1.33527">
        <ele>120</ele>
        <time>2018-10-09T12:53:08.097Z</time>
      </trkpt>
      <trkpt lat="48.10345" lon="1.33527">
        <ele>120</ele>
        <time>2018-10-09T12:53:09.097Z</time>
      </trkpt>
      <trkpt lat="48.10344" lon="1.33527">
        <ele>120</ele>
        <time>2018-10-09T12:53:10.097Z</time>
      </trkpt>
      <trkpt lat="48.10343" lon="1.33527">
        <ele>120</ele>
        <time>2018-10-09T12:53:11.097Z</time>
      </trkpt>
      <trkpt lat="48.10341" lon="1.33527">
        <ele>120</ele>
        <time>2018-10-09T12:53:12.097Z</time>
      </trkpt>
      <trkpt lat="48.1034" lon="1.33527">
        <ele>120</ele>
        <time>2018-10-09T12:53:13.097Z</time>
      </trkpt>
      <trkpt lat="48.10339" lon="1.33528">
        <ele>120</ele>
        <time>2018-10-09T12:53:14.097Z</time>
      </trkpt>
      <trkpt lat="48.10337" lon="1.33528">
        <ele>119</ele>
        <time>2018-10-09T12:53:15.097Z</time>
      </trkpt>
      <trkpt lat="48.10336" lon="1.33528">
        <ele>119</ele>
        <time>2018-10-09T12:53:16.097Z</time>
      </trkpt>
      <trkpt lat="48.10335" lon="1.33528">
        <ele>120</ele>
        <time>2018-10-09T12:53:17.097Z</time>
      </trkpt>
      <trkpt lat="48.10334" lon="1.33528">
        <ele>119</ele>
        <time>2018-10-09T12:53:18.097Z</time>
      </trkpt>
      <trkpt lat="48.10333" lon="1.33528">
        <ele>120</ele>
        <time>2018-10-09T12:53:19.097Z</time>
      </trkpt>
      <trkpt lat="48.10332" lon="1.33528">
        <ele>120</ele>
        <time>2018-10-09T12:53:20.097Z</time>
      </trkpt>
      <trkpt lat="48.10331" lon="1.33528">
        <ele>120</ele>
        <time>2018-10-09T12:53:21.097Z</time>
      </trkpt>
      <trkpt lat="48.10329" lon="1.33528">
        <ele>120</ele>
        <time>2018-10-09T12:53:22.097Z</time>
      </trkpt>
      <trkpt lat="48.10328" lon="1.33528">
        <ele>119</ele>
        <time>2018-10-09T12:53:23.097Z</time>
      </trkpt>
      <trkpt lat="48.10327" lon="1.33528">
        <ele>120</ele>
        <time>2018-10-09T12:53:24.097Z</time>
      </trkpt>
      <trkpt lat="48.10326" lon="1.33528">
        <ele>120</ele>
        <time>2018-10-09T12:53:25.097Z</time>
      </trkpt>
      <trkpt lat="48.10325" lon="1.33528">
        <ele>119</ele>
        <time>2018-10-09T12:53:26.097Z</time>
      </trkpt>
      <trkpt lat="48.10324" lon="1.33528">
        <ele>119</ele>
        <time>2018-10-09T12:53:27.097Z</time>
      </trkpt>
      <trkpt lat="48.10323" lon="1.33528">
        <ele>119</ele>
        <time>2018-10-09T12:53:28.097Z</time>
      </trkpt>
      <trkpt lat="48.10322" lon="1.33528">
        <ele>119</ele>
        <time>2018-10-09T12:53:29.097Z</time>
      </trkpt>
      <trkpt lat="48.1032" lon="1.33528">
        <ele>118</ele>
        <time>2018-10-09T12:53:30.097Z</time>
      </trkpt>
      <trkpt lat="48.10319" lon="1.33528">
        <ele>118</ele>
        <time>2018-10-09T12:53:31.097Z</time>
      </trkpt>
      <trkpt lat="48.10318" lon="1.33528">
        <ele>119</ele>
        <time>2018-10-09T12:53:32.097Z</time>
      </trkpt>
      <trkpt lat="48.10317" lon="1.33528">
        <ele>119</ele>
        <time>2018-10-09T12:53:33.097Z</time>
      </trkpt>
      <trkpt lat="48.10316" lon="1.33528">
        <ele>119</ele>
        <time>2018-10-09T12:53:34.097Z</time>
      </trkpt>
      <trkpt lat="48.10315" lon="1.33528">
        <ele>118</ele>
        <time>2018-10-09T12:53:35.097Z</time>
      </trkpt>
      <trkpt lat="48.10314" lon="1.33528">
        <ele>118</ele>
        <time>2018-10-09T12:53:36.097Z</time>
      </trkpt>
      <trkpt lat="48.10313" lon="1.33529">
        <ele>118</ele>
        <time>2018-10-09T12:53:37.097Z</time>
      </trkpt>
      <trkpt lat="48.10312" lon="1.33529">
        <ele>118</ele>
        <time>2018-10-09T12:53:38.097Z</time>
      </trkpt>
      <trkpt lat="48.10311" lon="1.33529">
        <ele>118</ele>
        <time>2018-10-09T12:53:39.097Z</time>
      </trkpt>
      <trkpt lat="48.1031" lon="1.3353">
        <ele>118</ele>
        <time>2018-10-09T12:53:40.097Z</time>
      </trkpt>
      <trkpt lat="48.10309" lon="1.3353">
        <ele>119</ele>
        <time>2018-10-09T12:53:41.097Z</time>
      </trkpt>
      <trkpt lat="48.10308" lon="1.33531">
        <ele>119</ele>
        <time>2018-10-09T12:53:42.097Z</time>
      </trkpt>
      <trkpt lat="48.10306" lon="1.33532">
        <ele>120</ele>
        <time>2018-10-09T12:53:43.097Z</time>
      </trkpt>
      <trkpt lat="48.10305" lon="1.33533">
        <ele>119</ele>
        <time>2018-10-09T12:53:44.097Z</time>
      </trkpt>
      <trkpt lat="48.10304" lon="1.33534">
        <ele>120</ele>
        <time>2018-10-09T12:53:45.097Z</time>
      </trkpt>
      <trkpt lat="48.10303" lon="1.33535">
        <ele>120</ele>
        <time>2018-10-09T12:53:46.097Z</time>
      </trkpt>
      <trkpt lat="48.10302" lon="1.33537">
        <ele>120</ele>
        <time>2018-10-09T12:53:47.097Z</time>
      </trkpt>
      <trkpt lat="48.10302" lon="1.33538">
        <ele>120</ele>
        <time>2018-10-09T12:53:48.097Z</time>
      </trkpt>
      <trkpt lat="48.10301" lon="1.3354">
        <ele>120</ele>
        <time>2018-10-09T12:53:49.097Z</time>
      </trkpt>
      <trkpt lat="48.10301" lon="1.33541">
        <ele>120</ele>
        <time>2018-10-09T12:53:50.097Z</time>
      </trkpt>
      <trkpt lat="48.10301" lon="1.33543">
        <ele>120</ele>
        <time>2018-10-09T12:53:51.097Z</time>
      </trkpt>
      <trkpt lat="48.103" lon="1.33545">
        <ele>120</ele>
        <time>2018-10-09T12:53:52.097Z</time>
      </trkpt>
      <trkpt lat="48.103" lon="1.33547">
        <ele>120</ele>
        <time>2018-10-09T12:53:53.097Z</time>
      </trkpt>
      <trkpt lat="48.103" lon="1.33548">
        <ele>120</ele>
        <time>2018-10-09T12:53:54.097Z</time>
      </trkpt>
      <trkpt lat="48.103" lon="1.3355">
        <ele>120</ele>
        <time>2018-10-09T12:53:55.097Z</time>
      </trkpt>
      <trkpt lat="48.103" lon="1.33552">
        <ele>120</ele>
        <time>2018-10-09T12:53:56.097Z</time>
      </trkpt>
      <trkpt lat="48.103" lon="1.33553">
        <ele>120</ele>
        <time>2018-10-09T12:53:57.097Z</time>
      </trkpt>
      <trkpt lat="48.10299" lon="1.33555">
        <ele>120</ele>
        <time>2018-10-09T12:53:58.097Z</time>
      </trkpt>
      <trkpt lat="48.10299" lon="1.33556">
        <ele>120</ele>
        <time>2018-10-09T12:53:59.097Z</time>
      </trkpt>
      <trkpt lat="48.10298" lon="1.33558">
        <ele>120</ele>
        <time>2018-10-09T12:54:00.097Z</time>
      </trkpt>
      <trkpt lat="48.10297" lon="1.33559">
        <ele>121</ele>
        <time>2018-10-09T12:54:01.097Z</time>
      </trkpt>
      <trkpt lat="48.10297" lon="1.33561">
        <ele>121</ele>
        <time>2018-10-09T12:54:02.097Z</time>
      </trkpt>
      <trkpt lat="48.10296" lon="1.33562">
        <ele>121</ele>
        <time>2018-10-09T12:54:03.097Z</time>
      </trkpt>
      <trkpt lat="48.10296" lon="1.33563">
        <ele>121</ele>
        <time>2018-10-09T12:54:04.097Z</time>
      </trkpt>
      <trkpt lat="48.10295" lon="1.33564">
        <ele>121</ele>
        <time>2018-10-09T12:54:05.097Z</time>
      </trkpt>
      <trkpt lat="48.10294" lon="1.33565">
        <ele>121</ele>
        <time>2018-10-09T12:54:06.097Z</time>
      </trkpt>
      <trkpt lat="48.10293" lon="1.33565">
        <ele>121</ele>
        <time>2018-10-09T12:54:07.097Z</time>
      </trkpt>
      <trkpt lat="48.10292" lon="1.33566">
        <ele>121</ele>
        <time>2018-10-09T12:54:08.097Z</time>
      </trkpt>
      <trkpt lat="48.10291" lon="1.33567">
        <ele>121</ele>
        <time>2018-10-09T12:54:09.097Z</time>
      </trkpt>
      <trkpt lat="48.10289" lon="1.33567">
        <ele>121</ele>
        <time>2018-10-09T12:54:10.097Z</time>
      </trkpt>
      <trkpt lat="48.10288" lon="1.33568">
        <ele>121</ele>
        <time>2018-10-09T12:54:11.097Z</time>
      </trkpt>
      <trkpt lat="48.10287" lon="1.33568">
        <ele>121</ele>
        <time>2018-10-09T12:54:12.097Z</time>
      </trkpt>
      <trkpt lat="48.10286" lon="1.33568">
        <ele>121</ele>
        <time>2018-10-09T12:54:13.097Z</time>
      </trkpt>
      <trkpt lat="48.10285" lon="1.33569">
        <ele>121</ele>
        <time>2018-10-09T12:54:14.097Z</time>
      </trkpt>
      <trkpt lat="48.10283" lon="1.33569">
        <ele>121</ele>
        <time>2018-10-09T12:54:15.097Z</time>
      </trkpt>
      <trkpt lat="48.10282" lon="1.33569">
        <ele>121</ele>
        <time>2018-10-09T12:54:16.097Z</time>
      </trkpt>
      <trkpt lat="48.10281" lon="1.33569">
        <ele>121</ele>
        <time>2018-10-09T12:54:17.097Z</time>
      </trkpt>
      <trkpt lat="48.1028" lon="1.33569">
        <ele>121</ele>
        <time>2018-10-09T12:54:18.097Z</time>
      </trkpt>
      <trkpt lat="48.10278" lon="1.33569">
        <ele>121</ele>
        <time>2018-10-09T12:54:19.097Z</time>
      </trkpt>
      <trkpt lat="48.10277" lon="1.33569">
        <ele>121</ele>
        <time>2018-10-09T12:54:20.097Z</time>
      </trkpt>
      <trkpt lat="48.10276" lon="1.33569">
        <ele>121</ele>
        <time>2018-10-09T12:54:21.097Z</time>
      </trkpt>
      <trkpt lat="48.10275" lon="1.33569">
        <ele>120</ele>
        <time>2018-10-09T12:54:22.097Z</time>
      </trkpt>
      <trkpt lat="48.10274" lon="1.33569">
        <ele>120</ele>
        <time>2018-10-09T12:54:23.097Z</time>
      </trkpt>
      <trkpt lat="48.10273" lon="1.33569">
        <ele>120</ele>
        <time>2018-10-09T12:54:24.097Z</time>
      </trkpt>
      <trkpt lat="48.10271" lon="1.33569">
        <ele>120</ele>
        <time>2018-10-09T12:54:25.097Z</time>
      </trkpt>
      <trkpt lat="48.1027" lon="1.33569">
        <ele>121</ele>
        <time>2018-10-09T12:54:26.097Z</time>
      </trkpt>
      <trkpt lat="48.10269" lon="1.33569">
        <ele>121</ele>
        <time>2018-10-09T12:54:27.097Z</time>
      </trkpt>
      <trkpt lat="48.10267" lon="1.33569">
        <ele>121</ele>
        <time>2018-10-09T12:54:28.097Z</time>
      </trkpt>
      <trkpt lat="48.10266" lon="1.33569">
        <ele>121</ele>
        <time>2018-10-09T12:54:29.097Z</time>
      </trkpt>
      <trkpt lat="48.10265" lon="1.3357">
        <ele>121</ele>
        <time>2018-10-09T12:54:30.097Z</time>
      </trkpt>
      <trkpt lat="48.10264" lon="1.3357">
        <ele>121</ele>
        <time>2018-10-09T12:54:31.097Z</time>
      </trkpt>
      <trkpt lat="48.10262" lon="1.3357">
        <ele>121</ele>
        <time>2018-10-09T12:54:32.097Z</time>
      </trkpt>
      <trkpt lat="48.10261" lon="1.3357">
        <ele>121</ele>
        <time>2018-10-09T12:54:33.097Z</time>
      </trkpt>
      <trkpt lat="48.1026" lon="1.3357">
        <ele>121</ele>
        <time>2018-10-09T12:54:34.097Z</time>
      </trkpt>
      <trkpt lat="48.10259" lon="1.33571">
        <ele>121</ele>
        <time>2018-10-09T12:54:35.097Z</time>
      </trkpt>
      <trkpt lat="48.10257" lon="1.33571">
        <ele>121</ele>
        <time>2018-10-09T12:54:36.097Z</time>
      </trkpt>
      <trkpt lat="48.10256" lon="1.33571">
        <ele>121</ele>
        <time>2018-10-09T12:54:37.097Z</time>
      </trkpt>
      <trkpt lat="48.10255" lon="1.33571">
        <ele>121</ele>
        <time>2018-10-09T12:54:38.097Z</time>
      </trkpt>
      <trkpt lat="48.10254" lon="1.33571">
        <ele>121</ele>
        <time>2018-10-09T12:54:39.097Z</time>
      </trkpt>
      <trkpt lat="48.10252" lon="1.33572">
        <ele>121</ele>
        <time>2018-10-09T12:54:40.097Z</time>
      </trkpt>
      <trkpt lat="48.10251" lon="1.33572">
        <ele>121</ele>
        <time>2018-10-09T12:54:41.097Z</time>
      </trkpt>
      <trkpt lat="48.1025" lon="1.33572">
        <ele>121</ele>
        <time>2018-10-09T12:54:42.097Z</time>
      </trkpt>
      <trkpt lat="48.10248" lon="1.33572">
        <ele>121</ele>
        <time>2018-10-09T12:54:43.097Z</time>
      </trkpt>
      <trkpt lat="48.10247" lon="1.33572">
        <ele>121</ele>
        <time>2018-10-09T12:54:44.097Z</time>
      </trkpt>
      <trkpt lat="48.10246" lon="1.33572">
        <ele>121</ele>
        <time>2018-10-09T12:54:45.097Z</time>
      </trkpt>
      <trkpt lat="48.10245" lon="1.33572">
        <ele>121</ele>
        <time>2018-10-09T12:54:46.097Z</time>
      </trkpt>
      <trkpt lat="48.10243" lon="1.33572">
        <ele>121</ele>
        <time>2018-10-09T12:54:47.097Z</time>
      </trkpt>
      <trkpt lat="48.10242" lon="1.33573">
        <ele>121</ele>
        <time>2018-10-09T12:54:48.097Z</time>
      </trkpt>
      <trkpt lat="48.10241" lon="1.33573">
        <ele>121</ele>
        <time>2018-10-09T12:54:49.097Z</time>
      </trkpt>
      <trkpt lat="48.1024" lon="1.33573">
        <ele>121</ele>
        <time>2018-10-09T12:54:50.097Z</time>
      </trkpt>
      <trkpt lat="48.10238" lon="1.33573">
        <ele>121</ele>
        <time>2018-10-09T12:54:51.097Z</time>
      </trkpt>
      <trkpt lat="48.10237" lon="1.33573">
        <ele>121</ele>
        <time>2018-10-09T12:54:52.097Z</time>
      </trkpt>
      <trkpt lat="48.10236" lon="1.33573">
        <ele>121</ele>
        <time>2018-10-09T12:54:53.097Z</time>
      </trkpt>
      <trkpt lat="48.10235" lon="1.33573">
        <ele>121</ele>
        <time>2018-10-09T12:54:54.097Z</time>
      </trkpt>
      <trkpt lat="48.10234" lon="1.33573">
        <ele>121</ele>
        <time>2018-10-09T12:54:55.097Z</time>
      </trkpt>
      <trkpt lat="48.10232" lon="1.33574">
        <ele>121</ele>
        <time>2018-10-09T12:54:56.097Z</time>
      </trkpt>
      <trkpt lat="48.10231" lon="1.33574">
        <ele>121</ele>
        <time>2018-10-09T12:54:57.097Z</time>
      </trkpt>
      <trkpt lat="48.1023" lon="1.33574">
        <ele>121</ele>
        <time>2018-10-09T12:54:58.097Z</time>
      </trkpt>
      <trkpt lat="48.10229" lon="1.33574">
        <ele>121</ele>
        <time>2018-10-09T12:54:59.097Z</time>
      </trkpt>
      <trkpt lat="48.10228" lon="1.33574">
        <ele>121</ele>
        <time>2018-10-09T12:55:00.097Z</time>
      </trkpt>
      <trkpt lat="48.10226" lon="1.33574">
        <ele>121</ele>
        <time>2018-10-09T12:55:01.097Z</time>
      </trkpt>
      <trkpt lat="48.10225" lon="1.33575">
        <ele>121</ele>
        <time>2018-10-09T12:55:02.097Z</time>
      </trkpt>
      <trkpt lat="48.10224" lon="1.33575">
        <ele>121</ele>
        <time>2018-10-09T12:55:03.097Z</time>
      </trkpt>
      <trkpt lat="48.10223" lon="1.33575">
        <ele>121</ele>
        <time>2018-10-09T12:55:04.097Z</time>
      </trkpt>
      <trkpt lat="48.10221" lon="1.33575">
        <ele>121</ele>
        <time>2018-10-09T12:55:05.097Z</time>
      </trkpt>
      <trkpt lat="48.1022" lon="1.33575">
        <ele>121</ele>
        <time>2018-10-09T12:55:06.097Z</time>
      </trkpt>
      <trkpt lat="48.10219" lon="1.33575">
        <ele>121</ele>
        <time>2018-10-09T12:55:07.097Z</time>
      </trkpt>
      <trkpt lat="48.10218" lon="1.33575">
        <ele>120</ele>
        <time>2018-10-09T12:55:08.097Z</time>
      </trkpt>
      <trkpt lat="48.10216" lon="1.33575">
        <ele>120</ele>
        <time>2018-10-09T12:55:09.097Z</time>
      </trkpt>
      <trkpt lat="48.10215" lon="1.33575">
        <ele>121</ele>
        <time>2018-10-09T12:55:10.097Z</time>
      </trkpt>
      <trkpt lat="48.10214" lon="1.33575">
        <ele>120</ele>
        <time>2018-10-09T12:55:11.097Z</time>
      </trkpt>
      <trkpt lat="48.10213" lon="1.33576">
        <ele>120</ele>
        <time>2018-10-09T12:55:12.097Z</time>
      </trkpt>
      <trkpt lat="48.10211" lon="1.33576">
        <ele>120</ele>
        <time>2018-10-09T12:55:13.097Z</time>
      </trkpt>
      <trkpt lat="48.1021" lon="1.33576">
        <ele>120</ele>
        <time>2018-10-09T12:55:14.097Z</time>
      </trkpt>
      <trkpt lat="48.10209" lon="1.33576">
        <ele>121</ele>
        <time>2018-10-09T12:55:15.097Z</time>
      </trkpt>
      <trkpt lat="48.10208" lon="1.33576">
        <ele>120</ele>
        <time>2018-10-09T12:55:16.097Z</time>
      </trkpt>
      <trkpt lat="48.10206" lon="1.33576">
        <ele>120</ele>
        <time>2018-10-09T12:55:17.097Z</time>
      </trkpt>
      <trkpt lat="48.10205" lon="1.33577">
        <ele>120</ele>
        <time>2018-10-09T12:55:18.097Z</time>
      </trkpt>
      <trkpt lat="48.10204" lon="1.33577">
        <ele>120</ele>
        <time>2018-10-09T12:55:19.097Z</time>
      </trkpt>
      <trkpt lat="48.10203" lon="1.33577">
        <ele>120</ele>
        <time>2018-10-09T12:55:20.097Z</time>
      </trkpt>
      <trkpt lat="48.10201" lon="1.33577">
        <ele>120</ele>
        <time>2018-10-09T12:55:21.097Z</time>
      </trkpt>
      <trkpt lat="48.102" lon="1.33577">
        <ele>120</ele>
        <time>2018-10-09T12:55:22.097Z</time>
      </trkpt>
      <trkpt lat="48.10199" lon="1.33577">
        <ele>120</ele>
        <time>2018-10-09T12:55:23.097Z</time>
      </trkpt>
      <trkpt lat="48.10198" lon="1.33577">
        <ele>120</ele>
        <time>2018-10-09T12:55:24.097Z</time>
      </trkpt>
      <trkpt lat="48.10196" lon="1.33577">
        <ele>120</ele>
        <time>2018-10-09T12:55:25.097Z</time>
      </trkpt>
      <trkpt lat="48.10195" lon="1.33578">
        <ele>120</ele>
        <time>2018-10-09T12:55:26.097Z</time>
      </trkpt>
      <trkpt lat="48.10194" lon="1.33578">
        <ele>120</ele>
        <time>2018-10-09T12:55:27.097Z</time>
      </trkpt>
      <trkpt lat="48.10193" lon="1.33578">
        <ele>120</ele>
        <time>2018-10-09T12:55:28.097Z</time>
      </trkpt>
      <trkpt lat="48.10191" lon="1.33578">
        <ele>120</ele>
        <time>2018-10-09T12:55:29.097Z</time>
      </trkpt>
      <trkpt lat="48.1019" lon="1.33578">
        <ele>120</ele>
        <time>2018-10-09T12:55:30.097Z</time>
      </trkpt>
      <trkpt lat="48.10189" lon="1.33578">
        <ele>120</ele>
        <time>2018-10-09T12:55:31.097Z</time>
      </trkpt>
      <trkpt lat="48.10188" lon="1.33578">
        <ele>120</ele>
        <time>2018-10-09T12:55:32.097Z</time>
      </trkpt>
      <trkpt lat="48.10186" lon="1.33578">
        <ele>120</ele>
        <time>2018-10-09T12:55:33.097Z</time>
      </trkpt>
      <trkpt lat="48.10185" lon="1.33579">
        <ele>120</ele>
        <time>2018-10-09T12:55:34.097Z</time>
      </trkpt>
      <trkpt lat="48.10184" lon="1.33579">
        <ele>120</ele>
        <time>2018-10-09T12:55:35.097Z</time>
      </trkpt>
      <trkpt lat="48.10183" lon="1.33579">
        <ele>120</ele>
        <time>2018-10-09T12:55:36.097Z</time>
      </trkpt>
      <trkpt lat="48.10181" lon="1.3358">
        <ele>120</ele>
        <time>2018-10-09T12:55:37.097Z</time>
      </trkpt>
      <trkpt lat="48.1018" lon="1.3358">
        <ele>120</ele>
        <time>2018-10-09T12:55:38.097Z</time>
      </trkpt>
      <trkpt lat="48.10179" lon="1.3358">
        <ele>120</ele>
        <time>2018-10-09T12:55:39.097Z</time>
      </trkpt>
      <trkpt lat="48.10178" lon="1.3358">
        <ele>120</ele>
        <time>2018-10-09T12:55:40.097Z</time>
      </trkpt>
      <trkpt lat="48.10177" lon="1.3358">
        <ele>120</ele>
        <time>2018-10-09T12:55:41.097Z</time>
      </trkpt>
      <trkpt lat="48.10175" lon="1.3358">
        <ele>120</ele>
        <time>2018-10-09T12:55:42.097Z</time>
      </trkpt>
      <trkpt lat="48.10174" lon="1.3358">
        <ele>120</ele>
        <time>2018-10-09T12:55:43.097Z</time>
      </trkpt>
      <trkpt lat="48.10173" lon="1.3358">
        <ele>120</ele>
        <time>2018-10-09T12:55:44.097Z</time>
      </trkpt>
      <trkpt lat="48.10172" lon="1.33581">
        <ele>121</ele>
        <time>2018-10-09T12:55:45.097Z</time>
      </trkpt>
      <trkpt lat="48.1017" lon="1.33581">
        <ele>120</ele>
        <time>2018-10-09T12:55:46.097Z</time>
      </trkpt>
      <trkpt lat="48.10169" lon="1.33581">
        <ele>121</ele>
        <time>2018-10-09T12:55:47.097Z</time>
      </trkpt>
      <trkpt lat="48.10168" lon="1.33581">
        <ele>121</ele>
        <time>2018-10-09T12:55:48.097Z</time>
      </trkpt>
      <trkpt lat="48.10166" lon="1.33581">
        <ele>120</ele>
        <time>2018-10-09T12:55:49.097Z</time>
      </trkpt>
      <trkpt lat="48.10165" lon="1.33581">
        <ele>120</ele>
        <time>2018-10-09T12:55:50.097Z</time>
      </trkpt>
      <trkpt lat="48.10164" lon="1.33581">
        <ele>120</ele>
        <time>2018-10-09T12:55:51.097Z</time>
      </trkpt>
      <trkpt lat="48.10162" lon="1.33581">
        <ele>120</ele>
        <time>2018-10-09T12:55:52.097Z</time>
      </trkpt>
      <trkpt lat="48.10161" lon="1.33581">
        <ele>120</ele>
        <time>2018-10-09T12:55:53.097Z</time>
      </trkpt>
      <trkpt lat="48.1016" lon="1.33581">
        <ele>120</ele>
        <time>2018-10-09T12:55:54.097Z</time>
      </trkpt>
      <trkpt lat="48.10159" lon="1.33581">
        <ele>120</ele>
        <time>2018-10-09T12:55:55.097Z</time>
      </trkpt>
      <trkpt lat="48.10157" lon="1.33581">
        <ele>119</ele>
        <time>2018-10-09T12:55:56.097Z</time>
      </trkpt>
      <trkpt lat="48.10156" lon="1.33581">
        <ele>119</ele>
        <time>2018-10-09T12:55:57.097Z</time>
      </trkpt>
      <trkpt lat="48.10155" lon="1.33581">
        <ele>119</ele>
        <time>2018-10-09T12:55:58.097Z</time>
      </trkpt>
      <trkpt lat="48.10154" lon="1.33582">
        <ele>119</ele>
        <time>2018-10-09T12:55:59.097Z</time>
      </trkpt>
      <trkpt lat="48.10152" lon="1.33582">
        <ele>119</ele>
        <time>2018-10-09T12:56:00.097Z</time>
      </trkpt>
      <trkpt lat="48.10151" lon="1.33582">
        <ele>120</ele>
        <time>2018-10-09T12:56:01.097Z</time>
      </trkpt>
      <trkpt lat="48.1015" lon="1.33582">
        <ele>120</ele>
        <time>2018-10-09T12:56:02.097Z</time>
      </trkpt>
      <trkpt lat="48.10148" lon="1.33582">
        <ele>120</ele>
        <time>2018-10-09T12:56:03.097Z</time>
      </trkpt>
      <trkpt lat="48.10147" lon="1.33582">
        <ele>120</ele>
        <time>2018-10-09T12:56:04.097Z</time>
      </trkpt>
      <trkpt lat="48.10146" lon="1.33583">
        <ele>120</ele>
        <time>2018-10-09T12:56:05.097Z</time>
      </trkpt>
      <trkpt lat="48.10145" lon="1.33583">
        <ele>120</ele>
        <time>2018-10-09T12:56:06.097Z</time>
      </trkpt>
      <trkpt lat="48.10143" lon="1.33583">
        <ele>120</ele>
        <time>2018-10-09T12:56:07.097Z</time>
      </trkpt>
      <trkpt lat="48.10142" lon="1.33583">
        <ele>120</ele>
        <time>2018-10-09T12:56:08.097Z</time>
      </trkpt>
      <trkpt lat="48.10141" lon="1.33583">
        <ele>119</ele>
        <time>2018-10-09T12:56:09.097Z</time>
      </trkpt>
      <trkpt lat="48.1014" lon="1.33583">
        <ele>119</ele>
        <time>2018-10-09T12:56:10.097Z</time>
      </trkpt>
      <trkpt lat="48.10139" lon="1.33583">
        <ele>119</ele>
        <time>2018-10-09T12:56:11.097Z</time>
      </trkpt>
      <trkpt lat="48.10137" lon="1.33583">
        <ele>119</ele>
        <time>2018-10-09T12:56:12.097Z</time>
      </trkpt>
      <trkpt lat="48.10136" lon="1.33584">
        <ele>120</ele>
        <time>2018-10-09T12:56:13.097Z</time>
      </trkpt>
      <trkpt lat="48.10135" lon="1.33584">
        <ele>120</ele>
        <time>2018-10-09T12:56:14.097Z</time>
      </trkpt>
      <trkpt lat="48.10133" lon="1.33584">
        <ele>120</ele>
        <time>2018-10-09T12:56:15.097Z</time>
      </trkpt>
      <trkpt lat="48.10132" lon="1.33584">
        <ele>120</ele>
        <time>2018-10-09T12:56:16.097Z</time>
      </trkpt>
      <trkpt lat="48.10131" lon="1.33584">
        <ele>120</ele>
        <time>2018-10-09T12:56:17.097Z</time>
      </trkpt>
      <trkpt lat="48.1013" lon="1.33584">
        <ele>120</ele>
        <time>2018-10-09T12:56:18.097Z</time>
      </trkpt>
      <trkpt lat="48.10128" lon="1.33584">
        <ele>120</ele>
        <time>2018-10-09T12:56:19.097Z</time>
      </trkpt>
      <trkpt lat="48.10127" lon="1.33585">
        <ele>120</ele>
        <time>2018-10-09T12:56:20.097Z</time>
      </trkpt>
      <trkpt lat="48.10126" lon="1.33585">
        <ele>120</ele>
        <time>2018-10-09T12:56:21.097Z</time>
      </trkpt>
      <trkpt lat="48.10125" lon="1.33585">
        <ele>120</ele>
        <time>2018-10-09T12:56:22.097Z</time>
      </trkpt>
      <trkpt lat="48.10123" lon="1.33585">
        <ele>120</ele>
        <time>2018-10-09T12:56:23.097Z</time>
      </trkpt>
      <trkpt lat="48.10122" lon="1.33585">
        <ele>120</ele>
        <time>2018-10-09T12:56:24.097Z</time>
      </trkpt>
      <trkpt lat="48.10121" lon="1.33585">
        <ele>119</ele>
        <time>2018-10-09T12:56:25.097Z</time>
      </trkpt>
      <trkpt lat="48.1012" lon="1.33585">
        <ele>119</ele>
        <time>2018-10-09T12:56:26.097Z</time>
      </trkpt>
      <trkpt lat="48.10119" lon="1.33585">
        <ele>119</ele>
        <time>2018-10-09T12:56:27.097Z</time>
      </trkpt>
      <trkpt lat="48.10117" lon="1.33585">
        <ele>119</ele>
        <time>2018-10-09T12:56:28.097Z</time>
      </trkpt>
      <trkpt lat="48.10116" lon="1.33585">
        <ele>119</ele>
        <time>2018-10-09T12:56:29.097Z</time>
      </trkpt>
      <trkpt lat="48.10115" lon="1.33585">
        <ele>119</ele>
        <time>2018-10-09T12:56:30.097Z</time>
      </trkpt>
      <trkpt lat="48.10114" lon="1.33585">
        <ele>119</ele>
        <time>2018-10-09T12:56:31.097Z</time>
      </trkpt>
      <trkpt lat="48.10113" lon="1.33586">
        <ele>119</ele>
        <time>2018-10-09T12:56:32.097Z</time>
      </trkpt>
      <trkpt lat="48.10111" lon="1.33586">
        <ele>119</ele>
        <time>2018-10-09T12:56:33.097Z</time>
      </trkpt>
      <trkpt lat="48.1011" lon="1.33586">
        <ele>119</ele>
        <time>2018-10-09T12:56:34.097Z</time>
      </trkpt>
      <trkpt lat="48.10109" lon="1.33587">
        <ele>119</ele>
        <time>2018-10-09T12:56:35.097Z</time>
      </trkpt>
      <trkpt lat="48.10108" lon="1.33587">
        <ele>119</ele>
        <time>2018-10-09T12:56:36.097Z</time>
      </trkpt>
      <trkpt lat="48.10106" lon="1.33587">
        <ele>119</ele>
        <time>2018-10-09T12:56:37.097Z</time>
      </trkpt>
      <trkpt lat="48.10105" lon="1.33587">
        <ele>119</ele>
        <time>2018-10-09T12:56:38.097Z</time>
      </trkpt>
      <trkpt lat="48.10104" lon="1.33587">
        <ele>119</ele>
        <time>2018-10-09T12:56:39.097Z</time>
      </trkpt>
      <trkpt lat="48.10103" lon="1.33587">
        <ele>119</ele>
        <time>2018-10-09T12:56:40.097Z</time>
      </trkpt>
      <trkpt lat="48.10101" lon="1.33587">
        <ele>119</ele>
        <time>2018-10-09T12:56:41.097Z</time>
      </trkpt>
      <trkpt lat="48.101" lon="1.33587">
        <ele>118</ele>
        <time>2018-10-09T12:56:42.097Z</time>
      </trkpt>
      <trkpt lat="48.10099" lon="1.33587">
        <ele>118</ele>
        <time>2018-10-09T12:56:43.097Z</time>
      </trkpt>
      <trkpt lat="48.10098" lon="1.33587">
        <ele>118</ele>
        <time>2018-10-09T12:56:44.097Z</time>
      </trkpt>
      <trkpt lat="48.10097" lon="1.33587">
        <ele>118</ele>
        <time>2018-10-09T12:56:45.097Z</time>
      </trkpt>
      <trkpt lat="48.10095" lon="1.33587">
        <ele>118</ele>
        <time>2018-10-09T12:56:46.097Z</time>
      </trkpt>
      <trkpt lat="48.10094" lon="1.33587">
        <ele>118</ele>
        <time>2018-10-09T12:56:47.097Z</time>
      </trkpt>
      <trkpt lat="48.10093" lon="1.33587">
        <ele>119</ele>
        <time>2018-10-09T12:56:48.097Z</time>
      </trkpt>
      <trkpt lat="48.10092" lon="1.33588">
        <ele>119</ele>
        <time>2018-10-09T12:56:49.097Z</time>
      </trkpt>
      <trkpt lat="48.1009" lon="1.33588">
        <ele>119</ele>
        <time>2018-10-09T12:56:50.097Z</time>
      </trkpt>
      <trkpt lat="48.10089" lon="1.33588">
        <ele>118</ele>
        <time>2018-10-09T12:56:51.097Z</time>
      </trkpt>
      <trkpt lat="48.10088" lon="1.33588">
        <ele>118</ele>
        <time>2018-10-09T12:56:52.097Z</time>
      </trkpt>
      <trkpt lat="48.10087" lon="1.33588">
        <ele>118</ele>
        <time>2018-10-09T12:56:53.097Z</time>
      </trkpt>
      <trkpt lat="48.10085" lon="1.33588">
        <ele>119</ele>
        <time>2018-10-09T12:56:54.097Z</time>
      </trkpt>
      <trkpt lat="48.10084" lon="1.33589">
        <ele>119</ele>
        <time>2018-10-09T12:56:55.097Z</time>
      </trkpt>
      <trkpt lat="48.10083" lon="1.33589">
        <ele>119</ele>
        <time>2018-10-09T12:56:56.097Z</time>
      </trkpt>
      <trkpt lat="48.10082" lon="1.33589">
        <ele>119</ele>
        <time>2018-10-09T12:56:57.097Z</time>
      </trkpt>
      <trkpt lat="48.10081" lon="1.33589">
        <ele>118</ele>
        <time>2018-10-09T12:56:58.097Z</time>
      </trkpt>
      <trkpt lat="48.10079" lon="1.33589">
        <ele>118</ele>
        <time>2018-10-09T12:56:59.097Z</time>
      </trkpt>
      <trkpt lat="48.10078" lon="1.33589">
        <ele>118</ele>
        <time>2018-10-09T12:57:00.097Z</time>
      </trkpt>
      <trkpt lat="48.10077" lon="1.33589">
        <ele>118</ele>
        <time>2018-10-09T12:57:01.097Z</time>
      </trkpt>
      <trkpt lat="48.10076" lon="1.33589">
        <ele>118</ele>
        <time>2018-10-09T12:57:02.097Z</time>
      </trkpt>
      <trkpt lat="48.10075" lon="1.33589">
        <ele>117</ele>
        <time>2018-10-09T12:57:03.097Z</time>
      </trkpt>
      <trkpt lat="48.10074" lon="1.33589">
        <ele>117</ele>
        <time>2018-10-09T12:57:04.097Z</time>
      </trkpt>
      <trkpt lat="48.10073" lon="1.3359">
        <ele>117</ele>
        <time>2018-10-09T12:57:05.097Z</time>
      </trkpt>
      <trkpt lat="48.10071" lon="1.3359">
        <ele>117</ele>
        <time>2018-10-09T12:57:06.097Z</time>
      </trkpt>
      <trkpt lat="48.1007" lon="1.3359">
        <ele>117</ele>
        <time>2018-10-09T12:57:07.097Z</time>
      </trkpt>
      <trkpt lat="48.10069" lon="1.3359">
        <ele>117</ele>
        <time>2018-10-09T12:57:08.097Z</time>
      </trkpt>
      <trkpt lat="48.10068" lon="1.33591">
        <ele>117</ele>
        <time>2018-10-09T12:57:09.097Z</time>
      </trkpt>
      <trkpt lat="48.10066" lon="1.33591">
        <ele>117</ele>
        <time>2018-10-09T12:57:10.097Z</time>
      </trkpt>
      <trkpt lat="48.10065" lon="1.33591">
        <ele>117</ele>
        <time>2018-10-09T12:57:11.097Z</time>
      </trkpt>
      <trkpt lat="48.10064" lon="1.33592">
        <ele>118</ele>
        <time>2018-10-09T12:57:12.097Z</time>
      </trkpt>
      <trkpt lat="48.10062" lon="1.33592">
        <ele>118</ele>
        <time>2018-10-09T12:57:13.097Z</time>
      </trkpt>
      <trkpt lat="48.10061" lon="1.33592">
        <ele>118</ele>
        <time>2018-10-09T12:57:14.097Z</time>
      </trkpt>
      <trkpt lat="48.1006" lon="1.33592">
        <ele>117</ele>
        <time>2018-10-09T12:57:15.097Z</time>
      </trkpt>
      <trkpt lat="48.10059" lon="1.33592">
        <ele>117</ele>
        <time>2018-10-09T12:57:16.097Z</time>
      </trkpt>
      <trkpt lat="48.10057" lon="1.33592">
        <ele>117</ele>
        <time>2018-10-09T12:57:17.097Z</time>
      </trkpt>
      <trkpt lat="48.10056" lon="1.33593">
        <ele>117</ele>
        <time>2018-10-09T12:57:18.097Z</time>
      </trkpt>
      <trkpt lat="48.10055" lon="1.33593">
        <ele>117</ele>
        <time>2018-10-09T12:57:19.097Z</time>
      </trkpt>
      <trkpt lat="48.10053" lon="1.33593">
        <ele>118</ele>
        <time>2018-10-09T12:57:20.097Z</time>
      </trkpt>
      <trkpt lat="48.10052" lon="1.33593">
        <ele>118</ele>
        <time>2018-10-09T12:57:21.097Z</time>
      </trkpt>
      <trkpt lat="48.10051" lon="1.33594">
        <ele>117</ele>
        <time>2018-10-09T12:57:22.097Z</time>
      </trkpt>
      <trkpt lat="48.1005" lon="1.33594">
        <ele>117</ele>
        <time>2018-10-09T12:57:23.097Z</time>
      </trkpt>
      <trkpt lat="48.10049" lon="1.33594">
        <ele>117</ele>
        <time>2018-10-09T12:57:24.097Z</time>
      </trkpt>
      <trkpt lat="48.10047" lon="1.33594">
        <ele>117</ele>
        <time>2018-10-09T12:57:25.097Z</time>
      </trkpt>
      <trkpt lat="48.10046" lon="1.33594">
        <ele>117</ele>
        <time>2018-10-09T12:57:26.097Z</time>
      </trkpt>
      <trkpt lat="48.10045" lon="1.33594">
        <ele>117</ele>
        <time>2018-10-09T12:57:27.097Z</time>
      </trkpt>
      <trkpt lat="48.10044" lon="1.33595">
        <ele>118</ele>
        <time>2018-10-09T12:57:28.097Z</time>
      </trkpt>
      <trkpt lat="48.10043" lon="1.33595">
        <ele>117</ele>
        <time>2018-10-09T12:57:29.097Z</time>
      </trkpt>
      <trkpt lat="48.10041" lon="1.33595">
        <ele>117</ele>
        <time>2018-10-09T12:57:30.097Z</time>
      </trkpt>
      <trkpt lat="48.1004" lon="1.33595">
        <ele>117</ele>
        <time>2018-10-09T12:57:31.097Z</time>
      </trkpt>
      <trkpt lat="48.10039" lon="1.33595">
        <ele>117</ele>
        <time>2018-10-09T12:57:32.097Z</time>
      </trkpt>
      <trkpt lat="48.10038" lon="1.33595">
        <ele>117</ele>
        <time>2018-10-09T12:57:33.097Z</time>
      </trkpt>
      <trkpt lat="48.10037" lon="1.33595">
        <ele>117</ele>
        <time>2018-10-09T12:57:34.097Z</time>
      </trkpt>
      <trkpt lat="48.10035" lon="1.33595">
        <ele>117</ele>
        <time>2018-10-09T12:57:35.097Z</time>
      </trkpt>
      <trkpt lat="48.10034" lon="1.33595">
        <ele>117</ele>
        <time>2018-10-09T12:57:36.097Z</time>
      </trkpt>
      <trkpt lat="48.10033" lon="1.33595">
        <ele>117</ele>
        <time>2018-10-09T12:57:37.097Z</time>
      </trkpt>
      <trkpt lat="48.10032" lon="1.33595">
        <ele>117</ele>
        <time>2018-10-09T12:57:38.097Z</time>
      </trkpt>
      <trkpt lat="48.1003" lon="1.33595">
        <ele>117</ele>
        <time>2018-10-09T12:57:39.097Z</time>
      </trkpt>
      <trkpt lat="48.10029" lon="1.33595">
        <ele>117</ele>
        <time>2018-10-09T12:57:40.097Z</time>
      </trkpt>
      <trkpt lat="48.10028" lon="1.33595">
        <ele>117</ele>
        <time>2018-10-09T12:57:41.097Z</time>
      </trkpt>
      <trkpt lat="48.10027" lon="1.33596">
        <ele>117</ele>
        <time>2018-10-09T12:57:42.097Z</time>
      </trkpt>
      <trkpt lat="48.10025" lon="1.33596">
        <ele>117</ele>
        <time>2018-10-09T12:57:43.097Z</time>
      </trkpt>
      <trkpt lat="48.10024" lon="1.33596">
        <ele>117</ele>
        <time>2018-10-09T12:57:44.097Z</time>
      </trkpt>
      <trkpt lat="48.10023" lon="1.33596">
        <ele>117</ele>
        <time>2018-10-09T12:57:45.097Z</time>
      </trkpt>
      <trkpt lat="48.10022" lon="1.33596">
        <ele>117</ele>
        <time>2018-10-09T12:57:46.097Z</time>
      </trkpt>
      <trkpt lat="48.10021" lon="1.33596">
        <ele>117</ele>
        <time>2018-10-09T12:57:47.097Z</time>
      </trkpt>
      <trkpt lat="48.10019" lon="1.33596">
        <ele>118</ele>
        <time>2018-10-09T12:57:48.097Z</time>
      </trkpt>
      <trkpt lat="48.10018" lon="1.33596">
        <ele>118</ele>
        <time>2018-10-09T12:57:49.097Z</time>
      </trkpt>
      <trkpt lat="48.10017" lon="1.33596">
        <ele>118</ele>
        <time>2018-10-09T12:57:50.097Z</time>
      </trkpt>
      <trkpt lat="48.10015" lon="1.33597">
        <ele>118</ele>
        <time>2018-10-09T12:57:51.097Z</time>
      </trkpt>
      <trkpt lat="48.10014" lon="1.33597">
        <ele>118</ele>
        <time>2018-10-09T12:57:52.097Z</time>
      </trkpt>
      <trkpt lat="48.10013" lon="1.33597">
        <ele>118</ele>
        <time>2018-10-09T12:57:53.097Z</time>
      </trkpt>
      <trkpt lat="48.10012" lon="1.33597">
        <ele>118</ele>
        <time>2018-10-09T12:57:54.097Z</time>
      </trkpt>
      <trkpt lat="48.1001" lon="1.33597">
        <ele>118</ele>
        <time>2018-10-09T12:57:55.097Z</time>
      </trkpt>
      <trkpt lat="48.10009" lon="1.33597">
        <ele>118</ele>
        <time>2018-10-09T12:57:56.097Z</time>
      </trkpt>
      <trkpt lat="48.10008" lon="1.33598">
        <ele>118</ele>
        <time>2018-10-09T12:57:57.097Z</time>
      </trkpt>
      <trkpt lat="48.10006" lon="1.33598">
        <ele>118</ele>
        <time>2018-10-09T12:57:58.097Z</time>
      </trkpt>
      <trkpt lat="48.10005" lon="1.33598">
        <ele>118</ele>
        <time>2018-10-09T12:57:59.097Z</time>
      </trkpt>
      <trkpt lat="48.10004" lon="1.33598">
        <ele>118</ele>
        <time>2018-10-09T12:58:00.097Z</time>
      </trkpt>
      <trkpt lat="48.10003" lon="1.33598">
        <ele>118</ele>
        <time>2018-10-09T12:58:01.097Z</time>
      </trkpt>
      <trkpt lat="48.10001" lon="1.33598">
        <ele>118</ele>
        <time>2018-10-09T12:58:02.097Z</time>
      </trkpt>
      <trkpt lat="48.1" lon="1.33599">
        <ele>118</ele>
        <time>2018-10-09T12:58:03.097Z</time>
      </trkpt>
      <trkpt lat="48.09999" lon="1.33599">
        <ele>118</ele>
        <time>2018-10-09T12:58:04.097Z</time>
      </trkpt>
      <trkpt lat="48.09998" lon="1.33599">
        <ele>118</ele>
        <time>2018-10-09T12:58:05.097Z</time>
      </trkpt>
      <trkpt lat="48.09996" lon="1.33599">
        <ele>118</ele>
        <time>2018-10-09T12:58:06.097Z</time>
      </trkpt>
      <trkpt lat="48.09995" lon="1.33599">
        <ele>118</ele>
        <time>2018-10-09T12:58:07.097Z</time>
      </trkpt>
      <trkpt lat="48.09994" lon="1.33599">
        <ele>119</ele>
        <time>2018-10-09T12:58:08.097Z</time>
      </trkpt>
      <trkpt lat="48.09993" lon="1.336">
        <ele>119</ele>
        <time>2018-10-09T12:58:09.097Z</time>
      </trkpt>
      <trkpt lat="48.09992" lon="1.336">
        <ele>118</ele>
        <time>2018-10-09T12:58:10.097Z</time>
      </trkpt>
      <trkpt lat="48.0999" lon="1.336">
        <ele>118</ele>
        <time>2018-10-09T12:58:11.097Z</time>
      </trkpt>
      <trkpt lat="48.09989" lon="1.336">
        <ele>119</ele>
        <time>2018-10-09T12:58:12.097Z</time>
      </trkpt>
      <trkpt lat="48.09988" lon="1.33601">
        <ele>119</ele>
        <time>2018-10-09T12:58:13.097Z</time>
      </trkpt>
      <trkpt lat="48.09987" lon="1.33601">
        <ele>119</ele>
        <time>2018-10-09T12:58:14.097Z</time>
      </trkpt>
      <trkpt lat="48.09986" lon="1.33601">
        <ele>119</ele>
        <time>2018-10-09T12:58:15.097Z</time>
      </trkpt>
      <trkpt lat="48.09984" lon="1.33601">
        <ele>119</ele>
        <time>2018-10-09T12:58:16.097Z</time>
      </trkpt>
      <trkpt lat="48.09983" lon="1.33601">
        <ele>119</ele>
        <time>2018-10-09T12:58:17.097Z</time>
      </trkpt>
      <trkpt lat="48.09982" lon="1.33601">
        <ele>118</ele>
        <time>2018-10-09T12:58:18.097Z</time>
      </trkpt>
      <trkpt lat="48.09981" lon="1.33601">
        <ele>119</ele>
        <time>2018-10-09T12:58:19.097Z</time>
      </trkpt>
      <trkpt lat="48.0998" lon="1.33601">
        <ele>118</ele>
        <time>2018-10-09T12:58:20.097Z</time>
      </trkpt>
      <trkpt lat="48.09979" lon="1.33601">
        <ele>118</ele>
        <time>2018-10-09T12:58:21.097Z</time>
      </trkpt>
      <trkpt lat="48.09977" lon="1.33601">
        <ele>118</ele>
        <time>2018-10-09T12:58:22.097Z</time>
      </trkpt>
      <trkpt lat="48.09976" lon="1.33601">
        <ele>118</ele>
        <time>2018-10-09T12:58:23.097Z</time>
      </trkpt>
      <trkpt lat="48.09975" lon="1.33601">
        <ele>118</ele>
        <time>2018-10-09T12:58:24.097Z</time>
      </trkpt>
      <trkpt lat="48.09973" lon="1.33602">
        <ele>119</ele>
        <time>2018-10-09T12:58:25.097Z</time>
      </trkpt>
      <trkpt lat="48.09972" lon="1.33602">
        <ele>119</ele>
        <time>2018-10-09T12:58:26.097Z</time>
      </trkpt>
      <trkpt lat="48.09971" lon="1.33602">
        <ele>119</ele>
        <time>2018-10-09T12:58:27.097Z</time>
      </trkpt>
      <trkpt lat="48.09969" lon="1.33602">
        <ele>119</ele>
        <time>2018-10-09T12:58:28.097Z</time>
      </trkpt>
      <trkpt lat="48.09968" lon="1.33602">
        <ele>119</ele>
        <time>2018-10-09T12:58:29.097Z</time>
      </trkpt>
      <trkpt lat="48.09967" lon="1.33603">
        <ele>119</ele>
        <time>2018-10-09T12:58:30.097Z</time>
      </trkpt>
      <trkpt lat="48.09965" lon="1.33603">
        <ele>119</ele>
        <time>2018-10-09T12:58:31.097Z</time>
      </trkpt>
      <trkpt lat="48.09964" lon="1.33603">
        <ele>120</ele>
        <time>2018-10-09T12:58:32.097Z</time>
      </trkpt>
      <trkpt lat="48.09963" lon="1.33603">
        <ele>119</ele>
        <time>2018-10-09T12:58:33.097Z</time>
      </trkpt>
      <trkpt lat="48.09962" lon="1.33603">
        <ele>120</ele>
        <time>2018-10-09T12:58:34.097Z</time>
      </trkpt>
      <trkpt lat="48.09961" lon="1.33604">
        <ele>120</ele>
        <time>2018-10-09T12:58:35.097Z</time>
      </trkpt>
      <trkpt lat="48.09959" lon="1.33604">
        <ele>120</ele>
        <time>2018-10-09T12:58:36.097Z</time>
      </trkpt>
      <trkpt lat="48.09958" lon="1.33604">
        <ele>120</ele>
        <time>2018-10-09T12:58:37.097Z</time>
      </trkpt>
      <trkpt lat="48.09957" lon="1.33605">
        <ele>121</ele>
        <time>2018-10-09T12:58:38.097Z</time>
      </trkpt>
      <trkpt lat="48.09956" lon="1.33605">
        <ele>121</ele>
        <time>2018-10-09T12:58:39.097Z</time>
      </trkpt>
      <trkpt lat="48.09954" lon="1.33605">
        <ele>121</ele>
        <time>2018-10-09T12:58:40.097Z</time>
      </trkpt>
      <trkpt lat="48.09953" lon="1.33606">
        <ele>120</ele>
        <time>2018-10-09T12:58:41.097Z</time>
      </trkpt>
      <trkpt lat="48.09952" lon="1.33606">
        <ele>120</ele>
        <time>2018-10-09T12:58:42.097Z</time>
      </trkpt>
      <trkpt lat="48.09951" lon="1.33606">
        <ele>120</ele>
        <time>2018-10-09T12:58:43.097Z</time>
      </trkpt>
      <trkpt lat="48.0995" lon="1.33606">
        <ele>120</ele>
        <time>2018-10-09T12:58:44.097Z</time>
      </trkpt>
      <trkpt lat="48.09948" lon="1.33606">
        <ele>121</ele>
        <time>2018-10-09T12:58:45.097Z</time>
      </trkpt>
      <trkpt lat="48.09947" lon="1.33606">
        <ele>121</ele>
        <time>2018-10-09T12:58:46.097Z</time>
      </trkpt>
      <trkpt lat="48.09946" lon="1.33606">
        <ele>121</ele>
        <time>2018-10-09T12:58:47.097Z</time>
      </trkpt>
      <trkpt lat="48.09944" lon="1.33606">
        <ele>121</ele>
        <time>2018-10-09T12:58:48.097Z</time>
      </trkpt>
      <trkpt lat="48.09943" lon="1.33607">
        <ele>120</ele>
        <time>2018-10-09T12:58:49.097Z</time>
      </trkpt>
      <trkpt lat="48.09942" lon="1.33607">
        <ele>120</ele>
        <time>2018-10-09T12:58:50.097Z</time>
      </trkpt>
      <trkpt lat="48.0994" lon="1.33607">
        <ele>121</ele>
        <time>2018-10-09T12:58:51.097Z</time>
      </trkpt>
      <trkpt lat="48.09939" lon="1.33607">
        <ele>120</ele>
        <time>2018-10-09T12:58:52.097Z</time>
      </trkpt>
      <trkpt lat="48.09938" lon="1.33607">
        <ele>120</ele>
        <time>2018-10-09T12:58:53.097Z</time>
      </trkpt>
      <trkpt lat="48.09937" lon="1.33607">
        <ele>120</ele>
        <time>2018-10-09T12:58:54.097Z</time>
      </trkpt>
      <trkpt lat="48.09936" lon="1.33607">
        <ele>120</ele>
        <time>2018-10-09T12:58:55.097Z</time>
      </trkpt>
      <trkpt lat="48.09934" lon="1.33607">
        <ele>120</ele>
        <time>2018-10-09T12:58:56.097Z</time>
      </trkpt>
      <trkpt lat="48.09933" lon="1.33607">
        <ele>120</ele>
        <time>2018-10-09T12:58:57.097Z</time>
      </trkpt>
      <trkpt lat="48.09932" lon="1.33607">
        <ele>120</ele>
        <time>2018-10-09T12:58:58.097Z</time>
      </trkpt>
      <trkpt lat="48.09931" lon="1.33608">
        <ele>120</ele>
        <time>2018-10-09T12:58:59.097Z</time>
      </trkpt>
      <trkpt lat="48.09929" lon="1.33608">
        <ele>120</ele>
        <time>2018-10-09T12:59:00.097Z</time>
      </trkpt>
      <trkpt lat="48.09928" lon="1.33608">
        <ele>120</ele>
        <time>2018-10-09T12:59:01.097Z</time>
      </trkpt>
      <trkpt lat="48.09927" lon="1.33608">
        <ele>120</ele>
        <time>2018-10-09T12:59:02.097Z</time>
      </trkpt>
      <trkpt lat="48.09925" lon="1.33608">
        <ele>120</ele>
        <time>2018-10-09T12:59:03.097Z</time>
      </trkpt>
      <trkpt lat="48.09924" lon="1.33608">
        <ele>120</ele>
        <time>2018-10-09T12:59:04.097Z</time>
      </trkpt>
      <trkpt lat="48.09923" lon="1.33608">
        <ele>120</ele>
        <time>2018-10-09T12:59:05.097Z</time>
      </trkpt>
      <trkpt lat="48.09922" lon="1.33608">
        <ele>120</ele>
        <time>2018-10-09T12:59:06.097Z</time>
      </trkpt>
      <trkpt lat="48.0992" lon="1.33609">
        <ele>120</ele>
        <time>2018-10-09T12:59:07.097Z</time>
      </trkpt>
      <trkpt lat="48.09919" lon="1.33609">
        <ele>121</ele>
        <time>2018-10-09T12:59:08.097Z</time>
      </trkpt>
      <trkpt lat="48.09918" lon="1.33609">
        <ele>120</ele>
        <time>2018-10-09T12:59:09.097Z</time>
      </trkpt>
      <trkpt lat="48.09916" lon="1.33609">
        <ele>120</ele>
        <time>2018-10-09T12:59:10.097Z</time>
      </trkpt>
      <trkpt lat="48.09915" lon="1.33609">
        <ele>120</ele>
        <time>2018-10-09T12:59:11.097Z</time>
      </trkpt>
      <trkpt lat="48.09914" lon="1.33609">
        <ele>120</ele>
        <time>2018-10-09T12:59:12.097Z</time>
      </trkpt>
      <trkpt lat="48.09913" lon="1.33609">
        <ele>120</ele>
        <time>2018-10-09T12:59:13.097Z</time>
      </trkpt>
      <trkpt lat="48.09911" lon="1.33609">
        <ele>120</ele>
        <time>2018-10-09T12:59:14.097Z</time>
      </trkpt>
      <trkpt lat="48.0991" lon="1.33609">
        <ele>120</ele>
        <time>2018-10-09T12:59:15.097Z</time>
      </trkpt>
      <trkpt lat="48.09909" lon="1.33609">
        <ele>120</ele>
        <time>2018-10-09T12:59:16.097Z</time>
      </trkpt>
      <trkpt lat="48.09907" lon="1.3361">
        <ele>120</ele>
        <time>2018-10-09T12:59:17.097Z</time>
      </trkpt>
      <trkpt lat="48.09906" lon="1.3361">
        <ele>120</ele>
        <time>2018-10-09T12:59:18.097Z</time>
      </trkpt>
      <trkpt lat="48.09905" lon="1.3361">
        <ele>120</ele>
        <time>2018-10-09T12:59:19.097Z</time>
      </trkpt>
      <trkpt lat="48.09904" lon="1.3361">
        <ele>120</ele>
        <time>2018-10-09T12:59:20.097Z</time>
      </trkpt>
      <trkpt lat="48.09902" lon="1.3361">
        <ele>120</ele>
        <time>2018-10-09T12:59:21.097Z</time>
      </trkpt>
      <trkpt lat="48.09901" lon="1.3361">
        <ele>120</ele>
        <time>2018-10-09T12:59:22.097Z</time>
      </trkpt>
      <trkpt lat="48.099" lon="1.3361">
        <ele>120</ele>
        <time>2018-10-09T12:59:23.097Z</time>
      </trkpt>
      <trkpt lat="48.09899" lon="1.3361">
        <ele>120</ele>
        <time>2018-10-09T12:59:24.097Z</time>
      </trkpt>
      <trkpt lat="48.09897" lon="1.3361">
        <ele>120</ele>
        <time>2018-10-09T12:59:25.097Z</time>
      </trkpt>
      <trkpt lat="48.09896" lon="1.33611">
        <ele>120</ele>
        <time>2018-10-09T12:59:26.097Z</time>
      </trkpt>
      <trkpt lat="48.09895" lon="1.33611">
        <ele>120</ele>
        <time>2018-10-09T12:59:27.097Z</time>
      </trkpt>
      <trkpt lat="48.09894" lon="1.33611">
        <ele>120</ele>
        <time>2018-10-09T12:59:28.097Z</time>
      </trkpt>
      <trkpt lat="48.09893" lon="1.33611">
        <ele>120</ele>
        <time>2018-10-09T12:59:29.097Z</time>
      </trkpt>
      <trkpt lat="48.09891" lon="1.33611">
        <ele>120</ele>
        <time>2018-10-09T12:59:30.097Z</time>
      </trkpt>
      <trkpt lat="48.0989" lon="1.33611">
        <ele>119</ele>
        <time>2018-10-09T12:59:31.097Z</time>
      </trkpt>
      <trkpt lat="48.09889" lon="1.33611">
        <ele>119</ele>
        <time>2018-10-09T12:59:32.097Z</time>
      </trkpt>
      <trkpt lat="48.09888" lon="1.33611">
        <ele>119</ele>
        <time>2018-10-09T12:59:33.097Z</time>
      </trkpt>
      <trkpt lat="48.09886" lon="1.33611">
        <ele>119</ele>
        <time>2018-10-09T12:59:34.097Z</time>
      </trkpt>
      <trkpt lat="48.09885" lon="1.33611">
        <ele>119</ele>
        <time>2018-10-09T12:59:35.097Z</time>
      </trkpt>
      <trkpt lat="48.09884" lon="1.33612">
        <ele>119</ele>
        <time>2018-10-09T12:59:36.097Z</time>
      </trkpt>
      <trkpt lat="48.09883" lon="1.33612">
        <ele>120</ele>
        <time>2018-10-09T12:59:37.097Z</time>
      </trkpt>
      <trkpt lat="48.09881" lon="1.33612">
        <ele>119</ele>
        <time>2018-10-09T12:59:38.097Z</time>
      </trkpt>
      <trkpt lat="48.0988" lon="1.33612">
        <ele>120</ele>
        <time>2018-10-09T12:59:39.097Z</time>
      </trkpt>
      <trkpt lat="48.09879" lon="1.33612">
        <ele>120</ele>
        <time>2018-10-09T12:59:40.097Z</time>
      </trkpt>
      <trkpt lat="48.09877" lon="1.33612">
        <ele>119</ele>
        <time>2018-10-09T12:59:41.097Z</time>
      </trkpt>
      <trkpt lat="48.09876" lon="1.33612">
        <ele>120</ele>
        <time>2018-10-09T12:59:42.097Z</time>
      </trkpt>
      <trkpt lat="48.09875" lon="1.33612">
        <ele>119</ele>
        <time>2018-10-09T12:59:43.097Z</time>
      </trkpt>
      <trkpt lat="48.09874" lon="1.33612">
        <ele>119</ele>
        <time>2018-10-09T12:59:44.097Z</time>
      </trkpt>
      <trkpt lat="48.09872" lon="1.33612">
        <ele>119</ele>
        <time>2018-10-09T12:59:45.097Z</time>
      </trkpt>
      <trkpt lat="48.09871" lon="1.33612">
        <ele>119</ele>
        <time>2018-10-09T12:59:46.097Z</time>
      </trkpt>
      <trkpt lat="48.0987" lon="1.33612">
        <ele>119</ele>
        <time>2018-10-09T12:59:47.097Z</time>
      </trkpt>
      <trkpt lat="48.09869" lon="1.33613">
        <ele>119</ele>
        <time>2018-10-09T12:59:48.097Z</time>
      </trkpt>
      <trkpt lat="48.09867" lon="1.33613">
        <ele>120</ele>
        <time>2018-10-09T12:59:49.097Z</time>
      </trkpt>
      <trkpt lat="48.09866" lon="1.33613">
        <ele>120</ele>
        <time>2018-10-09T12:59:50.097Z</time>
      </trkpt>
      <trkpt lat="48.09865" lon="1.33613">
        <ele>120</ele>
        <time>2018-10-09T12:59:51.097Z</time>
      </trkpt>
      <trkpt lat="48.09863" lon="1.33613">
        <ele>120</ele>
        <time>2018-10-09T12:59:52.097Z</time>
      </trkpt>
      <trkpt lat="48.09862" lon="1.33614">
        <ele>120</ele>
        <time>2018-10-09T12:59:53.097Z</time>
      </trkpt>
      <trkpt lat="48.09861" lon="1.33614">
        <ele>120</ele>
        <time>2018-10-09T12:59:54.097Z</time>
      </trkpt>
      <trkpt lat="48.09859" lon="1.33614">
        <ele>120</ele>
        <time>2018-10-09T12:59:55.097Z</time>
      </trkpt>
      <trkpt lat="48.09858" lon="1.33614">
        <ele>120</ele>
        <time>2018-10-09T12:59:56.097Z</time>
      </trkpt>
      <trkpt lat="48.09857" lon="1.33614">
        <ele>120</ele>
        <time>2018-10-09T12:59:57.097Z</time>
      </trkpt>
      <trkpt lat="48.09855" lon="1.33614">
        <ele>120</ele>
        <time>2018-10-09T12:59:58.097Z</time>
      </trkpt>
      <trkpt lat="48.09854" lon="1.33615">
        <ele>121</ele>
        <time>2018-10-09T12:59:59.097Z</time>
      </trkpt>
      <trkpt lat="48.09853" lon="1.33615">
        <ele>121</ele>
        <time>2018-10-09T13:00:00.097Z</time>
      </trkpt>
      <trkpt lat="48.09851" lon="1.33615">
        <ele>121</ele>
        <time>2018-10-09T13:00:01.097Z</time>
      </trkpt>
      <trkpt lat="48.0985" lon="1.33615">
        <ele>121</ele>
        <time>2018-10-09T13:00:02.097Z</time>
      </trkpt>
      <trkpt lat="48.09849" lon="1.33616">
        <ele>121</ele>
        <time>2018-10-09T13:00:03.097Z</time>
      </trkpt>
      <trkpt lat="48.09848" lon="1.33616">
        <ele>121</ele>
        <time>2018-10-09T13:00:04.097Z</time>
      </trkpt>
      <trkpt lat="48.09846" lon="1.33616">
        <ele>121</ele>
        <time>2018-10-09T13:00:05.097Z</time>
      </trkpt>
      <trkpt lat="48.09845" lon="1.33616">
        <ele>121</ele>
        <time>2018-10-09T13:00:06.097Z</time>
      </trkpt>
      <trkpt lat="48.09844" lon="1.33617">
        <ele>121</ele>
        <time>2018-10-09T13:00:07.097Z</time>
      </trkpt>
      <trkpt lat="48.09842" lon="1.33617">
        <ele>121</ele>
        <time>2018-10-09T13:00:08.097Z</time>
      </trkpt>
      <trkpt lat="48.09841" lon="1.33617">
        <ele>121</ele>
        <time>2018-10-09T13:00:09.097Z</time>
      </trkpt>
      <trkpt lat="48.0984" lon="1.33617">
        <ele>121</ele>
        <time>2018-10-09T13:00:10.097Z</time>
      </trkpt>
      <trkpt lat="48.09839" lon="1.33617">
        <ele>121</ele>
        <time>2018-10-09T13:00:11.097Z</time>
      </trkpt>
      <trkpt lat="48.09837" lon="1.33617">
        <ele>121</ele>
        <time>2018-10-09T13:00:12.097Z</time>
      </trkpt>
      <trkpt lat="48.09836" lon="1.33617">
        <ele>121</ele>
        <time>2018-10-09T13:00:13.097Z</time>
      </trkpt>
      <trkpt lat="48.09835" lon="1.33618">
        <ele>121</ele>
        <time>2018-10-09T13:00:14.097Z</time>
      </trkpt>
      <trkpt lat="48.09833" lon="1.33618">
        <ele>122</ele>
        <time>2018-10-09T13:00:15.097Z</time>
      </trkpt>
      <trkpt lat="48.09832" lon="1.33618">
        <ele>121</ele>
        <time>2018-10-09T13:00:16.097Z</time>
      </trkpt>
      <trkpt lat="48.09831" lon="1.33618">
        <ele>122</ele>
        <time>2018-10-09T13:00:17.097Z</time>
      </trkpt>
      <trkpt lat="48.0983" lon="1.33618">
        <ele>122</ele>
        <time>2018-10-09T13:00:18.097Z</time>
      </trkpt>
      <trkpt lat="48.09829" lon="1.33618">
        <ele>122</ele>
        <time>2018-10-09T13:00:19.097Z</time>
      </trkpt>
      <trkpt lat="48.09827" lon="1.33618">
        <ele>122</ele>
        <time>2018-10-09T13:00:20.097Z</time>
      </trkpt>
      <trkpt lat="48.09826" lon="1.33619">
        <ele>122</ele>
        <time>2018-10-09T13:00:21.097Z</time>
      </trkpt>
      <trkpt lat="48.09825" lon="1.33619">
        <ele>122</ele>
        <time>2018-10-09T13:00:22.097Z</time>
      </trkpt>
      <trkpt lat="48.09824" lon="1.33619">
        <ele>122</ele>
        <time>2018-10-09T13:00:23.097Z</time>
      </trkpt>
      <trkpt lat="48.09822" lon="1.33619">
        <ele>122</ele>
        <time>2018-10-09T13:00:24.097Z</time>
      </trkpt>
      <trkpt lat="48.09821" lon="1.3362">
        <ele>122</ele>
        <time>2018-10-09T13:00:25.097Z</time>
      </trkpt>
      <trkpt lat="48.0982" lon="1.3362">
        <ele>122</ele>
        <time>2018-10-09T13:00:26.097Z</time>
      </trkpt>
      <trkpt lat="48.09819" lon="1.3362">
        <ele>122</ele>
        <time>2018-10-09T13:00:27.097Z</time>
      </trkpt>
      <trkpt lat="48.09818" lon="1.3362">
        <ele>122</ele>
        <time>2018-10-09T13:00:28.097Z</time>
      </trkpt>
      <trkpt lat="48.09817" lon="1.3362">
        <ele>122</ele>
        <time>2018-10-09T13:00:29.097Z</time>
      </trkpt>
      <trkpt lat="48.09816" lon="1.3362">
        <ele>122</ele>
        <time>2018-10-09T13:00:30.097Z</time>
      </trkpt>
      <trkpt lat="48.09814" lon="1.3362">
        <ele>122</ele>
        <time>2018-10-09T13:00:31.097Z</time>
      </trkpt>
      <trkpt lat="48.09813" lon="1.3362">
        <ele>122</ele>
        <time>2018-10-09T13:00:32.097Z</time>
      </trkpt>
      <trkpt lat="48.09812" lon="1.3362">
        <ele>122</ele>
        <time>2018-10-09T13:00:33.097Z</time>
      </trkpt>
      <trkpt lat="48.09811" lon="1.33621">
        <ele>122</ele>
        <time>2018-10-09T13:00:34.097Z</time>
      </trkpt>
      <trkpt lat="48.0981" lon="1.33621">
        <ele>122</ele>
        <time>2018-10-09T13:00:35.097Z</time>
      </trkpt>
      <trkpt lat="48.09808" lon="1.33621">
        <ele>122</ele>
        <time>2018-10-09T13:00:36.097Z</time>
      </trkpt>
      <trkpt lat="48.09807" lon="1.33622">
        <ele>122</ele>
        <time>2018-10-09T13:00:37.097Z</time>
      </trkpt>
      <trkpt lat="48.09806" lon="1.33622">
        <ele>122</ele>
        <time>2018-10-09T13:00:38.097Z</time>
      </trkpt>
      <trkpt lat="48.09805" lon="1.33621">
        <ele>122</ele>
        <time>2018-10-09T13:00:39.097Z</time>
      </trkpt>
      <trkpt lat="48.09803" lon="1.33621">
        <ele>122</ele>
        <time>2018-10-09T13:00:40.097Z</time>
      </trkpt>
      <trkpt lat="48.09802" lon="1.33621">
        <ele>122</ele>
        <time>2018-10-09T13:00:41.097Z</time>
      </trkpt>
      <trkpt lat="48.09801" lon="1.33621">
        <ele>123</ele>
        <time>2018-10-09T13:00:42.097Z</time>
      </trkpt>
      <trkpt lat="48.098" lon="1.33622">
        <ele>123</ele>
        <time>2018-10-09T13:00:43.097Z</time>
      </trkpt>
      <trkpt lat="48.09798" lon="1.33622">
        <ele>123</ele>
        <time>2018-10-09T13:00:44.097Z</time>
      </trkpt>
      <trkpt lat="48.09797" lon="1.33622">
        <ele>123</ele>
        <time>2018-10-09T13:00:45.097Z</time>
      </trkpt>
      <trkpt lat="48.09796" lon="1.33622">
        <ele>123</ele>
        <time>2018-10-09T13:00:46.097Z</time>
      </trkpt>
      <trkpt lat="48.09795" lon="1.33622">
        <ele>123</ele>
        <time>2018-10-09T13:00:47.097Z</time>
      </trkpt>
      <trkpt lat="48.09794" lon="1.33622">
        <ele>123</ele>
        <time>2018-10-09T13:00:48.097Z</time>
      </trkpt>
      <trkpt lat="48.09793" lon="1.33622">
        <ele>122</ele>
        <time>2018-10-09T13:00:49.097Z</time>
      </trkpt>
      <trkpt lat="48.09792" lon="1.33623">
        <ele>122</ele>
        <time>2018-10-09T13:00:50.097Z</time>
      </trkpt>
      <trkpt lat="48.0979" lon="1.33623">
        <ele>123</ele>
        <time>2018-10-09T13:00:51.097Z</time>
      </trkpt>
      <trkpt lat="48.09789" lon="1.33623">
        <ele>123</ele>
        <time>2018-10-09T13:00:52.097Z</time>
      </trkpt>
      <trkpt lat="48.09788" lon="1.33623">
        <ele>123</ele>
        <time>2018-10-09T13:00:53.097Z</time>
      </trkpt>
      <trkpt lat="48.09787" lon="1.33623">
        <ele>123</ele>
        <time>2018-10-09T13:00:54.097Z</time>
      </trkpt>
      <trkpt lat="48.09786" lon="1.33623">
        <ele>123</ele>
        <time>2018-10-09T13:00:55.097Z</time>
      </trkpt>
      <trkpt lat="48.09784" lon="1.33623">
        <ele>123</ele>
        <time>2018-10-09T13:00:56.097Z</time>
      </trkpt>
      <trkpt lat="48.09783" lon="1.33624">
        <ele>123</ele>
        <time>2018-10-09T13:00:57.097Z</time>
      </trkpt>
      <trkpt lat="48.09782" lon="1.33624">
        <ele>123</ele>
        <time>2018-10-09T13:00:58.097Z</time>
      </trkpt>
      <trkpt lat="48.09781" lon="1.33624">
        <ele>123</ele>
        <time>2018-10-09T13:00:59.097Z</time>
      </trkpt>
      <trkpt lat="48.0978" lon="1.33624">
        <ele>123</ele>
        <time>2018-10-09T13:01:00.097Z</time>
      </trkpt>
      <trkpt lat="48.09779" lon="1.33624">
        <ele>123</ele>
        <time>2018-10-09T13:01:01.097Z</time>
      </trkpt>
      <trkpt lat="48.09778" lon="1.33624">
        <ele>123</ele>
        <time>2018-10-09T13:01:02.097Z</time>
      </trkpt>
      <trkpt lat="48.09777" lon="1.33624">
        <ele>123</ele>
        <time>2018-10-09T13:01:03.097Z</time>
      </trkpt>
      <trkpt lat="48.09776" lon="1.33624">
        <ele>123</ele>
        <time>2018-10-09T13:01:04.097Z</time>
      </trkpt>
      <trkpt lat="48.09775" lon="1.33624">
        <ele>123</ele>
        <time>2018-10-09T13:01:05.097Z</time>
      </trkpt>
      <trkpt lat="48.09774" lon="1.33624">
        <ele>123</ele>
        <time>2018-10-09T13:01:06.097Z</time>
      </trkpt>
      <trkpt lat="48.09773" lon="1.33624">
        <ele>123</ele>
        <time>2018-10-09T13:01:07.097Z</time>
      </trkpt>
      <trkpt lat="48.09771" lon="1.33625">
        <ele>123</ele>
        <time>2018-10-09T13:01:08.097Z</time>
      </trkpt>
      <trkpt lat="48.0977" lon="1.33625">
        <ele>123</ele>
        <time>2018-10-09T13:01:09.097Z</time>
      </trkpt>
      <trkpt lat="48.0977" lon="1.33625">
        <ele>123</ele>
        <time>2018-10-09T13:01:10.097Z</time>
      </trkpt>
      <trkpt lat="48.09769" lon="1.33625">
        <ele>123</ele>
        <time>2018-10-09T13:01:11.097Z</time>
      </trkpt>
      <trkpt lat="48.09768" lon="1.33625">
        <ele>123</ele>
        <time>2018-10-09T13:01:12.097Z</time>
      </trkpt>
      <trkpt lat="48.09767" lon="1.33625">
        <ele>123</ele>
        <time>2018-10-09T13:01:13.097Z</time>
      </trkpt>
      <trkpt lat="48.09767" lon="1.33625">
        <ele>123</ele>
        <time>2018-10-09T13:01:14.097Z</time>
      </trkpt>
      <trkpt lat="48.09767" lon="1.33625">
        <ele>124</ele>
        <time>2018-10-09T13:01:15.097Z</time>
      </trkpt>
      <trkpt lat="48.09767" lon="1.33626">
        <ele>123</ele>
        <time>2018-10-09T13:01:16.097Z</time>
      </trkpt>
      <trkpt lat="48.09767" lon="1.33625">
        <ele>123</ele>
        <time>2018-10-09T13:01:17.097Z</time>
      </trkpt>
      <trkpt lat="48.09766" lon="1.33625">
        <ele>126</ele>
        <time>2018-10-09T13:01:18.086Z</time>
      </trkpt>
      <trkpt lat="48.09766" lon="1.33625">
        <ele>126</ele>
        <time>2018-10-09T13:01:19.086Z</time>
      </trkpt>
      <trkpt lat="48.09766" lon="1.33625">
        <ele>126</ele>
        <time>2018-10-09T13:01:20.086Z</time>
      </trkpt>
      <trkpt lat="48.09766" lon="1.33625">
        <ele>126</ele>
        <time>2018-10-09T13:01:21.086Z</time>
      </trkpt>
      <trkpt lat="48.09766" lon="1.33625">
        <ele>126</ele>
        <time>2018-10-09T13:01:22.086Z</time>
      </trkpt>
      <trkpt lat="48.09766" lon="1.33625">
        <ele>126</ele>
        <time>2018-10-09T13:01:23.086Z</time>
      </trkpt>
      <trkpt lat="48.09765" lon="1.3362">
        <ele>126</ele>
        <time>2018-10-09T13:01:24.090Z</time>
      </trkpt>
      <trkpt lat="48.09765" lon="1.33618">
        <ele>126</ele>
        <time>2018-10-09T13:01:25.090Z</time>
      </trkpt>
      <trkpt lat="48.09765" lon="1.33617">
        <ele>126</ele>
        <time>2018-10-09T13:01:26.090Z</time>
      </trkpt>
      <trkpt lat="48.09764" lon="1.33615">
        <ele>126</ele>
        <time>2018-10-09T13:01:27.090Z</time>
      </trkpt>
      <trkpt lat="48.09764" lon="1.33613">
        <ele>125</ele>
        <time>2018-10-09T13:01:28.090Z</time>
      </trkpt>
      <trkpt lat="48.09764" lon="1.33611">
        <ele>126</ele>
        <time>2018-10-09T13:01:29.090Z</time>
      </trkpt>
      <trkpt lat="48.09764" lon="1.33609">
        <ele>125</ele>
        <time>2018-10-09T13:01:30.090Z</time>
      </trkpt>
      <trkpt lat="48.09764" lon="1.33607">
        <ele>125</ele>
        <time>2018-10-09T13:01:31.090Z</time>
      </trkpt>
      <trkpt lat="48.09764" lon="1.33606">
        <ele>125</ele>
        <time>2018-10-09T13:01:32.090Z</time>
      </trkpt>
      <trkpt lat="48.09764" lon="1.33604">
        <ele>124</ele>
        <time>2018-10-09T13:01:33.090Z</time>
      </trkpt>
      <trkpt lat="48.09764" lon="1.33602">
        <ele>124</ele>
        <time>2018-10-09T13:01:34.090Z</time>
      </trkpt>
      <trkpt lat="48.09763" lon="1.336">
        <ele>124</ele>
        <time>2018-10-09T13:01:35.090Z</time>
      </trkpt>
      <trkpt lat="48.09763" lon="1.33598">
        <ele>124</ele>
        <time>2018-10-09T13:01:36.090Z</time>
      </trkpt>
      <trkpt lat="48.09763" lon="1.33597">
        <ele>124</ele>
        <time>2018-10-09T13:01:37.090Z</time>
      </trkpt>
      <trkpt lat="48.09763" lon="1.33595">
        <ele>124</ele>
        <time>2018-10-09T13:01:38.090Z</time>
      </trkpt>
      <trkpt lat="48.09763" lon="1.33593">
        <ele>124</ele>
        <time>2018-10-09T13:01:39.090Z</time>
      </trkpt>
      <trkpt lat="48.09762" lon="1.33592">
        <ele>124</ele>
        <time>2018-10-09T13:01:40.090Z</time>
      </trkpt>
      <trkpt lat="48.09762" lon="1.3359">
        <ele>125</ele>
        <time>2018-10-09T13:01:41.090Z</time>
      </trkpt>
      <trkpt lat="48.09762" lon="1.33588">
        <ele>124</ele>
        <time>2018-10-09T13:01:42.090Z</time>
      </trkpt>
      <trkpt lat="48.09761" lon="1.33586">
        <ele>124</ele>
        <time>2018-10-09T13:01:43.090Z</time>
      </trkpt>
      <trkpt lat="48.09761" lon="1.33584">
        <ele>124</ele>
        <time>2018-10-09T13:01:44.090Z</time>
      </trkpt>
      <trkpt lat="48.0976" lon="1.33583">
        <ele>124</ele>
        <time>2018-10-09T13:01:45.090Z</time>
      </trkpt>
      <trkpt lat="48.0976" lon="1.33581">
        <ele>124</ele>
        <time>2018-10-09T13:01:46.090Z</time>
      </trkpt>
      <trkpt lat="48.09759" lon="1.33579">
        <ele>124</ele>
        <time>2018-10-09T13:01:47.090Z</time>
      </trkpt>
      <trkpt lat="48.09759" lon="1.33578">
        <ele>124</ele>
        <time>2018-10-09T13:01:48.090Z</time>
      </trkpt>
      <trkpt lat="48.09758" lon="1.33576">
        <ele>124</ele>
        <time>2018-10-09T13:01:49.090Z</time>
      </trkpt>
      <trkpt lat="48.09758" lon="1.33574">
        <ele>124</ele>
        <time>2018-10-09T13:01:50.090Z</time>
      </trkpt>
      <trkpt lat="48.09757" lon="1.33573">
        <ele>125</ele>
        <time>2018-10-09T13:01:51.090Z</time>
      </trkpt>
      <trkpt lat="48.09757" lon="1.33571">
        <ele>125</ele>
        <time>2018-10-09T13:01:52.090Z</time>
      </trkpt>
      <trkpt lat="48.09757" lon="1.3357">
        <ele>125</ele>
        <time>2018-10-09T13:01:53.090Z</time>
      </trkpt>
      <trkpt lat="48.09756" lon="1.33568">
        <ele>125</ele>
        <time>2018-10-09T13:01:54.090Z</time>
      </trkpt>
      <trkpt lat="48.09756" lon="1.33567">
        <ele>125</ele>
        <time>2018-10-09T13:01:55.090Z</time>
      </trkpt>
      <trkpt lat="48.09755" lon="1.33565">
        <ele>125</ele>
        <time>2018-10-09T13:01:56.090Z</time>
      </trkpt>
      <trkpt lat="48.09755" lon="1.33563">
        <ele>125</ele>
        <time>2018-10-09T13:01:57.090Z</time>
      </trkpt>
      <trkpt lat="48.09754" lon="1.33561">
        <ele>124</ele>
        <time>2018-10-09T13:01:58.090Z</time>
      </trkpt>
      <trkpt lat="48.09754" lon="1.3356">
        <ele>124</ele>
        <time>2018-10-09T13:01:59.090Z</time>
      </trkpt>
      <trkpt lat="48.09754" lon="1.33558">
        <ele>124</ele>
        <time>2018-10-09T13:02:00.090Z</time>
      </trkpt>
      <trkpt lat="48.09753" lon="1.33556">
        <ele>124</ele>
        <time>2018-10-09T13:02:01.090Z</time>
      </trkpt>
      <trkpt lat="48.09753" lon="1.33555">
        <ele>124</ele>
        <time>2018-10-09T13:02:02.090Z</time>
      </trkpt>
      <trkpt lat="48.09752" lon="1.33553">
        <ele>124</ele>
        <time>2018-10-09T13:02:03.090Z</time>
      </trkpt>
      <trkpt lat="48.09752" lon="1.33551">
        <ele>124</ele>
        <time>2018-10-09T13:02:04.090Z</time>
      </trkpt>
      <trkpt lat="48.09752" lon="1.3355">
        <ele>123</ele>
        <time>2018-10-09T13:02:05.090Z</time>
      </trkpt>
      <trkpt lat="48.09751" lon="1.33548">
        <ele>124</ele>
        <time>2018-10-09T13:02:06.090Z</time>
      </trkpt>
      <trkpt lat="48.09751" lon="1.33547">
        <ele>124</ele>
        <time>2018-10-09T13:02:07.090Z</time>
      </trkpt>
      <trkpt lat="48.0975" lon="1.33545">
        <ele>124</ele>
        <time>2018-10-09T13:02:08.090Z</time>
      </trkpt>
      <trkpt lat="48.0975" lon="1.33543">
        <ele>124</ele>
        <time>2018-10-09T13:02:09.090Z</time>
      </trkpt>
      <trkpt lat="48.0975" lon="1.33542">
        <ele>124</ele>
        <time>2018-10-09T13:02:10.090Z</time>
      </trkpt>
      <trkpt lat="48.09749" lon="1.3354">
        <ele>123</ele>
        <time>2018-10-09T13:02:11.090Z</time>
      </trkpt>
      <trkpt lat="48.09749" lon="1.33538">
        <ele>123</ele>
        <time>2018-10-09T13:02:12.090Z</time>
      </trkpt>
      <trkpt lat="48.09748" lon="1.33536">
        <ele>122</ele>
        <time>2018-10-09T13:02:13.090Z</time>
      </trkpt>
      <trkpt lat="48.09748" lon="1.33535">
        <ele>122</ele>
        <time>2018-10-09T13:02:14.090Z</time>
      </trkpt>
      <trkpt lat="48.09747" lon="1.33533">
        <ele>122</ele>
        <time>2018-10-09T13:02:15.090Z</time>
      </trkpt>
      <trkpt lat="48.09747" lon="1.33531">
        <ele>122</ele>
        <time>2018-10-09T13:02:16.090Z</time>
      </trkpt>
      <trkpt lat="48.09747" lon="1.3353">
        <ele>122</ele>
        <time>2018-10-09T13:02:17.090Z</time>
      </trkpt>
      <trkpt lat="48.09746" lon="1.33528">
        <ele>122</ele>
        <time>2018-10-09T13:02:18.090Z</time>
      </trkpt>
      <trkpt lat="48.09746" lon="1.33526">
        <ele>122</ele>
        <time>2018-10-09T13:02:19.090Z</time>
      </trkpt>
      <trkpt lat="48.09745" lon="1.33525">
        <ele>122</ele>
        <time>2018-10-09T13:02:20.090Z</time>
      </trkpt>
      <trkpt lat="48.09745" lon="1.33523">
        <ele>122</ele>
        <time>2018-10-09T13:02:21.090Z</time>
      </trkpt>
      <trkpt lat="48.09745" lon="1.33521">
        <ele>122</ele>
        <time>2018-10-09T13:02:22.090Z</time>
      </trkpt>
      <trkpt lat="48.09744" lon="1.33519">
        <ele>122</ele>
        <time>2018-10-09T13:02:23.090Z</time>
      </trkpt>
      <trkpt lat="48.09744" lon="1.33518">
        <ele>122</ele>
        <time>2018-10-09T13:02:24.090Z</time>
      </trkpt>
      <trkpt lat="48.09743" lon="1.33516">
        <ele>122</ele>
        <time>2018-10-09T13:02:25.090Z</time>
      </trkpt>
      <trkpt lat="48.09743" lon="1.33515">
        <ele>122</ele>
        <time>2018-10-09T13:02:26.090Z</time>
      </trkpt>
      <trkpt lat="48.09743" lon="1.33513">
        <ele>122</ele>
        <time>2018-10-09T13:02:27.090Z</time>
      </trkpt>
      <trkpt lat="48.09742" lon="1.33512">
        <ele>122</ele>
        <time>2018-10-09T13:02:28.090Z</time>
      </trkpt>
      <trkpt lat="48.09742" lon="1.3351">
        <ele>121</ele>
        <time>2018-10-09T13:02:29.090Z</time>
      </trkpt>
      <trkpt lat="48.09741" lon="1.33509">
        <ele>121</ele>
        <time>2018-10-09T13:02:30.090Z</time>
      </trkpt>
      <trkpt lat="48.09741" lon="1.33507">
        <ele>121</ele>
        <time>2018-10-09T13:02:31.090Z</time>
      </trkpt>
      <trkpt lat="48.09741" lon="1.33505">
        <ele>120</ele>
        <time>2018-10-09T13:02:32.090Z</time>
      </trkpt>
      <trkpt lat="48.0974" lon="1.33503">
        <ele>120</ele>
        <time>2018-10-09T13:02:33.090Z</time>
      </trkpt>
      <trkpt lat="48.0974" lon="1.33501">
        <ele>120</ele>
        <time>2018-10-09T13:02:34.090Z</time>
      </trkpt>
      <trkpt lat="48.0974" lon="1.33499">
        <ele>120</ele>
        <time>2018-10-09T13:02:35.090Z</time>
      </trkpt>
      <trkpt lat="48.09739" lon="1.33498">
        <ele>120</ele>
        <time>2018-10-09T13:02:36.090Z</time>
      </trkpt>
      <trkpt lat="48.09739" lon="1.33496">
        <ele>120</ele>
        <time>2018-10-09T13:02:37.090Z</time>
      </trkpt>
      <trkpt lat="48.09738" lon="1.33494">
        <ele>120</ele>
        <time>2018-10-09T13:02:38.090Z</time>
      </trkpt>
      <trkpt lat="48.09738" lon="1.33493">
        <ele>120</ele>
        <time>2018-10-09T13:02:39.090Z</time>
      </trkpt>
      <trkpt lat="48.09737" lon="1.33491">
        <ele>120</ele>
        <time>2018-10-09T13:02:40.090Z</time>
      </trkpt>
      <trkpt lat="48.09737" lon="1.33489">
        <ele>120</ele>
        <time>2018-10-09T13:02:41.090Z</time>
      </trkpt>
      <trkpt lat="48.09736" lon="1.33487">
        <ele>120</ele>
        <time>2018-10-09T13:02:42.090Z</time>
      </trkpt>
      <trkpt lat="48.09736" lon="1.33485">
        <ele>119</ele>
        <time>2018-10-09T13:02:43.090Z</time>
      </trkpt>
      <trkpt lat="48.09735" lon="1.33483">
        <ele>119</ele>
        <time>2018-10-09T13:02:44.090Z</time>
      </trkpt>
      <trkpt lat="48.09735" lon="1.33481">
        <ele>119</ele>
        <time>2018-10-09T13:02:45.090Z</time>
      </trkpt>
      <trkpt lat="48.09734" lon="1.33479">
        <ele>120</ele>
        <time>2018-10-09T13:02:46.090Z</time>
      </trkpt>
      <trkpt lat="48.09734" lon="1.33476">
        <ele>120</ele>
        <time>2018-10-09T13:02:47.090Z</time>
      </trkpt>
      <trkpt lat="48.09733" lon="1.33474">
        <ele>120</ele>
        <time>2018-10-09T13:02:48.090Z</time>
      </trkpt>
      <trkpt lat="48.09733" lon="1.33472">
        <ele>120</ele>
        <time>2018-10-09T13:02:49.090Z</time>
      </trkpt>
      <trkpt lat="48.09732" lon="1.3347">
        <ele>120</ele>
        <time>2018-10-09T13:02:50.090Z</time>
      </trkpt>
      <trkpt lat="48.09732" lon="1.33468">
        <ele>120</ele>
        <time>2018-10-09T13:02:51.090Z</time>
      </trkpt>
      <trkpt lat="48.09731" lon="1.33466">
        <ele>120</ele>
        <time>2018-10-09T13:02:52.090Z</time>
      </trkpt>
      <trkpt lat="48.09731" lon="1.33464">
        <ele>120</ele>
        <time>2018-10-09T13:02:53.090Z</time>
      </trkpt>
      <trkpt lat="48.0973" lon="1.33462">
        <ele>120</ele>
        <time>2018-10-09T13:02:54.090Z</time>
      </trkpt>
      <trkpt lat="48.0973" lon="1.3346">
        <ele>120</ele>
        <time>2018-10-09T13:02:55.090Z</time>
      </trkpt>
      <trkpt lat="48.09729" lon="1.33459">
        <ele>120</ele>
        <time>2018-10-09T13:02:56.090Z</time>
      </trkpt>
      <trkpt lat="48.09729" lon="1.33457">
        <ele>119</ele>
        <time>2018-10-09T13:02:57.090Z</time>
      </trkpt>
      <trkpt lat="48.09728" lon="1.33455">
        <ele>119</ele>
        <time>2018-10-09T13:02:58.090Z</time>
      </trkpt>
      <trkpt lat="48.09728" lon="1.33453">
        <ele>118</ele>
        <time>2018-10-09T13:02:59.090Z</time>
      </trkpt>
      <trkpt lat="48.09727" lon="1.33451">
        <ele>118</ele>
        <time>2018-10-09T13:03:00.090Z</time>
      </trkpt>
      <trkpt lat="48.09727" lon="1.33449">
        <ele>118</ele>
        <time>2018-10-09T13:03:01.090Z</time>
      </trkpt>
      <trkpt lat="48.09726" lon="1.33447">
        <ele>118</ele>
        <time>2018-10-09T13:03:02.090Z</time>
      </trkpt>
      <trkpt lat="48.09726" lon="1.33445">
        <ele>118</ele>
        <time>2018-10-09T13:03:03.090Z</time>
      </trkpt>
      <trkpt lat="48.09726" lon="1.33443">
        <ele>118</ele>
        <time>2018-10-09T13:03:04.090Z</time>
      </trkpt>
      <trkpt lat="48.09725" lon="1.33441">
        <ele>118</ele>
        <time>2018-10-09T13:03:05.090Z</time>
      </trkpt>
      <trkpt lat="48.09725" lon="1.3344">
        <ele>118</ele>
        <time>2018-10-09T13:03:06.090Z</time>
      </trkpt>
      <trkpt lat="48.09724" lon="1.33438">
        <ele>118</ele>
        <time>2018-10-09T13:03:07.090Z</time>
      </trkpt>
      <trkpt lat="48.09724" lon="1.33436">
        <ele>118</ele>
        <time>2018-10-09T13:03:08.090Z</time>
      </trkpt>
      <trkpt lat="48.09723" lon="1.33434">
        <ele>118</ele>
        <time>2018-10-09T13:03:09.090Z</time>
      </trkpt>
      <trkpt lat="48.09723" lon="1.33432">
        <ele>118</ele>
        <time>2018-10-09T13:03:10.090Z</time>
      </trkpt>
      <trkpt lat="48.09722" lon="1.3343">
        <ele>118</ele>
        <time>2018-10-09T13:03:11.090Z</time>
      </trkpt>
      <trkpt lat="48.09722" lon="1.33428">
        <ele>118</ele>
        <time>2018-10-09T13:03:12.090Z</time>
      </trkpt>
      <trkpt lat="48.09721" lon="1.33426">
        <ele>119</ele>
        <time>2018-10-09T13:03:13.090Z</time>
      </trkpt>
      <trkpt lat="48.09721" lon="1.33424">
        <ele>118</ele>
        <time>2018-10-09T13:03:14.090Z</time>
      </trkpt>
      <trkpt lat="48.09721" lon="1.33422">
        <ele>118</ele>
        <time>2018-10-09T13:03:15.090Z</time>
      </trkpt>
      <trkpt lat="48.0972" lon="1.3342">
        <ele>118</ele>
        <time>2018-10-09T13:03:16.090Z</time>
      </trkpt>
      <trkpt lat="48.0972" lon="1.33418">
        <ele>118</ele>
        <time>2018-10-09T13:03:17.090Z</time>
      </trkpt>
      <trkpt lat="48.0972" lon="1.33416">
        <ele>118</ele>
        <time>2018-10-09T13:03:18.090Z</time>
      </trkpt>
      <trkpt lat="48.0972" lon="1.33414">
        <ele>117</ele>
        <time>2018-10-09T13:03:19.090Z</time>
      </trkpt>
      <trkpt lat="48.09719" lon="1.33413">
        <ele>117</ele>
        <time>2018-10-09T13:03:20.090Z</time>
      </trkpt>
      <trkpt lat="48.09719" lon="1.33411">
        <ele>117</ele>
        <time>2018-10-09T13:03:21.090Z</time>
      </trkpt>
      <trkpt lat="48.09719" lon="1.33409">
        <ele>117</ele>
        <time>2018-10-09T13:03:22.090Z</time>
      </trkpt>
      <trkpt lat="48.09718" lon="1.33407">
        <ele>117</ele>
        <time>2018-10-09T13:03:23.090Z</time>
      </trkpt>
      <trkpt lat="48.09718" lon="1.33406">
        <ele>117</ele>
        <time>2018-10-09T13:03:24.090Z</time>
      </trkpt>
      <trkpt lat="48.09718" lon="1.33404">
        <ele>118</ele>
        <time>2018-10-09T13:03:25.090Z</time>
      </trkpt>
      <trkpt lat="48.09718" lon="1.33402">
        <ele>118</ele>
        <time>2018-10-09T13:03:26.090Z</time>
      </trkpt>
      <trkpt lat="48.09717" lon="1.334">
        <ele>118</ele>
        <time>2018-10-09T13:03:27.090Z</time>
      </trkpt>
      <trkpt lat="48.09717" lon="1.33398">
        <ele>117</ele>
        <time>2018-10-09T13:03:28.090Z</time>
      </trkpt>
      <trkpt lat="48.09717" lon="1.33396">
        <ele>117</ele>
        <time>2018-10-09T13:03:29.090Z</time>
      </trkpt>
      <trkpt lat="48.09716" lon="1.33394">
        <ele>117</ele>
        <time>2018-10-09T13:03:30.090Z</time>
      </trkpt>
      <trkpt lat="48.09716" lon="1.33392">
        <ele>117</ele>
        <time>2018-10-09T13:03:31.090Z</time>
      </trkpt>
      <trkpt lat="48.09715" lon="1.3339">
        <ele>117</ele>
        <time>2018-10-09T13:03:32.090Z</time>
      </trkpt>
      <trkpt lat="48.09715" lon="1.33388">
        <ele>117</ele>
        <time>2018-10-09T13:03:33.090Z</time>
      </trkpt>
      <trkpt lat="48.09714" lon="1.33386">
        <ele>117</ele>
        <time>2018-10-09T13:03:34.090Z</time>
      </trkpt>
      <trkpt lat="48.09714" lon="1.33385">
        <ele>117</ele>
        <time>2018-10-09T13:03:35.090Z</time>
      </trkpt>
      <trkpt lat="48.09713" lon="1.33383">
        <ele>116</ele>
        <time>2018-10-09T13:03:36.090Z</time>
      </trkpt>
      <trkpt lat="48.09713" lon="1.33381">
        <ele>116</ele>
        <time>2018-10-09T13:03:37.090Z</time>
      </trkpt>
      <trkpt lat="48.09712" lon="1.33379">
        <ele>116</ele>
        <time>2018-10-09T13:03:38.090Z</time>
      </trkpt>
      <trkpt lat="48.09712" lon="1.33377">
        <ele>116</ele>
        <time>2018-10-09T13:03:39.090Z</time>
      </trkpt>
      <trkpt lat="48.09712" lon="1.33375">
        <ele>116</ele>
        <time>2018-10-09T13:03:40.090Z</time>
      </trkpt>
      <trkpt lat="48.09711" lon="1.33373">
        <ele>115</ele>
        <time>2018-10-09T13:03:41.090Z</time>
      </trkpt>
      <trkpt lat="48.09711" lon="1.33371">
        <ele>115</ele>
        <time>2018-10-09T13:03:42.090Z</time>
      </trkpt>
      <trkpt lat="48.09711" lon="1.33369">
        <ele>115</ele>
        <time>2018-10-09T13:03:43.090Z</time>
      </trkpt>
      <trkpt lat="48.09711" lon="1.33368">
        <ele>115</ele>
        <time>2018-10-09T13:03:44.090Z</time>
      </trkpt>
      <trkpt lat="48.0971" lon="1.33366">
        <ele>114</ele>
        <time>2018-10-09T13:03:45.090Z</time>
      </trkpt>
      <trkpt lat="48.0971" lon="1.33364">
        <ele>114</ele>
        <time>2018-10-09T13:03:46.090Z</time>
      </trkpt>
      <trkpt lat="48.0971" lon="1.33362">
        <ele>114</ele>
        <time>2018-10-09T13:03:47.090Z</time>
      </trkpt>
      <trkpt lat="48.0971" lon="1.3336">
        <ele>114</ele>
        <time>2018-10-09T13:03:48.090Z</time>
      </trkpt>
      <trkpt lat="48.0971" lon="1.33358">
        <ele>114</ele>
        <time>2018-10-09T13:03:49.090Z</time>
      </trkpt>
      <trkpt lat="48.0971" lon="1.33356">
        <ele>114</ele>
        <time>2018-10-09T13:03:50.090Z</time>
      </trkpt>
      <trkpt lat="48.0971" lon="1.33355">
        <ele>114</ele>
        <time>2018-10-09T13:03:51.090Z</time>
      </trkpt>
      <trkpt lat="48.0971" lon="1.33353">
        <ele>114</ele>
        <time>2018-10-09T13:03:52.090Z</time>
      </trkpt>
      <trkpt lat="48.0971" lon="1.33351">
        <ele>114</ele>
        <time>2018-10-09T13:03:53.090Z</time>
      </trkpt>
      <trkpt lat="48.0971" lon="1.33349">
        <ele>113</ele>
        <time>2018-10-09T13:03:54.090Z</time>
      </trkpt>
      <trkpt lat="48.0971" lon="1.33347">
        <ele>113</ele>
        <time>2018-10-09T13:03:55.090Z</time>
      </trkpt>
      <trkpt lat="48.0971" lon="1.33345">
        <ele>113</ele>
        <time>2018-10-09T13:03:56.090Z</time>
      </trkpt>
      <trkpt lat="48.0971" lon="1.33343">
        <ele>113</ele>
        <time>2018-10-09T13:03:57.090Z</time>
      </trkpt>
      <trkpt lat="48.0971" lon="1.33341">
        <ele>113</ele>
        <time>2018-10-09T13:03:58.090Z</time>
      </trkpt>
      <trkpt lat="48.0971" lon="1.33339">
        <ele>113</ele>
        <time>2018-10-09T13:03:59.090Z</time>
      </trkpt>
      <trkpt lat="48.09711" lon="1.33337">
        <ele>113</ele>
        <time>2018-10-09T13:04:00.090Z</time>
      </trkpt>
      <trkpt lat="48.09711" lon="1.33335">
        <ele>114</ele>
        <time>2018-10-09T13:04:01.090Z</time>
      </trkpt>
      <trkpt lat="48.09711" lon="1.33333">
        <ele>114</ele>
        <time>2018-10-09T13:04:02.090Z</time>
      </trkpt>
      <trkpt lat="48.09711" lon="1.33331">
        <ele>114</ele>
        <time>2018-10-09T13:04:03.090Z</time>
      </trkpt>
      <trkpt lat="48.09711" lon="1.33328">
        <ele>114</ele>
        <time>2018-10-09T13:04:04.090Z</time>
      </trkpt>
      <trkpt lat="48.09712" lon="1.33327">
        <ele>114</ele>
        <time>2018-10-09T13:04:05.090Z</time>
      </trkpt>
      <trkpt lat="48.09712" lon="1.33325">
        <ele>114</ele>
        <time>2018-10-09T13:04:06.090Z</time>
      </trkpt>
      <trkpt lat="48.09712" lon="1.33323">
        <ele>114</ele>
        <time>2018-10-09T13:04:07.090Z</time>
      </trkpt>
      <trkpt lat="48.09713" lon="1.33321">
        <ele>114</ele>
        <time>2018-10-09T13:04:08.090Z</time>
      </trkpt>
      <trkpt lat="48.09713" lon="1.3332">
        <ele>114</ele>
        <time>2018-10-09T13:04:09.090Z</time>
      </trkpt>
      <trkpt lat="48.09714" lon="1.33318">
        <ele>114</ele>
        <time>2018-10-09T13:04:10.090Z</time>
      </trkpt>
      <trkpt lat="48.09714" lon="1.33316">
        <ele>114</ele>
        <time>2018-10-09T13:04:11.090Z</time>
      </trkpt>
      <trkpt lat="48.09715" lon="1.33314">
        <ele>114</ele>
        <time>2018-10-09T13:04:12.090Z</time>
      </trkpt>
      <trkpt lat="48.09716" lon="1.33312">
        <ele>114</ele>
        <time>2018-10-09T13:04:13.090Z</time>
      </trkpt>
      <trkpt lat="48.09716" lon="1.33311">
        <ele>114</ele>
        <time>2018-10-09T13:04:14.090Z</time>
      </trkpt>
      <trkpt lat="48.09717" lon="1.33309">
        <ele>114</ele>
        <time>2018-10-09T13:04:15.090Z</time>
      </trkpt>
      <trkpt lat="48.09718" lon="1.33307">
        <ele>114</ele>
        <time>2018-10-09T13:04:16.090Z</time>
      </trkpt>
      <trkpt lat="48.09718" lon="1.33306">
        <ele>114</ele>
        <time>2018-10-09T13:04:17.090Z</time>
      </trkpt>
      <trkpt lat="48.09719" lon="1.33304">
        <ele>114</ele>
        <time>2018-10-09T13:04:18.090Z</time>
      </trkpt>
      <trkpt lat="48.0972" lon="1.33302">
        <ele>115</ele>
        <time>2018-10-09T13:04:19.090Z</time>
      </trkpt>
      <trkpt lat="48.09721" lon="1.33301">
        <ele>114</ele>
        <time>2018-10-09T13:04:20.090Z</time>
      </trkpt>
      <trkpt lat="48.09722" lon="1.33299">
        <ele>114</ele>
        <time>2018-10-09T13:04:21.090Z</time>
      </trkpt>
      <trkpt lat="48.09723" lon="1.33298">
        <ele>114</ele>
        <time>2018-10-09T13:04:22.090Z</time>
      </trkpt>
      <trkpt lat="48.09724" lon="1.33296">
        <ele>114</ele>
        <time>2018-10-09T13:04:23.090Z</time>
      </trkpt>
      <trkpt lat="48.09725" lon="1.33295">
        <ele>114</ele>
        <time>2018-10-09T13:04:24.090Z</time>
      </trkpt>
      <trkpt lat="48.09726" lon="1.33294">
        <ele>114</ele>
        <time>2018-10-09T13:04:25.090Z</time>
      </trkpt>
      <trkpt lat="48.09727" lon="1.33292">
        <ele>114</ele>
        <time>2018-10-09T13:04:26.090Z</time>
      </trkpt>
      <trkpt lat="48.09728" lon="1.33291">
        <ele>114</ele>
        <time>2018-10-09T13:04:27.090Z</time>
      </trkpt>
      <trkpt lat="48.09729" lon="1.33289">
        <ele>114</ele>
        <time>2018-10-09T13:04:28.090Z</time>
      </trkpt>
      <trkpt lat="48.0973" lon="1.33288">
        <ele>114</ele>
        <time>2018-10-09T13:04:29.090Z</time>
      </trkpt>
      <trkpt lat="48.09731" lon="1.33287">
        <ele>114</ele>
        <time>2018-10-09T13:04:30.090Z</time>
      </trkpt>
      <trkpt lat="48.09732" lon="1.33286">
        <ele>114</ele>
        <time>2018-10-09T13:04:31.090Z</time>
      </trkpt>
      <trkpt lat="48.09733" lon="1.33284">
        <ele>114</ele>
        <time>2018-10-09T13:04:32.090Z</time>
      </trkpt>
      <trkpt lat="48.09734" lon="1.33283">
        <ele>114</ele>
        <time>2018-10-09T13:04:33.090Z</time>
      </trkpt>
      <trkpt lat="48.09735" lon="1.33282">
        <ele>114</ele>
        <time>2018-10-09T13:04:34.090Z</time>
      </trkpt>
      <trkpt lat="48.09736" lon="1.33281">
        <ele>114</ele>
        <time>2018-10-09T13:04:35.090Z</time>
      </trkpt>
      <trkpt lat="48.09737" lon="1.3328">
        <ele>114</ele>
        <time>2018-10-09T13:04:36.090Z</time>
      </trkpt>
      <trkpt lat="48.09738" lon="1.33278">
        <ele>114</ele>
        <time>2018-10-09T13:04:37.090Z</time>
      </trkpt>
      <trkpt lat="48.09739" lon="1.33277">
        <ele>114</ele>
        <time>2018-10-09T13:04:38.090Z</time>
      </trkpt>
      <trkpt lat="48.0974" lon="1.33276">
        <ele>114</ele>
        <time>2018-10-09T13:04:39.090Z</time>
      </trkpt>
      <trkpt lat="48.09741" lon="1.33275">
        <ele>114</ele>
        <time>2018-10-09T13:04:40.090Z</time>
      </trkpt>
      <trkpt lat="48.09742" lon="1.33274">
        <ele>114</ele>
        <time>2018-10-09T13:04:41.090Z</time>
      </trkpt>
      <trkpt lat="48.09743" lon="1.33273">
        <ele>114</ele>
        <time>2018-10-09T13:04:42.090Z</time>
      </trkpt>
      <trkpt lat="48.09744" lon="1.33272">
        <ele>114</ele>
        <time>2018-10-09T13:04:43.090Z</time>
      </trkpt>
      <trkpt lat="48.09745" lon="1.33271">
        <ele>114</ele>
        <time>2018-10-09T13:04:44.090Z</time>
      </trkpt>
      <trkpt lat="48.09746" lon="1.3327">
        <ele>114</ele>
        <time>2018-10-09T13:04:45.090Z</time>
      </trkpt>
      <trkpt lat="48.09747" lon="1.33269">
        <ele>114</ele>
        <time>2018-10-09T13:04:46.090Z</time>
      </trkpt>
      <trkpt lat="48.09748" lon="1.33268">
        <ele>113</ele>
        <time>2018-10-09T13:04:47.090Z</time>
      </trkpt>
      <trkpt lat="48.09749" lon="1.33267">
        <ele>113</ele>
        <time>2018-10-09T13:04:48.090Z</time>
      </trkpt>
      <trkpt lat="48.0975" lon="1.33265">
        <ele>113</ele>
        <time>2018-10-09T13:04:49.090Z</time>
      </trkpt>
      <trkpt lat="48.09751" lon="1.33264">
        <ele>113</ele>
        <time>2018-10-09T13:04:50.090Z</time>
      </trkpt>
      <trkpt lat="48.09753" lon="1.33263">
        <ele>113</ele>
        <time>2018-10-09T13:04:51.090Z</time>
      </trkpt>
      <trkpt lat="48.09754" lon="1.33262">
        <ele>113</ele>
        <time>2018-10-09T13:04:52.090Z</time>
      </trkpt>
      <trkpt lat="48.09755" lon="1.33261">
        <ele>113</ele>
        <time>2018-10-09T13:04:53.090Z</time>
      </trkpt>
      <trkpt lat="48.09756" lon="1.3326">
        <ele>113</ele>
        <time>2018-10-09T13:04:54.090Z</time>
      </trkpt>
      <trkpt lat="48.09757" lon="1.33259">
        <ele>113</ele>
        <time>2018-10-09T13:04:55.090Z</time>
      </trkpt>
      <trkpt lat="48.09758" lon="1.33258">
        <ele>113</ele>
        <time>2018-10-09T13:04:56.090Z</time>
      </trkpt>
      <trkpt lat="48.09759" lon="1.33257">
        <ele>113</ele>
        <time>2018-10-09T13:04:57.090Z</time>
      </trkpt>
      <trkpt lat="48.0976" lon="1.33256">
        <ele>113</ele>
        <time>2018-10-09T13:04:58.090Z</time>
      </trkpt>
      <trkpt lat="48.09761" lon="1.33254">
        <ele>113</ele>
        <time>2018-10-09T13:04:59.090Z</time>
      </trkpt>
      <trkpt lat="48.09761" lon="1.33253">
        <ele>113</ele>
        <time>2018-10-09T13:05:00.090Z</time>
      </trkpt>
      <trkpt lat="48.09762" lon="1.33252">
        <ele>113</ele>
        <time>2018-10-09T13:05:01.090Z</time>
      </trkpt>
      <trkpt lat="48.09763" lon="1.3325">
        <ele>113</ele>
        <time>2018-10-09T13:05:02.090Z</time>
      </trkpt>
      <trkpt lat="48.09764" lon="1.33249">
        <ele>113</ele>
        <time>2018-10-09T13:05:03.090Z</time>
      </trkpt>
      <trkpt lat="48.09764" lon="1.33247">
        <ele>113</ele>
        <time>2018-10-09T13:05:04.090Z</time>
      </trkpt>
      <trkpt lat="48.09765" lon="1.33245">
        <ele>113</ele>
        <time>2018-10-09T13:05:05.090Z</time>
      </trkpt>
      <trkpt lat="48.09765" lon="1.33244">
        <ele>113</ele>
        <time>2018-10-09T13:05:06.090Z</time>
      </trkpt>
      <trkpt lat="48.09765" lon="1.33242">
        <ele>113</ele>
        <time>2018-10-09T13:05:07.090Z</time>
      </trkpt>
      <trkpt lat="48.09766" lon="1.3324">
        <ele>113</ele>
        <time>2018-10-09T13:05:08.090Z</time>
      </trkpt>
      <trkpt lat="48.09766" lon="1.33238">
        <ele>113</ele>
        <time>2018-10-09T13:05:09.090Z</time>
      </trkpt>
      <trkpt lat="48.09766" lon="1.33236">
        <ele>113</ele>
        <time>2018-10-09T13:05:10.090Z</time>
      </trkpt>
      <trkpt lat="48.09766" lon="1.33234">
        <ele>113</ele>
        <time>2018-10-09T13:05:11.090Z</time>
      </trkpt>
      <trkpt lat="48.09766" lon="1.33232">
        <ele>113</ele>
        <time>2018-10-09T13:05:12.090Z</time>
      </trkpt>
      <trkpt lat="48.09766" lon="1.3323">
        <ele>113</ele>
        <time>2018-10-09T13:05:13.090Z</time>
      </trkpt>
      <trkpt lat="48.09766" lon="1.33228">
        <ele>113</ele>
        <time>2018-10-09T13:05:14.090Z</time>
      </trkpt>
      <trkpt lat="48.09766" lon="1.33226">
        <ele>112</ele>
        <time>2018-10-09T13:05:15.090Z</time>
      </trkpt>
      <trkpt lat="48.09765" lon="1.33224">
        <ele>113</ele>
        <time>2018-10-09T13:05:16.090Z</time>
      </trkpt>
      <trkpt lat="48.09765" lon="1.33222">
        <ele>112</ele>
        <time>2018-10-09T13:05:17.090Z</time>
      </trkpt>
      <trkpt lat="48.09765" lon="1.3322">
        <ele>113</ele>
        <time>2018-10-09T13:05:18.090Z</time>
      </trkpt>
      <trkpt lat="48.09765" lon="1.33218">
        <ele>113</ele>
        <time>2018-10-09T13:05:19.090Z</time>
      </trkpt>
      <trkpt lat="48.09764" lon="1.33217">
        <ele>113</ele>
        <time>2018-10-09T13:05:20.090Z</time>
      </trkpt>
      <trkpt lat="48.09764" lon="1.33215">
        <ele>112</ele>
        <time>2018-10-09T13:05:21.090Z</time>
      </trkpt>
      <trkpt lat="48.09764" lon="1.33213">
        <ele>112</ele>
        <time>2018-10-09T13:05:22.090Z</time>
      </trkpt>
      <trkpt lat="48.09763" lon="1.33211">
        <ele>112</ele>
        <time>2018-10-09T13:05:23.090Z</time>
      </trkpt>
      <trkpt lat="48.09763" lon="1.33209">
        <ele>112</ele>
        <time>2018-10-09T13:05:24.090Z</time>
      </trkpt>
      <trkpt lat="48.09763" lon="1.33207">
        <ele>112</ele>
        <time>2018-10-09T13:05:25.090Z</time>
      </trkpt>
      <trkpt lat="48.09762" lon="1.33205">
        <ele>111</ele>
        <time>2018-10-09T13:05:26.090Z</time>
      </trkpt>
      <trkpt lat="48.09762" lon="1.33203">
        <ele>111</ele>
        <time>2018-10-09T13:05:27.090Z</time>
      </trkpt>
      <trkpt lat="48.09762" lon="1.33201">
        <ele>111</ele>
        <time>2018-10-09T13:05:28.090Z</time>
      </trkpt>
      <trkpt lat="48.09761" lon="1.33199">
        <ele>111</ele>
        <time>2018-10-09T13:05:29.090Z</time>
      </trkpt>
      <trkpt lat="48.09761" lon="1.33197">
        <ele>111</ele>
        <time>2018-10-09T13:05:30.090Z</time>
      </trkpt>
      <trkpt lat="48.09761" lon="1.33196">
        <ele>111</ele>
        <time>2018-10-09T13:05:31.090Z</time>
      </trkpt>
      <trkpt lat="48.0976" lon="1.33194">
        <ele>111</ele>
        <time>2018-10-09T13:05:32.090Z</time>
      </trkpt>
      <trkpt lat="48.0976" lon="1.33192">
        <ele>111</ele>
        <time>2018-10-09T13:05:33.090Z</time>
      </trkpt>
      <trkpt lat="48.09759" lon="1.3319">
        <ele>112</ele>
        <time>2018-10-09T13:05:34.090Z</time>
      </trkpt>
      <trkpt lat="48.09759" lon="1.33188">
        <ele>112</ele>
        <time>2018-10-09T13:05:35.090Z</time>
      </trkpt>
      <trkpt lat="48.09759" lon="1.33187">
        <ele>111</ele>
        <time>2018-10-09T13:05:36.090Z</time>
      </trkpt>
      <trkpt lat="48.09758" lon="1.33185">
        <ele>111</ele>
        <time>2018-10-09T13:05:37.090Z</time>
      </trkpt>
      <trkpt lat="48.09758" lon="1.33183">
        <ele>111</ele>
        <time>2018-10-09T13:05:38.090Z</time>
      </trkpt>
      <trkpt lat="48.09758" lon="1.33181">
        <ele>111</ele>
        <time>2018-10-09T13:05:39.090Z</time>
      </trkpt>
      <trkpt lat="48.09757" lon="1.33179">
        <ele>110</ele>
        <time>2018-10-09T13:05:40.090Z</time>
      </trkpt>
      <trkpt lat="48.09757" lon="1.33177">
        <ele>111</ele>
        <time>2018-10-09T13:05:41.090Z</time>
      </trkpt>
      <trkpt lat="48.09757" lon="1.33175">
        <ele>110</ele>
        <time>2018-10-09T13:05:42.090Z</time>
      </trkpt>
      <trkpt lat="48.09757" lon="1.33173">
        <ele>109</ele>
        <time>2018-10-09T13:05:43.090Z</time>
      </trkpt>
      <trkpt lat="48.09756" lon="1.33171">
        <ele>109</ele>
        <time>2018-10-09T13:05:44.090Z</time>
      </trkpt>
      <trkpt lat="48.09756" lon="1.33169">
        <ele>109</ele>
        <time>2018-10-09T13:05:45.090Z</time>
      </trkpt>
      <trkpt lat="48.09756" lon="1.33167">
        <ele>109</ele>
        <time>2018-10-09T13:05:46.090Z</time>
      </trkpt>
      <trkpt lat="48.09755" lon="1.33166">
        <ele>109</ele>
        <time>2018-10-09T13:05:47.090Z</time>
      </trkpt>
      <trkpt lat="48.09755" lon="1.33164">
        <ele>109</ele>
        <time>2018-10-09T13:05:48.090Z</time>
      </trkpt>
      <trkpt lat="48.09755" lon="1.33162">
        <ele>109</ele>
        <time>2018-10-09T13:05:49.090Z</time>
      </trkpt>
      <trkpt lat="48.09755" lon="1.3316">
        <ele>109</ele>
        <time>2018-10-09T13:05:50.090Z</time>
      </trkpt>
      <trkpt lat="48.09755" lon="1.33158">
        <ele>109</ele>
        <time>2018-10-09T13:05:51.090Z</time>
      </trkpt>
      <trkpt lat="48.09754" lon="1.33156">
        <ele>109</ele>
        <time>2018-10-09T13:05:52.090Z</time>
      </trkpt>
      <trkpt lat="48.09754" lon="1.33154">
        <ele>109</ele>
        <time>2018-10-09T13:05:53.090Z</time>
      </trkpt>
      <trkpt lat="48.09754" lon="1.33152">
        <ele>108</ele>
        <time>2018-10-09T13:05:54.090Z</time>
      </trkpt>
      <trkpt lat="48.09754" lon="1.3315">
        <ele>108</ele>
        <time>2018-10-09T13:05:55.090Z</time>
      </trkpt>
      <trkpt lat="48.09753" lon="1.33149">
        <ele>108</ele>
        <time>2018-10-09T13:05:56.090Z</time>
      </trkpt>
      <trkpt lat="48.09753" lon="1.33147">
        <ele>109</ele>
        <time>2018-10-09T13:05:57.090Z</time>
      </trkpt>
      <trkpt lat="48.09753" lon="1.33145">
        <ele>108</ele>
        <time>2018-10-09T13:05:58.090Z</time>
      </trkpt>
      <trkpt lat="48.09753" lon="1.33143">
        <ele>108</ele>
        <time>2018-10-09T13:05:59.090Z</time>
      </trkpt>
      <trkpt lat="48.09753" lon="1.33142">
        <ele>108</ele>
        <time>2018-10-09T13:06:00.090Z</time>
      </trkpt>
      <trkpt lat="48.09752" lon="1.3314">
        <ele>108</ele>
        <time>2018-10-09T13:06:01.090Z</time>
      </trkpt>
      <trkpt lat="48.09752" lon="1.33138">
        <ele>108</ele>
        <time>2018-10-09T13:06:02.090Z</time>
      </trkpt>
      <trkpt lat="48.09752" lon="1.33136">
        <ele>108</ele>
        <time>2018-10-09T13:06:03.090Z</time>
      </trkpt>
      <trkpt lat="48.09752" lon="1.33134">
        <ele>108</ele>
        <time>2018-10-09T13:06:04.090Z</time>
      </trkpt>
      <trkpt lat="48.09752" lon="1.33132">
        <ele>108</ele>
        <time>2018-10-09T13:06:05.090Z</time>
      </trkpt>
      <trkpt lat="48.09751" lon="1.33131">
        <ele>108</ele>
        <time>2018-10-09T13:06:06.090Z</time>
      </trkpt>
      <trkpt lat="48.09751" lon="1.33129">
        <ele>108</ele>
        <time>2018-10-09T13:06:07.090Z</time>
      </trkpt>
      <trkpt lat="48.09751" lon="1.33127">
        <ele>108</ele>
        <time>2018-10-09T13:06:08.090Z</time>
      </trkpt>
      <trkpt lat="48.0975" lon="1.33125">
        <ele>108</ele>
        <time>2018-10-09T13:06:09.090Z</time>
      </trkpt>
      <trkpt lat="48.0975" lon="1.33123">
        <ele>108</ele>
        <time>2018-10-09T13:06:10.090Z</time>
      </trkpt>
      <trkpt lat="48.0975" lon="1.33121">
        <ele>108</ele>
        <time>2018-10-09T13:06:11.090Z</time>
      </trkpt>
      <trkpt lat="48.09749" lon="1.33119">
        <ele>108</ele>
        <time>2018-10-09T13:06:12.090Z</time>
      </trkpt>
      <trkpt lat="48.09749" lon="1.33117">
        <ele>107</ele>
        <time>2018-10-09T13:06:13.090Z</time>
      </trkpt>
      <trkpt lat="48.09748" lon="1.33115">
        <ele>107</ele>
        <time>2018-10-09T13:06:14.090Z</time>
      </trkpt>
      <trkpt lat="48.09748" lon="1.33112">
        <ele>107</ele>
        <time>2018-10-09T13:06:15.090Z</time>
      </trkpt>
      <trkpt lat="48.09748" lon="1.3311">
        <ele>107</ele>
        <time>2018-10-09T13:06:16.090Z</time>
      </trkpt>
      <trkpt lat="48.09747" lon="1.33108">
        <ele>107</ele>
        <time>2018-10-09T13:06:17.090Z</time>
      </trkpt>
      <trkpt lat="48.09747" lon="1.33106">
        <ele>107</ele>
        <time>2018-10-09T13:06:18.090Z</time>
      </trkpt>
      <trkpt lat="48.09746" lon="1.33105">
        <ele>107</ele>
        <time>2018-10-09T13:06:19.090Z</time>
      </trkpt>
      <trkpt lat="48.09746" lon="1.33102">
        <ele>107</ele>
        <time>2018-10-09T13:06:20.090Z</time>
      </trkpt>
      <trkpt lat="48.09746" lon="1.331">
        <ele>107</ele>
        <time>2018-10-09T13:06:21.090Z</time>
      </trkpt>
      <trkpt lat="48.09745" lon="1.33098">
        <ele>107</ele>
        <time>2018-10-09T13:06:22.090Z</time>
      </trkpt>
      <trkpt lat="48.09745" lon="1.33096">
        <ele>108</ele>
        <time>2018-10-09T13:06:23.090Z</time>
      </trkpt>
      <trkpt lat="48.09744" lon="1.33095">
        <ele>108</ele>
        <time>2018-10-09T13:06:24.090Z</time>
      </trkpt>
      <trkpt lat="48.09744" lon="1.33092">
        <ele>108</ele>
        <time>2018-10-09T13:06:25.090Z</time>
      </trkpt>
      <trkpt lat="48.09744" lon="1.33091">
        <ele>108</ele>
        <time>2018-10-09T13:06:26.090Z</time>
      </trkpt>
      <trkpt lat="48.09743" lon="1.33089">
        <ele>108</ele>
        <time>2018-10-09T13:06:27.090Z</time>
      </trkpt>
      <trkpt lat="48.09743" lon="1.33087">
        <ele>108</ele>
        <time>2018-10-09T13:06:28.090Z</time>
      </trkpt>
      <trkpt lat="48.09743" lon="1.33085">
        <ele>108</ele>
        <time>2018-10-09T13:06:29.090Z</time>
      </trkpt>
      <trkpt lat="48.09742" lon="1.33083">
        <ele>108</ele>
        <time>2018-10-09T13:06:30.090Z</time>
      </trkpt>
      <trkpt lat="48.09742" lon="1.33081">
        <ele>108</ele>
        <time>2018-10-09T13:06:31.090Z</time>
      </trkpt>
      <trkpt lat="48.09741" lon="1.3308">
        <ele>108</ele>
        <time>2018-10-09T13:06:32.090Z</time>
      </trkpt>
      <trkpt lat="48.09741" lon="1.33078">
        <ele>108</ele>
        <time>2018-10-09T13:06:33.090Z</time>
      </trkpt>
      <trkpt lat="48.09741" lon="1.33076">
        <ele>108</ele>
        <time>2018-10-09T13:06:34.090Z</time>
      </trkpt>
      <trkpt lat="48.0974" lon="1.33075">
        <ele>108</ele>
        <time>2018-10-09T13:06:35.090Z</time>
      </trkpt>
      <trkpt lat="48.0974" lon="1.33074">
        <ele>109</ele>
        <time>2018-10-09T13:06:36.090Z</time>
      </trkpt>
      <trkpt lat="48.0974" lon="1.33072">
        <ele>109</ele>
        <time>2018-10-09T13:06:37.090Z</time>
      </trkpt>
      <trkpt lat="48.0974" lon="1.33071">
        <ele>109</ele>
        <time>2018-10-09T13:06:38.090Z</time>
      </trkpt>
      <trkpt lat="48.0974" lon="1.3307">
        <ele>109</ele>
        <time>2018-10-09T13:06:39.090Z</time>
      </trkpt>
      <trkpt lat="48.0974" lon="1.33069">
        <ele>109</ele>
        <time>2018-10-09T13:06:40.090Z</time>
      </trkpt>
      <trkpt lat="48.0974" lon="1.33068">
        <ele>109</ele>
        <time>2018-10-09T13:06:41.090Z</time>
      </trkpt>
      <trkpt lat="48.0974" lon="1.33068">
        <ele>109</ele>
        <time>2018-10-09T13:06:42.090Z</time>
      </trkpt>
      <trkpt lat="48.0974" lon="1.33068">
        <ele>109</ele>
        <time>2018-10-09T13:06:43.090Z</time>
      </trkpt>
      <trkpt lat="48.0974" lon="1.33067">
        <ele>109</ele>
        <time>2018-10-09T13:06:44.090Z</time>
      </trkpt>
      <trkpt lat="48.0974" lon="1.33067">
        <ele>109</ele>
        <time>2018-10-09T13:06:45.090Z</time>
      </trkpt>
      <trkpt lat="48.0974" lon="1.33067">
        <ele>109</ele>
        <time>2018-10-09T13:06:46.090Z</time>
      </trkpt>
      <trkpt lat="48.0974" lon="1.33066">
        <ele>109</ele>
        <time>2018-10-09T13:06:47.090Z</time>
      </trkpt>
      <trkpt lat="48.0974" lon="1.33066">
        <ele>109</ele>
        <time>2018-10-09T13:06:48.090Z</time>
      </trkpt>
      <trkpt lat="48.0974" lon="1.33066">
        <ele>109</ele>
        <time>2018-10-09T13:06:49.090Z</time>
      </trkpt>
      <trkpt lat="48.0974" lon="1.33066">
        <ele>109</ele>
        <time>2018-10-09T13:06:50.090Z</time>
      </trkpt>
      <trkpt lat="48.0974" lon="1.33066">
        <ele>109</ele>
        <time>2018-10-09T13:06:51.090Z</time>
      </trkpt>
      <trkpt lat="48.0974" lon="1.33066">
        <ele>109</ele>
        <time>2018-10-09T13:06:52.090Z</time>
      </trkpt>
      <trkpt lat="48.0974" lon="1.33066">
        <ele>109</ele>
        <time>2018-10-09T13:06:53.090Z</time>
      </trkpt>
      <trkpt lat="48.0974" lon="1.33065">
        <ele>109</ele>
        <time>2018-10-09T13:06:54.090Z</time>
      </trkpt>
      <trkpt lat="48.0974" lon="1.33065">
        <ele>109</ele>
        <time>2018-10-09T13:06:55.090Z</time>
      </trkpt>
      <trkpt lat="48.0974" lon="1.33065">
        <ele>109</ele>
        <time>2018-10-09T13:06:56.090Z</time>
      </trkpt>
      <trkpt lat="48.0974" lon="1.33065">
        <ele>109</ele>
        <time>2018-10-09T13:06:57.090Z</time>
      </trkpt>
      <trkpt lat="48.0974" lon="1.33065">
        <ele>109</ele>
        <time>2018-10-09T13:06:58.090Z</time>
      </trkpt>
      <trkpt lat="48.09738" lon="1.33057">
        <ele>111</ele>
        <time>2018-10-09T13:06:59.094Z</time>
      </trkpt>
      <trkpt lat="48.09737" lon="1.33055">
        <ele>110</ele>
        <time>2018-10-09T13:07:00.094Z</time>
      </trkpt>
      <trkpt lat="48.09736" lon="1.33052">
        <ele>110</ele>
        <time>2018-10-09T13:07:01.094Z</time>
      </trkpt>
      <trkpt lat="48.09736" lon="1.3305">
        <ele>110</ele>
        <time>2018-10-09T13:07:02.094Z</time>
      </trkpt>
      <trkpt lat="48.09735" lon="1.33047">
        <ele>111</ele>
        <time>2018-10-09T13:07:03.094Z</time>
      </trkpt>
      <trkpt lat="48.09734" lon="1.33045">
        <ele>110</ele>
        <time>2018-10-09T13:07:04.094Z</time>
      </trkpt>
      <trkpt lat="48.09734" lon="1.33043">
        <ele>110</ele>
        <time>2018-10-09T13:07:05.094Z</time>
      </trkpt>
      <trkpt lat="48.09733" lon="1.33041">
        <ele>110</ele>
        <time>2018-10-09T13:07:06.094Z</time>
      </trkpt>
      <trkpt lat="48.09732" lon="1.3304">
        <ele>110</ele>
        <time>2018-10-09T13:07:07.094Z</time>
      </trkpt>
      <trkpt lat="48.09732" lon="1.33038">
        <ele>109</ele>
        <time>2018-10-09T13:07:08.094Z</time>
      </trkpt>
      <trkpt lat="48.09731" lon="1.33036">
        <ele>109</ele>
        <time>2018-10-09T13:07:09.094Z</time>
      </trkpt>
      <trkpt lat="48.09731" lon="1.33035">
        <ele>109</ele>
        <time>2018-10-09T13:07:10.094Z</time>
      </trkpt>
      <trkpt lat="48.0973" lon="1.33033">
        <ele>109</ele>
        <time>2018-10-09T13:07:11.094Z</time>
      </trkpt>
      <trkpt lat="48.0973" lon="1.33031">
        <ele>108</ele>
        <time>2018-10-09T13:07:12.094Z</time>
      </trkpt>
      <trkpt lat="48.09729" lon="1.3303">
        <ele>108</ele>
        <time>2018-10-09T13:07:13.094Z</time>
      </trkpt>
      <trkpt lat="48.09729" lon="1.33028">
        <ele>108</ele>
        <time>2018-10-09T13:07:14.094Z</time>
      </trkpt>
      <trkpt lat="48.09728" lon="1.33026">
        <ele>108</ele>
        <time>2018-10-09T13:07:15.094Z</time>
      </trkpt>
      <trkpt lat="48.09728" lon="1.33024">
        <ele>108</ele>
        <time>2018-10-09T13:07:16.094Z</time>
      </trkpt>
      <trkpt lat="48.09727" lon="1.33023">
        <ele>108</ele>
        <time>2018-10-09T13:07:17.094Z</time>
      </trkpt>
      <trkpt lat="48.09727" lon="1.33021">
        <ele>108</ele>
        <time>2018-10-09T13:07:18.094Z</time>
      </trkpt>
      <trkpt lat="48.09726" lon="1.3302">
        <ele>108</ele>
        <time>2018-10-09T13:07:19.094Z</time>
      </trkpt>
      <trkpt lat="48.09726" lon="1.33018">
        <ele>108</ele>
        <time>2018-10-09T13:07:20.094Z</time>
      </trkpt>
      <trkpt lat="48.09725" lon="1.33017">
        <ele>107</ele>
        <time>2018-10-09T13:07:21.094Z</time>
      </trkpt>
      <trkpt lat="48.09725" lon="1.33015">
        <ele>107</ele>
        <time>2018-10-09T13:07:22.094Z</time>
      </trkpt>
      <trkpt lat="48.09724" lon="1.33013">
        <ele>107</ele>
        <time>2018-10-09T13:07:23.094Z</time>
      </trkpt>
      <trkpt lat="48.09724" lon="1.33012">
        <ele>107</ele>
        <time>2018-10-09T13:07:24.094Z</time>
      </trkpt>
      <trkpt lat="48.09723" lon="1.3301">
        <ele>107</ele>
        <time>2018-10-09T13:07:25.094Z</time>
      </trkpt>
      <trkpt lat="48.09723" lon="1.33008">
        <ele>107</ele>
        <time>2018-10-09T13:07:26.094Z</time>
      </trkpt>
      <trkpt lat="48.09722" lon="1.33006">
        <ele>107</ele>
        <time>2018-10-09T13:07:27.094Z</time>
      </trkpt>
      <trkpt lat="48.09722" lon="1.33004">
        <ele>108</ele>
        <time>2018-10-09T13:07:28.094Z</time>
      </trkpt>
      <trkpt lat="48.09721" lon="1.33003">
        <ele>108</ele>
        <time>2018-10-09T13:07:29.094Z</time>
      </trkpt>
      <trkpt lat="48.09721" lon="1.33001">
        <ele>107</ele>
        <time>2018-10-09T13:07:30.094Z</time>
      </trkpt>
      <trkpt lat="48.0972" lon="1.32999">
        <ele>108</ele>
        <time>2018-10-09T13:07:31.094Z</time>
      </trkpt>
      <trkpt lat="48.0972" lon="1.32998">
        <ele>108</ele>
        <time>2018-10-09T13:07:32.094Z</time>
      </trkpt>
      <trkpt lat="48.09719" lon="1.32996">
        <ele>108</ele>
        <time>2018-10-09T13:07:33.094Z</time>
      </trkpt>
      <trkpt lat="48.09719" lon="1.32994">
        <ele>108</ele>
        <time>2018-10-09T13:07:34.094Z</time>
      </trkpt>
      <trkpt lat="48.09718" lon="1.32992">
        <ele>107</ele>
        <time>2018-10-09T13:07:35.094Z</time>
      </trkpt>
      <trkpt lat="48.09718" lon="1.32991">
        <ele>108</ele>
        <time>2018-10-09T13:07:36.094Z</time>
      </trkpt>
      <trkpt lat="48.09718" lon="1.32989">
        <ele>108</ele>
        <time>2018-10-09T13:07:37.094Z</time>
      </trkpt>
      <trkpt lat="48.09717" lon="1.32987">
        <ele>108</ele>
        <time>2018-10-09T13:07:38.094Z</time>
      </trkpt>
      <trkpt lat="48.09717" lon="1.32986">
        <ele>108</ele>
        <time>2018-10-09T13:07:39.094Z</time>
      </trkpt>
      <trkpt lat="48.09717" lon="1.32984">
        <ele>108</ele>
        <time>2018-10-09T13:07:40.094Z</time>
      </trkpt>
      <trkpt lat="48.09716" lon="1.32982">
        <ele>107</ele>
        <time>2018-10-09T13:07:41.094Z</time>
      </trkpt>
      <trkpt lat="48.09716" lon="1.3298">
        <ele>107</ele>
        <time>2018-10-09T13:07:42.094Z</time>
      </trkpt>
      <trkpt lat="48.09715" lon="1.32979">
        <ele>107</ele>
        <time>2018-10-09T13:07:43.094Z</time>
      </trkpt>
      <trkpt lat="48.09715" lon="1.32977">
        <ele>107</ele>
        <time>2018-10-09T13:07:44.094Z</time>
      </trkpt>
      <trkpt lat="48.09714" lon="1.32976">
        <ele>107</ele>
        <time>2018-10-09T13:07:45.094Z</time>
      </trkpt>
      <trkpt lat="48.09713" lon="1.32974">
        <ele>107</ele>
        <time>2018-10-09T13:07:46.094Z</time>
      </trkpt>
      <trkpt lat="48.09712" lon="1.32972">
        <ele>107</ele>
        <time>2018-10-09T13:07:47.094Z</time>
      </trkpt>
      <trkpt lat="48.09712" lon="1.3297">
        <ele>107</ele>
        <time>2018-10-09T13:07:48.094Z</time>
      </trkpt>
      <trkpt lat="48.09711" lon="1.32968">
        <ele>106</ele>
        <time>2018-10-09T13:07:49.094Z</time>
      </trkpt>
      <trkpt lat="48.0971" lon="1.32966">
        <ele>106</ele>
        <time>2018-10-09T13:07:50.094Z</time>
      </trkpt>
      <trkpt lat="48.0971" lon="1.32965">
        <ele>107</ele>
        <time>2018-10-09T13:07:51.094Z</time>
      </trkpt>
      <trkpt lat="48.09709" lon="1.32963">
        <ele>107</ele>
        <time>2018-10-09T13:07:52.094Z</time>
      </trkpt>
      <trkpt lat="48.09709" lon="1.32961">
        <ele>107</ele>
        <time>2018-10-09T13:07:53.094Z</time>
      </trkpt>
      <trkpt lat="48.09708" lon="1.3296">
        <ele>107</ele>
        <time>2018-10-09T13:07:54.094Z</time>
      </trkpt>
      <trkpt lat="48.09708" lon="1.32958">
        <ele>107</ele>
        <time>2018-10-09T13:07:55.094Z</time>
      </trkpt>
      <trkpt lat="48.09707" lon="1.32956">
        <ele>106</ele>
        <time>2018-10-09T13:07:56.094Z</time>
      </trkpt>
      <trkpt lat="48.09707" lon="1.32954">
        <ele>106</ele>
        <time>2018-10-09T13:07:57.094Z</time>
      </trkpt>
      <trkpt lat="48.09706" lon="1.32952">
        <ele>106</ele>
        <time>2018-10-09T13:07:58.094Z</time>
      </trkpt>
      <trkpt lat="48.09706" lon="1.3295">
        <ele>106</ele>
        <time>2018-10-09T13:07:59.094Z</time>
      </trkpt>
      <trkpt lat="48.09705" lon="1.32949">
        <ele>106</ele>
        <time>2018-10-09T13:08:00.094Z</time>
      </trkpt>
      <trkpt lat="48.09705" lon="1.32947">
        <ele>106</ele>
        <time>2018-10-09T13:08:01.094Z</time>
      </trkpt>
      <trkpt lat="48.09704" lon="1.32945">
        <ele>105</ele>
        <time>2018-10-09T13:08:02.094Z</time>
      </trkpt>
      <trkpt lat="48.09703" lon="1.32943">
        <ele>106</ele>
        <time>2018-10-09T13:08:03.094Z</time>
      </trkpt>
      <trkpt lat="48.09703" lon="1.32941">
        <ele>106</ele>
        <time>2018-10-09T13:08:04.094Z</time>
      </trkpt>
      <trkpt lat="48.09702" lon="1.32939">
        <ele>106</ele>
        <time>2018-10-09T13:08:05.094Z</time>
      </trkpt>
      <trkpt lat="48.09702" lon="1.32937">
        <ele>106</ele>
        <time>2018-10-09T13:08:06.094Z</time>
      </trkpt>
      <trkpt lat="48.09701" lon="1.32936">
        <ele>106</ele>
        <time>2018-10-09T13:08:07.094Z</time>
      </trkpt>
      <trkpt lat="48.09701" lon="1.32934">
        <ele>106</ele>
        <time>2018-10-09T13:08:08.094Z</time>
      </trkpt>
      <trkpt lat="48.097" lon="1.32932">
        <ele>106</ele>
        <time>2018-10-09T13:08:09.094Z</time>
      </trkpt>
      <trkpt lat="48.097" lon="1.3293">
        <ele>106</ele>
        <time>2018-10-09T13:08:10.094Z</time>
      </trkpt>
      <trkpt lat="48.09699" lon="1.32928">
        <ele>106</ele>
        <time>2018-10-09T13:08:11.094Z</time>
      </trkpt>
      <trkpt lat="48.09699" lon="1.32926">
        <ele>105</ele>
        <time>2018-10-09T13:08:12.094Z</time>
      </trkpt>
      <trkpt lat="48.09699" lon="1.32925">
        <ele>105</ele>
        <time>2018-10-09T13:08:13.094Z</time>
      </trkpt>
      <trkpt lat="48.09698" lon="1.32923">
        <ele>105</ele>
        <time>2018-10-09T13:08:14.094Z</time>
      </trkpt>
      <trkpt lat="48.09698" lon="1.32921">
        <ele>105</ele>
        <time>2018-10-09T13:08:15.094Z</time>
      </trkpt>
      <trkpt lat="48.09697" lon="1.32918">
        <ele>105</ele>
        <time>2018-10-09T13:08:16.094Z</time>
      </trkpt>
      <trkpt lat="48.09697" lon="1.32916">
        <ele>105</ele>
        <time>2018-10-09T13:08:17.094Z</time>
      </trkpt>
      <trkpt lat="48.09696" lon="1.32914">
        <ele>105</ele>
        <time>2018-10-09T13:08:18.094Z</time>
      </trkpt>
      <trkpt lat="48.09696" lon="1.32912">
        <ele>105</ele>
        <time>2018-10-09T13:08:19.094Z</time>
      </trkpt>
      <trkpt lat="48.09695" lon="1.3291">
        <ele>105</ele>
        <time>2018-10-09T13:08:20.094Z</time>
      </trkpt>
      <trkpt lat="48.09695" lon="1.32909">
        <ele>105</ele>
        <time>2018-10-09T13:08:21.094Z</time>
      </trkpt>
      <trkpt lat="48.09694" lon="1.32907">
        <ele>105</ele>
        <time>2018-10-09T13:08:22.094Z</time>
      </trkpt>
      <trkpt lat="48.09694" lon="1.32905">
        <ele>105</ele>
        <time>2018-10-09T13:08:23.094Z</time>
      </trkpt>
      <trkpt lat="48.09693" lon="1.32903">
        <ele>105</ele>
        <time>2018-10-09T13:08:24.094Z</time>
      </trkpt>
      <trkpt lat="48.09693" lon="1.32901">
        <ele>105</ele>
        <time>2018-10-09T13:08:25.094Z</time>
      </trkpt>
      <trkpt lat="48.09692" lon="1.32899">
        <ele>105</ele>
        <time>2018-10-09T13:08:26.094Z</time>
      </trkpt>
      <trkpt lat="48.09692" lon="1.32898">
        <ele>105</ele>
        <time>2018-10-09T13:08:27.094Z</time>
      </trkpt>
      <trkpt lat="48.09691" lon="1.32896">
        <ele>105</ele>
        <time>2018-10-09T13:08:28.094Z</time>
      </trkpt>
      <trkpt lat="48.09691" lon="1.32894">
        <ele>105</ele>
        <time>2018-10-09T13:08:29.094Z</time>
      </trkpt>
      <trkpt lat="48.09691" lon="1.32892">
        <ele>105</ele>
        <time>2018-10-09T13:08:30.094Z</time>
      </trkpt>
      <trkpt lat="48.0969" lon="1.3289">
        <ele>105</ele>
        <time>2018-10-09T13:08:31.094Z</time>
      </trkpt>
      <trkpt lat="48.0969" lon="1.32888">
        <ele>106</ele>
        <time>2018-10-09T13:08:32.094Z</time>
      </trkpt>
      <trkpt lat="48.09689" lon="1.32886">
        <ele>105</ele>
        <time>2018-10-09T13:08:33.094Z</time>
      </trkpt>
      <trkpt lat="48.09689" lon="1.32884">
        <ele>105</ele>
        <time>2018-10-09T13:08:34.094Z</time>
      </trkpt>
      <trkpt lat="48.09688" lon="1.32883">
        <ele>105</ele>
        <time>2018-10-09T13:08:35.094Z</time>
      </trkpt>
      <trkpt lat="48.09688" lon="1.32881">
        <ele>105</ele>
        <time>2018-10-09T13:08:36.094Z</time>
      </trkpt>
      <trkpt lat="48.09688" lon="1.32879">
        <ele>105</ele>
        <time>2018-10-09T13:08:37.094Z</time>
      </trkpt>
      <trkpt lat="48.09687" lon="1.32878">
        <ele>104</ele>
        <time>2018-10-09T13:08:38.094Z</time>
      </trkpt>
      <trkpt lat="48.09687" lon="1.32876">
        <ele>104</ele>
        <time>2018-10-09T13:08:39.094Z</time>
      </trkpt>
      <trkpt lat="48.09686" lon="1.32874">
        <ele>104</ele>
        <time>2018-10-09T13:08:40.094Z</time>
      </trkpt>
      <trkpt lat="48.09686" lon="1.32873">
        <ele>104</ele>
        <time>2018-10-09T13:08:41.094Z</time>
      </trkpt>
      <trkpt lat="48.09685" lon="1.32871">
        <ele>104</ele>
        <time>2018-10-09T13:08:42.094Z</time>
      </trkpt>
      <trkpt lat="48.09685" lon="1.3287">
        <ele>103</ele>
        <time>2018-10-09T13:08:43.094Z</time>
      </trkpt>
      <trkpt lat="48.09685" lon="1.32868">
        <ele>103</ele>
        <time>2018-10-09T13:08:44.094Z</time>
      </trkpt>
      <trkpt lat="48.09685" lon="1.32866">
        <ele>103</ele>
        <time>2018-10-09T13:08:45.094Z</time>
      </trkpt>
      <trkpt lat="48.09685" lon="1.32865">
        <ele>103</ele>
        <time>2018-10-09T13:08:46.094Z</time>
      </trkpt>
      <trkpt lat="48.09684" lon="1.32863">
        <ele>103</ele>
        <time>2018-10-09T13:08:47.094Z</time>
      </trkpt>
      <trkpt lat="48.09684" lon="1.32861">
        <ele>102</ele>
        <time>2018-10-09T13:08:48.094Z</time>
      </trkpt>
      <trkpt lat="48.09684" lon="1.32859">
        <ele>102</ele>
        <time>2018-10-09T13:08:49.094Z</time>
      </trkpt>
      <trkpt lat="48.09684" lon="1.32857">
        <ele>102</ele>
        <time>2018-10-09T13:08:50.094Z</time>
      </trkpt>
      <trkpt lat="48.09685" lon="1.32855">
        <ele>103</ele>
        <time>2018-10-09T13:08:51.094Z</time>
      </trkpt>
      <trkpt lat="48.09685" lon="1.32853">
        <ele>103</ele>
        <time>2018-10-09T13:08:52.094Z</time>
      </trkpt>
      <trkpt lat="48.09685" lon="1.32851">
        <ele>103</ele>
        <time>2018-10-09T13:08:53.094Z</time>
      </trkpt>
      <trkpt lat="48.09685" lon="1.32849">
        <ele>103</ele>
        <time>2018-10-09T13:08:54.094Z</time>
      </trkpt>
      <trkpt lat="48.09685" lon="1.32847">
        <ele>103</ele>
        <time>2018-10-09T13:08:55.094Z</time>
      </trkpt>
      <trkpt lat="48.09686" lon="1.32845">
        <ele>103</ele>
        <time>2018-10-09T13:08:56.094Z</time>
      </trkpt>
      <trkpt lat="48.09686" lon="1.32843">
        <ele>103</ele>
        <time>2018-10-09T13:08:57.094Z</time>
      </trkpt>
      <trkpt lat="48.09686" lon="1.32841">
        <ele>104</ele>
        <time>2018-10-09T13:08:58.094Z</time>
      </trkpt>
      <trkpt lat="48.09687" lon="1.32839">
        <ele>104</ele>
        <time>2018-10-09T13:08:59.094Z</time>
      </trkpt>
      <trkpt lat="48.09687" lon="1.32838">
        <ele>104</ele>
        <time>2018-10-09T13:09:00.094Z</time>
      </trkpt>
      <trkpt lat="48.09688" lon="1.32836">
        <ele>103</ele>
        <time>2018-10-09T13:09:01.094Z</time>
      </trkpt>
      <trkpt lat="48.09688" lon="1.32834">
        <ele>103</ele>
        <time>2018-10-09T13:09:02.094Z</time>
      </trkpt>
      <trkpt lat="48.09689" lon="1.32832">
        <ele>103</ele>
        <time>2018-10-09T13:09:03.094Z</time>
      </trkpt>
      <trkpt lat="48.0969" lon="1.32831">
        <ele>103</ele>
        <time>2018-10-09T13:09:04.094Z</time>
      </trkpt>
      <trkpt lat="48.0969" lon="1.32829">
        <ele>103</ele>
        <time>2018-10-09T13:09:05.094Z</time>
      </trkpt>
      <trkpt lat="48.09691" lon="1.32828">
        <ele>103</ele>
        <time>2018-10-09T13:09:06.094Z</time>
      </trkpt>
      <trkpt lat="48.09692" lon="1.32826">
        <ele>102</ele>
        <time>2018-10-09T13:09:07.094Z</time>
      </trkpt>
      <trkpt lat="48.09693" lon="1.32825">
        <ele>103</ele>
        <time>2018-10-09T13:09:08.094Z</time>
      </trkpt>
      <trkpt lat="48.09694" lon="1.32823">
        <ele>103</ele>
        <time>2018-10-09T13:09:09.094Z</time>
      </trkpt>
      <trkpt lat="48.09695" lon="1.32822">
        <ele>103</ele>
        <time>2018-10-09T13:09:10.094Z</time>
      </trkpt>
      <trkpt lat="48.09696" lon="1.3282">
        <ele>103</ele>
        <time>2018-10-09T13:09:11.094Z</time>
      </trkpt>
      <trkpt lat="48.09696" lon="1.32819">
        <ele>103</ele>
        <time>2018-10-09T13:09:12.094Z</time>
      </trkpt>
      <trkpt lat="48.09697" lon="1.32817">
        <ele>103</ele>
        <time>2018-10-09T13:09:13.094Z</time>
      </trkpt>
      <trkpt lat="48.09698" lon="1.32816">
        <ele>103</ele>
        <time>2018-10-09T13:09:14.094Z</time>
      </trkpt>
      <trkpt lat="48.09699" lon="1.32814">
        <ele>104</ele>
        <time>2018-10-09T13:09:15.094Z</time>
      </trkpt>
      <trkpt lat="48.097" lon="1.32813">
        <ele>103</ele>
        <time>2018-10-09T13:09:16.094Z</time>
      </trkpt>
      <trkpt lat="48.09701" lon="1.32811">
        <ele>104</ele>
        <time>2018-10-09T13:09:17.094Z</time>
      </trkpt>
      <trkpt lat="48.09702" lon="1.3281">
        <ele>104</ele>
        <time>2018-10-09T13:09:18.094Z</time>
      </trkpt>
      <trkpt lat="48.09703" lon="1.32808">
        <ele>104</ele>
        <time>2018-10-09T13:09:19.094Z</time>
      </trkpt>
      <trkpt lat="48.09704" lon="1.32807">
        <ele>104</ele>
        <time>2018-10-09T13:09:20.094Z</time>
      </trkpt>
      <trkpt lat="48.09705" lon="1.32805">
        <ele>104</ele>
        <time>2018-10-09T13:09:21.094Z</time>
      </trkpt>
      <trkpt lat="48.09706" lon="1.32804">
        <ele>104</ele>
        <time>2018-10-09T13:09:22.094Z</time>
      </trkpt>
      <trkpt lat="48.09706" lon="1.32802">
        <ele>104</ele>
        <time>2018-10-09T13:09:23.094Z</time>
      </trkpt>
      <trkpt lat="48.09707" lon="1.32801">
        <ele>104</ele>
        <time>2018-10-09T13:09:24.094Z</time>
      </trkpt>
      <trkpt lat="48.09708" lon="1.32799">
        <ele>105</ele>
        <time>2018-10-09T13:09:25.094Z</time>
      </trkpt>
      <trkpt lat="48.09709" lon="1.32798">
        <ele>105</ele>
        <time>2018-10-09T13:09:26.094Z</time>
      </trkpt>
      <trkpt lat="48.0971" lon="1.32796">
        <ele>104</ele>
        <time>2018-10-09T13:09:27.094Z</time>
      </trkpt>
      <trkpt lat="48.09711" lon="1.32795">
        <ele>105</ele>
        <time>2018-10-09T13:09:28.094Z</time>
      </trkpt>
      <trkpt lat="48.09712" lon="1.32794">
        <ele>105</ele>
        <time>2018-10-09T13:09:29.094Z</time>
      </trkpt>
      <trkpt lat="48.09713" lon="1.32792">
        <ele>105</ele>
        <time>2018-10-09T13:09:30.094Z</time>
      </trkpt>
      <trkpt lat="48.09714" lon="1.32791">
        <ele>105</ele>
        <time>2018-10-09T13:09:31.094Z</time>
      </trkpt>
      <trkpt lat="48.09715" lon="1.32789">
        <ele>105</ele>
        <time>2018-10-09T13:09:32.094Z</time>
      </trkpt>
      <trkpt lat="48.09716" lon="1.32788">
        <ele>105</ele>
        <time>2018-10-09T13:09:33.094Z</time>
      </trkpt>
      <trkpt lat="48.09717" lon="1.32787">
        <ele>105</ele>
        <time>2018-10-09T13:09:34.094Z</time>
      </trkpt>
      <trkpt lat="48.09718" lon="1.32786">
        <ele>105</ele>
        <time>2018-10-09T13:09:35.094Z</time>
      </trkpt>
      <trkpt lat="48.09719" lon="1.32784">
        <ele>105</ele>
        <time>2018-10-09T13:09:36.094Z</time>
      </trkpt>
      <trkpt lat="48.0972" lon="1.32783">
        <ele>105</ele>
        <time>2018-10-09T13:09:37.094Z</time>
      </trkpt>
      <trkpt lat="48.09721" lon="1.32782">
        <ele>105</ele>
        <time>2018-10-09T13:09:38.094Z</time>
      </trkpt>
      <trkpt lat="48.09722" lon="1.3278">
        <ele>105</ele>
        <time>2018-10-09T13:09:39.094Z</time>
      </trkpt>
      <trkpt lat="48.09723" lon="1.32779">
        <ele>105</ele>
        <time>2018-10-09T13:09:40.094Z</time>
      </trkpt>
      <trkpt lat="48.09724" lon="1.32778">
        <ele>105</ele>
        <time>2018-10-09T13:09:41.094Z</time>
      </trkpt>
      <trkpt lat="48.09725" lon="1.32777">
        <ele>105</ele>
        <time>2018-10-09T13:09:42.094Z</time>
      </trkpt>
      <trkpt lat="48.09726" lon="1.32775">
        <ele>105</ele>
        <time>2018-10-09T13:09:43.094Z</time>
      </trkpt>
      <trkpt lat="48.09727" lon="1.32774">
        <ele>105</ele>
        <time>2018-10-09T13:09:44.094Z</time>
      </trkpt>
      <trkpt lat="48.09728" lon="1.32773">
        <ele>105</ele>
        <time>2018-10-09T13:09:45.094Z</time>
      </trkpt>
      <trkpt lat="48.09729" lon="1.32772">
        <ele>105</ele>
        <time>2018-10-09T13:09:46.094Z</time>
      </trkpt>
      <trkpt lat="48.0973" lon="1.3277">
        <ele>105</ele>
        <time>2018-10-09T13:09:47.094Z</time>
      </trkpt>
      <trkpt lat="48.09731" lon="1.32769">
        <ele>105</ele>
        <time>2018-10-09T13:09:48.094Z</time>
      </trkpt>
      <trkpt lat="48.09732" lon="1.32768">
        <ele>105</ele>
        <time>2018-10-09T13:09:49.094Z</time>
      </trkpt>
      <trkpt lat="48.09732" lon="1.32767">
        <ele>104</ele>
        <time>2018-10-09T13:09:50.094Z</time>
      </trkpt>
      <trkpt lat="48.09733" lon="1.32765">
        <ele>104</ele>
        <time>2018-10-09T13:09:51.094Z</time>
      </trkpt>
      <trkpt lat="48.09734" lon="1.32764">
        <ele>104</ele>
        <time>2018-10-09T13:09:52.094Z</time>
      </trkpt>
      <trkpt lat="48.09735" lon="1.32763">
        <ele>104</ele>
        <time>2018-10-09T13:09:53.094Z</time>
      </trkpt>
      <trkpt lat="48.09736" lon="1.32761">
        <ele>104</ele>
        <time>2018-10-09T13:09:54.094Z</time>
      </trkpt>
      <trkpt lat="48.09737" lon="1.3276">
        <ele>104</ele>
        <time>2018-10-09T13:09:55.094Z</time>
      </trkpt>
      <trkpt lat="48.09738" lon="1.32758">
        <ele>104</ele>
        <time>2018-10-09T13:09:56.094Z</time>
      </trkpt>
      <trkpt lat="48.09739" lon="1.32757">
        <ele>104</ele>
        <time>2018-10-09T13:09:57.094Z</time>
      </trkpt>
      <trkpt lat="48.0974" lon="1.32756">
        <ele>104</ele>
        <time>2018-10-09T13:09:58.094Z</time>
      </trkpt>
      <trkpt lat="48.09741" lon="1.32755">
        <ele>104</ele>
        <time>2018-10-09T13:09:59.094Z</time>
      </trkpt>
      <trkpt lat="48.09742" lon="1.32753">
        <ele>104</ele>
        <time>2018-10-09T13:10:00.094Z</time>
      </trkpt>
      <trkpt lat="48.09742" lon="1.32752">
        <ele>104</ele>
        <time>2018-10-09T13:10:01.094Z</time>
      </trkpt>
      <trkpt lat="48.09743" lon="1.3275">
        <ele>104</ele>
        <time>2018-10-09T13:10:02.094Z</time>
      </trkpt>
      <trkpt lat="48.09744" lon="1.32749">
        <ele>104</ele>
        <time>2018-10-09T13:10:03.094Z</time>
      </trkpt>
      <trkpt lat="48.09745" lon="1.32747">
        <ele>104</ele>
        <time>2018-10-09T13:10:04.094Z</time>
      </trkpt>
      <trkpt lat="48.09746" lon="1.32746">
        <ele>104</ele>
        <time>2018-10-09T13:10:05.094Z</time>
      </trkpt>
      <trkpt lat="48.09747" lon="1.32744">
        <ele>104</ele>
        <time>2018-10-09T13:10:06.094Z</time>
      </trkpt>
      <trkpt lat="48.09748" lon="1.32743">
        <ele>105</ele>
        <time>2018-10-09T13:10:07.094Z</time>
      </trkpt>
      <trkpt lat="48.09749" lon="1.32741">
        <ele>104</ele>
        <time>2018-10-09T13:10:08.094Z</time>
      </trkpt>
      <trkpt lat="48.0975" lon="1.32739">
        <ele>104</ele>
        <time>2018-10-09T13:10:09.094Z</time>
      </trkpt>
      <trkpt lat="48.0975" lon="1.32738">
        <ele>104</ele>
        <time>2018-10-09T13:10:10.094Z</time>
      </trkpt>
      <trkpt lat="48.09751" lon="1.32736">
        <ele>104</ele>
        <time>2018-10-09T13:10:11.094Z</time>
      </trkpt>
      <trkpt lat="48.09752" lon="1.32735">
        <ele>103</ele>
        <time>2018-10-09T13:10:12.094Z</time>
      </trkpt>
      <trkpt lat="48.09753" lon="1.32733">
        <ele>104</ele>
        <time>2018-10-09T13:10:13.094Z</time>
      </trkpt>
      <trkpt lat="48.09754" lon="1.32732">
        <ele>103</ele>
        <time>2018-10-09T13:10:14.094Z</time>
      </trkpt>
      <trkpt lat="48.09755" lon="1.3273">
        <ele>103</ele>
        <time>2018-10-09T13:10:15.094Z</time>
      </trkpt>
      <trkpt lat="48.09755" lon="1.32729">
        <ele>103</ele>
        <time>2018-10-09T13:10:16.094Z</time>
      </trkpt>
      <trkpt lat="48.09756" lon="1.32727">
        <ele>103</ele>
        <time>2018-10-09T13:10:17.094Z</time>
      </trkpt>
      <trkpt lat="48.09757" lon="1.32726">
        <ele>103</ele>
        <time>2018-10-09T13:10:18.094Z</time>
      </trkpt>
      <trkpt lat="48.09758" lon="1.32724">
        <ele>103</ele>
        <time>2018-10-09T13:10:19.094Z</time>
      </trkpt>
      <trkpt lat="48.09759" lon="1.32722">
        <ele>103</ele>
        <time>2018-10-09T13:10:20.094Z</time>
      </trkpt>
      <trkpt lat="48.0976" lon="1.32721">
        <ele>103</ele>
        <time>2018-10-09T13:10:21.094Z</time>
      </trkpt>
      <trkpt lat="48.0976" lon="1.3272">
        <ele>104</ele>
        <time>2018-10-09T13:10:22.094Z</time>
      </trkpt>
      <trkpt lat="48.09761" lon="1.32718">
        <ele>104</ele>
        <time>2018-10-09T13:10:23.094Z</time>
      </trkpt>
      <trkpt lat="48.09761" lon="1.32716">
        <ele>104</ele>
        <time>2018-10-09T13:10:24.094Z</time>
      </trkpt>
      <trkpt lat="48.09762" lon="1.32715">
        <ele>104</ele>
        <time>2018-10-09T13:10:25.094Z</time>
      </trkpt>
      <trkpt lat="48.09763" lon="1.32713">
        <ele>104</ele>
        <time>2018-10-09T13:10:26.094Z</time>
      </trkpt>
      <trkpt lat="48.09763" lon="1.32712">
        <ele>104</ele>
        <time>2018-10-09T13:10:27.094Z</time>
      </trkpt>
      <trkpt lat="48.09764" lon="1.32711">
        <ele>104</ele>
        <time>2018-10-09T13:10:28.094Z</time>
      </trkpt>
      <trkpt lat="48.09765" lon="1.32709">
        <ele>104</ele>
        <time>2018-10-09T13:10:29.094Z</time>
      </trkpt>
      <trkpt lat="48.09766" lon="1.32708">
        <ele>104</ele>
        <time>2018-10-09T13:10:30.094Z</time>
      </trkpt>
      <trkpt lat="48.09766" lon="1.32706">
        <ele>104</ele>
        <time>2018-10-09T13:10:31.094Z</time>
      </trkpt>
      <trkpt lat="48.09767" lon="1.32705">
        <ele>105</ele>
        <time>2018-10-09T13:10:32.094Z</time>
      </trkpt>
      <trkpt lat="48.09767" lon="1.32703">
        <ele>104</ele>
        <time>2018-10-09T13:10:33.094Z</time>
      </trkpt>
      <trkpt lat="48.09768" lon="1.32701">
        <ele>105</ele>
        <time>2018-10-09T13:10:34.094Z</time>
      </trkpt>
      <trkpt lat="48.09769" lon="1.32699">
        <ele>105</ele>
        <time>2018-10-09T13:10:35.094Z</time>
      </trkpt>
      <trkpt lat="48.09769" lon="1.32698">
        <ele>105</ele>
        <time>2018-10-09T13:10:36.094Z</time>
      </trkpt>
      <trkpt lat="48.0977" lon="1.32696">
        <ele>105</ele>
        <time>2018-10-09T13:10:37.094Z</time>
      </trkpt>
      <trkpt lat="48.0977" lon="1.32695">
        <ele>105</ele>
        <time>2018-10-09T13:10:38.094Z</time>
      </trkpt>
      <trkpt lat="48.09771" lon="1.32693">
        <ele>105</ele>
        <time>2018-10-09T13:10:39.094Z</time>
      </trkpt>
      <trkpt lat="48.09772" lon="1.32691">
        <ele>105</ele>
        <time>2018-10-09T13:10:40.094Z</time>
      </trkpt>
      <trkpt lat="48.09772" lon="1.3269">
        <ele>106</ele>
        <time>2018-10-09T13:10:41.094Z</time>
      </trkpt>
      <trkpt lat="48.09773" lon="1.32688">
        <ele>105</ele>
        <time>2018-10-09T13:10:42.094Z</time>
      </trkpt>
      <trkpt lat="48.09774" lon="1.32686">
        <ele>105</ele>
        <time>2018-10-09T13:10:43.094Z</time>
      </trkpt>
      <trkpt lat="48.09774" lon="1.32685">
        <ele>105</ele>
        <time>2018-10-09T13:10:44.094Z</time>
      </trkpt>
      <trkpt lat="48.09775" lon="1.32683">
        <ele>105</ele>
        <time>2018-10-09T13:10:45.094Z</time>
      </trkpt>
      <trkpt lat="48.09776" lon="1.32682">
        <ele>105</ele>
        <time>2018-10-09T13:10:46.094Z</time>
      </trkpt>
      <trkpt lat="48.09776" lon="1.3268">
        <ele>106</ele>
        <time>2018-10-09T13:10:47.094Z</time>
      </trkpt>
      <trkpt lat="48.09777" lon="1.32678">
        <ele>106</ele>
        <time>2018-10-09T13:10:48.094Z</time>
      </trkpt>
      <trkpt lat="48.09777" lon="1.32677">
        <ele>106</ele>
        <time>2018-10-09T13:10:49.094Z</time>
      </trkpt>
      <trkpt lat="48.09778" lon="1.32675">
        <ele>105</ele>
        <time>2018-10-09T13:10:50.094Z</time>
      </trkpt>
      <trkpt lat="48.09778" lon="1.32674">
        <ele>106</ele>
        <time>2018-10-09T13:10:51.094Z</time>
      </trkpt>
      <trkpt lat="48.09779" lon="1.32672">
        <ele>106</ele>
        <time>2018-10-09T13:10:52.094Z</time>
      </trkpt>
      <trkpt lat="48.0978" lon="1.3267">
        <ele>106</ele>
        <time>2018-10-09T13:10:53.094Z</time>
      </trkpt>
      <trkpt lat="48.0978" lon="1.32669">
        <ele>106</ele>
        <time>2018-10-09T13:10:54.094Z</time>
      </trkpt>
      <trkpt lat="48.09781" lon="1.32667">
        <ele>106</ele>
        <time>2018-10-09T13:10:55.094Z</time>
      </trkpt>
      <trkpt lat="48.09781" lon="1.32665">
        <ele>106</ele>
        <time>2018-10-09T13:10:56.094Z</time>
      </trkpt>
      <trkpt lat="48.09782" lon="1.32664">
        <ele>105</ele>
        <time>2018-10-09T13:10:57.094Z</time>
      </trkpt>
      <trkpt lat="48.09783" lon="1.32662">
        <ele>105</ele>
        <time>2018-10-09T13:10:58.094Z</time>
      </trkpt>
      <trkpt lat="48.09783" lon="1.32661">
        <ele>106</ele>
        <time>2018-10-09T13:10:59.094Z</time>
      </trkpt>
      <trkpt lat="48.09784" lon="1.32659">
        <ele>105</ele>
        <time>2018-10-09T13:11:00.094Z</time>
      </trkpt>
      <trkpt lat="48.09785" lon="1.32657">
        <ele>105</ele>
        <time>2018-10-09T13:11:01.094Z</time>
      </trkpt>
      <trkpt lat="48.09785" lon="1.32656">
        <ele>105</ele>
        <time>2018-10-09T13:11:02.094Z</time>
      </trkpt>
      <trkpt lat="48.09786" lon="1.32654">
        <ele>105</ele>
        <time>2018-10-09T13:11:03.094Z</time>
      </trkpt>
      <trkpt lat="48.09787" lon="1.32652">
        <ele>105</ele>
        <time>2018-10-09T13:11:04.094Z</time>
      </trkpt>
      <trkpt lat="48.09787" lon="1.32651">
        <ele>105</ele>
        <time>2018-10-09T13:11:05.094Z</time>
      </trkpt>
      <trkpt lat="48.09788" lon="1.32649">
        <ele>105</ele>
        <time>2018-10-09T13:11:06.094Z</time>
      </trkpt>
      <trkpt lat="48.09789" lon="1.32647">
        <ele>105</ele>
        <time>2018-10-09T13:11:07.094Z</time>
      </trkpt>
      <trkpt lat="48.09789" lon="1.32646">
        <ele>105</ele>
        <time>2018-10-09T13:11:08.094Z</time>
      </trkpt>
      <trkpt lat="48.0979" lon="1.32644">
        <ele>105</ele>
        <time>2018-10-09T13:11:09.094Z</time>
      </trkpt>
      <trkpt lat="48.09791" lon="1.32643">
        <ele>105</ele>
        <time>2018-10-09T13:11:10.094Z</time>
      </trkpt>
      <trkpt lat="48.09791" lon="1.32641">
        <ele>105</ele>
        <time>2018-10-09T13:11:11.094Z</time>
      </trkpt>
      <trkpt lat="48.09792" lon="1.3264">
        <ele>105</ele>
        <time>2018-10-09T13:11:12.094Z</time>
      </trkpt>
      <trkpt lat="48.09793" lon="1.32638">
        <ele>105</ele>
        <time>2018-10-09T13:11:13.094Z</time>
      </trkpt>
      <trkpt lat="48.09794" lon="1.32637">
        <ele>105</ele>
        <time>2018-10-09T13:11:14.094Z</time>
      </trkpt>
      <trkpt lat="48.09795" lon="1.32635">
        <ele>105</ele>
        <time>2018-10-09T13:11:15.094Z</time>
      </trkpt>
      <trkpt lat="48.09795" lon="1.32634">
        <ele>106</ele>
        <time>2018-10-09T13:11:16.094Z</time>
      </trkpt>
      <trkpt lat="48.09796" lon="1.32632">
        <ele>106</ele>
        <time>2018-10-09T13:11:17.094Z</time>
      </trkpt>
      <trkpt lat="48.09797" lon="1.3263">
        <ele>106</ele>
        <time>2018-10-09T13:11:18.094Z</time>
      </trkpt>
      <trkpt lat="48.09798" lon="1.32629">
        <ele>106</ele>
        <time>2018-10-09T13:11:19.094Z</time>
      </trkpt>
      <trkpt lat="48.09798" lon="1.32628">
        <ele>105</ele>
        <time>2018-10-09T13:11:20.094Z</time>
      </trkpt>
      <trkpt lat="48.09799" lon="1.32626">
        <ele>106</ele>
        <time>2018-10-09T13:11:21.094Z</time>
      </trkpt>
      <trkpt lat="48.098" lon="1.32625">
        <ele>105</ele>
        <time>2018-10-09T13:11:22.094Z</time>
      </trkpt>
      <trkpt lat="48.098" lon="1.32623">
        <ele>105</ele>
        <time>2018-10-09T13:11:23.094Z</time>
      </trkpt>
      <trkpt lat="48.09801" lon="1.32621">
        <ele>105</ele>
        <time>2018-10-09T13:11:24.094Z</time>
      </trkpt>
      <trkpt lat="48.09802" lon="1.3262">
        <ele>105</ele>
        <time>2018-10-09T13:11:25.094Z</time>
      </trkpt>
      <trkpt lat="48.09803" lon="1.32618">
        <ele>105</ele>
        <time>2018-10-09T13:11:26.094Z</time>
      </trkpt>
      <trkpt lat="48.09803" lon="1.32617">
        <ele>105</ele>
        <time>2018-10-09T13:11:27.094Z</time>
      </trkpt>
      <trkpt lat="48.09804" lon="1.32615">
        <ele>105</ele>
        <time>2018-10-09T13:11:28.094Z</time>
      </trkpt>
      <trkpt lat="48.09805" lon="1.32614">
        <ele>105</ele>
        <time>2018-10-09T13:11:29.094Z</time>
      </trkpt>
      <trkpt lat="48.09806" lon="1.32612">
        <ele>105</ele>
        <time>2018-10-09T13:11:30.094Z</time>
      </trkpt>
      <trkpt lat="48.09806" lon="1.32611">
        <ele>105</ele>
        <time>2018-10-09T13:11:31.094Z</time>
      </trkpt>
      <trkpt lat="48.09807" lon="1.32609">
        <ele>105</ele>
        <time>2018-10-09T13:11:32.094Z</time>
      </trkpt>
      <trkpt lat="48.09808" lon="1.32608">
        <ele>105</ele>
        <time>2018-10-09T13:11:33.094Z</time>
      </trkpt>
      <trkpt lat="48.09809" lon="1.32606">
        <ele>105</ele>
        <time>2018-10-09T13:11:34.094Z</time>
      </trkpt>
      <trkpt lat="48.0981" lon="1.32605">
        <ele>105</ele>
        <time>2018-10-09T13:11:35.094Z</time>
      </trkpt>
      <trkpt lat="48.09811" lon="1.32603">
        <ele>105</ele>
        <time>2018-10-09T13:11:36.094Z</time>
      </trkpt>
      <trkpt lat="48.09811" lon="1.32602">
        <ele>105</ele>
        <time>2018-10-09T13:11:37.094Z</time>
      </trkpt>
      <trkpt lat="48.09812" lon="1.326">
        <ele>105</ele>
        <time>2018-10-09T13:11:38.094Z</time>
      </trkpt>
      <trkpt lat="48.09813" lon="1.32599">
        <ele>105</ele>
        <time>2018-10-09T13:11:39.094Z</time>
      </trkpt>
      <trkpt lat="48.09814" lon="1.32597">
        <ele>105</ele>
        <time>2018-10-09T13:11:40.094Z</time>
      </trkpt>
      <trkpt lat="48.09815" lon="1.32596">
        <ele>105</ele>
        <time>2018-10-09T13:11:41.094Z</time>
      </trkpt>
      <trkpt lat="48.09815" lon="1.32594">
        <ele>105</ele>
        <time>2018-10-09T13:11:42.094Z</time>
      </trkpt>
      <trkpt lat="48.09816" lon="1.32593">
        <ele>105</ele>
        <time>2018-10-09T13:11:43.094Z</time>
      </trkpt>
      <trkpt lat="48.09817" lon="1.32591">
        <ele>105</ele>
        <time>2018-10-09T13:11:44.094Z</time>
      </trkpt>
      <trkpt lat="48.09818" lon="1.3259">
        <ele>106</ele>
        <time>2018-10-09T13:11:45.094Z</time>
      </trkpt>
      <trkpt lat="48.09818" lon="1.32589">
        <ele>106</ele>
        <time>2018-10-09T13:11:46.094Z</time>
      </trkpt>
      <trkpt lat="48.09819" lon="1.32587">
        <ele>106</ele>
        <time>2018-10-09T13:11:47.094Z</time>
      </trkpt>
      <trkpt lat="48.0982" lon="1.32586">
        <ele>106</ele>
        <time>2018-10-09T13:11:48.094Z</time>
      </trkpt>
      <trkpt lat="48.09821" lon="1.32584">
        <ele>106</ele>
        <time>2018-10-09T13:11:49.094Z</time>
      </trkpt>
      <trkpt lat="48.09822" lon="1.32583">
        <ele>106</ele>
        <time>2018-10-09T13:11:50.094Z</time>
      </trkpt>
      <trkpt lat="48.09823" lon="1.32581">
        <ele>106</ele>
        <time>2018-10-09T13:11:51.094Z</time>
      </trkpt>
      <trkpt lat="48.09824" lon="1.3258">
        <ele>106</ele>
        <time>2018-10-09T13:11:52.094Z</time>
      </trkpt>
      <trkpt lat="48.09824" lon="1.32578">
        <ele>106</ele>
        <time>2018-10-09T13:11:53.094Z</time>
      </trkpt>
      <trkpt lat="48.09825" lon="1.32577">
        <ele>106</ele>
        <time>2018-10-09T13:11:54.094Z</time>
      </trkpt>
      <trkpt lat="48.09826" lon="1.32576">
        <ele>106</ele>
        <time>2018-10-09T13:11:55.094Z</time>
      </trkpt>
      <trkpt lat="48.09827" lon="1.32574">
        <ele>106</ele>
        <time>2018-10-09T13:11:56.094Z</time>
      </trkpt>
      <trkpt lat="48.09828" lon="1.32573">
        <ele>106</ele>
        <time>2018-10-09T13:11:57.094Z</time>
      </trkpt>
      <trkpt lat="48.09829" lon="1.32571">
        <ele>106</ele>
        <time>2018-10-09T13:11:58.094Z</time>
      </trkpt>
      <trkpt lat="48.09829" lon="1.3257">
        <ele>106</ele>
        <time>2018-10-09T13:11:59.094Z</time>
      </trkpt>
      <trkpt lat="48.0983" lon="1.32568">
        <ele>106</ele>
        <time>2018-10-09T13:12:00.094Z</time>
      </trkpt>
      <trkpt lat="48.09831" lon="1.32567">
        <ele>106</ele>
        <time>2018-10-09T13:12:01.094Z</time>
      </trkpt>
      <trkpt lat="48.09832" lon="1.32565">
        <ele>106</ele>
        <time>2018-10-09T13:12:02.094Z</time>
      </trkpt>
      <trkpt lat="48.09833" lon="1.32564">
        <ele>106</ele>
        <time>2018-10-09T13:12:03.094Z</time>
      </trkpt>
      <trkpt lat="48.09834" lon="1.32563">
        <ele>106</ele>
        <time>2018-10-09T13:12:04.094Z</time>
      </trkpt>
      <trkpt lat="48.09835" lon="1.32561">
        <ele>106</ele>
        <time>2018-10-09T13:12:05.094Z</time>
      </trkpt>
      <trkpt lat="48.09835" lon="1.3256">
        <ele>106</ele>
        <time>2018-10-09T13:12:06.094Z</time>
      </trkpt>
      <trkpt lat="48.09836" lon="1.32559">
        <ele>106</ele>
        <time>2018-10-09T13:12:07.094Z</time>
      </trkpt>
      <trkpt lat="48.09837" lon="1.32557">
        <ele>106</ele>
        <time>2018-10-09T13:12:08.094Z</time>
      </trkpt>
      <trkpt lat="48.09838" lon="1.32556">
        <ele>106</ele>
        <time>2018-10-09T13:12:09.094Z</time>
      </trkpt>
      <trkpt lat="48.09839" lon="1.32554">
        <ele>106</ele>
        <time>2018-10-09T13:12:10.094Z</time>
      </trkpt>
      <trkpt lat="48.0984" lon="1.32553">
        <ele>106</ele>
        <time>2018-10-09T13:12:11.094Z</time>
      </trkpt>
      <trkpt lat="48.0984" lon="1.32552">
        <ele>106</ele>
        <time>2018-10-09T13:12:12.094Z</time>
      </trkpt>
      <trkpt lat="48.09841" lon="1.3255">
        <ele>106</ele>
        <time>2018-10-09T13:12:13.094Z</time>
      </trkpt>
      <trkpt lat="48.09842" lon="1.32549">
        <ele>106</ele>
        <time>2018-10-09T13:12:14.094Z</time>
      </trkpt>
      <trkpt lat="48.09843" lon="1.32548">
        <ele>106</ele>
        <time>2018-10-09T13:12:15.094Z</time>
      </trkpt>
      <trkpt lat="48.09844" lon="1.32546">
        <ele>106</ele>
        <time>2018-10-09T13:12:16.094Z</time>
      </trkpt>
      <trkpt lat="48.09845" lon="1.32545">
        <ele>106</ele>
        <time>2018-10-09T13:12:17.094Z</time>
      </trkpt>
      <trkpt lat="48.09845" lon="1.32543">
        <ele>106</ele>
        <time>2018-10-09T13:12:18.094Z</time>
      </trkpt>
      <trkpt lat="48.09846" lon="1.32542">
        <ele>106</ele>
        <time>2018-10-09T13:12:19.094Z</time>
      </trkpt>
      <trkpt lat="48.09847" lon="1.32541">
        <ele>106</ele>
        <time>2018-10-09T13:12:20.094Z</time>
      </trkpt>
      <trkpt lat="48.09848" lon="1.32539">
        <ele>106</ele>
        <time>2018-10-09T13:12:21.094Z</time>
      </trkpt>
      <trkpt lat="48.09849" lon="1.32538">
        <ele>106</ele>
        <time>2018-10-09T13:12:22.094Z</time>
      </trkpt>
      <trkpt lat="48.0985" lon="1.32537">
        <ele>106</ele>
        <time>2018-10-09T13:12:23.094Z</time>
      </trkpt>
      <trkpt lat="48.0985" lon="1.32535">
        <ele>106</ele>
        <time>2018-10-09T13:12:24.094Z</time>
      </trkpt>
      <trkpt lat="48.09851" lon="1.32534">
        <ele>106</ele>
        <time>2018-10-09T13:12:25.094Z</time>
      </trkpt>
      <trkpt lat="48.09852" lon="1.32533">
        <ele>106</ele>
        <time>2018-10-09T13:12:26.094Z</time>
      </trkpt>
      <trkpt lat="48.09853" lon="1.32531">
        <ele>106</ele>
        <time>2018-10-09T13:12:27.094Z</time>
      </trkpt>
      <trkpt lat="48.09854" lon="1.3253">
        <ele>106</ele>
        <time>2018-10-09T13:12:28.094Z</time>
      </trkpt>
      <trkpt lat="48.09854" lon="1.32528">
        <ele>106</ele>
        <time>2018-10-09T13:12:29.094Z</time>
      </trkpt>
      <trkpt lat="48.09855" lon="1.32527">
        <ele>106</ele>
        <time>2018-10-09T13:12:30.094Z</time>
      </trkpt>
      <trkpt lat="48.09856" lon="1.32526">
        <ele>106</ele>
        <time>2018-10-09T13:12:31.094Z</time>
      </trkpt>
      <trkpt lat="48.09857" lon="1.32525">
        <ele>106</ele>
        <time>2018-10-09T13:12:32.094Z</time>
      </trkpt>
      <trkpt lat="48.09858" lon="1.32523">
        <ele>106</ele>
        <time>2018-10-09T13:12:33.094Z</time>
      </trkpt>
      <trkpt lat="48.09859" lon="1.32522">
        <ele>107</ele>
        <time>2018-10-09T13:12:34.094Z</time>
      </trkpt>
      <trkpt lat="48.09859" lon="1.32521">
        <ele>106</ele>
        <time>2018-10-09T13:12:35.094Z</time>
      </trkpt>
      <trkpt lat="48.0986" lon="1.32519">
        <ele>107</ele>
        <time>2018-10-09T13:12:36.094Z</time>
      </trkpt>
      <trkpt lat="48.09861" lon="1.32518">
        <ele>107</ele>
        <time>2018-10-09T13:12:37.094Z</time>
      </trkpt>
      <trkpt lat="48.09862" lon="1.32517">
        <ele>107</ele>
        <time>2018-10-09T13:12:38.094Z</time>
      </trkpt>
      <trkpt lat="48.09863" lon="1.32515">
        <ele>107</ele>
        <time>2018-10-09T13:12:39.094Z</time>
      </trkpt>
      <trkpt lat="48.09864" lon="1.32514">
        <ele>107</ele>
        <time>2018-10-09T13:12:40.094Z</time>
      </trkpt>
      <trkpt lat="48.09865" lon="1.32513">
        <ele>107</ele>
        <time>2018-10-09T13:12:41.094Z</time>
      </trkpt>
      <trkpt lat="48.09866" lon="1.32512">
        <ele>107</ele>
        <time>2018-10-09T13:12:42.094Z</time>
      </trkpt>
      <trkpt lat="48.09866" lon="1.3251">
        <ele>107</ele>
        <time>2018-10-09T13:12:43.094Z</time>
      </trkpt>
      <trkpt lat="48.09867" lon="1.32509">
        <ele>107</ele>
        <time>2018-10-09T13:12:44.094Z</time>
      </trkpt>
      <trkpt lat="48.09868" lon="1.32508">
        <ele>107</ele>
        <time>2018-10-09T13:12:45.094Z</time>
      </trkpt>
      <trkpt lat="48.09869" lon="1.32506">
        <ele>107</ele>
        <time>2018-10-09T13:12:46.094Z</time>
      </trkpt>
      <trkpt lat="48.0987" lon="1.32505">
        <ele>107</ele>
        <time>2018-10-09T13:12:47.094Z</time>
      </trkpt>
      <trkpt lat="48.09871" lon="1.32504">
        <ele>107</ele>
        <time>2018-10-09T13:12:48.094Z</time>
      </trkpt>
      <trkpt lat="48.09872" lon="1.32502">
        <ele>107</ele>
        <time>2018-10-09T13:12:49.094Z</time>
      </trkpt>
      <trkpt lat="48.09872" lon="1.32501">
        <ele>107</ele>
        <time>2018-10-09T13:12:50.094Z</time>
      </trkpt>
      <trkpt lat="48.09873" lon="1.32499">
        <ele>107</ele>
        <time>2018-10-09T13:12:51.094Z</time>
      </trkpt>
      <trkpt lat="48.09874" lon="1.32498">
        <ele>107</ele>
        <time>2018-10-09T13:12:52.094Z</time>
      </trkpt>
      <trkpt lat="48.09875" lon="1.32497">
        <ele>107</ele>
        <time>2018-10-09T13:12:53.094Z</time>
      </trkpt>
      <trkpt lat="48.09876" lon="1.32496">
        <ele>107</ele>
        <time>2018-10-09T13:12:54.094Z</time>
      </trkpt>
      <trkpt lat="48.09877" lon="1.32494">
        <ele>107</ele>
        <time>2018-10-09T13:12:55.094Z</time>
      </trkpt>
      <trkpt lat="48.09878" lon="1.32493">
        <ele>107</ele>
        <time>2018-10-09T13:12:56.094Z</time>
      </trkpt>
      <trkpt lat="48.09879" lon="1.32491">
        <ele>107</ele>
        <time>2018-10-09T13:12:57.094Z</time>
      </trkpt>
      <trkpt lat="48.0988" lon="1.3249">
        <ele>107</ele>
        <time>2018-10-09T13:12:58.094Z</time>
      </trkpt>
      <trkpt lat="48.09881" lon="1.32489">
        <ele>107</ele>
        <time>2018-10-09T13:12:59.094Z</time>
      </trkpt>
      <trkpt lat="48.09881" lon="1.32488">
        <ele>106</ele>
        <time>2018-10-09T13:13:00.094Z</time>
      </trkpt>
      <trkpt lat="48.09882" lon="1.32487">
        <ele>106</ele>
        <time>2018-10-09T13:13:01.094Z</time>
      </trkpt>
      <trkpt lat="48.09883" lon="1.32485">
        <ele>106</ele>
        <time>2018-10-09T13:13:02.094Z</time>
      </trkpt>
      <trkpt lat="48.09884" lon="1.32484">
        <ele>106</ele>
        <time>2018-10-09T13:13:03.094Z</time>
      </trkpt>
      <trkpt lat="48.09885" lon="1.32483">
        <ele>106</ele>
        <time>2018-10-09T13:13:04.094Z</time>
      </trkpt>
      <trkpt lat="48.09886" lon="1.32482">
        <ele>106</ele>
        <time>2018-10-09T13:13:05.094Z</time>
      </trkpt>
      <trkpt lat="48.09887" lon="1.3248">
        <ele>106</ele>
        <time>2018-10-09T13:13:06.094Z</time>
      </trkpt>
      <trkpt lat="48.09888" lon="1.32479">
        <ele>106</ele>
        <time>2018-10-09T13:13:07.094Z</time>
      </trkpt>
      <trkpt lat="48.09889" lon="1.32478">
        <ele>106</ele>
        <time>2018-10-09T13:13:08.094Z</time>
      </trkpt>
      <trkpt lat="48.09889" lon="1.32476">
        <ele>106</ele>
        <time>2018-10-09T13:13:09.094Z</time>
      </trkpt>
      <trkpt lat="48.0989" lon="1.32475">
        <ele>106</ele>
        <time>2018-10-09T13:13:10.094Z</time>
      </trkpt>
      <trkpt lat="48.09891" lon="1.32474">
        <ele>106</ele>
        <time>2018-10-09T13:13:11.094Z</time>
      </trkpt>
      <trkpt lat="48.09892" lon="1.32473">
        <ele>106</ele>
        <time>2018-10-09T13:13:12.094Z</time>
      </trkpt>
      <trkpt lat="48.09893" lon="1.32471">
        <ele>106</ele>
        <time>2018-10-09T13:13:13.094Z</time>
      </trkpt>
      <trkpt lat="48.09894" lon="1.3247">
        <ele>106</ele>
        <time>2018-10-09T13:13:14.094Z</time>
      </trkpt>
      <trkpt lat="48.09895" lon="1.32469">
        <ele>105</ele>
        <time>2018-10-09T13:13:15.094Z</time>
      </trkpt>
      <trkpt lat="48.09896" lon="1.32467">
        <ele>106</ele>
        <time>2018-10-09T13:13:16.094Z</time>
      </trkpt>
      <trkpt lat="48.09897" lon="1.32466">
        <ele>105</ele>
        <time>2018-10-09T13:13:17.094Z</time>
      </trkpt>
      <trkpt lat="48.09898" lon="1.32465">
        <ele>105</ele>
        <time>2018-10-09T13:13:18.094Z</time>
      </trkpt>
      <trkpt lat="48.09898" lon="1.32463">
        <ele>105</ele>
        <time>2018-10-09T13:13:19.094Z</time>
      </trkpt>
      <trkpt lat="48.09899" lon="1.32462">
        <ele>105</ele>
        <time>2018-10-09T13:13:20.094Z</time>
      </trkpt>
      <trkpt lat="48.099" lon="1.32461">
        <ele>105</ele>
        <time>2018-10-09T13:13:21.094Z</time>
      </trkpt>
      <trkpt lat="48.09901" lon="1.32459">
        <ele>105</ele>
        <time>2018-10-09T13:13:22.094Z</time>
      </trkpt>
      <trkpt lat="48.09902" lon="1.32458">
        <ele>105</ele>
        <time>2018-10-09T13:13:23.094Z</time>
      </trkpt>
      <trkpt lat="48.09903" lon="1.32457">
        <ele>105</ele>
        <time>2018-10-09T13:13:24.094Z</time>
      </trkpt>
      <trkpt lat="48.09904" lon="1.32456">
        <ele>105</ele>
        <time>2018-10-09T13:13:25.094Z</time>
      </trkpt>
      <trkpt lat="48.09905" lon="1.32454">
        <ele>105</ele>
        <time>2018-10-09T13:13:26.094Z</time>
      </trkpt>
      <trkpt lat="48.09906" lon="1.32453">
        <ele>105</ele>
        <time>2018-10-09T13:13:27.094Z</time>
      </trkpt>
      <trkpt lat="48.09907" lon="1.32452">
        <ele>104</ele>
        <time>2018-10-09T13:13:28.094Z</time>
      </trkpt>
      <trkpt lat="48.09908" lon="1.32451">
        <ele>105</ele>
        <time>2018-10-09T13:13:29.094Z</time>
      </trkpt>
      <trkpt lat="48.09908" lon="1.32449">
        <ele>104</ele>
        <time>2018-10-09T13:13:30.094Z</time>
      </trkpt>
      <trkpt lat="48.09909" lon="1.32448">
        <ele>104</ele>
        <time>2018-10-09T13:13:31.094Z</time>
      </trkpt>
      <trkpt lat="48.0991" lon="1.32447">
        <ele>105</ele>
        <time>2018-10-09T13:13:32.094Z</time>
      </trkpt>
      <trkpt lat="48.09911" lon="1.32446">
        <ele>105</ele>
        <time>2018-10-09T13:13:33.094Z</time>
      </trkpt>
      <trkpt lat="48.09912" lon="1.32445">
        <ele>105</ele>
        <time>2018-10-09T13:13:34.094Z</time>
      </trkpt>
      <trkpt lat="48.09913" lon="1.32443">
        <ele>105</ele>
        <time>2018-10-09T13:13:35.094Z</time>
      </trkpt>
      <trkpt lat="48.09914" lon="1.32442">
        <ele>105</ele>
        <time>2018-10-09T13:13:36.094Z</time>
      </trkpt>
      <trkpt lat="48.09915" lon="1.32441">
        <ele>105</ele>
        <time>2018-10-09T13:13:37.094Z</time>
      </trkpt>
      <trkpt lat="48.09916" lon="1.3244">
        <ele>105</ele>
        <time>2018-10-09T13:13:38.094Z</time>
      </trkpt>
      <trkpt lat="48.09917" lon="1.32438">
        <ele>106</ele>
        <time>2018-10-09T13:13:39.094Z</time>
      </trkpt>
      <trkpt lat="48.09918" lon="1.32437">
        <ele>106</ele>
        <time>2018-10-09T13:13:40.094Z</time>
      </trkpt>
      <trkpt lat="48.09919" lon="1.32436">
        <ele>106</ele>
        <time>2018-10-09T13:13:41.094Z</time>
      </trkpt>
      <trkpt lat="48.0992" lon="1.32435">
        <ele>106</ele>
        <time>2018-10-09T13:13:42.094Z</time>
      </trkpt>
      <trkpt lat="48.09921" lon="1.32434">
        <ele>106</ele>
        <time>2018-10-09T13:13:43.094Z</time>
      </trkpt>
      <trkpt lat="48.09922" lon="1.32433">
        <ele>106</ele>
        <time>2018-10-09T13:13:44.094Z</time>
      </trkpt>
      <trkpt lat="48.09923" lon="1.32431">
        <ele>106</ele>
        <time>2018-10-09T13:13:45.094Z</time>
      </trkpt>
      <trkpt lat="48.09924" lon="1.3243">
        <ele>105</ele>
        <time>2018-10-09T13:13:46.094Z</time>
      </trkpt>
      <trkpt lat="48.09925" lon="1.32429">
        <ele>106</ele>
        <time>2018-10-09T13:13:47.094Z</time>
      </trkpt>
      <trkpt lat="48.09926" lon="1.32428">
        <ele>106</ele>
        <time>2018-10-09T13:13:48.094Z</time>
      </trkpt>
      <trkpt lat="48.09927" lon="1.32427">
        <ele>106</ele>
        <time>2018-10-09T13:13:49.094Z</time>
      </trkpt>
      <trkpt lat="48.09928" lon="1.32425">
        <ele>105</ele>
        <time>2018-10-09T13:13:50.094Z</time>
      </trkpt>
      <trkpt lat="48.09929" lon="1.32424">
        <ele>105</ele>
        <time>2018-10-09T13:13:51.094Z</time>
      </trkpt>
      <trkpt lat="48.0993" lon="1.32423">
        <ele>106</ele>
        <time>2018-10-09T13:13:52.094Z</time>
      </trkpt>
      <trkpt lat="48.09931" lon="1.32422">
        <ele>106</ele>
        <time>2018-10-09T13:13:53.094Z</time>
      </trkpt>
      <trkpt lat="48.09932" lon="1.32421">
        <ele>106</ele>
        <time>2018-10-09T13:13:54.094Z</time>
      </trkpt>
      <trkpt lat="48.09932" lon="1.32419">
        <ele>106</ele>
        <time>2018-10-09T13:13:55.094Z</time>
      </trkpt>
      <trkpt lat="48.09933" lon="1.32418">
        <ele>106</ele>
        <time>2018-10-09T13:13:56.094Z</time>
      </trkpt>
      <trkpt lat="48.09934" lon="1.32417">
        <ele>106</ele>
        <time>2018-10-09T13:13:57.094Z</time>
      </trkpt>
      <trkpt lat="48.09935" lon="1.32416">
        <ele>105</ele>
        <time>2018-10-09T13:13:58.094Z</time>
      </trkpt>
      <trkpt lat="48.09936" lon="1.32414">
        <ele>105</ele>
        <time>2018-10-09T13:13:59.094Z</time>
      </trkpt>
      <trkpt lat="48.09937" lon="1.32413">
        <ele>105</ele>
        <time>2018-10-09T13:14:00.094Z</time>
      </trkpt>
      <trkpt lat="48.09937" lon="1.32412">
        <ele>105</ele>
        <time>2018-10-09T13:14:01.094Z</time>
      </trkpt>
      <trkpt lat="48.09938" lon="1.32411">
        <ele>105</ele>
        <time>2018-10-09T13:14:02.094Z</time>
      </trkpt>
      <trkpt lat="48.09939" lon="1.3241">
        <ele>105</ele>
        <time>2018-10-09T13:14:03.094Z</time>
      </trkpt>
      <trkpt lat="48.0994" lon="1.32409">
        <ele>105</ele>
        <time>2018-10-09T13:14:04.094Z</time>
      </trkpt>
      <trkpt lat="48.09941" lon="1.32408">
        <ele>104</ele>
        <time>2018-10-09T13:14:05.094Z</time>
      </trkpt>
      <trkpt lat="48.09942" lon="1.32407">
        <ele>105</ele>
        <time>2018-10-09T13:14:06.094Z</time>
      </trkpt>
      <trkpt lat="48.09944" lon="1.32405">
        <ele>105</ele>
        <time>2018-10-09T13:14:07.094Z</time>
      </trkpt>
      <trkpt lat="48.09945" lon="1.32404">
        <ele>104</ele>
        <time>2018-10-09T13:14:08.094Z</time>
      </trkpt>
      <trkpt lat="48.09945" lon="1.32403">
        <ele>104</ele>
        <time>2018-10-09T13:14:09.094Z</time>
      </trkpt>
      <trkpt lat="48.09946" lon="1.32402">
        <ele>104</ele>
        <time>2018-10-09T13:14:10.094Z</time>
      </trkpt>
      <trkpt lat="48.09947" lon="1.32401">
        <ele>104</ele>
        <time>2018-10-09T13:14:11.094Z</time>
      </trkpt>
      <trkpt lat="48.09948" lon="1.324">
        <ele>104</ele>
        <time>2018-10-09T13:14:12.094Z</time>
      </trkpt>
      <trkpt lat="48.09949" lon="1.32398">
        <ele>105</ele>
        <time>2018-10-09T13:14:13.094Z</time>
      </trkpt>
      <trkpt lat="48.0995" lon="1.32397">
        <ele>104</ele>
        <time>2018-10-09T13:14:14.094Z</time>
      </trkpt>
      <trkpt lat="48.09951" lon="1.32396">
        <ele>104</ele>
        <time>2018-10-09T13:14:15.094Z</time>
      </trkpt>
      <trkpt lat="48.09952" lon="1.32395">
        <ele>105</ele>
        <time>2018-10-09T13:14:16.094Z</time>
      </trkpt>
      <trkpt lat="48.09954" lon="1.32393">
        <ele>104</ele>
        <time>2018-10-09T13:14:17.094Z</time>
      </trkpt>
      <trkpt lat="48.09955" lon="1.32392">
        <ele>104</ele>
        <time>2018-10-09T13:14:18.094Z</time>
      </trkpt>
      <trkpt lat="48.09956" lon="1.32391">
        <ele>105</ele>
        <time>2018-10-09T13:14:19.094Z</time>
      </trkpt>
      <trkpt lat="48.09957" lon="1.32389">
        <ele>105</ele>
        <time>2018-10-09T13:14:20.094Z</time>
      </trkpt>
      <trkpt lat="48.09958" lon="1.32388">
        <ele>105</ele>
        <time>2018-10-09T13:14:21.094Z</time>
      </trkpt>
      <trkpt lat="48.09959" lon="1.32387">
        <ele>105</ele>
        <time>2018-10-09T13:14:22.094Z</time>
      </trkpt>
      <trkpt lat="48.0996" lon="1.32386">
        <ele>105</ele>
        <time>2018-10-09T13:14:23.094Z</time>
      </trkpt>
      <trkpt lat="48.09961" lon="1.32385">
        <ele>105</ele>
        <time>2018-10-09T13:14:24.094Z</time>
      </trkpt>
      <trkpt lat="48.09962" lon="1.32383">
        <ele>105</ele>
        <time>2018-10-09T13:14:25.094Z</time>
      </trkpt>
      <trkpt lat="48.09963" lon="1.32382">
        <ele>105</ele>
        <time>2018-10-09T13:14:26.094Z</time>
      </trkpt>
      <trkpt lat="48.09964" lon="1.32381">
        <ele>105</ele>
        <time>2018-10-09T13:14:27.094Z</time>
      </trkpt>
      <trkpt lat="48.09965" lon="1.3238">
        <ele>105</ele>
        <time>2018-10-09T13:14:28.094Z</time>
      </trkpt>
      <trkpt lat="48.09966" lon="1.32379">
        <ele>105</ele>
        <time>2018-10-09T13:14:29.094Z</time>
      </trkpt>
      <trkpt lat="48.09967" lon="1.32377">
        <ele>105</ele>
        <time>2018-10-09T13:14:30.094Z</time>
      </trkpt>
      <trkpt lat="48.09968" lon="1.32376">
        <ele>105</ele>
        <time>2018-10-09T13:14:31.094Z</time>
      </trkpt>
      <trkpt lat="48.09969" lon="1.32374">
        <ele>105</ele>
        <time>2018-10-09T13:14:32.094Z</time>
      </trkpt>
      <trkpt lat="48.0997" lon="1.32373">
        <ele>106</ele>
        <time>2018-10-09T13:14:33.094Z</time>
      </trkpt>
      <trkpt lat="48.09971" lon="1.32372">
        <ele>106</ele>
        <time>2018-10-09T13:14:34.094Z</time>
      </trkpt>
      <trkpt lat="48.09972" lon="1.32371">
        <ele>106</ele>
        <time>2018-10-09T13:14:35.094Z</time>
      </trkpt>
      <trkpt lat="48.09973" lon="1.32369">
        <ele>106</ele>
        <time>2018-10-09T13:14:36.094Z</time>
      </trkpt>
      <trkpt lat="48.09974" lon="1.32368">
        <ele>105</ele>
        <time>2018-10-09T13:14:37.094Z</time>
      </trkpt>
      <trkpt lat="48.09975" lon="1.32367">
        <ele>105</ele>
        <time>2018-10-09T13:14:38.094Z</time>
      </trkpt>
      <trkpt lat="48.09976" lon="1.32366">
        <ele>105</ele>
        <time>2018-10-09T13:14:39.094Z</time>
      </trkpt>
      <trkpt lat="48.09977" lon="1.32365">
        <ele>105</ele>
        <time>2018-10-09T13:14:40.094Z</time>
      </trkpt>
      <trkpt lat="48.09978" lon="1.32364">
        <ele>105</ele>
        <time>2018-10-09T13:14:41.094Z</time>
      </trkpt>
      <trkpt lat="48.09979" lon="1.32363">
        <ele>105</ele>
        <time>2018-10-09T13:14:42.094Z</time>
      </trkpt>
      <trkpt lat="48.0998" lon="1.32361">
        <ele>105</ele>
        <time>2018-10-09T13:14:43.094Z</time>
      </trkpt>
      <trkpt lat="48.09981" lon="1.3236">
        <ele>105</ele>
        <time>2018-10-09T13:14:44.094Z</time>
      </trkpt>
      <trkpt lat="48.09982" lon="1.32358">
        <ele>105</ele>
        <time>2018-10-09T13:14:45.094Z</time>
      </trkpt>
      <trkpt lat="48.09983" lon="1.32357">
        <ele>105</ele>
        <time>2018-10-09T13:14:46.094Z</time>
      </trkpt>
      <trkpt lat="48.09984" lon="1.32355">
        <ele>105</ele>
        <time>2018-10-09T13:14:47.094Z</time>
      </trkpt>
      <trkpt lat="48.09985" lon="1.32354">
        <ele>105</ele>
        <time>2018-10-09T13:14:48.094Z</time>
      </trkpt>
      <trkpt lat="48.09986" lon="1.32353">
        <ele>105</ele>
        <time>2018-10-09T13:14:49.094Z</time>
      </trkpt>
      <trkpt lat="48.09987" lon="1.32352">
        <ele>105</ele>
        <time>2018-10-09T13:14:50.094Z</time>
      </trkpt>
      <trkpt lat="48.09988" lon="1.3235">
        <ele>105</ele>
        <time>2018-10-09T13:14:51.094Z</time>
      </trkpt>
      <trkpt lat="48.09989" lon="1.32349">
        <ele>105</ele>
        <time>2018-10-09T13:14:52.094Z</time>
      </trkpt>
      <trkpt lat="48.0999" lon="1.32347">
        <ele>105</ele>
        <time>2018-10-09T13:14:53.094Z</time>
      </trkpt>
      <trkpt lat="48.09991" lon="1.32346">
        <ele>105</ele>
        <time>2018-10-09T13:14:54.094Z</time>
      </trkpt>
      <trkpt lat="48.09992" lon="1.32345">
        <ele>105</ele>
        <time>2018-10-09T13:14:55.094Z</time>
      </trkpt>
      <trkpt lat="48.09993" lon="1.32344">
        <ele>105</ele>
        <time>2018-10-09T13:14:56.094Z</time>
      </trkpt>
      <trkpt lat="48.09994" lon="1.32342">
        <ele>105</ele>
        <time>2018-10-09T13:14:57.094Z</time>
      </trkpt>
      <trkpt lat="48.09995" lon="1.32341">
        <ele>106</ele>
        <time>2018-10-09T13:14:58.094Z</time>
      </trkpt>
      <trkpt lat="48.09996" lon="1.3234">
        <ele>106</ele>
        <time>2018-10-09T13:14:59.094Z</time>
      </trkpt>
      <trkpt lat="48.09997" lon="1.32339">
        <ele>106</ele>
        <time>2018-10-09T13:15:00.094Z</time>
      </trkpt>
      <trkpt lat="48.09998" lon="1.32337">
        <ele>106</ele>
        <time>2018-10-09T13:15:01.094Z</time>
      </trkpt>
      <trkpt lat="48.09999" lon="1.32336">
        <ele>107</ele>
        <time>2018-10-09T13:15:02.094Z</time>
      </trkpt>
      <trkpt lat="48.1" lon="1.32335">
        <ele>107</ele>
        <time>2018-10-09T13:15:03.094Z</time>
      </trkpt>
      <trkpt lat="48.10001" lon="1.32334">
        <ele>107</ele>
        <time>2018-10-09T13:15:04.094Z</time>
      </trkpt>
      <trkpt lat="48.10002" lon="1.32332">
        <ele>107</ele>
        <time>2018-10-09T13:15:05.094Z</time>
      </trkpt>
      <trkpt lat="48.10003" lon="1.32331">
        <ele>107</ele>
        <time>2018-10-09T13:15:06.094Z</time>
      </trkpt>
      <trkpt lat="48.10004" lon="1.3233">
        <ele>107</ele>
        <time>2018-10-09T13:15:07.094Z</time>
      </trkpt>
      <trkpt lat="48.10005" lon="1.32329">
        <ele>107</ele>
        <time>2018-10-09T13:15:08.094Z</time>
      </trkpt>
      <trkpt lat="48.10006" lon="1.32327">
        <ele>107</ele>
        <time>2018-10-09T13:15:09.094Z</time>
      </trkpt>
      <trkpt lat="48.10007" lon="1.32326">
        <ele>107</ele>
        <time>2018-10-09T13:15:10.094Z</time>
      </trkpt>
      <trkpt lat="48.10008" lon="1.32324">
        <ele>108</ele>
        <time>2018-10-09T13:15:11.094Z</time>
      </trkpt>
      <trkpt lat="48.10009" lon="1.32323">
        <ele>108</ele>
        <time>2018-10-09T13:15:12.094Z</time>
      </trkpt>
      <trkpt lat="48.1001" lon="1.32322">
        <ele>108</ele>
        <time>2018-10-09T13:15:13.094Z</time>
      </trkpt>
      <trkpt lat="48.10011" lon="1.3232">
        <ele>108</ele>
        <time>2018-10-09T13:15:14.094Z</time>
      </trkpt>
      <trkpt lat="48.10011" lon="1.32319">
        <ele>108</ele>
        <time>2018-10-09T13:15:15.094Z</time>
      </trkpt>
      <trkpt lat="48.10012" lon="1.32318">
        <ele>108</ele>
        <time>2018-10-09T13:15:16.094Z</time>
      </trkpt>
      <trkpt lat="48.10013" lon="1.32317">
        <ele>108</ele>
        <time>2018-10-09T13:15:17.094Z</time>
      </trkpt>
      <trkpt lat="48.10014" lon="1.32315">
        <ele>108</ele>
        <time>2018-10-09T13:15:18.094Z</time>
      </trkpt>
      <trkpt lat="48.10015" lon="1.32314">
        <ele>108</ele>
        <time>2018-10-09T13:15:19.094Z</time>
      </trkpt>
      <trkpt lat="48.10016" lon="1.32313">
        <ele>108</ele>
        <time>2018-10-09T13:15:20.094Z</time>
      </trkpt>
      <trkpt lat="48.10017" lon="1.32312">
        <ele>108</ele>
        <time>2018-10-09T13:15:21.094Z</time>
      </trkpt>
      <trkpt lat="48.10018" lon="1.3231">
        <ele>108</ele>
        <time>2018-10-09T13:15:22.094Z</time>
      </trkpt>
      <trkpt lat="48.10019" lon="1.32309">
        <ele>108</ele>
        <time>2018-10-09T13:15:23.094Z</time>
      </trkpt>
      <trkpt lat="48.1002" lon="1.32308">
        <ele>108</ele>
        <time>2018-10-09T13:15:24.094Z</time>
      </trkpt>
      <trkpt lat="48.10021" lon="1.32307">
        <ele>108</ele>
        <time>2018-10-09T13:15:25.094Z</time>
      </trkpt>
      <trkpt lat="48.10022" lon="1.32306">
        <ele>108</ele>
        <time>2018-10-09T13:15:26.094Z</time>
      </trkpt>
      <trkpt lat="48.10023" lon="1.32305">
        <ele>108</ele>
        <time>2018-10-09T13:15:27.094Z</time>
      </trkpt>
      <trkpt lat="48.10024" lon="1.32303">
        <ele>108</ele>
        <time>2018-10-09T13:15:28.094Z</time>
      </trkpt>
      <trkpt lat="48.10025" lon="1.32302">
        <ele>108</ele>
        <time>2018-10-09T13:15:29.094Z</time>
      </trkpt>
      <trkpt lat="48.10027" lon="1.32301">
        <ele>108</ele>
        <time>2018-10-09T13:15:30.094Z</time>
      </trkpt>
      <trkpt lat="48.10028" lon="1.32299">
        <ele>108</ele>
        <time>2018-10-09T13:15:31.094Z</time>
      </trkpt>
      <trkpt lat="48.10029" lon="1.32298">
        <ele>108</ele>
        <time>2018-10-09T13:15:32.094Z</time>
      </trkpt>
      <trkpt lat="48.1003" lon="1.32296">
        <ele>108</ele>
        <time>2018-10-09T13:15:33.094Z</time>
      </trkpt>
      <trkpt lat="48.10031" lon="1.32295">
        <ele>108</ele>
        <time>2018-10-09T13:15:34.094Z</time>
      </trkpt>
      <trkpt lat="48.10032" lon="1.32293">
        <ele>108</ele>
        <time>2018-10-09T13:15:35.094Z</time>
      </trkpt>
      <trkpt lat="48.10033" lon="1.32292">
        <ele>107</ele>
        <time>2018-10-09T13:15:36.094Z</time>
      </trkpt>
      <trkpt lat="48.10034" lon="1.3229">
        <ele>108</ele>
        <time>2018-10-09T13:15:37.094Z</time>
      </trkpt>
      <trkpt lat="48.10035" lon="1.32288">
        <ele>107</ele>
        <time>2018-10-09T13:15:38.094Z</time>
      </trkpt>
      <trkpt lat="48.10036" lon="1.32287">
        <ele>107</ele>
        <time>2018-10-09T13:15:39.094Z</time>
      </trkpt>
      <trkpt lat="48.10037" lon="1.32285">
        <ele>107</ele>
        <time>2018-10-09T13:15:40.094Z</time>
      </trkpt>
      <trkpt lat="48.10038" lon="1.32284">
        <ele>107</ele>
        <time>2018-10-09T13:15:41.094Z</time>
      </trkpt>
      <trkpt lat="48.10039" lon="1.32283">
        <ele>107</ele>
        <time>2018-10-09T13:15:42.094Z</time>
      </trkpt>
      <trkpt lat="48.1004" lon="1.32281">
        <ele>107</ele>
        <time>2018-10-09T13:15:43.094Z</time>
      </trkpt>
      <trkpt lat="48.10041" lon="1.3228">
        <ele>107</ele>
        <time>2018-10-09T13:15:44.094Z</time>
      </trkpt>
      <trkpt lat="48.10042" lon="1.32279">
        <ele>107</ele>
        <time>2018-10-09T13:15:45.094Z</time>
      </trkpt>
      <trkpt lat="48.10043" lon="1.32277">
        <ele>107</ele>
        <time>2018-10-09T13:15:46.094Z</time>
      </trkpt>
      <trkpt lat="48.10044" lon="1.32276">
        <ele>108</ele>
        <time>2018-10-09T13:15:47.094Z</time>
      </trkpt>
      <trkpt lat="48.10045" lon="1.32275">
        <ele>108</ele>
        <time>2018-10-09T13:15:48.094Z</time>
      </trkpt>
      <trkpt lat="48.10046" lon="1.32273">
        <ele>108</ele>
        <time>2018-10-09T13:15:49.094Z</time>
      </trkpt>
      <trkpt lat="48.10047" lon="1.32272">
        <ele>107</ele>
        <time>2018-10-09T13:15:50.094Z</time>
      </trkpt>
      <trkpt lat="48.10048" lon="1.3227">
        <ele>107</ele>
        <time>2018-10-09T13:15:51.094Z</time>
      </trkpt>
      <trkpt lat="48.10049" lon="1.32269">
        <ele>108</ele>
        <time>2018-10-09T13:15:52.094Z</time>
      </trkpt>
      <trkpt lat="48.1005" lon="1.32268">
        <ele>107</ele>
        <time>2018-10-09T13:15:53.094Z</time>
      </trkpt>
      <trkpt lat="48.10051" lon="1.32266">
        <ele>107</ele>
        <time>2018-10-09T13:15:54.094Z</time>
      </trkpt>
      <trkpt lat="48.10052" lon="1.32265">
        <ele>107</ele>
        <time>2018-10-09T13:15:55.094Z</time>
      </trkpt>
      <trkpt lat="48.10053" lon="1.32264">
        <ele>107</ele>
        <time>2018-10-09T13:15:56.094Z</time>
      </trkpt>
      <trkpt lat="48.10054" lon="1.32263">
        <ele>107</ele>
        <time>2018-10-09T13:15:57.094Z</time>
      </trkpt>
      <trkpt lat="48.10055" lon="1.32262">
        <ele>107</ele>
        <time>2018-10-09T13:15:58.094Z</time>
      </trkpt>
      <trkpt lat="48.10056" lon="1.32261">
        <ele>107</ele>
        <time>2018-10-09T13:15:59.094Z</time>
      </trkpt>
      <trkpt lat="48.10057" lon="1.3226">
        <ele>107</ele>
        <time>2018-10-09T13:16:00.094Z</time>
      </trkpt>
      <trkpt lat="48.10057" lon="1.32258">
        <ele>107</ele>
        <time>2018-10-09T13:16:01.094Z</time>
      </trkpt>
      <trkpt lat="48.10058" lon="1.32257">
        <ele>107</ele>
        <time>2018-10-09T13:16:02.094Z</time>
      </trkpt>
      <trkpt lat="48.10059" lon="1.32256">
        <ele>106</ele>
        <time>2018-10-09T13:16:03.094Z</time>
      </trkpt>
      <trkpt lat="48.1006" lon="1.32255">
        <ele>106</ele>
        <time>2018-10-09T13:16:04.094Z</time>
      </trkpt>
      <trkpt lat="48.10061" lon="1.32254">
        <ele>106</ele>
        <time>2018-10-09T13:16:05.094Z</time>
      </trkpt>
      <trkpt lat="48.10062" lon="1.32252">
        <ele>106</ele>
        <time>2018-10-09T13:16:06.094Z</time>
      </trkpt>
      <trkpt lat="48.10063" lon="1.32251">
        <ele>106</ele>
        <time>2018-10-09T13:16:07.094Z</time>
      </trkpt>
      <trkpt lat="48.10064" lon="1.3225">
        <ele>105</ele>
        <time>2018-10-09T13:16:08.094Z</time>
      </trkpt>
      <trkpt lat="48.10065" lon="1.32248">
        <ele>106</ele>
        <time>2018-10-09T13:16:09.094Z</time>
      </trkpt>
      <trkpt lat="48.10066" lon="1.32247">
        <ele>106</ele>
        <time>2018-10-09T13:16:10.094Z</time>
      </trkpt>
      <trkpt lat="48.10068" lon="1.32246">
        <ele>106</ele>
        <time>2018-10-09T13:16:11.094Z</time>
      </trkpt>
      <trkpt lat="48.10069" lon="1.32245">
        <ele>106</ele>
        <time>2018-10-09T13:16:12.094Z</time>
      </trkpt>
      <trkpt lat="48.1007" lon="1.32243">
        <ele>106</ele>
        <time>2018-10-09T13:16:13.094Z</time>
      </trkpt>
      <trkpt lat="48.10071" lon="1.32242">
        <ele>106</ele>
        <time>2018-10-09T13:16:14.094Z</time>
      </trkpt>
      <trkpt lat="48.10072" lon="1.32241">
        <ele>106</ele>
        <time>2018-10-09T13:16:15.094Z</time>
      </trkpt>
      <trkpt lat="48.10073" lon="1.3224">
        <ele>106</ele>
        <time>2018-10-09T13:16:16.094Z</time>
      </trkpt>
      <trkpt lat="48.10074" lon="1.32239">
        <ele>106</ele>
        <time>2018-10-09T13:16:17.094Z</time>
      </trkpt>
      <trkpt lat="48.10075" lon="1.32237">
        <ele>106</ele>
        <time>2018-10-09T13:16:18.094Z</time>
      </trkpt>
      <trkpt lat="48.10076" lon="1.32236">
        <ele>106</ele>
        <time>2018-10-09T13:16:19.094Z</time>
      </trkpt>
      <trkpt lat="48.10077" lon="1.32235">
        <ele>106</ele>
        <time>2018-10-09T13:16:20.094Z</time>
      </trkpt>
      <trkpt lat="48.10078" lon="1.32234">
        <ele>106</ele>
        <time>2018-10-09T13:16:21.094Z</time>
      </trkpt>
      <trkpt lat="48.10079" lon="1.32233">
        <ele>106</ele>
        <time>2018-10-09T13:16:22.094Z</time>
      </trkpt>
      <trkpt lat="48.1008" lon="1.32232">
        <ele>106</ele>
        <time>2018-10-09T13:16:23.094Z</time>
      </trkpt>
      <trkpt lat="48.10081" lon="1.32231">
        <ele>106</ele>
        <time>2018-10-09T13:16:24.094Z</time>
      </trkpt>
      <trkpt lat="48.10082" lon="1.3223">
        <ele>106</ele>
        <time>2018-10-09T13:16:25.094Z</time>
      </trkpt>
      <trkpt lat="48.10083" lon="1.32228">
        <ele>107</ele>
        <time>2018-10-09T13:16:26.094Z</time>
      </trkpt>
      <trkpt lat="48.10084" lon="1.32227">
        <ele>107</ele>
        <time>2018-10-09T13:16:27.094Z</time>
      </trkpt>
      <trkpt lat="48.10085" lon="1.32226">
        <ele>107</ele>
        <time>2018-10-09T13:16:28.094Z</time>
      </trkpt>
      <trkpt lat="48.10086" lon="1.32225">
        <ele>107</ele>
        <time>2018-10-09T13:16:29.094Z</time>
      </trkpt>
      <trkpt lat="48.10087" lon="1.32224">
        <ele>107</ele>
        <time>2018-10-09T13:16:30.094Z</time>
      </trkpt>
      <trkpt lat="48.10089" lon="1.32222">
        <ele>107</ele>
        <time>2018-10-09T13:16:31.094Z</time>
      </trkpt>
      <trkpt lat="48.1009" lon="1.32221">
        <ele>107</ele>
        <time>2018-10-09T13:16:32.094Z</time>
      </trkpt>
      <trkpt lat="48.10091" lon="1.3222">
        <ele>108</ele>
        <time>2018-10-09T13:16:33.094Z</time>
      </trkpt>
      <trkpt lat="48.10092" lon="1.32219">
        <ele>107</ele>
        <time>2018-10-09T13:16:34.094Z</time>
      </trkpt>
      <trkpt lat="48.10093" lon="1.32218">
        <ele>108</ele>
        <time>2018-10-09T13:16:35.094Z</time>
      </trkpt>
      <trkpt lat="48.10094" lon="1.32216">
        <ele>108</ele>
        <time>2018-10-09T13:16:36.094Z</time>
      </trkpt>
      <trkpt lat="48.10095" lon="1.32215">
        <ele>108</ele>
        <time>2018-10-09T13:16:37.094Z</time>
      </trkpt>
      <trkpt lat="48.10096" lon="1.32214">
        <ele>108</ele>
        <time>2018-10-09T13:16:38.094Z</time>
      </trkpt>
      <trkpt lat="48.10097" lon="1.32213">
        <ele>108</ele>
        <time>2018-10-09T13:16:39.094Z</time>
      </trkpt>
      <trkpt lat="48.10098" lon="1.32211">
        <ele>108</ele>
        <time>2018-10-09T13:16:40.094Z</time>
      </trkpt>
      <trkpt lat="48.10099" lon="1.3221">
        <ele>108</ele>
        <time>2018-10-09T13:16:41.094Z</time>
      </trkpt>
      <trkpt lat="48.101" lon="1.32209">
        <ele>109</ele>
        <time>2018-10-09T13:16:42.094Z</time>
      </trkpt>
      <trkpt lat="48.10101" lon="1.32208">
        <ele>109</ele>
        <time>2018-10-09T13:16:43.094Z</time>
      </trkpt>
      <trkpt lat="48.10102" lon="1.32207">
        <ele>109</ele>
        <time>2018-10-09T13:16:44.094Z</time>
      </trkpt>
      <trkpt lat="48.10103" lon="1.32205">
        <ele>109</ele>
        <time>2018-10-09T13:16:45.094Z</time>
      </trkpt>
      <trkpt lat="48.10104" lon="1.32204">
        <ele>109</ele>
        <time>2018-10-09T13:16:46.094Z</time>
      </trkpt>
      <trkpt lat="48.10106" lon="1.32203">
        <ele>109</ele>
        <time>2018-10-09T13:16:47.094Z</time>
      </trkpt>
      <trkpt lat="48.10107" lon="1.32201">
        <ele>109</ele>
        <time>2018-10-09T13:16:48.094Z</time>
      </trkpt>
      <trkpt lat="48.10108" lon="1.322">
        <ele>109</ele>
        <time>2018-10-09T13:16:49.094Z</time>
      </trkpt>
      <trkpt lat="48.10109" lon="1.32199">
        <ele>109</ele>
        <time>2018-10-09T13:16:50.094Z</time>
      </trkpt>
      <trkpt lat="48.1011" lon="1.32197">
        <ele>109</ele>
        <time>2018-10-09T13:16:51.094Z</time>
      </trkpt>
      <trkpt lat="48.10111" lon="1.32196">
        <ele>109</ele>
        <time>2018-10-09T13:16:52.094Z</time>
      </trkpt>
      <trkpt lat="48.10111" lon="1.32195">
        <ele>110</ele>
        <time>2018-10-09T13:16:53.094Z</time>
      </trkpt>
      <trkpt lat="48.10112" lon="1.32193">
        <ele>109</ele>
        <time>2018-10-09T13:16:54.094Z</time>
      </trkpt>
      <trkpt lat="48.10113" lon="1.32192">
        <ele>110</ele>
        <time>2018-10-09T13:16:55.094Z</time>
      </trkpt>
      <trkpt lat="48.10114" lon="1.32191">
        <ele>110</ele>
        <time>2018-10-09T13:16:56.094Z</time>
      </trkpt>
      <trkpt lat="48.10115" lon="1.3219">
        <ele>110</ele>
        <time>2018-10-09T13:16:57.094Z</time>
      </trkpt>
      <trkpt lat="48.10116" lon="1.32188">
        <ele>110</ele>
        <time>2018-10-09T13:16:58.094Z</time>
      </trkpt>
      <trkpt lat="48.10117" lon="1.32187">
        <ele>110</ele>
        <time>2018-10-09T13:16:59.094Z</time>
      </trkpt>
      <trkpt lat="48.10118" lon="1.32186">
        <ele>110</ele>
        <time>2018-10-09T13:17:00.094Z</time>
      </trkpt>
      <trkpt lat="48.10119" lon="1.32185">
        <ele>110</ele>
        <time>2018-10-09T13:17:01.094Z</time>
      </trkpt>
      <trkpt lat="48.1012" lon="1.32183">
        <ele>109</ele>
        <time>2018-10-09T13:17:02.094Z</time>
      </trkpt>
      <trkpt lat="48.10121" lon="1.32182">
        <ele>109</ele>
        <time>2018-10-09T13:17:03.094Z</time>
      </trkpt>
      <trkpt lat="48.10122" lon="1.3218">
        <ele>109</ele>
        <time>2018-10-09T13:17:04.094Z</time>
      </trkpt>
      <trkpt lat="48.10123" lon="1.32179">
        <ele>109</ele>
        <time>2018-10-09T13:17:05.094Z</time>
      </trkpt>
      <trkpt lat="48.10124" lon="1.32177">
        <ele>109</ele>
        <time>2018-10-09T13:17:06.094Z</time>
      </trkpt>
      <trkpt lat="48.10125" lon="1.32176">
        <ele>109</ele>
        <time>2018-10-09T13:17:07.094Z</time>
      </trkpt>
      <trkpt lat="48.10125" lon="1.32174">
        <ele>109</ele>
        <time>2018-10-09T13:17:08.094Z</time>
      </trkpt>
      <trkpt lat="48.10126" lon="1.32173">
        <ele>109</ele>
        <time>2018-10-09T13:17:09.094Z</time>
      </trkpt>
      <trkpt lat="48.10126" lon="1.32171">
        <ele>109</ele>
        <time>2018-10-09T13:17:10.094Z</time>
      </trkpt>
      <trkpt lat="48.10127" lon="1.3217">
        <ele>109</ele>
        <time>2018-10-09T13:17:11.094Z</time>
      </trkpt>
      <trkpt lat="48.10128" lon="1.32168">
        <ele>109</ele>
        <time>2018-10-09T13:17:12.094Z</time>
      </trkpt>
      <trkpt lat="48.10128" lon="1.32166">
        <ele>108</ele>
        <time>2018-10-09T13:17:13.094Z</time>
      </trkpt>
      <trkpt lat="48.10129" lon="1.32164">
        <ele>108</ele>
        <time>2018-10-09T13:17:14.094Z</time>
      </trkpt>
      <trkpt lat="48.10129" lon="1.32162">
        <ele>108</ele>
        <time>2018-10-09T13:17:15.094Z</time>
      </trkpt>
      <trkpt lat="48.10129" lon="1.3216">
        <ele>108</ele>
        <time>2018-10-09T13:17:16.094Z</time>
      </trkpt>
      <trkpt lat="48.10129" lon="1.32159">
        <ele>108</ele>
        <time>2018-10-09T13:17:17.094Z</time>
      </trkpt>
      <trkpt lat="48.10129" lon="1.32157">
        <ele>108</ele>
        <time>2018-10-09T13:17:18.094Z</time>
      </trkpt>
      <trkpt lat="48.10129" lon="1.32155">
        <ele>107</ele>
        <time>2018-10-09T13:17:19.094Z</time>
      </trkpt>
      <trkpt lat="48.10129" lon="1.32153">
        <ele>107</ele>
        <time>2018-10-09T13:17:20.094Z</time>
      </trkpt>
      <trkpt lat="48.10129" lon="1.32151">
        <ele>107</ele>
        <time>2018-10-09T13:17:21.094Z</time>
      </trkpt>
      <trkpt lat="48.10129" lon="1.32149">
        <ele>107</ele>
        <time>2018-10-09T13:17:22.094Z</time>
      </trkpt>
      <trkpt lat="48.10129" lon="1.32148">
        <ele>107</ele>
        <time>2018-10-09T13:17:23.094Z</time>
      </trkpt>
      <trkpt lat="48.10129" lon="1.32146">
        <ele>106</ele>
        <time>2018-10-09T13:17:24.094Z</time>
      </trkpt>
      <trkpt lat="48.10128" lon="1.32144">
        <ele>106</ele>
        <time>2018-10-09T13:17:25.094Z</time>
      </trkpt>
      <trkpt lat="48.10128" lon="1.32143">
        <ele>106</ele>
        <time>2018-10-09T13:17:26.094Z</time>
      </trkpt>
      <trkpt lat="48.10127" lon="1.32141">
        <ele>106</ele>
        <time>2018-10-09T13:17:27.094Z</time>
      </trkpt>
      <trkpt lat="48.10127" lon="1.32139">
        <ele>105</ele>
        <time>2018-10-09T13:17:28.094Z</time>
      </trkpt>
      <trkpt lat="48.10126" lon="1.32137">
        <ele>105</ele>
        <time>2018-10-09T13:17:29.094Z</time>
      </trkpt>
      <trkpt lat="48.10126" lon="1.32136">
        <ele>105</ele>
        <time>2018-10-09T13:17:30.094Z</time>
      </trkpt>
      <trkpt lat="48.10126" lon="1.32134">
        <ele>105</ele>
        <time>2018-10-09T13:17:31.094Z</time>
      </trkpt>
      <trkpt lat="48.10125" lon="1.32132">
        <ele>106</ele>
        <time>2018-10-09T13:17:32.094Z</time>
      </trkpt>
      <trkpt lat="48.10125" lon="1.3213">
        <ele>105</ele>
        <time>2018-10-09T13:17:33.094Z</time>
      </trkpt>
      <trkpt lat="48.10125" lon="1.32129">
        <ele>105</ele>
        <time>2018-10-09T13:17:34.094Z</time>
      </trkpt>
      <trkpt lat="48.10125" lon="1.32127">
        <ele>105</ele>
        <time>2018-10-09T13:17:35.094Z</time>
      </trkpt>
      <trkpt lat="48.10124" lon="1.32125">
        <ele>105</ele>
        <time>2018-10-09T13:17:36.094Z</time>
      </trkpt>
      <trkpt lat="48.10124" lon="1.32123">
        <ele>105</ele>
        <time>2018-10-09T13:17:37.094Z</time>
      </trkpt>
      <trkpt lat="48.10124" lon="1.32122">
        <ele>106</ele>
        <time>2018-10-09T13:17:38.094Z</time>
      </trkpt>
      <trkpt lat="48.10123" lon="1.3212">
        <ele>106</ele>
        <time>2018-10-09T13:17:39.094Z</time>
      </trkpt>
      <trkpt lat="48.10123" lon="1.32119">
        <ele>106</ele>
        <time>2018-10-09T13:17:40.094Z</time>
      </trkpt>
      <trkpt lat="48.10122" lon="1.32117">
        <ele>106</ele>
        <time>2018-10-09T13:17:41.094Z</time>
      </trkpt>
      <trkpt lat="48.10122" lon="1.32115">
        <ele>105</ele>
        <time>2018-10-09T13:17:42.094Z</time>
      </trkpt>
      <trkpt lat="48.10122" lon="1.32113">
        <ele>105</ele>
        <time>2018-10-09T13:17:43.094Z</time>
      </trkpt>
      <trkpt lat="48.10121" lon="1.32112">
        <ele>105</ele>
        <time>2018-10-09T13:17:44.094Z</time>
      </trkpt>
      <trkpt lat="48.10121" lon="1.3211">
        <ele>105</ele>
        <time>2018-10-09T13:17:45.094Z</time>
      </trkpt>
      <trkpt lat="48.1012" lon="1.32108">
        <ele>105</ele>
        <time>2018-10-09T13:17:46.094Z</time>
      </trkpt>
      <trkpt lat="48.1012" lon="1.32106">
        <ele>105</ele>
        <time>2018-10-09T13:17:47.094Z</time>
      </trkpt>
      <trkpt lat="48.10119" lon="1.32104">
        <ele>105</ele>
        <time>2018-10-09T13:17:48.094Z</time>
      </trkpt>
      <trkpt lat="48.10119" lon="1.32103">
        <ele>105</ele>
        <time>2018-10-09T13:17:49.094Z</time>
      </trkpt>
      <trkpt lat="48.10118" lon="1.32101">
        <ele>105</ele>
        <time>2018-10-09T13:17:50.094Z</time>
      </trkpt>
      <trkpt lat="48.10118" lon="1.32099">
        <ele>105</ele>
        <time>2018-10-09T13:17:51.094Z</time>
      </trkpt>
      <trkpt lat="48.10118" lon="1.32098">
        <ele>105</ele>
        <time>2018-10-09T13:17:52.094Z</time>
      </trkpt>
      <trkpt lat="48.10117" lon="1.32096">
        <ele>104</ele>
        <time>2018-10-09T13:17:53.094Z</time>
      </trkpt>
      <trkpt lat="48.10117" lon="1.32094">
        <ele>104</ele>
        <time>2018-10-09T13:17:54.094Z</time>
      </trkpt>
      <trkpt lat="48.10116" lon="1.32093">
        <ele>104</ele>
        <time>2018-10-09T13:17:55.094Z</time>
      </trkpt>
      <trkpt lat="48.10116" lon="1.32091">
        <ele>104</ele>
        <time>2018-10-09T13:17:56.094Z</time>
      </trkpt>
      <trkpt lat="48.10115" lon="1.32089">
        <ele>104</ele>
        <time>2018-10-09T13:17:57.094Z</time>
      </trkpt>
      <trkpt lat="48.10115" lon="1.32087">
        <ele>104</ele>
        <time>2018-10-09T13:17:58.094Z</time>
      </trkpt>
      <trkpt lat="48.10115" lon="1.32085">
        <ele>104</ele>
        <time>2018-10-09T13:17:59.094Z</time>
      </trkpt>
      <trkpt lat="48.10114" lon="1.32084">
        <ele>104</ele>
        <time>2018-10-09T13:18:00.094Z</time>
      </trkpt>
      <trkpt lat="48.10114" lon="1.32082">
        <ele>104</ele>
        <time>2018-10-09T13:18:01.094Z</time>
      </trkpt>
      <trkpt lat="48.10113" lon="1.3208">
        <ele>104</ele>
        <time>2018-10-09T13:18:02.094Z</time>
      </trkpt>
      <trkpt lat="48.10113" lon="1.32078">
        <ele>104</ele>
        <time>2018-10-09T13:18:03.094Z</time>
      </trkpt>
      <trkpt lat="48.10113" lon="1.32076">
        <ele>104</ele>
        <time>2018-10-09T13:18:04.094Z</time>
      </trkpt>
      <trkpt lat="48.10113" lon="1.32074">
        <ele>104</ele>
        <time>2018-10-09T13:18:05.094Z</time>
      </trkpt>
      <trkpt lat="48.10113" lon="1.32072">
        <ele>103</ele>
        <time>2018-10-09T13:18:06.094Z</time>
      </trkpt>
      <trkpt lat="48.10113" lon="1.3207">
        <ele>103</ele>
        <time>2018-10-09T13:18:07.094Z</time>
      </trkpt>
      <trkpt lat="48.10113" lon="1.32069">
        <ele>103</ele>
        <time>2018-10-09T13:18:08.094Z</time>
      </trkpt>
      <trkpt lat="48.10114" lon="1.32067">
        <ele>104</ele>
        <time>2018-10-09T13:18:09.094Z</time>
      </trkpt>
      <trkpt lat="48.10114" lon="1.32065">
        <ele>104</ele>
        <time>2018-10-09T13:18:10.094Z</time>
      </trkpt>
      <trkpt lat="48.10115" lon="1.32063">
        <ele>103</ele>
        <time>2018-10-09T13:18:11.094Z</time>
      </trkpt>
      <trkpt lat="48.10116" lon="1.32062">
        <ele>103</ele>
        <time>2018-10-09T13:18:12.094Z</time>
      </trkpt>
      <trkpt lat="48.10116" lon="1.3206">
        <ele>104</ele>
        <time>2018-10-09T13:18:13.094Z</time>
      </trkpt>
      <trkpt lat="48.10117" lon="1.32059">
        <ele>104</ele>
        <time>2018-10-09T13:18:14.094Z</time>
      </trkpt>
      <trkpt lat="48.10118" lon="1.32058">
        <ele>104</ele>
        <time>2018-10-09T13:18:15.094Z</time>
      </trkpt>
      <trkpt lat="48.10119" lon="1.32056">
        <ele>104</ele>
        <time>2018-10-09T13:18:16.094Z</time>
      </trkpt>
      <trkpt lat="48.1012" lon="1.32055">
        <ele>104</ele>
        <time>2018-10-09T13:18:17.094Z</time>
      </trkpt>
      <trkpt lat="48.10121" lon="1.32054">
        <ele>104</ele>
        <time>2018-10-09T13:18:18.094Z</time>
      </trkpt>
      <trkpt lat="48.10122" lon="1.32053">
        <ele>105</ele>
        <time>2018-10-09T13:18:19.094Z</time>
      </trkpt>
      <trkpt lat="48.10123" lon="1.32052">
        <ele>104</ele>
        <time>2018-10-09T13:18:20.094Z</time>
      </trkpt>
      <trkpt lat="48.10124" lon="1.32051">
        <ele>105</ele>
        <time>2018-10-09T13:18:21.094Z</time>
      </trkpt>
      <trkpt lat="48.10125" lon="1.3205">
        <ele>105</ele>
        <time>2018-10-09T13:18:22.094Z</time>
      </trkpt>
      <trkpt lat="48.10126" lon="1.32049">
        <ele>106</ele>
        <time>2018-10-09T13:18:23.094Z</time>
      </trkpt>
      <trkpt lat="48.10128" lon="1.32048">
        <ele>106</ele>
        <time>2018-10-09T13:18:24.094Z</time>
      </trkpt>
      <trkpt lat="48.10129" lon="1.32047">
        <ele>106</ele>
        <time>2018-10-09T13:18:25.094Z</time>
      </trkpt>
      <trkpt lat="48.1013" lon="1.32046">
        <ele>106</ele>
        <time>2018-10-09T13:18:26.094Z</time>
      </trkpt>
      <trkpt lat="48.10132" lon="1.32045">
        <ele>106</ele>
        <time>2018-10-09T13:18:27.094Z</time>
      </trkpt>
      <trkpt lat="48.10133" lon="1.32044">
        <ele>106</ele>
        <time>2018-10-09T13:18:28.094Z</time>
      </trkpt>
      <trkpt lat="48.10134" lon="1.32043">
        <ele>106</ele>
        <time>2018-10-09T13:18:29.094Z</time>
      </trkpt>
      <trkpt lat="48.10135" lon="1.32042">
        <ele>106</ele>
        <time>2018-10-09T13:18:30.094Z</time>
      </trkpt>
      <trkpt lat="48.10137" lon="1.32041">
        <ele>107</ele>
        <time>2018-10-09T13:18:31.094Z</time>
      </trkpt>
      <trkpt lat="48.10138" lon="1.3204">
        <ele>107</ele>
        <time>2018-10-09T13:18:32.094Z</time>
      </trkpt>
      <trkpt lat="48.10139" lon="1.32039">
        <ele>107</ele>
        <time>2018-10-09T13:18:33.094Z</time>
      </trkpt>
      <trkpt lat="48.1014" lon="1.32038">
        <ele>107</ele>
        <time>2018-10-09T13:18:34.094Z</time>
      </trkpt>
      <trkpt lat="48.10141" lon="1.32037">
        <ele>107</ele>
        <time>2018-10-09T13:18:35.094Z</time>
      </trkpt>
      <trkpt lat="48.10142" lon="1.32036">
        <ele>107</ele>
        <time>2018-10-09T13:18:36.094Z</time>
      </trkpt>
      <trkpt lat="48.10143" lon="1.32035">
        <ele>107</ele>
        <time>2018-10-09T13:18:37.094Z</time>
      </trkpt>
      <trkpt lat="48.10145" lon="1.32034">
        <ele>107</ele>
        <time>2018-10-09T13:18:38.094Z</time>
      </trkpt>
      <trkpt lat="48.10146" lon="1.32033">
        <ele>107</ele>
        <time>2018-10-09T13:18:39.094Z</time>
      </trkpt>
      <trkpt lat="48.10147" lon="1.32032">
        <ele>107</ele>
        <time>2018-10-09T13:18:40.094Z</time>
      </trkpt>
      <trkpt lat="48.10148" lon="1.32031">
        <ele>107</ele>
        <time>2018-10-09T13:18:41.094Z</time>
      </trkpt>
      <trkpt lat="48.10149" lon="1.3203">
        <ele>107</ele>
        <time>2018-10-09T13:18:42.094Z</time>
      </trkpt>
      <trkpt lat="48.1015" lon="1.32029">
        <ele>108</ele>
        <time>2018-10-09T13:18:43.094Z</time>
      </trkpt>
      <trkpt lat="48.10152" lon="1.32028">
        <ele>108</ele>
        <time>2018-10-09T13:18:44.094Z</time>
      </trkpt>
      <trkpt lat="48.10153" lon="1.32027">
        <ele>108</ele>
        <time>2018-10-09T13:18:45.094Z</time>
      </trkpt>
      <trkpt lat="48.10154" lon="1.32026">
        <ele>108</ele>
        <time>2018-10-09T13:18:46.094Z</time>
      </trkpt>
      <trkpt lat="48.10155" lon="1.32025">
        <ele>107</ele>
        <time>2018-10-09T13:18:47.094Z</time>
      </trkpt>
      <trkpt lat="48.10156" lon="1.32025">
        <ele>108</ele>
        <time>2018-10-09T13:18:48.094Z</time>
      </trkpt>
      <trkpt lat="48.10157" lon="1.32024">
        <ele>108</ele>
        <time>2018-10-09T13:18:49.094Z</time>
      </trkpt>
      <trkpt lat="48.10158" lon="1.32023">
        <ele>107</ele>
        <time>2018-10-09T13:18:50.094Z</time>
      </trkpt>
      <trkpt lat="48.1016" lon="1.32022">
        <ele>108</ele>
        <time>2018-10-09T13:18:51.094Z</time>
      </trkpt>
      <trkpt lat="48.10161" lon="1.32021">
        <ele>108</ele>
        <time>2018-10-09T13:18:52.094Z</time>
      </trkpt>
      <trkpt lat="48.10162" lon="1.3202">
        <ele>107</ele>
        <time>2018-10-09T13:18:53.094Z</time>
      </trkpt>
      <trkpt lat="48.10163" lon="1.32019">
        <ele>107</ele>
        <time>2018-10-09T13:18:54.094Z</time>
      </trkpt>
      <trkpt lat="48.10164" lon="1.32018">
        <ele>107</ele>
        <time>2018-10-09T13:18:55.094Z</time>
      </trkpt>
      <trkpt lat="48.10165" lon="1.32017">
        <ele>107</ele>
        <time>2018-10-09T13:18:56.094Z</time>
      </trkpt>
      <trkpt lat="48.10167" lon="1.32016">
        <ele>107</ele>
        <time>2018-10-09T13:18:57.094Z</time>
      </trkpt>
      <trkpt lat="48.10168" lon="1.32015">
        <ele>107</ele>
        <time>2018-10-09T13:18:58.094Z</time>
      </trkpt>
      <trkpt lat="48.10169" lon="1.32014">
        <ele>107</ele>
        <time>2018-10-09T13:18:59.094Z</time>
      </trkpt>
      <trkpt lat="48.1017" lon="1.32013">
        <ele>107</ele>
        <time>2018-10-09T13:19:00.094Z</time>
      </trkpt>
      <trkpt lat="48.10171" lon="1.32012">
        <ele>107</ele>
        <time>2018-10-09T13:19:01.094Z</time>
      </trkpt>
      <trkpt lat="48.10172" lon="1.32011">
        <ele>107</ele>
        <time>2018-10-09T13:19:02.094Z</time>
      </trkpt>
      <trkpt lat="48.10173" lon="1.3201">
        <ele>107</ele>
        <time>2018-10-09T13:19:03.094Z</time>
      </trkpt>
      <trkpt lat="48.10174" lon="1.32009">
        <ele>107</ele>
        <time>2018-10-09T13:19:04.094Z</time>
      </trkpt>
      <trkpt lat="48.10175" lon="1.32008">
        <ele>107</ele>
        <time>2018-10-09T13:19:05.094Z</time>
      </trkpt>
      <trkpt lat="48.10176" lon="1.32007">
        <ele>107</ele>
        <time>2018-10-09T13:19:06.094Z</time>
      </trkpt>
      <trkpt lat="48.10178" lon="1.32006">
        <ele>108</ele>
        <time>2018-10-09T13:19:07.094Z</time>
      </trkpt>
      <trkpt lat="48.10179" lon="1.32005">
        <ele>107</ele>
        <time>2018-10-09T13:19:08.094Z</time>
      </trkpt>
      <trkpt lat="48.1018" lon="1.32004">
        <ele>107</ele>
        <time>2018-10-09T13:19:09.094Z</time>
      </trkpt>
      <trkpt lat="48.10181" lon="1.32003">
        <ele>107</ele>
        <time>2018-10-09T13:19:10.094Z</time>
      </trkpt>
      <trkpt lat="48.10182" lon="1.32003">
        <ele>107</ele>
        <time>2018-10-09T13:19:11.094Z</time>
      </trkpt>
      <trkpt lat="48.10183" lon="1.32002">
        <ele>108</ele>
        <time>2018-10-09T13:19:12.094Z</time>
      </trkpt>
      <trkpt lat="48.10184" lon="1.32001">
        <ele>108</ele>
        <time>2018-10-09T13:19:13.094Z</time>
      </trkpt>
      <trkpt lat="48.10185" lon="1.32">
        <ele>108</ele>
        <time>2018-10-09T13:19:14.094Z</time>
      </trkpt>
      <trkpt lat="48.10186" lon="1.31999">
        <ele>108</ele>
        <time>2018-10-09T13:19:15.094Z</time>
      </trkpt>
      <trkpt lat="48.10187" lon="1.31998">
        <ele>108</ele>
        <time>2018-10-09T13:19:16.094Z</time>
      </trkpt>
      <trkpt lat="48.10188" lon="1.31997">
        <ele>108</ele>
        <time>2018-10-09T13:19:17.094Z</time>
      </trkpt>
      <trkpt lat="48.1019" lon="1.31996">
        <ele>108</ele>
        <time>2018-10-09T13:19:18.094Z</time>
      </trkpt>
      <trkpt lat="48.10191" lon="1.31995">
        <ele>108</ele>
        <time>2018-10-09T13:19:19.094Z</time>
      </trkpt>
      <trkpt lat="48.10192" lon="1.31994">
        <ele>108</ele>
        <time>2018-10-09T13:19:20.094Z</time>
      </trkpt>
      <trkpt lat="48.10193" lon="1.31993">
        <ele>108</ele>
        <time>2018-10-09T13:19:21.094Z</time>
      </trkpt>
      <trkpt lat="48.10194" lon="1.31992">
        <ele>107</ele>
        <time>2018-10-09T13:19:22.094Z</time>
      </trkpt>
      <trkpt lat="48.10195" lon="1.31992">
        <ele>108</ele>
        <time>2018-10-09T13:19:23.094Z</time>
      </trkpt>
      <trkpt lat="48.10196" lon="1.31991">
        <ele>108</ele>
        <time>2018-10-09T13:19:24.094Z</time>
      </trkpt>
      <trkpt lat="48.10197" lon="1.3199">
        <ele>108</ele>
        <time>2018-10-09T13:19:25.094Z</time>
      </trkpt>
      <trkpt lat="48.10198" lon="1.31989">
        <ele>108</ele>
        <time>2018-10-09T13:19:26.094Z</time>
      </trkpt>
      <trkpt lat="48.102" lon="1.31988">
        <ele>107</ele>
        <time>2018-10-09T13:19:27.094Z</time>
      </trkpt>
      <trkpt lat="48.10201" lon="1.31987">
        <ele>107</ele>
        <time>2018-10-09T13:19:28.094Z</time>
      </trkpt>
      <trkpt lat="48.10202" lon="1.31986">
        <ele>107</ele>
        <time>2018-10-09T13:19:29.094Z</time>
      </trkpt>
      <trkpt lat="48.10203" lon="1.31985">
        <ele>107</ele>
        <time>2018-10-09T13:19:30.094Z</time>
      </trkpt>
      <trkpt lat="48.10204" lon="1.31985">
        <ele>107</ele>
        <time>2018-10-09T13:19:31.094Z</time>
      </trkpt>
      <trkpt lat="48.10205" lon="1.31984">
        <ele>107</ele>
        <time>2018-10-09T13:19:32.094Z</time>
      </trkpt>
      <trkpt lat="48.10206" lon="1.31983">
        <ele>107</ele>
        <time>2018-10-09T13:19:33.094Z</time>
      </trkpt>
      <trkpt lat="48.10208" lon="1.31982">
        <ele>107</ele>
        <time>2018-10-09T13:19:34.094Z</time>
      </trkpt>
      <trkpt lat="48.10209" lon="1.31981">
        <ele>107</ele>
        <time>2018-10-09T13:19:35.094Z</time>
      </trkpt>
      <trkpt lat="48.1021" lon="1.3198">
        <ele>107</ele>
        <time>2018-10-09T13:19:36.094Z</time>
      </trkpt>
      <trkpt lat="48.10211" lon="1.31979">
        <ele>107</ele>
        <time>2018-10-09T13:19:37.094Z</time>
      </trkpt>
      <trkpt lat="48.10212" lon="1.31978">
        <ele>107</ele>
        <time>2018-10-09T13:19:38.094Z</time>
      </trkpt>
      <trkpt lat="48.10213" lon="1.31977">
        <ele>106</ele>
        <time>2018-10-09T13:19:39.094Z</time>
      </trkpt>
      <trkpt lat="48.10214" lon="1.31976">
        <ele>106</ele>
        <time>2018-10-09T13:19:40.094Z</time>
      </trkpt>
      <trkpt lat="48.10215" lon="1.31975">
        <ele>106</ele>
        <time>2018-10-09T13:19:41.094Z</time>
      </trkpt>
      <trkpt lat="48.10217" lon="1.31974">
        <ele>106</ele>
        <time>2018-10-09T13:19:42.094Z</time>
      </trkpt>
      <trkpt lat="48.10218" lon="1.31974">
        <ele>106</ele>
        <time>2018-10-09T13:19:43.094Z</time>
      </trkpt>
      <trkpt lat="48.10219" lon="1.31973">
        <ele>106</ele>
        <time>2018-10-09T13:19:44.094Z</time>
      </trkpt>
      <trkpt lat="48.1022" lon="1.31972">
        <ele>106</ele>
        <time>2018-10-09T13:19:45.094Z</time>
      </trkpt>
      <trkpt lat="48.10221" lon="1.31971">
        <ele>106</ele>
        <time>2018-10-09T13:19:46.094Z</time>
      </trkpt>
      <trkpt lat="48.10223" lon="1.3197">
        <ele>106</ele>
        <time>2018-10-09T13:19:47.094Z</time>
      </trkpt>
      <trkpt lat="48.10224" lon="1.31969">
        <ele>106</ele>
        <time>2018-10-09T13:19:48.094Z</time>
      </trkpt>
      <trkpt lat="48.10225" lon="1.31968">
        <ele>106</ele>
        <time>2018-10-09T13:19:49.094Z</time>
      </trkpt>
      <trkpt lat="48.10226" lon="1.31967">
        <ele>106</ele>
        <time>2018-10-09T13:19:50.094Z</time>
      </trkpt>
      <trkpt lat="48.10227" lon="1.31966">
        <ele>106</ele>
        <time>2018-10-09T13:19:51.094Z</time>
      </trkpt>
      <trkpt lat="48.10228" lon="1.31965">
        <ele>106</ele>
        <time>2018-10-09T13:19:52.094Z</time>
      </trkpt>
      <trkpt lat="48.10229" lon="1.31964">
        <ele>106</ele>
        <time>2018-10-09T13:19:53.094Z</time>
      </trkpt>
      <trkpt lat="48.1023" lon="1.31963">
        <ele>106</ele>
        <time>2018-10-09T13:19:54.094Z</time>
      </trkpt>
      <trkpt lat="48.10231" lon="1.31962">
        <ele>106</ele>
        <time>2018-10-09T13:19:55.094Z</time>
      </trkpt>
      <trkpt lat="48.10232" lon="1.31962">
        <ele>106</ele>
        <time>2018-10-09T13:19:56.094Z</time>
      </trkpt>
      <trkpt lat="48.10234" lon="1.31961">
        <ele>106</ele>
        <time>2018-10-09T13:19:57.094Z</time>
      </trkpt>
      <trkpt lat="48.10235" lon="1.3196">
        <ele>106</ele>
        <time>2018-10-09T13:19:58.094Z</time>
      </trkpt>
      <trkpt lat="48.10236" lon="1.31959">
        <ele>105</ele>
        <time>2018-10-09T13:19:59.094Z</time>
      </trkpt>
      <trkpt lat="48.10237" lon="1.31958">
        <ele>105</ele>
        <time>2018-10-09T13:20:00.094Z</time>
      </trkpt>
      <trkpt lat="48.10238" lon="1.31958">
        <ele>106</ele>
        <time>2018-10-09T13:20:01.094Z</time>
      </trkpt>
      <trkpt lat="48.10239" lon="1.31957">
        <ele>106</ele>
        <time>2018-10-09T13:20:02.094Z</time>
      </trkpt>
      <trkpt lat="48.1024" lon="1.31956">
        <ele>106</ele>
        <time>2018-10-09T13:20:03.094Z</time>
      </trkpt>
      <trkpt lat="48.10242" lon="1.31955">
        <ele>106</ele>
        <time>2018-10-09T13:20:04.094Z</time>
      </trkpt>
      <trkpt lat="48.10243" lon="1.31954">
        <ele>105</ele>
        <time>2018-10-09T13:20:05.094Z</time>
      </trkpt>
      <trkpt lat="48.10244" lon="1.31953">
        <ele>105</ele>
        <time>2018-10-09T13:20:06.094Z</time>
      </trkpt>
      <trkpt lat="48.10245" lon="1.31953">
        <ele>106</ele>
        <time>2018-10-09T13:20:07.094Z</time>
      </trkpt>
      <trkpt lat="48.10246" lon="1.31952">
        <ele>106</ele>
        <time>2018-10-09T13:20:08.094Z</time>
      </trkpt>
      <trkpt lat="48.10247" lon="1.31951">
        <ele>106</ele>
        <time>2018-10-09T13:20:09.094Z</time>
      </trkpt>
      <trkpt lat="48.10248" lon="1.3195">
        <ele>106</ele>
        <time>2018-10-09T13:20:10.094Z</time>
      </trkpt>
      <trkpt lat="48.1025" lon="1.31949">
        <ele>106</ele>
        <time>2018-10-09T13:20:11.094Z</time>
      </trkpt>
      <trkpt lat="48.10251" lon="1.31949">
        <ele>106</ele>
        <time>2018-10-09T13:20:12.094Z</time>
      </trkpt>
      <trkpt lat="48.10252" lon="1.31948">
        <ele>106</ele>
        <time>2018-10-09T13:20:13.094Z</time>
      </trkpt>
      <trkpt lat="48.10253" lon="1.31947">
        <ele>106</ele>
        <time>2018-10-09T13:20:14.094Z</time>
      </trkpt>
      <trkpt lat="48.10255" lon="1.31946">
        <ele>106</ele>
        <time>2018-10-09T13:20:15.094Z</time>
      </trkpt>
      <trkpt lat="48.10256" lon="1.31945">
        <ele>106</ele>
        <time>2018-10-09T13:20:16.094Z</time>
      </trkpt>
      <trkpt lat="48.10257" lon="1.31945">
        <ele>106</ele>
        <time>2018-10-09T13:20:17.094Z</time>
      </trkpt>
      <trkpt lat="48.10258" lon="1.31944">
        <ele>106</ele>
        <time>2018-10-09T13:20:18.094Z</time>
      </trkpt>
      <trkpt lat="48.10259" lon="1.31943">
        <ele>106</ele>
        <time>2018-10-09T13:20:19.094Z</time>
      </trkpt>
      <trkpt lat="48.1026" lon="1.31942">
        <ele>106</ele>
        <time>2018-10-09T13:20:20.094Z</time>
      </trkpt>
      <trkpt lat="48.10262" lon="1.31942">
        <ele>106</ele>
        <time>2018-10-09T13:20:21.094Z</time>
      </trkpt>
      <trkpt lat="48.10263" lon="1.31941">
        <ele>106</ele>
        <time>2018-10-09T13:20:22.094Z</time>
      </trkpt>
      <trkpt lat="48.10264" lon="1.31941">
        <ele>106</ele>
        <time>2018-10-09T13:20:23.094Z</time>
      </trkpt>
      <trkpt lat="48.10265" lon="1.3194">
        <ele>106</ele>
        <time>2018-10-09T13:20:24.094Z</time>
      </trkpt>
      <trkpt lat="48.10267" lon="1.3194">
        <ele>106</ele>
        <time>2018-10-09T13:20:25.094Z</time>
      </trkpt>
      <trkpt lat="48.10268" lon="1.3194">
        <ele>105</ele>
        <time>2018-10-09T13:20:26.094Z</time>
      </trkpt>
      <trkpt lat="48.10269" lon="1.31939">
        <ele>105</ele>
        <time>2018-10-09T13:20:27.094Z</time>
      </trkpt>
      <trkpt lat="48.10271" lon="1.31939">
        <ele>106</ele>
        <time>2018-10-09T13:20:28.094Z</time>
      </trkpt>
      <trkpt lat="48.10272" lon="1.31939">
        <ele>106</ele>
        <time>2018-10-09T13:20:29.094Z</time>
      </trkpt>
      <trkpt lat="48.10273" lon="1.31938">
        <ele>106</ele>
        <time>2018-10-09T13:20:30.094Z</time>
      </trkpt>
      <trkpt lat="48.10274" lon="1.31938">
        <ele>106</ele>
        <time>2018-10-09T13:20:31.094Z</time>
      </trkpt>
      <trkpt lat="48.10275" lon="1.31938">
        <ele>106</ele>
        <time>2018-10-09T13:20:32.094Z</time>
      </trkpt>
      <trkpt lat="48.10276" lon="1.31937">
        <ele>106</ele>
        <time>2018-10-09T13:20:33.094Z</time>
      </trkpt>
      <trkpt lat="48.10278" lon="1.31937">
        <ele>106</ele>
        <time>2018-10-09T13:20:34.094Z</time>
      </trkpt>
      <trkpt lat="48.10279" lon="1.31937">
        <ele>106</ele>
        <time>2018-10-09T13:20:35.094Z</time>
      </trkpt>
      <trkpt lat="48.1028" lon="1.31938">
        <ele>106</ele>
        <time>2018-10-09T13:20:36.094Z</time>
      </trkpt>
      <trkpt lat="48.10282" lon="1.31938">
        <ele>106</ele>
        <time>2018-10-09T13:20:37.094Z</time>
      </trkpt>
      <trkpt lat="48.10283" lon="1.31938">
        <ele>106</ele>
        <time>2018-10-09T13:20:38.094Z</time>
      </trkpt>
      <trkpt lat="48.10284" lon="1.31938">
        <ele>106</ele>
        <time>2018-10-09T13:20:39.094Z</time>
      </trkpt>
      <trkpt lat="48.10286" lon="1.31938">
        <ele>107</ele>
        <time>2018-10-09T13:20:40.094Z</time>
      </trkpt>
      <trkpt lat="48.10287" lon="1.31938">
        <ele>106</ele>
        <time>2018-10-09T13:20:41.094Z</time>
      </trkpt>
      <trkpt lat="48.10288" lon="1.31938">
        <ele>107</ele>
        <time>2018-10-09T13:20:42.094Z</time>
      </trkpt>
      <trkpt lat="48.1029" lon="1.31938">
        <ele>107</ele>
        <time>2018-10-09T13:20:43.094Z</time>
      </trkpt>
      <trkpt lat="48.10291" lon="1.31938">
        <ele>107</ele>
        <time>2018-10-09T13:20:44.094Z</time>
      </trkpt>
      <trkpt lat="48.10292" lon="1.31938">
        <ele>107</ele>
        <time>2018-10-09T13:20:45.094Z</time>
      </trkpt>
      <trkpt lat="48.10294" lon="1.31939">
        <ele>107</ele>
        <time>2018-10-09T13:20:46.094Z</time>
      </trkpt>
      <trkpt lat="48.10295" lon="1.31939">
        <ele>107</ele>
        <time>2018-10-09T13:20:47.094Z</time>
      </trkpt>
      <trkpt lat="48.10296" lon="1.3194">
        <ele>107</ele>
        <time>2018-10-09T13:20:48.094Z</time>
      </trkpt>
      <trkpt lat="48.10297" lon="1.3194">
        <ele>107</ele>
        <time>2018-10-09T13:20:49.094Z</time>
      </trkpt>
      <trkpt lat="48.10299" lon="1.3194">
        <ele>107</ele>
        <time>2018-10-09T13:20:50.094Z</time>
      </trkpt>
      <trkpt lat="48.103" lon="1.31941">
        <ele>107</ele>
        <time>2018-10-09T13:20:51.094Z</time>
      </trkpt>
      <trkpt lat="48.10301" lon="1.31941">
        <ele>107</ele>
        <time>2018-10-09T13:20:52.094Z</time>
      </trkpt>
      <trkpt lat="48.10303" lon="1.31941">
        <ele>107</ele>
        <time>2018-10-09T13:20:53.094Z</time>
      </trkpt>
      <trkpt lat="48.10304" lon="1.31941">
        <ele>107</ele>
        <time>2018-10-09T13:20:54.094Z</time>
      </trkpt>
      <trkpt lat="48.10305" lon="1.31941">
        <ele>107</ele>
        <time>2018-10-09T13:20:55.094Z</time>
      </trkpt>
      <trkpt lat="48.10306" lon="1.31941">
        <ele>107</ele>
        <time>2018-10-09T13:20:56.094Z</time>
      </trkpt>
      <trkpt lat="48.10308" lon="1.31941">
        <ele>107</ele>
        <time>2018-10-09T13:20:57.094Z</time>
      </trkpt>
      <trkpt lat="48.10309" lon="1.31941">
        <ele>107</ele>
        <time>2018-10-09T13:20:58.094Z</time>
      </trkpt>
      <trkpt lat="48.1031" lon="1.31941">
        <ele>107</ele>
        <time>2018-10-09T13:20:59.094Z</time>
      </trkpt>
      <trkpt lat="48.10311" lon="1.31941">
        <ele>107</ele>
        <time>2018-10-09T13:21:00.094Z</time>
      </trkpt>
      <trkpt lat="48.10313" lon="1.3194">
        <ele>107</ele>
        <time>2018-10-09T13:21:01.094Z</time>
      </trkpt>
      <trkpt lat="48.10314" lon="1.3194">
        <ele>107</ele>
        <time>2018-10-09T13:21:02.094Z</time>
      </trkpt>
      <trkpt lat="48.10315" lon="1.3194">
        <ele>107</ele>
        <time>2018-10-09T13:21:03.094Z</time>
      </trkpt>
      <trkpt lat="48.10317" lon="1.3194">
        <ele>107</ele>
        <time>2018-10-09T13:21:04.094Z</time>
      </trkpt>
      <trkpt lat="48.10318" lon="1.3194">
        <ele>107</ele>
        <time>2018-10-09T13:21:05.094Z</time>
      </trkpt>
      <trkpt lat="48.10319" lon="1.31939">
        <ele>107</ele>
        <time>2018-10-09T13:21:06.094Z</time>
      </trkpt>
      <trkpt lat="48.1032" lon="1.31939">
        <ele>107</ele>
        <time>2018-10-09T13:21:07.094Z</time>
      </trkpt>
      <trkpt lat="48.10321" lon="1.31939">
        <ele>107</ele>
        <time>2018-10-09T13:21:08.094Z</time>
      </trkpt>
      <trkpt lat="48.10323" lon="1.31939">
        <ele>108</ele>
        <time>2018-10-09T13:21:09.094Z</time>
      </trkpt>
      <trkpt lat="48.10324" lon="1.31939">
        <ele>108</ele>
        <time>2018-10-09T13:21:10.094Z</time>
      </trkpt>
      <trkpt lat="48.10325" lon="1.31939">
        <ele>108</ele>
        <time>2018-10-09T13:21:11.094Z</time>
      </trkpt>
      <trkpt lat="48.10326" lon="1.31939">
        <ele>108</ele>
        <time>2018-10-09T13:21:12.094Z</time>
      </trkpt>
      <trkpt lat="48.10327" lon="1.31939">
        <ele>108</ele>
        <time>2018-10-09T13:21:13.094Z</time>
      </trkpt>
      <trkpt lat="48.10328" lon="1.3194">
        <ele>108</ele>
        <time>2018-10-09T13:21:14.094Z</time>
      </trkpt>
      <trkpt lat="48.10329" lon="1.31941">
        <ele>108</ele>
        <time>2018-10-09T13:21:15.094Z</time>
      </trkpt>
      <trkpt lat="48.1033" lon="1.31941">
        <ele>108</ele>
        <time>2018-10-09T13:21:16.094Z</time>
      </trkpt>
      <trkpt lat="48.10332" lon="1.31942">
        <ele>108</ele>
        <time>2018-10-09T13:21:17.094Z</time>
      </trkpt>
      <trkpt lat="48.10333" lon="1.31943">
        <ele>108</ele>
        <time>2018-10-09T13:21:18.094Z</time>
      </trkpt>
      <trkpt lat="48.10334" lon="1.31943">
        <ele>108</ele>
        <time>2018-10-09T13:21:19.094Z</time>
      </trkpt>
      <trkpt lat="48.10335" lon="1.31944">
        <ele>108</ele>
        <time>2018-10-09T13:21:20.094Z</time>
      </trkpt>
      <trkpt lat="48.10336" lon="1.31945">
        <ele>108</ele>
        <time>2018-10-09T13:21:21.094Z</time>
      </trkpt>
      <trkpt lat="48.10338" lon="1.31945">
        <ele>108</ele>
        <time>2018-10-09T13:21:22.094Z</time>
      </trkpt>
      <trkpt lat="48.10339" lon="1.31946">
        <ele>108</ele>
        <time>2018-10-09T13:21:23.094Z</time>
      </trkpt>
      <trkpt lat="48.1034" lon="1.31946">
        <ele>108</ele>
        <time>2018-10-09T13:21:24.094Z</time>
      </trkpt>
      <trkpt lat="48.10341" lon="1.31946">
        <ele>108</ele>
        <time>2018-10-09T13:21:25.094Z</time>
      </trkpt>
      <trkpt lat="48.10343" lon="1.31946">
        <ele>108</ele>
        <time>2018-10-09T13:21:26.094Z</time>
      </trkpt>
      <trkpt lat="48.10344" lon="1.31946">
        <ele>108</ele>
        <time>2018-10-09T13:21:27.094Z</time>
      </trkpt>
      <trkpt lat="48.10345" lon="1.31946">
        <ele>108</ele>
        <time>2018-10-09T13:21:28.094Z</time>
      </trkpt>
      <trkpt lat="48.10346" lon="1.31946">
        <ele>108</ele>
        <time>2018-10-09T13:21:29.094Z</time>
      </trkpt>
      <trkpt lat="48.10348" lon="1.31946">
        <ele>108</ele>
        <time>2018-10-09T13:21:30.094Z</time>
      </trkpt>
      <trkpt lat="48.10349" lon="1.31947">
        <ele>109</ele>
        <time>2018-10-09T13:21:31.094Z</time>
      </trkpt>
      <trkpt lat="48.1035" lon="1.31947">
        <ele>109</ele>
        <time>2018-10-09T13:21:32.094Z</time>
      </trkpt>
      <trkpt lat="48.10352" lon="1.31947">
        <ele>109</ele>
        <time>2018-10-09T13:21:33.094Z</time>
      </trkpt>
      <trkpt lat="48.10353" lon="1.31947">
        <ele>109</ele>
        <time>2018-10-09T13:21:34.094Z</time>
      </trkpt>
      <trkpt lat="48.10354" lon="1.31947">
        <ele>109</ele>
        <time>2018-10-09T13:21:35.094Z</time>
      </trkpt>
      <trkpt lat="48.10356" lon="1.31947">
        <ele>109</ele>
        <time>2018-10-09T13:21:36.094Z</time>
      </trkpt>
      <trkpt lat="48.10357" lon="1.31946">
        <ele>109</ele>
        <time>2018-10-09T13:21:37.094Z</time>
      </trkpt>
      <trkpt lat="48.10358" lon="1.31946">
        <ele>109</ele>
        <time>2018-10-09T13:21:38.094Z</time>
      </trkpt>
      <trkpt lat="48.1036" lon="1.31946">
        <ele>109</ele>
        <time>2018-10-09T13:21:39.094Z</time>
      </trkpt>
      <trkpt lat="48.10361" lon="1.31946">
        <ele>109</ele>
        <time>2018-10-09T13:21:40.094Z</time>
      </trkpt>
      <trkpt lat="48.10362" lon="1.31946">
        <ele>109</ele>
        <time>2018-10-09T13:21:41.094Z</time>
      </trkpt>
      <trkpt lat="48.10363" lon="1.31946">
        <ele>109</ele>
        <time>2018-10-09T13:21:42.094Z</time>
      </trkpt>
      <trkpt lat="48.10365" lon="1.31946">
        <ele>108</ele>
        <time>2018-10-09T13:21:43.094Z</time>
      </trkpt>
      <trkpt lat="48.10366" lon="1.31946">
        <ele>108</ele>
        <time>2018-10-09T13:21:44.094Z</time>
      </trkpt>
      <trkpt lat="48.10367" lon="1.31945">
        <ele>108</ele>
        <time>2018-10-09T13:21:45.094Z</time>
      </trkpt>
      <trkpt lat="48.10369" lon="1.31945">
        <ele>108</ele>
        <time>2018-10-09T13:21:46.094Z</time>
      </trkpt>
      <trkpt lat="48.1037" lon="1.31945">
        <ele>108</ele>
        <time>2018-10-09T13:21:47.094Z</time>
      </trkpt>
      <trkpt lat="48.10371" lon="1.31945">
        <ele>108</ele>
        <time>2018-10-09T13:21:48.094Z</time>
      </trkpt>
      <trkpt lat="48.10372" lon="1.31944">
        <ele>108</ele>
        <time>2018-10-09T13:21:49.094Z</time>
      </trkpt>
      <trkpt lat="48.10374" lon="1.31944">
        <ele>108</ele>
        <time>2018-10-09T13:21:50.094Z</time>
      </trkpt>
      <trkpt lat="48.10375" lon="1.31944">
        <ele>108</ele>
        <time>2018-10-09T13:21:51.094Z</time>
      </trkpt>
      <trkpt lat="48.10376" lon="1.31944">
        <ele>108</ele>
        <time>2018-10-09T13:21:52.094Z</time>
      </trkpt>
      <trkpt lat="48.10378" lon="1.31943">
        <ele>109</ele>
        <time>2018-10-09T13:21:53.094Z</time>
      </trkpt>
      <trkpt lat="48.10379" lon="1.31943">
        <ele>108</ele>
        <time>2018-10-09T13:21:54.094Z</time>
      </trkpt>
      <trkpt lat="48.10381" lon="1.31943">
        <ele>108</ele>
        <time>2018-10-09T13:21:55.094Z</time>
      </trkpt>
      <trkpt lat="48.10382" lon="1.31943">
        <ele>108</ele>
        <time>2018-10-09T13:21:56.094Z</time>
      </trkpt>
      <trkpt lat="48.10383" lon="1.31943">
        <ele>108</ele>
        <time>2018-10-09T13:21:57.094Z</time>
      </trkpt>
      <trkpt lat="48.10384" lon="1.31943">
        <ele>108</ele>
        <time>2018-10-09T13:21:58.094Z</time>
      </trkpt>
      <trkpt lat="48.10386" lon="1.31942">
        <ele>108</ele>
        <time>2018-10-09T13:21:59.094Z</time>
      </trkpt>
      <trkpt lat="48.10387" lon="1.31942">
        <ele>108</ele>
        <time>2018-10-09T13:22:00.094Z</time>
      </trkpt>
      <trkpt lat="48.10388" lon="1.31942">
        <ele>108</ele>
        <time>2018-10-09T13:22:01.094Z</time>
      </trkpt>
      <trkpt lat="48.1039" lon="1.31942">
        <ele>108</ele>
        <time>2018-10-09T13:22:02.094Z</time>
      </trkpt>
      <trkpt lat="48.10391" lon="1.31941">
        <ele>108</ele>
        <time>2018-10-09T13:22:03.094Z</time>
      </trkpt>
      <trkpt lat="48.10392" lon="1.31941">
        <ele>108</ele>
        <time>2018-10-09T13:22:04.094Z</time>
      </trkpt>
      <trkpt lat="48.10393" lon="1.3194">
        <ele>108</ele>
        <time>2018-10-09T13:22:05.094Z</time>
      </trkpt>
      <trkpt lat="48.10395" lon="1.3194">
        <ele>108</ele>
        <time>2018-10-09T13:22:06.094Z</time>
      </trkpt>
      <trkpt lat="48.10396" lon="1.3194">
        <ele>108</ele>
        <time>2018-10-09T13:22:07.094Z</time>
      </trkpt>
      <trkpt lat="48.10397" lon="1.3194">
        <ele>108</ele>
        <time>2018-10-09T13:22:08.094Z</time>
      </trkpt>
      <trkpt lat="48.10398" lon="1.3194">
        <ele>108</ele>
        <time>2018-10-09T13:22:09.094Z</time>
      </trkpt>
      <trkpt lat="48.10399" lon="1.31939">
        <ele>108</ele>
        <time>2018-10-09T13:22:10.094Z</time>
      </trkpt>
      <trkpt lat="48.104" lon="1.31939">
        <ele>108</ele>
        <time>2018-10-09T13:22:11.094Z</time>
      </trkpt>
      <trkpt lat="48.10402" lon="1.31939">
        <ele>108</ele>
        <time>2018-10-09T13:22:12.094Z</time>
      </trkpt>
      <trkpt lat="48.10403" lon="1.31939">
        <ele>108</ele>
        <time>2018-10-09T13:22:13.094Z</time>
      </trkpt>
      <trkpt lat="48.10404" lon="1.31938">
        <ele>108</ele>
        <time>2018-10-09T13:22:14.094Z</time>
      </trkpt>
      <trkpt lat="48.10405" lon="1.31938">
        <ele>108</ele>
        <time>2018-10-09T13:22:15.094Z</time>
      </trkpt>
      <trkpt lat="48.10407" lon="1.31938">
        <ele>108</ele>
        <time>2018-10-09T13:22:16.094Z</time>
      </trkpt>
      <trkpt lat="48.10408" lon="1.31937">
        <ele>108</ele>
        <time>2018-10-09T13:22:17.094Z</time>
      </trkpt>
      <trkpt lat="48.10409" lon="1.31937">
        <ele>108</ele>
        <time>2018-10-09T13:22:18.094Z</time>
      </trkpt>
      <trkpt lat="48.10411" lon="1.31937">
        <ele>108</ele>
        <time>2018-10-09T13:22:19.094Z</time>
      </trkpt>
      <trkpt lat="48.10412" lon="1.31936">
        <ele>108</ele>
        <time>2018-10-09T13:22:20.094Z</time>
      </trkpt>
      <trkpt lat="48.10413" lon="1.31936">
        <ele>108</ele>
        <time>2018-10-09T13:22:21.094Z</time>
      </trkpt>
      <trkpt lat="48.10415" lon="1.31936">
        <ele>108</ele>
        <time>2018-10-09T13:22:22.094Z</time>
      </trkpt>
      <trkpt lat="48.10416" lon="1.31936">
        <ele>109</ele>
        <time>2018-10-09T13:22:23.094Z</time>
      </trkpt>
      <trkpt lat="48.10417" lon="1.31935">
        <ele>109</ele>
        <time>2018-10-09T13:22:24.094Z</time>
      </trkpt>
      <trkpt lat="48.10419" lon="1.31935">
        <ele>109</ele>
        <time>2018-10-09T13:22:25.094Z</time>
      </trkpt>
      <trkpt lat="48.1042" lon="1.31934">
        <ele>108</ele>
        <time>2018-10-09T13:22:26.094Z</time>
      </trkpt>
      <trkpt lat="48.10421" lon="1.31934">
        <ele>108</ele>
        <time>2018-10-09T13:22:27.094Z</time>
      </trkpt>
      <trkpt lat="48.10423" lon="1.31934">
        <ele>108</ele>
        <time>2018-10-09T13:22:28.094Z</time>
      </trkpt>
      <trkpt lat="48.10424" lon="1.31934">
        <ele>108</ele>
        <time>2018-10-09T13:22:29.094Z</time>
      </trkpt>
      <trkpt lat="48.10425" lon="1.31933">
        <ele>108</ele>
        <time>2018-10-09T13:22:30.094Z</time>
      </trkpt>
      <trkpt lat="48.10427" lon="1.31933">
        <ele>108</ele>
        <time>2018-10-09T13:22:31.094Z</time>
      </trkpt>
      <trkpt lat="48.10428" lon="1.31933">
        <ele>108</ele>
        <time>2018-10-09T13:22:32.094Z</time>
      </trkpt>
      <trkpt lat="48.10429" lon="1.31933">
        <ele>108</ele>
        <time>2018-10-09T13:22:33.094Z</time>
      </trkpt>
      <trkpt lat="48.10431" lon="1.31933">
        <ele>108</ele>
        <time>2018-10-09T13:22:34.094Z</time>
      </trkpt>
      <trkpt lat="48.10432" lon="1.31932">
        <ele>108</ele>
        <time>2018-10-09T13:22:35.094Z</time>
      </trkpt>
      <trkpt lat="48.10433" lon="1.31932">
        <ele>108</ele>
        <time>2018-10-09T13:22:36.094Z</time>
      </trkpt>
      <trkpt lat="48.10435" lon="1.31932">
        <ele>108</ele>
        <time>2018-10-09T13:22:37.094Z</time>
      </trkpt>
      <trkpt lat="48.10436" lon="1.31931">
        <ele>108</ele>
        <time>2018-10-09T13:22:38.094Z</time>
      </trkpt>
      <trkpt lat="48.10437" lon="1.31931">
        <ele>108</ele>
        <time>2018-10-09T13:22:39.094Z</time>
      </trkpt>
      <trkpt lat="48.10439" lon="1.3193">
        <ele>108</ele>
        <time>2018-10-09T13:22:40.094Z</time>
      </trkpt>
      <trkpt lat="48.1044" lon="1.3193">
        <ele>109</ele>
        <time>2018-10-09T13:22:41.094Z</time>
      </trkpt>
      <trkpt lat="48.10441" lon="1.3193">
        <ele>109</ele>
        <time>2018-10-09T13:22:42.094Z</time>
      </trkpt>
      <trkpt lat="48.10443" lon="1.31929">
        <ele>109</ele>
        <time>2018-10-09T13:22:43.094Z</time>
      </trkpt>
      <trkpt lat="48.10444" lon="1.31929">
        <ele>109</ele>
        <time>2018-10-09T13:22:44.094Z</time>
      </trkpt>
      <trkpt lat="48.10445" lon="1.31929">
        <ele>109</ele>
        <time>2018-10-09T13:22:45.094Z</time>
      </trkpt>
      <trkpt lat="48.10447" lon="1.31929">
        <ele>109</ele>
        <time>2018-10-09T13:22:46.094Z</time>
      </trkpt>
      <trkpt lat="48.10448" lon="1.31928">
        <ele>109</ele>
        <time>2018-10-09T13:22:47.094Z</time>
      </trkpt>
      <trkpt lat="48.1045" lon="1.31928">
        <ele>109</ele>
        <time>2018-10-09T13:22:48.094Z</time>
      </trkpt>
      <trkpt lat="48.10451" lon="1.31928">
        <ele>109</ele>
        <time>2018-10-09T13:22:49.094Z</time>
      </trkpt>
      <trkpt lat="48.10453" lon="1.31928">
        <ele>110</ele>
        <time>2018-10-09T13:22:50.094Z</time>
      </trkpt>
      <trkpt lat="48.10454" lon="1.31928">
        <ele>110</ele>
        <time>2018-10-09T13:22:51.094Z</time>
      </trkpt>
      <trkpt lat="48.10455" lon="1.31928">
        <ele>110</ele>
        <time>2018-10-09T13:22:52.094Z</time>
      </trkpt>
      <trkpt lat="48.10457" lon="1.31928">
        <ele>110</ele>
        <time>2018-10-09T13:22:53.094Z</time>
      </trkpt>
      <trkpt lat="48.10458" lon="1.31928">
        <ele>110</ele>
        <time>2018-10-09T13:22:54.094Z</time>
      </trkpt>
      <trkpt lat="48.10459" lon="1.31928">
        <ele>110</ele>
        <time>2018-10-09T13:22:55.094Z</time>
      </trkpt>
      <trkpt lat="48.10461" lon="1.31928">
        <ele>110</ele>
        <time>2018-10-09T13:22:56.094Z</time>
      </trkpt>
      <trkpt lat="48.10462" lon="1.31928">
        <ele>110</ele>
        <time>2018-10-09T13:22:57.094Z</time>
      </trkpt>
      <trkpt lat="48.10464" lon="1.31928">
        <ele>111</ele>
        <time>2018-10-09T13:22:58.094Z</time>
      </trkpt>
      <trkpt lat="48.10465" lon="1.31928">
        <ele>111</ele>
        <time>2018-10-09T13:22:59.094Z</time>
      </trkpt>
      <trkpt lat="48.10466" lon="1.31928">
        <ele>110</ele>
        <time>2018-10-09T13:23:00.094Z</time>
      </trkpt>
      <trkpt lat="48.10467" lon="1.31928">
        <ele>110</ele>
        <time>2018-10-09T13:23:01.094Z</time>
      </trkpt>
      <trkpt lat="48.10469" lon="1.31929">
        <ele>110</ele>
        <time>2018-10-09T13:23:02.094Z</time>
      </trkpt>
      <trkpt lat="48.1047" lon="1.31929">
        <ele>110</ele>
        <time>2018-10-09T13:23:03.094Z</time>
      </trkpt>
      <trkpt lat="48.10472" lon="1.31929">
        <ele>110</ele>
        <time>2018-10-09T13:23:04.094Z</time>
      </trkpt>
      <trkpt lat="48.10473" lon="1.31929">
        <ele>110</ele>
        <time>2018-10-09T13:23:05.094Z</time>
      </trkpt>
      <trkpt lat="48.10475" lon="1.3193">
        <ele>109</ele>
        <time>2018-10-09T13:23:06.094Z</time>
      </trkpt>
      <trkpt lat="48.10476" lon="1.3193">
        <ele>110</ele>
        <time>2018-10-09T13:23:07.094Z</time>
      </trkpt>
      <trkpt lat="48.10478" lon="1.31931">
        <ele>109</ele>
        <time>2018-10-09T13:23:08.094Z</time>
      </trkpt>
      <trkpt lat="48.10479" lon="1.31931">
        <ele>109</ele>
        <time>2018-10-09T13:23:09.094Z</time>
      </trkpt>
      <trkpt lat="48.1048" lon="1.31932">
        <ele>109</ele>
        <time>2018-10-09T13:23:10.094Z</time>
      </trkpt>
      <trkpt lat="48.10482" lon="1.31932">
        <ele>109</ele>
        <time>2018-10-09T13:23:11.094Z</time>
      </trkpt>
      <trkpt lat="48.10483" lon="1.31933">
        <ele>109</ele>
        <time>2018-10-09T13:23:12.094Z</time>
      </trkpt>
      <trkpt lat="48.10484" lon="1.31934">
        <ele>109</ele>
        <time>2018-10-09T13:23:13.094Z</time>
      </trkpt>
      <trkpt lat="48.10486" lon="1.31935">
        <ele>110</ele>
        <time>2018-10-09T13:23:14.094Z</time>
      </trkpt>
      <trkpt lat="48.10487" lon="1.31936">
        <ele>110</ele>
        <time>2018-10-09T13:23:15.094Z</time>
      </trkpt>
      <trkpt lat="48.10488" lon="1.31937">
        <ele>109</ele>
        <time>2018-10-09T13:23:16.094Z</time>
      </trkpt>
      <trkpt lat="48.1049" lon="1.31938">
        <ele>110</ele>
        <time>2018-10-09T13:23:17.094Z</time>
      </trkpt>
      <trkpt lat="48.10491" lon="1.31939">
        <ele>110</ele>
        <time>2018-10-09T13:23:18.094Z</time>
      </trkpt>
      <trkpt lat="48.10492" lon="1.3194">
        <ele>110</ele>
        <time>2018-10-09T13:23:19.094Z</time>
      </trkpt>
      <trkpt lat="48.10493" lon="1.31941">
        <ele>109</ele>
        <time>2018-10-09T13:23:20.094Z</time>
      </trkpt>
      <trkpt lat="48.10494" lon="1.31943">
        <ele>109</ele>
        <time>2018-10-09T13:23:21.094Z</time>
      </trkpt>
      <trkpt lat="48.10496" lon="1.31944">
        <ele>109</ele>
        <time>2018-10-09T13:23:22.094Z</time>
      </trkpt>
      <trkpt lat="48.10497" lon="1.31945">
        <ele>109</ele>
        <time>2018-10-09T13:23:23.094Z</time>
      </trkpt>
      <trkpt lat="48.10498" lon="1.31947">
        <ele>109</ele>
        <time>2018-10-09T13:23:24.094Z</time>
      </trkpt>
      <trkpt lat="48.10499" lon="1.31948">
        <ele>109</ele>
        <time>2018-10-09T13:23:25.094Z</time>
      </trkpt>
      <trkpt lat="48.105" lon="1.31949">
        <ele>110</ele>
        <time>2018-10-09T13:23:26.094Z</time>
      </trkpt>
      <trkpt lat="48.10501" lon="1.31951">
        <ele>110</ele>
        <time>2018-10-09T13:23:27.094Z</time>
      </trkpt>
      <trkpt lat="48.10502" lon="1.31953">
        <ele>110</ele>
        <time>2018-10-09T13:23:28.094Z</time>
      </trkpt>
      <trkpt lat="48.10503" lon="1.31954">
        <ele>110</ele>
        <time>2018-10-09T13:23:29.094Z</time>
      </trkpt>
      <trkpt lat="48.10504" lon="1.31956">
        <ele>109</ele>
        <time>2018-10-09T13:23:30.094Z</time>
      </trkpt>
      <trkpt lat="48.10505" lon="1.31957">
        <ele>109</ele>
        <time>2018-10-09T13:23:31.094Z</time>
      </trkpt>
      <trkpt lat="48.10506" lon="1.31959">
        <ele>109</ele>
        <time>2018-10-09T13:23:32.094Z</time>
      </trkpt>
      <trkpt lat="48.10507" lon="1.31961">
        <ele>109</ele>
        <time>2018-10-09T13:23:33.094Z</time>
      </trkpt>
      <trkpt lat="48.10508" lon="1.31963">
        <ele>109</ele>
        <time>2018-10-09T13:23:34.094Z</time>
      </trkpt>
      <trkpt lat="48.10509" lon="1.31965">
        <ele>109</ele>
        <time>2018-10-09T13:23:35.094Z</time>
      </trkpt>
      <trkpt lat="48.1051" lon="1.31967">
        <ele>109</ele>
        <time>2018-10-09T13:23:36.094Z</time>
      </trkpt>
      <trkpt lat="48.10511" lon="1.31969">
        <ele>109</ele>
        <time>2018-10-09T13:23:37.094Z</time>
      </trkpt>
      <trkpt lat="48.10511" lon="1.31971">
        <ele>109</ele>
        <time>2018-10-09T13:23:38.094Z</time>
      </trkpt>
      <trkpt lat="48.10512" lon="1.31973">
        <ele>109</ele>
        <time>2018-10-09T13:23:39.094Z</time>
      </trkpt>
      <trkpt lat="48.10513" lon="1.31975">
        <ele>109</ele>
        <time>2018-10-09T13:23:40.094Z</time>
      </trkpt>
      <trkpt lat="48.10513" lon="1.31976">
        <ele>109</ele>
        <time>2018-10-09T13:23:41.094Z</time>
      </trkpt>
      <trkpt lat="48.10514" lon="1.31978">
        <ele>108</ele>
        <time>2018-10-09T13:23:42.094Z</time>
      </trkpt>
      <trkpt lat="48.10515" lon="1.3198">
        <ele>108</ele>
        <time>2018-10-09T13:23:43.094Z</time>
      </trkpt>
      <trkpt lat="48.10516" lon="1.31982">
        <ele>108</ele>
        <time>2018-10-09T13:23:44.094Z</time>
      </trkpt>
      <trkpt lat="48.10516" lon="1.31984">
        <ele>108</ele>
        <time>2018-10-09T13:23:45.094Z</time>
      </trkpt>
      <trkpt lat="48.10517" lon="1.31986">
        <ele>108</ele>
        <time>2018-10-09T13:23:46.094Z</time>
      </trkpt>
      <trkpt lat="48.10517" lon="1.31988">
        <ele>107</ele>
        <time>2018-10-09T13:23:47.094Z</time>
      </trkpt>
      <trkpt lat="48.10518" lon="1.3199">
        <ele>107</ele>
        <time>2018-10-09T13:23:48.094Z</time>
      </trkpt>
      <trkpt lat="48.10519" lon="1.31992">
        <ele>107</ele>
        <time>2018-10-09T13:23:49.094Z</time>
      </trkpt>
      <trkpt lat="48.10519" lon="1.31994">
        <ele>107</ele>
        <time>2018-10-09T13:23:50.094Z</time>
      </trkpt>
      <trkpt lat="48.1052" lon="1.31996">
        <ele>107</ele>
        <time>2018-10-09T13:23:51.094Z</time>
      </trkpt>
      <trkpt lat="48.1052" lon="1.31998">
        <ele>107</ele>
        <time>2018-10-09T13:23:52.094Z</time>
      </trkpt>
      <trkpt lat="48.10521" lon="1.32001">
        <ele>107</ele>
        <time>2018-10-09T13:23:53.094Z</time>
      </trkpt>
      <trkpt lat="48.10522" lon="1.32003">
        <ele>106</ele>
        <time>2018-10-09T13:23:54.094Z</time>
      </trkpt>
      <trkpt lat="48.10522" lon="1.32005">
        <ele>107</ele>
        <time>2018-10-09T13:23:55.094Z</time>
      </trkpt>
      <trkpt lat="48.10523" lon="1.32007">
        <ele>107</ele>
        <time>2018-10-09T13:23:56.094Z</time>
      </trkpt>
      <trkpt lat="48.10523" lon="1.32009">
        <ele>106</ele>
        <time>2018-10-09T13:23:57.094Z</time>
      </trkpt>
      <trkpt lat="48.10524" lon="1.32011">
        <ele>106</ele>
        <time>2018-10-09T13:23:58.094Z</time>
      </trkpt>
      <trkpt lat="48.10525" lon="1.32013">
        <ele>106</ele>
        <time>2018-10-09T13:23:59.094Z</time>
      </trkpt>
      <trkpt lat="48.10525" lon="1.32015">
        <ele>106</ele>
        <time>2018-10-09T13:24:00.094Z</time>
      </trkpt>
      <trkpt lat="48.10526" lon="1.32017">
        <ele>106</ele>
        <time>2018-10-09T13:24:01.094Z</time>
      </trkpt>
      <trkpt lat="48.10526" lon="1.32019">
        <ele>106</ele>
        <time>2018-10-09T13:24:02.094Z</time>
      </trkpt>
      <trkpt lat="48.10527" lon="1.32021">
        <ele>106</ele>
        <time>2018-10-09T13:24:03.094Z</time>
      </trkpt>
      <trkpt lat="48.10528" lon="1.32023">
        <ele>106</ele>
        <time>2018-10-09T13:24:04.094Z</time>
      </trkpt>
      <trkpt lat="48.10528" lon="1.32026">
        <ele>106</ele>
        <time>2018-10-09T13:24:05.094Z</time>
      </trkpt>
      <trkpt lat="48.10529" lon="1.32028">
        <ele>106</ele>
        <time>2018-10-09T13:24:06.094Z</time>
      </trkpt>
      <trkpt lat="48.10529" lon="1.3203">
        <ele>106</ele>
        <time>2018-10-09T13:24:07.094Z</time>
      </trkpt>
      <trkpt lat="48.10529" lon="1.32032">
        <ele>106</ele>
        <time>2018-10-09T13:24:08.094Z</time>
      </trkpt>
      <trkpt lat="48.1053" lon="1.32034">
        <ele>106</ele>
        <time>2018-10-09T13:24:09.094Z</time>
      </trkpt>
      <trkpt lat="48.1053" lon="1.32036">
        <ele>106</ele>
        <time>2018-10-09T13:24:10.094Z</time>
      </trkpt>
      <trkpt lat="48.10531" lon="1.32038">
        <ele>106</ele>
        <time>2018-10-09T13:24:11.094Z</time>
      </trkpt>
      <trkpt lat="48.10531" lon="1.3204">
        <ele>106</ele>
        <time>2018-10-09T13:24:12.094Z</time>
      </trkpt>
      <trkpt lat="48.10532" lon="1.32042">
        <ele>106</ele>
        <time>2018-10-09T13:24:13.094Z</time>
      </trkpt>
      <trkpt lat="48.10532" lon="1.32044">
        <ele>106</ele>
        <time>2018-10-09T13:24:14.094Z</time>
      </trkpt>
      <trkpt lat="48.10533" lon="1.32046">
        <ele>106</ele>
        <time>2018-10-09T13:24:15.094Z</time>
      </trkpt>
      <trkpt lat="48.10534" lon="1.32048">
        <ele>106</ele>
        <time>2018-10-09T13:24:16.094Z</time>
      </trkpt>
      <trkpt lat="48.10534" lon="1.3205">
        <ele>106</ele>
        <time>2018-10-09T13:24:17.094Z</time>
      </trkpt>
      <trkpt lat="48.10535" lon="1.32052">
        <ele>106</ele>
        <time>2018-10-09T13:24:18.094Z</time>
      </trkpt>
      <trkpt lat="48.10535" lon="1.32054">
        <ele>106</ele>
        <time>2018-10-09T13:24:19.094Z</time>
      </trkpt>
      <trkpt lat="48.10535" lon="1.32056">
        <ele>106</ele>
        <time>2018-10-09T13:24:20.094Z</time>
      </trkpt>
      <trkpt lat="48.10536" lon="1.32058">
        <ele>107</ele>
        <time>2018-10-09T13:24:21.094Z</time>
      </trkpt>
      <trkpt lat="48.10536" lon="1.3206">
        <ele>107</ele>
        <time>2018-10-09T13:24:22.094Z</time>
      </trkpt>
      <trkpt lat="48.10537" lon="1.32062">
        <ele>107</ele>
        <time>2018-10-09T13:24:23.094Z</time>
      </trkpt>
      <trkpt lat="48.10537" lon="1.32065">
        <ele>107</ele>
        <time>2018-10-09T13:24:24.094Z</time>
      </trkpt>
      <trkpt lat="48.10538" lon="1.32067">
        <ele>107</ele>
        <time>2018-10-09T13:24:25.094Z</time>
      </trkpt>
      <trkpt lat="48.10538" lon="1.32069">
        <ele>107</ele>
        <time>2018-10-09T13:24:26.094Z</time>
      </trkpt>
      <trkpt lat="48.10539" lon="1.32071">
        <ele>107</ele>
        <time>2018-10-09T13:24:27.094Z</time>
      </trkpt>
      <trkpt lat="48.10539" lon="1.32073">
        <ele>107</ele>
        <time>2018-10-09T13:24:28.094Z</time>
      </trkpt>
      <trkpt lat="48.1054" lon="1.32075">
        <ele>107</ele>
        <time>2018-10-09T13:24:29.094Z</time>
      </trkpt>
      <trkpt lat="48.1054" lon="1.32077">
        <ele>107</ele>
        <time>2018-10-09T13:24:30.094Z</time>
      </trkpt>
      <trkpt lat="48.10541" lon="1.32079">
        <ele>107</ele>
        <time>2018-10-09T13:24:31.094Z</time>
      </trkpt>
      <trkpt lat="48.10541" lon="1.32081">
        <ele>107</ele>
        <time>2018-10-09T13:24:32.094Z</time>
      </trkpt>
      <trkpt lat="48.10542" lon="1.32083">
        <ele>107</ele>
        <time>2018-10-09T13:24:33.094Z</time>
      </trkpt>
      <trkpt lat="48.10542" lon="1.32085">
        <ele>107</ele>
        <time>2018-10-09T13:24:34.094Z</time>
      </trkpt>
      <trkpt lat="48.10543" lon="1.32088">
        <ele>107</ele>
        <time>2018-10-09T13:24:35.094Z</time>
      </trkpt>
      <trkpt lat="48.10543" lon="1.3209">
        <ele>107</ele>
        <time>2018-10-09T13:24:36.094Z</time>
      </trkpt>
      <trkpt lat="48.10544" lon="1.32092">
        <ele>107</ele>
        <time>2018-10-09T13:24:37.094Z</time>
      </trkpt>
      <trkpt lat="48.10544" lon="1.32094">
        <ele>107</ele>
        <time>2018-10-09T13:24:38.094Z</time>
      </trkpt>
      <trkpt lat="48.10544" lon="1.32096">
        <ele>106</ele>
        <time>2018-10-09T13:24:39.094Z</time>
      </trkpt>
      <trkpt lat="48.10545" lon="1.32098">
        <ele>106</ele>
        <time>2018-10-09T13:24:40.094Z</time>
      </trkpt>
      <trkpt lat="48.10546" lon="1.321">
        <ele>106</ele>
        <time>2018-10-09T13:24:41.094Z</time>
      </trkpt>
      <trkpt lat="48.10546" lon="1.32102">
        <ele>107</ele>
        <time>2018-10-09T13:24:42.094Z</time>
      </trkpt>
      <trkpt lat="48.10547" lon="1.32104">
        <ele>106</ele>
        <time>2018-10-09T13:24:43.094Z</time>
      </trkpt>
      <trkpt lat="48.10547" lon="1.32107">
        <ele>106</ele>
        <time>2018-10-09T13:24:44.094Z</time>
      </trkpt>
      <trkpt lat="48.10548" lon="1.32108">
        <ele>107</ele>
        <time>2018-10-09T13:24:45.094Z</time>
      </trkpt>
      <trkpt lat="48.10549" lon="1.3211">
        <ele>107</ele>
        <time>2018-10-09T13:24:46.094Z</time>
      </trkpt>
      <trkpt lat="48.1055" lon="1.32112">
        <ele>107</ele>
        <time>2018-10-09T13:24:47.094Z</time>
      </trkpt>
      <trkpt lat="48.1055" lon="1.32114">
        <ele>107</ele>
        <time>2018-10-09T13:24:48.094Z</time>
      </trkpt>
      <trkpt lat="48.10551" lon="1.32116">
        <ele>106</ele>
        <time>2018-10-09T13:24:49.094Z</time>
      </trkpt>
      <trkpt lat="48.10551" lon="1.32118">
        <ele>106</ele>
        <time>2018-10-09T13:24:50.094Z</time>
      </trkpt>
      <trkpt lat="48.10552" lon="1.3212">
        <ele>107</ele>
        <time>2018-10-09T13:24:51.094Z</time>
      </trkpt>
      <trkpt lat="48.10552" lon="1.32122">
        <ele>107</ele>
        <time>2018-10-09T13:24:52.094Z</time>
      </trkpt>
      <trkpt lat="48.10553" lon="1.32124">
        <ele>107</ele>
        <time>2018-10-09T13:24:53.094Z</time>
      </trkpt>
      <trkpt lat="48.10553" lon="1.32126">
        <ele>107</ele>
        <time>2018-10-09T13:24:54.094Z</time>
      </trkpt>
      <trkpt lat="48.10554" lon="1.32128">
        <ele>107</ele>
        <time>2018-10-09T13:24:55.094Z</time>
      </trkpt>
      <trkpt lat="48.10554" lon="1.3213">
        <ele>107</ele>
        <time>2018-10-09T13:24:56.094Z</time>
      </trkpt>
      <trkpt lat="48.10555" lon="1.32132">
        <ele>107</ele>
        <time>2018-10-09T13:24:57.094Z</time>
      </trkpt>
      <trkpt lat="48.10555" lon="1.32134">
        <ele>107</ele>
        <time>2018-10-09T13:24:58.094Z</time>
      </trkpt>
      <trkpt lat="48.10556" lon="1.32136">
        <ele>106</ele>
        <time>2018-10-09T13:24:59.094Z</time>
      </trkpt>
      <trkpt lat="48.10556" lon="1.32138">
        <ele>106</ele>
        <time>2018-10-09T13:25:00.094Z</time>
      </trkpt>
      <trkpt lat="48.10556" lon="1.3214">
        <ele>106</ele>
        <time>2018-10-09T13:25:01.094Z</time>
      </trkpt>
      <trkpt lat="48.10557" lon="1.32142">
        <ele>106</ele>
        <time>2018-10-09T13:25:02.094Z</time>
      </trkpt>
      <trkpt lat="48.10557" lon="1.32144">
        <ele>106</ele>
        <time>2018-10-09T13:25:03.094Z</time>
      </trkpt>
      <trkpt lat="48.10558" lon="1.32146">
        <ele>106</ele>
        <time>2018-10-09T13:25:04.094Z</time>
      </trkpt>
      <trkpt lat="48.10559" lon="1.32148">
        <ele>106</ele>
        <time>2018-10-09T13:25:05.094Z</time>
      </trkpt>
      <trkpt lat="48.10559" lon="1.3215">
        <ele>106</ele>
        <time>2018-10-09T13:25:06.094Z</time>
      </trkpt>
      <trkpt lat="48.1056" lon="1.32152">
        <ele>105</ele>
        <time>2018-10-09T13:25:07.094Z</time>
      </trkpt>
      <trkpt lat="48.1056" lon="1.32154">
        <ele>105</ele>
        <time>2018-10-09T13:25:08.094Z</time>
      </trkpt>
      <trkpt lat="48.10561" lon="1.32156">
        <ele>105</ele>
        <time>2018-10-09T13:25:09.094Z</time>
      </trkpt>
      <trkpt lat="48.10561" lon="1.32158">
        <ele>106</ele>
        <time>2018-10-09T13:25:10.094Z</time>
      </trkpt>
      <trkpt lat="48.10562" lon="1.3216">
        <ele>106</ele>
        <time>2018-10-09T13:25:11.094Z</time>
      </trkpt>
      <trkpt lat="48.10562" lon="1.32162">
        <ele>106</ele>
        <time>2018-10-09T13:25:12.094Z</time>
      </trkpt>
      <trkpt lat="48.10563" lon="1.32164">
        <ele>106</ele>
        <time>2018-10-09T13:25:13.094Z</time>
      </trkpt>
      <trkpt lat="48.10564" lon="1.32167">
        <ele>106</ele>
        <time>2018-10-09T13:25:14.094Z</time>
      </trkpt>
      <trkpt lat="48.10565" lon="1.32169">
        <ele>106</ele>
        <time>2018-10-09T13:25:15.094Z</time>
      </trkpt>
      <trkpt lat="48.10565" lon="1.3217">
        <ele>106</ele>
        <time>2018-10-09T13:25:16.094Z</time>
      </trkpt>
      <trkpt lat="48.10566" lon="1.32172">
        <ele>106</ele>
        <time>2018-10-09T13:25:17.094Z</time>
      </trkpt>
      <trkpt lat="48.10566" lon="1.32174">
        <ele>106</ele>
        <time>2018-10-09T13:25:18.094Z</time>
      </trkpt>
      <trkpt lat="48.10567" lon="1.32176">
        <ele>105</ele>
        <time>2018-10-09T13:25:19.094Z</time>
      </trkpt>
      <trkpt lat="48.10567" lon="1.32178">
        <ele>105</ele>
        <time>2018-10-09T13:25:20.094Z</time>
      </trkpt>
      <trkpt lat="48.10568" lon="1.3218">
        <ele>105</ele>
        <time>2018-10-09T13:25:21.094Z</time>
      </trkpt>
      <trkpt lat="48.10569" lon="1.32182">
        <ele>105</ele>
        <time>2018-10-09T13:25:22.094Z</time>
      </trkpt>
      <trkpt lat="48.1057" lon="1.32184">
        <ele>104</ele>
        <time>2018-10-09T13:25:23.094Z</time>
      </trkpt>
      <trkpt lat="48.1057" lon="1.32186">
        <ele>104</ele>
        <time>2018-10-09T13:25:24.094Z</time>
      </trkpt>
      <trkpt lat="48.10571" lon="1.32187">
        <ele>104</ele>
        <time>2018-10-09T13:25:25.094Z</time>
      </trkpt>
      <trkpt lat="48.10571" lon="1.32189">
        <ele>105</ele>
        <time>2018-10-09T13:25:26.094Z</time>
      </trkpt>
      <trkpt lat="48.10572" lon="1.32191">
        <ele>105</ele>
        <time>2018-10-09T13:25:27.094Z</time>
      </trkpt>
      <trkpt lat="48.10573" lon="1.32193">
        <ele>105</ele>
        <time>2018-10-09T13:25:28.094Z</time>
      </trkpt>
      <trkpt lat="48.10574" lon="1.32195">
        <ele>105</ele>
        <time>2018-10-09T13:25:29.094Z</time>
      </trkpt>
      <trkpt lat="48.10575" lon="1.32197">
        <ele>104</ele>
        <time>2018-10-09T13:25:30.094Z</time>
      </trkpt>
      <trkpt lat="48.10575" lon="1.32199">
        <ele>104</ele>
        <time>2018-10-09T13:25:31.094Z</time>
      </trkpt>
      <trkpt lat="48.10576" lon="1.32201">
        <ele>104</ele>
        <time>2018-10-09T13:25:32.094Z</time>
      </trkpt>
      <trkpt lat="48.10577" lon="1.32203">
        <ele>104</ele>
        <time>2018-10-09T13:25:33.094Z</time>
      </trkpt>
      <trkpt lat="48.10578" lon="1.32205">
        <ele>104</ele>
        <time>2018-10-09T13:25:34.094Z</time>
      </trkpt>
      <trkpt lat="48.10579" lon="1.32207">
        <ele>104</ele>
        <time>2018-10-09T13:25:35.094Z</time>
      </trkpt>
      <trkpt lat="48.10579" lon="1.32209">
        <ele>104</ele>
        <time>2018-10-09T13:25:36.094Z</time>
      </trkpt>
      <trkpt lat="48.1058" lon="1.32211">
        <ele>104</ele>
        <time>2018-10-09T13:25:37.094Z</time>
      </trkpt>
      <trkpt lat="48.10581" lon="1.32213">
        <ele>103</ele>
        <time>2018-10-09T13:25:38.094Z</time>
      </trkpt>
      <trkpt lat="48.10582" lon="1.32215">
        <ele>103</ele>
        <time>2018-10-09T13:25:39.094Z</time>
      </trkpt>
      <trkpt lat="48.10583" lon="1.32217">
        <ele>103</ele>
        <time>2018-10-09T13:25:40.094Z</time>
      </trkpt>
      <trkpt lat="48.10584" lon="1.32218">
        <ele>103</ele>
        <time>2018-10-09T13:25:41.094Z</time>
      </trkpt>
      <trkpt lat="48.10584" lon="1.3222">
        <ele>103</ele>
        <time>2018-10-09T13:25:42.094Z</time>
      </trkpt>
      <trkpt lat="48.10585" lon="1.32222">
        <ele>103</ele>
        <time>2018-10-09T13:25:43.094Z</time>
      </trkpt>
      <trkpt lat="48.10586" lon="1.32224">
        <ele>102</ele>
        <time>2018-10-09T13:25:44.094Z</time>
      </trkpt>
      <trkpt lat="48.10586" lon="1.32225">
        <ele>102</ele>
        <time>2018-10-09T13:25:45.094Z</time>
      </trkpt>
      <trkpt lat="48.10587" lon="1.32227">
        <ele>102</ele>
        <time>2018-10-09T13:25:46.094Z</time>
      </trkpt>
      <trkpt lat="48.10588" lon="1.32228">
        <ele>102</ele>
        <time>2018-10-09T13:25:47.094Z</time>
      </trkpt>
      <trkpt lat="48.10589" lon="1.3223">
        <ele>102</ele>
        <time>2018-10-09T13:25:48.094Z</time>
      </trkpt>
      <trkpt lat="48.1059" lon="1.32232">
        <ele>102</ele>
        <time>2018-10-09T13:25:49.094Z</time>
      </trkpt>
      <trkpt lat="48.10591" lon="1.32233">
        <ele>102</ele>
        <time>2018-10-09T13:25:50.094Z</time>
      </trkpt>
      <trkpt lat="48.10592" lon="1.32235">
        <ele>102</ele>
        <time>2018-10-09T13:25:51.094Z</time>
      </trkpt>
      <trkpt lat="48.10593" lon="1.32237">
        <ele>102</ele>
        <time>2018-10-09T13:25:52.094Z</time>
      </trkpt>
      <trkpt lat="48.10594" lon="1.32238">
        <ele>102</ele>
        <time>2018-10-09T13:25:53.094Z</time>
      </trkpt>
      <trkpt lat="48.10595" lon="1.3224">
        <ele>102</ele>
        <time>2018-10-09T13:25:54.094Z</time>
      </trkpt>
      <trkpt lat="48.10595" lon="1.32242">
        <ele>102</ele>
        <time>2018-10-09T13:25:55.094Z</time>
      </trkpt>
      <trkpt lat="48.10596" lon="1.32243">
        <ele>103</ele>
        <time>2018-10-09T13:25:56.094Z</time>
      </trkpt>
      <trkpt lat="48.10597" lon="1.32245">
        <ele>103</ele>
        <time>2018-10-09T13:25:57.094Z</time>
      </trkpt>
      <trkpt lat="48.10598" lon="1.32247">
        <ele>103</ele>
        <time>2018-10-09T13:25:58.094Z</time>
      </trkpt>
      <trkpt lat="48.10599" lon="1.32249">
        <ele>103</ele>
        <time>2018-10-09T13:25:59.094Z</time>
      </trkpt>
      <trkpt lat="48.106" lon="1.3225">
        <ele>104</ele>
        <time>2018-10-09T13:26:00.094Z</time>
      </trkpt>
      <trkpt lat="48.10601" lon="1.32252">
        <ele>104</ele>
        <time>2018-10-09T13:26:01.094Z</time>
      </trkpt>
      <trkpt lat="48.10602" lon="1.32254">
        <ele>105</ele>
        <time>2018-10-09T13:26:02.094Z</time>
      </trkpt>
      <trkpt lat="48.10602" lon="1.32256">
        <ele>105</ele>
        <time>2018-10-09T13:26:03.094Z</time>
      </trkpt>
      <trkpt lat="48.10603" lon="1.32257">
        <ele>105</ele>
        <time>2018-10-09T13:26:04.094Z</time>
      </trkpt>
      <trkpt lat="48.10604" lon="1.32259">
        <ele>105</ele>
        <time>2018-10-09T13:26:05.094Z</time>
      </trkpt>
      <trkpt lat="48.10605" lon="1.3226">
        <ele>106</ele>
        <time>2018-10-09T13:26:06.094Z</time>
      </trkpt>
      <trkpt lat="48.10605" lon="1.32262">
        <ele>105</ele>
        <time>2018-10-09T13:26:07.094Z</time>
      </trkpt>
      <trkpt lat="48.10606" lon="1.32264">
        <ele>105</ele>
        <time>2018-10-09T13:26:08.094Z</time>
      </trkpt>
      <trkpt lat="48.10607" lon="1.32266">
        <ele>106</ele>
        <time>2018-10-09T13:26:09.094Z</time>
      </trkpt>
      <trkpt lat="48.10608" lon="1.32268">
        <ele>106</ele>
        <time>2018-10-09T13:26:10.094Z</time>
      </trkpt>
      <trkpt lat="48.10608" lon="1.32269">
        <ele>106</ele>
        <time>2018-10-09T13:26:11.094Z</time>
      </trkpt>
      <trkpt lat="48.10609" lon="1.32271">
        <ele>106</ele>
        <time>2018-10-09T13:26:12.094Z</time>
      </trkpt>
      <trkpt lat="48.1061" lon="1.32273">
        <ele>105</ele>
        <time>2018-10-09T13:26:13.094Z</time>
      </trkpt>
      <trkpt lat="48.10611" lon="1.32275">
        <ele>106</ele>
        <time>2018-10-09T13:26:14.094Z</time>
      </trkpt>
      <trkpt lat="48.10612" lon="1.32276">
        <ele>106</ele>
        <time>2018-10-09T13:26:15.094Z</time>
      </trkpt>
      <trkpt lat="48.10612" lon="1.32278">
        <ele>106</ele>
        <time>2018-10-09T13:26:16.094Z</time>
      </trkpt>
      <trkpt lat="48.10613" lon="1.3228">
        <ele>106</ele>
        <time>2018-10-09T13:26:17.094Z</time>
      </trkpt>
      <trkpt lat="48.10614" lon="1.32282">
        <ele>106</ele>
        <time>2018-10-09T13:26:18.094Z</time>
      </trkpt>
      <trkpt lat="48.10615" lon="1.32284">
        <ele>106</ele>
        <time>2018-10-09T13:26:19.094Z</time>
      </trkpt>
      <trkpt lat="48.10615" lon="1.32285">
        <ele>106</ele>
        <time>2018-10-09T13:26:20.094Z</time>
      </trkpt>
      <trkpt lat="48.10616" lon="1.32287">
        <ele>106</ele>
        <time>2018-10-09T13:26:21.094Z</time>
      </trkpt>
      <trkpt lat="48.10617" lon="1.32289">
        <ele>106</ele>
        <time>2018-10-09T13:26:22.094Z</time>
      </trkpt>
      <trkpt lat="48.10618" lon="1.32291">
        <ele>106</ele>
        <time>2018-10-09T13:26:23.094Z</time>
      </trkpt>
      <trkpt lat="48.10619" lon="1.32292">
        <ele>106</ele>
        <time>2018-10-09T13:26:24.094Z</time>
      </trkpt>
      <trkpt lat="48.10619" lon="1.32294">
        <ele>106</ele>
        <time>2018-10-09T13:26:25.094Z</time>
      </trkpt>
      <trkpt lat="48.1062" lon="1.32296">
        <ele>106</ele>
        <time>2018-10-09T13:26:26.094Z</time>
      </trkpt>
      <trkpt lat="48.10621" lon="1.32298">
        <ele>106</ele>
        <time>2018-10-09T13:26:27.094Z</time>
      </trkpt>
      <trkpt lat="48.10622" lon="1.32299">
        <ele>106</ele>
        <time>2018-10-09T13:26:28.094Z</time>
      </trkpt>
      <trkpt lat="48.10622" lon="1.32301">
        <ele>107</ele>
        <time>2018-10-09T13:26:29.094Z</time>
      </trkpt>
      <trkpt lat="48.10623" lon="1.32303">
        <ele>107</ele>
        <time>2018-10-09T13:26:30.094Z</time>
      </trkpt>
      <trkpt lat="48.10624" lon="1.32304">
        <ele>107</ele>
        <time>2018-10-09T13:26:31.094Z</time>
      </trkpt>
      <trkpt lat="48.10625" lon="1.32306">
        <ele>107</ele>
        <time>2018-10-09T13:26:32.094Z</time>
      </trkpt>
      <trkpt lat="48.10626" lon="1.32308">
        <ele>107</ele>
        <time>2018-10-09T13:26:33.094Z</time>
      </trkpt>
      <trkpt lat="48.10626" lon="1.3231">
        <ele>107</ele>
        <time>2018-10-09T13:26:34.094Z</time>
      </trkpt>
      <trkpt lat="48.10627" lon="1.32311">
        <ele>107</ele>
        <time>2018-10-09T13:26:35.094Z</time>
      </trkpt>
      <trkpt lat="48.10628" lon="1.32313">
        <ele>107</ele>
        <time>2018-10-09T13:26:36.094Z</time>
      </trkpt>
      <trkpt lat="48.10629" lon="1.32315">
        <ele>108</ele>
        <time>2018-10-09T13:26:37.094Z</time>
      </trkpt>
      <trkpt lat="48.10629" lon="1.32317">
        <ele>108</ele>
        <time>2018-10-09T13:26:38.094Z</time>
      </trkpt>
      <trkpt lat="48.1063" lon="1.32319">
        <ele>108</ele>
        <time>2018-10-09T13:26:39.094Z</time>
      </trkpt>
      <trkpt lat="48.10631" lon="1.32321">
        <ele>108</ele>
        <time>2018-10-09T13:26:40.094Z</time>
      </trkpt>
      <trkpt lat="48.10632" lon="1.32322">
        <ele>108</ele>
        <time>2018-10-09T13:26:41.094Z</time>
      </trkpt>
      <trkpt lat="48.10633" lon="1.32324">
        <ele>108</ele>
        <time>2018-10-09T13:26:42.094Z</time>
      </trkpt>
      <trkpt lat="48.10633" lon="1.32326">
        <ele>109</ele>
        <time>2018-10-09T13:26:43.094Z</time>
      </trkpt>
      <trkpt lat="48.10634" lon="1.32328">
        <ele>109</ele>
        <time>2018-10-09T13:26:44.094Z</time>
      </trkpt>
      <trkpt lat="48.10635" lon="1.32329">
        <ele>109</ele>
        <time>2018-10-09T13:26:45.094Z</time>
      </trkpt>
      <trkpt lat="48.10636" lon="1.32331">
        <ele>109</ele>
        <time>2018-10-09T13:26:46.094Z</time>
      </trkpt>
      <trkpt lat="48.10637" lon="1.32333">
        <ele>109</ele>
        <time>2018-10-09T13:26:47.094Z</time>
      </trkpt>
      <trkpt lat="48.10638" lon="1.32335">
        <ele>109</ele>
        <time>2018-10-09T13:26:48.094Z</time>
      </trkpt>
      <trkpt lat="48.10638" lon="1.32337">
        <ele>110</ele>
        <time>2018-10-09T13:26:49.094Z</time>
      </trkpt>
      <trkpt lat="48.10639" lon="1.32338">
        <ele>110</ele>
        <time>2018-10-09T13:26:50.094Z</time>
      </trkpt>
      <trkpt lat="48.1064" lon="1.3234">
        <ele>110</ele>
        <time>2018-10-09T13:26:51.094Z</time>
      </trkpt>
      <trkpt lat="48.10641" lon="1.32342">
        <ele>110</ele>
        <time>2018-10-09T13:26:52.094Z</time>
      </trkpt>
      <trkpt lat="48.10641" lon="1.32344">
        <ele>110</ele>
        <time>2018-10-09T13:26:53.094Z</time>
      </trkpt>
      <trkpt lat="48.10642" lon="1.32345">
        <ele>110</ele>
        <time>2018-10-09T13:26:54.094Z</time>
      </trkpt>
      <trkpt lat="48.10643" lon="1.32347">
        <ele>110</ele>
        <time>2018-10-09T13:26:55.094Z</time>
      </trkpt>
      <trkpt lat="48.10644" lon="1.32349">
        <ele>110</ele>
        <time>2018-10-09T13:26:56.094Z</time>
      </trkpt>
      <trkpt lat="48.10644" lon="1.32351">
        <ele>110</ele>
        <time>2018-10-09T13:26:57.094Z</time>
      </trkpt>
      <trkpt lat="48.10645" lon="1.32352">
        <ele>110</ele>
        <time>2018-10-09T13:26:58.094Z</time>
      </trkpt>
      <trkpt lat="48.10646" lon="1.32354">
        <ele>110</ele>
        <time>2018-10-09T13:26:59.094Z</time>
      </trkpt>
      <trkpt lat="48.10647" lon="1.32356">
        <ele>110</ele>
        <time>2018-10-09T13:27:00.094Z</time>
      </trkpt>
      <trkpt lat="48.10647" lon="1.32358">
        <ele>110</ele>
        <time>2018-10-09T13:27:01.094Z</time>
      </trkpt>
      <trkpt lat="48.10648" lon="1.32359">
        <ele>110</ele>
        <time>2018-10-09T13:27:02.094Z</time>
      </trkpt>
      <trkpt lat="48.10648" lon="1.32361">
        <ele>110</ele>
        <time>2018-10-09T13:27:03.094Z</time>
      </trkpt>
      <trkpt lat="48.10649" lon="1.32363">
        <ele>110</ele>
        <time>2018-10-09T13:27:04.094Z</time>
      </trkpt>
      <trkpt lat="48.10649" lon="1.32365">
        <ele>110</ele>
        <time>2018-10-09T13:27:05.094Z</time>
      </trkpt>
      <trkpt lat="48.1065" lon="1.32367">
        <ele>110</ele>
        <time>2018-10-09T13:27:06.094Z</time>
      </trkpt>
      <trkpt lat="48.10651" lon="1.32368">
        <ele>110</ele>
        <time>2018-10-09T13:27:07.094Z</time>
      </trkpt>
      <trkpt lat="48.10651" lon="1.3237">
        <ele>111</ele>
        <time>2018-10-09T13:27:08.094Z</time>
      </trkpt>
      <trkpt lat="48.10652" lon="1.32372">
        <ele>111</ele>
        <time>2018-10-09T13:27:09.094Z</time>
      </trkpt>
      <trkpt lat="48.10653" lon="1.32374">
        <ele>111</ele>
        <time>2018-10-09T13:27:10.094Z</time>
      </trkpt>
      <trkpt lat="48.10654" lon="1.32376">
        <ele>110</ele>
        <time>2018-10-09T13:27:11.094Z</time>
      </trkpt>
      <trkpt lat="48.10654" lon="1.32377">
        <ele>110</ele>
        <time>2018-10-09T13:27:12.094Z</time>
      </trkpt>
      <trkpt lat="48.10655" lon="1.32379">
        <ele>110</ele>
        <time>2018-10-09T13:27:13.094Z</time>
      </trkpt>
      <trkpt lat="48.10656" lon="1.32381">
        <ele>110</ele>
        <time>2018-10-09T13:27:14.094Z</time>
      </trkpt>
      <trkpt lat="48.10656" lon="1.32382">
        <ele>110</ele>
        <time>2018-10-09T13:27:15.094Z</time>
      </trkpt>
      <trkpt lat="48.10657" lon="1.32384">
        <ele>110</ele>
        <time>2018-10-09T13:27:16.094Z</time>
      </trkpt>
      <trkpt lat="48.10658" lon="1.32385">
        <ele>110</ele>
        <time>2018-10-09T13:27:17.094Z</time>
      </trkpt>
      <trkpt lat="48.10658" lon="1.32387">
        <ele>110</ele>
        <time>2018-10-09T13:27:18.094Z</time>
      </trkpt>
      <trkpt lat="48.10659" lon="1.32389">
        <ele>110</ele>
        <time>2018-10-09T13:27:19.094Z</time>
      </trkpt>
      <trkpt lat="48.1066" lon="1.32391">
        <ele>111</ele>
        <time>2018-10-09T13:27:20.094Z</time>
      </trkpt>
      <trkpt lat="48.1066" lon="1.32393">
        <ele>110</ele>
        <time>2018-10-09T13:27:21.094Z</time>
      </trkpt>
      <trkpt lat="48.10661" lon="1.32395">
        <ele>110</ele>
        <time>2018-10-09T13:27:22.094Z</time>
      </trkpt>
      <trkpt lat="48.10661" lon="1.32397">
        <ele>111</ele>
        <time>2018-10-09T13:27:23.094Z</time>
      </trkpt>
      <trkpt lat="48.10662" lon="1.32399">
        <ele>111</ele>
        <time>2018-10-09T13:27:24.094Z</time>
      </trkpt>
      <trkpt lat="48.10663" lon="1.32401">
        <ele>111</ele>
        <time>2018-10-09T13:27:25.094Z</time>
      </trkpt>
      <trkpt lat="48.10663" lon="1.32403">
        <ele>111</ele>
        <time>2018-10-09T13:27:26.094Z</time>
      </trkpt>
      <trkpt lat="48.10664" lon="1.32405">
        <ele>111</ele>
        <time>2018-10-09T13:27:27.094Z</time>
      </trkpt>
      <trkpt lat="48.10664" lon="1.32406">
        <ele>111</ele>
        <time>2018-10-09T13:27:28.094Z</time>
      </trkpt>
      <trkpt lat="48.10665" lon="1.32408">
        <ele>111</ele>
        <time>2018-10-09T13:27:29.094Z</time>
      </trkpt>
      <trkpt lat="48.10665" lon="1.3241">
        <ele>111</ele>
        <time>2018-10-09T13:27:30.094Z</time>
      </trkpt>
      <trkpt lat="48.10666" lon="1.32412">
        <ele>111</ele>
        <time>2018-10-09T13:27:31.094Z</time>
      </trkpt>
      <trkpt lat="48.10667" lon="1.32414">
        <ele>111</ele>
        <time>2018-10-09T13:27:32.094Z</time>
      </trkpt>
      <trkpt lat="48.10667" lon="1.32416">
        <ele>111</ele>
        <time>2018-10-09T13:27:33.094Z</time>
      </trkpt>
      <trkpt lat="48.10668" lon="1.32418">
        <ele>111</ele>
        <time>2018-10-09T13:27:34.094Z</time>
      </trkpt>
      <trkpt lat="48.10669" lon="1.32419">
        <ele>111</ele>
        <time>2018-10-09T13:27:35.094Z</time>
      </trkpt>
      <trkpt lat="48.10669" lon="1.32421">
        <ele>111</ele>
        <time>2018-10-09T13:27:36.094Z</time>
      </trkpt>
      <trkpt lat="48.1067" lon="1.32423">
        <ele>111</ele>
        <time>2018-10-09T13:27:37.094Z</time>
      </trkpt>
      <trkpt lat="48.1067" lon="1.32425">
        <ele>111</ele>
        <time>2018-10-09T13:27:38.094Z</time>
      </trkpt>
      <trkpt lat="48.10671" lon="1.32427">
        <ele>111</ele>
        <time>2018-10-09T13:27:39.094Z</time>
      </trkpt>
      <trkpt lat="48.10671" lon="1.32429">
        <ele>111</ele>
        <time>2018-10-09T13:27:40.094Z</time>
      </trkpt>
      <trkpt lat="48.10672" lon="1.32431">
        <ele>112</ele>
        <time>2018-10-09T13:27:41.094Z</time>
      </trkpt>
      <trkpt lat="48.10672" lon="1.32433">
        <ele>112</ele>
        <time>2018-10-09T13:27:42.094Z</time>
      </trkpt>
      <trkpt lat="48.10673" lon="1.32435">
        <ele>112</ele>
        <time>2018-10-09T13:27:43.094Z</time>
      </trkpt>
      <trkpt lat="48.10673" lon="1.32437">
        <ele>112</ele>
        <time>2018-10-09T13:27:44.094Z</time>
      </trkpt>
      <trkpt lat="48.10674" lon="1.32439">
        <ele>112</ele>
        <time>2018-10-09T13:27:45.094Z</time>
      </trkpt>
      <trkpt lat="48.10674" lon="1.32441">
        <ele>112</ele>
        <time>2018-10-09T13:27:46.094Z</time>
      </trkpt>
      <trkpt lat="48.10675" lon="1.32443">
        <ele>112</ele>
        <time>2018-10-09T13:27:47.094Z</time>
      </trkpt>
      <trkpt lat="48.10675" lon="1.32445">
        <ele>112</ele>
        <time>2018-10-09T13:27:48.094Z</time>
      </trkpt>
      <trkpt lat="48.10676" lon="1.32447">
        <ele>112</ele>
        <time>2018-10-09T13:27:49.094Z</time>
      </trkpt>
      <trkpt lat="48.10676" lon="1.32449">
        <ele>112</ele>
        <time>2018-10-09T13:27:50.094Z</time>
      </trkpt>
      <trkpt lat="48.10677" lon="1.3245">
        <ele>112</ele>
        <time>2018-10-09T13:27:51.094Z</time>
      </trkpt>
      <trkpt lat="48.10677" lon="1.32452">
        <ele>112</ele>
        <time>2018-10-09T13:27:52.094Z</time>
      </trkpt>
      <trkpt lat="48.10678" lon="1.32454">
        <ele>112</ele>
        <time>2018-10-09T13:27:53.094Z</time>
      </trkpt>
      <trkpt lat="48.10679" lon="1.32456">
        <ele>112</ele>
        <time>2018-10-09T13:27:54.094Z</time>
      </trkpt>
      <trkpt lat="48.10679" lon="1.32458">
        <ele>112</ele>
        <time>2018-10-09T13:27:55.094Z</time>
      </trkpt>
      <trkpt lat="48.1068" lon="1.32459">
        <ele>112</ele>
        <time>2018-10-09T13:27:56.094Z</time>
      </trkpt>
      <trkpt lat="48.10681" lon="1.32461">
        <ele>112</ele>
        <time>2018-10-09T13:27:57.094Z</time>
      </trkpt>
      <trkpt lat="48.10681" lon="1.32463">
        <ele>112</ele>
        <time>2018-10-09T13:27:58.094Z</time>
      </trkpt>
      <trkpt lat="48.10682" lon="1.32465">
        <ele>112</ele>
        <time>2018-10-09T13:27:59.094Z</time>
      </trkpt>
      <trkpt lat="48.10682" lon="1.32467">
        <ele>112</ele>
        <time>2018-10-09T13:28:00.094Z</time>
      </trkpt>
      <trkpt lat="48.10683" lon="1.32469">
        <ele>112</ele>
        <time>2018-10-09T13:28:01.094Z</time>
      </trkpt>
      <trkpt lat="48.10683" lon="1.3247">
        <ele>112</ele>
        <time>2018-10-09T13:28:02.094Z</time>
      </trkpt>
      <trkpt lat="48.10684" lon="1.32472">
        <ele>112</ele>
        <time>2018-10-09T13:28:03.094Z</time>
      </trkpt>
      <trkpt lat="48.10684" lon="1.32474">
        <ele>111</ele>
        <time>2018-10-09T13:28:04.094Z</time>
      </trkpt>
      <trkpt lat="48.10685" lon="1.32476">
        <ele>111</ele>
        <time>2018-10-09T13:28:05.094Z</time>
      </trkpt>
      <trkpt lat="48.10685" lon="1.32478">
        <ele>111</ele>
        <time>2018-10-09T13:28:06.094Z</time>
      </trkpt>
      <trkpt lat="48.10686" lon="1.3248">
        <ele>111</ele>
        <time>2018-10-09T13:28:07.094Z</time>
      </trkpt>
      <trkpt lat="48.10686" lon="1.32481">
        <ele>111</ele>
        <time>2018-10-09T13:28:08.094Z</time>
      </trkpt>
      <trkpt lat="48.10687" lon="1.32483">
        <ele>111</ele>
        <time>2018-10-09T13:28:09.094Z</time>
      </trkpt>
      <trkpt lat="48.10687" lon="1.32485">
        <ele>111</ele>
        <time>2018-10-09T13:28:10.094Z</time>
      </trkpt>
      <trkpt lat="48.10688" lon="1.32487">
        <ele>111</ele>
        <time>2018-10-09T13:28:11.094Z</time>
      </trkpt>
      <trkpt lat="48.10689" lon="1.32489">
        <ele>111</ele>
        <time>2018-10-09T13:28:12.094Z</time>
      </trkpt>
      <trkpt lat="48.10689" lon="1.32491">
        <ele>111</ele>
        <time>2018-10-09T13:28:13.094Z</time>
      </trkpt>
      <trkpt lat="48.1069" lon="1.32493">
        <ele>111</ele>
        <time>2018-10-09T13:28:14.094Z</time>
      </trkpt>
      <trkpt lat="48.1069" lon="1.32495">
        <ele>111</ele>
        <time>2018-10-09T13:28:15.094Z</time>
      </trkpt>
      <trkpt lat="48.10691" lon="1.32497">
        <ele>111</ele>
        <time>2018-10-09T13:28:16.094Z</time>
      </trkpt>
      <trkpt lat="48.10692" lon="1.32498">
        <ele>111</ele>
        <time>2018-10-09T13:28:17.094Z</time>
      </trkpt>
      <trkpt lat="48.10692" lon="1.325">
        <ele>111</ele>
        <time>2018-10-09T13:28:18.094Z</time>
      </trkpt>
      <trkpt lat="48.10693" lon="1.32502">
        <ele>111</ele>
        <time>2018-10-09T13:28:19.094Z</time>
      </trkpt>
      <trkpt lat="48.10693" lon="1.32504">
        <ele>111</ele>
        <time>2018-10-09T13:28:20.094Z</time>
      </trkpt>
      <trkpt lat="48.10694" lon="1.32506">
        <ele>111</ele>
        <time>2018-10-09T13:28:21.094Z</time>
      </trkpt>
      <trkpt lat="48.10695" lon="1.32508">
        <ele>111</ele>
        <time>2018-10-09T13:28:22.094Z</time>
      </trkpt>
      <trkpt lat="48.10695" lon="1.3251">
        <ele>111</ele>
        <time>2018-10-09T13:28:23.094Z</time>
      </trkpt>
      <trkpt lat="48.10696" lon="1.32512">
        <ele>111</ele>
        <time>2018-10-09T13:28:24.094Z</time>
      </trkpt>
      <trkpt lat="48.10696" lon="1.32514">
        <ele>111</ele>
        <time>2018-10-09T13:28:25.094Z</time>
      </trkpt>
      <trkpt lat="48.10697" lon="1.32516">
        <ele>111</ele>
        <time>2018-10-09T13:28:26.094Z</time>
      </trkpt>
      <trkpt lat="48.10697" lon="1.32518">
        <ele>111</ele>
        <time>2018-10-09T13:28:27.094Z</time>
      </trkpt>
      <trkpt lat="48.10698" lon="1.3252">
        <ele>111</ele>
        <time>2018-10-09T13:28:28.094Z</time>
      </trkpt>
      <trkpt lat="48.10698" lon="1.32522">
        <ele>112</ele>
        <time>2018-10-09T13:28:29.094Z</time>
      </trkpt>
      <trkpt lat="48.10699" lon="1.32524">
        <ele>112</ele>
        <time>2018-10-09T13:28:30.094Z</time>
      </trkpt>
      <trkpt lat="48.10699" lon="1.32526">
        <ele>112</ele>
        <time>2018-10-09T13:28:31.094Z</time>
      </trkpt>
      <trkpt lat="48.107" lon="1.32529">
        <ele>112</ele>
        <time>2018-10-09T13:28:32.094Z</time>
      </trkpt>
      <trkpt lat="48.107" lon="1.32531">
        <ele>112</ele>
        <time>2018-10-09T13:28:33.094Z</time>
      </trkpt>
      <trkpt lat="48.10701" lon="1.32533">
        <ele>112</ele>
        <time>2018-10-09T13:28:34.094Z</time>
      </trkpt>
      <trkpt lat="48.10701" lon="1.32535">
        <ele>112</ele>
        <time>2018-10-09T13:28:35.094Z</time>
      </trkpt>
      <trkpt lat="48.10702" lon="1.32537">
        <ele>112</ele>
        <time>2018-10-09T13:28:36.094Z</time>
      </trkpt>
      <trkpt lat="48.10702" lon="1.32539">
        <ele>112</ele>
        <time>2018-10-09T13:28:37.094Z</time>
      </trkpt>
      <trkpt lat="48.10703" lon="1.32541">
        <ele>112</ele>
        <time>2018-10-09T13:28:38.094Z</time>
      </trkpt>
      <trkpt lat="48.10703" lon="1.32543">
        <ele>112</ele>
        <time>2018-10-09T13:28:39.094Z</time>
      </trkpt>
      <trkpt lat="48.10704" lon="1.32544">
        <ele>112</ele>
        <time>2018-10-09T13:28:40.094Z</time>
      </trkpt>
      <trkpt lat="48.10705" lon="1.32546">
        <ele>112</ele>
        <time>2018-10-09T13:28:41.094Z</time>
      </trkpt>
      <trkpt lat="48.10706" lon="1.32549">
        <ele>112</ele>
        <time>2018-10-09T13:28:42.094Z</time>
      </trkpt>
      <trkpt lat="48.10706" lon="1.32551">
        <ele>112</ele>
        <time>2018-10-09T13:28:43.094Z</time>
      </trkpt>
      <trkpt lat="48.10707" lon="1.32553">
        <ele>112</ele>
        <time>2018-10-09T13:28:44.094Z</time>
      </trkpt>
      <trkpt lat="48.10708" lon="1.32555">
        <ele>112</ele>
        <time>2018-10-09T13:28:45.094Z</time>
      </trkpt>
      <trkpt lat="48.10708" lon="1.32557">
        <ele>111</ele>
        <time>2018-10-09T13:28:46.094Z</time>
      </trkpt>
      <trkpt lat="48.10709" lon="1.32559">
        <ele>112</ele>
        <time>2018-10-09T13:28:47.094Z</time>
      </trkpt>
      <trkpt lat="48.1071" lon="1.32561">
        <ele>111</ele>
        <time>2018-10-09T13:28:48.094Z</time>
      </trkpt>
      <trkpt lat="48.1071" lon="1.32563">
        <ele>112</ele>
        <time>2018-10-09T13:28:49.094Z</time>
      </trkpt>
      <trkpt lat="48.10711" lon="1.32565">
        <ele>112</ele>
        <time>2018-10-09T13:28:50.094Z</time>
      </trkpt>
      <trkpt lat="48.10712" lon="1.32567">
        <ele>112</ele>
        <time>2018-10-09T13:28:51.094Z</time>
      </trkpt>
      <trkpt lat="48.10712" lon="1.32569">
        <ele>111</ele>
        <time>2018-10-09T13:28:52.094Z</time>
      </trkpt>
      <trkpt lat="48.10713" lon="1.32571">
        <ele>111</ele>
        <time>2018-10-09T13:28:53.094Z</time>
      </trkpt>
      <trkpt lat="48.10714" lon="1.32573">
        <ele>111</ele>
        <time>2018-10-09T13:28:54.094Z</time>
      </trkpt>
      <trkpt lat="48.10714" lon="1.32575">
        <ele>111</ele>
        <time>2018-10-09T13:28:55.094Z</time>
      </trkpt>
      <trkpt lat="48.10715" lon="1.32577">
        <ele>111</ele>
        <time>2018-10-09T13:28:56.094Z</time>
      </trkpt>
      <trkpt lat="48.10715" lon="1.32579">
        <ele>111</ele>
        <time>2018-10-09T13:28:57.094Z</time>
      </trkpt>
      <trkpt lat="48.10716" lon="1.32581">
        <ele>111</ele>
        <time>2018-10-09T13:28:58.094Z</time>
      </trkpt>
      <trkpt lat="48.10716" lon="1.32583">
        <ele>111</ele>
        <time>2018-10-09T13:28:59.094Z</time>
      </trkpt>
      <trkpt lat="48.10717" lon="1.32585">
        <ele>111</ele>
        <time>2018-10-09T13:29:00.094Z</time>
      </trkpt>
      <trkpt lat="48.10718" lon="1.32587">
        <ele>111</ele>
        <time>2018-10-09T13:29:01.094Z</time>
      </trkpt>
      <trkpt lat="48.10718" lon="1.32588">
        <ele>111</ele>
        <time>2018-10-09T13:29:02.094Z</time>
      </trkpt>
      <trkpt lat="48.10719" lon="1.3259">
        <ele>111</ele>
        <time>2018-10-09T13:29:03.094Z</time>
      </trkpt>
      <trkpt lat="48.1072" lon="1.32592">
        <ele>111</ele>
        <time>2018-10-09T13:29:04.094Z</time>
      </trkpt>
      <trkpt lat="48.1072" lon="1.32594">
        <ele>111</ele>
        <time>2018-10-09T13:29:05.094Z</time>
      </trkpt>
      <trkpt lat="48.10721" lon="1.32596">
        <ele>111</ele>
        <time>2018-10-09T13:29:06.094Z</time>
      </trkpt>
      <trkpt lat="48.10721" lon="1.32598">
        <ele>110</ele>
        <time>2018-10-09T13:29:07.094Z</time>
      </trkpt>
      <trkpt lat="48.10722" lon="1.326">
        <ele>110</ele>
        <time>2018-10-09T13:29:08.094Z</time>
      </trkpt>
      <trkpt lat="48.10723" lon="1.32602">
        <ele>110</ele>
        <time>2018-10-09T13:29:09.094Z</time>
      </trkpt>
      <trkpt lat="48.10724" lon="1.32604">
        <ele>110</ele>
        <time>2018-10-09T13:29:10.094Z</time>
      </trkpt>
      <trkpt lat="48.10724" lon="1.32606">
        <ele>110</ele>
        <time>2018-10-09T13:29:11.094Z</time>
      </trkpt>
      <trkpt lat="48.10725" lon="1.32608">
        <ele>111</ele>
        <time>2018-10-09T13:29:12.094Z</time>
      </trkpt>
      <trkpt lat="48.10726" lon="1.3261">
        <ele>110</ele>
        <time>2018-10-09T13:29:13.094Z</time>
      </trkpt>
      <trkpt lat="48.10727" lon="1.32612">
        <ele>110</ele>
        <time>2018-10-09T13:29:14.094Z</time>
      </trkpt>
      <trkpt lat="48.10728" lon="1.32614">
        <ele>111</ele>
        <time>2018-10-09T13:29:15.094Z</time>
      </trkpt>
      <trkpt lat="48.10728" lon="1.32615">
        <ele>111</ele>
        <time>2018-10-09T13:29:16.094Z</time>
      </trkpt>
      <trkpt lat="48.10729" lon="1.32617">
        <ele>110</ele>
        <time>2018-10-09T13:29:17.094Z</time>
      </trkpt>
      <trkpt lat="48.1073" lon="1.32619">
        <ele>111</ele>
        <time>2018-10-09T13:29:18.094Z</time>
      </trkpt>
      <trkpt lat="48.10731" lon="1.32622">
        <ele>110</ele>
        <time>2018-10-09T13:29:19.094Z</time>
      </trkpt>
      <trkpt lat="48.10732" lon="1.32624">
        <ele>111</ele>
        <time>2018-10-09T13:29:20.094Z</time>
      </trkpt>
      <trkpt lat="48.10733" lon="1.32626">
        <ele>111</ele>
        <time>2018-10-09T13:29:21.094Z</time>
      </trkpt>
      <trkpt lat="48.10733" lon="1.32628">
        <ele>110</ele>
        <time>2018-10-09T13:29:22.094Z</time>
      </trkpt>
      <trkpt lat="48.10734" lon="1.3263">
        <ele>110</ele>
        <time>2018-10-09T13:29:23.094Z</time>
      </trkpt>
      <trkpt lat="48.10735" lon="1.32632">
        <ele>110</ele>
        <time>2018-10-09T13:29:24.094Z</time>
      </trkpt>
      <trkpt lat="48.10735" lon="1.32634">
        <ele>110</ele>
        <time>2018-10-09T13:29:25.094Z</time>
      </trkpt>
      <trkpt lat="48.10736" lon="1.32636">
        <ele>110</ele>
        <time>2018-10-09T13:29:26.094Z</time>
      </trkpt>
      <trkpt lat="48.10737" lon="1.32638">
        <ele>110</ele>
        <time>2018-10-09T13:29:27.094Z</time>
      </trkpt>
      <trkpt lat="48.10738" lon="1.3264">
        <ele>110</ele>
        <time>2018-10-09T13:29:28.094Z</time>
      </trkpt>
      <trkpt lat="48.10738" lon="1.32642">
        <ele>110</ele>
        <time>2018-10-09T13:29:29.094Z</time>
      </trkpt>
      <trkpt lat="48.10739" lon="1.32643">
        <ele>110</ele>
        <time>2018-10-09T13:29:30.094Z</time>
      </trkpt>
      <trkpt lat="48.1074" lon="1.32645">
        <ele>110</ele>
        <time>2018-10-09T13:29:31.094Z</time>
      </trkpt>
      <trkpt lat="48.10741" lon="1.32647">
        <ele>110</ele>
        <time>2018-10-09T13:29:32.094Z</time>
      </trkpt>
      <trkpt lat="48.10741" lon="1.32649">
        <ele>110</ele>
        <time>2018-10-09T13:29:33.094Z</time>
      </trkpt>
      <trkpt lat="48.10742" lon="1.32651">
        <ele>110</ele>
        <time>2018-10-09T13:29:34.094Z</time>
      </trkpt>
      <trkpt lat="48.10743" lon="1.32653">
        <ele>110</ele>
        <time>2018-10-09T13:29:35.094Z</time>
      </trkpt>
      <trkpt lat="48.10743" lon="1.32654">
        <ele>110</ele>
        <time>2018-10-09T13:29:36.094Z</time>
      </trkpt>
      <trkpt lat="48.10744" lon="1.32656">
        <ele>110</ele>
        <time>2018-10-09T13:29:37.094Z</time>
      </trkpt>
      <trkpt lat="48.10745" lon="1.32658">
        <ele>110</ele>
        <time>2018-10-09T13:29:38.094Z</time>
      </trkpt>
      <trkpt lat="48.10746" lon="1.3266">
        <ele>110</ele>
        <time>2018-10-09T13:29:39.094Z</time>
      </trkpt>
      <trkpt lat="48.10746" lon="1.32662">
        <ele>110</ele>
        <time>2018-10-09T13:29:40.094Z</time>
      </trkpt>
      <trkpt lat="48.10747" lon="1.32664">
        <ele>111</ele>
        <time>2018-10-09T13:29:41.094Z</time>
      </trkpt>
      <trkpt lat="48.10748" lon="1.32666">
        <ele>111</ele>
        <time>2018-10-09T13:29:42.094Z</time>
      </trkpt>
      <trkpt lat="48.10749" lon="1.32667">
        <ele>111</ele>
        <time>2018-10-09T13:29:43.094Z</time>
      </trkpt>
      <trkpt lat="48.10749" lon="1.32669">
        <ele>111</ele>
        <time>2018-10-09T13:29:44.094Z</time>
      </trkpt>
      <trkpt lat="48.1075" lon="1.32671">
        <ele>111</ele>
        <time>2018-10-09T13:29:45.094Z</time>
      </trkpt>
      <trkpt lat="48.10751" lon="1.32673">
        <ele>111</ele>
        <time>2018-10-09T13:29:46.094Z</time>
      </trkpt>
      <trkpt lat="48.10752" lon="1.32675">
        <ele>111</ele>
        <time>2018-10-09T13:29:47.094Z</time>
      </trkpt>
      <trkpt lat="48.10752" lon="1.32677">
        <ele>112</ele>
        <time>2018-10-09T13:29:48.094Z</time>
      </trkpt>
      <trkpt lat="48.10753" lon="1.32678">
        <ele>112</ele>
        <time>2018-10-09T13:29:49.094Z</time>
      </trkpt>
      <trkpt lat="48.10754" lon="1.3268">
        <ele>111</ele>
        <time>2018-10-09T13:29:50.094Z</time>
      </trkpt>
      <trkpt lat="48.10755" lon="1.32682">
        <ele>111</ele>
        <time>2018-10-09T13:29:51.094Z</time>
      </trkpt>
      <trkpt lat="48.10756" lon="1.32684">
        <ele>111</ele>
        <time>2018-10-09T13:29:52.094Z</time>
      </trkpt>
      <trkpt lat="48.10757" lon="1.32686">
        <ele>111</ele>
        <time>2018-10-09T13:29:53.094Z</time>
      </trkpt>
      <trkpt lat="48.10758" lon="1.32688">
        <ele>111</ele>
        <time>2018-10-09T13:29:54.094Z</time>
      </trkpt>
      <trkpt lat="48.10758" lon="1.3269">
        <ele>111</ele>
        <time>2018-10-09T13:29:55.094Z</time>
      </trkpt>
      <trkpt lat="48.10759" lon="1.32691">
        <ele>111</ele>
        <time>2018-10-09T13:29:56.094Z</time>
      </trkpt>
      <trkpt lat="48.1076" lon="1.32693">
        <ele>111</ele>
        <time>2018-10-09T13:29:57.094Z</time>
      </trkpt>
      <trkpt lat="48.10761" lon="1.32695">
        <ele>111</ele>
        <time>2018-10-09T13:29:58.094Z</time>
      </trkpt>
      <trkpt lat="48.10762" lon="1.32697">
        <ele>110</ele>
        <time>2018-10-09T13:29:59.094Z</time>
      </trkpt>
      <trkpt lat="48.10762" lon="1.32699">
        <ele>110</ele>
        <time>2018-10-09T13:30:00.094Z</time>
      </trkpt>
      <trkpt lat="48.10763" lon="1.32701">
        <ele>110</ele>
        <time>2018-10-09T13:30:01.094Z</time>
      </trkpt>
      <trkpt lat="48.10764" lon="1.32703">
        <ele>110</ele>
        <time>2018-10-09T13:30:02.094Z</time>
      </trkpt>
      <trkpt lat="48.10765" lon="1.32704">
        <ele>109</ele>
        <time>2018-10-09T13:30:03.094Z</time>
      </trkpt>
      <trkpt lat="48.10766" lon="1.32706">
        <ele>110</ele>
        <time>2018-10-09T13:30:04.094Z</time>
      </trkpt>
      <trkpt lat="48.10766" lon="1.32708">
        <ele>110</ele>
        <time>2018-10-09T13:30:05.094Z</time>
      </trkpt>
      <trkpt lat="48.10767" lon="1.3271">
        <ele>110</ele>
        <time>2018-10-09T13:30:06.094Z</time>
      </trkpt>
      <trkpt lat="48.10768" lon="1.32711">
        <ele>110</ele>
        <time>2018-10-09T13:30:07.094Z</time>
      </trkpt>
      <trkpt lat="48.10768" lon="1.32713">
        <ele>109</ele>
        <time>2018-10-09T13:30:08.094Z</time>
      </trkpt>
      <trkpt lat="48.10769" lon="1.32715">
        <ele>110</ele>
        <time>2018-10-09T13:30:09.094Z</time>
      </trkpt>
      <trkpt lat="48.1077" lon="1.32717">
        <ele>110</ele>
        <time>2018-10-09T13:30:10.094Z</time>
      </trkpt>
      <trkpt lat="48.1077" lon="1.32719">
        <ele>110</ele>
        <time>2018-10-09T13:30:11.094Z</time>
      </trkpt>
      <trkpt lat="48.10771" lon="1.32721">
        <ele>110</ele>
        <time>2018-10-09T13:30:12.094Z</time>
      </trkpt>
      <trkpt lat="48.10772" lon="1.32723">
        <ele>110</ele>
        <time>2018-10-09T13:30:13.094Z</time>
      </trkpt>
      <trkpt lat="48.10773" lon="1.32724">
        <ele>110</ele>
        <time>2018-10-09T13:30:14.094Z</time>
      </trkpt>
      <trkpt lat="48.10773" lon="1.32726">
        <ele>110</ele>
        <time>2018-10-09T13:30:15.094Z</time>
      </trkpt>
      <trkpt lat="48.10774" lon="1.32728">
        <ele>110</ele>
        <time>2018-10-09T13:30:16.094Z</time>
      </trkpt>
      <trkpt lat="48.10775" lon="1.32729">
        <ele>109</ele>
        <time>2018-10-09T13:30:17.094Z</time>
      </trkpt>
      <trkpt lat="48.10775" lon="1.32731">
        <ele>109</ele>
        <time>2018-10-09T13:30:18.094Z</time>
      </trkpt>
      <trkpt lat="48.10776" lon="1.32733">
        <ele>109</ele>
        <time>2018-10-09T13:30:19.094Z</time>
      </trkpt>
      <trkpt lat="48.10777" lon="1.32735">
        <ele>109</ele>
        <time>2018-10-09T13:30:20.094Z</time>
      </trkpt>
      <trkpt lat="48.10777" lon="1.32737">
        <ele>109</ele>
        <time>2018-10-09T13:30:21.094Z</time>
      </trkpt>
      <trkpt lat="48.10778" lon="1.32738">
        <ele>109</ele>
        <time>2018-10-09T13:30:22.094Z</time>
      </trkpt>
      <trkpt lat="48.10779" lon="1.3274">
        <ele>109</ele>
        <time>2018-10-09T13:30:23.094Z</time>
      </trkpt>
      <trkpt lat="48.1078" lon="1.32742">
        <ele>109</ele>
        <time>2018-10-09T13:30:24.094Z</time>
      </trkpt>
      <trkpt lat="48.1078" lon="1.32743">
        <ele>109</ele>
        <time>2018-10-09T13:30:25.094Z</time>
      </trkpt>
      <trkpt lat="48.10781" lon="1.32745">
        <ele>109</ele>
        <time>2018-10-09T13:30:26.094Z</time>
      </trkpt>
      <trkpt lat="48.10782" lon="1.32747">
        <ele>109</ele>
        <time>2018-10-09T13:30:27.094Z</time>
      </trkpt>
      <trkpt lat="48.10782" lon="1.32749">
        <ele>109</ele>
        <time>2018-10-09T13:30:28.094Z</time>
      </trkpt>
      <trkpt lat="48.10783" lon="1.3275">
        <ele>108</ele>
        <time>2018-10-09T13:30:29.094Z</time>
      </trkpt>
      <trkpt lat="48.10784" lon="1.32752">
        <ele>108</ele>
        <time>2018-10-09T13:30:30.094Z</time>
      </trkpt>
      <trkpt lat="48.10784" lon="1.32754">
        <ele>109</ele>
        <time>2018-10-09T13:30:31.094Z</time>
      </trkpt>
      <trkpt lat="48.10785" lon="1.32755">
        <ele>109</ele>
        <time>2018-10-09T13:30:32.094Z</time>
      </trkpt>
      <trkpt lat="48.10786" lon="1.32757">
        <ele>108</ele>
        <time>2018-10-09T13:30:33.094Z</time>
      </trkpt>
      <trkpt lat="48.10786" lon="1.32759">
        <ele>108</ele>
        <time>2018-10-09T13:30:34.094Z</time>
      </trkpt>
      <trkpt lat="48.10787" lon="1.32761">
        <ele>109</ele>
        <time>2018-10-09T13:30:35.094Z</time>
      </trkpt>
      <trkpt lat="48.10788" lon="1.32762">
        <ele>109</ele>
        <time>2018-10-09T13:30:36.094Z</time>
      </trkpt>
      <trkpt lat="48.10789" lon="1.32764">
        <ele>109</ele>
        <time>2018-10-09T13:30:37.094Z</time>
      </trkpt>
      <trkpt lat="48.10789" lon="1.32766">
        <ele>109</ele>
        <time>2018-10-09T13:30:38.094Z</time>
      </trkpt>
      <trkpt lat="48.1079" lon="1.32768">
        <ele>109</ele>
        <time>2018-10-09T13:30:39.094Z</time>
      </trkpt>
      <trkpt lat="48.10791" lon="1.3277">
        <ele>108</ele>
        <time>2018-10-09T13:30:40.094Z</time>
      </trkpt>
      <trkpt lat="48.10792" lon="1.32771">
        <ele>109</ele>
        <time>2018-10-09T13:30:41.094Z</time>
      </trkpt>
      <trkpt lat="48.10792" lon="1.32773">
        <ele>109</ele>
        <time>2018-10-09T13:30:42.094Z</time>
      </trkpt>
      <trkpt lat="48.10793" lon="1.32775">
        <ele>109</ele>
        <time>2018-10-09T13:30:43.094Z</time>
      </trkpt>
      <trkpt lat="48.10793" lon="1.32777">
        <ele>109</ele>
        <time>2018-10-09T13:30:44.094Z</time>
      </trkpt>
      <trkpt lat="48.10794" lon="1.32779">
        <ele>109</ele>
        <time>2018-10-09T13:30:45.094Z</time>
      </trkpt>
      <trkpt lat="48.10794" lon="1.32781">
        <ele>110</ele>
        <time>2018-10-09T13:30:46.094Z</time>
      </trkpt>
      <trkpt lat="48.10795" lon="1.32783">
        <ele>109</ele>
        <time>2018-10-09T13:30:47.094Z</time>
      </trkpt>
      <trkpt lat="48.10795" lon="1.32785">
        <ele>110</ele>
        <time>2018-10-09T13:30:48.094Z</time>
      </trkpt>
      <trkpt lat="48.10796" lon="1.32787">
        <ele>110</ele>
        <time>2018-10-09T13:30:49.094Z</time>
      </trkpt>
      <trkpt lat="48.10796" lon="1.32789">
        <ele>109</ele>
        <time>2018-10-09T13:30:50.094Z</time>
      </trkpt>
      <trkpt lat="48.10797" lon="1.32791">
        <ele>110</ele>
        <time>2018-10-09T13:30:51.094Z</time>
      </trkpt>
      <trkpt lat="48.10797" lon="1.32793">
        <ele>109</ele>
        <time>2018-10-09T13:30:52.094Z</time>
      </trkpt>
      <trkpt lat="48.10798" lon="1.32795">
        <ele>109</ele>
        <time>2018-10-09T13:30:53.094Z</time>
      </trkpt>
      <trkpt lat="48.10798" lon="1.32797">
        <ele>109</ele>
        <time>2018-10-09T13:30:54.094Z</time>
      </trkpt>
      <trkpt lat="48.10799" lon="1.32799">
        <ele>108</ele>
        <time>2018-10-09T13:30:55.094Z</time>
      </trkpt>
      <trkpt lat="48.10799" lon="1.32801">
        <ele>108</ele>
        <time>2018-10-09T13:30:56.094Z</time>
      </trkpt>
      <trkpt lat="48.10799" lon="1.32803">
        <ele>108</ele>
        <time>2018-10-09T13:30:57.094Z</time>
      </trkpt>
      <trkpt lat="48.108" lon="1.32805">
        <ele>108</ele>
        <time>2018-10-09T13:30:58.094Z</time>
      </trkpt>
      <trkpt lat="48.108" lon="1.32807">
        <ele>108</ele>
        <time>2018-10-09T13:30:59.094Z</time>
      </trkpt>
      <trkpt lat="48.108" lon="1.32809">
        <ele>108</ele>
        <time>2018-10-09T13:31:00.094Z</time>
      </trkpt>
      <trkpt lat="48.10801" lon="1.32811">
        <ele>108</ele>
        <time>2018-10-09T13:31:01.094Z</time>
      </trkpt>
      <trkpt lat="48.10801" lon="1.32813">
        <ele>108</ele>
        <time>2018-10-09T13:31:02.094Z</time>
      </trkpt>
      <trkpt lat="48.10802" lon="1.32815">
        <ele>108</ele>
        <time>2018-10-09T13:31:03.094Z</time>
      </trkpt>
      <trkpt lat="48.10803" lon="1.32817">
        <ele>108</ele>
        <time>2018-10-09T13:31:04.094Z</time>
      </trkpt>
      <trkpt lat="48.10803" lon="1.32819">
        <ele>108</ele>
        <time>2018-10-09T13:31:05.094Z</time>
      </trkpt>
      <trkpt lat="48.10804" lon="1.32821">
        <ele>108</ele>
        <time>2018-10-09T13:31:06.094Z</time>
      </trkpt>
      <trkpt lat="48.10804" lon="1.32822">
        <ele>108</ele>
        <time>2018-10-09T13:31:07.094Z</time>
      </trkpt>
      <trkpt lat="48.10804" lon="1.32824">
        <ele>108</ele>
        <time>2018-10-09T13:31:08.094Z</time>
      </trkpt>
      <trkpt lat="48.10805" lon="1.32827">
        <ele>108</ele>
        <time>2018-10-09T13:31:09.094Z</time>
      </trkpt>
      <trkpt lat="48.10805" lon="1.32829">
        <ele>108</ele>
        <time>2018-10-09T13:31:10.094Z</time>
      </trkpt>
      <trkpt lat="48.10805" lon="1.32831">
        <ele>108</ele>
        <time>2018-10-09T13:31:11.094Z</time>
      </trkpt>
      <trkpt lat="48.10806" lon="1.32833">
        <ele>108</ele>
        <time>2018-10-09T13:31:12.094Z</time>
      </trkpt>
      <trkpt lat="48.10806" lon="1.32835">
        <ele>108</ele>
        <time>2018-10-09T13:31:13.094Z</time>
      </trkpt>
      <trkpt lat="48.10807" lon="1.32837">
        <ele>108</ele>
        <time>2018-10-09T13:31:14.094Z</time>
      </trkpt>
      <trkpt lat="48.10807" lon="1.32839">
        <ele>108</ele>
        <time>2018-10-09T13:31:15.094Z</time>
      </trkpt>
      <trkpt lat="48.10808" lon="1.32841">
        <ele>108</ele>
        <time>2018-10-09T13:31:16.094Z</time>
      </trkpt>
      <trkpt lat="48.10808" lon="1.32843">
        <ele>107</ele>
        <time>2018-10-09T13:31:17.094Z</time>
      </trkpt>
      <trkpt lat="48.10808" lon="1.32845">
        <ele>107</ele>
        <time>2018-10-09T13:31:18.094Z</time>
      </trkpt>
      <trkpt lat="48.10809" lon="1.32847">
        <ele>108</ele>
        <time>2018-10-09T13:31:19.094Z</time>
      </trkpt>
      <trkpt lat="48.1081" lon="1.32849">
        <ele>108</ele>
        <time>2018-10-09T13:31:20.094Z</time>
      </trkpt>
      <trkpt lat="48.1081" lon="1.32851">
        <ele>108</ele>
        <time>2018-10-09T13:31:21.094Z</time>
      </trkpt>
      <trkpt lat="48.10811" lon="1.32853">
        <ele>108</ele>
        <time>2018-10-09T13:31:22.094Z</time>
      </trkpt>
      <trkpt lat="48.10811" lon="1.32855">
        <ele>108</ele>
        <time>2018-10-09T13:31:23.094Z</time>
      </trkpt>
      <trkpt lat="48.10811" lon="1.32857">
        <ele>108</ele>
        <time>2018-10-09T13:31:24.094Z</time>
      </trkpt>
      <trkpt lat="48.10812" lon="1.32859">
        <ele>108</ele>
        <time>2018-10-09T13:31:25.094Z</time>
      </trkpt>
      <trkpt lat="48.10812" lon="1.32862">
        <ele>108</ele>
        <time>2018-10-09T13:31:26.094Z</time>
      </trkpt>
      <trkpt lat="48.10813" lon="1.32864">
        <ele>108</ele>
        <time>2018-10-09T13:31:27.094Z</time>
      </trkpt>
      <trkpt lat="48.10813" lon="1.32866">
        <ele>108</ele>
        <time>2018-10-09T13:31:28.094Z</time>
      </trkpt>
      <trkpt lat="48.10814" lon="1.32868">
        <ele>107</ele>
        <time>2018-10-09T13:31:29.094Z</time>
      </trkpt>
      <trkpt lat="48.10814" lon="1.3287">
        <ele>107</ele>
        <time>2018-10-09T13:31:30.094Z</time>
      </trkpt>
      <trkpt lat="48.10814" lon="1.32872">
        <ele>107</ele>
        <time>2018-10-09T13:31:31.094Z</time>
      </trkpt>
      <trkpt lat="48.10815" lon="1.32874">
        <ele>109</ele>
        <time>2018-10-09T13:31:32.094Z</time>
      </trkpt>
      <trkpt lat="48.10815" lon="1.32876">
        <ele>108</ele>
        <time>2018-10-09T13:31:33.094Z</time>
      </trkpt>
      <trkpt lat="48.10816" lon="1.32878">
        <ele>109</ele>
        <time>2018-10-09T13:31:34.094Z</time>
      </trkpt>
      <trkpt lat="48.10816" lon="1.3288">
        <ele>109</ele>
        <time>2018-10-09T13:31:35.094Z</time>
      </trkpt>
      <trkpt lat="48.10816" lon="1.32882">
        <ele>109</ele>
        <time>2018-10-09T13:31:36.094Z</time>
      </trkpt>
      <trkpt lat="48.10817" lon="1.32884">
        <ele>109</ele>
        <time>2018-10-09T13:31:37.094Z</time>
      </trkpt>
      <trkpt lat="48.10817" lon="1.32886">
        <ele>109</ele>
        <time>2018-10-09T13:31:38.094Z</time>
      </trkpt>
      <trkpt lat="48.10818" lon="1.32888">
        <ele>109</ele>
        <time>2018-10-09T13:31:39.094Z</time>
      </trkpt>
      <trkpt lat="48.10818" lon="1.3289">
        <ele>109</ele>
        <time>2018-10-09T13:31:40.094Z</time>
      </trkpt>
      <trkpt lat="48.10818" lon="1.32892">
        <ele>109</ele>
        <time>2018-10-09T13:31:41.094Z</time>
      </trkpt>
      <trkpt lat="48.10819" lon="1.32894">
        <ele>109</ele>
        <time>2018-10-09T13:31:42.094Z</time>
      </trkpt>
      <trkpt lat="48.10819" lon="1.32895">
        <ele>109</ele>
        <time>2018-10-09T13:31:43.094Z</time>
      </trkpt>
      <trkpt lat="48.1082" lon="1.32897">
        <ele>109</ele>
        <time>2018-10-09T13:31:44.094Z</time>
      </trkpt>
      <trkpt lat="48.1082" lon="1.329">
        <ele>109</ele>
        <time>2018-10-09T13:31:45.094Z</time>
      </trkpt>
      <trkpt lat="48.1082" lon="1.32902">
        <ele>109</ele>
        <time>2018-10-09T13:31:46.094Z</time>
      </trkpt>
      <trkpt lat="48.10821" lon="1.32904">
        <ele>109</ele>
        <time>2018-10-09T13:31:47.094Z</time>
      </trkpt>
      <trkpt lat="48.10821" lon="1.32906">
        <ele>108</ele>
        <time>2018-10-09T13:31:48.094Z</time>
      </trkpt>
      <trkpt lat="48.10821" lon="1.32907">
        <ele>109</ele>
        <time>2018-10-09T13:31:49.094Z</time>
      </trkpt>
      <trkpt lat="48.10822" lon="1.32909">
        <ele>108</ele>
        <time>2018-10-09T13:31:50.094Z</time>
      </trkpt>
      <trkpt lat="48.10822" lon="1.32912">
        <ele>108</ele>
        <time>2018-10-09T13:31:51.094Z</time>
      </trkpt>
      <trkpt lat="48.10822" lon="1.32914">
        <ele>108</ele>
        <time>2018-10-09T13:31:52.094Z</time>
      </trkpt>
      <trkpt lat="48.10822" lon="1.32916">
        <ele>108</ele>
        <time>2018-10-09T13:31:53.094Z</time>
      </trkpt>
      <trkpt lat="48.10823" lon="1.32918">
        <ele>108</ele>
        <time>2018-10-09T13:31:54.094Z</time>
      </trkpt>
      <trkpt lat="48.10823" lon="1.3292">
        <ele>108</ele>
        <time>2018-10-09T13:31:55.094Z</time>
      </trkpt>
      <trkpt lat="48.10824" lon="1.32922">
        <ele>108</ele>
        <time>2018-10-09T13:31:56.094Z</time>
      </trkpt>
      <trkpt lat="48.10824" lon="1.32924">
        <ele>108</ele>
        <time>2018-10-09T13:31:57.094Z</time>
      </trkpt>
      <trkpt lat="48.10824" lon="1.32926">
        <ele>108</ele>
        <time>2018-10-09T13:31:58.094Z</time>
      </trkpt>
      <trkpt lat="48.10825" lon="1.32928">
        <ele>108</ele>
        <time>2018-10-09T13:31:59.094Z</time>
      </trkpt>
      <trkpt lat="48.10825" lon="1.3293">
        <ele>108</ele>
        <time>2018-10-09T13:32:00.094Z</time>
      </trkpt>
      <trkpt lat="48.10825" lon="1.32932">
        <ele>108</ele>
        <time>2018-10-09T13:32:01.094Z</time>
      </trkpt>
      <trkpt lat="48.10826" lon="1.32934">
        <ele>108</ele>
        <time>2018-10-09T13:32:02.094Z</time>
      </trkpt>
      <trkpt lat="48.10827" lon="1.32936">
        <ele>108</ele>
        <time>2018-10-09T13:32:03.094Z</time>
      </trkpt>
      <trkpt lat="48.10827" lon="1.32938">
        <ele>109</ele>
        <time>2018-10-09T13:32:04.094Z</time>
      </trkpt>
      <trkpt lat="48.10827" lon="1.3294">
        <ele>110</ele>
        <time>2018-10-09T13:32:05.094Z</time>
      </trkpt>
      <trkpt lat="48.10828" lon="1.32941">
        <ele>110</ele>
        <time>2018-10-09T13:32:06.094Z</time>
      </trkpt>
      <trkpt lat="48.10828" lon="1.32943">
        <ele>110</ele>
        <time>2018-10-09T13:32:07.094Z</time>
      </trkpt>
      <trkpt lat="48.10828" lon="1.32945">
        <ele>111</ele>
        <time>2018-10-09T13:32:08.094Z</time>
      </trkpt>
      <trkpt lat="48.10829" lon="1.32947">
        <ele>111</ele>
        <time>2018-10-09T13:32:09.094Z</time>
      </trkpt>
      <trkpt lat="48.10829" lon="1.32949">
        <ele>112</ele>
        <time>2018-10-09T13:32:10.094Z</time>
      </trkpt>
      <trkpt lat="48.10829" lon="1.32951">
        <ele>112</ele>
        <time>2018-10-09T13:32:11.094Z</time>
      </trkpt>
      <trkpt lat="48.1083" lon="1.32952">
        <ele>112</ele>
        <time>2018-10-09T13:32:12.094Z</time>
      </trkpt>
      <trkpt lat="48.1083" lon="1.32954">
        <ele>112</ele>
        <time>2018-10-09T13:32:13.094Z</time>
      </trkpt>
      <trkpt lat="48.1083" lon="1.32956">
        <ele>113</ele>
        <time>2018-10-09T13:32:14.094Z</time>
      </trkpt>
      <trkpt lat="48.1083" lon="1.32958">
        <ele>113</ele>
        <time>2018-10-09T13:32:15.094Z</time>
      </trkpt>
      <trkpt lat="48.10831" lon="1.3296">
        <ele>113</ele>
        <time>2018-10-09T13:32:16.094Z</time>
      </trkpt>
      <trkpt lat="48.10831" lon="1.32962">
        <ele>113</ele>
        <time>2018-10-09T13:32:17.094Z</time>
      </trkpt>
      <trkpt lat="48.10831" lon="1.32964">
        <ele>114</ele>
        <time>2018-10-09T13:32:18.094Z</time>
      </trkpt>
      <trkpt lat="48.10832" lon="1.32965">
        <ele>114</ele>
        <time>2018-10-09T13:32:19.094Z</time>
      </trkpt>
      <trkpt lat="48.10832" lon="1.32967">
        <ele>113</ele>
        <time>2018-10-09T13:32:20.094Z</time>
      </trkpt>
      <trkpt lat="48.10832" lon="1.32969">
        <ele>113</ele>
        <time>2018-10-09T13:32:21.094Z</time>
      </trkpt>
      <trkpt lat="48.10833" lon="1.32971">
        <ele>113</ele>
        <time>2018-10-09T13:32:22.094Z</time>
      </trkpt>
      <trkpt lat="48.10833" lon="1.32973">
        <ele>113</ele>
        <time>2018-10-09T13:32:23.094Z</time>
      </trkpt>
      <trkpt lat="48.10833" lon="1.32974">
        <ele>114</ele>
        <time>2018-10-09T13:32:24.094Z</time>
      </trkpt>
      <trkpt lat="48.10833" lon="1.32976">
        <ele>114</ele>
        <time>2018-10-09T13:32:25.094Z</time>
      </trkpt>
      <trkpt lat="48.10833" lon="1.32977">
        <ele>114</ele>
        <time>2018-10-09T13:32:26.094Z</time>
      </trkpt>
      <trkpt lat="48.10834" lon="1.32979">
        <ele>114</ele>
        <time>2018-10-09T13:32:27.094Z</time>
      </trkpt>
      <trkpt lat="48.10834" lon="1.3298">
        <ele>114</ele>
        <time>2018-10-09T13:32:28.094Z</time>
      </trkpt>
      <trkpt lat="48.10834" lon="1.32982">
        <ele>114</ele>
        <time>2018-10-09T13:32:29.094Z</time>
      </trkpt>
      <trkpt lat="48.10834" lon="1.32984">
        <ele>114</ele>
        <time>2018-10-09T13:32:30.094Z</time>
      </trkpt>
      <trkpt lat="48.10834" lon="1.32985">
        <ele>114</ele>
        <time>2018-10-09T13:32:31.094Z</time>
      </trkpt>
      <trkpt lat="48.10834" lon="1.32987">
        <ele>114</ele>
        <time>2018-10-09T13:32:32.094Z</time>
      </trkpt>
      <trkpt lat="48.10834" lon="1.32988">
        <ele>114</ele>
        <time>2018-10-09T13:32:33.094Z</time>
      </trkpt>
      <trkpt lat="48.10834" lon="1.3299">
        <ele>114</ele>
        <time>2018-10-09T13:32:34.094Z</time>
      </trkpt>
      <trkpt lat="48.10834" lon="1.32991">
        <ele>114</ele>
        <time>2018-10-09T13:32:35.094Z</time>
      </trkpt>
      <trkpt lat="48.10833" lon="1.32992">
        <ele>114</ele>
        <time>2018-10-09T13:32:36.094Z</time>
      </trkpt>
      <trkpt lat="48.10833" lon="1.32993">
        <ele>114</ele>
        <time>2018-10-09T13:32:37.094Z</time>
      </trkpt>
      <trkpt lat="48.10833" lon="1.32994">
        <ele>114</ele>
        <time>2018-10-09T13:32:38.094Z</time>
      </trkpt>
      <trkpt lat="48.10833" lon="1.32995">
        <ele>114</ele>
        <time>2018-10-09T13:32:39.094Z</time>
      </trkpt>
      <trkpt lat="48.10832" lon="1.32995">
        <ele>114</ele>
        <time>2018-10-09T13:32:40.094Z</time>
      </trkpt>
      <trkpt lat="48.10832" lon="1.32995">
        <ele>114</ele>
        <time>2018-10-09T13:32:41.094Z</time>
      </trkpt>
      <trkpt lat="48.10832" lon="1.32995">
        <ele>115</ele>
        <time>2018-10-09T13:32:42.094Z</time>
      </trkpt>
      <trkpt lat="48.10832" lon="1.32995">
        <ele>115</ele>
        <time>2018-10-09T13:32:43.094Z</time>
      </trkpt>
      <trkpt lat="48.10832" lon="1.32995">
        <ele>115</ele>
        <time>2018-10-09T13:32:44.094Z</time>
      </trkpt>
      <trkpt lat="48.10832" lon="1.32995">
        <ele>115</ele>
        <time>2018-10-09T13:32:45.094Z</time>
      </trkpt>
      <trkpt lat="48.10832" lon="1.32995">
        <ele>115</ele>
        <time>2018-10-09T13:32:46.094Z</time>
      </trkpt>
      <trkpt lat="48.10832" lon="1.32995">
        <ele>115</ele>
        <time>2018-10-09T13:32:47.094Z</time>
      </trkpt>
      <trkpt lat="48.10832" lon="1.32995">
        <ele>115</ele>
        <time>2018-10-09T13:32:48.094Z</time>
      </trkpt>
      <trkpt lat="48.10832" lon="1.33006">
        <ele>115</ele>
        <time>2018-10-09T13:32:49.094Z</time>
      </trkpt>
      <trkpt lat="48.10833" lon="1.33009">
        <ele>115</ele>
        <time>2018-10-09T13:32:50.094Z</time>
      </trkpt>
      <trkpt lat="48.10833" lon="1.33011">
        <ele>115</ele>
        <time>2018-10-09T13:32:51.094Z</time>
      </trkpt>
      <trkpt lat="48.10833" lon="1.33013">
        <ele>115</ele>
        <time>2018-10-09T13:32:52.094Z</time>
      </trkpt>
      <trkpt lat="48.10833" lon="1.33015">
        <ele>116</ele>
        <time>2018-10-09T13:32:53.094Z</time>
      </trkpt>
      <trkpt lat="48.10834" lon="1.33017">
        <ele>116</ele>
        <time>2018-10-09T13:32:54.094Z</time>
      </trkpt>
      <trkpt lat="48.10835" lon="1.33018">
        <ele>116</ele>
        <time>2018-10-09T13:32:55.094Z</time>
      </trkpt>
      <trkpt lat="48.10836" lon="1.33019">
        <ele>115</ele>
        <time>2018-10-09T13:32:56.094Z</time>
      </trkpt>
      <trkpt lat="48.10837" lon="1.33019">
        <ele>115</ele>
        <time>2018-10-09T13:32:57.094Z</time>
      </trkpt>
      <trkpt lat="48.10839" lon="1.33019">
        <ele>114</ele>
        <time>2018-10-09T13:32:58.094Z</time>
      </trkpt>
      <trkpt lat="48.1084" lon="1.3302">
        <ele>114</ele>
        <time>2018-10-09T13:32:59.094Z</time>
      </trkpt>
      <trkpt lat="48.10841" lon="1.3302">
        <ele>114</ele>
        <time>2018-10-09T13:33:00.094Z</time>
      </trkpt>
      <trkpt lat="48.10842" lon="1.33021">
        <ele>114</ele>
        <time>2018-10-09T13:33:01.094Z</time>
      </trkpt>
      <trkpt lat="48.10843" lon="1.33021">
        <ele>114</ele>
        <time>2018-10-09T13:33:02.094Z</time>
      </trkpt>
      <trkpt lat="48.10844" lon="1.33021">
        <ele>114</ele>
        <time>2018-10-09T13:33:03.094Z</time>
      </trkpt>
      <trkpt lat="48.10845" lon="1.33021">
        <ele>114</ele>
        <time>2018-10-09T13:33:04.094Z</time>
      </trkpt>
      <trkpt lat="48.10846" lon="1.33021">
        <ele>114</ele>
        <time>2018-10-09T13:33:05.094Z</time>
      </trkpt>
      <trkpt lat="48.10848" lon="1.33021">
        <ele>114</ele>
        <time>2018-10-09T13:33:06.094Z</time>
      </trkpt>
      <trkpt lat="48.10849" lon="1.33021">
        <ele>113</ele>
        <time>2018-10-09T13:33:07.094Z</time>
      </trkpt>
      <trkpt lat="48.1085" lon="1.33021">
        <ele>113</ele>
        <time>2018-10-09T13:33:08.094Z</time>
      </trkpt>
      <trkpt lat="48.10851" lon="1.33021">
        <ele>113</ele>
        <time>2018-10-09T13:33:09.094Z</time>
      </trkpt>
      <trkpt lat="48.10852" lon="1.3302">
        <ele>113</ele>
        <time>2018-10-09T13:33:10.094Z</time>
      </trkpt>
      <trkpt lat="48.10853" lon="1.3302">
        <ele>113</ele>
        <time>2018-10-09T13:33:11.094Z</time>
      </trkpt>
      <trkpt lat="48.10854" lon="1.33019">
        <ele>113</ele>
        <time>2018-10-09T13:33:12.094Z</time>
      </trkpt>
      <trkpt lat="48.10855" lon="1.33019">
        <ele>112</ele>
        <time>2018-10-09T13:33:13.094Z</time>
      </trkpt>
      <trkpt lat="48.10856" lon="1.33019">
        <ele>112</ele>
        <time>2018-10-09T13:33:14.094Z</time>
      </trkpt>
      <trkpt lat="48.10857" lon="1.33019">
        <ele>112</ele>
        <time>2018-10-09T13:33:15.094Z</time>
      </trkpt>
      <trkpt lat="48.10859" lon="1.33018">
        <ele>112</ele>
        <time>2018-10-09T13:33:16.094Z</time>
      </trkpt>
      <trkpt lat="48.1086" lon="1.33018">
        <ele>112</ele>
        <time>2018-10-09T13:33:17.094Z</time>
      </trkpt>
      <trkpt lat="48.10861" lon="1.33018">
        <ele>112</ele>
        <time>2018-10-09T13:33:18.094Z</time>
      </trkpt>
      <trkpt lat="48.10862" lon="1.33018">
        <ele>112</ele>
        <time>2018-10-09T13:33:19.094Z</time>
      </trkpt>
      <trkpt lat="48.10863" lon="1.33018">
        <ele>112</ele>
        <time>2018-10-09T13:33:20.094Z</time>
      </trkpt>
      <trkpt lat="48.10864" lon="1.33017">
        <ele>112</ele>
        <time>2018-10-09T13:33:21.094Z</time>
      </trkpt>
      <trkpt lat="48.10866" lon="1.33017">
        <ele>112</ele>
        <time>2018-10-09T13:33:22.094Z</time>
      </trkpt>
      <trkpt lat="48.10867" lon="1.33016">
        <ele>113</ele>
        <time>2018-10-09T13:33:23.094Z</time>
      </trkpt>
      <trkpt lat="48.10868" lon="1.33016">
        <ele>113</ele>
        <time>2018-10-09T13:33:24.094Z</time>
      </trkpt>
      <trkpt lat="48.10869" lon="1.33016">
        <ele>112</ele>
        <time>2018-10-09T13:33:25.094Z</time>
      </trkpt>
      <trkpt lat="48.1087" lon="1.33015">
        <ele>112</ele>
        <time>2018-10-09T13:33:26.094Z</time>
      </trkpt>
      <trkpt lat="48.10871" lon="1.33015">
        <ele>112</ele>
        <time>2018-10-09T13:33:27.094Z</time>
      </trkpt>
      <trkpt lat="48.10872" lon="1.33015">
        <ele>112</ele>
        <time>2018-10-09T13:33:28.094Z</time>
      </trkpt>
      <trkpt lat="48.10873" lon="1.33015">
        <ele>113</ele>
        <time>2018-10-09T13:33:29.094Z</time>
      </trkpt>
      <trkpt lat="48.10875" lon="1.33015">
        <ele>113</ele>
        <time>2018-10-09T13:33:30.094Z</time>
      </trkpt>
      <trkpt lat="48.10876" lon="1.33015">
        <ele>112</ele>
        <time>2018-10-09T13:33:31.094Z</time>
      </trkpt>
      <trkpt lat="48.10877" lon="1.33015">
        <ele>113</ele>
        <time>2018-10-09T13:33:32.094Z</time>
      </trkpt>
      <trkpt lat="48.10878" lon="1.33015">
        <ele>113</ele>
        <time>2018-10-09T13:33:33.094Z</time>
      </trkpt>
      <trkpt lat="48.1088" lon="1.33015">
        <ele>112</ele>
        <time>2018-10-09T13:33:34.094Z</time>
      </trkpt>
      <trkpt lat="48.10881" lon="1.33015">
        <ele>112</ele>
        <time>2018-10-09T13:33:35.094Z</time>
      </trkpt>
      <trkpt lat="48.10882" lon="1.33015">
        <ele>112</ele>
        <time>2018-10-09T13:33:36.094Z</time>
      </trkpt>
      <trkpt lat="48.10883" lon="1.33015">
        <ele>111</ele>
        <time>2018-10-09T13:33:37.094Z</time>
      </trkpt>
      <trkpt lat="48.10884" lon="1.33015">
        <ele>111</ele>
        <time>2018-10-09T13:33:38.094Z</time>
      </trkpt>
      <trkpt lat="48.10885" lon="1.33015">
        <ele>111</ele>
        <time>2018-10-09T13:33:39.094Z</time>
      </trkpt>
      <trkpt lat="48.10887" lon="1.33015">
        <ele>111</ele>
        <time>2018-10-09T13:33:40.094Z</time>
      </trkpt>
      <trkpt lat="48.10888" lon="1.33015">
        <ele>111</ele>
        <time>2018-10-09T13:33:41.094Z</time>
      </trkpt>
      <trkpt lat="48.10889" lon="1.33015">
        <ele>111</ele>
        <time>2018-10-09T13:33:42.094Z</time>
      </trkpt>
      <trkpt lat="48.1089" lon="1.33015">
        <ele>111</ele>
        <time>2018-10-09T13:33:43.094Z</time>
      </trkpt>
      <trkpt lat="48.10892" lon="1.33015">
        <ele>111</ele>
        <time>2018-10-09T13:33:44.094Z</time>
      </trkpt>
      <trkpt lat="48.10893" lon="1.33015">
        <ele>111</ele>
        <time>2018-10-09T13:33:45.094Z</time>
      </trkpt>
      <trkpt lat="48.10894" lon="1.33015">
        <ele>111</ele>
        <time>2018-10-09T13:33:46.094Z</time>
      </trkpt>
      <trkpt lat="48.10895" lon="1.33015">
        <ele>111</ele>
        <time>2018-10-09T13:33:47.094Z</time>
      </trkpt>
      <trkpt lat="48.10897" lon="1.33015">
        <ele>111</ele>
        <time>2018-10-09T13:33:48.094Z</time>
      </trkpt>
      <trkpt lat="48.10898" lon="1.33015">
        <ele>112</ele>
        <time>2018-10-09T13:33:49.094Z</time>
      </trkpt>
      <trkpt lat="48.10899" lon="1.33015">
        <ele>111</ele>
        <time>2018-10-09T13:33:50.094Z</time>
      </trkpt>
      <trkpt lat="48.10901" lon="1.33015">
        <ele>111</ele>
        <time>2018-10-09T13:33:51.094Z</time>
      </trkpt>
      <trkpt lat="48.10902" lon="1.33015">
        <ele>111</ele>
        <time>2018-10-09T13:33:52.094Z</time>
      </trkpt>
      <trkpt lat="48.10903" lon="1.33015">
        <ele>111</ele>
        <time>2018-10-09T13:33:53.094Z</time>
      </trkpt>
      <trkpt lat="48.10904" lon="1.33015">
        <ele>111</ele>
        <time>2018-10-09T13:33:54.094Z</time>
      </trkpt>
      <trkpt lat="48.10905" lon="1.33015">
        <ele>111</ele>
        <time>2018-10-09T13:33:55.094Z</time>
      </trkpt>
      <trkpt lat="48.10907" lon="1.33015">
        <ele>111</ele>
        <time>2018-10-09T13:33:56.094Z</time>
      </trkpt>
      <trkpt lat="48.10908" lon="1.33015">
        <ele>111</ele>
        <time>2018-10-09T13:33:57.094Z</time>
      </trkpt>
      <trkpt lat="48.10909" lon="1.33015">
        <ele>111</ele>
        <time>2018-10-09T13:33:58.094Z</time>
      </trkpt>
      <trkpt lat="48.1091" lon="1.33015">
        <ele>111</ele>
        <time>2018-10-09T13:33:59.094Z</time>
      </trkpt>
      <trkpt lat="48.10912" lon="1.33015">
        <ele>111</ele>
        <time>2018-10-09T13:34:00.094Z</time>
      </trkpt>
      <trkpt lat="48.10913" lon="1.33015">
        <ele>111</ele>
        <time>2018-10-09T13:34:01.094Z</time>
      </trkpt>
      <trkpt lat="48.10914" lon="1.33016">
        <ele>111</ele>
        <time>2018-10-09T13:34:02.094Z</time>
      </trkpt>
      <trkpt lat="48.10915" lon="1.33016">
        <ele>111</ele>
        <time>2018-10-09T13:34:03.094Z</time>
      </trkpt>
      <trkpt lat="48.10916" lon="1.33016">
        <ele>111</ele>
        <time>2018-10-09T13:34:04.094Z</time>
      </trkpt>
      <trkpt lat="48.10917" lon="1.33016">
        <ele>111</ele>
        <time>2018-10-09T13:34:05.094Z</time>
      </trkpt>
      <trkpt lat="48.10918" lon="1.33017">
        <ele>111</ele>
        <time>2018-10-09T13:34:06.094Z</time>
      </trkpt>
      <trkpt lat="48.10919" lon="1.33017">
        <ele>111</ele>
        <time>2018-10-09T13:34:07.094Z</time>
      </trkpt>
      <trkpt lat="48.1092" lon="1.33018">
        <ele>112</ele>
        <time>2018-10-09T13:34:08.094Z</time>
      </trkpt>
      <trkpt lat="48.10921" lon="1.33018">
        <ele>111</ele>
        <time>2018-10-09T13:34:09.094Z</time>
      </trkpt>
      <trkpt lat="48.10922" lon="1.33018">
        <ele>111</ele>
        <time>2018-10-09T13:34:10.094Z</time>
      </trkpt>
      <trkpt lat="48.10923" lon="1.33018">
        <ele>111</ele>
        <time>2018-10-09T13:34:11.094Z</time>
      </trkpt>
      <trkpt lat="48.10924" lon="1.33018">
        <ele>111</ele>
        <time>2018-10-09T13:34:12.094Z</time>
      </trkpt>
      <trkpt lat="48.10925" lon="1.33018">
        <ele>111</ele>
        <time>2018-10-09T13:34:13.094Z</time>
      </trkpt>
      <trkpt lat="48.10926" lon="1.33018">
        <ele>110</ele>
        <time>2018-10-09T13:34:14.094Z</time>
      </trkpt>
      <trkpt lat="48.10927" lon="1.33018">
        <ele>110</ele>
        <time>2018-10-09T13:34:15.094Z</time>
      </trkpt>
      <trkpt lat="48.10928" lon="1.33018">
        <ele>110</ele>
        <time>2018-10-09T13:34:16.094Z</time>
      </trkpt>
      <trkpt lat="48.10929" lon="1.33018">
        <ele>109</ele>
        <time>2018-10-09T13:34:17.094Z</time>
      </trkpt>
      <trkpt lat="48.1093" lon="1.33018">
        <ele>109</ele>
        <time>2018-10-09T13:34:18.094Z</time>
      </trkpt>
      <trkpt lat="48.10931" lon="1.33019">
        <ele>109</ele>
        <time>2018-10-09T13:34:19.094Z</time>
      </trkpt>
      <trkpt lat="48.10932" lon="1.33019">
        <ele>109</ele>
        <time>2018-10-09T13:34:20.094Z</time>
      </trkpt>
      <trkpt lat="48.10933" lon="1.33019">
        <ele>109</ele>
        <time>2018-10-09T13:34:21.094Z</time>
      </trkpt>
      <trkpt lat="48.10934" lon="1.33019">
        <ele>109</ele>
        <time>2018-10-09T13:34:22.094Z</time>
      </trkpt>
      <trkpt lat="48.10935" lon="1.33019">
        <ele>108</ele>
        <time>2018-10-09T13:34:23.094Z</time>
      </trkpt>
      <trkpt lat="48.10937" lon="1.33019">
        <ele>109</ele>
        <time>2018-10-09T13:34:24.094Z</time>
      </trkpt>
      <trkpt lat="48.10938" lon="1.33019">
        <ele>109</ele>
        <time>2018-10-09T13:34:25.094Z</time>
      </trkpt>
      <trkpt lat="48.1094" lon="1.33018">
        <ele>109</ele>
        <time>2018-10-09T13:34:26.094Z</time>
      </trkpt>
      <trkpt lat="48.10941" lon="1.33018">
        <ele>109</ele>
        <time>2018-10-09T13:34:27.094Z</time>
      </trkpt>
      <trkpt lat="48.10942" lon="1.33018">
        <ele>108</ele>
        <time>2018-10-09T13:34:28.094Z</time>
      </trkpt>
      <trkpt lat="48.10943" lon="1.33018">
        <ele>109</ele>
        <time>2018-10-09T13:34:29.094Z</time>
      </trkpt>
      <trkpt lat="48.10944" lon="1.33017">
        <ele>109</ele>
        <time>2018-10-09T13:34:30.094Z</time>
      </trkpt>
      <trkpt lat="48.10946" lon="1.33017">
        <ele>109</ele>
        <time>2018-10-09T13:34:31.094Z</time>
      </trkpt>
      <trkpt lat="48.10947" lon="1.33017">
        <ele>109</ele>
        <time>2018-10-09T13:34:32.094Z</time>
      </trkpt>
      <trkpt lat="48.10948" lon="1.33017">
        <ele>109</ele>
        <time>2018-10-09T13:34:33.094Z</time>
      </trkpt>
      <trkpt lat="48.10949" lon="1.33017">
        <ele>108</ele>
        <time>2018-10-09T13:34:34.094Z</time>
      </trkpt>
      <trkpt lat="48.1095" lon="1.33017">
        <ele>109</ele>
        <time>2018-10-09T13:34:35.094Z</time>
      </trkpt>
      <trkpt lat="48.10952" lon="1.33017">
        <ele>109</ele>
        <time>2018-10-09T13:34:36.094Z</time>
      </trkpt>
      <trkpt lat="48.10953" lon="1.33017">
        <ele>109</ele>
        <time>2018-10-09T13:34:37.094Z</time>
      </trkpt>
      <trkpt lat="48.10955" lon="1.33017">
        <ele>109</ele>
        <time>2018-10-09T13:34:38.094Z</time>
      </trkpt>
      <trkpt lat="48.10956" lon="1.33017">
        <ele>108</ele>
        <time>2018-10-09T13:34:39.094Z</time>
      </trkpt>
      <trkpt lat="48.10957" lon="1.33017">
        <ele>109</ele>
        <time>2018-10-09T13:34:40.094Z</time>
      </trkpt>
      <trkpt lat="48.10958" lon="1.33017">
        <ele>109</ele>
        <time>2018-10-09T13:34:41.094Z</time>
      </trkpt>
      <trkpt lat="48.10959" lon="1.33017">
        <ele>109</ele>
        <time>2018-10-09T13:34:42.094Z</time>
      </trkpt>
      <trkpt lat="48.1096" lon="1.33017">
        <ele>110</ele>
        <time>2018-10-09T13:34:43.094Z</time>
      </trkpt>
      <trkpt lat="48.10962" lon="1.33017">
        <ele>110</ele>
        <time>2018-10-09T13:34:44.094Z</time>
      </trkpt>
      <trkpt lat="48.10963" lon="1.33017">
        <ele>110</ele>
        <time>2018-10-09T13:34:45.094Z</time>
      </trkpt>
      <trkpt lat="48.10965" lon="1.33016">
        <ele>110</ele>
        <time>2018-10-09T13:34:46.094Z</time>
      </trkpt>
      <trkpt lat="48.10966" lon="1.33016">
        <ele>110</ele>
        <time>2018-10-09T13:34:47.094Z</time>
      </trkpt>
      <trkpt lat="48.10967" lon="1.33016">
        <ele>110</ele>
        <time>2018-10-09T13:34:48.094Z</time>
      </trkpt>
      <trkpt lat="48.10968" lon="1.33016">
        <ele>111</ele>
        <time>2018-10-09T13:34:49.094Z</time>
      </trkpt>
      <trkpt lat="48.10969" lon="1.33016">
        <ele>110</ele>
        <time>2018-10-09T13:34:50.094Z</time>
      </trkpt>
      <trkpt lat="48.1097" lon="1.33016">
        <ele>111</ele>
        <time>2018-10-09T13:34:51.094Z</time>
      </trkpt>
      <trkpt lat="48.10971" lon="1.33016">
        <ele>111</ele>
        <time>2018-10-09T13:34:52.094Z</time>
      </trkpt>
      <trkpt lat="48.10972" lon="1.33016">
        <ele>111</ele>
        <time>2018-10-09T13:34:53.094Z</time>
      </trkpt>
      <trkpt lat="48.10973" lon="1.33015">
        <ele>112</ele>
        <time>2018-10-09T13:34:54.094Z</time>
      </trkpt>
      <trkpt lat="48.10974" lon="1.33015">
        <ele>113</ele>
        <time>2018-10-09T13:34:55.094Z</time>
      </trkpt>
      <trkpt lat="48.10975" lon="1.33015">
        <ele>113</ele>
        <time>2018-10-09T13:34:56.094Z</time>
      </trkpt>
      <trkpt lat="48.10976" lon="1.33015">
        <ele>114</ele>
        <time>2018-10-09T13:34:57.094Z</time>
      </trkpt>
      <trkpt lat="48.10977" lon="1.33015">
        <ele>114</ele>
        <time>2018-10-09T13:34:58.094Z</time>
      </trkpt>
      <trkpt lat="48.10978" lon="1.33016">
        <ele>113</ele>
        <time>2018-10-09T13:34:59.094Z</time>
      </trkpt>
      <trkpt lat="48.10979" lon="1.33017">
        <ele>111</ele>
        <time>2018-10-09T13:35:00.094Z</time>
      </trkpt>
      <trkpt lat="48.10981" lon="1.33018">
        <ele>111</ele>
        <time>2018-10-09T13:35:01.094Z</time>
      </trkpt>
      <trkpt lat="48.10982" lon="1.33019">
        <ele>110</ele>
        <time>2018-10-09T13:35:02.094Z</time>
      </trkpt>
      <trkpt lat="48.10983" lon="1.3302">
        <ele>112</ele>
        <time>2018-10-09T13:35:03.094Z</time>
      </trkpt>
      <trkpt lat="48.10985" lon="1.33022">
        <ele>111</ele>
        <time>2018-10-09T13:35:04.094Z</time>
      </trkpt>
      <trkpt lat="48.10987" lon="1.33023">
        <ele>111</ele>
        <time>2018-10-09T13:35:05.094Z</time>
      </trkpt>
      <trkpt lat="48.10988" lon="1.33023">
        <ele>111</ele>
        <time>2018-10-09T13:35:06.094Z</time>
      </trkpt>
      <trkpt lat="48.1099" lon="1.33023">
        <ele>111</ele>
        <time>2018-10-09T13:35:07.094Z</time>
      </trkpt>
      <trkpt lat="48.10991" lon="1.33022">
        <ele>112</ele>
        <time>2018-10-09T13:35:08.094Z</time>
      </trkpt>
      <trkpt lat="48.10993" lon="1.33022">
        <ele>111</ele>
        <time>2018-10-09T13:35:09.094Z</time>
      </trkpt>
      <trkpt lat="48.10994" lon="1.33022">
        <ele>111</ele>
        <time>2018-10-09T13:35:10.094Z</time>
      </trkpt>
      <trkpt lat="48.10995" lon="1.33021">
        <ele>111</ele>
        <time>2018-10-09T13:35:11.094Z</time>
      </trkpt>
      <trkpt lat="48.10997" lon="1.3302">
        <ele>111</ele>
        <time>2018-10-09T13:35:12.094Z</time>
      </trkpt>
      <trkpt lat="48.10998" lon="1.33019">
        <ele>112</ele>
        <time>2018-10-09T13:35:13.094Z</time>
      </trkpt>
      <trkpt lat="48.10999" lon="1.33019">
        <ele>112</ele>
        <time>2018-10-09T13:35:14.094Z</time>
      </trkpt>
      <trkpt lat="48.11001" lon="1.33018">
        <ele>112</ele>
        <time>2018-10-09T13:35:15.094Z</time>
      </trkpt>
      <trkpt lat="48.11002" lon="1.33017">
        <ele>112</ele>
        <time>2018-10-09T13:35:16.094Z</time>
      </trkpt>
      <trkpt lat="48.11003" lon="1.33017">
        <ele>113</ele>
        <time>2018-10-09T13:35:17.094Z</time>
      </trkpt>
      <trkpt lat="48.11004" lon="1.33016">
        <ele>113</ele>
        <time>2018-10-09T13:35:18.094Z</time>
      </trkpt>
      <trkpt lat="48.11006" lon="1.33015">
        <ele>113</ele>
        <time>2018-10-09T13:35:19.094Z</time>
      </trkpt>
      <trkpt lat="48.11007" lon="1.33015">
        <ele>113</ele>
        <time>2018-10-09T13:35:20.094Z</time>
      </trkpt>
      <trkpt lat="48.11009" lon="1.33014">
        <ele>113</ele>
        <time>2018-10-09T13:35:21.094Z</time>
      </trkpt>
      <trkpt lat="48.1101" lon="1.33014">
        <ele>112</ele>
        <time>2018-10-09T13:35:22.094Z</time>
      </trkpt>
      <trkpt lat="48.11011" lon="1.33014">
        <ele>113</ele>
        <time>2018-10-09T13:35:23.094Z</time>
      </trkpt>
      <trkpt lat="48.11012" lon="1.33013">
        <ele>114</ele>
        <time>2018-10-09T13:35:24.094Z</time>
      </trkpt>
      <trkpt lat="48.11013" lon="1.33013">
        <ele>115</ele>
        <time>2018-10-09T13:35:25.094Z</time>
      </trkpt>
      <trkpt lat="48.11015" lon="1.33013">
        <ele>115</ele>
        <time>2018-10-09T13:35:26.094Z</time>
      </trkpt>
      <trkpt lat="48.11016" lon="1.33013">
        <ele>116</ele>
        <time>2018-10-09T13:35:27.094Z</time>
      </trkpt>
      <trkpt lat="48.11017" lon="1.33013">
        <ele>116</ele>
        <time>2018-10-09T13:35:28.094Z</time>
      </trkpt>
      <trkpt lat="48.11018" lon="1.33012">
        <ele>117</ele>
        <time>2018-10-09T13:35:29.094Z</time>
      </trkpt>
      <trkpt lat="48.11018" lon="1.33012">
        <ele>117</ele>
        <time>2018-10-09T13:35:30.094Z</time>
      </trkpt>
      <trkpt lat="48.1102" lon="1.33012">
        <ele>116</ele>
        <time>2018-10-09T13:35:31.094Z</time>
      </trkpt>
      <trkpt lat="48.11022" lon="1.33012">
        <ele>117</ele>
        <time>2018-10-09T13:35:32.094Z</time>
      </trkpt>
      <trkpt lat="48.11024" lon="1.33013">
        <ele>116</ele>
        <time>2018-10-09T13:35:33.094Z</time>
      </trkpt>
      <trkpt lat="48.11025" lon="1.33013">
        <ele>115</ele>
        <time>2018-10-09T13:35:34.094Z</time>
      </trkpt>
      <trkpt lat="48.11027" lon="1.33013">
        <ele>116</ele>
        <time>2018-10-09T13:35:35.094Z</time>
      </trkpt>
      <trkpt lat="48.11028" lon="1.33013">
        <ele>116</ele>
        <time>2018-10-09T13:35:36.094Z</time>
      </trkpt>
      <trkpt lat="48.11029" lon="1.33013">
        <ele>116</ele>
        <time>2018-10-09T13:35:37.094Z</time>
      </trkpt>
      <trkpt lat="48.11031" lon="1.33013">
        <ele>116</ele>
        <time>2018-10-09T13:35:38.094Z</time>
      </trkpt>
      <trkpt lat="48.11032" lon="1.33013">
        <ele>115</ele>
        <time>2018-10-09T13:35:39.094Z</time>
      </trkpt>
      <trkpt lat="48.11033" lon="1.33013">
        <ele>115</ele>
        <time>2018-10-09T13:35:40.094Z</time>
      </trkpt>
      <trkpt lat="48.11035" lon="1.33014">
        <ele>114</ele>
        <time>2018-10-09T13:35:41.094Z</time>
      </trkpt>
      <trkpt lat="48.11036" lon="1.33014">
        <ele>114</ele>
        <time>2018-10-09T13:35:42.094Z</time>
      </trkpt>
      <trkpt lat="48.11037" lon="1.33014">
        <ele>114</ele>
        <time>2018-10-09T13:35:43.094Z</time>
      </trkpt>
      <trkpt lat="48.11038" lon="1.33014">
        <ele>113</ele>
        <time>2018-10-09T13:35:44.094Z</time>
      </trkpt>
      <trkpt lat="48.1104" lon="1.33014">
        <ele>114</ele>
        <time>2018-10-09T13:35:45.094Z</time>
      </trkpt>
      <trkpt lat="48.11041" lon="1.33014">
        <ele>114</ele>
        <time>2018-10-09T13:35:46.094Z</time>
      </trkpt>
      <trkpt lat="48.11042" lon="1.33013">
        <ele>113</ele>
        <time>2018-10-09T13:35:47.094Z</time>
      </trkpt>
      <trkpt lat="48.11043" lon="1.33013">
        <ele>113</ele>
        <time>2018-10-09T13:35:48.094Z</time>
      </trkpt>
      <trkpt lat="48.11044" lon="1.33013">
        <ele>114</ele>
        <time>2018-10-09T13:35:49.094Z</time>
      </trkpt>
      <trkpt lat="48.11046" lon="1.33013">
        <ele>113</ele>
        <time>2018-10-09T13:35:50.094Z</time>
      </trkpt>
      <trkpt lat="48.11047" lon="1.33013">
        <ele>113</ele>
        <time>2018-10-09T13:35:51.094Z</time>
      </trkpt>
      <trkpt lat="48.11048" lon="1.33013">
        <ele>113</ele>
        <time>2018-10-09T13:35:52.094Z</time>
      </trkpt>
      <trkpt lat="48.1105" lon="1.33013">
        <ele>114</ele>
        <time>2018-10-09T13:35:53.094Z</time>
      </trkpt>
      <trkpt lat="48.11051" lon="1.33013">
        <ele>114</ele>
        <time>2018-10-09T13:35:54.094Z</time>
      </trkpt>
      <trkpt lat="48.11053" lon="1.33013">
        <ele>113</ele>
        <time>2018-10-09T13:35:55.094Z</time>
      </trkpt>
      <trkpt lat="48.11054" lon="1.33013">
        <ele>114</ele>
        <time>2018-10-09T13:35:56.094Z</time>
      </trkpt>
      <trkpt lat="48.11056" lon="1.33014">
        <ele>114</ele>
        <time>2018-10-09T13:35:57.094Z</time>
      </trkpt>
      <trkpt lat="48.11057" lon="1.33014">
        <ele>113</ele>
        <time>2018-10-09T13:35:58.094Z</time>
      </trkpt>
      <trkpt lat="48.11058" lon="1.33014">
        <ele>113</ele>
        <time>2018-10-09T13:35:59.094Z</time>
      </trkpt>
      <trkpt lat="48.1106" lon="1.33014">
        <ele>114</ele>
        <time>2018-10-09T13:36:00.094Z</time>
      </trkpt>
      <trkpt lat="48.11061" lon="1.33014">
        <ele>114</ele>
        <time>2018-10-09T13:36:01.094Z</time>
      </trkpt>
      <trkpt lat="48.11062" lon="1.33014">
        <ele>113</ele>
        <time>2018-10-09T13:36:02.094Z</time>
      </trkpt>
      <trkpt lat="48.11063" lon="1.33014">
        <ele>112</ele>
        <time>2018-10-09T13:36:03.094Z</time>
      </trkpt>
      <trkpt lat="48.11065" lon="1.33015">
        <ele>112</ele>
        <time>2018-10-09T13:36:04.094Z</time>
      </trkpt>
      <trkpt lat="48.11066" lon="1.33015">
        <ele>112</ele>
        <time>2018-10-09T13:36:05.094Z</time>
      </trkpt>
      <trkpt lat="48.11067" lon="1.33015">
        <ele>112</ele>
        <time>2018-10-09T13:36:06.094Z</time>
      </trkpt>
      <trkpt lat="48.11068" lon="1.33015">
        <ele>112</ele>
        <time>2018-10-09T13:36:07.094Z</time>
      </trkpt>
      <trkpt lat="48.11069" lon="1.33015">
        <ele>111</ele>
        <time>2018-10-09T13:36:08.094Z</time>
      </trkpt>
      <trkpt lat="48.11071" lon="1.33015">
        <ele>111</ele>
        <time>2018-10-09T13:36:09.094Z</time>
      </trkpt>
      <trkpt lat="48.11072" lon="1.33015">
        <ele>111</ele>
        <time>2018-10-09T13:36:10.094Z</time>
      </trkpt>
      <trkpt lat="48.11073" lon="1.33015">
        <ele>111</ele>
        <time>2018-10-09T13:36:11.094Z</time>
      </trkpt>
      <trkpt lat="48.11074" lon="1.33016">
        <ele>111</ele>
        <time>2018-10-09T13:36:12.094Z</time>
      </trkpt>
      <trkpt lat="48.11075" lon="1.33016">
        <ele>111</ele>
        <time>2018-10-09T13:36:13.094Z</time>
      </trkpt>
      <trkpt lat="48.11077" lon="1.33016">
        <ele>111</ele>
        <time>2018-10-09T13:36:14.094Z</time>
      </trkpt>
      <trkpt lat="48.11078" lon="1.33016">
        <ele>111</ele>
        <time>2018-10-09T13:36:15.094Z</time>
      </trkpt>
      <trkpt lat="48.11079" lon="1.33016">
        <ele>111</ele>
        <time>2018-10-09T13:36:16.094Z</time>
      </trkpt>
      <trkpt lat="48.11081" lon="1.33016">
        <ele>111</ele>
        <time>2018-10-09T13:36:17.094Z</time>
      </trkpt>
      <trkpt lat="48.11082" lon="1.33016">
        <ele>111</ele>
        <time>2018-10-09T13:36:18.094Z</time>
      </trkpt>
      <trkpt lat="48.11083" lon="1.33016">
        <ele>110</ele>
        <time>2018-10-09T13:36:19.094Z</time>
      </trkpt>
      <trkpt lat="48.11085" lon="1.33016">
        <ele>110</ele>
        <time>2018-10-09T13:36:20.094Z</time>
      </trkpt>
      <trkpt lat="48.11086" lon="1.33017">
        <ele>110</ele>
        <time>2018-10-09T13:36:21.094Z</time>
      </trkpt>
      <trkpt lat="48.11087" lon="1.33017">
        <ele>110</ele>
        <time>2018-10-09T13:36:22.094Z</time>
      </trkpt>
      <trkpt lat="48.11089" lon="1.33017">
        <ele>109</ele>
        <time>2018-10-09T13:36:23.094Z</time>
      </trkpt>
      <trkpt lat="48.1109" lon="1.33017">
        <ele>109</ele>
        <time>2018-10-09T13:36:24.094Z</time>
      </trkpt>
      <trkpt lat="48.11091" lon="1.33017">
        <ele>109</ele>
        <time>2018-10-09T13:36:25.094Z</time>
      </trkpt>
      <trkpt lat="48.11092" lon="1.33017">
        <ele>108</ele>
        <time>2018-10-09T13:36:26.094Z</time>
      </trkpt>
      <trkpt lat="48.11094" lon="1.33018">
        <ele>108</ele>
        <time>2018-10-09T13:36:27.094Z</time>
      </trkpt>
      <trkpt lat="48.11095" lon="1.33018">
        <ele>108</ele>
        <time>2018-10-09T13:36:28.094Z</time>
      </trkpt>
      <trkpt lat="48.11096" lon="1.33018">
        <ele>108</ele>
        <time>2018-10-09T13:36:29.094Z</time>
      </trkpt>
      <trkpt lat="48.11097" lon="1.33018">
        <ele>108</ele>
        <time>2018-10-09T13:36:30.094Z</time>
      </trkpt>
      <trkpt lat="48.11098" lon="1.33018">
        <ele>108</ele>
        <time>2018-10-09T13:36:31.094Z</time>
      </trkpt>
      <trkpt lat="48.111" lon="1.33018">
        <ele>108</ele>
        <time>2018-10-09T13:36:32.094Z</time>
      </trkpt>
      <trkpt lat="48.11101" lon="1.33019">
        <ele>107</ele>
        <time>2018-10-09T13:36:33.094Z</time>
      </trkpt>
      <trkpt lat="48.11102" lon="1.33019">
        <ele>107</ele>
        <time>2018-10-09T13:36:34.094Z</time>
      </trkpt>
      <trkpt lat="48.11104" lon="1.33019">
        <ele>107</ele>
        <time>2018-10-09T13:36:35.094Z</time>
      </trkpt>
      <trkpt lat="48.11105" lon="1.33019">
        <ele>106</ele>
        <time>2018-10-09T13:36:36.094Z</time>
      </trkpt>
      <trkpt lat="48.11106" lon="1.33019">
        <ele>106</ele>
        <time>2018-10-09T13:36:37.094Z</time>
      </trkpt>
      <trkpt lat="48.11108" lon="1.33019">
        <ele>106</ele>
        <time>2018-10-09T13:36:38.094Z</time>
      </trkpt>
      <trkpt lat="48.11109" lon="1.33019">
        <ele>106</ele>
        <time>2018-10-09T13:36:39.094Z</time>
      </trkpt>
      <trkpt lat="48.1111" lon="1.33019">
        <ele>106</ele>
        <time>2018-10-09T13:36:40.094Z</time>
      </trkpt>
      <trkpt lat="48.11112" lon="1.3302">
        <ele>106</ele>
        <time>2018-10-09T13:36:41.094Z</time>
      </trkpt>
      <trkpt lat="48.11113" lon="1.3302">
        <ele>106</ele>
        <time>2018-10-09T13:36:42.094Z</time>
      </trkpt>
      <trkpt lat="48.11114" lon="1.3302">
        <ele>105</ele>
        <time>2018-10-09T13:36:43.094Z</time>
      </trkpt>
      <trkpt lat="48.11115" lon="1.3302">
        <ele>106</ele>
        <time>2018-10-09T13:36:44.094Z</time>
      </trkpt>
      <trkpt lat="48.11117" lon="1.3302">
        <ele>106</ele>
        <time>2018-10-09T13:36:45.094Z</time>
      </trkpt>
      <trkpt lat="48.11118" lon="1.3302">
        <ele>105</ele>
        <time>2018-10-09T13:36:46.094Z</time>
      </trkpt>
      <trkpt lat="48.11119" lon="1.3302">
        <ele>105</ele>
        <time>2018-10-09T13:36:47.094Z</time>
      </trkpt>
      <trkpt lat="48.1112" lon="1.3302">
        <ele>105</ele>
        <time>2018-10-09T13:36:48.094Z</time>
      </trkpt>
      <trkpt lat="48.11122" lon="1.3302">
        <ele>105</ele>
        <time>2018-10-09T13:36:49.094Z</time>
      </trkpt>
      <trkpt lat="48.11123" lon="1.3302">
        <ele>104</ele>
        <time>2018-10-09T13:36:50.094Z</time>
      </trkpt>
      <trkpt lat="48.11124" lon="1.33021">
        <ele>104</ele>
        <time>2018-10-09T13:36:51.094Z</time>
      </trkpt>
      <trkpt lat="48.11126" lon="1.33021">
        <ele>104</ele>
        <time>2018-10-09T13:36:52.094Z</time>
      </trkpt>
      <trkpt lat="48.11127" lon="1.33021">
        <ele>104</ele>
        <time>2018-10-09T13:36:53.094Z</time>
      </trkpt>
      <trkpt lat="48.11128" lon="1.33021">
        <ele>105</ele>
        <time>2018-10-09T13:36:54.094Z</time>
      </trkpt>
      <trkpt lat="48.1113" lon="1.33021">
        <ele>105</ele>
        <time>2018-10-09T13:36:55.094Z</time>
      </trkpt>
      <trkpt lat="48.11131" lon="1.3302">
        <ele>105</ele>
        <time>2018-10-09T13:36:56.094Z</time>
      </trkpt>
      <trkpt lat="48.11133" lon="1.3302">
        <ele>106</ele>
        <time>2018-10-09T13:36:57.094Z</time>
      </trkpt>
      <trkpt lat="48.11134" lon="1.3302">
        <ele>106</ele>
        <time>2018-10-09T13:36:58.094Z</time>
      </trkpt>
      <trkpt lat="48.11136" lon="1.3302">
        <ele>106</ele>
        <time>2018-10-09T13:36:59.094Z</time>
      </trkpt>
      <trkpt lat="48.11137" lon="1.3302">
        <ele>106</ele>
        <time>2018-10-09T13:37:00.094Z</time>
      </trkpt>
      <trkpt lat="48.11138" lon="1.3302">
        <ele>107</ele>
        <time>2018-10-09T13:37:01.094Z</time>
      </trkpt>
      <trkpt lat="48.1114" lon="1.3302">
        <ele>107</ele>
        <time>2018-10-09T13:37:02.094Z</time>
      </trkpt>
      <trkpt lat="48.11141" lon="1.3302">
        <ele>107</ele>
        <time>2018-10-09T13:37:03.094Z</time>
      </trkpt>
      <trkpt lat="48.11142" lon="1.3302">
        <ele>108</ele>
        <time>2018-10-09T13:37:04.094Z</time>
      </trkpt>
      <trkpt lat="48.11144" lon="1.3302">
        <ele>108</ele>
        <time>2018-10-09T13:37:05.094Z</time>
      </trkpt>
      <trkpt lat="48.11145" lon="1.33021">
        <ele>108</ele>
        <time>2018-10-09T13:37:06.094Z</time>
      </trkpt>
      <trkpt lat="48.11146" lon="1.33021">
        <ele>108</ele>
        <time>2018-10-09T13:37:07.094Z</time>
      </trkpt>
      <trkpt lat="48.11148" lon="1.33021">
        <ele>108</ele>
        <time>2018-10-09T13:37:08.094Z</time>
      </trkpt>
      <trkpt lat="48.11149" lon="1.33021">
        <ele>107</ele>
        <time>2018-10-09T13:37:09.094Z</time>
      </trkpt>
      <trkpt lat="48.1115" lon="1.33021">
        <ele>107</ele>
        <time>2018-10-09T13:37:10.094Z</time>
      </trkpt>
      <trkpt lat="48.11152" lon="1.33021">
        <ele>107</ele>
        <time>2018-10-09T13:37:11.094Z</time>
      </trkpt>
      <trkpt lat="48.11153" lon="1.33021">
        <ele>106</ele>
        <time>2018-10-09T13:37:12.094Z</time>
      </trkpt>
      <trkpt lat="48.11154" lon="1.33021">
        <ele>106</ele>
        <time>2018-10-09T13:37:13.094Z</time>
      </trkpt>
      <trkpt lat="48.11155" lon="1.33022">
        <ele>106</ele>
        <time>2018-10-09T13:37:14.094Z</time>
      </trkpt>
      <trkpt lat="48.11157" lon="1.33022">
        <ele>106</ele>
        <time>2018-10-09T13:37:15.094Z</time>
      </trkpt>
      <trkpt lat="48.11158" lon="1.33022">
        <ele>106</ele>
        <time>2018-10-09T13:37:16.094Z</time>
      </trkpt>
      <trkpt lat="48.11159" lon="1.33022">
        <ele>106</ele>
        <time>2018-10-09T13:37:17.094Z</time>
      </trkpt>
      <trkpt lat="48.1116" lon="1.33022">
        <ele>105</ele>
        <time>2018-10-09T13:37:18.094Z</time>
      </trkpt>
      <trkpt lat="48.11162" lon="1.33022">
        <ele>105</ele>
        <time>2018-10-09T13:37:19.094Z</time>
      </trkpt>
      <trkpt lat="48.11163" lon="1.33022">
        <ele>106</ele>
        <time>2018-10-09T13:37:20.094Z</time>
      </trkpt>
      <trkpt lat="48.11164" lon="1.33022">
        <ele>105</ele>
        <time>2018-10-09T13:37:21.094Z</time>
      </trkpt>
      <trkpt lat="48.11165" lon="1.33022">
        <ele>105</ele>
        <time>2018-10-09T13:37:22.094Z</time>
      </trkpt>
      <trkpt lat="48.11167" lon="1.33022">
        <ele>105</ele>
        <time>2018-10-09T13:37:23.094Z</time>
      </trkpt>
      <trkpt lat="48.11168" lon="1.33022">
        <ele>105</ele>
        <time>2018-10-09T13:37:24.094Z</time>
      </trkpt>
      <trkpt lat="48.11169" lon="1.33022">
        <ele>105</ele>
        <time>2018-10-09T13:37:25.094Z</time>
      </trkpt>
      <trkpt lat="48.1117" lon="1.33022">
        <ele>105</ele>
        <time>2018-10-09T13:37:26.094Z</time>
      </trkpt>
      <trkpt lat="48.11172" lon="1.33022">
        <ele>105</ele>
        <time>2018-10-09T13:37:27.094Z</time>
      </trkpt>
      <trkpt lat="48.11173" lon="1.33022">
        <ele>105</ele>
        <time>2018-10-09T13:37:28.094Z</time>
      </trkpt>
      <trkpt lat="48.11174" lon="1.33022">
        <ele>105</ele>
        <time>2018-10-09T13:37:29.094Z</time>
      </trkpt>
      <trkpt lat="48.11175" lon="1.33023">
        <ele>105</ele>
        <time>2018-10-09T13:37:30.094Z</time>
      </trkpt>
      <trkpt lat="48.11177" lon="1.33023">
        <ele>105</ele>
        <time>2018-10-09T13:37:31.094Z</time>
      </trkpt>
      <trkpt lat="48.11178" lon="1.33023">
        <ele>104</ele>
        <time>2018-10-09T13:37:32.094Z</time>
      </trkpt>
      <trkpt lat="48.11179" lon="1.33023">
        <ele>104</ele>
        <time>2018-10-09T13:37:33.094Z</time>
      </trkpt>
      <trkpt lat="48.11181" lon="1.33023">
        <ele>104</ele>
        <time>2018-10-09T13:37:34.094Z</time>
      </trkpt>
      <trkpt lat="48.11182" lon="1.33023">
        <ele>104</ele>
        <time>2018-10-09T13:37:35.094Z</time>
      </trkpt>
      <trkpt lat="48.11183" lon="1.33023">
        <ele>104</ele>
        <time>2018-10-09T13:37:36.094Z</time>
      </trkpt>
      <trkpt lat="48.11185" lon="1.33023">
        <ele>104</ele>
        <time>2018-10-09T13:37:37.094Z</time>
      </trkpt>
      <trkpt lat="48.11186" lon="1.33023">
        <ele>104</ele>
        <time>2018-10-09T13:37:38.094Z</time>
      </trkpt>
      <trkpt lat="48.11187" lon="1.33023">
        <ele>104</ele>
        <time>2018-10-09T13:37:39.094Z</time>
      </trkpt>
      <trkpt lat="48.11188" lon="1.33023">
        <ele>104</ele>
        <time>2018-10-09T13:37:40.094Z</time>
      </trkpt>
      <trkpt lat="48.1119" lon="1.33023">
        <ele>103</ele>
        <time>2018-10-09T13:37:41.094Z</time>
      </trkpt>
      <trkpt lat="48.11191" lon="1.33023">
        <ele>103</ele>
        <time>2018-10-09T13:37:42.094Z</time>
      </trkpt>
      <trkpt lat="48.11193" lon="1.33023">
        <ele>104</ele>
        <time>2018-10-09T13:37:43.094Z</time>
      </trkpt>
      <trkpt lat="48.11194" lon="1.33023">
        <ele>104</ele>
        <time>2018-10-09T13:37:44.094Z</time>
      </trkpt>
      <trkpt lat="48.11195" lon="1.33023">
        <ele>103</ele>
        <time>2018-10-09T13:37:45.094Z</time>
      </trkpt>
      <trkpt lat="48.11197" lon="1.33023">
        <ele>103</ele>
        <time>2018-10-09T13:37:46.094Z</time>
      </trkpt>
      <trkpt lat="48.11198" lon="1.33023">
        <ele>104</ele>
        <time>2018-10-09T13:37:47.094Z</time>
      </trkpt>
      <trkpt lat="48.112" lon="1.33023">
        <ele>104</ele>
        <time>2018-10-09T13:37:48.094Z</time>
      </trkpt>
      <trkpt lat="48.11201" lon="1.33023">
        <ele>104</ele>
        <time>2018-10-09T13:37:49.094Z</time>
      </trkpt>
      <trkpt lat="48.11202" lon="1.33023">
        <ele>103</ele>
        <time>2018-10-09T13:37:50.094Z</time>
      </trkpt>
      <trkpt lat="48.11204" lon="1.33023">
        <ele>103</ele>
        <time>2018-10-09T13:37:51.094Z</time>
      </trkpt>
      <trkpt lat="48.11205" lon="1.33023">
        <ele>104</ele>
        <time>2018-10-09T13:37:52.094Z</time>
      </trkpt>
      <trkpt lat="48.11206" lon="1.33023">
        <ele>103</ele>
        <time>2018-10-09T13:37:53.094Z</time>
      </trkpt>
      <trkpt lat="48.11208" lon="1.33023">
        <ele>103</ele>
        <time>2018-10-09T13:37:54.094Z</time>
      </trkpt>
      <trkpt lat="48.11209" lon="1.33024">
        <ele>103</ele>
        <time>2018-10-09T13:37:55.094Z</time>
      </trkpt>
      <trkpt lat="48.1121" lon="1.33024">
        <ele>104</ele>
        <time>2018-10-09T13:37:56.094Z</time>
      </trkpt>
      <trkpt lat="48.11212" lon="1.33024">
        <ele>104</ele>
        <time>2018-10-09T13:37:57.094Z</time>
      </trkpt>
      <trkpt lat="48.11213" lon="1.33024">
        <ele>104</ele>
        <time>2018-10-09T13:37:58.094Z</time>
      </trkpt>
      <trkpt lat="48.11214" lon="1.33024">
        <ele>104</ele>
        <time>2018-10-09T13:37:59.094Z</time>
      </trkpt>
      <trkpt lat="48.11216" lon="1.33024">
        <ele>103</ele>
        <time>2018-10-09T13:38:00.094Z</time>
      </trkpt>
      <trkpt lat="48.11217" lon="1.33024">
        <ele>103</ele>
        <time>2018-10-09T13:38:01.094Z</time>
      </trkpt>
      <trkpt lat="48.11218" lon="1.33024">
        <ele>103</ele>
        <time>2018-10-09T13:38:02.094Z</time>
      </trkpt>
      <trkpt lat="48.1122" lon="1.33024">
        <ele>104</ele>
        <time>2018-10-09T13:38:03.094Z</time>
      </trkpt>
      <trkpt lat="48.11221" lon="1.33024">
        <ele>104</ele>
        <time>2018-10-09T13:38:04.094Z</time>
      </trkpt>
      <trkpt lat="48.11223" lon="1.33024">
        <ele>104</ele>
        <time>2018-10-09T13:38:05.094Z</time>
      </trkpt>
      <trkpt lat="48.11224" lon="1.33024">
        <ele>104</ele>
        <time>2018-10-09T13:38:06.094Z</time>
      </trkpt>
      <trkpt lat="48.11225" lon="1.33024">
        <ele>104</ele>
        <time>2018-10-09T13:38:07.094Z</time>
      </trkpt>
      <trkpt lat="48.11227" lon="1.33024">
        <ele>104</ele>
        <time>2018-10-09T13:38:08.094Z</time>
      </trkpt>
      <trkpt lat="48.11228" lon="1.33024">
        <ele>104</ele>
        <time>2018-10-09T13:38:09.094Z</time>
      </trkpt>
      <trkpt lat="48.11229" lon="1.33024">
        <ele>104</ele>
        <time>2018-10-09T13:38:10.094Z</time>
      </trkpt>
      <trkpt lat="48.11231" lon="1.33024">
        <ele>105</ele>
        <time>2018-10-09T13:38:11.094Z</time>
      </trkpt>
      <trkpt lat="48.11232" lon="1.33025">
        <ele>105</ele>
        <time>2018-10-09T13:38:12.094Z</time>
      </trkpt>
      <trkpt lat="48.11234" lon="1.33025">
        <ele>105</ele>
        <time>2018-10-09T13:38:13.094Z</time>
      </trkpt>
      <trkpt lat="48.11235" lon="1.33025">
        <ele>106</ele>
        <time>2018-10-09T13:38:14.094Z</time>
      </trkpt>
      <trkpt lat="48.11237" lon="1.33025">
        <ele>106</ele>
        <time>2018-10-09T13:38:15.094Z</time>
      </trkpt>
      <trkpt lat="48.11238" lon="1.33025">
        <ele>106</ele>
        <time>2018-10-09T13:38:16.094Z</time>
      </trkpt>
      <trkpt lat="48.11239" lon="1.33025">
        <ele>106</ele>
        <time>2018-10-09T13:38:17.094Z</time>
      </trkpt>
      <trkpt lat="48.11241" lon="1.33025">
        <ele>106</ele>
        <time>2018-10-09T13:38:18.094Z</time>
      </trkpt>
      <trkpt lat="48.11242" lon="1.33025">
        <ele>106</ele>
        <time>2018-10-09T13:38:19.094Z</time>
      </trkpt>
      <trkpt lat="48.11243" lon="1.33025">
        <ele>106</ele>
        <time>2018-10-09T13:38:20.094Z</time>
      </trkpt>
      <trkpt lat="48.11244" lon="1.33025">
        <ele>106</ele>
        <time>2018-10-09T13:38:21.094Z</time>
      </trkpt>
      <trkpt lat="48.11246" lon="1.33025">
        <ele>106</ele>
        <time>2018-10-09T13:38:22.094Z</time>
      </trkpt>
      <trkpt lat="48.11247" lon="1.33025">
        <ele>106</ele>
        <time>2018-10-09T13:38:23.094Z</time>
      </trkpt>
      <trkpt lat="48.11248" lon="1.33025">
        <ele>106</ele>
        <time>2018-10-09T13:38:24.094Z</time>
      </trkpt>
      <trkpt lat="48.1125" lon="1.33025">
        <ele>106</ele>
        <time>2018-10-09T13:38:25.094Z</time>
      </trkpt>
      <trkpt lat="48.11251" lon="1.33025">
        <ele>106</ele>
        <time>2018-10-09T13:38:26.094Z</time>
      </trkpt>
      <trkpt lat="48.11252" lon="1.33026">
        <ele>106</ele>
        <time>2018-10-09T13:38:27.094Z</time>
      </trkpt>
      <trkpt lat="48.11254" lon="1.33026">
        <ele>106</ele>
        <time>2018-10-09T13:38:28.094Z</time>
      </trkpt>
      <trkpt lat="48.11255" lon="1.33026">
        <ele>106</ele>
        <time>2018-10-09T13:38:29.094Z</time>
      </trkpt>
      <trkpt lat="48.11256" lon="1.33026">
        <ele>106</ele>
        <time>2018-10-09T13:38:30.094Z</time>
      </trkpt>
      <trkpt lat="48.11257" lon="1.33026">
        <ele>106</ele>
        <time>2018-10-09T13:38:31.094Z</time>
      </trkpt>
      <trkpt lat="48.11259" lon="1.33025">
        <ele>106</ele>
        <time>2018-10-09T13:38:32.094Z</time>
      </trkpt>
      <trkpt lat="48.1126" lon="1.33025">
        <ele>106</ele>
        <time>2018-10-09T13:38:33.094Z</time>
      </trkpt>
      <trkpt lat="48.11261" lon="1.33025">
        <ele>106</ele>
        <time>2018-10-09T13:38:34.094Z</time>
      </trkpt>
      <trkpt lat="48.11262" lon="1.33026">
        <ele>106</ele>
        <time>2018-10-09T13:38:35.094Z</time>
      </trkpt>
      <trkpt lat="48.11263" lon="1.33026">
        <ele>106</ele>
        <time>2018-10-09T13:38:36.094Z</time>
      </trkpt>
      <trkpt lat="48.11265" lon="1.33026">
        <ele>106</ele>
        <time>2018-10-09T13:38:37.094Z</time>
      </trkpt>
      <trkpt lat="48.11266" lon="1.33026">
        <ele>106</ele>
        <time>2018-10-09T13:38:38.094Z</time>
      </trkpt>
      <trkpt lat="48.11267" lon="1.33026">
        <ele>105</ele>
        <time>2018-10-09T13:38:39.094Z</time>
      </trkpt>
      <trkpt lat="48.11269" lon="1.33026">
        <ele>105</ele>
        <time>2018-10-09T13:38:40.094Z</time>
      </trkpt>
      <trkpt lat="48.1127" lon="1.33026">
        <ele>105</ele>
        <time>2018-10-09T13:38:41.094Z</time>
      </trkpt>
      <trkpt lat="48.11271" lon="1.33026">
        <ele>105</ele>
        <time>2018-10-09T13:38:42.094Z</time>
      </trkpt>
      <trkpt lat="48.11272" lon="1.33026">
        <ele>105</ele>
        <time>2018-10-09T13:38:43.094Z</time>
      </trkpt>
      <trkpt lat="48.11274" lon="1.33026">
        <ele>105</ele>
        <time>2018-10-09T13:38:44.094Z</time>
      </trkpt>
      <trkpt lat="48.11275" lon="1.33026">
        <ele>105</ele>
        <time>2018-10-09T13:38:45.094Z</time>
      </trkpt>
      <trkpt lat="48.11276" lon="1.33026">
        <ele>105</ele>
        <time>2018-10-09T13:38:46.094Z</time>
      </trkpt>
      <trkpt lat="48.11277" lon="1.33026">
        <ele>105</ele>
        <time>2018-10-09T13:38:47.094Z</time>
      </trkpt>
      <trkpt lat="48.11278" lon="1.33026">
        <ele>105</ele>
        <time>2018-10-09T13:38:48.094Z</time>
      </trkpt>
      <trkpt lat="48.1128" lon="1.33026">
        <ele>105</ele>
        <time>2018-10-09T13:38:49.094Z</time>
      </trkpt>
      <trkpt lat="48.11281" lon="1.33026">
        <ele>105</ele>
        <time>2018-10-09T13:38:50.094Z</time>
      </trkpt>
      <trkpt lat="48.11282" lon="1.33026">
        <ele>105</ele>
        <time>2018-10-09T13:38:51.094Z</time>
      </trkpt>
      <trkpt lat="48.11283" lon="1.33026">
        <ele>106</ele>
        <time>2018-10-09T13:38:52.094Z</time>
      </trkpt>
      <trkpt lat="48.11285" lon="1.33026">
        <ele>106</ele>
        <time>2018-10-09T13:38:53.094Z</time>
      </trkpt>
      <trkpt lat="48.11286" lon="1.33026">
        <ele>106</ele>
        <time>2018-10-09T13:38:54.094Z</time>
      </trkpt>
      <trkpt lat="48.11287" lon="1.33025">
        <ele>107</ele>
        <time>2018-10-09T13:38:55.094Z</time>
      </trkpt>
      <trkpt lat="48.11288" lon="1.33025">
        <ele>107</ele>
        <time>2018-10-09T13:38:56.094Z</time>
      </trkpt>
      <trkpt lat="48.1129" lon="1.33026">
        <ele>107</ele>
        <time>2018-10-09T13:38:57.094Z</time>
      </trkpt>
      <trkpt lat="48.11291" lon="1.33026">
        <ele>107</ele>
        <time>2018-10-09T13:38:58.094Z</time>
      </trkpt>
      <trkpt lat="48.11292" lon="1.33028">
        <ele>108</ele>
        <time>2018-10-09T13:38:59.094Z</time>
      </trkpt>
      <trkpt lat="48.11293" lon="1.33029">
        <ele>108</ele>
        <time>2018-10-09T13:39:00.094Z</time>
      </trkpt>
      <trkpt lat="48.11294" lon="1.33031">
        <ele>108</ele>
        <time>2018-10-09T13:39:01.094Z</time>
      </trkpt>
      <trkpt lat="48.11294" lon="1.33032">
        <ele>108</ele>
        <time>2018-10-09T13:39:02.094Z</time>
      </trkpt>
      <trkpt lat="48.11295" lon="1.33034">
        <ele>108</ele>
        <time>2018-10-09T13:39:03.094Z</time>
      </trkpt>
      <trkpt lat="48.11295" lon="1.33035">
        <ele>109</ele>
        <time>2018-10-09T13:39:04.094Z</time>
      </trkpt>
      <trkpt lat="48.11296" lon="1.33037">
        <ele>108</ele>
        <time>2018-10-09T13:39:05.094Z</time>
      </trkpt>
      <trkpt lat="48.11296" lon="1.33039">
        <ele>108</ele>
        <time>2018-10-09T13:39:06.094Z</time>
      </trkpt>
      <trkpt lat="48.11296" lon="1.33041">
        <ele>108</ele>
        <time>2018-10-09T13:39:07.094Z</time>
      </trkpt>
      <trkpt lat="48.11297" lon="1.33043">
        <ele>108</ele>
        <time>2018-10-09T13:39:08.094Z</time>
      </trkpt>
      <trkpt lat="48.11297" lon="1.33045">
        <ele>108</ele>
        <time>2018-10-09T13:39:09.094Z</time>
      </trkpt>
      <trkpt lat="48.11298" lon="1.33046">
        <ele>108</ele>
        <time>2018-10-09T13:39:10.094Z</time>
      </trkpt>
      <trkpt lat="48.11298" lon="1.33048">
        <ele>108</ele>
        <time>2018-10-09T13:39:11.094Z</time>
      </trkpt>
      <trkpt lat="48.11298" lon="1.3305">
        <ele>108</ele>
        <time>2018-10-09T13:39:12.094Z</time>
      </trkpt>
      <trkpt lat="48.11299" lon="1.33051">
        <ele>108</ele>
        <time>2018-10-09T13:39:13.094Z</time>
      </trkpt>
      <trkpt lat="48.113" lon="1.33053">
        <ele>108</ele>
        <time>2018-10-09T13:39:14.094Z</time>
      </trkpt>
      <trkpt lat="48.113" lon="1.33054">
        <ele>109</ele>
        <time>2018-10-09T13:39:15.094Z</time>
      </trkpt>
      <trkpt lat="48.11301" lon="1.33056">
        <ele>109</ele>
        <time>2018-10-09T13:39:16.094Z</time>
      </trkpt>
      <trkpt lat="48.11301" lon="1.33057">
        <ele>109</ele>
        <time>2018-10-09T13:39:17.094Z</time>
      </trkpt>
      <trkpt lat="48.11302" lon="1.33059">
        <ele>109</ele>
        <time>2018-10-09T13:39:18.094Z</time>
      </trkpt>
      <trkpt lat="48.11302" lon="1.3306">
        <ele>108</ele>
        <time>2018-10-09T13:39:19.094Z</time>
      </trkpt>
      <trkpt lat="48.11302" lon="1.33061">
        <ele>107</ele>
        <time>2018-10-09T13:39:20.094Z</time>
      </trkpt>
      <trkpt lat="48.11301" lon="1.33063">
        <ele>107</ele>
        <time>2018-10-09T13:39:21.094Z</time>
      </trkpt>
      <trkpt lat="48.113" lon="1.33063">
        <ele>107</ele>
        <time>2018-10-09T13:39:22.094Z</time>
      </trkpt>
      <trkpt lat="48.11299" lon="1.33064">
        <ele>107</ele>
        <time>2018-10-09T13:39:23.094Z</time>
      </trkpt>
      <trkpt lat="48.11298" lon="1.33065">
        <ele>107</ele>
        <time>2018-10-09T13:39:24.094Z</time>
      </trkpt>
      <trkpt lat="48.11298" lon="1.33066">
        <ele>106</ele>
        <time>2018-10-09T13:39:25.094Z</time>
      </trkpt>
      <trkpt lat="48.11297" lon="1.33066">
        <ele>106</ele>
        <time>2018-10-09T13:39:26.094Z</time>
      </trkpt>
      <trkpt lat="48.11297" lon="1.33067">
        <ele>106</ele>
        <time>2018-10-09T13:39:27.094Z</time>
      </trkpt>
      <trkpt lat="48.11297" lon="1.33067">
        <ele>106</ele>
        <time>2018-10-09T13:39:28.094Z</time>
      </trkpt>
      <trkpt lat="48.11297" lon="1.33067">
        <ele>106</ele>
        <time>2018-10-09T13:39:29.094Z</time>
      </trkpt>
      <trkpt lat="48.11297" lon="1.33067">
        <ele>106</ele>
        <time>2018-10-09T13:39:30.094Z</time>
      </trkpt>
      <trkpt lat="48.11297" lon="1.33067">
        <ele>106</ele>
        <time>2018-10-09T13:39:31.094Z</time>
      </trkpt>
      <trkpt lat="48.11297" lon="1.33067">
        <ele>106</ele>
        <time>2018-10-09T13:39:32.094Z</time>
      </trkpt>
      <trkpt lat="48.11297" lon="1.33067">
        <ele>106</ele>
        <time>2018-10-09T13:39:33.094Z</time>
      </trkpt>
      <trkpt lat="48.113" lon="1.33071">
        <ele>105</ele>
        <time>2018-10-09T13:39:34.102Z</time>
      </trkpt>
      <trkpt lat="48.113" lon="1.33072">
        <ele>105</ele>
        <time>2018-10-09T13:39:35.102Z</time>
      </trkpt>
      <trkpt lat="48.11301" lon="1.33073">
        <ele>105</ele>
        <time>2018-10-09T13:39:36.102Z</time>
      </trkpt>
      <trkpt lat="48.11302" lon="1.33074">
        <ele>105</ele>
        <time>2018-10-09T13:39:37.102Z</time>
      </trkpt>
      <trkpt lat="48.11303" lon="1.33075">
        <ele>105</ele>
        <time>2018-10-09T13:39:38.102Z</time>
      </trkpt>
      <trkpt lat="48.11304" lon="1.33076">
        <ele>105</ele>
        <time>2018-10-09T13:39:39.102Z</time>
      </trkpt>
      <trkpt lat="48.11304" lon="1.33077">
        <ele>106</ele>
        <time>2018-10-09T13:39:40.102Z</time>
      </trkpt>
      <trkpt lat="48.11305" lon="1.33078">
        <ele>106</ele>
        <time>2018-10-09T13:39:41.102Z</time>
      </trkpt>
      <trkpt lat="48.11306" lon="1.3308">
        <ele>107</ele>
        <time>2018-10-09T13:39:42.102Z</time>
      </trkpt>
      <trkpt lat="48.11306" lon="1.33081">
        <ele>107</ele>
        <time>2018-10-09T13:39:43.102Z</time>
      </trkpt>
      <trkpt lat="48.11307" lon="1.33083">
        <ele>108</ele>
        <time>2018-10-09T13:39:44.102Z</time>
      </trkpt>
      <trkpt lat="48.11307" lon="1.33085">
        <ele>108</ele>
        <time>2018-10-09T13:39:45.102Z</time>
      </trkpt>
      <trkpt lat="48.11308" lon="1.33087">
        <ele>109</ele>
        <time>2018-10-09T13:39:46.102Z</time>
      </trkpt>
      <trkpt lat="48.11308" lon="1.33088">
        <ele>109</ele>
        <time>2018-10-09T13:39:47.102Z</time>
      </trkpt>
      <trkpt lat="48.11309" lon="1.3309">
        <ele>109</ele>
        <time>2018-10-09T13:39:48.102Z</time>
      </trkpt>
      <trkpt lat="48.11309" lon="1.33092">
        <ele>109</ele>
        <time>2018-10-09T13:39:49.102Z</time>
      </trkpt>
      <trkpt lat="48.11309" lon="1.33094">
        <ele>109</ele>
        <time>2018-10-09T13:39:50.102Z</time>
      </trkpt>
      <trkpt lat="48.1131" lon="1.33095">
        <ele>110</ele>
        <time>2018-10-09T13:39:51.102Z</time>
      </trkpt>
      <trkpt lat="48.1131" lon="1.33097">
        <ele>110</ele>
        <time>2018-10-09T13:39:52.102Z</time>
      </trkpt>
      <trkpt lat="48.11311" lon="1.33098">
        <ele>110</ele>
        <time>2018-10-09T13:39:53.102Z</time>
      </trkpt>
      <trkpt lat="48.11311" lon="1.33099">
        <ele>111</ele>
        <time>2018-10-09T13:39:54.102Z</time>
      </trkpt>
      <trkpt lat="48.11311" lon="1.33101">
        <ele>111</ele>
        <time>2018-10-09T13:39:55.102Z</time>
      </trkpt>
      <trkpt lat="48.11312" lon="1.33102">
        <ele>111</ele>
        <time>2018-10-09T13:39:56.102Z</time>
      </trkpt>
      <trkpt lat="48.11312" lon="1.33104">
        <ele>111</ele>
        <time>2018-10-09T13:39:57.102Z</time>
      </trkpt>
      <trkpt lat="48.11313" lon="1.33105">
        <ele>111</ele>
        <time>2018-10-09T13:39:58.102Z</time>
      </trkpt>
      <trkpt lat="48.11313" lon="1.33107">
        <ele>111</ele>
        <time>2018-10-09T13:39:59.102Z</time>
      </trkpt>
      <trkpt lat="48.11314" lon="1.33108">
        <ele>112</ele>
        <time>2018-10-09T13:40:00.102Z</time>
      </trkpt>
      <trkpt lat="48.11314" lon="1.3311">
        <ele>111</ele>
        <time>2018-10-09T13:40:01.102Z</time>
      </trkpt>
      <trkpt lat="48.11314" lon="1.33112">
        <ele>110</ele>
        <time>2018-10-09T13:40:02.102Z</time>
      </trkpt>
      <trkpt lat="48.11315" lon="1.33114">
        <ele>109</ele>
        <time>2018-10-09T13:40:03.102Z</time>
      </trkpt>
      <trkpt lat="48.11315" lon="1.33116">
        <ele>109</ele>
        <time>2018-10-09T13:40:04.102Z</time>
      </trkpt>
      <trkpt lat="48.11315" lon="1.33119">
        <ele>109</ele>
        <time>2018-10-09T13:40:05.102Z</time>
      </trkpt>
      <trkpt lat="48.11315" lon="1.3312">
        <ele>109</ele>
        <time>2018-10-09T13:40:06.102Z</time>
      </trkpt>
      <trkpt lat="48.11316" lon="1.33122">
        <ele>109</ele>
        <time>2018-10-09T13:40:07.102Z</time>
      </trkpt>
      <trkpt lat="48.11316" lon="1.33124">
        <ele>109</ele>
        <time>2018-10-09T13:40:08.102Z</time>
      </trkpt>
      <trkpt lat="48.11316" lon="1.33126">
        <ele>109</ele>
        <time>2018-10-09T13:40:09.102Z</time>
      </trkpt>
      <trkpt lat="48.11317" lon="1.33128">
        <ele>109</ele>
        <time>2018-10-09T13:40:10.102Z</time>
      </trkpt>
      <trkpt lat="48.11318" lon="1.3313">
        <ele>110</ele>
        <time>2018-10-09T13:40:11.102Z</time>
      </trkpt>
      <trkpt lat="48.11318" lon="1.33131">
        <ele>110</ele>
        <time>2018-10-09T13:40:12.102Z</time>
      </trkpt>
      <trkpt lat="48.11319" lon="1.33133">
        <ele>110</ele>
        <time>2018-10-09T13:40:13.102Z</time>
      </trkpt>
      <trkpt lat="48.11319" lon="1.33135">
        <ele>110</ele>
        <time>2018-10-09T13:40:14.102Z</time>
      </trkpt>
      <trkpt lat="48.1132" lon="1.33137">
        <ele>110</ele>
        <time>2018-10-09T13:40:15.102Z</time>
      </trkpt>
      <trkpt lat="48.1132" lon="1.33139">
        <ele>110</ele>
        <time>2018-10-09T13:40:16.102Z</time>
      </trkpt>
      <trkpt lat="48.1132" lon="1.3314">
        <ele>110</ele>
        <time>2018-10-09T13:40:17.102Z</time>
      </trkpt>
      <trkpt lat="48.11321" lon="1.33141">
        <ele>109</ele>
        <time>2018-10-09T13:40:18.102Z</time>
      </trkpt>
      <trkpt lat="48.11321" lon="1.33143">
        <ele>109</ele>
        <time>2018-10-09T13:40:19.102Z</time>
      </trkpt>
      <trkpt lat="48.11322" lon="1.33145">
        <ele>109</ele>
        <time>2018-10-09T13:40:20.102Z</time>
      </trkpt>
      <trkpt lat="48.11322" lon="1.33146">
        <ele>109</ele>
        <time>2018-10-09T13:40:21.102Z</time>
      </trkpt>
      <trkpt lat="48.11323" lon="1.33148">
        <ele>109</ele>
        <time>2018-10-09T13:40:22.102Z</time>
      </trkpt>
      <trkpt lat="48.11323" lon="1.3315">
        <ele>109</ele>
        <time>2018-10-09T13:40:23.102Z</time>
      </trkpt>
      <trkpt lat="48.11324" lon="1.33151">
        <ele>109</ele>
        <time>2018-10-09T13:40:24.102Z</time>
      </trkpt>
      <trkpt lat="48.11324" lon="1.33153">
        <ele>109</ele>
        <time>2018-10-09T13:40:25.102Z</time>
      </trkpt>
      <trkpt lat="48.11325" lon="1.33155">
        <ele>109</ele>
        <time>2018-10-09T13:40:26.102Z</time>
      </trkpt>
      <trkpt lat="48.11325" lon="1.33156">
        <ele>109</ele>
        <time>2018-10-09T13:40:27.102Z</time>
      </trkpt>
      <trkpt lat="48.11326" lon="1.33158">
        <ele>108</ele>
        <time>2018-10-09T13:40:28.102Z</time>
      </trkpt>
      <trkpt lat="48.11326" lon="1.3316">
        <ele>109</ele>
        <time>2018-10-09T13:40:29.102Z</time>
      </trkpt>
      <trkpt lat="48.11327" lon="1.33162">
        <ele>109</ele>
        <time>2018-10-09T13:40:30.102Z</time>
      </trkpt>
      <trkpt lat="48.11327" lon="1.33163">
        <ele>109</ele>
        <time>2018-10-09T13:40:31.102Z</time>
      </trkpt>
      <trkpt lat="48.11328" lon="1.33165">
        <ele>109</ele>
        <time>2018-10-09T13:40:32.102Z</time>
      </trkpt>
      <trkpt lat="48.11329" lon="1.33167">
        <ele>109</ele>
        <time>2018-10-09T13:40:33.102Z</time>
      </trkpt>
      <trkpt lat="48.11329" lon="1.33169">
        <ele>108</ele>
        <time>2018-10-09T13:40:34.102Z</time>
      </trkpt>
      <trkpt lat="48.1133" lon="1.3317">
        <ele>108</ele>
        <time>2018-10-09T13:40:35.102Z</time>
      </trkpt>
      <trkpt lat="48.1133" lon="1.33172">
        <ele>108</ele>
        <time>2018-10-09T13:40:36.102Z</time>
      </trkpt>
      <trkpt lat="48.1133" lon="1.33173">
        <ele>108</ele>
        <time>2018-10-09T13:40:37.102Z</time>
      </trkpt>
      <trkpt lat="48.11331" lon="1.33175">
        <ele>108</ele>
        <time>2018-10-09T13:40:38.102Z</time>
      </trkpt>
      <trkpt lat="48.11331" lon="1.33177">
        <ele>108</ele>
        <time>2018-10-09T13:40:39.102Z</time>
      </trkpt>
      <trkpt lat="48.11332" lon="1.33179">
        <ele>108</ele>
        <time>2018-10-09T13:40:40.102Z</time>
      </trkpt>
      <trkpt lat="48.11332" lon="1.3318">
        <ele>108</ele>
        <time>2018-10-09T13:40:41.102Z</time>
      </trkpt>
      <trkpt lat="48.11333" lon="1.33182">
        <ele>107</ele>
        <time>2018-10-09T13:40:42.102Z</time>
      </trkpt>
      <trkpt lat="48.11333" lon="1.33184">
        <ele>107</ele>
        <time>2018-10-09T13:40:43.102Z</time>
      </trkpt>
      <trkpt lat="48.11333" lon="1.33186">
        <ele>107</ele>
        <time>2018-10-09T13:40:44.102Z</time>
      </trkpt>
      <trkpt lat="48.11334" lon="1.33187">
        <ele>107</ele>
        <time>2018-10-09T13:40:45.102Z</time>
      </trkpt>
      <trkpt lat="48.11334" lon="1.33189">
        <ele>107</ele>
        <time>2018-10-09T13:40:46.102Z</time>
      </trkpt>
      <trkpt lat="48.11335" lon="1.33191">
        <ele>107</ele>
        <time>2018-10-09T13:40:47.102Z</time>
      </trkpt>
      <trkpt lat="48.11335" lon="1.33192">
        <ele>107</ele>
        <time>2018-10-09T13:40:48.102Z</time>
      </trkpt>
      <trkpt lat="48.11336" lon="1.33194">
        <ele>108</ele>
        <time>2018-10-09T13:40:49.102Z</time>
      </trkpt>
      <trkpt lat="48.11336" lon="1.33196">
        <ele>107</ele>
        <time>2018-10-09T13:40:50.102Z</time>
      </trkpt>
      <trkpt lat="48.11337" lon="1.33198">
        <ele>108</ele>
        <time>2018-10-09T13:40:51.102Z</time>
      </trkpt>
      <trkpt lat="48.11337" lon="1.33199">
        <ele>107</ele>
        <time>2018-10-09T13:40:52.102Z</time>
      </trkpt>
      <trkpt lat="48.11337" lon="1.33201">
        <ele>107</ele>
        <time>2018-10-09T13:40:53.102Z</time>
      </trkpt>
      <trkpt lat="48.11338" lon="1.33203">
        <ele>107</ele>
        <time>2018-10-09T13:40:54.102Z</time>
      </trkpt>
      <trkpt lat="48.11338" lon="1.33205">
        <ele>107</ele>
        <time>2018-10-09T13:40:55.102Z</time>
      </trkpt>
      <trkpt lat="48.11339" lon="1.33207">
        <ele>107</ele>
        <time>2018-10-09T13:40:56.102Z</time>
      </trkpt>
      <trkpt lat="48.11339" lon="1.33209">
        <ele>107</ele>
        <time>2018-10-09T13:40:57.102Z</time>
      </trkpt>
      <trkpt lat="48.1134" lon="1.33211">
        <ele>107</ele>
        <time>2018-10-09T13:40:58.102Z</time>
      </trkpt>
      <trkpt lat="48.1134" lon="1.33212">
        <ele>107</ele>
        <time>2018-10-09T13:40:59.102Z</time>
      </trkpt>
      <trkpt lat="48.11341" lon="1.33214">
        <ele>107</ele>
        <time>2018-10-09T13:41:00.102Z</time>
      </trkpt>
      <trkpt lat="48.11341" lon="1.33216">
        <ele>107</ele>
        <time>2018-10-09T13:41:01.102Z</time>
      </trkpt>
      <trkpt lat="48.11342" lon="1.33218">
        <ele>107</ele>
        <time>2018-10-09T13:41:02.102Z</time>
      </trkpt>
      <trkpt lat="48.11342" lon="1.3322">
        <ele>107</ele>
        <time>2018-10-09T13:41:03.102Z</time>
      </trkpt>
      <trkpt lat="48.11343" lon="1.33222">
        <ele>107</ele>
        <time>2018-10-09T13:41:04.102Z</time>
      </trkpt>
      <trkpt lat="48.11343" lon="1.33224">
        <ele>107</ele>
        <time>2018-10-09T13:41:05.102Z</time>
      </trkpt>
      <trkpt lat="48.11343" lon="1.33226">
        <ele>107</ele>
        <time>2018-10-09T13:41:06.102Z</time>
      </trkpt>
      <trkpt lat="48.11344" lon="1.33228">
        <ele>107</ele>
        <time>2018-10-09T13:41:07.102Z</time>
      </trkpt>
      <trkpt lat="48.11344" lon="1.3323">
        <ele>106</ele>
        <time>2018-10-09T13:41:08.102Z</time>
      </trkpt>
      <trkpt lat="48.11345" lon="1.33232">
        <ele>107</ele>
        <time>2018-10-09T13:41:09.102Z</time>
      </trkpt>
      <trkpt lat="48.11345" lon="1.33234">
        <ele>107</ele>
        <time>2018-10-09T13:41:10.102Z</time>
      </trkpt>
      <trkpt lat="48.11345" lon="1.33236">
        <ele>107</ele>
        <time>2018-10-09T13:41:11.102Z</time>
      </trkpt>
      <trkpt lat="48.11346" lon="1.33237">
        <ele>107</ele>
        <time>2018-10-09T13:41:12.102Z</time>
      </trkpt>
      <trkpt lat="48.11347" lon="1.33239">
        <ele>107</ele>
        <time>2018-10-09T13:41:13.102Z</time>
      </trkpt>
      <trkpt lat="48.11347" lon="1.33241">
        <ele>107</ele>
        <time>2018-10-09T13:41:14.102Z</time>
      </trkpt>
      <trkpt lat="48.11348" lon="1.33243">
        <ele>107</ele>
        <time>2018-10-09T13:41:15.102Z</time>
      </trkpt>
      <trkpt lat="48.11349" lon="1.33245">
        <ele>107</ele>
        <time>2018-10-09T13:41:16.102Z</time>
      </trkpt>
      <trkpt lat="48.11349" lon="1.33246">
        <ele>107</ele>
        <time>2018-10-09T13:41:17.102Z</time>
      </trkpt>
      <trkpt lat="48.1135" lon="1.33248">
        <ele>107</ele>
        <time>2018-10-09T13:41:18.102Z</time>
      </trkpt>
      <trkpt lat="48.1135" lon="1.3325">
        <ele>107</ele>
        <time>2018-10-09T13:41:19.102Z</time>
      </trkpt>
      <trkpt lat="48.1135" lon="1.33252">
        <ele>107</ele>
        <time>2018-10-09T13:41:20.102Z</time>
      </trkpt>
      <trkpt lat="48.11351" lon="1.33254">
        <ele>107</ele>
        <time>2018-10-09T13:41:21.102Z</time>
      </trkpt>
      <trkpt lat="48.11351" lon="1.33256">
        <ele>107</ele>
        <time>2018-10-09T13:41:22.102Z</time>
      </trkpt>
      <trkpt lat="48.11352" lon="1.33258">
        <ele>107</ele>
        <time>2018-10-09T13:41:23.102Z</time>
      </trkpt>
      <trkpt lat="48.11352" lon="1.3326">
        <ele>107</ele>
        <time>2018-10-09T13:41:24.102Z</time>
      </trkpt>
      <trkpt lat="48.11353" lon="1.33262">
        <ele>107</ele>
        <time>2018-10-09T13:41:25.102Z</time>
      </trkpt>
      <trkpt lat="48.11353" lon="1.33264">
        <ele>107</ele>
        <time>2018-10-09T13:41:26.102Z</time>
      </trkpt>
      <trkpt lat="48.11354" lon="1.33266">
        <ele>107</ele>
        <time>2018-10-09T13:41:27.102Z</time>
      </trkpt>
      <trkpt lat="48.11354" lon="1.33268">
        <ele>107</ele>
        <time>2018-10-09T13:41:28.102Z</time>
      </trkpt>
      <trkpt lat="48.11354" lon="1.3327">
        <ele>107</ele>
        <time>2018-10-09T13:41:29.102Z</time>
      </trkpt>
      <trkpt lat="48.11355" lon="1.33272">
        <ele>107</ele>
        <time>2018-10-09T13:41:30.102Z</time>
      </trkpt>
      <trkpt lat="48.11355" lon="1.33274">
        <ele>107</ele>
        <time>2018-10-09T13:41:31.102Z</time>
      </trkpt>
      <trkpt lat="48.11356" lon="1.33275">
        <ele>108</ele>
        <time>2018-10-09T13:41:32.102Z</time>
      </trkpt>
      <trkpt lat="48.11356" lon="1.33277">
        <ele>108</ele>
        <time>2018-10-09T13:41:33.102Z</time>
      </trkpt>
      <trkpt lat="48.11357" lon="1.33279">
        <ele>108</ele>
        <time>2018-10-09T13:41:34.102Z</time>
      </trkpt>
      <trkpt lat="48.11357" lon="1.3328">
        <ele>108</ele>
        <time>2018-10-09T13:41:35.102Z</time>
      </trkpt>
      <trkpt lat="48.11358" lon="1.33282">
        <ele>108</ele>
        <time>2018-10-09T13:41:36.102Z</time>
      </trkpt>
      <trkpt lat="48.11358" lon="1.33284">
        <ele>108</ele>
        <time>2018-10-09T13:41:37.102Z</time>
      </trkpt>
      <trkpt lat="48.11358" lon="1.33286">
        <ele>108</ele>
        <time>2018-10-09T13:41:38.102Z</time>
      </trkpt>
      <trkpt lat="48.11359" lon="1.33288">
        <ele>108</ele>
        <time>2018-10-09T13:41:39.102Z</time>
      </trkpt>
      <trkpt lat="48.11359" lon="1.3329">
        <ele>108</ele>
        <time>2018-10-09T13:41:40.102Z</time>
      </trkpt>
      <trkpt lat="48.11359" lon="1.33292">
        <ele>108</ele>
        <time>2018-10-09T13:41:41.102Z</time>
      </trkpt>
      <trkpt lat="48.1136" lon="1.33294">
        <ele>108</ele>
        <time>2018-10-09T13:41:42.102Z</time>
      </trkpt>
      <trkpt lat="48.1136" lon="1.33296">
        <ele>108</ele>
        <time>2018-10-09T13:41:43.102Z</time>
      </trkpt>
      <trkpt lat="48.1136" lon="1.33298">
        <ele>108</ele>
        <time>2018-10-09T13:41:44.102Z</time>
      </trkpt>
      <trkpt lat="48.11361" lon="1.333">
        <ele>108</ele>
        <time>2018-10-09T13:41:45.102Z</time>
      </trkpt>
      <trkpt lat="48.11361" lon="1.33302">
        <ele>108</ele>
        <time>2018-10-09T13:41:46.102Z</time>
      </trkpt>
      <trkpt lat="48.11361" lon="1.33303">
        <ele>107</ele>
        <time>2018-10-09T13:41:47.102Z</time>
      </trkpt>
      <trkpt lat="48.11361" lon="1.33305">
        <ele>107</ele>
        <time>2018-10-09T13:41:48.102Z</time>
      </trkpt>
      <trkpt lat="48.11361" lon="1.33307">
        <ele>108</ele>
        <time>2018-10-09T13:41:49.102Z</time>
      </trkpt>
      <trkpt lat="48.11362" lon="1.33309">
        <ele>108</ele>
        <time>2018-10-09T13:41:50.102Z</time>
      </trkpt>
      <trkpt lat="48.11362" lon="1.33311">
        <ele>107</ele>
        <time>2018-10-09T13:41:51.102Z</time>
      </trkpt>
      <trkpt lat="48.11362" lon="1.33313">
        <ele>107</ele>
        <time>2018-10-09T13:41:52.102Z</time>
      </trkpt>
      <trkpt lat="48.11363" lon="1.33314">
        <ele>107</ele>
        <time>2018-10-09T13:41:53.102Z</time>
      </trkpt>
      <trkpt lat="48.11363" lon="1.33316">
        <ele>107</ele>
        <time>2018-10-09T13:41:54.102Z</time>
      </trkpt>
      <trkpt lat="48.11364" lon="1.33318">
        <ele>107</ele>
        <time>2018-10-09T13:41:55.102Z</time>
      </trkpt>
      <trkpt lat="48.11364" lon="1.33319">
        <ele>107</ele>
        <time>2018-10-09T13:41:56.102Z</time>
      </trkpt>
      <trkpt lat="48.11364" lon="1.33321">
        <ele>107</ele>
        <time>2018-10-09T13:41:57.102Z</time>
      </trkpt>
      <trkpt lat="48.11365" lon="1.33323">
        <ele>107</ele>
        <time>2018-10-09T13:41:58.102Z</time>
      </trkpt>
      <trkpt lat="48.11365" lon="1.33325">
        <ele>107</ele>
        <time>2018-10-09T13:41:59.102Z</time>
      </trkpt>
      <trkpt lat="48.11366" lon="1.33326">
        <ele>107</ele>
        <time>2018-10-09T13:42:00.102Z</time>
      </trkpt>
      <trkpt lat="48.11366" lon="1.33328">
        <ele>107</ele>
        <time>2018-10-09T13:42:01.102Z</time>
      </trkpt>
      <trkpt lat="48.11366" lon="1.3333">
        <ele>107</ele>
        <time>2018-10-09T13:42:02.102Z</time>
      </trkpt>
      <trkpt lat="48.11367" lon="1.33332">
        <ele>107</ele>
        <time>2018-10-09T13:42:03.102Z</time>
      </trkpt>
      <trkpt lat="48.11367" lon="1.33334">
        <ele>108</ele>
        <time>2018-10-09T13:42:04.102Z</time>
      </trkpt>
      <trkpt lat="48.11368" lon="1.33336">
        <ele>107</ele>
        <time>2018-10-09T13:42:05.102Z</time>
      </trkpt>
      <trkpt lat="48.11368" lon="1.33337">
        <ele>108</ele>
        <time>2018-10-09T13:42:06.102Z</time>
      </trkpt>
      <trkpt lat="48.11369" lon="1.33339">
        <ele>108</ele>
        <time>2018-10-09T13:42:07.102Z</time>
      </trkpt>
      <trkpt lat="48.11369" lon="1.33341">
        <ele>108</ele>
        <time>2018-10-09T13:42:08.102Z</time>
      </trkpt>
      <trkpt lat="48.1137" lon="1.33343">
        <ele>108</ele>
        <time>2018-10-09T13:42:09.102Z</time>
      </trkpt>
      <trkpt lat="48.1137" lon="1.33344">
        <ele>108</ele>
        <time>2018-10-09T13:42:10.102Z</time>
      </trkpt>
      <trkpt lat="48.1137" lon="1.33346">
        <ele>108</ele>
        <time>2018-10-09T13:42:11.102Z</time>
      </trkpt>
      <trkpt lat="48.11371" lon="1.33348">
        <ele>108</ele>
        <time>2018-10-09T13:42:12.102Z</time>
      </trkpt>
      <trkpt lat="48.11371" lon="1.3335">
        <ele>108</ele>
        <time>2018-10-09T13:42:13.102Z</time>
      </trkpt>
      <trkpt lat="48.11372" lon="1.33352">
        <ele>108</ele>
        <time>2018-10-09T13:42:14.102Z</time>
      </trkpt>
      <trkpt lat="48.11372" lon="1.33354">
        <ele>109</ele>
        <time>2018-10-09T13:42:15.102Z</time>
      </trkpt>
      <trkpt lat="48.11373" lon="1.33355">
        <ele>109</ele>
        <time>2018-10-09T13:42:16.102Z</time>
      </trkpt>
      <trkpt lat="48.11373" lon="1.33357">
        <ele>109</ele>
        <time>2018-10-09T13:42:17.102Z</time>
      </trkpt>
      <trkpt lat="48.11374" lon="1.33359">
        <ele>109</ele>
        <time>2018-10-09T13:42:18.102Z</time>
      </trkpt>
      <trkpt lat="48.11374" lon="1.33361">
        <ele>109</ele>
        <time>2018-10-09T13:42:19.102Z</time>
      </trkpt>
      <trkpt lat="48.11375" lon="1.33363">
        <ele>109</ele>
        <time>2018-10-09T13:42:20.102Z</time>
      </trkpt>
      <trkpt lat="48.11376" lon="1.33365">
        <ele>109</ele>
        <time>2018-10-09T13:42:21.102Z</time>
      </trkpt>
      <trkpt lat="48.11376" lon="1.33367">
        <ele>110</ele>
        <time>2018-10-09T13:42:22.102Z</time>
      </trkpt>
      <trkpt lat="48.11377" lon="1.33368">
        <ele>109</ele>
        <time>2018-10-09T13:42:23.102Z</time>
      </trkpt>
      <trkpt lat="48.11378" lon="1.3337">
        <ele>109</ele>
        <time>2018-10-09T13:42:24.102Z</time>
      </trkpt>
      <trkpt lat="48.11378" lon="1.33372">
        <ele>109</ele>
        <time>2018-10-09T13:42:25.102Z</time>
      </trkpt>
      <trkpt lat="48.11378" lon="1.33374">
        <ele>109</ele>
        <time>2018-10-09T13:42:26.102Z</time>
      </trkpt>
      <trkpt lat="48.11379" lon="1.33376">
        <ele>109</ele>
        <time>2018-10-09T13:42:27.102Z</time>
      </trkpt>
      <trkpt lat="48.11379" lon="1.33378">
        <ele>109</ele>
        <time>2018-10-09T13:42:28.102Z</time>
      </trkpt>
      <trkpt lat="48.11379" lon="1.3338">
        <ele>109</ele>
        <time>2018-10-09T13:42:29.102Z</time>
      </trkpt>
      <trkpt lat="48.1138" lon="1.33382">
        <ele>109</ele>
        <time>2018-10-09T13:42:30.102Z</time>
      </trkpt>
      <trkpt lat="48.1138" lon="1.33384">
        <ele>109</ele>
        <time>2018-10-09T13:42:31.102Z</time>
      </trkpt>
      <trkpt lat="48.1138" lon="1.33386">
        <ele>109</ele>
        <time>2018-10-09T13:42:32.102Z</time>
      </trkpt>
      <trkpt lat="48.11381" lon="1.33388">
        <ele>109</ele>
        <time>2018-10-09T13:42:33.102Z</time>
      </trkpt>
      <trkpt lat="48.11381" lon="1.33389">
        <ele>109</ele>
        <time>2018-10-09T13:42:34.102Z</time>
      </trkpt>
      <trkpt lat="48.11382" lon="1.33391">
        <ele>109</ele>
        <time>2018-10-09T13:42:35.102Z</time>
      </trkpt>
      <trkpt lat="48.11382" lon="1.33393">
        <ele>110</ele>
        <time>2018-10-09T13:42:36.102Z</time>
      </trkpt>
      <trkpt lat="48.11383" lon="1.33395">
        <ele>110</ele>
        <time>2018-10-09T13:42:37.102Z</time>
      </trkpt>
      <trkpt lat="48.11383" lon="1.33397">
        <ele>110</ele>
        <time>2018-10-09T13:42:38.102Z</time>
      </trkpt>
      <trkpt lat="48.11384" lon="1.33399">
        <ele>110</ele>
        <time>2018-10-09T13:42:39.102Z</time>
      </trkpt>
      <trkpt lat="48.11384" lon="1.334">
        <ele>110</ele>
        <time>2018-10-09T13:42:40.102Z</time>
      </trkpt>
      <trkpt lat="48.11384" lon="1.33402">
        <ele>110</ele>
        <time>2018-10-09T13:42:41.102Z</time>
      </trkpt>
      <trkpt lat="48.11385" lon="1.33404">
        <ele>110</ele>
        <time>2018-10-09T13:42:42.102Z</time>
      </trkpt>
      <trkpt lat="48.11385" lon="1.33406">
        <ele>109</ele>
        <time>2018-10-09T13:42:43.102Z</time>
      </trkpt>
      <trkpt lat="48.11386" lon="1.33408">
        <ele>109</ele>
        <time>2018-10-09T13:42:44.102Z</time>
      </trkpt>
      <trkpt lat="48.11386" lon="1.33409">
        <ele>109</ele>
        <time>2018-10-09T13:42:45.102Z</time>
      </trkpt>
      <trkpt lat="48.11387" lon="1.33411">
        <ele>109</ele>
        <time>2018-10-09T13:42:46.102Z</time>
      </trkpt>
      <trkpt lat="48.11387" lon="1.33413">
        <ele>109</ele>
        <time>2018-10-09T13:42:47.102Z</time>
      </trkpt>
      <trkpt lat="48.11388" lon="1.33415">
        <ele>109</ele>
        <time>2018-10-09T13:42:48.102Z</time>
      </trkpt>
      <trkpt lat="48.11388" lon="1.33416">
        <ele>109</ele>
        <time>2018-10-09T13:42:49.102Z</time>
      </trkpt>
      <trkpt lat="48.11388" lon="1.33418">
        <ele>109</ele>
        <time>2018-10-09T13:42:50.102Z</time>
      </trkpt>
      <trkpt lat="48.11388" lon="1.3342">
        <ele>109</ele>
        <time>2018-10-09T13:42:51.102Z</time>
      </trkpt>
      <trkpt lat="48.11388" lon="1.33422">
        <ele>109</ele>
        <time>2018-10-09T13:42:52.102Z</time>
      </trkpt>
      <trkpt lat="48.11388" lon="1.33424">
        <ele>109</ele>
        <time>2018-10-09T13:42:53.102Z</time>
      </trkpt>
      <trkpt lat="48.11389" lon="1.33426">
        <ele>109</ele>
        <time>2018-10-09T13:42:54.102Z</time>
      </trkpt>
      <trkpt lat="48.11389" lon="1.33428">
        <ele>109</ele>
        <time>2018-10-09T13:42:55.102Z</time>
      </trkpt>
      <trkpt lat="48.11389" lon="1.3343">
        <ele>109</ele>
        <time>2018-10-09T13:42:56.102Z</time>
      </trkpt>
      <trkpt lat="48.11389" lon="1.33432">
        <ele>109</ele>
        <time>2018-10-09T13:42:57.102Z</time>
      </trkpt>
      <trkpt lat="48.11389" lon="1.33434">
        <ele>109</ele>
        <time>2018-10-09T13:42:58.102Z</time>
      </trkpt>
      <trkpt lat="48.11389" lon="1.33436">
        <ele>109</ele>
        <time>2018-10-09T13:42:59.102Z</time>
      </trkpt>
      <trkpt lat="48.11389" lon="1.33437">
        <ele>109</ele>
        <time>2018-10-09T13:43:00.102Z</time>
      </trkpt>
      <trkpt lat="48.11389" lon="1.33439">
        <ele>109</ele>
        <time>2018-10-09T13:43:01.102Z</time>
      </trkpt>
      <trkpt lat="48.11389" lon="1.33441">
        <ele>109</ele>
        <time>2018-10-09T13:43:02.102Z</time>
      </trkpt>
      <trkpt lat="48.11388" lon="1.33443">
        <ele>109</ele>
        <time>2018-10-09T13:43:03.102Z</time>
      </trkpt>
      <trkpt lat="48.11388" lon="1.33445">
        <ele>109</ele>
        <time>2018-10-09T13:43:04.102Z</time>
      </trkpt>
      <trkpt lat="48.11388" lon="1.33447">
        <ele>109</ele>
        <time>2018-10-09T13:43:05.102Z</time>
      </trkpt>
      <trkpt lat="48.11388" lon="1.33449">
        <ele>109</ele>
        <time>2018-10-09T13:43:06.102Z</time>
      </trkpt>
      <trkpt lat="48.11387" lon="1.33452">
        <ele>109</ele>
        <time>2018-10-09T13:43:07.102Z</time>
      </trkpt>
      <trkpt lat="48.11387" lon="1.33454">
        <ele>109</ele>
        <time>2018-10-09T13:43:08.102Z</time>
      </trkpt>
      <trkpt lat="48.11387" lon="1.33456">
        <ele>109</ele>
        <time>2018-10-09T13:43:09.102Z</time>
      </trkpt>
      <trkpt lat="48.11387" lon="1.33458">
        <ele>109</ele>
        <time>2018-10-09T13:43:10.102Z</time>
      </trkpt>
      <trkpt lat="48.11387" lon="1.3346">
        <ele>109</ele>
        <time>2018-10-09T13:43:11.102Z</time>
      </trkpt>
      <trkpt lat="48.11387" lon="1.33462">
        <ele>109</ele>
        <time>2018-10-09T13:43:12.102Z</time>
      </trkpt>
      <trkpt lat="48.11386" lon="1.33464">
        <ele>109</ele>
        <time>2018-10-09T13:43:13.102Z</time>
      </trkpt>
      <trkpt lat="48.11386" lon="1.33466">
        <ele>109</ele>
        <time>2018-10-09T13:43:14.102Z</time>
      </trkpt>
      <trkpt lat="48.11386" lon="1.33468">
        <ele>109</ele>
        <time>2018-10-09T13:43:15.102Z</time>
      </trkpt>
      <trkpt lat="48.11386" lon="1.3347">
        <ele>109</ele>
        <time>2018-10-09T13:43:16.102Z</time>
      </trkpt>
      <trkpt lat="48.11386" lon="1.33473">
        <ele>109</ele>
        <time>2018-10-09T13:43:17.102Z</time>
      </trkpt>
      <trkpt lat="48.11386" lon="1.33475">
        <ele>109</ele>
        <time>2018-10-09T13:43:18.102Z</time>
      </trkpt>
      <trkpt lat="48.11385" lon="1.33477">
        <ele>109</ele>
        <time>2018-10-09T13:43:19.102Z</time>
      </trkpt>
      <trkpt lat="48.11385" lon="1.33479">
        <ele>108</ele>
        <time>2018-10-09T13:43:20.102Z</time>
      </trkpt>
      <trkpt lat="48.11385" lon="1.33481">
        <ele>108</ele>
        <time>2018-10-09T13:43:21.102Z</time>
      </trkpt>
      <trkpt lat="48.11385" lon="1.33483">
        <ele>108</ele>
        <time>2018-10-09T13:43:22.102Z</time>
      </trkpt>
      <trkpt lat="48.11385" lon="1.33485">
        <ele>108</ele>
        <time>2018-10-09T13:43:23.102Z</time>
      </trkpt>
      <trkpt lat="48.11385" lon="1.33487">
        <ele>109</ele>
        <time>2018-10-09T13:43:24.102Z</time>
      </trkpt>
      <trkpt lat="48.11385" lon="1.33489">
        <ele>108</ele>
        <time>2018-10-09T13:43:25.102Z</time>
      </trkpt>
      <trkpt lat="48.11385" lon="1.33491">
        <ele>108</ele>
        <time>2018-10-09T13:43:26.102Z</time>
      </trkpt>
      <trkpt lat="48.11385" lon="1.33493">
        <ele>108</ele>
        <time>2018-10-09T13:43:27.102Z</time>
      </trkpt>
      <trkpt lat="48.11385" lon="1.33495">
        <ele>108</ele>
        <time>2018-10-09T13:43:28.102Z</time>
      </trkpt>
      <trkpt lat="48.11384" lon="1.33497">
        <ele>108</ele>
        <time>2018-10-09T13:43:29.102Z</time>
      </trkpt>
      <trkpt lat="48.11384" lon="1.33499">
        <ele>108</ele>
        <time>2018-10-09T13:43:30.102Z</time>
      </trkpt>
      <trkpt lat="48.11384" lon="1.33501">
        <ele>108</ele>
        <time>2018-10-09T13:43:31.102Z</time>
      </trkpt>
      <trkpt lat="48.11384" lon="1.33503">
        <ele>108</ele>
        <time>2018-10-09T13:43:32.102Z</time>
      </trkpt>
      <trkpt lat="48.11384" lon="1.33505">
        <ele>108</ele>
        <time>2018-10-09T13:43:33.102Z</time>
      </trkpt>
      <trkpt lat="48.11384" lon="1.33507">
        <ele>108</ele>
        <time>2018-10-09T13:43:34.102Z</time>
      </trkpt>
      <trkpt lat="48.11384" lon="1.33509">
        <ele>108</ele>
        <time>2018-10-09T13:43:35.102Z</time>
      </trkpt>
      <trkpt lat="48.11384" lon="1.33511">
        <ele>108</ele>
        <time>2018-10-09T13:43:36.102Z</time>
      </trkpt>
      <trkpt lat="48.11384" lon="1.33513">
        <ele>108</ele>
        <time>2018-10-09T13:43:37.102Z</time>
      </trkpt>
      <trkpt lat="48.11384" lon="1.33514">
        <ele>108</ele>
        <time>2018-10-09T13:43:38.102Z</time>
      </trkpt>
      <trkpt lat="48.11384" lon="1.33516">
        <ele>108</ele>
        <time>2018-10-09T13:43:39.102Z</time>
      </trkpt>
      <trkpt lat="48.11383" lon="1.33518">
        <ele>108</ele>
        <time>2018-10-09T13:43:40.102Z</time>
      </trkpt>
      <trkpt lat="48.11383" lon="1.3352">
        <ele>108</ele>
        <time>2018-10-09T13:43:41.102Z</time>
      </trkpt>
      <trkpt lat="48.11383" lon="1.33522">
        <ele>108</ele>
        <time>2018-10-09T13:43:42.102Z</time>
      </trkpt>
      <trkpt lat="48.11383" lon="1.33524">
        <ele>108</ele>
        <time>2018-10-09T13:43:43.102Z</time>
      </trkpt>
      <trkpt lat="48.11383" lon="1.33527">
        <ele>108</ele>
        <time>2018-10-09T13:43:44.102Z</time>
      </trkpt>
      <trkpt lat="48.11383" lon="1.33529">
        <ele>108</ele>
        <time>2018-10-09T13:43:45.102Z</time>
      </trkpt>
      <trkpt lat="48.11383" lon="1.33531">
        <ele>108</ele>
        <time>2018-10-09T13:43:46.102Z</time>
      </trkpt>
      <trkpt lat="48.11383" lon="1.33533">
        <ele>109</ele>
        <time>2018-10-09T13:43:47.102Z</time>
      </trkpt>
      <trkpt lat="48.11383" lon="1.33535">
        <ele>109</ele>
        <time>2018-10-09T13:43:48.102Z</time>
      </trkpt>
      <trkpt lat="48.11382" lon="1.33537">
        <ele>109</ele>
        <time>2018-10-09T13:43:49.102Z</time>
      </trkpt>
      <trkpt lat="48.11382" lon="1.33539">
        <ele>109</ele>
        <time>2018-10-09T13:43:50.102Z</time>
      </trkpt>
      <trkpt lat="48.11382" lon="1.33541">
        <ele>109</ele>
        <time>2018-10-09T13:43:51.102Z</time>
      </trkpt>
      <trkpt lat="48.11382" lon="1.33544">
        <ele>109</ele>
        <time>2018-10-09T13:43:52.102Z</time>
      </trkpt>
      <trkpt lat="48.11381" lon="1.33546">
        <ele>109</ele>
        <time>2018-10-09T13:43:53.102Z</time>
      </trkpt>
      <trkpt lat="48.11381" lon="1.33548">
        <ele>108</ele>
        <time>2018-10-09T13:43:54.102Z</time>
      </trkpt>
      <trkpt lat="48.11381" lon="1.3355">
        <ele>108</ele>
        <time>2018-10-09T13:43:55.102Z</time>
      </trkpt>
      <trkpt lat="48.11381" lon="1.33552">
        <ele>108</ele>
        <time>2018-10-09T13:43:56.102Z</time>
      </trkpt>
      <trkpt lat="48.1138" lon="1.33554">
        <ele>108</ele>
        <time>2018-10-09T13:43:57.102Z</time>
      </trkpt>
      <trkpt lat="48.1138" lon="1.33556">
        <ele>108</ele>
        <time>2018-10-09T13:43:58.102Z</time>
      </trkpt>
      <trkpt lat="48.1138" lon="1.33557">
        <ele>108</ele>
        <time>2018-10-09T13:43:59.102Z</time>
      </trkpt>
      <trkpt lat="48.1138" lon="1.33559">
        <ele>108</ele>
        <time>2018-10-09T13:44:00.102Z</time>
      </trkpt>
      <trkpt lat="48.11379" lon="1.33561">
        <ele>108</ele>
        <time>2018-10-09T13:44:01.102Z</time>
      </trkpt>
      <trkpt lat="48.11379" lon="1.33563">
        <ele>108</ele>
        <time>2018-10-09T13:44:02.102Z</time>
      </trkpt>
      <trkpt lat="48.11379" lon="1.33565">
        <ele>108</ele>
        <time>2018-10-09T13:44:03.102Z</time>
      </trkpt>
      <trkpt lat="48.11379" lon="1.33567">
        <ele>107</ele>
        <time>2018-10-09T13:44:04.102Z</time>
      </trkpt>
      <trkpt lat="48.11379" lon="1.33569">
        <ele>107</ele>
        <time>2018-10-09T13:44:05.102Z</time>
      </trkpt>
      <trkpt lat="48.11379" lon="1.3357">
        <ele>107</ele>
        <time>2018-10-09T13:44:06.102Z</time>
      </trkpt>
      <trkpt lat="48.11378" lon="1.33572">
        <ele>107</ele>
        <time>2018-10-09T13:44:07.102Z</time>
      </trkpt>
      <trkpt lat="48.11378" lon="1.33574">
        <ele>107</ele>
        <time>2018-10-09T13:44:08.102Z</time>
      </trkpt>
      <trkpt lat="48.11378" lon="1.33576">
        <ele>107</ele>
        <time>2018-10-09T13:44:09.102Z</time>
      </trkpt>
      <trkpt lat="48.11377" lon="1.33578">
        <ele>107</ele>
        <time>2018-10-09T13:44:10.102Z</time>
      </trkpt>
      <trkpt lat="48.11377" lon="1.3358">
        <ele>107</ele>
        <time>2018-10-09T13:44:11.102Z</time>
      </trkpt>
      <trkpt lat="48.11377" lon="1.33582">
        <ele>107</ele>
        <time>2018-10-09T13:44:12.102Z</time>
      </trkpt>
      <trkpt lat="48.11376" lon="1.33584">
        <ele>107</ele>
        <time>2018-10-09T13:44:13.102Z</time>
      </trkpt>
      <trkpt lat="48.11376" lon="1.33586">
        <ele>107</ele>
        <time>2018-10-09T13:44:14.102Z</time>
      </trkpt>
      <trkpt lat="48.11375" lon="1.33587">
        <ele>107</ele>
        <time>2018-10-09T13:44:15.102Z</time>
      </trkpt>
      <trkpt lat="48.11374" lon="1.33589">
        <ele>107</ele>
        <time>2018-10-09T13:44:16.102Z</time>
      </trkpt>
      <trkpt lat="48.11374" lon="1.33591">
        <ele>107</ele>
        <time>2018-10-09T13:44:17.102Z</time>
      </trkpt>
      <trkpt lat="48.11373" lon="1.33593">
        <ele>108</ele>
        <time>2018-10-09T13:44:18.102Z</time>
      </trkpt>
      <trkpt lat="48.11373" lon="1.33595">
        <ele>108</ele>
        <time>2018-10-09T13:44:19.102Z</time>
      </trkpt>
      <trkpt lat="48.11372" lon="1.33597">
        <ele>108</ele>
        <time>2018-10-09T13:44:20.102Z</time>
      </trkpt>
      <trkpt lat="48.11372" lon="1.33599">
        <ele>108</ele>
        <time>2018-10-09T13:44:21.102Z</time>
      </trkpt>
      <trkpt lat="48.11371" lon="1.33601">
        <ele>108</ele>
        <time>2018-10-09T13:44:22.102Z</time>
      </trkpt>
      <trkpt lat="48.1137" lon="1.33603">
        <ele>108</ele>
        <time>2018-10-09T13:44:23.102Z</time>
      </trkpt>
      <trkpt lat="48.1137" lon="1.33604">
        <ele>108</ele>
        <time>2018-10-09T13:44:24.102Z</time>
      </trkpt>
      <trkpt lat="48.11369" lon="1.33606">
        <ele>108</ele>
        <time>2018-10-09T13:44:25.102Z</time>
      </trkpt>
      <trkpt lat="48.11368" lon="1.33608">
        <ele>108</ele>
        <time>2018-10-09T13:44:26.102Z</time>
      </trkpt>
      <trkpt lat="48.11368" lon="1.3361">
        <ele>108</ele>
        <time>2018-10-09T13:44:27.102Z</time>
      </trkpt>
      <trkpt lat="48.11367" lon="1.33611">
        <ele>108</ele>
        <time>2018-10-09T13:44:28.102Z</time>
      </trkpt>
      <trkpt lat="48.11367" lon="1.33613">
        <ele>108</ele>
        <time>2018-10-09T13:44:29.102Z</time>
      </trkpt>
      <trkpt lat="48.11366" lon="1.33614">
        <ele>108</ele>
        <time>2018-10-09T13:44:30.102Z</time>
      </trkpt>
      <trkpt lat="48.11365" lon="1.33616">
        <ele>108</ele>
        <time>2018-10-09T13:44:31.102Z</time>
      </trkpt>
      <trkpt lat="48.11364" lon="1.33618">
        <ele>108</ele>
        <time>2018-10-09T13:44:32.102Z</time>
      </trkpt>
      <trkpt lat="48.11363" lon="1.33619">
        <ele>108</ele>
        <time>2018-10-09T13:44:33.102Z</time>
      </trkpt>
      <trkpt lat="48.11362" lon="1.33621">
        <ele>108</ele>
        <time>2018-10-09T13:44:34.102Z</time>
      </trkpt>
      <trkpt lat="48.11362" lon="1.33623">
        <ele>108</ele>
        <time>2018-10-09T13:44:35.102Z</time>
      </trkpt>
      <trkpt lat="48.11361" lon="1.33626">
        <ele>107</ele>
        <time>2018-10-09T13:44:36.102Z</time>
      </trkpt>
      <trkpt lat="48.11361" lon="1.33628">
        <ele>107</ele>
        <time>2018-10-09T13:44:37.102Z</time>
      </trkpt>
      <trkpt lat="48.11361" lon="1.3363">
        <ele>108</ele>
        <time>2018-10-09T13:44:38.102Z</time>
      </trkpt>
      <trkpt lat="48.1136" lon="1.33632">
        <ele>108</ele>
        <time>2018-10-09T13:44:39.102Z</time>
      </trkpt>
      <trkpt lat="48.1136" lon="1.33634">
        <ele>108</ele>
        <time>2018-10-09T13:44:40.102Z</time>
      </trkpt>
      <trkpt lat="48.11359" lon="1.33636">
        <ele>108</ele>
        <time>2018-10-09T13:44:41.102Z</time>
      </trkpt>
      <trkpt lat="48.11358" lon="1.33638">
        <ele>107</ele>
        <time>2018-10-09T13:44:42.102Z</time>
      </trkpt>
      <trkpt lat="48.11358" lon="1.3364">
        <ele>108</ele>
        <time>2018-10-09T13:44:43.102Z</time>
      </trkpt>
      <trkpt lat="48.11357" lon="1.33642">
        <ele>108</ele>
        <time>2018-10-09T13:44:44.102Z</time>
      </trkpt>
      <trkpt lat="48.11357" lon="1.33644">
        <ele>108</ele>
        <time>2018-10-09T13:44:45.102Z</time>
      </trkpt>
      <trkpt lat="48.11356" lon="1.33646">
        <ele>108</ele>
        <time>2018-10-09T13:44:46.102Z</time>
      </trkpt>
      <trkpt lat="48.11356" lon="1.33648">
        <ele>108</ele>
        <time>2018-10-09T13:44:47.102Z</time>
      </trkpt>
      <trkpt lat="48.11355" lon="1.3365">
        <ele>108</ele>
        <time>2018-10-09T13:44:48.102Z</time>
      </trkpt>
      <trkpt lat="48.11355" lon="1.33652">
        <ele>108</ele>
        <time>2018-10-09T13:44:49.102Z</time>
      </trkpt>
      <trkpt lat="48.11354" lon="1.33654">
        <ele>108</ele>
        <time>2018-10-09T13:44:50.102Z</time>
      </trkpt>
      <trkpt lat="48.11353" lon="1.33656">
        <ele>108</ele>
        <time>2018-10-09T13:44:51.102Z</time>
      </trkpt>
      <trkpt lat="48.11353" lon="1.33658">
        <ele>108</ele>
        <time>2018-10-09T13:44:52.102Z</time>
      </trkpt>
      <trkpt lat="48.11353" lon="1.33661">
        <ele>108</ele>
        <time>2018-10-09T13:44:53.102Z</time>
      </trkpt>
      <trkpt lat="48.11352" lon="1.33663">
        <ele>108</ele>
        <time>2018-10-09T13:44:54.102Z</time>
      </trkpt>
      <trkpt lat="48.11352" lon="1.33665">
        <ele>108</ele>
        <time>2018-10-09T13:44:55.102Z</time>
      </trkpt>
      <trkpt lat="48.11351" lon="1.33666">
        <ele>108</ele>
        <time>2018-10-09T13:44:56.102Z</time>
      </trkpt>
      <trkpt lat="48.11351" lon="1.33668">
        <ele>108</ele>
        <time>2018-10-09T13:44:57.102Z</time>
      </trkpt>
      <trkpt lat="48.1135" lon="1.3367">
        <ele>108</ele>
        <time>2018-10-09T13:44:58.102Z</time>
      </trkpt>
      <trkpt lat="48.1135" lon="1.33672">
        <ele>108</ele>
        <time>2018-10-09T13:44:59.102Z</time>
      </trkpt>
      <trkpt lat="48.11349" lon="1.33674">
        <ele>108</ele>
        <time>2018-10-09T13:45:00.102Z</time>
      </trkpt>
      <trkpt lat="48.11349" lon="1.33676">
        <ele>108</ele>
        <time>2018-10-09T13:45:01.102Z</time>
      </trkpt>
      <trkpt lat="48.11348" lon="1.33677">
        <ele>108</ele>
        <time>2018-10-09T13:45:02.102Z</time>
      </trkpt>
      <trkpt lat="48.11348" lon="1.33679">
        <ele>108</ele>
        <time>2018-10-09T13:45:03.102Z</time>
      </trkpt>
      <trkpt lat="48.11347" lon="1.33681">
        <ele>108</ele>
        <time>2018-10-09T13:45:04.102Z</time>
      </trkpt>
      <trkpt lat="48.11347" lon="1.33683">
        <ele>108</ele>
        <time>2018-10-09T13:45:05.102Z</time>
      </trkpt>
      <trkpt lat="48.11346" lon="1.33685">
        <ele>108</ele>
        <time>2018-10-09T13:45:06.102Z</time>
      </trkpt>
      <trkpt lat="48.11346" lon="1.33687">
        <ele>108</ele>
        <time>2018-10-09T13:45:07.102Z</time>
      </trkpt>
      <trkpt lat="48.11345" lon="1.33689">
        <ele>108</ele>
        <time>2018-10-09T13:45:08.102Z</time>
      </trkpt>
      <trkpt lat="48.11345" lon="1.33691">
        <ele>108</ele>
        <time>2018-10-09T13:45:09.102Z</time>
      </trkpt>
      <trkpt lat="48.11345" lon="1.33693">
        <ele>108</ele>
        <time>2018-10-09T13:45:10.102Z</time>
      </trkpt>
      <trkpt lat="48.11344" lon="1.33695">
        <ele>108</ele>
        <time>2018-10-09T13:45:11.102Z</time>
      </trkpt>
      <trkpt lat="48.11344" lon="1.33697">
        <ele>108</ele>
        <time>2018-10-09T13:45:12.102Z</time>
      </trkpt>
      <trkpt lat="48.11344" lon="1.33699">
        <ele>108</ele>
        <time>2018-10-09T13:45:13.102Z</time>
      </trkpt>
      <trkpt lat="48.11344" lon="1.33701">
        <ele>108</ele>
        <time>2018-10-09T13:45:14.102Z</time>
      </trkpt>
      <trkpt lat="48.11343" lon="1.33703">
        <ele>108</ele>
        <time>2018-10-09T13:45:15.102Z</time>
      </trkpt>
      <trkpt lat="48.11343" lon="1.33705">
        <ele>108</ele>
        <time>2018-10-09T13:45:16.102Z</time>
      </trkpt>
      <trkpt lat="48.11343" lon="1.33707">
        <ele>108</ele>
        <time>2018-10-09T13:45:17.102Z</time>
      </trkpt>
      <trkpt lat="48.11343" lon="1.33709">
        <ele>108</ele>
        <time>2018-10-09T13:45:18.102Z</time>
      </trkpt>
      <trkpt lat="48.11342" lon="1.33711">
        <ele>108</ele>
        <time>2018-10-09T13:45:19.102Z</time>
      </trkpt>
      <trkpt lat="48.11342" lon="1.33713">
        <ele>108</ele>
        <time>2018-10-09T13:45:20.102Z</time>
      </trkpt>
      <trkpt lat="48.11342" lon="1.33714">
        <ele>108</ele>
        <time>2018-10-09T13:45:21.102Z</time>
      </trkpt>
      <trkpt lat="48.11342" lon="1.33716">
        <ele>108</ele>
        <time>2018-10-09T13:45:22.102Z</time>
      </trkpt>
      <trkpt lat="48.11342" lon="1.33718">
        <ele>108</ele>
        <time>2018-10-09T13:45:23.102Z</time>
      </trkpt>
      <trkpt lat="48.11341" lon="1.3372">
        <ele>108</ele>
        <time>2018-10-09T13:45:24.102Z</time>
      </trkpt>
      <trkpt lat="48.11341" lon="1.33722">
        <ele>108</ele>
        <time>2018-10-09T13:45:25.102Z</time>
      </trkpt>
      <trkpt lat="48.11341" lon="1.33724">
        <ele>108</ele>
        <time>2018-10-09T13:45:26.102Z</time>
      </trkpt>
      <trkpt lat="48.11341" lon="1.33726">
        <ele>108</ele>
        <time>2018-10-09T13:45:27.102Z</time>
      </trkpt>
      <trkpt lat="48.11341" lon="1.33728">
        <ele>108</ele>
        <time>2018-10-09T13:45:28.102Z</time>
      </trkpt>
      <trkpt lat="48.11341" lon="1.3373">
        <ele>108</ele>
        <time>2018-10-09T13:45:29.102Z</time>
      </trkpt>
      <trkpt lat="48.11341" lon="1.33732">
        <ele>108</ele>
        <time>2018-10-09T13:45:30.102Z</time>
      </trkpt>
      <trkpt lat="48.11341" lon="1.33734">
        <ele>108</ele>
        <time>2018-10-09T13:45:31.102Z</time>
      </trkpt>
      <trkpt lat="48.11341" lon="1.33736">
        <ele>108</ele>
        <time>2018-10-09T13:45:32.102Z</time>
      </trkpt>
      <trkpt lat="48.11341" lon="1.33738">
        <ele>108</ele>
        <time>2018-10-09T13:45:33.102Z</time>
      </trkpt>
      <trkpt lat="48.1134" lon="1.3374">
        <ele>108</ele>
        <time>2018-10-09T13:45:34.102Z</time>
      </trkpt>
      <trkpt lat="48.1134" lon="1.33742">
        <ele>108</ele>
        <time>2018-10-09T13:45:35.102Z</time>
      </trkpt>
      <trkpt lat="48.1134" lon="1.33744">
        <ele>108</ele>
        <time>2018-10-09T13:45:36.102Z</time>
      </trkpt>
      <trkpt lat="48.1134" lon="1.33746">
        <ele>108</ele>
        <time>2018-10-09T13:45:37.102Z</time>
      </trkpt>
      <trkpt lat="48.1134" lon="1.33747">
        <ele>108</ele>
        <time>2018-10-09T13:45:38.102Z</time>
      </trkpt>
      <trkpt lat="48.1134" lon="1.33749">
        <ele>107</ele>
        <time>2018-10-09T13:45:39.102Z</time>
      </trkpt>
      <trkpt lat="48.1134" lon="1.33751">
        <ele>107</ele>
        <time>2018-10-09T13:45:40.102Z</time>
      </trkpt>
      <trkpt lat="48.1134" lon="1.33753">
        <ele>107</ele>
        <time>2018-10-09T13:45:41.102Z</time>
      </trkpt>
      <trkpt lat="48.1134" lon="1.33755">
        <ele>107</ele>
        <time>2018-10-09T13:45:42.102Z</time>
      </trkpt>
      <trkpt lat="48.1134" lon="1.33757">
        <ele>108</ele>
        <time>2018-10-09T13:45:43.102Z</time>
      </trkpt>
      <trkpt lat="48.1134" lon="1.33759">
        <ele>108</ele>
        <time>2018-10-09T13:45:44.102Z</time>
      </trkpt>
      <trkpt lat="48.11341" lon="1.33761">
        <ele>108</ele>
        <time>2018-10-09T13:45:45.102Z</time>
      </trkpt>
      <trkpt lat="48.11341" lon="1.33763">
        <ele>107</ele>
        <time>2018-10-09T13:45:46.102Z</time>
      </trkpt>
      <trkpt lat="48.11341" lon="1.33765">
        <ele>107</ele>
        <time>2018-10-09T13:45:47.102Z</time>
      </trkpt>
      <trkpt lat="48.11341" lon="1.33766">
        <ele>107</ele>
        <time>2018-10-09T13:45:48.102Z</time>
      </trkpt>
      <trkpt lat="48.11341" lon="1.33768">
        <ele>107</ele>
        <time>2018-10-09T13:45:49.102Z</time>
      </trkpt>
      <trkpt lat="48.11341" lon="1.3377">
        <ele>107</ele>
        <time>2018-10-09T13:45:50.102Z</time>
      </trkpt>
      <trkpt lat="48.11341" lon="1.33772">
        <ele>107</ele>
        <time>2018-10-09T13:45:51.102Z</time>
      </trkpt>
      <trkpt lat="48.11342" lon="1.33774">
        <ele>107</ele>
        <time>2018-10-09T13:45:52.102Z</time>
      </trkpt>
      <trkpt lat="48.11342" lon="1.33776">
        <ele>107</ele>
        <time>2018-10-09T13:45:53.102Z</time>
      </trkpt>
      <trkpt lat="48.11342" lon="1.33778">
        <ele>107</ele>
        <time>2018-10-09T13:45:54.102Z</time>
      </trkpt>
      <trkpt lat="48.11342" lon="1.3378">
        <ele>107</ele>
        <time>2018-10-09T13:45:55.102Z</time>
      </trkpt>
      <trkpt lat="48.11342" lon="1.33782">
        <ele>107</ele>
        <time>2018-10-09T13:45:56.102Z</time>
      </trkpt>
      <trkpt lat="48.11342" lon="1.33784">
        <ele>107</ele>
        <time>2018-10-09T13:45:57.102Z</time>
      </trkpt>
      <trkpt lat="48.11343" lon="1.33786">
        <ele>107</ele>
        <time>2018-10-09T13:45:58.102Z</time>
      </trkpt>
      <trkpt lat="48.11343" lon="1.33788">
        <ele>107</ele>
        <time>2018-10-09T13:45:59.102Z</time>
      </trkpt>
      <trkpt lat="48.11343" lon="1.3379">
        <ele>107</ele>
        <time>2018-10-09T13:46:00.102Z</time>
      </trkpt>
      <trkpt lat="48.11343" lon="1.33792">
        <ele>108</ele>
        <time>2018-10-09T13:46:01.102Z</time>
      </trkpt>
      <trkpt lat="48.11343" lon="1.33794">
        <ele>108</ele>
        <time>2018-10-09T13:46:02.102Z</time>
      </trkpt>
      <trkpt lat="48.11344" lon="1.33796">
        <ele>108</ele>
        <time>2018-10-09T13:46:03.102Z</time>
      </trkpt>
      <trkpt lat="48.11344" lon="1.33798">
        <ele>108</ele>
        <time>2018-10-09T13:46:04.102Z</time>
      </trkpt>
      <trkpt lat="48.11344" lon="1.338">
        <ele>108</ele>
        <time>2018-10-09T13:46:05.102Z</time>
      </trkpt>
      <trkpt lat="48.11344" lon="1.33802">
        <ele>108</ele>
        <time>2018-10-09T13:46:06.102Z</time>
      </trkpt>
      <trkpt lat="48.11344" lon="1.33804">
        <ele>108</ele>
        <time>2018-10-09T13:46:07.102Z</time>
      </trkpt>
      <trkpt lat="48.11345" lon="1.33806">
        <ele>108</ele>
        <time>2018-10-09T13:46:08.102Z</time>
      </trkpt>
      <trkpt lat="48.11345" lon="1.33808">
        <ele>108</ele>
        <time>2018-10-09T13:46:09.102Z</time>
      </trkpt>
      <trkpt lat="48.11345" lon="1.3381">
        <ele>108</ele>
        <time>2018-10-09T13:46:10.102Z</time>
      </trkpt>
      <trkpt lat="48.11345" lon="1.33812">
        <ele>108</ele>
        <time>2018-10-09T13:46:11.102Z</time>
      </trkpt>
      <trkpt lat="48.11345" lon="1.33814">
        <ele>108</ele>
        <time>2018-10-09T13:46:12.102Z</time>
      </trkpt>
      <trkpt lat="48.11346" lon="1.33816">
        <ele>108</ele>
        <time>2018-10-09T13:46:13.102Z</time>
      </trkpt>
      <trkpt lat="48.11346" lon="1.33817">
        <ele>108</ele>
        <time>2018-10-09T13:46:14.102Z</time>
      </trkpt>
      <trkpt lat="48.11346" lon="1.33819">
        <ele>108</ele>
        <time>2018-10-09T13:46:15.102Z</time>
      </trkpt>
      <trkpt lat="48.11346" lon="1.33822">
        <ele>108</ele>
        <time>2018-10-09T13:46:16.102Z</time>
      </trkpt>
      <trkpt lat="48.11346" lon="1.33824">
        <ele>108</ele>
        <time>2018-10-09T13:46:17.102Z</time>
      </trkpt>
      <trkpt lat="48.11346" lon="1.33826">
        <ele>108</ele>
        <time>2018-10-09T13:46:18.102Z</time>
      </trkpt>
      <trkpt lat="48.11346" lon="1.33828">
        <ele>108</ele>
        <time>2018-10-09T13:46:19.102Z</time>
      </trkpt>
      <trkpt lat="48.11346" lon="1.33829">
        <ele>108</ele>
        <time>2018-10-09T13:46:20.102Z</time>
      </trkpt>
      <trkpt lat="48.11347" lon="1.33831">
        <ele>108</ele>
        <time>2018-10-09T13:46:21.102Z</time>
      </trkpt>
      <trkpt lat="48.11347" lon="1.33833">
        <ele>108</ele>
        <time>2018-10-09T13:46:22.102Z</time>
      </trkpt>
      <trkpt lat="48.11347" lon="1.33835">
        <ele>108</ele>
        <time>2018-10-09T13:46:23.102Z</time>
      </trkpt>
      <trkpt lat="48.11347" lon="1.33837">
        <ele>108</ele>
        <time>2018-10-09T13:46:24.102Z</time>
      </trkpt>
      <trkpt lat="48.11347" lon="1.33838">
        <ele>108</ele>
        <time>2018-10-09T13:46:25.102Z</time>
      </trkpt>
      <trkpt lat="48.11347" lon="1.3384">
        <ele>108</ele>
        <time>2018-10-09T13:46:26.102Z</time>
      </trkpt>
      <trkpt lat="48.11347" lon="1.33842">
        <ele>108</ele>
        <time>2018-10-09T13:46:27.102Z</time>
      </trkpt>
      <trkpt lat="48.11347" lon="1.33844">
        <ele>108</ele>
        <time>2018-10-09T13:46:28.102Z</time>
      </trkpt>
      <trkpt lat="48.11348" lon="1.33846">
        <ele>108</ele>
        <time>2018-10-09T13:46:29.102Z</time>
      </trkpt>
      <trkpt lat="48.11348" lon="1.33848">
        <ele>108</ele>
        <time>2018-10-09T13:46:30.102Z</time>
      </trkpt>
      <trkpt lat="48.11348" lon="1.3385">
        <ele>108</ele>
        <time>2018-10-09T13:46:31.102Z</time>
      </trkpt>
      <trkpt lat="48.11348" lon="1.33852">
        <ele>108</ele>
        <time>2018-10-09T13:46:32.102Z</time>
      </trkpt>
      <trkpt lat="48.11348" lon="1.33854">
        <ele>108</ele>
        <time>2018-10-09T13:46:33.102Z</time>
      </trkpt>
      <trkpt lat="48.11349" lon="1.33856">
        <ele>108</ele>
        <time>2018-10-09T13:46:34.102Z</time>
      </trkpt>
      <trkpt lat="48.11349" lon="1.33858">
        <ele>108</ele>
        <time>2018-10-09T13:46:35.102Z</time>
      </trkpt>
      <trkpt lat="48.11349" lon="1.3386">
        <ele>109</ele>
        <time>2018-10-09T13:46:36.102Z</time>
      </trkpt>
      <trkpt lat="48.11349" lon="1.33862">
        <ele>109</ele>
        <time>2018-10-09T13:46:37.102Z</time>
      </trkpt>
      <trkpt lat="48.11349" lon="1.33864">
        <ele>109</ele>
        <time>2018-10-09T13:46:38.102Z</time>
      </trkpt>
      <trkpt lat="48.1135" lon="1.33866">
        <ele>109</ele>
        <time>2018-10-09T13:46:39.102Z</time>
      </trkpt>
      <trkpt lat="48.1135" lon="1.33868">
        <ele>109</ele>
        <time>2018-10-09T13:46:40.102Z</time>
      </trkpt>
      <trkpt lat="48.1135" lon="1.3387">
        <ele>109</ele>
        <time>2018-10-09T13:46:41.102Z</time>
      </trkpt>
      <trkpt lat="48.1135" lon="1.33872">
        <ele>109</ele>
        <time>2018-10-09T13:46:42.102Z</time>
      </trkpt>
      <trkpt lat="48.1135" lon="1.33874">
        <ele>109</ele>
        <time>2018-10-09T13:46:43.102Z</time>
      </trkpt>
      <trkpt lat="48.1135" lon="1.33876">
        <ele>109</ele>
        <time>2018-10-09T13:46:44.102Z</time>
      </trkpt>
      <trkpt lat="48.11351" lon="1.33878">
        <ele>109</ele>
        <time>2018-10-09T13:46:45.102Z</time>
      </trkpt>
      <trkpt lat="48.11351" lon="1.3388">
        <ele>109</ele>
        <time>2018-10-09T13:46:46.102Z</time>
      </trkpt>
      <trkpt lat="48.11351" lon="1.33882">
        <ele>109</ele>
        <time>2018-10-09T13:46:47.102Z</time>
      </trkpt>
      <trkpt lat="48.11351" lon="1.33884">
        <ele>109</ele>
        <time>2018-10-09T13:46:48.102Z</time>
      </trkpt>
      <trkpt lat="48.11351" lon="1.33886">
        <ele>109</ele>
        <time>2018-10-09T13:46:49.102Z</time>
      </trkpt>
      <trkpt lat="48.11351" lon="1.33888">
        <ele>109</ele>
        <time>2018-10-09T13:46:50.102Z</time>
      </trkpt>
      <trkpt lat="48.11351" lon="1.33889">
        <ele>109</ele>
        <time>2018-10-09T13:46:51.102Z</time>
      </trkpt>
      <trkpt lat="48.11352" lon="1.33891">
        <ele>109</ele>
        <time>2018-10-09T13:46:52.102Z</time>
      </trkpt>
      <trkpt lat="48.11352" lon="1.33893">
        <ele>109</ele>
        <time>2018-10-09T13:46:53.102Z</time>
      </trkpt>
      <trkpt lat="48.11352" lon="1.33895">
        <ele>109</ele>
        <time>2018-10-09T13:46:54.102Z</time>
      </trkpt>
      <trkpt lat="48.11352" lon="1.33897">
        <ele>109</ele>
        <time>2018-10-09T13:46:55.102Z</time>
      </trkpt>
      <trkpt lat="48.11352" lon="1.33899">
        <ele>109</ele>
        <time>2018-10-09T13:46:56.102Z</time>
      </trkpt>
      <trkpt lat="48.11352" lon="1.33901">
        <ele>109</ele>
        <time>2018-10-09T13:46:57.102Z</time>
      </trkpt>
      <trkpt lat="48.11352" lon="1.33903">
        <ele>109</ele>
        <time>2018-10-09T13:46:58.102Z</time>
      </trkpt>
      <trkpt lat="48.11352" lon="1.33905">
        <ele>109</ele>
        <time>2018-10-09T13:46:59.102Z</time>
      </trkpt>
      <trkpt lat="48.11353" lon="1.33907">
        <ele>109</ele>
        <time>2018-10-09T13:47:00.102Z</time>
      </trkpt>
      <trkpt lat="48.11353" lon="1.33909">
        <ele>109</ele>
        <time>2018-10-09T13:47:01.102Z</time>
      </trkpt>
      <trkpt lat="48.11353" lon="1.33911">
        <ele>109</ele>
        <time>2018-10-09T13:47:02.102Z</time>
      </trkpt>
      <trkpt lat="48.11353" lon="1.33913">
        <ele>109</ele>
        <time>2018-10-09T13:47:03.102Z</time>
      </trkpt>
      <trkpt lat="48.11353" lon="1.33915">
        <ele>109</ele>
        <time>2018-10-09T13:47:04.102Z</time>
      </trkpt>
      <trkpt lat="48.11353" lon="1.33917">
        <ele>109</ele>
        <time>2018-10-09T13:47:05.102Z</time>
      </trkpt>
      <trkpt lat="48.11353" lon="1.33918">
        <ele>109</ele>
        <time>2018-10-09T13:47:06.102Z</time>
      </trkpt>
      <trkpt lat="48.11353" lon="1.3392">
        <ele>109</ele>
        <time>2018-10-09T13:47:07.102Z</time>
      </trkpt>
      <trkpt lat="48.11353" lon="1.33922">
        <ele>109</ele>
        <time>2018-10-09T13:47:08.102Z</time>
      </trkpt>
      <trkpt lat="48.11353" lon="1.33924">
        <ele>109</ele>
        <time>2018-10-09T13:47:09.102Z</time>
      </trkpt>
      <trkpt lat="48.11353" lon="1.33926">
        <ele>109</ele>
        <time>2018-10-09T13:47:10.102Z</time>
      </trkpt>
      <trkpt lat="48.11353" lon="1.33928">
        <ele>109</ele>
        <time>2018-10-09T13:47:11.102Z</time>
      </trkpt>
      <trkpt lat="48.11353" lon="1.3393">
        <ele>110</ele>
        <time>2018-10-09T13:47:12.102Z</time>
      </trkpt>
      <trkpt lat="48.11353" lon="1.33932">
        <ele>110</ele>
        <time>2018-10-09T13:47:13.102Z</time>
      </trkpt>
      <trkpt lat="48.11353" lon="1.33934">
        <ele>110</ele>
        <time>2018-10-09T13:47:14.102Z</time>
      </trkpt>
      <trkpt lat="48.11354" lon="1.33936">
        <ele>110</ele>
        <time>2018-10-09T13:47:15.102Z</time>
      </trkpt>
      <trkpt lat="48.11354" lon="1.33937">
        <ele>110</ele>
        <time>2018-10-09T13:47:16.102Z</time>
      </trkpt>
      <trkpt lat="48.11354" lon="1.33939">
        <ele>110</ele>
        <time>2018-10-09T13:47:17.102Z</time>
      </trkpt>
      <trkpt lat="48.11354" lon="1.3394">
        <ele>109</ele>
        <time>2018-10-09T13:47:18.102Z</time>
      </trkpt>
      <trkpt lat="48.11355" lon="1.33942">
        <ele>109</ele>
        <time>2018-10-09T13:47:19.102Z</time>
      </trkpt>
      <trkpt lat="48.11355" lon="1.33944">
        <ele>110</ele>
        <time>2018-10-09T13:47:20.102Z</time>
      </trkpt>
      <trkpt lat="48.11355" lon="1.33946">
        <ele>109</ele>
        <time>2018-10-09T13:47:21.102Z</time>
      </trkpt>
      <trkpt lat="48.11355" lon="1.33948">
        <ele>109</ele>
        <time>2018-10-09T13:47:22.102Z</time>
      </trkpt>
      <trkpt lat="48.11355" lon="1.33949">
        <ele>110</ele>
        <time>2018-10-09T13:47:23.102Z</time>
      </trkpt>
      <trkpt lat="48.11355" lon="1.33951">
        <ele>110</ele>
        <time>2018-10-09T13:47:24.102Z</time>
      </trkpt>
      <trkpt lat="48.11355" lon="1.33951">
        <ele>110</ele>
        <time>2018-10-09T13:47:25.102Z</time>
      </trkpt>
      <trkpt lat="48.11355" lon="1.33952">
        <ele>110</ele>
        <time>2018-10-09T13:47:26.102Z</time>
      </trkpt>
      <trkpt lat="48.11355" lon="1.33953">
        <ele>110</ele>
        <time>2018-10-09T13:47:27.102Z</time>
      </trkpt>
      <trkpt lat="48.11355" lon="1.33953">
        <ele>110</ele>
        <time>2018-10-09T13:47:28.102Z</time>
      </trkpt>
      <trkpt lat="48.11355" lon="1.33953">
        <ele>110</ele>
        <time>2018-10-09T13:47:29.102Z</time>
      </trkpt>
      <trkpt lat="48.11355" lon="1.33953">
        <ele>110</ele>
        <time>2018-10-09T13:47:30.102Z</time>
      </trkpt>
      <trkpt lat="48.11355" lon="1.33953">
        <ele>109</ele>
        <time>2018-10-09T13:47:31.102Z</time>
      </trkpt>
      <trkpt lat="48.11355" lon="1.33953">
        <ele>110</ele>
        <time>2018-10-09T13:47:32.102Z</time>
      </trkpt>
      <trkpt lat="48.11355" lon="1.33953">
        <ele>110</ele>
        <time>2018-10-09T13:47:33.102Z</time>
      </trkpt>
      <trkpt lat="48.11352" lon="1.33952">
        <ele>110</ele>
        <time>2018-10-09T13:47:34.106Z</time>
      </trkpt>
      <trkpt lat="48.11351" lon="1.33952">
        <ele>110</ele>
        <time>2018-10-09T13:47:35.106Z</time>
      </trkpt>
      <trkpt lat="48.11349" lon="1.33951">
        <ele>109</ele>
        <time>2018-10-09T13:47:36.106Z</time>
      </trkpt>
      <trkpt lat="48.11348" lon="1.3395">
        <ele>109</ele>
        <time>2018-10-09T13:47:37.106Z</time>
      </trkpt>
      <trkpt lat="48.11347" lon="1.33949">
        <ele>109</ele>
        <time>2018-10-09T13:47:38.106Z</time>
      </trkpt>
      <trkpt lat="48.11345" lon="1.33948">
        <ele>109</ele>
        <time>2018-10-09T13:47:39.106Z</time>
      </trkpt>
      <trkpt lat="48.11344" lon="1.33947">
        <ele>109</ele>
        <time>2018-10-09T13:47:40.106Z</time>
      </trkpt>
      <trkpt lat="48.11343" lon="1.33946">
        <ele>109</ele>
        <time>2018-10-09T13:47:41.106Z</time>
      </trkpt>
      <trkpt lat="48.11341" lon="1.33945">
        <ele>109</ele>
        <time>2018-10-09T13:47:42.106Z</time>
      </trkpt>
      <trkpt lat="48.1134" lon="1.33945">
        <ele>109</ele>
        <time>2018-10-09T13:47:43.106Z</time>
      </trkpt>
      <trkpt lat="48.11339" lon="1.33944">
        <ele>109</ele>
        <time>2018-10-09T13:47:44.106Z</time>
      </trkpt>
      <trkpt lat="48.11337" lon="1.33943">
        <ele>109</ele>
        <time>2018-10-09T13:47:45.106Z</time>
      </trkpt>
      <trkpt lat="48.11336" lon="1.33943">
        <ele>108</ele>
        <time>2018-10-09T13:47:46.106Z</time>
      </trkpt>
      <trkpt lat="48.11335" lon="1.33942">
        <ele>108</ele>
        <time>2018-10-09T13:47:47.106Z</time>
      </trkpt>
      <trkpt lat="48.11334" lon="1.33941">
        <ele>108</ele>
        <time>2018-10-09T13:47:48.106Z</time>
      </trkpt>
      <trkpt lat="48.11333" lon="1.3394">
        <ele>109</ele>
        <time>2018-10-09T13:47:49.106Z</time>
      </trkpt>
      <trkpt lat="48.11332" lon="1.33939">
        <ele>108</ele>
        <time>2018-10-09T13:47:50.106Z</time>
      </trkpt>
      <trkpt lat="48.11331" lon="1.33938">
        <ele>109</ele>
        <time>2018-10-09T13:47:51.106Z</time>
      </trkpt>
      <trkpt lat="48.1133" lon="1.33938">
        <ele>109</ele>
        <time>2018-10-09T13:47:52.106Z</time>
      </trkpt>
      <trkpt lat="48.11329" lon="1.33937">
        <ele>109</ele>
        <time>2018-10-09T13:47:53.106Z</time>
      </trkpt>
      <trkpt lat="48.11328" lon="1.33937">
        <ele>109</ele>
        <time>2018-10-09T13:47:54.106Z</time>
      </trkpt>
      <trkpt lat="48.11327" lon="1.33936">
        <ele>108</ele>
        <time>2018-10-09T13:47:55.106Z</time>
      </trkpt>
      <trkpt lat="48.11326" lon="1.33935">
        <ele>108</ele>
        <time>2018-10-09T13:47:56.106Z</time>
      </trkpt>
      <trkpt lat="48.11325" lon="1.33934">
        <ele>108</ele>
        <time>2018-10-09T13:47:57.106Z</time>
      </trkpt>
      <trkpt lat="48.11323" lon="1.33933">
        <ele>108</ele>
        <time>2018-10-09T13:47:58.106Z</time>
      </trkpt>
      <trkpt lat="48.11322" lon="1.33933">
        <ele>107</ele>
        <time>2018-10-09T13:47:59.106Z</time>
      </trkpt>
      <trkpt lat="48.11321" lon="1.33932">
        <ele>107</ele>
        <time>2018-10-09T13:48:00.106Z</time>
      </trkpt>
      <trkpt lat="48.1132" lon="1.33932">
        <ele>107</ele>
        <time>2018-10-09T13:48:01.106Z</time>
      </trkpt>
      <trkpt lat="48.11319" lon="1.33931">
        <ele>107</ele>
        <time>2018-10-09T13:48:02.106Z</time>
      </trkpt>
      <trkpt lat="48.11317" lon="1.3393">
        <ele>107</ele>
        <time>2018-10-09T13:48:03.106Z</time>
      </trkpt>
      <trkpt lat="48.11316" lon="1.3393">
        <ele>106</ele>
        <time>2018-10-09T13:48:04.106Z</time>
      </trkpt>
      <trkpt lat="48.11314" lon="1.33929">
        <ele>106</ele>
        <time>2018-10-09T13:48:05.106Z</time>
      </trkpt>
      <trkpt lat="48.11313" lon="1.33928">
        <ele>106</ele>
        <time>2018-10-09T13:48:06.106Z</time>
      </trkpt>
      <trkpt lat="48.11311" lon="1.33928">
        <ele>105</ele>
        <time>2018-10-09T13:48:07.106Z</time>
      </trkpt>
      <trkpt lat="48.1131" lon="1.33927">
        <ele>106</ele>
        <time>2018-10-09T13:48:08.106Z</time>
      </trkpt>
      <trkpt lat="48.11309" lon="1.33926">
        <ele>108</ele>
        <time>2018-10-09T13:48:09.106Z</time>
      </trkpt>
      <trkpt lat="48.11307" lon="1.33925">
        <ele>109</ele>
        <time>2018-10-09T13:48:10.106Z</time>
      </trkpt>
      <trkpt lat="48.11306" lon="1.33924">
        <ele>109</ele>
        <time>2018-10-09T13:48:11.106Z</time>
      </trkpt>
      <trkpt lat="48.11305" lon="1.33923">
        <ele>108</ele>
        <time>2018-10-09T13:48:12.106Z</time>
      </trkpt>
      <trkpt lat="48.11304" lon="1.33922">
        <ele>108</ele>
        <time>2018-10-09T13:48:13.106Z</time>
      </trkpt>
      <trkpt lat="48.11302" lon="1.33922">
        <ele>108</ele>
        <time>2018-10-09T13:48:14.106Z</time>
      </trkpt>
      <trkpt lat="48.11301" lon="1.33921">
        <ele>108</ele>
        <time>2018-10-09T13:48:15.106Z</time>
      </trkpt>
      <trkpt lat="48.113" lon="1.3392">
        <ele>107</ele>
        <time>2018-10-09T13:48:16.106Z</time>
      </trkpt>
      <trkpt lat="48.11299" lon="1.3392">
        <ele>107</ele>
        <time>2018-10-09T13:48:17.106Z</time>
      </trkpt>
      <trkpt lat="48.11297" lon="1.33919">
        <ele>107</ele>
        <time>2018-10-09T13:48:18.106Z</time>
      </trkpt>
      <trkpt lat="48.11296" lon="1.33918">
        <ele>107</ele>
        <time>2018-10-09T13:48:19.106Z</time>
      </trkpt>
      <trkpt lat="48.11295" lon="1.33917">
        <ele>107</ele>
        <time>2018-10-09T13:48:20.106Z</time>
      </trkpt>
      <trkpt lat="48.11294" lon="1.33916">
        <ele>107</ele>
        <time>2018-10-09T13:48:21.106Z</time>
      </trkpt>
      <trkpt lat="48.11293" lon="1.33915">
        <ele>107</ele>
        <time>2018-10-09T13:48:22.106Z</time>
      </trkpt>
      <trkpt lat="48.11292" lon="1.33915">
        <ele>108</ele>
        <time>2018-10-09T13:48:23.106Z</time>
      </trkpt>
      <trkpt lat="48.1129" lon="1.33915">
        <ele>108</ele>
        <time>2018-10-09T13:48:24.106Z</time>
      </trkpt>
      <trkpt lat="48.11289" lon="1.33914">
        <ele>108</ele>
        <time>2018-10-09T13:48:25.106Z</time>
      </trkpt>
      <trkpt lat="48.11288" lon="1.33913">
        <ele>109</ele>
        <time>2018-10-09T13:48:26.106Z</time>
      </trkpt>
      <trkpt lat="48.11286" lon="1.33913">
        <ele>109</ele>
        <time>2018-10-09T13:48:27.106Z</time>
      </trkpt>
      <trkpt lat="48.11285" lon="1.33912">
        <ele>108</ele>
        <time>2018-10-09T13:48:28.106Z</time>
      </trkpt>
      <trkpt lat="48.11284" lon="1.33911">
        <ele>108</ele>
        <time>2018-10-09T13:48:29.106Z</time>
      </trkpt>
      <trkpt lat="48.11283" lon="1.3391">
        <ele>108</ele>
        <time>2018-10-09T13:48:30.106Z</time>
      </trkpt>
      <trkpt lat="48.11282" lon="1.33909">
        <ele>108</ele>
        <time>2018-10-09T13:48:31.106Z</time>
      </trkpt>
      <trkpt lat="48.11281" lon="1.33908">
        <ele>107</ele>
        <time>2018-10-09T13:48:32.106Z</time>
      </trkpt>
      <trkpt lat="48.1128" lon="1.33908">
        <ele>107</ele>
        <time>2018-10-09T13:48:33.106Z</time>
      </trkpt>
      <trkpt lat="48.11279" lon="1.33907">
        <ele>106</ele>
        <time>2018-10-09T13:48:34.106Z</time>
      </trkpt>
      <trkpt lat="48.11277" lon="1.33907">
        <ele>106</ele>
        <time>2018-10-09T13:48:35.106Z</time>
      </trkpt>
      <trkpt lat="48.11276" lon="1.33906">
        <ele>106</ele>
        <time>2018-10-09T13:48:36.106Z</time>
      </trkpt>
      <trkpt lat="48.11275" lon="1.33906">
        <ele>106</ele>
        <time>2018-10-09T13:48:37.106Z</time>
      </trkpt>
      <trkpt lat="48.11274" lon="1.33906">
        <ele>106</ele>
        <time>2018-10-09T13:48:38.106Z</time>
      </trkpt>
      <trkpt lat="48.11272" lon="1.33905">
        <ele>105</ele>
        <time>2018-10-09T13:48:39.106Z</time>
      </trkpt>
      <trkpt lat="48.11271" lon="1.33905">
        <ele>105</ele>
        <time>2018-10-09T13:48:40.106Z</time>
      </trkpt>
      <trkpt lat="48.11269" lon="1.33905">
        <ele>105</ele>
        <time>2018-10-09T13:48:41.106Z</time>
      </trkpt>
      <trkpt lat="48.11268" lon="1.33904">
        <ele>105</ele>
        <time>2018-10-09T13:48:42.106Z</time>
      </trkpt>
      <trkpt lat="48.11267" lon="1.33904">
        <ele>105</ele>
        <time>2018-10-09T13:48:43.106Z</time>
      </trkpt>
      <trkpt lat="48.11265" lon="1.33903">
        <ele>104</ele>
        <time>2018-10-09T13:48:44.106Z</time>
      </trkpt>
      <trkpt lat="48.11264" lon="1.33903">
        <ele>104</ele>
        <time>2018-10-09T13:48:45.106Z</time>
      </trkpt>
      <trkpt lat="48.11263" lon="1.33903">
        <ele>104</ele>
        <time>2018-10-09T13:48:46.106Z</time>
      </trkpt>
      <trkpt lat="48.11261" lon="1.33903">
        <ele>104</ele>
        <time>2018-10-09T13:48:47.106Z</time>
      </trkpt>
      <trkpt lat="48.1126" lon="1.33903">
        <ele>103</ele>
        <time>2018-10-09T13:48:48.106Z</time>
      </trkpt>
      <trkpt lat="48.11259" lon="1.33903">
        <ele>104</ele>
        <time>2018-10-09T13:48:49.106Z</time>
      </trkpt>
      <trkpt lat="48.11258" lon="1.33903">
        <ele>104</ele>
        <time>2018-10-09T13:48:50.106Z</time>
      </trkpt>
      <trkpt lat="48.11257" lon="1.33903">
        <ele>104</ele>
        <time>2018-10-09T13:48:51.106Z</time>
      </trkpt>
      <trkpt lat="48.11255" lon="1.33903">
        <ele>104</ele>
        <time>2018-10-09T13:48:52.106Z</time>
      </trkpt>
      <trkpt lat="48.11254" lon="1.33903">
        <ele>104</ele>
        <time>2018-10-09T13:48:53.106Z</time>
      </trkpt>
      <trkpt lat="48.11253" lon="1.33903">
        <ele>105</ele>
        <time>2018-10-09T13:48:54.106Z</time>
      </trkpt>
      <trkpt lat="48.11252" lon="1.33903">
        <ele>105</ele>
        <time>2018-10-09T13:48:55.106Z</time>
      </trkpt>
      <trkpt lat="48.1125" lon="1.33903">
        <ele>104</ele>
        <time>2018-10-09T13:48:56.106Z</time>
      </trkpt>
      <trkpt lat="48.11249" lon="1.33903">
        <ele>104</ele>
        <time>2018-10-09T13:48:57.106Z</time>
      </trkpt>
      <trkpt lat="48.11248" lon="1.33903">
        <ele>104</ele>
        <time>2018-10-09T13:48:58.106Z</time>
      </trkpt>
      <trkpt lat="48.11247" lon="1.33903">
        <ele>104</ele>
        <time>2018-10-09T13:48:59.106Z</time>
      </trkpt>
      <trkpt lat="48.11246" lon="1.33903">
        <ele>104</ele>
        <time>2018-10-09T13:49:00.106Z</time>
      </trkpt>
      <trkpt lat="48.11245" lon="1.33903">
        <ele>103</ele>
        <time>2018-10-09T13:49:01.106Z</time>
      </trkpt>
      <trkpt lat="48.11244" lon="1.33903">
        <ele>103</ele>
        <time>2018-10-09T13:49:02.106Z</time>
      </trkpt>
      <trkpt lat="48.11243" lon="1.33903">
        <ele>102</ele>
        <time>2018-10-09T13:49:03.106Z</time>
      </trkpt>
      <trkpt lat="48.11242" lon="1.33903">
        <ele>102</ele>
        <time>2018-10-09T13:49:04.106Z</time>
      </trkpt>
      <trkpt lat="48.1124" lon="1.33903">
        <ele>101</ele>
        <time>2018-10-09T13:49:05.106Z</time>
      </trkpt>
      <trkpt lat="48.11239" lon="1.33903">
        <ele>101</ele>
        <time>2018-10-09T13:49:06.106Z</time>
      </trkpt>
      <trkpt lat="48.11238" lon="1.33903">
        <ele>100</ele>
        <time>2018-10-09T13:49:07.106Z</time>
      </trkpt>
      <trkpt lat="48.11237" lon="1.33903">
        <ele>101</ele>
        <time>2018-10-09T13:49:08.106Z</time>
      </trkpt>
      <trkpt lat="48.11235" lon="1.33903">
        <ele>102</ele>
        <time>2018-10-09T13:49:09.106Z</time>
      </trkpt>
      <trkpt lat="48.11234" lon="1.33903">
        <ele>102</ele>
        <time>2018-10-09T13:49:10.106Z</time>
      </trkpt>
      <trkpt lat="48.11232" lon="1.33903">
        <ele>101</ele>
        <time>2018-10-09T13:49:11.106Z</time>
      </trkpt>
      <trkpt lat="48.11231" lon="1.33902">
        <ele>101</ele>
        <time>2018-10-09T13:49:12.106Z</time>
      </trkpt>
      <trkpt lat="48.1123" lon="1.33901">
        <ele>102</ele>
        <time>2018-10-09T13:49:13.106Z</time>
      </trkpt>
      <trkpt lat="48.11229" lon="1.33899">
        <ele>102</ele>
        <time>2018-10-09T13:49:14.106Z</time>
      </trkpt>
      <trkpt lat="48.11227" lon="1.33898">
        <ele>102</ele>
        <time>2018-10-09T13:49:15.106Z</time>
      </trkpt>
      <trkpt lat="48.11227" lon="1.33897">
        <ele>101</ele>
        <time>2018-10-09T13:49:16.106Z</time>
      </trkpt>
      <trkpt lat="48.11226" lon="1.33895">
        <ele>101</ele>
        <time>2018-10-09T13:49:17.106Z</time>
      </trkpt>
      <trkpt lat="48.11225" lon="1.33893">
        <ele>101</ele>
        <time>2018-10-09T13:49:18.106Z</time>
      </trkpt>
      <trkpt lat="48.11224" lon="1.33892">
        <ele>100</ele>
        <time>2018-10-09T13:49:19.106Z</time>
      </trkpt>
      <trkpt lat="48.11224" lon="1.3389">
        <ele>100</ele>
        <time>2018-10-09T13:49:20.106Z</time>
      </trkpt>
      <trkpt lat="48.11223" lon="1.33888">
        <ele>99</ele>
        <time>2018-10-09T13:49:21.106Z</time>
      </trkpt>
      <trkpt lat="48.11222" lon="1.33887">
        <ele>99</ele>
        <time>2018-10-09T13:49:22.106Z</time>
      </trkpt>
      <trkpt lat="48.11222" lon="1.33885">
        <ele>99</ele>
        <time>2018-10-09T13:49:23.106Z</time>
      </trkpt>
      <trkpt lat="48.11221" lon="1.33883">
        <ele>99</ele>
        <time>2018-10-09T13:49:24.106Z</time>
      </trkpt>
      <trkpt lat="48.11221" lon="1.33881">
        <ele>99</ele>
        <time>2018-10-09T13:49:25.106Z</time>
      </trkpt>
      <trkpt lat="48.1122" lon="1.33879">
        <ele>99</ele>
        <time>2018-10-09T13:49:26.106Z</time>
      </trkpt>
      <trkpt lat="48.11219" lon="1.33878">
        <ele>99</ele>
        <time>2018-10-09T13:49:27.106Z</time>
      </trkpt>
      <trkpt lat="48.11219" lon="1.33876">
        <ele>98</ele>
        <time>2018-10-09T13:49:28.106Z</time>
      </trkpt>
      <trkpt lat="48.11218" lon="1.33874">
        <ele>98</ele>
        <time>2018-10-09T13:49:29.106Z</time>
      </trkpt>
      <trkpt lat="48.11217" lon="1.33873">
        <ele>98</ele>
        <time>2018-10-09T13:49:30.106Z</time>
      </trkpt>
      <trkpt lat="48.11217" lon="1.33871">
        <ele>98</ele>
        <time>2018-10-09T13:49:31.106Z</time>
      </trkpt>
      <trkpt lat="48.11216" lon="1.33869">
        <ele>98</ele>
        <time>2018-10-09T13:49:32.106Z</time>
      </trkpt>
      <trkpt lat="48.11216" lon="1.33867">
        <ele>98</ele>
        <time>2018-10-09T13:49:33.106Z</time>
      </trkpt>
      <trkpt lat="48.11215" lon="1.33865">
        <ele>98</ele>
        <time>2018-10-09T13:49:34.106Z</time>
      </trkpt>
      <trkpt lat="48.11215" lon="1.33863">
        <ele>98</ele>
        <time>2018-10-09T13:49:35.106Z</time>
      </trkpt>
      <trkpt lat="48.11214" lon="1.33861">
        <ele>98</ele>
        <time>2018-10-09T13:49:36.106Z</time>
      </trkpt>
      <trkpt lat="48.11213" lon="1.33859">
        <ele>97</ele>
        <time>2018-10-09T13:49:37.106Z</time>
      </trkpt>
      <trkpt lat="48.11213" lon="1.33858">
        <ele>97</ele>
        <time>2018-10-09T13:49:38.106Z</time>
      </trkpt>
      <trkpt lat="48.11212" lon="1.33856">
        <ele>97</ele>
        <time>2018-10-09T13:49:39.106Z</time>
      </trkpt>
      <trkpt lat="48.11211" lon="1.33854">
        <ele>96</ele>
        <time>2018-10-09T13:49:40.106Z</time>
      </trkpt>
      <trkpt lat="48.11211" lon="1.33852">
        <ele>97</ele>
        <time>2018-10-09T13:49:41.106Z</time>
      </trkpt>
      <trkpt lat="48.11211" lon="1.3385">
        <ele>96</ele>
        <time>2018-10-09T13:49:42.106Z</time>
      </trkpt>
      <trkpt lat="48.1121" lon="1.33848">
        <ele>96</ele>
        <time>2018-10-09T13:49:43.106Z</time>
      </trkpt>
      <trkpt lat="48.11209" lon="1.33846">
        <ele>97</ele>
        <time>2018-10-09T13:49:44.106Z</time>
      </trkpt>
      <trkpt lat="48.11209" lon="1.33845">
        <ele>96</ele>
        <time>2018-10-09T13:49:45.106Z</time>
      </trkpt>
      <trkpt lat="48.11208" lon="1.33843">
        <ele>96</ele>
        <time>2018-10-09T13:49:46.106Z</time>
      </trkpt>
      <trkpt lat="48.11208" lon="1.33841">
        <ele>96</ele>
        <time>2018-10-09T13:49:47.106Z</time>
      </trkpt>
      <trkpt lat="48.11207" lon="1.3384">
        <ele>96</ele>
        <time>2018-10-09T13:49:48.106Z</time>
      </trkpt>
      <trkpt lat="48.11207" lon="1.33838">
        <ele>95</ele>
        <time>2018-10-09T13:49:49.106Z</time>
      </trkpt>
      <trkpt lat="48.11206" lon="1.33837">
        <ele>96</ele>
        <time>2018-10-09T13:49:50.106Z</time>
      </trkpt>
      <trkpt lat="48.11206" lon="1.33835">
        <ele>95</ele>
        <time>2018-10-09T13:49:51.106Z</time>
      </trkpt>
      <trkpt lat="48.11206" lon="1.33833">
        <ele>95</ele>
        <time>2018-10-09T13:49:52.106Z</time>
      </trkpt>
      <trkpt lat="48.11205" lon="1.33831">
        <ele>96</ele>
        <time>2018-10-09T13:49:53.106Z</time>
      </trkpt>
      <trkpt lat="48.11205" lon="1.33829">
        <ele>96</ele>
        <time>2018-10-09T13:49:54.106Z</time>
      </trkpt>
      <trkpt lat="48.11205" lon="1.33828">
        <ele>96</ele>
        <time>2018-10-09T13:49:55.106Z</time>
      </trkpt>
      <trkpt lat="48.11204" lon="1.33826">
        <ele>95</ele>
        <time>2018-10-09T13:49:56.106Z</time>
      </trkpt>
      <trkpt lat="48.11204" lon="1.33824">
        <ele>96</ele>
        <time>2018-10-09T13:49:57.106Z</time>
      </trkpt>
      <trkpt lat="48.11204" lon="1.33822">
        <ele>96</ele>
        <time>2018-10-09T13:49:58.106Z</time>
      </trkpt>
      <trkpt lat="48.11203" lon="1.3382">
        <ele>95</ele>
        <time>2018-10-09T13:49:59.106Z</time>
      </trkpt>
      <trkpt lat="48.11203" lon="1.33819">
        <ele>95</ele>
        <time>2018-10-09T13:50:00.106Z</time>
      </trkpt>
      <trkpt lat="48.11203" lon="1.33817">
        <ele>95</ele>
        <time>2018-10-09T13:50:01.106Z</time>
      </trkpt>
      <trkpt lat="48.11202" lon="1.33815">
        <ele>95</ele>
        <time>2018-10-09T13:50:02.106Z</time>
      </trkpt>
      <trkpt lat="48.11202" lon="1.33813">
        <ele>95</ele>
        <time>2018-10-09T13:50:03.106Z</time>
      </trkpt>
      <trkpt lat="48.11201" lon="1.33811">
        <ele>96</ele>
        <time>2018-10-09T13:50:04.106Z</time>
      </trkpt>
      <trkpt lat="48.11201" lon="1.33809">
        <ele>96</ele>
        <time>2018-10-09T13:50:05.106Z</time>
      </trkpt>
      <trkpt lat="48.11201" lon="1.33808">
        <ele>97</ele>
        <time>2018-10-09T13:50:06.106Z</time>
      </trkpt>
      <trkpt lat="48.112" lon="1.33806">
        <ele>97</ele>
        <time>2018-10-09T13:50:07.106Z</time>
      </trkpt>
      <trkpt lat="48.112" lon="1.33804">
        <ele>97</ele>
        <time>2018-10-09T13:50:08.106Z</time>
      </trkpt>
      <trkpt lat="48.11199" lon="1.33803">
        <ele>98</ele>
        <time>2018-10-09T13:50:09.106Z</time>
      </trkpt>
      <trkpt lat="48.11199" lon="1.33801">
        <ele>98</ele>
        <time>2018-10-09T13:50:10.106Z</time>
      </trkpt>
      <trkpt lat="48.11199" lon="1.33799">
        <ele>98</ele>
        <time>2018-10-09T13:50:11.106Z</time>
      </trkpt>
      <trkpt lat="48.11198" lon="1.33797">
        <ele>98</ele>
        <time>2018-10-09T13:50:12.106Z</time>
      </trkpt>
      <trkpt lat="48.11198" lon="1.33795">
        <ele>98</ele>
        <time>2018-10-09T13:50:13.106Z</time>
      </trkpt>
      <trkpt lat="48.11198" lon="1.33793">
        <ele>98</ele>
        <time>2018-10-09T13:50:14.106Z</time>
      </trkpt>
      <trkpt lat="48.11198" lon="1.3379">
        <ele>98</ele>
        <time>2018-10-09T13:50:15.106Z</time>
      </trkpt>
      <trkpt lat="48.11197" lon="1.33789">
        <ele>98</ele>
        <time>2018-10-09T13:50:16.106Z</time>
      </trkpt>
      <trkpt lat="48.11197" lon="1.33787">
        <ele>98</ele>
        <time>2018-10-09T13:50:17.106Z</time>
      </trkpt>
      <trkpt lat="48.11197" lon="1.33785">
        <ele>98</ele>
        <time>2018-10-09T13:50:18.106Z</time>
      </trkpt>
      <trkpt lat="48.11196" lon="1.33783">
        <ele>98</ele>
        <time>2018-10-09T13:50:19.106Z</time>
      </trkpt>
      <trkpt lat="48.11196" lon="1.33781">
        <ele>99</ele>
        <time>2018-10-09T13:50:20.106Z</time>
      </trkpt>
      <trkpt lat="48.11196" lon="1.33778">
        <ele>99</ele>
        <time>2018-10-09T13:50:21.106Z</time>
      </trkpt>
      <trkpt lat="48.11195" lon="1.33776">
        <ele>100</ele>
        <time>2018-10-09T13:50:22.106Z</time>
      </trkpt>
      <trkpt lat="48.11195" lon="1.33774">
        <ele>100</ele>
        <time>2018-10-09T13:50:23.106Z</time>
      </trkpt>
      <trkpt lat="48.11195" lon="1.33772">
        <ele>100</ele>
        <time>2018-10-09T13:50:24.106Z</time>
      </trkpt>
      <trkpt lat="48.11194" lon="1.3377">
        <ele>100</ele>
        <time>2018-10-09T13:50:25.106Z</time>
      </trkpt>
      <trkpt lat="48.11194" lon="1.33769">
        <ele>100</ele>
        <time>2018-10-09T13:50:26.106Z</time>
      </trkpt>
      <trkpt lat="48.11194" lon="1.33767">
        <ele>100</ele>
        <time>2018-10-09T13:50:27.106Z</time>
      </trkpt>
      <trkpt lat="48.11193" lon="1.33765">
        <ele>100</ele>
        <time>2018-10-09T13:50:28.106Z</time>
      </trkpt>
      <trkpt lat="48.11193" lon="1.33763">
        <ele>101</ele>
        <time>2018-10-09T13:50:29.106Z</time>
      </trkpt>
      <trkpt lat="48.11193" lon="1.33761">
        <ele>101</ele>
        <time>2018-10-09T13:50:30.106Z</time>
      </trkpt>
      <trkpt lat="48.11193" lon="1.33759">
        <ele>101</ele>
        <time>2018-10-09T13:50:31.106Z</time>
      </trkpt>
      <trkpt lat="48.11192" lon="1.33757">
        <ele>101</ele>
        <time>2018-10-09T13:50:32.106Z</time>
      </trkpt>
      <trkpt lat="48.11192" lon="1.33756">
        <ele>100</ele>
        <time>2018-10-09T13:50:33.106Z</time>
      </trkpt>
      <trkpt lat="48.11192" lon="1.33754">
        <ele>100</ele>
        <time>2018-10-09T13:50:34.106Z</time>
      </trkpt>
      <trkpt lat="48.11191" lon="1.33752">
        <ele>100</ele>
        <time>2018-10-09T13:50:35.106Z</time>
      </trkpt>
      <trkpt lat="48.11191" lon="1.3375">
        <ele>100</ele>
        <time>2018-10-09T13:50:36.106Z</time>
      </trkpt>
      <trkpt lat="48.1119" lon="1.33748">
        <ele>99</ele>
        <time>2018-10-09T13:50:37.106Z</time>
      </trkpt>
      <trkpt lat="48.1119" lon="1.33747">
        <ele>99</ele>
        <time>2018-10-09T13:50:38.106Z</time>
      </trkpt>
      <trkpt lat="48.11189" lon="1.33745">
        <ele>99</ele>
        <time>2018-10-09T13:50:39.106Z</time>
      </trkpt>
      <trkpt lat="48.11189" lon="1.33743">
        <ele>99</ele>
        <time>2018-10-09T13:50:40.106Z</time>
      </trkpt>
      <trkpt lat="48.11189" lon="1.33741">
        <ele>99</ele>
        <time>2018-10-09T13:50:41.106Z</time>
      </trkpt>
      <trkpt lat="48.11189" lon="1.33739">
        <ele>98</ele>
        <time>2018-10-09T13:50:42.106Z</time>
      </trkpt>
      <trkpt lat="48.11188" lon="1.33737">
        <ele>98</ele>
        <time>2018-10-09T13:50:43.106Z</time>
      </trkpt>
      <trkpt lat="48.11188" lon="1.33735">
        <ele>97</ele>
        <time>2018-10-09T13:50:44.106Z</time>
      </trkpt>
      <trkpt lat="48.11188" lon="1.33732">
        <ele>97</ele>
        <time>2018-10-09T13:50:45.106Z</time>
      </trkpt>
      <trkpt lat="48.11187" lon="1.3373">
        <ele>96</ele>
        <time>2018-10-09T13:50:46.106Z</time>
      </trkpt>
      <trkpt lat="48.11187" lon="1.33728">
        <ele>97</ele>
        <time>2018-10-09T13:50:47.106Z</time>
      </trkpt>
      <trkpt lat="48.11187" lon="1.33726">
        <ele>96</ele>
        <time>2018-10-09T13:50:48.106Z</time>
      </trkpt>
      <trkpt lat="48.11187" lon="1.33724">
        <ele>96</ele>
        <time>2018-10-09T13:50:49.106Z</time>
      </trkpt>
      <trkpt lat="48.11187" lon="1.33722">
        <ele>96</ele>
        <time>2018-10-09T13:50:50.106Z</time>
      </trkpt>
      <trkpt lat="48.11186" lon="1.3372">
        <ele>96</ele>
        <time>2018-10-09T13:50:51.106Z</time>
      </trkpt>
      <trkpt lat="48.11186" lon="1.33718">
        <ele>96</ele>
        <time>2018-10-09T13:50:52.106Z</time>
      </trkpt>
      <trkpt lat="48.11186" lon="1.33716">
        <ele>97</ele>
        <time>2018-10-09T13:50:53.106Z</time>
      </trkpt>
      <trkpt lat="48.11185" lon="1.33714">
        <ele>96</ele>
        <time>2018-10-09T13:50:54.106Z</time>
      </trkpt>
      <trkpt lat="48.11185" lon="1.33712">
        <ele>96</ele>
        <time>2018-10-09T13:50:55.106Z</time>
      </trkpt>
      <trkpt lat="48.11184" lon="1.3371">
        <ele>96</ele>
        <time>2018-10-09T13:50:56.106Z</time>
      </trkpt>
      <trkpt lat="48.11184" lon="1.33708">
        <ele>96</ele>
        <time>2018-10-09T13:50:57.106Z</time>
      </trkpt>
      <trkpt lat="48.11184" lon="1.33706">
        <ele>96</ele>
        <time>2018-10-09T13:50:58.106Z</time>
      </trkpt>
      <trkpt lat="48.11183" lon="1.33704">
        <ele>96</ele>
        <time>2018-10-09T13:50:59.106Z</time>
      </trkpt>
      <trkpt lat="48.11183" lon="1.33702">
        <ele>95</ele>
        <time>2018-10-09T13:51:00.106Z</time>
      </trkpt>
      <trkpt lat="48.11183" lon="1.337">
        <ele>95</ele>
        <time>2018-10-09T13:51:01.106Z</time>
      </trkpt>
      <trkpt lat="48.11182" lon="1.33698">
        <ele>95</ele>
        <time>2018-10-09T13:51:02.106Z</time>
      </trkpt>
      <trkpt lat="48.11182" lon="1.33696">
        <ele>96</ele>
        <time>2018-10-09T13:51:03.106Z</time>
      </trkpt>
      <trkpt lat="48.11182" lon="1.33694">
        <ele>95</ele>
        <time>2018-10-09T13:51:04.106Z</time>
      </trkpt>
      <trkpt lat="48.11181" lon="1.33692">
        <ele>95</ele>
        <time>2018-10-09T13:51:05.106Z</time>
      </trkpt>
      <trkpt lat="48.11181" lon="1.3369">
        <ele>95</ele>
        <time>2018-10-09T13:51:06.106Z</time>
      </trkpt>
      <trkpt lat="48.11181" lon="1.33688">
        <ele>95</ele>
        <time>2018-10-09T13:51:07.106Z</time>
      </trkpt>
      <trkpt lat="48.1118" lon="1.33686">
        <ele>95</ele>
        <time>2018-10-09T13:51:08.106Z</time>
      </trkpt>
      <trkpt lat="48.1118" lon="1.33684">
        <ele>95</ele>
        <time>2018-10-09T13:51:09.106Z</time>
      </trkpt>
      <trkpt lat="48.1118" lon="1.33683">
        <ele>95</ele>
        <time>2018-10-09T13:51:10.106Z</time>
      </trkpt>
      <trkpt lat="48.11179" lon="1.33681">
        <ele>96</ele>
        <time>2018-10-09T13:51:11.106Z</time>
      </trkpt>
      <trkpt lat="48.11179" lon="1.33679">
        <ele>95</ele>
        <time>2018-10-09T13:51:12.106Z</time>
      </trkpt>
      <trkpt lat="48.11179" lon="1.33677">
        <ele>95</ele>
        <time>2018-10-09T13:51:13.106Z</time>
      </trkpt>
      <trkpt lat="48.11179" lon="1.33675">
        <ele>95</ele>
        <time>2018-10-09T13:51:14.106Z</time>
      </trkpt>
      <trkpt lat="48.11178" lon="1.33673">
        <ele>94</ele>
        <time>2018-10-09T13:51:15.106Z</time>
      </trkpt>
      <trkpt lat="48.11178" lon="1.33672">
        <ele>94</ele>
        <time>2018-10-09T13:51:16.106Z</time>
      </trkpt>
      <trkpt lat="48.11177" lon="1.3367">
        <ele>94</ele>
        <time>2018-10-09T13:51:17.106Z</time>
      </trkpt>
      <trkpt lat="48.11177" lon="1.33668">
        <ele>94</ele>
        <time>2018-10-09T13:51:18.106Z</time>
      </trkpt>
      <trkpt lat="48.11177" lon="1.33666">
        <ele>94</ele>
        <time>2018-10-09T13:51:19.106Z</time>
      </trkpt>
      <trkpt lat="48.11176" lon="1.33664">
        <ele>94</ele>
        <time>2018-10-09T13:51:20.106Z</time>
      </trkpt>
      <trkpt lat="48.11176" lon="1.33662">
        <ele>94</ele>
        <time>2018-10-09T13:51:21.106Z</time>
      </trkpt>
      <trkpt lat="48.11176" lon="1.3366">
        <ele>94</ele>
        <time>2018-10-09T13:51:22.106Z</time>
      </trkpt>
      <trkpt lat="48.11175" lon="1.33658">
        <ele>95</ele>
        <time>2018-10-09T13:51:23.106Z</time>
      </trkpt>
      <trkpt lat="48.11175" lon="1.33656">
        <ele>94</ele>
        <time>2018-10-09T13:51:24.106Z</time>
      </trkpt>
      <trkpt lat="48.11175" lon="1.33654">
        <ele>95</ele>
        <time>2018-10-09T13:51:25.106Z</time>
      </trkpt>
      <trkpt lat="48.11174" lon="1.33651">
        <ele>96</ele>
        <time>2018-10-09T13:51:26.106Z</time>
      </trkpt>
      <trkpt lat="48.11174" lon="1.33649">
        <ele>96</ele>
        <time>2018-10-09T13:51:27.106Z</time>
      </trkpt>
      <trkpt lat="48.11173" lon="1.33647">
        <ele>97</ele>
        <time>2018-10-09T13:51:28.106Z</time>
      </trkpt>
      <trkpt lat="48.11173" lon="1.33645">
        <ele>97</ele>
        <time>2018-10-09T13:51:29.106Z</time>
      </trkpt>
      <trkpt lat="48.11173" lon="1.33643">
        <ele>97</ele>
        <time>2018-10-09T13:51:30.106Z</time>
      </trkpt>
      <trkpt lat="48.11172" lon="1.33641">
        <ele>98</ele>
        <time>2018-10-09T13:51:31.106Z</time>
      </trkpt>
      <trkpt lat="48.11172" lon="1.3364">
        <ele>98</ele>
        <time>2018-10-09T13:51:32.106Z</time>
      </trkpt>
      <trkpt lat="48.11171" lon="1.33638">
        <ele>98</ele>
        <time>2018-10-09T13:51:33.106Z</time>
      </trkpt>
      <trkpt lat="48.11171" lon="1.33636">
        <ele>98</ele>
        <time>2018-10-09T13:51:34.106Z</time>
      </trkpt>
      <trkpt lat="48.11171" lon="1.33633">
        <ele>98</ele>
        <time>2018-10-09T13:51:35.106Z</time>
      </trkpt>
      <trkpt lat="48.1117" lon="1.33631">
        <ele>99</ele>
        <time>2018-10-09T13:51:36.106Z</time>
      </trkpt>
      <trkpt lat="48.1117" lon="1.33629">
        <ele>99</ele>
        <time>2018-10-09T13:51:37.106Z</time>
      </trkpt>
      <trkpt lat="48.11169" lon="1.33627">
        <ele>100</ele>
        <time>2018-10-09T13:51:38.106Z</time>
      </trkpt>
      <trkpt lat="48.11169" lon="1.33625">
        <ele>100</ele>
        <time>2018-10-09T13:51:39.106Z</time>
      </trkpt>
      <trkpt lat="48.11168" lon="1.33623">
        <ele>101</ele>
        <time>2018-10-09T13:51:40.106Z</time>
      </trkpt>
      <trkpt lat="48.11168" lon="1.33621">
        <ele>101</ele>
        <time>2018-10-09T13:51:41.106Z</time>
      </trkpt>
      <trkpt lat="48.11167" lon="1.33619">
        <ele>101</ele>
        <time>2018-10-09T13:51:42.106Z</time>
      </trkpt>
      <trkpt lat="48.11166" lon="1.33617">
        <ele>101</ele>
        <time>2018-10-09T13:51:43.106Z</time>
      </trkpt>
      <trkpt lat="48.11166" lon="1.33615">
        <ele>102</ele>
        <time>2018-10-09T13:51:44.106Z</time>
      </trkpt>
      <trkpt lat="48.11165" lon="1.33613">
        <ele>102</ele>
        <time>2018-10-09T13:51:45.106Z</time>
      </trkpt>
      <trkpt lat="48.11165" lon="1.33611">
        <ele>103</ele>
        <time>2018-10-09T13:51:46.106Z</time>
      </trkpt>
      <trkpt lat="48.11164" lon="1.33609">
        <ele>103</ele>
        <time>2018-10-09T13:51:47.106Z</time>
      </trkpt>
      <trkpt lat="48.11164" lon="1.33607">
        <ele>103</ele>
        <time>2018-10-09T13:51:48.106Z</time>
      </trkpt>
      <trkpt lat="48.11163" lon="1.33605">
        <ele>103</ele>
        <time>2018-10-09T13:51:49.106Z</time>
      </trkpt>
      <trkpt lat="48.11163" lon="1.33603">
        <ele>103</ele>
        <time>2018-10-09T13:51:50.106Z</time>
      </trkpt>
      <trkpt lat="48.11162" lon="1.33601">
        <ele>103</ele>
        <time>2018-10-09T13:51:51.106Z</time>
      </trkpt>
      <trkpt lat="48.11162" lon="1.336">
        <ele>103</ele>
        <time>2018-10-09T13:51:52.106Z</time>
      </trkpt>
      <trkpt lat="48.11161" lon="1.33598">
        <ele>103</ele>
        <time>2018-10-09T13:51:53.106Z</time>
      </trkpt>
      <trkpt lat="48.1116" lon="1.33596">
        <ele>103</ele>
        <time>2018-10-09T13:51:54.106Z</time>
      </trkpt>
      <trkpt lat="48.11159" lon="1.33594">
        <ele>103</ele>
        <time>2018-10-09T13:51:55.106Z</time>
      </trkpt>
      <trkpt lat="48.11159" lon="1.33592">
        <ele>103</ele>
        <time>2018-10-09T13:51:56.106Z</time>
      </trkpt>
      <trkpt lat="48.11158" lon="1.33591">
        <ele>102</ele>
        <time>2018-10-09T13:51:57.106Z</time>
      </trkpt>
      <trkpt lat="48.11158" lon="1.33589">
        <ele>103</ele>
        <time>2018-10-09T13:51:58.106Z</time>
      </trkpt>
      <trkpt lat="48.11157" lon="1.33587">
        <ele>102</ele>
        <time>2018-10-09T13:51:59.106Z</time>
      </trkpt>
      <trkpt lat="48.11156" lon="1.33586">
        <ele>102</ele>
        <time>2018-10-09T13:52:00.106Z</time>
      </trkpt>
      <trkpt lat="48.11156" lon="1.33584">
        <ele>102</ele>
        <time>2018-10-09T13:52:01.106Z</time>
      </trkpt>
      <trkpt lat="48.11155" lon="1.33582">
        <ele>102</ele>
        <time>2018-10-09T13:52:02.106Z</time>
      </trkpt>
      <trkpt lat="48.11154" lon="1.33581">
        <ele>102</ele>
        <time>2018-10-09T13:52:03.106Z</time>
      </trkpt>
      <trkpt lat="48.11154" lon="1.33579">
        <ele>101</ele>
        <time>2018-10-09T13:52:04.106Z</time>
      </trkpt>
      <trkpt lat="48.11153" lon="1.33577">
        <ele>101</ele>
        <time>2018-10-09T13:52:05.106Z</time>
      </trkpt>
      <trkpt lat="48.11153" lon="1.33575">
        <ele>101</ele>
        <time>2018-10-09T13:52:06.106Z</time>
      </trkpt>
      <trkpt lat="48.11152" lon="1.33573">
        <ele>101</ele>
        <time>2018-10-09T13:52:07.106Z</time>
      </trkpt>
      <trkpt lat="48.11152" lon="1.33571">
        <ele>100</ele>
        <time>2018-10-09T13:52:08.106Z</time>
      </trkpt>
      <trkpt lat="48.11151" lon="1.33569">
        <ele>100</ele>
        <time>2018-10-09T13:52:09.106Z</time>
      </trkpt>
      <trkpt lat="48.11151" lon="1.33567">
        <ele>100</ele>
        <time>2018-10-09T13:52:10.106Z</time>
      </trkpt>
      <trkpt lat="48.1115" lon="1.33565">
        <ele>100</ele>
        <time>2018-10-09T13:52:11.106Z</time>
      </trkpt>
      <trkpt lat="48.1115" lon="1.33563">
        <ele>100</ele>
        <time>2018-10-09T13:52:12.106Z</time>
      </trkpt>
      <trkpt lat="48.1115" lon="1.33561">
        <ele>100</ele>
        <time>2018-10-09T13:52:13.106Z</time>
      </trkpt>
      <trkpt lat="48.11149" lon="1.33559">
        <ele>101</ele>
        <time>2018-10-09T13:52:14.106Z</time>
      </trkpt>
      <trkpt lat="48.11149" lon="1.33557">
        <ele>101</ele>
        <time>2018-10-09T13:52:15.106Z</time>
      </trkpt>
      <trkpt lat="48.11148" lon="1.33555">
        <ele>100</ele>
        <time>2018-10-09T13:52:16.106Z</time>
      </trkpt>
      <trkpt lat="48.11148" lon="1.33553">
        <ele>100</ele>
        <time>2018-10-09T13:52:17.106Z</time>
      </trkpt>
      <trkpt lat="48.11147" lon="1.33552">
        <ele>100</ele>
        <time>2018-10-09T13:52:18.106Z</time>
      </trkpt>
      <trkpt lat="48.11147" lon="1.3355">
        <ele>100</ele>
        <time>2018-10-09T13:52:19.106Z</time>
      </trkpt>
      <trkpt lat="48.11146" lon="1.33548">
        <ele>99</ele>
        <time>2018-10-09T13:52:20.106Z</time>
      </trkpt>
      <trkpt lat="48.11146" lon="1.33546">
        <ele>100</ele>
        <time>2018-10-09T13:52:21.106Z</time>
      </trkpt>
      <trkpt lat="48.11145" lon="1.33544">
        <ele>100</ele>
        <time>2018-10-09T13:52:22.106Z</time>
      </trkpt>
      <trkpt lat="48.11145" lon="1.33542">
        <ele>100</ele>
        <time>2018-10-09T13:52:23.106Z</time>
      </trkpt>
      <trkpt lat="48.11144" lon="1.3354">
        <ele>100</ele>
        <time>2018-10-09T13:52:24.106Z</time>
      </trkpt>
      <trkpt lat="48.11144" lon="1.33538">
        <ele>100</ele>
        <time>2018-10-09T13:52:25.106Z</time>
      </trkpt>
      <trkpt lat="48.11143" lon="1.33536">
        <ele>100</ele>
        <time>2018-10-09T13:52:26.106Z</time>
      </trkpt>
      <trkpt lat="48.11143" lon="1.33534">
        <ele>100</ele>
        <time>2018-10-09T13:52:27.106Z</time>
      </trkpt>
      <trkpt lat="48.11142" lon="1.33532">
        <ele>100</ele>
        <time>2018-10-09T13:52:28.106Z</time>
      </trkpt>
      <trkpt lat="48.11142" lon="1.3353">
        <ele>100</ele>
        <time>2018-10-09T13:52:29.106Z</time>
      </trkpt>
      <trkpt lat="48.11141" lon="1.33528">
        <ele>100</ele>
        <time>2018-10-09T13:52:30.106Z</time>
      </trkpt>
      <trkpt lat="48.11141" lon="1.33526">
        <ele>101</ele>
        <time>2018-10-09T13:52:31.106Z</time>
      </trkpt>
      <trkpt lat="48.1114" lon="1.33524">
        <ele>101</ele>
        <time>2018-10-09T13:52:32.106Z</time>
      </trkpt>
      <trkpt lat="48.1114" lon="1.33522">
        <ele>102</ele>
        <time>2018-10-09T13:52:33.106Z</time>
      </trkpt>
      <trkpt lat="48.11139" lon="1.3352">
        <ele>102</ele>
        <time>2018-10-09T13:52:34.106Z</time>
      </trkpt>
      <trkpt lat="48.11139" lon="1.33518">
        <ele>102</ele>
        <time>2018-10-09T13:52:35.106Z</time>
      </trkpt>
      <trkpt lat="48.11139" lon="1.33516">
        <ele>101</ele>
        <time>2018-10-09T13:52:36.106Z</time>
      </trkpt>
      <trkpt lat="48.11138" lon="1.33513">
        <ele>101</ele>
        <time>2018-10-09T13:52:37.106Z</time>
      </trkpt>
      <trkpt lat="48.11138" lon="1.33511">
        <ele>101</ele>
        <time>2018-10-09T13:52:38.106Z</time>
      </trkpt>
      <trkpt lat="48.11137" lon="1.33509">
        <ele>101</ele>
        <time>2018-10-09T13:52:39.106Z</time>
      </trkpt>
      <trkpt lat="48.11137" lon="1.33507">
        <ele>101</ele>
        <time>2018-10-09T13:52:40.106Z</time>
      </trkpt>
      <trkpt lat="48.11136" lon="1.33505">
        <ele>101</ele>
        <time>2018-10-09T13:52:41.106Z</time>
      </trkpt>
      <trkpt lat="48.11135" lon="1.33503">
        <ele>101</ele>
        <time>2018-10-09T13:52:42.106Z</time>
      </trkpt>
      <trkpt lat="48.11135" lon="1.33501">
        <ele>101</ele>
        <time>2018-10-09T13:52:43.106Z</time>
      </trkpt>
      <trkpt lat="48.11135" lon="1.33499">
        <ele>101</ele>
        <time>2018-10-09T13:52:44.106Z</time>
      </trkpt>
      <trkpt lat="48.11134" lon="1.33497">
        <ele>101</ele>
        <time>2018-10-09T13:52:45.106Z</time>
      </trkpt>
      <trkpt lat="48.11134" lon="1.33495">
        <ele>101</ele>
        <time>2018-10-09T13:52:46.106Z</time>
      </trkpt>
      <trkpt lat="48.11133" lon="1.33493">
        <ele>101</ele>
        <time>2018-10-09T13:52:47.106Z</time>
      </trkpt>
      <trkpt lat="48.11133" lon="1.33491">
        <ele>101</ele>
        <time>2018-10-09T13:52:48.106Z</time>
      </trkpt>
      <trkpt lat="48.11132" lon="1.33489">
        <ele>101</ele>
        <time>2018-10-09T13:52:49.106Z</time>
      </trkpt>
      <trkpt lat="48.11132" lon="1.33487">
        <ele>101</ele>
        <time>2018-10-09T13:52:50.106Z</time>
      </trkpt>
      <trkpt lat="48.11132" lon="1.33485">
        <ele>102</ele>
        <time>2018-10-09T13:52:51.106Z</time>
      </trkpt>
      <trkpt lat="48.11131" lon="1.33483">
        <ele>102</ele>
        <time>2018-10-09T13:52:52.106Z</time>
      </trkpt>
      <trkpt lat="48.11131" lon="1.33481">
        <ele>102</ele>
        <time>2018-10-09T13:52:53.106Z</time>
      </trkpt>
      <trkpt lat="48.1113" lon="1.33478">
        <ele>102</ele>
        <time>2018-10-09T13:52:54.106Z</time>
      </trkpt>
      <trkpt lat="48.1113" lon="1.33476">
        <ele>102</ele>
        <time>2018-10-09T13:52:55.106Z</time>
      </trkpt>
      <trkpt lat="48.11129" lon="1.33474">
        <ele>102</ele>
        <time>2018-10-09T13:52:56.106Z</time>
      </trkpt>
      <trkpt lat="48.11129" lon="1.33472">
        <ele>102</ele>
        <time>2018-10-09T13:52:57.106Z</time>
      </trkpt>
      <trkpt lat="48.11128" lon="1.3347">
        <ele>102</ele>
        <time>2018-10-09T13:52:58.106Z</time>
      </trkpt>
      <trkpt lat="48.11128" lon="1.33468">
        <ele>102</ele>
        <time>2018-10-09T13:52:59.106Z</time>
      </trkpt>
      <trkpt lat="48.11128" lon="1.33466">
        <ele>101</ele>
        <time>2018-10-09T13:53:00.106Z</time>
      </trkpt>
      <trkpt lat="48.11127" lon="1.33464">
        <ele>100</ele>
        <time>2018-10-09T13:53:01.106Z</time>
      </trkpt>
      <trkpt lat="48.11127" lon="1.33462">
        <ele>100</ele>
        <time>2018-10-09T13:53:02.106Z</time>
      </trkpt>
      <trkpt lat="48.11127" lon="1.3346">
        <ele>99</ele>
        <time>2018-10-09T13:53:03.106Z</time>
      </trkpt>
      <trkpt lat="48.11127" lon="1.33458">
        <ele>100</ele>
        <time>2018-10-09T13:53:04.106Z</time>
      </trkpt>
      <trkpt lat="48.11126" lon="1.33457">
        <ele>99</ele>
        <time>2018-10-09T13:53:05.106Z</time>
      </trkpt>
      <trkpt lat="48.11126" lon="1.33455">
        <ele>99</ele>
        <time>2018-10-09T13:53:06.106Z</time>
      </trkpt>
      <trkpt lat="48.11126" lon="1.33453">
        <ele>99</ele>
        <time>2018-10-09T13:53:07.106Z</time>
      </trkpt>
      <trkpt lat="48.11125" lon="1.3345">
        <ele>99</ele>
        <time>2018-10-09T13:53:08.106Z</time>
      </trkpt>
      <trkpt lat="48.11125" lon="1.33448">
        <ele>100</ele>
        <time>2018-10-09T13:53:09.106Z</time>
      </trkpt>
      <trkpt lat="48.11125" lon="1.33446">
        <ele>99</ele>
        <time>2018-10-09T13:53:10.106Z</time>
      </trkpt>
      <trkpt lat="48.11125" lon="1.33444">
        <ele>99</ele>
        <time>2018-10-09T13:53:11.106Z</time>
      </trkpt>
      <trkpt lat="48.11124" lon="1.33442">
        <ele>99</ele>
        <time>2018-10-09T13:53:12.106Z</time>
      </trkpt>
      <trkpt lat="48.11124" lon="1.3344">
        <ele>99</ele>
        <time>2018-10-09T13:53:13.106Z</time>
      </trkpt>
      <trkpt lat="48.11124" lon="1.33437">
        <ele>99</ele>
        <time>2018-10-09T13:53:14.106Z</time>
      </trkpt>
      <trkpt lat="48.11124" lon="1.33435">
        <ele>99</ele>
        <time>2018-10-09T13:53:15.106Z</time>
      </trkpt>
      <trkpt lat="48.11124" lon="1.33433">
        <ele>99</ele>
        <time>2018-10-09T13:53:16.106Z</time>
      </trkpt>
      <trkpt lat="48.11123" lon="1.33431">
        <ele>99</ele>
        <time>2018-10-09T13:53:17.106Z</time>
      </trkpt>
      <trkpt lat="48.11123" lon="1.33429">
        <ele>99</ele>
        <time>2018-10-09T13:53:18.106Z</time>
      </trkpt>
      <trkpt lat="48.11123" lon="1.33427">
        <ele>99</ele>
        <time>2018-10-09T13:53:19.106Z</time>
      </trkpt>
      <trkpt lat="48.11123" lon="1.33425">
        <ele>99</ele>
        <time>2018-10-09T13:53:20.106Z</time>
      </trkpt>
      <trkpt lat="48.11123" lon="1.33422">
        <ele>100</ele>
        <time>2018-10-09T13:53:21.106Z</time>
      </trkpt>
      <trkpt lat="48.11123" lon="1.3342">
        <ele>100</ele>
        <time>2018-10-09T13:53:22.106Z</time>
      </trkpt>
      <trkpt lat="48.11123" lon="1.33418">
        <ele>100</ele>
        <time>2018-10-09T13:53:23.106Z</time>
      </trkpt>
      <trkpt lat="48.11123" lon="1.33416">
        <ele>100</ele>
        <time>2018-10-09T13:53:24.106Z</time>
      </trkpt>
      <trkpt lat="48.11123" lon="1.33414">
        <ele>100</ele>
        <time>2018-10-09T13:53:25.106Z</time>
      </trkpt>
      <trkpt lat="48.11123" lon="1.33412">
        <ele>100</ele>
        <time>2018-10-09T13:53:26.106Z</time>
      </trkpt>
      <trkpt lat="48.11123" lon="1.3341">
        <ele>99</ele>
        <time>2018-10-09T13:53:27.106Z</time>
      </trkpt>
      <trkpt lat="48.11123" lon="1.33407">
        <ele>100</ele>
        <time>2018-10-09T13:53:28.106Z</time>
      </trkpt>
      <trkpt lat="48.11123" lon="1.33405">
        <ele>99</ele>
        <time>2018-10-09T13:53:29.106Z</time>
      </trkpt>
      <trkpt lat="48.11123" lon="1.33403">
        <ele>99</ele>
        <time>2018-10-09T13:53:30.106Z</time>
      </trkpt>
      <trkpt lat="48.11123" lon="1.33401">
        <ele>99</ele>
        <time>2018-10-09T13:53:31.106Z</time>
      </trkpt>
      <trkpt lat="48.11123" lon="1.33399">
        <ele>99</ele>
        <time>2018-10-09T13:53:32.106Z</time>
      </trkpt>
      <trkpt lat="48.11123" lon="1.33397">
        <ele>99</ele>
        <time>2018-10-09T13:53:33.106Z</time>
      </trkpt>
      <trkpt lat="48.11122" lon="1.33395">
        <ele>99</ele>
        <time>2018-10-09T13:53:34.106Z</time>
      </trkpt>
      <trkpt lat="48.11122" lon="1.33393">
        <ele>99</ele>
        <time>2018-10-09T13:53:35.106Z</time>
      </trkpt>
      <trkpt lat="48.11122" lon="1.33391">
        <ele>99</ele>
        <time>2018-10-09T13:53:36.106Z</time>
      </trkpt>
      <trkpt lat="48.11122" lon="1.33388">
        <ele>99</ele>
        <time>2018-10-09T13:53:37.106Z</time>
      </trkpt>
      <trkpt lat="48.11122" lon="1.33386">
        <ele>99</ele>
        <time>2018-10-09T13:53:38.106Z</time>
      </trkpt>
      <trkpt lat="48.11122" lon="1.33384">
        <ele>99</ele>
        <time>2018-10-09T13:53:39.106Z</time>
      </trkpt>
      <trkpt lat="48.11122" lon="1.33382">
        <ele>100</ele>
        <time>2018-10-09T13:53:40.106Z</time>
      </trkpt>
      <trkpt lat="48.11122" lon="1.3338">
        <ele>100</ele>
        <time>2018-10-09T13:53:41.106Z</time>
      </trkpt>
      <trkpt lat="48.11122" lon="1.33378">
        <ele>100</ele>
        <time>2018-10-09T13:53:42.106Z</time>
      </trkpt>
      <trkpt lat="48.11122" lon="1.33376">
        <ele>100</ele>
        <time>2018-10-09T13:53:43.106Z</time>
      </trkpt>
      <trkpt lat="48.11122" lon="1.33374">
        <ele>100</ele>
        <time>2018-10-09T13:53:44.106Z</time>
      </trkpt>
      <trkpt lat="48.11122" lon="1.33372">
        <ele>100</ele>
        <time>2018-10-09T13:53:45.106Z</time>
      </trkpt>
      <trkpt lat="48.11122" lon="1.3337">
        <ele>100</ele>
        <time>2018-10-09T13:53:46.106Z</time>
      </trkpt>
      <trkpt lat="48.11122" lon="1.33368">
        <ele>101</ele>
        <time>2018-10-09T13:53:47.106Z</time>
      </trkpt>
      <trkpt lat="48.11121" lon="1.33365">
        <ele>102</ele>
        <time>2018-10-09T13:53:48.106Z</time>
      </trkpt>
      <trkpt lat="48.11121" lon="1.33363">
        <ele>103</ele>
        <time>2018-10-09T13:53:49.106Z</time>
      </trkpt>
      <trkpt lat="48.11121" lon="1.33361">
        <ele>103</ele>
        <time>2018-10-09T13:53:50.106Z</time>
      </trkpt>
      <trkpt lat="48.11121" lon="1.33359">
        <ele>103</ele>
        <time>2018-10-09T13:53:51.106Z</time>
      </trkpt>
      <trkpt lat="48.11121" lon="1.33356">
        <ele>103</ele>
        <time>2018-10-09T13:53:52.106Z</time>
      </trkpt>
      <trkpt lat="48.1112" lon="1.33354">
        <ele>103</ele>
        <time>2018-10-09T13:53:53.106Z</time>
      </trkpt>
      <trkpt lat="48.1112" lon="1.33352">
        <ele>103</ele>
        <time>2018-10-09T13:53:54.106Z</time>
      </trkpt>
      <trkpt lat="48.1112" lon="1.3335">
        <ele>104</ele>
        <time>2018-10-09T13:53:55.106Z</time>
      </trkpt>
      <trkpt lat="48.1112" lon="1.33348">
        <ele>104</ele>
        <time>2018-10-09T13:53:56.106Z</time>
      </trkpt>
      <trkpt lat="48.1112" lon="1.33346">
        <ele>104</ele>
        <time>2018-10-09T13:53:57.106Z</time>
      </trkpt>
      <trkpt lat="48.1112" lon="1.33344">
        <ele>104</ele>
        <time>2018-10-09T13:53:58.106Z</time>
      </trkpt>
      <trkpt lat="48.11119" lon="1.33342">
        <ele>104</ele>
        <time>2018-10-09T13:53:59.106Z</time>
      </trkpt>
      <trkpt lat="48.11119" lon="1.3334">
        <ele>104</ele>
        <time>2018-10-09T13:54:00.106Z</time>
      </trkpt>
      <trkpt lat="48.11119" lon="1.33338">
        <ele>104</ele>
        <time>2018-10-09T13:54:01.106Z</time>
      </trkpt>
      <trkpt lat="48.11119" lon="1.33335">
        <ele>104</ele>
        <time>2018-10-09T13:54:02.106Z</time>
      </trkpt>
      <trkpt lat="48.11118" lon="1.33333">
        <ele>104</ele>
        <time>2018-10-09T13:54:03.106Z</time>
      </trkpt>
      <trkpt lat="48.11118" lon="1.33331">
        <ele>104</ele>
        <time>2018-10-09T13:54:04.106Z</time>
      </trkpt>
      <trkpt lat="48.11118" lon="1.33329">
        <ele>104</ele>
        <time>2018-10-09T13:54:05.106Z</time>
      </trkpt>
      <trkpt lat="48.11117" lon="1.33327">
        <ele>104</ele>
        <time>2018-10-09T13:54:06.106Z</time>
      </trkpt>
      <trkpt lat="48.11117" lon="1.33324">
        <ele>104</ele>
        <time>2018-10-09T13:54:07.106Z</time>
      </trkpt>
      <trkpt lat="48.11117" lon="1.33322">
        <ele>104</ele>
        <time>2018-10-09T13:54:08.106Z</time>
      </trkpt>
      <trkpt lat="48.11116" lon="1.3332">
        <ele>104</ele>
        <time>2018-10-09T13:54:09.106Z</time>
      </trkpt>
      <trkpt lat="48.11116" lon="1.33318">
        <ele>104</ele>
        <time>2018-10-09T13:54:10.106Z</time>
      </trkpt>
      <trkpt lat="48.11116" lon="1.33316">
        <ele>104</ele>
        <time>2018-10-09T13:54:11.106Z</time>
      </trkpt>
      <trkpt lat="48.11116" lon="1.33314">
        <ele>103</ele>
        <time>2018-10-09T13:54:12.106Z</time>
      </trkpt>
      <trkpt lat="48.11116" lon="1.33312">
        <ele>103</ele>
        <time>2018-10-09T13:54:13.106Z</time>
      </trkpt>
      <trkpt lat="48.11115" lon="1.3331">
        <ele>103</ele>
        <time>2018-10-09T13:54:14.106Z</time>
      </trkpt>
      <trkpt lat="48.11115" lon="1.33308">
        <ele>103</ele>
        <time>2018-10-09T13:54:15.106Z</time>
      </trkpt>
      <trkpt lat="48.11115" lon="1.33306">
        <ele>102</ele>
        <time>2018-10-09T13:54:16.106Z</time>
      </trkpt>
      <trkpt lat="48.11115" lon="1.33304">
        <ele>102</ele>
        <time>2018-10-09T13:54:17.106Z</time>
      </trkpt>
      <trkpt lat="48.11115" lon="1.33302">
        <ele>102</ele>
        <time>2018-10-09T13:54:18.106Z</time>
      </trkpt>
      <trkpt lat="48.11114" lon="1.333">
        <ele>101</ele>
        <time>2018-10-09T13:54:19.106Z</time>
      </trkpt>
      <trkpt lat="48.11114" lon="1.33298">
        <ele>101</ele>
        <time>2018-10-09T13:54:20.106Z</time>
      </trkpt>
      <trkpt lat="48.11114" lon="1.33296">
        <ele>101</ele>
        <time>2018-10-09T13:54:21.106Z</time>
      </trkpt>
      <trkpt lat="48.11114" lon="1.33293">
        <ele>101</ele>
        <time>2018-10-09T13:54:22.106Z</time>
      </trkpt>
      <trkpt lat="48.11113" lon="1.33291">
        <ele>101</ele>
        <time>2018-10-09T13:54:23.106Z</time>
      </trkpt>
      <trkpt lat="48.11113" lon="1.33289">
        <ele>101</ele>
        <time>2018-10-09T13:54:24.106Z</time>
      </trkpt>
      <trkpt lat="48.11113" lon="1.33287">
        <ele>101</ele>
        <time>2018-10-09T13:54:25.106Z</time>
      </trkpt>
      <trkpt lat="48.11113" lon="1.33285">
        <ele>102</ele>
        <time>2018-10-09T13:54:26.106Z</time>
      </trkpt>
      <trkpt lat="48.11113" lon="1.33282">
        <ele>102</ele>
        <time>2018-10-09T13:54:27.106Z</time>
      </trkpt>
      <trkpt lat="48.11113" lon="1.3328">
        <ele>102</ele>
        <time>2018-10-09T13:54:28.106Z</time>
      </trkpt>
      <trkpt lat="48.11113" lon="1.33278">
        <ele>102</ele>
        <time>2018-10-09T13:54:29.106Z</time>
      </trkpt>
      <trkpt lat="48.11113" lon="1.33276">
        <ele>102</ele>
        <time>2018-10-09T13:54:30.106Z</time>
      </trkpt>
      <trkpt lat="48.11112" lon="1.33274">
        <ele>102</ele>
        <time>2018-10-09T13:54:31.106Z</time>
      </trkpt>
      <trkpt lat="48.11112" lon="1.33272">
        <ele>102</ele>
        <time>2018-10-09T13:54:32.106Z</time>
      </trkpt>
      <trkpt lat="48.11112" lon="1.3327">
        <ele>102</ele>
        <time>2018-10-09T13:54:33.106Z</time>
      </trkpt>
      <trkpt lat="48.11111" lon="1.33268">
        <ele>102</ele>
        <time>2018-10-09T13:54:34.106Z</time>
      </trkpt>
      <trkpt lat="48.11111" lon="1.33266">
        <ele>102</ele>
        <time>2018-10-09T13:54:35.106Z</time>
      </trkpt>
      <trkpt lat="48.11111" lon="1.33263">
        <ele>102</ele>
        <time>2018-10-09T13:54:36.106Z</time>
      </trkpt>
      <trkpt lat="48.11111" lon="1.33261">
        <ele>102</ele>
        <time>2018-10-09T13:54:37.106Z</time>
      </trkpt>
      <trkpt lat="48.11111" lon="1.33259">
        <ele>102</ele>
        <time>2018-10-09T13:54:38.106Z</time>
      </trkpt>
      <trkpt lat="48.1111" lon="1.33257">
        <ele>102</ele>
        <time>2018-10-09T13:54:39.106Z</time>
      </trkpt>
      <trkpt lat="48.1111" lon="1.33255">
        <ele>103</ele>
        <time>2018-10-09T13:54:40.106Z</time>
      </trkpt>
      <trkpt lat="48.1111" lon="1.33253">
        <ele>103</ele>
        <time>2018-10-09T13:54:41.106Z</time>
      </trkpt>
      <trkpt lat="48.1111" lon="1.33251">
        <ele>103</ele>
        <time>2018-10-09T13:54:42.106Z</time>
      </trkpt>
      <trkpt lat="48.1111" lon="1.33249">
        <ele>103</ele>
        <time>2018-10-09T13:54:43.106Z</time>
      </trkpt>
      <trkpt lat="48.1111" lon="1.33247">
        <ele>103</ele>
        <time>2018-10-09T13:54:44.106Z</time>
      </trkpt>
      <trkpt lat="48.1111" lon="1.33245">
        <ele>103</ele>
        <time>2018-10-09T13:54:45.106Z</time>
      </trkpt>
      <trkpt lat="48.11109" lon="1.33243">
        <ele>103</ele>
        <time>2018-10-09T13:54:46.106Z</time>
      </trkpt>
      <trkpt lat="48.11108" lon="1.33241">
        <ele>103</ele>
        <time>2018-10-09T13:54:47.106Z</time>
      </trkpt>
      <trkpt lat="48.11107" lon="1.3324">
        <ele>103</ele>
        <time>2018-10-09T13:54:48.106Z</time>
      </trkpt>
      <trkpt lat="48.11107" lon="1.33239">
        <ele>102</ele>
        <time>2018-10-09T13:54:49.106Z</time>
      </trkpt>
      <trkpt lat="48.11105" lon="1.33238">
        <ele>102</ele>
        <time>2018-10-09T13:54:50.106Z</time>
      </trkpt>
      <trkpt lat="48.11104" lon="1.33236">
        <ele>102</ele>
        <time>2018-10-09T13:54:51.106Z</time>
      </trkpt>
      <trkpt lat="48.11103" lon="1.33235">
        <ele>102</ele>
        <time>2018-10-09T13:54:52.106Z</time>
      </trkpt>
      <trkpt lat="48.11102" lon="1.33234">
        <ele>103</ele>
        <time>2018-10-09T13:54:53.106Z</time>
      </trkpt>
      <trkpt lat="48.111" lon="1.33234">
        <ele>102</ele>
        <time>2018-10-09T13:54:54.106Z</time>
      </trkpt>
      <trkpt lat="48.11099" lon="1.33233">
        <ele>102</ele>
        <time>2018-10-09T13:54:55.106Z</time>
      </trkpt>
      <trkpt lat="48.11098" lon="1.33232">
        <ele>103</ele>
        <time>2018-10-09T13:54:56.106Z</time>
      </trkpt>
      <trkpt lat="48.11096" lon="1.33231">
        <ele>102</ele>
        <time>2018-10-09T13:54:57.106Z</time>
      </trkpt>
      <trkpt lat="48.11095" lon="1.33231">
        <ele>103</ele>
        <time>2018-10-09T13:54:58.106Z</time>
      </trkpt>
      <trkpt lat="48.11094" lon="1.3323">
        <ele>103</ele>
        <time>2018-10-09T13:54:59.106Z</time>
      </trkpt>
      <trkpt lat="48.11092" lon="1.33229">
        <ele>103</ele>
        <time>2018-10-09T13:55:00.106Z</time>
      </trkpt>
      <trkpt lat="48.11091" lon="1.33228">
        <ele>103</ele>
        <time>2018-10-09T13:55:01.106Z</time>
      </trkpt>
      <trkpt lat="48.1109" lon="1.33227">
        <ele>103</ele>
        <time>2018-10-09T13:55:02.106Z</time>
      </trkpt>
      <trkpt lat="48.11089" lon="1.33226">
        <ele>103</ele>
        <time>2018-10-09T13:55:03.106Z</time>
      </trkpt>
      <trkpt lat="48.11089" lon="1.33226">
        <ele>103</ele>
        <time>2018-10-09T13:55:04.106Z</time>
      </trkpt>
      <trkpt lat="48.11088" lon="1.33225">
        <ele>103</ele>
        <time>2018-10-09T13:55:05.106Z</time>
      </trkpt>
      <trkpt lat="48.11087" lon="1.33225">
        <ele>103</ele>
        <time>2018-10-09T13:55:06.106Z</time>
      </trkpt>
      <trkpt lat="48.11086" lon="1.33224">
        <ele>103</ele>
        <time>2018-10-09T13:55:07.106Z</time>
      </trkpt>
      <trkpt lat="48.11085" lon="1.33224">
        <ele>103</ele>
        <time>2018-10-09T13:55:08.106Z</time>
      </trkpt>
      <trkpt lat="48.11084" lon="1.33223">
        <ele>103</ele>
        <time>2018-10-09T13:55:09.106Z</time>
      </trkpt>
      <trkpt lat="48.11084" lon="1.33222">
        <ele>103</ele>
        <time>2018-10-09T13:55:10.106Z</time>
      </trkpt>
      <trkpt lat="48.11083" lon="1.33221">
        <ele>103</ele>
        <time>2018-10-09T13:55:11.106Z</time>
      </trkpt>
      <trkpt lat="48.11082" lon="1.33221">
        <ele>103</ele>
        <time>2018-10-09T13:55:12.106Z</time>
      </trkpt>
      <trkpt lat="48.11081" lon="1.3322">
        <ele>103</ele>
        <time>2018-10-09T13:55:13.106Z</time>
      </trkpt>
      <trkpt lat="48.11081" lon="1.33219">
        <ele>102</ele>
        <time>2018-10-09T13:55:14.106Z</time>
      </trkpt>
      <trkpt lat="48.1108" lon="1.33218">
        <ele>102</ele>
        <time>2018-10-09T13:55:15.106Z</time>
      </trkpt>
      <trkpt lat="48.11079" lon="1.33217">
        <ele>101</ele>
        <time>2018-10-09T13:55:16.106Z</time>
      </trkpt>
      <trkpt lat="48.11078" lon="1.33216">
        <ele>101</ele>
        <time>2018-10-09T13:55:17.106Z</time>
      </trkpt>
      <trkpt lat="48.11078" lon="1.33215">
        <ele>101</ele>
        <time>2018-10-09T13:55:18.106Z</time>
      </trkpt>
      <trkpt lat="48.11077" lon="1.33214">
        <ele>101</ele>
        <time>2018-10-09T13:55:19.106Z</time>
      </trkpt>
      <trkpt lat="48.11076" lon="1.33213">
        <ele>102</ele>
        <time>2018-10-09T13:55:20.106Z</time>
      </trkpt>
      <trkpt lat="48.11074" lon="1.33212">
        <ele>102</ele>
        <time>2018-10-09T13:55:21.106Z</time>
      </trkpt>
      <trkpt lat="48.11073" lon="1.33211">
        <ele>102</ele>
        <time>2018-10-09T13:55:22.106Z</time>
      </trkpt>
      <trkpt lat="48.11072" lon="1.3321">
        <ele>103</ele>
        <time>2018-10-09T13:55:23.106Z</time>
      </trkpt>
      <trkpt lat="48.1107" lon="1.33209">
        <ele>104</ele>
        <time>2018-10-09T13:55:24.106Z</time>
      </trkpt>
      <trkpt lat="48.11069" lon="1.33208">
        <ele>103</ele>
        <time>2018-10-09T13:55:25.106Z</time>
      </trkpt>
      <trkpt lat="48.11068" lon="1.33207">
        <ele>103</ele>
        <time>2018-10-09T13:55:26.106Z</time>
      </trkpt>
      <trkpt lat="48.11067" lon="1.33206">
        <ele>103</ele>
        <time>2018-10-09T13:55:27.106Z</time>
      </trkpt>
      <trkpt lat="48.11065" lon="1.33205">
        <ele>104</ele>
        <time>2018-10-09T13:55:28.106Z</time>
      </trkpt>
      <trkpt lat="48.11064" lon="1.33204">
        <ele>103</ele>
        <time>2018-10-09T13:55:29.106Z</time>
      </trkpt>
      <trkpt lat="48.11063" lon="1.33203">
        <ele>103</ele>
        <time>2018-10-09T13:55:30.106Z</time>
      </trkpt>
      <trkpt lat="48.11062" lon="1.33202">
        <ele>104</ele>
        <time>2018-10-09T13:55:31.106Z</time>
      </trkpt>
      <trkpt lat="48.11061" lon="1.33201">
        <ele>104</ele>
        <time>2018-10-09T13:55:32.106Z</time>
      </trkpt>
      <trkpt lat="48.1106" lon="1.332">
        <ele>104</ele>
        <time>2018-10-09T13:55:33.106Z</time>
      </trkpt>
      <trkpt lat="48.11059" lon="1.33199">
        <ele>104</ele>
        <time>2018-10-09T13:55:34.106Z</time>
      </trkpt>
      <trkpt lat="48.11058" lon="1.33198">
        <ele>104</ele>
        <time>2018-10-09T13:55:35.106Z</time>
      </trkpt>
      <trkpt lat="48.11056" lon="1.33197">
        <ele>105</ele>
        <time>2018-10-09T13:55:36.106Z</time>
      </trkpt>
      <trkpt lat="48.11055" lon="1.33196">
        <ele>105</ele>
        <time>2018-10-09T13:55:37.106Z</time>
      </trkpt>
      <trkpt lat="48.11054" lon="1.33195">
        <ele>105</ele>
        <time>2018-10-09T13:55:38.106Z</time>
      </trkpt>
      <trkpt lat="48.11053" lon="1.33194">
        <ele>105</ele>
        <time>2018-10-09T13:55:39.106Z</time>
      </trkpt>
      <trkpt lat="48.11052" lon="1.33193">
        <ele>104</ele>
        <time>2018-10-09T13:55:40.106Z</time>
      </trkpt>
      <trkpt lat="48.1105" lon="1.33192">
        <ele>104</ele>
        <time>2018-10-09T13:55:41.106Z</time>
      </trkpt>
      <trkpt lat="48.11049" lon="1.33191">
        <ele>105</ele>
        <time>2018-10-09T13:55:42.106Z</time>
      </trkpt>
      <trkpt lat="48.11048" lon="1.3319">
        <ele>105</ele>
        <time>2018-10-09T13:55:43.106Z</time>
      </trkpt>
      <trkpt lat="48.11047" lon="1.33189">
        <ele>105</ele>
        <time>2018-10-09T13:55:44.106Z</time>
      </trkpt>
      <trkpt lat="48.11046" lon="1.33188">
        <ele>105</ele>
        <time>2018-10-09T13:55:45.106Z</time>
      </trkpt>
      <trkpt lat="48.11045" lon="1.33187">
        <ele>105</ele>
        <time>2018-10-09T13:55:46.106Z</time>
      </trkpt>
      <trkpt lat="48.11044" lon="1.33186">
        <ele>105</ele>
        <time>2018-10-09T13:55:47.106Z</time>
      </trkpt>
      <trkpt lat="48.11043" lon="1.33185">
        <ele>105</ele>
        <time>2018-10-09T13:55:48.106Z</time>
      </trkpt>
      <trkpt lat="48.11042" lon="1.33184">
        <ele>105</ele>
        <time>2018-10-09T13:55:49.106Z</time>
      </trkpt>
      <trkpt lat="48.11041" lon="1.33183">
        <ele>105</ele>
        <time>2018-10-09T13:55:50.106Z</time>
      </trkpt>
      <trkpt lat="48.1104" lon="1.33182">
        <ele>104</ele>
        <time>2018-10-09T13:55:51.106Z</time>
      </trkpt>
      <trkpt lat="48.11039" lon="1.33181">
        <ele>104</ele>
        <time>2018-10-09T13:55:52.106Z</time>
      </trkpt>
      <trkpt lat="48.11038" lon="1.3318">
        <ele>104</ele>
        <time>2018-10-09T13:55:53.106Z</time>
      </trkpt>
      <trkpt lat="48.11037" lon="1.33179">
        <ele>104</ele>
        <time>2018-10-09T13:55:54.106Z</time>
      </trkpt>
      <trkpt lat="48.11036" lon="1.33178">
        <ele>104</ele>
        <time>2018-10-09T13:55:55.106Z</time>
      </trkpt>
      <trkpt lat="48.11036" lon="1.33177">
        <ele>104</ele>
        <time>2018-10-09T13:55:56.106Z</time>
      </trkpt>
      <trkpt lat="48.11036" lon="1.33176">
        <ele>105</ele>
        <time>2018-10-09T13:55:57.106Z</time>
      </trkpt>
      <trkpt lat="48.11036" lon="1.33176">
        <ele>106</ele>
        <time>2018-10-09T13:55:58.106Z</time>
      </trkpt>
      <trkpt lat="48.11036" lon="1.33176">
        <ele>106</ele>
        <time>2018-10-09T13:55:59.106Z</time>
      </trkpt>
      <trkpt lat="48.11036" lon="1.33176">
        <ele>107</ele>
        <time>2018-10-09T13:56:00.106Z</time>
      </trkpt>
      <trkpt lat="48.11036" lon="1.33176">
        <ele>106</ele>
        <time>2018-10-09T13:56:01.106Z</time>
      </trkpt>
      <trkpt lat="48.11035" lon="1.33176">
        <ele>106</ele>
        <time>2018-10-09T13:56:02.106Z</time>
      </trkpt>
      <trkpt lat="48.11035" lon="1.33176">
        <ele>106</ele>
        <time>2018-10-09T13:56:03.106Z</time>
      </trkpt>
      <trkpt lat="48.11034" lon="1.33176">
        <ele>106</ele>
        <time>2018-10-09T13:56:04.106Z</time>
      </trkpt>
      <trkpt lat="48.11033" lon="1.33176">
        <ele>106</ele>
        <time>2018-10-09T13:56:05.106Z</time>
      </trkpt>
      <trkpt lat="48.11032" lon="1.33175">
        <ele>105</ele>
        <time>2018-10-09T13:56:06.106Z</time>
      </trkpt>
      <trkpt lat="48.11031" lon="1.33174">
        <ele>105</ele>
        <time>2018-10-09T13:56:07.106Z</time>
      </trkpt>
      <trkpt lat="48.1103" lon="1.33173">
        <ele>105</ele>
        <time>2018-10-09T13:56:08.106Z</time>
      </trkpt>
      <trkpt lat="48.1103" lon="1.33171">
        <ele>105</ele>
        <time>2018-10-09T13:56:09.106Z</time>
      </trkpt>
      <trkpt lat="48.11029" lon="1.3317">
        <ele>104</ele>
        <time>2018-10-09T13:56:10.106Z</time>
      </trkpt>
      <trkpt lat="48.11028" lon="1.33169">
        <ele>104</ele>
        <time>2018-10-09T13:56:11.106Z</time>
      </trkpt>
      <trkpt lat="48.11026" lon="1.33168">
        <ele>104</ele>
        <time>2018-10-09T13:56:12.106Z</time>
      </trkpt>
      <trkpt lat="48.11025" lon="1.33167">
        <ele>104</ele>
        <time>2018-10-09T13:56:13.106Z</time>
      </trkpt>
      <trkpt lat="48.11024" lon="1.33166">
        <ele>104</ele>
        <time>2018-10-09T13:56:14.106Z</time>
      </trkpt>
      <trkpt lat="48.11023" lon="1.33165">
        <ele>104</ele>
        <time>2018-10-09T13:56:15.106Z</time>
      </trkpt>
      <trkpt lat="48.11022" lon="1.33165">
        <ele>104</ele>
        <time>2018-10-09T13:56:16.106Z</time>
      </trkpt>
      <trkpt lat="48.11021" lon="1.33164">
        <ele>104</ele>
        <time>2018-10-09T13:56:17.106Z</time>
      </trkpt>
      <trkpt lat="48.1102" lon="1.33163">
        <ele>104</ele>
        <time>2018-10-09T13:56:18.106Z</time>
      </trkpt>
      <trkpt lat="48.1102" lon="1.33163">
        <ele>104</ele>
        <time>2018-10-09T13:56:19.106Z</time>
      </trkpt>
      <trkpt lat="48.11019" lon="1.33165">
        <ele>103</ele>
        <time>2018-10-09T13:56:20.106Z</time>
      </trkpt>
      <trkpt lat="48.11018" lon="1.33166">
        <ele>103</ele>
        <time>2018-10-09T13:56:21.106Z</time>
      </trkpt>
      <trkpt lat="48.11018" lon="1.33168">
        <ele>104</ele>
        <time>2018-10-09T13:56:22.106Z</time>
      </trkpt>
      <trkpt lat="48.11017" lon="1.33169">
        <ele>104</ele>
        <time>2018-10-09T13:56:23.106Z</time>
      </trkpt>
      <trkpt lat="48.11016" lon="1.33171">
        <ele>104</ele>
        <time>2018-10-09T13:56:24.106Z</time>
      </trkpt>
      <trkpt lat="48.11016" lon="1.33173">
        <ele>105</ele>
        <time>2018-10-09T13:56:25.106Z</time>
      </trkpt>
      <trkpt lat="48.11015" lon="1.33175">
        <ele>105</ele>
        <time>2018-10-09T13:56:26.106Z</time>
      </trkpt>
      <trkpt lat="48.11014" lon="1.33177">
        <ele>104</ele>
        <time>2018-10-09T13:56:27.106Z</time>
      </trkpt>
      <trkpt lat="48.11013" lon="1.33177">
        <ele>104</ele>
        <time>2018-10-09T13:56:28.106Z</time>
      </trkpt>
      <trkpt lat="48.11012" lon="1.33177">
        <ele>103</ele>
        <time>2018-10-09T13:56:29.106Z</time>
      </trkpt>
      <trkpt lat="48.11011" lon="1.33178">
        <ele>103</ele>
        <time>2018-10-09T13:56:30.106Z</time>
      </trkpt>
      <trkpt lat="48.1101" lon="1.33179">
        <ele>103</ele>
        <time>2018-10-09T13:56:31.106Z</time>
      </trkpt>
      <trkpt lat="48.11009" lon="1.3318">
        <ele>102</ele>
        <time>2018-10-09T13:56:32.106Z</time>
      </trkpt>
      <trkpt lat="48.11008" lon="1.33181">
        <ele>102</ele>
        <time>2018-10-09T13:56:33.106Z</time>
      </trkpt>
      <trkpt lat="48.11007" lon="1.33182">
        <ele>102</ele>
        <time>2018-10-09T13:56:34.106Z</time>
      </trkpt>
      <trkpt lat="48.11006" lon="1.33183">
        <ele>102</ele>
        <time>2018-10-09T13:56:35.106Z</time>
      </trkpt>
      <trkpt lat="48.11005" lon="1.33184">
        <ele>102</ele>
        <time>2018-10-09T13:56:36.106Z</time>
      </trkpt>
      <trkpt lat="48.11004" lon="1.33185">
        <ele>102</ele>
        <time>2018-10-09T13:56:37.106Z</time>
      </trkpt>
      <trkpt lat="48.11003" lon="1.33186">
        <ele>102</ele>
        <time>2018-10-09T13:56:38.106Z</time>
      </trkpt>
      <trkpt lat="48.11002" lon="1.33188">
        <ele>102</ele>
        <time>2018-10-09T13:56:39.106Z</time>
      </trkpt>
      <trkpt lat="48.11001" lon="1.33189">
        <ele>102</ele>
        <time>2018-10-09T13:56:40.106Z</time>
      </trkpt>
      <trkpt lat="48.11" lon="1.3319">
        <ele>102</ele>
        <time>2018-10-09T13:56:41.106Z</time>
      </trkpt>
      <trkpt lat="48.11" lon="1.33191">
        <ele>103</ele>
        <time>2018-10-09T13:56:42.106Z</time>
      </trkpt>
      <trkpt lat="48.10999" lon="1.33193">
        <ele>103</ele>
        <time>2018-10-09T13:56:43.106Z</time>
      </trkpt>
      <trkpt lat="48.10998" lon="1.33195">
        <ele>103</ele>
        <time>2018-10-09T13:56:44.106Z</time>
      </trkpt>
      <trkpt lat="48.10998" lon="1.33197">
        <ele>103</ele>
        <time>2018-10-09T13:56:45.106Z</time>
      </trkpt>
      <trkpt lat="48.10997" lon="1.33198">
        <ele>103</ele>
        <time>2018-10-09T13:56:46.106Z</time>
      </trkpt>
      <trkpt lat="48.10997" lon="1.332">
        <ele>104</ele>
        <time>2018-10-09T13:56:47.106Z</time>
      </trkpt>
      <trkpt lat="48.10997" lon="1.33202">
        <ele>104</ele>
        <time>2018-10-09T13:56:48.106Z</time>
      </trkpt>
      <trkpt lat="48.10996" lon="1.33204">
        <ele>104</ele>
        <time>2018-10-09T13:56:49.106Z</time>
      </trkpt>
      <trkpt lat="48.10996" lon="1.33205">
        <ele>104</ele>
        <time>2018-10-09T13:56:50.106Z</time>
      </trkpt>
      <trkpt lat="48.10995" lon="1.33207">
        <ele>104</ele>
        <time>2018-10-09T13:56:51.106Z</time>
      </trkpt>
      <trkpt lat="48.10995" lon="1.33209">
        <ele>104</ele>
        <time>2018-10-09T13:56:52.106Z</time>
      </trkpt>
      <trkpt lat="48.10994" lon="1.3321">
        <ele>105</ele>
        <time>2018-10-09T13:56:53.106Z</time>
      </trkpt>
      <trkpt lat="48.10993" lon="1.33212">
        <ele>105</ele>
        <time>2018-10-09T13:56:54.106Z</time>
      </trkpt>
      <trkpt lat="48.10993" lon="1.33214">
        <ele>105</ele>
        <time>2018-10-09T13:56:55.106Z</time>
      </trkpt>
      <trkpt lat="48.10992" lon="1.33216">
        <ele>105</ele>
        <time>2018-10-09T13:56:56.106Z</time>
      </trkpt>
      <trkpt lat="48.10992" lon="1.33218">
        <ele>105</ele>
        <time>2018-10-09T13:56:57.106Z</time>
      </trkpt>
      <trkpt lat="48.10991" lon="1.3322">
        <ele>105</ele>
        <time>2018-10-09T13:56:58.106Z</time>
      </trkpt>
      <trkpt lat="48.10991" lon="1.33221">
        <ele>105</ele>
        <time>2018-10-09T13:56:59.106Z</time>
      </trkpt>
      <trkpt lat="48.1099" lon="1.33223">
        <ele>106</ele>
        <time>2018-10-09T13:57:00.106Z</time>
      </trkpt>
      <trkpt lat="48.1099" lon="1.33225">
        <ele>106</ele>
        <time>2018-10-09T13:57:01.106Z</time>
      </trkpt>
      <trkpt lat="48.1099" lon="1.33227">
        <ele>105</ele>
        <time>2018-10-09T13:57:02.106Z</time>
      </trkpt>
      <trkpt lat="48.10989" lon="1.33229">
        <ele>106</ele>
        <time>2018-10-09T13:57:03.106Z</time>
      </trkpt>
      <trkpt lat="48.10989" lon="1.33231">
        <ele>106</ele>
        <time>2018-10-09T13:57:04.106Z</time>
      </trkpt>
      <trkpt lat="48.10988" lon="1.33233">
        <ele>105</ele>
        <time>2018-10-09T13:57:05.106Z</time>
      </trkpt>
      <trkpt lat="48.10988" lon="1.33235">
        <ele>105</ele>
        <time>2018-10-09T13:57:06.106Z</time>
      </trkpt>
      <trkpt lat="48.10987" lon="1.33237">
        <ele>105</ele>
        <time>2018-10-09T13:57:07.106Z</time>
      </trkpt>
      <trkpt lat="48.10987" lon="1.33239">
        <ele>105</ele>
        <time>2018-10-09T13:57:08.106Z</time>
      </trkpt>
      <trkpt lat="48.10987" lon="1.33241">
        <ele>105</ele>
        <time>2018-10-09T13:57:09.106Z</time>
      </trkpt>
      <trkpt lat="48.10987" lon="1.33242">
        <ele>105</ele>
        <time>2018-10-09T13:57:10.106Z</time>
      </trkpt>
      <trkpt lat="48.10986" lon="1.33244">
        <ele>105</ele>
        <time>2018-10-09T13:57:11.106Z</time>
      </trkpt>
      <trkpt lat="48.10986" lon="1.33246">
        <ele>106</ele>
        <time>2018-10-09T13:57:12.106Z</time>
      </trkpt>
      <trkpt lat="48.10986" lon="1.33248">
        <ele>106</ele>
        <time>2018-10-09T13:57:13.106Z</time>
      </trkpt>
      <trkpt lat="48.10985" lon="1.33249">
        <ele>106</ele>
        <time>2018-10-09T13:57:14.106Z</time>
      </trkpt>
      <trkpt lat="48.10985" lon="1.33251">
        <ele>106</ele>
        <time>2018-10-09T13:57:15.106Z</time>
      </trkpt>
      <trkpt lat="48.10984" lon="1.33253">
        <ele>106</ele>
        <time>2018-10-09T13:57:16.106Z</time>
      </trkpt>
      <trkpt lat="48.10984" lon="1.33255">
        <ele>106</ele>
        <time>2018-10-09T13:57:17.106Z</time>
      </trkpt>
      <trkpt lat="48.10983" lon="1.33256">
        <ele>106</ele>
        <time>2018-10-09T13:57:18.106Z</time>
      </trkpt>
      <trkpt lat="48.10983" lon="1.33258">
        <ele>106</ele>
        <time>2018-10-09T13:57:19.106Z</time>
      </trkpt>
      <trkpt lat="48.10983" lon="1.33259">
        <ele>106</ele>
        <time>2018-10-09T13:57:20.106Z</time>
      </trkpt>
      <trkpt lat="48.10982" lon="1.33261">
        <ele>106</ele>
        <time>2018-10-09T13:57:21.106Z</time>
      </trkpt>
      <trkpt lat="48.10982" lon="1.33263">
        <ele>107</ele>
        <time>2018-10-09T13:57:22.106Z</time>
      </trkpt>
      <trkpt lat="48.10982" lon="1.33265">
        <ele>107</ele>
        <time>2018-10-09T13:57:23.106Z</time>
      </trkpt>
      <trkpt lat="48.10981" lon="1.33266">
        <ele>107</ele>
        <time>2018-10-09T13:57:24.106Z</time>
      </trkpt>
      <trkpt lat="48.10981" lon="1.33268">
        <ele>107</ele>
        <time>2018-10-09T13:57:25.106Z</time>
      </trkpt>
      <trkpt lat="48.1098" lon="1.3327">
        <ele>107</ele>
        <time>2018-10-09T13:57:26.106Z</time>
      </trkpt>
      <trkpt lat="48.1098" lon="1.33272">
        <ele>107</ele>
        <time>2018-10-09T13:57:27.106Z</time>
      </trkpt>
      <trkpt lat="48.10979" lon="1.33274">
        <ele>107</ele>
        <time>2018-10-09T13:57:28.106Z</time>
      </trkpt>
      <trkpt lat="48.10979" lon="1.33276">
        <ele>107</ele>
        <time>2018-10-09T13:57:29.106Z</time>
      </trkpt>
      <trkpt lat="48.10978" lon="1.33277">
        <ele>106</ele>
        <time>2018-10-09T13:57:30.106Z</time>
      </trkpt>
      <trkpt lat="48.10978" lon="1.33279">
        <ele>107</ele>
        <time>2018-10-09T13:57:31.106Z</time>
      </trkpt>
      <trkpt lat="48.10977" lon="1.33281">
        <ele>107</ele>
        <time>2018-10-09T13:57:32.106Z</time>
      </trkpt>
      <trkpt lat="48.10977" lon="1.33283">
        <ele>107</ele>
        <time>2018-10-09T13:57:33.106Z</time>
      </trkpt>
      <trkpt lat="48.10976" lon="1.33285">
        <ele>107</ele>
        <time>2018-10-09T13:57:34.106Z</time>
      </trkpt>
      <trkpt lat="48.10976" lon="1.33287">
        <ele>107</ele>
        <time>2018-10-09T13:57:35.106Z</time>
      </trkpt>
      <trkpt lat="48.10976" lon="1.33289">
        <ele>107</ele>
        <time>2018-10-09T13:57:36.106Z</time>
      </trkpt>
      <trkpt lat="48.10975" lon="1.33291">
        <ele>107</ele>
        <time>2018-10-09T13:57:37.106Z</time>
      </trkpt>
      <trkpt lat="48.10975" lon="1.33293">
        <ele>107</ele>
        <time>2018-10-09T13:57:38.106Z</time>
      </trkpt>
      <trkpt lat="48.10974" lon="1.33295">
        <ele>107</ele>
        <time>2018-10-09T13:57:39.106Z</time>
      </trkpt>
      <trkpt lat="48.10974" lon="1.33297">
        <ele>107</ele>
        <time>2018-10-09T13:57:40.106Z</time>
      </trkpt>
      <trkpt lat="48.10974" lon="1.33299">
        <ele>107</ele>
        <time>2018-10-09T13:57:41.106Z</time>
      </trkpt>
      <trkpt lat="48.10974" lon="1.33301">
        <ele>107</ele>
        <time>2018-10-09T13:57:42.106Z</time>
      </trkpt>
      <trkpt lat="48.10974" lon="1.33302">
        <ele>107</ele>
        <time>2018-10-09T13:57:43.106Z</time>
      </trkpt>
      <trkpt lat="48.10974" lon="1.33304">
        <ele>108</ele>
        <time>2018-10-09T13:57:44.106Z</time>
      </trkpt>
      <trkpt lat="48.10974" lon="1.33306">
        <ele>108</ele>
        <time>2018-10-09T13:57:45.106Z</time>
      </trkpt>
      <trkpt lat="48.10974" lon="1.33307">
        <ele>108</ele>
        <time>2018-10-09T13:57:46.106Z</time>
      </trkpt>
      <trkpt lat="48.10974" lon="1.33309">
        <ele>107</ele>
        <time>2018-10-09T13:57:47.106Z</time>
      </trkpt>
      <trkpt lat="48.10974" lon="1.33311">
        <ele>107</ele>
        <time>2018-10-09T13:57:48.106Z</time>
      </trkpt>
      <trkpt lat="48.10973" lon="1.33313">
        <ele>108</ele>
        <time>2018-10-09T13:57:49.106Z</time>
      </trkpt>
      <trkpt lat="48.10973" lon="1.33315">
        <ele>107</ele>
        <time>2018-10-09T13:57:50.106Z</time>
      </trkpt>
      <trkpt lat="48.10973" lon="1.33317">
        <ele>108</ele>
        <time>2018-10-09T13:57:51.106Z</time>
      </trkpt>
      <trkpt lat="48.10973" lon="1.33319">
        <ele>108</ele>
        <time>2018-10-09T13:57:52.106Z</time>
      </trkpt>
      <trkpt lat="48.10973" lon="1.3332">
        <ele>108</ele>
        <time>2018-10-09T13:57:53.106Z</time>
      </trkpt>
      <trkpt lat="48.10972" lon="1.33322">
        <ele>107</ele>
        <time>2018-10-09T13:57:54.106Z</time>
      </trkpt>
      <trkpt lat="48.10972" lon="1.33324">
        <ele>107</ele>
        <time>2018-10-09T13:57:55.106Z</time>
      </trkpt>
      <trkpt lat="48.10972" lon="1.33326">
        <ele>107</ele>
        <time>2018-10-09T13:57:56.106Z</time>
      </trkpt>
      <trkpt lat="48.10971" lon="1.33328">
        <ele>107</ele>
        <time>2018-10-09T13:57:57.106Z</time>
      </trkpt>
      <trkpt lat="48.10971" lon="1.33329">
        <ele>107</ele>
        <time>2018-10-09T13:57:58.106Z</time>
      </trkpt>
      <trkpt lat="48.10971" lon="1.33331">
        <ele>108</ele>
        <time>2018-10-09T13:57:59.106Z</time>
      </trkpt>
      <trkpt lat="48.10971" lon="1.33333">
        <ele>107</ele>
        <time>2018-10-09T13:58:00.106Z</time>
      </trkpt>
      <trkpt lat="48.10971" lon="1.33335">
        <ele>107</ele>
        <time>2018-10-09T13:58:01.106Z</time>
      </trkpt>
      <trkpt lat="48.10971" lon="1.33338">
        <ele>107</ele>
        <time>2018-10-09T13:58:02.106Z</time>
      </trkpt>
      <trkpt lat="48.1097" lon="1.3334">
        <ele>108</ele>
        <time>2018-10-09T13:58:03.106Z</time>
      </trkpt>
      <trkpt lat="48.1097" lon="1.33342">
        <ele>108</ele>
        <time>2018-10-09T13:58:04.106Z</time>
      </trkpt>
      <trkpt lat="48.1097" lon="1.33344">
        <ele>108</ele>
        <time>2018-10-09T13:58:05.106Z</time>
      </trkpt>
      <trkpt lat="48.10969" lon="1.33347">
        <ele>108</ele>
        <time>2018-10-09T13:58:06.106Z</time>
      </trkpt>
      <trkpt lat="48.10969" lon="1.33349">
        <ele>107</ele>
        <time>2018-10-09T13:58:07.106Z</time>
      </trkpt>
      <trkpt lat="48.10969" lon="1.33351">
        <ele>108</ele>
        <time>2018-10-09T13:58:08.106Z</time>
      </trkpt>
      <trkpt lat="48.10969" lon="1.33353">
        <ele>108</ele>
        <time>2018-10-09T13:58:09.106Z</time>
      </trkpt>
      <trkpt lat="48.10969" lon="1.33356">
        <ele>108</ele>
        <time>2018-10-09T13:58:10.106Z</time>
      </trkpt>
      <trkpt lat="48.10968" lon="1.33358">
        <ele>108</ele>
        <time>2018-10-09T13:58:11.106Z</time>
      </trkpt>
      <trkpt lat="48.10968" lon="1.3336">
        <ele>108</ele>
        <time>2018-10-09T13:58:12.106Z</time>
      </trkpt>
      <trkpt lat="48.10968" lon="1.33362">
        <ele>108</ele>
        <time>2018-10-09T13:58:13.106Z</time>
      </trkpt>
      <trkpt lat="48.10968" lon="1.33365">
        <ele>108</ele>
        <time>2018-10-09T13:58:14.106Z</time>
      </trkpt>
      <trkpt lat="48.10968" lon="1.33367">
        <ele>108</ele>
        <time>2018-10-09T13:58:15.106Z</time>
      </trkpt>
      <trkpt lat="48.10968" lon="1.33369">
        <ele>108</ele>
        <time>2018-10-09T13:58:16.106Z</time>
      </trkpt>
      <trkpt lat="48.10968" lon="1.33371">
        <ele>108</ele>
        <time>2018-10-09T13:58:17.106Z</time>
      </trkpt>
      <trkpt lat="48.10968" lon="1.33373">
        <ele>108</ele>
        <time>2018-10-09T13:58:18.106Z</time>
      </trkpt>
      <trkpt lat="48.10968" lon="1.33375">
        <ele>108</ele>
        <time>2018-10-09T13:58:19.106Z</time>
      </trkpt>
      <trkpt lat="48.10968" lon="1.33377">
        <ele>108</ele>
        <time>2018-10-09T13:58:20.106Z</time>
      </trkpt>
      <trkpt lat="48.10968" lon="1.33378">
        <ele>108</ele>
        <time>2018-10-09T13:58:21.106Z</time>
      </trkpt>
      <trkpt lat="48.10968" lon="1.3338">
        <ele>107</ele>
        <time>2018-10-09T13:58:22.106Z</time>
      </trkpt>
      <trkpt lat="48.10968" lon="1.33382">
        <ele>107</ele>
        <time>2018-10-09T13:58:23.106Z</time>
      </trkpt>
      <trkpt lat="48.10967" lon="1.33384">
        <ele>107</ele>
        <time>2018-10-09T13:58:24.106Z</time>
      </trkpt>
      <trkpt lat="48.10967" lon="1.33386">
        <ele>107</ele>
        <time>2018-10-09T13:58:25.106Z</time>
      </trkpt>
      <trkpt lat="48.10967" lon="1.33388">
        <ele>107</ele>
        <time>2018-10-09T13:58:26.106Z</time>
      </trkpt>
      <trkpt lat="48.10967" lon="1.3339">
        <ele>106</ele>
        <time>2018-10-09T13:58:27.106Z</time>
      </trkpt>
      <trkpt lat="48.10967" lon="1.33392">
        <ele>106</ele>
        <time>2018-10-09T13:58:28.106Z</time>
      </trkpt>
      <trkpt lat="48.10967" lon="1.33394">
        <ele>107</ele>
        <time>2018-10-09T13:58:29.106Z</time>
      </trkpt>
      <trkpt lat="48.10966" lon="1.33396">
        <ele>106</ele>
        <time>2018-10-09T13:58:30.106Z</time>
      </trkpt>
      <trkpt lat="48.10966" lon="1.33398">
        <ele>106</ele>
        <time>2018-10-09T13:58:31.106Z</time>
      </trkpt>
      <trkpt lat="48.10966" lon="1.334">
        <ele>106</ele>
        <time>2018-10-09T13:58:32.106Z</time>
      </trkpt>
      <trkpt lat="48.10966" lon="1.33402">
        <ele>106</ele>
        <time>2018-10-09T13:58:33.106Z</time>
      </trkpt>
      <trkpt lat="48.10967" lon="1.33404">
        <ele>106</ele>
        <time>2018-10-09T13:58:34.106Z</time>
      </trkpt>
      <trkpt lat="48.10967" lon="1.33406">
        <ele>106</ele>
        <time>2018-10-09T13:58:35.106Z</time>
      </trkpt>
      <trkpt lat="48.10967" lon="1.33408">
        <ele>106</ele>
        <time>2018-10-09T13:58:36.106Z</time>
      </trkpt>
      <trkpt lat="48.10967" lon="1.3341">
        <ele>106</ele>
        <time>2018-10-09T13:58:37.106Z</time>
      </trkpt>
      <trkpt lat="48.10966" lon="1.33411">
        <ele>105</ele>
        <time>2018-10-09T13:58:38.106Z</time>
      </trkpt>
      <trkpt lat="48.10966" lon="1.33413">
        <ele>105</ele>
        <time>2018-10-09T13:58:39.106Z</time>
      </trkpt>
      <trkpt lat="48.10966" lon="1.33415">
        <ele>105</ele>
        <time>2018-10-09T13:58:40.106Z</time>
      </trkpt>
      <trkpt lat="48.10966" lon="1.33417">
        <ele>105</ele>
        <time>2018-10-09T13:58:41.106Z</time>
      </trkpt>
      <trkpt lat="48.10966" lon="1.33419">
        <ele>104</ele>
        <time>2018-10-09T13:58:42.106Z</time>
      </trkpt>
      <trkpt lat="48.10966" lon="1.33421">
        <ele>104</ele>
        <time>2018-10-09T13:58:43.106Z</time>
      </trkpt>
      <trkpt lat="48.10966" lon="1.33422">
        <ele>104</ele>
        <time>2018-10-09T13:58:44.106Z</time>
      </trkpt>
      <trkpt lat="48.10966" lon="1.33424">
        <ele>104</ele>
        <time>2018-10-09T13:58:45.106Z</time>
      </trkpt>
      <trkpt lat="48.10965" lon="1.33426">
        <ele>104</ele>
        <time>2018-10-09T13:58:46.106Z</time>
      </trkpt>
      <trkpt lat="48.10965" lon="1.33428">
        <ele>104</ele>
        <time>2018-10-09T13:58:47.106Z</time>
      </trkpt>
      <trkpt lat="48.10965" lon="1.3343">
        <ele>104</ele>
        <time>2018-10-09T13:58:48.106Z</time>
      </trkpt>
      <trkpt lat="48.10964" lon="1.33432">
        <ele>104</ele>
        <time>2018-10-09T13:58:49.106Z</time>
      </trkpt>
      <trkpt lat="48.10964" lon="1.33434">
        <ele>104</ele>
        <time>2018-10-09T13:58:50.106Z</time>
      </trkpt>
      <trkpt lat="48.10964" lon="1.33436">
        <ele>103</ele>
        <time>2018-10-09T13:58:51.106Z</time>
      </trkpt>
      <trkpt lat="48.10964" lon="1.33438">
        <ele>103</ele>
        <time>2018-10-09T13:58:52.106Z</time>
      </trkpt>
      <trkpt lat="48.10964" lon="1.33441">
        <ele>103</ele>
        <time>2018-10-09T13:58:53.106Z</time>
      </trkpt>
      <trkpt lat="48.10963" lon="1.33443">
        <ele>103</ele>
        <time>2018-10-09T13:58:54.106Z</time>
      </trkpt>
      <trkpt lat="48.10963" lon="1.33445">
        <ele>103</ele>
        <time>2018-10-09T13:58:55.106Z</time>
      </trkpt>
      <trkpt lat="48.10963" lon="1.33447">
        <ele>103</ele>
        <time>2018-10-09T13:58:56.106Z</time>
      </trkpt>
      <trkpt lat="48.10963" lon="1.33449">
        <ele>103</ele>
        <time>2018-10-09T13:58:57.106Z</time>
      </trkpt>
      <trkpt lat="48.10962" lon="1.33451">
        <ele>103</ele>
        <time>2018-10-09T13:58:58.106Z</time>
      </trkpt>
      <trkpt lat="48.10962" lon="1.33453">
        <ele>103</ele>
        <time>2018-10-09T13:58:59.106Z</time>
      </trkpt>
      <trkpt lat="48.10961" lon="1.33455">
        <ele>104</ele>
        <time>2018-10-09T13:59:00.106Z</time>
      </trkpt>
      <trkpt lat="48.10961" lon="1.33457">
        <ele>104</ele>
        <time>2018-10-09T13:59:01.106Z</time>
      </trkpt>
      <trkpt lat="48.10961" lon="1.33459">
        <ele>104</ele>
        <time>2018-10-09T13:59:02.106Z</time>
      </trkpt>
      <trkpt lat="48.10961" lon="1.33462">
        <ele>104</ele>
        <time>2018-10-09T13:59:03.106Z</time>
      </trkpt>
      <trkpt lat="48.10961" lon="1.33464">
        <ele>104</ele>
        <time>2018-10-09T13:59:04.106Z</time>
      </trkpt>
      <trkpt lat="48.10961" lon="1.33466">
        <ele>103</ele>
        <time>2018-10-09T13:59:05.106Z</time>
      </trkpt>
      <trkpt lat="48.10961" lon="1.33468">
        <ele>104</ele>
        <time>2018-10-09T13:59:06.106Z</time>
      </trkpt>
      <trkpt lat="48.10961" lon="1.3347">
        <ele>104</ele>
        <time>2018-10-09T13:59:07.106Z</time>
      </trkpt>
      <trkpt lat="48.1096" lon="1.33473">
        <ele>104</ele>
        <time>2018-10-09T13:59:08.106Z</time>
      </trkpt>
      <trkpt lat="48.1096" lon="1.33475">
        <ele>104</ele>
        <time>2018-10-09T13:59:09.106Z</time>
      </trkpt>
      <trkpt lat="48.10959" lon="1.33477">
        <ele>104</ele>
        <time>2018-10-09T13:59:10.106Z</time>
      </trkpt>
      <trkpt lat="48.10959" lon="1.33479">
        <ele>104</ele>
        <time>2018-10-09T13:59:11.106Z</time>
      </trkpt>
      <trkpt lat="48.10959" lon="1.33481">
        <ele>104</ele>
        <time>2018-10-09T13:59:12.106Z</time>
      </trkpt>
      <trkpt lat="48.10959" lon="1.33483">
        <ele>105</ele>
        <time>2018-10-09T13:59:13.106Z</time>
      </trkpt>
      <trkpt lat="48.10958" lon="1.33485">
        <ele>105</ele>
        <time>2018-10-09T13:59:14.106Z</time>
      </trkpt>
      <trkpt lat="48.10958" lon="1.33488">
        <ele>106</ele>
        <time>2018-10-09T13:59:15.106Z</time>
      </trkpt>
      <trkpt lat="48.10957" lon="1.3349">
        <ele>106</ele>
        <time>2018-10-09T13:59:16.106Z</time>
      </trkpt>
      <trkpt lat="48.10957" lon="1.33492">
        <ele>106</ele>
        <time>2018-10-09T13:59:17.106Z</time>
      </trkpt>
      <trkpt lat="48.10957" lon="1.33494">
        <ele>106</ele>
        <time>2018-10-09T13:59:18.106Z</time>
      </trkpt>
      <trkpt lat="48.10957" lon="1.33496">
        <ele>107</ele>
        <time>2018-10-09T13:59:19.106Z</time>
      </trkpt>
      <trkpt lat="48.10956" lon="1.33498">
        <ele>107</ele>
        <time>2018-10-09T13:59:20.106Z</time>
      </trkpt>
      <trkpt lat="48.10956" lon="1.335">
        <ele>107</ele>
        <time>2018-10-09T13:59:21.106Z</time>
      </trkpt>
      <trkpt lat="48.10956" lon="1.33502">
        <ele>108</ele>
        <time>2018-10-09T13:59:22.106Z</time>
      </trkpt>
      <trkpt lat="48.10955" lon="1.33504">
        <ele>108</ele>
        <time>2018-10-09T13:59:23.106Z</time>
      </trkpt>
      <trkpt lat="48.10955" lon="1.33506">
        <ele>108</ele>
        <time>2018-10-09T13:59:24.106Z</time>
      </trkpt>
      <trkpt lat="48.10954" lon="1.33508">
        <ele>108</ele>
        <time>2018-10-09T13:59:25.106Z</time>
      </trkpt>
      <trkpt lat="48.10954" lon="1.3351">
        <ele>107</ele>
        <time>2018-10-09T13:59:26.106Z</time>
      </trkpt>
      <trkpt lat="48.10953" lon="1.33512">
        <ele>107</ele>
        <time>2018-10-09T13:59:27.106Z</time>
      </trkpt>
      <trkpt lat="48.10953" lon="1.33514">
        <ele>107</ele>
        <time>2018-10-09T13:59:28.106Z</time>
      </trkpt>
      <trkpt lat="48.10952" lon="1.33517">
        <ele>107</ele>
        <time>2018-10-09T13:59:29.106Z</time>
      </trkpt>
      <trkpt lat="48.10952" lon="1.33519">
        <ele>107</ele>
        <time>2018-10-09T13:59:30.106Z</time>
      </trkpt>
      <trkpt lat="48.10952" lon="1.33521">
        <ele>107</ele>
        <time>2018-10-09T13:59:31.106Z</time>
      </trkpt>
      <trkpt lat="48.10952" lon="1.33524">
        <ele>107</ele>
        <time>2018-10-09T13:59:32.106Z</time>
      </trkpt>
      <trkpt lat="48.10951" lon="1.33526">
        <ele>107</ele>
        <time>2018-10-09T13:59:33.106Z</time>
      </trkpt>
      <trkpt lat="48.10951" lon="1.33528">
        <ele>107</ele>
        <time>2018-10-09T13:59:34.106Z</time>
      </trkpt>
      <trkpt lat="48.10951" lon="1.3353">
        <ele>106</ele>
        <time>2018-10-09T13:59:35.106Z</time>
      </trkpt>
      <trkpt lat="48.10951" lon="1.33532">
        <ele>106</ele>
        <time>2018-10-09T13:59:36.106Z</time>
      </trkpt>
      <trkpt lat="48.10951" lon="1.33534">
        <ele>106</ele>
        <time>2018-10-09T13:59:37.106Z</time>
      </trkpt>
      <trkpt lat="48.10951" lon="1.33536">
        <ele>106</ele>
        <time>2018-10-09T13:59:38.106Z</time>
      </trkpt>
      <trkpt lat="48.1095" lon="1.33538">
        <ele>106</ele>
        <time>2018-10-09T13:59:39.106Z</time>
      </trkpt>
      <trkpt lat="48.1095" lon="1.3354">
        <ele>106</ele>
        <time>2018-10-09T13:59:40.106Z</time>
      </trkpt>
      <trkpt lat="48.10949" lon="1.33542">
        <ele>106</ele>
        <time>2018-10-09T13:59:41.106Z</time>
      </trkpt>
      <trkpt lat="48.10949" lon="1.33545">
        <ele>106</ele>
        <time>2018-10-09T13:59:42.106Z</time>
      </trkpt>
      <trkpt lat="48.10949" lon="1.33547">
        <ele>106</ele>
        <time>2018-10-09T13:59:43.106Z</time>
      </trkpt>
      <trkpt lat="48.10948" lon="1.33549">
        <ele>106</ele>
        <time>2018-10-09T13:59:44.106Z</time>
      </trkpt>
      <trkpt lat="48.10948" lon="1.33551">
        <ele>106</ele>
        <time>2018-10-09T13:59:45.106Z</time>
      </trkpt>
      <trkpt lat="48.10948" lon="1.33553">
        <ele>107</ele>
        <time>2018-10-09T13:59:46.106Z</time>
      </trkpt>
      <trkpt lat="48.10948" lon="1.33555">
        <ele>106</ele>
        <time>2018-10-09T13:59:47.106Z</time>
      </trkpt>
      <trkpt lat="48.10947" lon="1.33557">
        <ele>106</ele>
        <time>2018-10-09T13:59:48.106Z</time>
      </trkpt>
      <trkpt lat="48.10947" lon="1.33559">
        <ele>106</ele>
        <time>2018-10-09T13:59:49.106Z</time>
      </trkpt>
      <trkpt lat="48.10947" lon="1.33561">
        <ele>106</ele>
        <time>2018-10-09T13:59:50.106Z</time>
      </trkpt>
      <trkpt lat="48.10947" lon="1.33562">
        <ele>106</ele>
        <time>2018-10-09T13:59:51.106Z</time>
      </trkpt>
      <trkpt lat="48.10947" lon="1.33564">
        <ele>106</ele>
        <time>2018-10-09T13:59:52.106Z</time>
      </trkpt>
      <trkpt lat="48.10947" lon="1.33566">
        <ele>106</ele>
        <time>2018-10-09T13:59:53.106Z</time>
      </trkpt>
      <trkpt lat="48.10947" lon="1.33568">
        <ele>106</ele>
        <time>2018-10-09T13:59:54.106Z</time>
      </trkpt>
      <trkpt lat="48.10946" lon="1.3357">
        <ele>106</ele>
        <time>2018-10-09T13:59:55.106Z</time>
      </trkpt>
      <trkpt lat="48.10946" lon="1.33573">
        <ele>106</ele>
        <time>2018-10-09T13:59:56.106Z</time>
      </trkpt>
      <trkpt lat="48.10946" lon="1.33575">
        <ele>106</ele>
        <time>2018-10-09T13:59:57.106Z</time>
      </trkpt>
      <trkpt lat="48.10945" lon="1.33577">
        <ele>106</ele>
        <time>2018-10-09T13:59:58.106Z</time>
      </trkpt>
      <trkpt lat="48.10945" lon="1.33579">
        <ele>106</ele>
        <time>2018-10-09T13:59:59.106Z</time>
      </trkpt>
      <trkpt lat="48.10944" lon="1.33581">
        <ele>106</ele>
        <time>2018-10-09T14:00:00.106Z</time>
      </trkpt>
      <trkpt lat="48.10944" lon="1.33583">
        <ele>107</ele>
        <time>2018-10-09T14:00:01.106Z</time>
      </trkpt>
      <trkpt lat="48.10943" lon="1.33585">
        <ele>107</ele>
        <time>2018-10-09T14:00:02.106Z</time>
      </trkpt>
      <trkpt lat="48.10943" lon="1.33587">
        <ele>107</ele>
        <time>2018-10-09T14:00:03.106Z</time>
      </trkpt>
      <trkpt lat="48.10942" lon="1.33589">
        <ele>107</ele>
        <time>2018-10-09T14:00:04.106Z</time>
      </trkpt>
      <trkpt lat="48.10941" lon="1.33591">
        <ele>107</ele>
        <time>2018-10-09T14:00:05.106Z</time>
      </trkpt>
      <trkpt lat="48.10941" lon="1.33593">
        <ele>107</ele>
        <time>2018-10-09T14:00:06.106Z</time>
      </trkpt>
      <trkpt lat="48.1094" lon="1.33595">
        <ele>106</ele>
        <time>2018-10-09T14:00:07.106Z</time>
      </trkpt>
      <trkpt lat="48.1094" lon="1.33597">
        <ele>105</ele>
        <time>2018-10-09T14:00:08.106Z</time>
      </trkpt>
      <trkpt lat="48.1094" lon="1.33599">
        <ele>104</ele>
        <time>2018-10-09T14:00:09.106Z</time>
      </trkpt>
      <trkpt lat="48.1094" lon="1.33601">
        <ele>104</ele>
        <time>2018-10-09T14:00:10.106Z</time>
      </trkpt>
      <trkpt lat="48.1094" lon="1.33603">
        <ele>104</ele>
        <time>2018-10-09T14:00:11.106Z</time>
      </trkpt>
      <trkpt lat="48.10939" lon="1.33605">
        <ele>104</ele>
        <time>2018-10-09T14:00:12.106Z</time>
      </trkpt>
      <trkpt lat="48.10939" lon="1.33607">
        <ele>104</ele>
        <time>2018-10-09T14:00:13.106Z</time>
      </trkpt>
      <trkpt lat="48.10938" lon="1.33609">
        <ele>104</ele>
        <time>2018-10-09T14:00:14.106Z</time>
      </trkpt>
      <trkpt lat="48.10938" lon="1.33611">
        <ele>105</ele>
        <time>2018-10-09T14:00:15.106Z</time>
      </trkpt>
      <trkpt lat="48.10938" lon="1.33613">
        <ele>105</ele>
        <time>2018-10-09T14:00:16.106Z</time>
      </trkpt>
      <trkpt lat="48.10938" lon="1.33615">
        <ele>105</ele>
        <time>2018-10-09T14:00:17.106Z</time>
      </trkpt>
      <trkpt lat="48.10938" lon="1.33617">
        <ele>105</ele>
        <time>2018-10-09T14:00:18.106Z</time>
      </trkpt>
      <trkpt lat="48.10938" lon="1.33619">
        <ele>105</ele>
        <time>2018-10-09T14:00:19.106Z</time>
      </trkpt>
      <trkpt lat="48.10938" lon="1.33621">
        <ele>105</ele>
        <time>2018-10-09T14:00:20.106Z</time>
      </trkpt>
      <trkpt lat="48.10938" lon="1.33624">
        <ele>105</ele>
        <time>2018-10-09T14:00:21.106Z</time>
      </trkpt>
      <trkpt lat="48.10938" lon="1.33626">
        <ele>105</ele>
        <time>2018-10-09T14:00:22.106Z</time>
      </trkpt>
      <trkpt lat="48.10938" lon="1.33628">
        <ele>105</ele>
        <time>2018-10-09T14:00:23.106Z</time>
      </trkpt>
      <trkpt lat="48.10938" lon="1.3363">
        <ele>105</ele>
        <time>2018-10-09T14:00:24.106Z</time>
      </trkpt>
      <trkpt lat="48.10938" lon="1.33632">
        <ele>104</ele>
        <time>2018-10-09T14:00:25.106Z</time>
      </trkpt>
      <trkpt lat="48.10938" lon="1.33633">
        <ele>104</ele>
        <time>2018-10-09T14:00:26.106Z</time>
      </trkpt>
      <trkpt lat="48.10938" lon="1.33635">
        <ele>104</ele>
        <time>2018-10-09T14:00:27.106Z</time>
      </trkpt>
      <trkpt lat="48.10938" lon="1.33637">
        <ele>104</ele>
        <time>2018-10-09T14:00:28.106Z</time>
      </trkpt>
      <trkpt lat="48.10938" lon="1.3364">
        <ele>104</ele>
        <time>2018-10-09T14:00:29.106Z</time>
      </trkpt>
      <trkpt lat="48.10938" lon="1.33642">
        <ele>103</ele>
        <time>2018-10-09T14:00:30.106Z</time>
      </trkpt>
      <trkpt lat="48.10938" lon="1.33644">
        <ele>103</ele>
        <time>2018-10-09T14:00:31.106Z</time>
      </trkpt>
      <trkpt lat="48.10938" lon="1.33645">
        <ele>103</ele>
        <time>2018-10-09T14:00:32.106Z</time>
      </trkpt>
      <trkpt lat="48.10938" lon="1.33648">
        <ele>103</ele>
        <time>2018-10-09T14:00:33.106Z</time>
      </trkpt>
      <trkpt lat="48.10938" lon="1.3365">
        <ele>103</ele>
        <time>2018-10-09T14:00:34.106Z</time>
      </trkpt>
      <trkpt lat="48.10938" lon="1.33652">
        <ele>103</ele>
        <time>2018-10-09T14:00:35.106Z</time>
      </trkpt>
      <trkpt lat="48.10938" lon="1.33654">
        <ele>102</ele>
        <time>2018-10-09T14:00:36.106Z</time>
      </trkpt>
      <trkpt lat="48.10938" lon="1.33656">
        <ele>102</ele>
        <time>2018-10-09T14:00:37.106Z</time>
      </trkpt>
      <trkpt lat="48.10937" lon="1.33658">
        <ele>102</ele>
        <time>2018-10-09T14:00:38.106Z</time>
      </trkpt>
      <trkpt lat="48.10937" lon="1.3366">
        <ele>102</ele>
        <time>2018-10-09T14:00:39.106Z</time>
      </trkpt>
      <trkpt lat="48.10937" lon="1.33662">
        <ele>102</ele>
        <time>2018-10-09T14:00:40.106Z</time>
      </trkpt>
      <trkpt lat="48.10937" lon="1.33665">
        <ele>103</ele>
        <time>2018-10-09T14:00:41.106Z</time>
      </trkpt>
      <trkpt lat="48.10936" lon="1.33667">
        <ele>103</ele>
        <time>2018-10-09T14:00:42.106Z</time>
      </trkpt>
      <trkpt lat="48.10936" lon="1.3367">
        <ele>103</ele>
        <time>2018-10-09T14:00:43.106Z</time>
      </trkpt>
      <trkpt lat="48.10936" lon="1.33672">
        <ele>103</ele>
        <time>2018-10-09T14:00:44.106Z</time>
      </trkpt>
      <trkpt lat="48.10936" lon="1.33674">
        <ele>103</ele>
        <time>2018-10-09T14:00:45.106Z</time>
      </trkpt>
      <trkpt lat="48.10935" lon="1.33677">
        <ele>103</ele>
        <time>2018-10-09T14:00:46.106Z</time>
      </trkpt>
      <trkpt lat="48.10935" lon="1.33679">
        <ele>104</ele>
        <time>2018-10-09T14:00:47.106Z</time>
      </trkpt>
      <trkpt lat="48.10935" lon="1.33681">
        <ele>104</ele>
        <time>2018-10-09T14:00:48.106Z</time>
      </trkpt>
      <trkpt lat="48.10935" lon="1.33683">
        <ele>104</ele>
        <time>2018-10-09T14:00:49.106Z</time>
      </trkpt>
      <trkpt lat="48.10935" lon="1.33686">
        <ele>104</ele>
        <time>2018-10-09T14:00:50.106Z</time>
      </trkpt>
      <trkpt lat="48.10935" lon="1.33688">
        <ele>105</ele>
        <time>2018-10-09T14:00:51.106Z</time>
      </trkpt>
      <trkpt lat="48.10934" lon="1.33691">
        <ele>105</ele>
        <time>2018-10-09T14:00:52.106Z</time>
      </trkpt>
      <trkpt lat="48.10934" lon="1.33693">
        <ele>106</ele>
        <time>2018-10-09T14:00:53.106Z</time>
      </trkpt>
      <trkpt lat="48.10934" lon="1.33695">
        <ele>106</ele>
        <time>2018-10-09T14:00:54.106Z</time>
      </trkpt>
      <trkpt lat="48.10934" lon="1.33697">
        <ele>106</ele>
        <time>2018-10-09T14:00:55.106Z</time>
      </trkpt>
      <trkpt lat="48.10934" lon="1.337">
        <ele>106</ele>
        <time>2018-10-09T14:00:56.106Z</time>
      </trkpt>
      <trkpt lat="48.10934" lon="1.33702">
        <ele>106</ele>
        <time>2018-10-09T14:00:57.106Z</time>
      </trkpt>
      <trkpt lat="48.10934" lon="1.33704">
        <ele>106</ele>
        <time>2018-10-09T14:00:58.106Z</time>
      </trkpt>
      <trkpt lat="48.10934" lon="1.33706">
        <ele>107</ele>
        <time>2018-10-09T14:00:59.106Z</time>
      </trkpt>
      <trkpt lat="48.10933" lon="1.33708">
        <ele>107</ele>
        <time>2018-10-09T14:01:00.106Z</time>
      </trkpt>
      <trkpt lat="48.10933" lon="1.3371">
        <ele>107</ele>
        <time>2018-10-09T14:01:01.106Z</time>
      </trkpt>
      <trkpt lat="48.10933" lon="1.33712">
        <ele>108</ele>
        <time>2018-10-09T14:01:02.106Z</time>
      </trkpt>
      <trkpt lat="48.10933" lon="1.33714">
        <ele>108</ele>
        <time>2018-10-09T14:01:03.106Z</time>
      </trkpt>
      <trkpt lat="48.10933" lon="1.33715">
        <ele>109</ele>
        <time>2018-10-09T14:01:04.106Z</time>
      </trkpt>
      <trkpt lat="48.10933" lon="1.33717">
        <ele>109</ele>
        <time>2018-10-09T14:01:05.106Z</time>
      </trkpt>
      <trkpt lat="48.10933" lon="1.33719">
        <ele>109</ele>
        <time>2018-10-09T14:01:06.106Z</time>
      </trkpt>
      <trkpt lat="48.10932" lon="1.33721">
        <ele>110</ele>
        <time>2018-10-09T14:01:07.106Z</time>
      </trkpt>
      <trkpt lat="48.10932" lon="1.33723">
        <ele>110</ele>
        <time>2018-10-09T14:01:08.106Z</time>
      </trkpt>
      <trkpt lat="48.10931" lon="1.33725">
        <ele>111</ele>
        <time>2018-10-09T14:01:09.106Z</time>
      </trkpt>
      <trkpt lat="48.10931" lon="1.33727">
        <ele>111</ele>
        <time>2018-10-09T14:01:10.106Z</time>
      </trkpt>
      <trkpt lat="48.1093" lon="1.33729">
        <ele>111</ele>
        <time>2018-10-09T14:01:11.106Z</time>
      </trkpt>
      <trkpt lat="48.1093" lon="1.33731">
        <ele>111</ele>
        <time>2018-10-09T14:01:12.106Z</time>
      </trkpt>
      <trkpt lat="48.10929" lon="1.33733">
        <ele>111</ele>
        <time>2018-10-09T14:01:13.106Z</time>
      </trkpt>
      <trkpt lat="48.10929" lon="1.33735">
        <ele>110</ele>
        <time>2018-10-09T14:01:14.106Z</time>
      </trkpt>
      <trkpt lat="48.10928" lon="1.33736">
        <ele>110</ele>
        <time>2018-10-09T14:01:15.106Z</time>
      </trkpt>
      <trkpt lat="48.10927" lon="1.33738">
        <ele>110</ele>
        <time>2018-10-09T14:01:16.106Z</time>
      </trkpt>
      <trkpt lat="48.10926" lon="1.3374">
        <ele>110</ele>
        <time>2018-10-09T14:01:17.106Z</time>
      </trkpt>
      <trkpt lat="48.10926" lon="1.33742">
        <ele>110</ele>
        <time>2018-10-09T14:01:18.106Z</time>
      </trkpt>
      <trkpt lat="48.10926" lon="1.33745">
        <ele>110</ele>
        <time>2018-10-09T14:01:19.106Z</time>
      </trkpt>
      <trkpt lat="48.10925" lon="1.33748">
        <ele>110</ele>
        <time>2018-10-09T14:01:20.106Z</time>
      </trkpt>
      <trkpt lat="48.10924" lon="1.33751">
        <ele>110</ele>
        <time>2018-10-09T14:01:21.106Z</time>
      </trkpt>
      <trkpt lat="48.10924" lon="1.33754">
        <ele>110</ele>
        <time>2018-10-09T14:01:22.106Z</time>
      </trkpt>
      <trkpt lat="48.10923" lon="1.33757">
        <ele>110</ele>
        <time>2018-10-09T14:01:23.106Z</time>
      </trkpt>
      <trkpt lat="48.10923" lon="1.33759">
        <ele>110</ele>
        <time>2018-10-09T14:01:24.106Z</time>
      </trkpt>
      <trkpt lat="48.10922" lon="1.33761">
        <ele>110</ele>
        <time>2018-10-09T14:01:25.106Z</time>
      </trkpt>
      <trkpt lat="48.10922" lon="1.33763">
        <ele>110</ele>
        <time>2018-10-09T14:01:26.106Z</time>
      </trkpt>
      <trkpt lat="48.10922" lon="1.33766">
        <ele>110</ele>
        <time>2018-10-09T14:01:27.106Z</time>
      </trkpt>
      <trkpt lat="48.10921" lon="1.33768">
        <ele>110</ele>
        <time>2018-10-09T14:01:28.106Z</time>
      </trkpt>
      <trkpt lat="48.10921" lon="1.3377">
        <ele>110</ele>
        <time>2018-10-09T14:01:29.106Z</time>
      </trkpt>
      <trkpt lat="48.10921" lon="1.33772">
        <ele>110</ele>
        <time>2018-10-09T14:01:30.106Z</time>
      </trkpt>
      <trkpt lat="48.10921" lon="1.33774">
        <ele>111</ele>
        <time>2018-10-09T14:01:31.106Z</time>
      </trkpt>
      <trkpt lat="48.10921" lon="1.33776">
        <ele>110</ele>
        <time>2018-10-09T14:01:32.106Z</time>
      </trkpt>
      <trkpt lat="48.10921" lon="1.33778">
        <ele>110</ele>
        <time>2018-10-09T14:01:33.106Z</time>
      </trkpt>
      <trkpt lat="48.10921" lon="1.3378">
        <ele>110</ele>
        <time>2018-10-09T14:01:34.106Z</time>
      </trkpt>
      <trkpt lat="48.10921" lon="1.33782">
        <ele>110</ele>
        <time>2018-10-09T14:01:35.106Z</time>
      </trkpt>
      <trkpt lat="48.10921" lon="1.33784">
        <ele>110</ele>
        <time>2018-10-09T14:01:36.106Z</time>
      </trkpt>
      <trkpt lat="48.10921" lon="1.33786">
        <ele>110</ele>
        <time>2018-10-09T14:01:37.106Z</time>
      </trkpt>
      <trkpt lat="48.10922" lon="1.33789">
        <ele>109</ele>
        <time>2018-10-09T14:01:38.106Z</time>
      </trkpt>
      <trkpt lat="48.10921" lon="1.33791">
        <ele>109</ele>
        <time>2018-10-09T14:01:39.106Z</time>
      </trkpt>
      <trkpt lat="48.10921" lon="1.33793">
        <ele>109</ele>
        <time>2018-10-09T14:01:40.106Z</time>
      </trkpt>
      <trkpt lat="48.10921" lon="1.33795">
        <ele>109</ele>
        <time>2018-10-09T14:01:41.106Z</time>
      </trkpt>
      <trkpt lat="48.10921" lon="1.33798">
        <ele>108</ele>
        <time>2018-10-09T14:01:42.106Z</time>
      </trkpt>
      <trkpt lat="48.10921" lon="1.338">
        <ele>108</ele>
        <time>2018-10-09T14:01:43.106Z</time>
      </trkpt>
      <trkpt lat="48.10921" lon="1.33802">
        <ele>108</ele>
        <time>2018-10-09T14:01:44.106Z</time>
      </trkpt>
      <trkpt lat="48.1092" lon="1.33804">
        <ele>108</ele>
        <time>2018-10-09T14:01:45.106Z</time>
      </trkpt>
      <trkpt lat="48.1092" lon="1.33805">
        <ele>109</ele>
        <time>2018-10-09T14:01:46.106Z</time>
      </trkpt>
      <trkpt lat="48.1092" lon="1.33807">
        <ele>109</ele>
        <time>2018-10-09T14:01:47.106Z</time>
      </trkpt>
      <trkpt lat="48.1092" lon="1.33809">
        <ele>108</ele>
        <time>2018-10-09T14:01:48.106Z</time>
      </trkpt>
      <trkpt lat="48.1092" lon="1.33811">
        <ele>109</ele>
        <time>2018-10-09T14:01:49.106Z</time>
      </trkpt>
      <trkpt lat="48.1092" lon="1.33813">
        <ele>109</ele>
        <time>2018-10-09T14:01:50.106Z</time>
      </trkpt>
      <trkpt lat="48.1092" lon="1.33815">
        <ele>109</ele>
        <time>2018-10-09T14:01:51.106Z</time>
      </trkpt>
      <trkpt lat="48.10919" lon="1.33817">
        <ele>109</ele>
        <time>2018-10-09T14:01:52.106Z</time>
      </trkpt>
      <trkpt lat="48.1092" lon="1.33819">
        <ele>109</ele>
        <time>2018-10-09T14:01:53.106Z</time>
      </trkpt>
      <trkpt lat="48.1092" lon="1.33821">
        <ele>109</ele>
        <time>2018-10-09T14:01:54.106Z</time>
      </trkpt>
      <trkpt lat="48.10919" lon="1.33823">
        <ele>110</ele>
        <time>2018-10-09T14:01:55.106Z</time>
      </trkpt>
      <trkpt lat="48.10919" lon="1.33825">
        <ele>110</ele>
        <time>2018-10-09T14:01:56.106Z</time>
      </trkpt>
      <trkpt lat="48.10919" lon="1.33827">
        <ele>111</ele>
        <time>2018-10-09T14:01:57.106Z</time>
      </trkpt>
      <trkpt lat="48.10919" lon="1.3383">
        <ele>110</ele>
        <time>2018-10-09T14:01:58.106Z</time>
      </trkpt>
      <trkpt lat="48.10918" lon="1.33832">
        <ele>111</ele>
        <time>2018-10-09T14:01:59.106Z</time>
      </trkpt>
      <trkpt lat="48.10918" lon="1.33834">
        <ele>111</ele>
        <time>2018-10-09T14:02:00.106Z</time>
      </trkpt>
      <trkpt lat="48.10918" lon="1.33835">
        <ele>110</ele>
        <time>2018-10-09T14:02:01.106Z</time>
      </trkpt>
      <trkpt lat="48.10917" lon="1.33837">
        <ele>109</ele>
        <time>2018-10-09T14:02:02.106Z</time>
      </trkpt>
      <trkpt lat="48.10917" lon="1.33839">
        <ele>109</ele>
        <time>2018-10-09T14:02:03.106Z</time>
      </trkpt>
      <trkpt lat="48.10917" lon="1.33841">
        <ele>109</ele>
        <time>2018-10-09T14:02:04.106Z</time>
      </trkpt>
      <trkpt lat="48.10916" lon="1.33842">
        <ele>110</ele>
        <time>2018-10-09T14:02:05.106Z</time>
      </trkpt>
      <trkpt lat="48.10916" lon="1.33844">
        <ele>110</ele>
        <time>2018-10-09T14:02:06.106Z</time>
      </trkpt>
      <trkpt lat="48.10915" lon="1.33846">
        <ele>109</ele>
        <time>2018-10-09T14:02:07.106Z</time>
      </trkpt>
      <trkpt lat="48.10915" lon="1.33848">
        <ele>109</ele>
        <time>2018-10-09T14:02:08.106Z</time>
      </trkpt>
      <trkpt lat="48.10915" lon="1.3385">
        <ele>109</ele>
        <time>2018-10-09T14:02:09.106Z</time>
      </trkpt>
      <trkpt lat="48.10915" lon="1.33852">
        <ele>108</ele>
        <time>2018-10-09T14:02:10.106Z</time>
      </trkpt>
      <trkpt lat="48.10915" lon="1.33854">
        <ele>109</ele>
        <time>2018-10-09T14:02:11.106Z</time>
      </trkpt>
      <trkpt lat="48.10914" lon="1.33856">
        <ele>109</ele>
        <time>2018-10-09T14:02:12.106Z</time>
      </trkpt>
      <trkpt lat="48.10914" lon="1.33858">
        <ele>109</ele>
        <time>2018-10-09T14:02:13.106Z</time>
      </trkpt>
      <trkpt lat="48.10913" lon="1.3386">
        <ele>109</ele>
        <time>2018-10-09T14:02:14.106Z</time>
      </trkpt>
      <trkpt lat="48.10913" lon="1.33862">
        <ele>109</ele>
        <time>2018-10-09T14:02:15.106Z</time>
      </trkpt>
      <trkpt lat="48.10912" lon="1.33865">
        <ele>109</ele>
        <time>2018-10-09T14:02:16.106Z</time>
      </trkpt>
      <trkpt lat="48.10912" lon="1.33867">
        <ele>109</ele>
        <time>2018-10-09T14:02:17.106Z</time>
      </trkpt>
      <trkpt lat="48.10911" lon="1.33869">
        <ele>109</ele>
        <time>2018-10-09T14:02:18.106Z</time>
      </trkpt>
      <trkpt lat="48.10911" lon="1.33871">
        <ele>109</ele>
        <time>2018-10-09T14:02:19.106Z</time>
      </trkpt>
      <trkpt lat="48.1091" lon="1.33872">
        <ele>109</ele>
        <time>2018-10-09T14:02:20.106Z</time>
      </trkpt>
      <trkpt lat="48.1091" lon="1.33874">
        <ele>109</ele>
        <time>2018-10-09T14:02:21.106Z</time>
      </trkpt>
      <trkpt lat="48.1091" lon="1.33876">
        <ele>110</ele>
        <time>2018-10-09T14:02:22.106Z</time>
      </trkpt>
      <trkpt lat="48.1091" lon="1.33878">
        <ele>112</ele>
        <time>2018-10-09T14:02:23.106Z</time>
      </trkpt>
      <trkpt lat="48.10909" lon="1.3388">
        <ele>110</ele>
        <time>2018-10-09T14:02:24.106Z</time>
      </trkpt>
      <trkpt lat="48.10908" lon="1.33882">
        <ele>109</ele>
        <time>2018-10-09T14:02:25.106Z</time>
      </trkpt>
      <trkpt lat="48.10907" lon="1.33884">
        <ele>109</ele>
        <time>2018-10-09T14:02:26.106Z</time>
      </trkpt>
      <trkpt lat="48.10907" lon="1.33886">
        <ele>109</ele>
        <time>2018-10-09T14:02:27.106Z</time>
      </trkpt>
      <trkpt lat="48.10906" lon="1.33889">
        <ele>109</ele>
        <time>2018-10-09T14:02:28.106Z</time>
      </trkpt>
      <trkpt lat="48.10905" lon="1.33891">
        <ele>109</ele>
        <time>2018-10-09T14:02:29.106Z</time>
      </trkpt>
      <trkpt lat="48.10905" lon="1.33893">
        <ele>109</ele>
        <time>2018-10-09T14:02:30.106Z</time>
      </trkpt>
      <trkpt lat="48.10904" lon="1.33895">
        <ele>109</ele>
        <time>2018-10-09T14:02:31.106Z</time>
      </trkpt>
      <trkpt lat="48.10904" lon="1.33896">
        <ele>108</ele>
        <time>2018-10-09T14:02:32.106Z</time>
      </trkpt>
      <trkpt lat="48.10903" lon="1.33898">
        <ele>107</ele>
        <time>2018-10-09T14:02:33.106Z</time>
      </trkpt>
      <trkpt lat="48.10902" lon="1.339">
        <ele>107</ele>
        <time>2018-10-09T14:02:34.106Z</time>
      </trkpt>
      <trkpt lat="48.10902" lon="1.33902">
        <ele>107</ele>
        <time>2018-10-09T14:02:35.106Z</time>
      </trkpt>
      <trkpt lat="48.10901" lon="1.33904">
        <ele>107</ele>
        <time>2018-10-09T14:02:36.106Z</time>
      </trkpt>
      <trkpt lat="48.10901" lon="1.33905">
        <ele>108</ele>
        <time>2018-10-09T14:02:37.106Z</time>
      </trkpt>
      <trkpt lat="48.109" lon="1.33907">
        <ele>107</ele>
        <time>2018-10-09T14:02:38.106Z</time>
      </trkpt>
      <trkpt lat="48.109" lon="1.33909">
        <ele>107</ele>
        <time>2018-10-09T14:02:39.106Z</time>
      </trkpt>
      <trkpt lat="48.109" lon="1.3391">
        <ele>107</ele>
        <time>2018-10-09T14:02:40.106Z</time>
      </trkpt>
      <trkpt lat="48.10899" lon="1.33912">
        <ele>108</ele>
        <time>2018-10-09T14:02:41.106Z</time>
      </trkpt>
      <trkpt lat="48.10899" lon="1.33914">
        <ele>108</ele>
        <time>2018-10-09T14:02:42.106Z</time>
      </trkpt>
      <trkpt lat="48.10899" lon="1.33916">
        <ele>108</ele>
        <time>2018-10-09T14:02:43.106Z</time>
      </trkpt>
      <trkpt lat="48.10899" lon="1.33918">
        <ele>108</ele>
        <time>2018-10-09T14:02:44.106Z</time>
      </trkpt>
      <trkpt lat="48.10899" lon="1.3392">
        <ele>109</ele>
        <time>2018-10-09T14:02:45.106Z</time>
      </trkpt>
      <trkpt lat="48.10898" lon="1.33922">
        <ele>108</ele>
        <time>2018-10-09T14:02:46.106Z</time>
      </trkpt>
      <trkpt lat="48.10898" lon="1.33924">
        <ele>108</ele>
        <time>2018-10-09T14:02:47.106Z</time>
      </trkpt>
      <trkpt lat="48.10898" lon="1.33926">
        <ele>109</ele>
        <time>2018-10-09T14:02:48.106Z</time>
      </trkpt>
      <trkpt lat="48.10898" lon="1.33928">
        <ele>109</ele>
        <time>2018-10-09T14:02:49.106Z</time>
      </trkpt>
      <trkpt lat="48.10898" lon="1.3393">
        <ele>109</ele>
        <time>2018-10-09T14:02:50.106Z</time>
      </trkpt>
      <trkpt lat="48.10898" lon="1.33932">
        <ele>110</ele>
        <time>2018-10-09T14:02:51.106Z</time>
      </trkpt>
      <trkpt lat="48.10898" lon="1.33935">
        <ele>109</ele>
        <time>2018-10-09T14:02:52.106Z</time>
      </trkpt>
      <trkpt lat="48.10898" lon="1.33937">
        <ele>109</ele>
        <time>2018-10-09T14:02:53.106Z</time>
      </trkpt>
      <trkpt lat="48.10898" lon="1.33939">
        <ele>109</ele>
        <time>2018-10-09T14:02:54.106Z</time>
      </trkpt>
      <trkpt lat="48.10898" lon="1.33941">
        <ele>109</ele>
        <time>2018-10-09T14:02:55.106Z</time>
      </trkpt>
      <trkpt lat="48.10897" lon="1.33943">
        <ele>109</ele>
        <time>2018-10-09T14:02:56.106Z</time>
      </trkpt>
      <trkpt lat="48.10897" lon="1.33945">
        <ele>109</ele>
        <time>2018-10-09T14:02:57.106Z</time>
      </trkpt>
      <trkpt lat="48.10896" lon="1.33947">
        <ele>110</ele>
        <time>2018-10-09T14:02:58.106Z</time>
      </trkpt>
      <trkpt lat="48.10896" lon="1.33949">
        <ele>111</ele>
        <time>2018-10-09T14:02:59.106Z</time>
      </trkpt>
      <trkpt lat="48.10897" lon="1.33951">
        <ele>112</ele>
        <time>2018-10-09T14:03:00.106Z</time>
      </trkpt>
      <trkpt lat="48.10897" lon="1.33953">
        <ele>113</ele>
        <time>2018-10-09T14:03:01.106Z</time>
      </trkpt>
      <trkpt lat="48.10897" lon="1.33956">
        <ele>113</ele>
        <time>2018-10-09T14:03:02.106Z</time>
      </trkpt>
      <trkpt lat="48.10897" lon="1.33957">
        <ele>112</ele>
        <time>2018-10-09T14:03:03.106Z</time>
      </trkpt>
      <trkpt lat="48.10897" lon="1.33959">
        <ele>113</ele>
        <time>2018-10-09T14:03:04.106Z</time>
      </trkpt>
      <trkpt lat="48.10897" lon="1.33961">
        <ele>113</ele>
        <time>2018-10-09T14:03:05.106Z</time>
      </trkpt>
      <trkpt lat="48.10897" lon="1.33963">
        <ele>114</ele>
        <time>2018-10-09T14:03:06.106Z</time>
      </trkpt>
      <trkpt lat="48.10898" lon="1.33965">
        <ele>114</ele>
        <time>2018-10-09T14:03:07.106Z</time>
      </trkpt>
      <trkpt lat="48.10897" lon="1.33967">
        <ele>114</ele>
        <time>2018-10-09T14:03:08.106Z</time>
      </trkpt>
      <trkpt lat="48.10896" lon="1.3397">
        <ele>114</ele>
        <time>2018-10-09T14:03:09.106Z</time>
      </trkpt>
      <trkpt lat="48.10895" lon="1.33974">
        <ele>114</ele>
        <time>2018-10-09T14:03:10.106Z</time>
      </trkpt>
      <trkpt lat="48.10895" lon="1.33977">
        <ele>114</ele>
        <time>2018-10-09T14:03:11.106Z</time>
      </trkpt>
      <trkpt lat="48.10895" lon="1.33979">
        <ele>114</ele>
        <time>2018-10-09T14:03:12.106Z</time>
      </trkpt>
      <trkpt lat="48.10894" lon="1.33981">
        <ele>114</ele>
        <time>2018-10-09T14:03:13.106Z</time>
      </trkpt>
      <trkpt lat="48.10895" lon="1.33983">
        <ele>114</ele>
        <time>2018-10-09T14:03:14.106Z</time>
      </trkpt>
      <trkpt lat="48.10895" lon="1.33985">
        <ele>114</ele>
        <time>2018-10-09T14:03:15.106Z</time>
      </trkpt>
      <trkpt lat="48.10895" lon="1.33987">
        <ele>114</ele>
        <time>2018-10-09T14:03:16.106Z</time>
      </trkpt>
      <trkpt lat="48.10896" lon="1.33988">
        <ele>114</ele>
        <time>2018-10-09T14:03:17.106Z</time>
      </trkpt>
      <trkpt lat="48.10896" lon="1.3399">
        <ele>115</ele>
        <time>2018-10-09T14:03:18.106Z</time>
      </trkpt>
      <trkpt lat="48.10896" lon="1.33992">
        <ele>116</ele>
        <time>2018-10-09T14:03:19.106Z</time>
      </trkpt>
      <trkpt lat="48.10896" lon="1.33994">
        <ele>116</ele>
        <time>2018-10-09T14:03:20.106Z</time>
      </trkpt>
      <trkpt lat="48.10896" lon="1.33997">
        <ele>116</ele>
        <time>2018-10-09T14:03:21.106Z</time>
      </trkpt>
      <trkpt lat="48.10896" lon="1.33999">
        <ele>117</ele>
        <time>2018-10-09T14:03:22.106Z</time>
      </trkpt>
      <trkpt lat="48.10896" lon="1.34001">
        <ele>116</ele>
        <time>2018-10-09T14:03:23.106Z</time>
      </trkpt>
      <trkpt lat="48.10896" lon="1.34003">
        <ele>116</ele>
        <time>2018-10-09T14:03:24.106Z</time>
      </trkpt>
      <trkpt lat="48.10895" lon="1.34006">
        <ele>116</ele>
        <time>2018-10-09T14:03:25.106Z</time>
      </trkpt>
      <trkpt lat="48.10895" lon="1.34008">
        <ele>116</ele>
        <time>2018-10-09T14:03:26.106Z</time>
      </trkpt>
      <trkpt lat="48.10894" lon="1.3401">
        <ele>115</ele>
        <time>2018-10-09T14:03:27.106Z</time>
      </trkpt>
      <trkpt lat="48.10893" lon="1.34012">
        <ele>115</ele>
        <time>2018-10-09T14:03:28.106Z</time>
      </trkpt>
      <trkpt lat="48.10893" lon="1.34015">
        <ele>116</ele>
        <time>2018-10-09T14:03:29.106Z</time>
      </trkpt>
      <trkpt lat="48.10894" lon="1.34017">
        <ele>116</ele>
        <time>2018-10-09T14:03:30.106Z</time>
      </trkpt>
      <trkpt lat="48.10894" lon="1.34019">
        <ele>117</ele>
        <time>2018-10-09T14:03:31.106Z</time>
      </trkpt>
      <trkpt lat="48.10894" lon="1.34021">
        <ele>119</ele>
        <time>2018-10-09T14:03:32.106Z</time>
      </trkpt>
      <trkpt lat="48.10894" lon="1.34023">
        <ele>119</ele>
        <time>2018-10-09T14:03:33.106Z</time>
      </trkpt>
      <trkpt lat="48.10894" lon="1.34025">
        <ele>120</ele>
        <time>2018-10-09T14:03:34.106Z</time>
      </trkpt>
      <trkpt lat="48.10894" lon="1.34027">
        <ele>119</ele>
        <time>2018-10-09T14:03:35.106Z</time>
      </trkpt>
      <trkpt lat="48.10893" lon="1.3403">
        <ele>119</ele>
        <time>2018-10-09T14:03:36.106Z</time>
      </trkpt>
      <trkpt lat="48.10893" lon="1.34032">
        <ele>120</ele>
        <time>2018-10-09T14:03:37.106Z</time>
      </trkpt>
      <trkpt lat="48.10893" lon="1.34034">
        <ele>121</ele>
        <time>2018-10-09T14:03:38.106Z</time>
      </trkpt>
      <trkpt lat="48.10894" lon="1.34036">
        <ele>121</ele>
        <time>2018-10-09T14:03:39.106Z</time>
      </trkpt>
      <trkpt lat="48.10893" lon="1.34038">
        <ele>121</ele>
        <time>2018-10-09T14:03:40.106Z</time>
      </trkpt>
      <trkpt lat="48.10893" lon="1.34039">
        <ele>121</ele>
        <time>2018-10-09T14:03:41.106Z</time>
      </trkpt>
      <trkpt lat="48.10893" lon="1.34041">
        <ele>121</ele>
        <time>2018-10-09T14:03:42.106Z</time>
      </trkpt>
      <trkpt lat="48.10893" lon="1.34043">
        <ele>121</ele>
        <time>2018-10-09T14:03:43.106Z</time>
      </trkpt>
      <trkpt lat="48.10892" lon="1.34045">
        <ele>121</ele>
        <time>2018-10-09T14:03:44.106Z</time>
      </trkpt>
      <trkpt lat="48.10891" lon="1.34047">
        <ele>121</ele>
        <time>2018-10-09T14:03:45.106Z</time>
      </trkpt>
      <trkpt lat="48.10891" lon="1.34049">
        <ele>122</ele>
        <time>2018-10-09T14:03:46.106Z</time>
      </trkpt>
      <trkpt lat="48.10891" lon="1.34051">
        <ele>122</ele>
        <time>2018-10-09T14:03:47.106Z</time>
      </trkpt>
      <trkpt lat="48.10891" lon="1.34053">
        <ele>122</ele>
        <time>2018-10-09T14:03:48.106Z</time>
      </trkpt>
      <trkpt lat="48.1089" lon="1.34055">
        <ele>122</ele>
        <time>2018-10-09T14:03:49.106Z</time>
      </trkpt>
      <trkpt lat="48.10889" lon="1.34058">
        <ele>122</ele>
        <time>2018-10-09T14:03:50.106Z</time>
      </trkpt>
      <trkpt lat="48.10889" lon="1.3406">
        <ele>123</ele>
        <time>2018-10-09T14:03:51.106Z</time>
      </trkpt>
      <trkpt lat="48.10889" lon="1.34062">
        <ele>123</ele>
        <time>2018-10-09T14:03:52.106Z</time>
      </trkpt>
      <trkpt lat="48.10889" lon="1.34065">
        <ele>123</ele>
        <time>2018-10-09T14:03:53.106Z</time>
      </trkpt>
      <trkpt lat="48.10888" lon="1.34067">
        <ele>122</ele>
        <time>2018-10-09T14:03:54.106Z</time>
      </trkpt>
      <trkpt lat="48.10887" lon="1.34069">
        <ele>122</ele>
        <time>2018-10-09T14:03:55.106Z</time>
      </trkpt>
      <trkpt lat="48.10887" lon="1.34071">
        <ele>122</ele>
        <time>2018-10-09T14:03:56.106Z</time>
      </trkpt>
      <trkpt lat="48.10887" lon="1.34073">
        <ele>122</ele>
        <time>2018-10-09T14:03:57.106Z</time>
      </trkpt>
      <trkpt lat="48.10887" lon="1.34075">
        <ele>123</ele>
        <time>2018-10-09T14:03:58.106Z</time>
      </trkpt>
      <trkpt lat="48.10886" lon="1.34076">
        <ele>123</ele>
        <time>2018-10-09T14:03:59.106Z</time>
      </trkpt>
      <trkpt lat="48.10886" lon="1.34078">
        <ele>123</ele>
        <time>2018-10-09T14:04:00.106Z</time>
      </trkpt>
      <trkpt lat="48.10886" lon="1.3408">
        <ele>123</ele>
        <time>2018-10-09T14:04:01.106Z</time>
      </trkpt>
      <trkpt lat="48.10886" lon="1.34082">
        <ele>123</ele>
        <time>2018-10-09T14:04:02.106Z</time>
      </trkpt>
      <trkpt lat="48.10885" lon="1.34084">
        <ele>122</ele>
        <time>2018-10-09T14:04:03.106Z</time>
      </trkpt>
      <trkpt lat="48.10885" lon="1.34086">
        <ele>122</ele>
        <time>2018-10-09T14:04:04.106Z</time>
      </trkpt>
      <trkpt lat="48.10885" lon="1.34088">
        <ele>122</ele>
        <time>2018-10-09T14:04:05.106Z</time>
      </trkpt>
      <trkpt lat="48.10885" lon="1.3409">
        <ele>123</ele>
        <time>2018-10-09T14:04:06.106Z</time>
      </trkpt>
      <trkpt lat="48.10885" lon="1.34092">
        <ele>122</ele>
        <time>2018-10-09T14:04:07.106Z</time>
      </trkpt>
      <trkpt lat="48.10886" lon="1.34093">
        <ele>122</ele>
        <time>2018-10-09T14:04:08.106Z</time>
      </trkpt>
      <trkpt lat="48.10886" lon="1.34095">
        <ele>121</ele>
        <time>2018-10-09T14:04:09.106Z</time>
      </trkpt>
      <trkpt lat="48.10885" lon="1.34097">
        <ele>121</ele>
        <time>2018-10-09T14:04:10.106Z</time>
      </trkpt>
      <trkpt lat="48.10884" lon="1.34099">
        <ele>121</ele>
        <time>2018-10-09T14:04:11.106Z</time>
      </trkpt>
      <trkpt lat="48.10884" lon="1.34101">
        <ele>120</ele>
        <time>2018-10-09T14:04:12.106Z</time>
      </trkpt>
      <trkpt lat="48.10884" lon="1.34103">
        <ele>120</ele>
        <time>2018-10-09T14:04:13.106Z</time>
      </trkpt>
      <trkpt lat="48.10883" lon="1.34104">
        <ele>119</ele>
        <time>2018-10-09T14:04:14.106Z</time>
      </trkpt>
      <trkpt lat="48.10883" lon="1.34107">
        <ele>119</ele>
        <time>2018-10-09T14:04:15.106Z</time>
      </trkpt>
      <trkpt lat="48.10883" lon="1.34109">
        <ele>120</ele>
        <time>2018-10-09T14:04:16.106Z</time>
      </trkpt>
      <trkpt lat="48.10883" lon="1.34111">
        <ele>120</ele>
        <time>2018-10-09T14:04:17.106Z</time>
      </trkpt>
      <trkpt lat="48.10882" lon="1.34113">
        <ele>120</ele>
        <time>2018-10-09T14:04:18.106Z</time>
      </trkpt>
      <trkpt lat="48.10882" lon="1.34115">
        <ele>121</ele>
        <time>2018-10-09T14:04:19.106Z</time>
      </trkpt>
      <trkpt lat="48.10882" lon="1.34116">
        <ele>120</ele>
        <time>2018-10-09T14:04:20.106Z</time>
      </trkpt>
      <trkpt lat="48.10882" lon="1.34118">
        <ele>121</ele>
        <time>2018-10-09T14:04:21.106Z</time>
      </trkpt>
      <trkpt lat="48.10882" lon="1.3412">
        <ele>122</ele>
        <time>2018-10-09T14:04:22.106Z</time>
      </trkpt>
      <trkpt lat="48.10881" lon="1.34122">
        <ele>122</ele>
        <time>2018-10-09T14:04:23.106Z</time>
      </trkpt>
      <trkpt lat="48.10881" lon="1.34125">
        <ele>123</ele>
        <time>2018-10-09T14:04:24.106Z</time>
      </trkpt>
      <trkpt lat="48.10881" lon="1.34127">
        <ele>123</ele>
        <time>2018-10-09T14:04:25.106Z</time>
      </trkpt>
      <trkpt lat="48.10881" lon="1.34129">
        <ele>123</ele>
        <time>2018-10-09T14:04:26.106Z</time>
      </trkpt>
      <trkpt lat="48.10881" lon="1.34131">
        <ele>123</ele>
        <time>2018-10-09T14:04:27.106Z</time>
      </trkpt>
      <trkpt lat="48.10881" lon="1.34133">
        <ele>123</ele>
        <time>2018-10-09T14:04:28.106Z</time>
      </trkpt>
      <trkpt lat="48.1088" lon="1.34136">
        <ele>122</ele>
        <time>2018-10-09T14:04:29.106Z</time>
      </trkpt>
      <trkpt lat="48.10879" lon="1.34138">
        <ele>121</ele>
        <time>2018-10-09T14:04:30.106Z</time>
      </trkpt>
      <trkpt lat="48.10879" lon="1.34141">
        <ele>121</ele>
        <time>2018-10-09T14:04:31.106Z</time>
      </trkpt>
      <trkpt lat="48.10878" lon="1.34143">
        <ele>120</ele>
        <time>2018-10-09T14:04:32.106Z</time>
      </trkpt>
      <trkpt lat="48.10877" lon="1.34145">
        <ele>119</ele>
        <time>2018-10-09T14:04:33.106Z</time>
      </trkpt>
      <trkpt lat="48.10876" lon="1.34148">
        <ele>119</ele>
        <time>2018-10-09T14:04:34.106Z</time>
      </trkpt>
      <trkpt lat="48.10875" lon="1.34151">
        <ele>120</ele>
        <time>2018-10-09T14:04:35.106Z</time>
      </trkpt>
      <trkpt lat="48.10875" lon="1.34153">
        <ele>120</ele>
        <time>2018-10-09T14:04:36.106Z</time>
      </trkpt>
      <trkpt lat="48.10874" lon="1.34155">
        <ele>120</ele>
        <time>2018-10-09T14:04:37.106Z</time>
      </trkpt>
      <trkpt lat="48.10874" lon="1.34157">
        <ele>120</ele>
        <time>2018-10-09T14:04:38.106Z</time>
      </trkpt>
      <trkpt lat="48.10874" lon="1.3416">
        <ele>120</ele>
        <time>2018-10-09T14:04:39.106Z</time>
      </trkpt>
      <trkpt lat="48.10873" lon="1.34162">
        <ele>120</ele>
        <time>2018-10-09T14:04:40.106Z</time>
      </trkpt>
      <trkpt lat="48.10872" lon="1.34165">
        <ele>119</ele>
        <time>2018-10-09T14:04:41.106Z</time>
      </trkpt>
      <trkpt lat="48.10871" lon="1.34168">
        <ele>118</ele>
        <time>2018-10-09T14:04:42.106Z</time>
      </trkpt>
      <trkpt lat="48.10869" lon="1.34171">
        <ele>118</ele>
        <time>2018-10-09T14:04:43.106Z</time>
      </trkpt>
      <trkpt lat="48.10868" lon="1.34173">
        <ele>118</ele>
        <time>2018-10-09T14:04:44.106Z</time>
      </trkpt>
      <trkpt lat="48.10868" lon="1.34176">
        <ele>118</ele>
        <time>2018-10-09T14:04:45.106Z</time>
      </trkpt>
      <trkpt lat="48.10867" lon="1.34178">
        <ele>118</ele>
        <time>2018-10-09T14:04:46.106Z</time>
      </trkpt>
      <trkpt lat="48.10867" lon="1.3418">
        <ele>118</ele>
        <time>2018-10-09T14:04:47.106Z</time>
      </trkpt>
      <trkpt lat="48.10866" lon="1.34183">
        <ele>118</ele>
        <time>2018-10-09T14:04:48.106Z</time>
      </trkpt>
      <trkpt lat="48.10866" lon="1.34185">
        <ele>117</ele>
        <time>2018-10-09T14:04:49.106Z</time>
      </trkpt>
      <trkpt lat="48.10865" lon="1.34187">
        <ele>117</ele>
        <time>2018-10-09T14:04:50.106Z</time>
      </trkpt>
      <trkpt lat="48.10864" lon="1.3419">
        <ele>117</ele>
        <time>2018-10-09T14:04:51.106Z</time>
      </trkpt>
      <trkpt lat="48.10864" lon="1.34192">
        <ele>115</ele>
        <time>2018-10-09T14:04:52.106Z</time>
      </trkpt>
      <trkpt lat="48.10864" lon="1.34194">
        <ele>114</ele>
        <time>2018-10-09T14:04:53.106Z</time>
      </trkpt>
      <trkpt lat="48.10864" lon="1.34196">
        <ele>114</ele>
        <time>2018-10-09T14:04:54.106Z</time>
      </trkpt>
      <trkpt lat="48.10863" lon="1.34198">
        <ele>114</ele>
        <time>2018-10-09T14:04:55.106Z</time>
      </trkpt>
      <trkpt lat="48.10863" lon="1.342">
        <ele>114</ele>
        <time>2018-10-09T14:04:56.106Z</time>
      </trkpt>
      <trkpt lat="48.10863" lon="1.34202">
        <ele>114</ele>
        <time>2018-10-09T14:04:57.106Z</time>
      </trkpt>
      <trkpt lat="48.10863" lon="1.34204">
        <ele>114</ele>
        <time>2018-10-09T14:04:58.106Z</time>
      </trkpt>
      <trkpt lat="48.10862" lon="1.34206">
        <ele>114</ele>
        <time>2018-10-09T14:04:59.106Z</time>
      </trkpt>
      <trkpt lat="48.10862" lon="1.34208">
        <ele>114</ele>
        <time>2018-10-09T14:05:00.106Z</time>
      </trkpt>
      <trkpt lat="48.10862" lon="1.3421">
        <ele>113</ele>
        <time>2018-10-09T14:05:01.106Z</time>
      </trkpt>
      <trkpt lat="48.10862" lon="1.34212">
        <ele>113</ele>
        <time>2018-10-09T14:05:02.106Z</time>
      </trkpt>
      <trkpt lat="48.10862" lon="1.34214">
        <ele>113</ele>
        <time>2018-10-09T14:05:03.106Z</time>
      </trkpt>
      <trkpt lat="48.10861" lon="1.34216">
        <ele>113</ele>
        <time>2018-10-09T14:05:04.106Z</time>
      </trkpt>
      <trkpt lat="48.10861" lon="1.34218">
        <ele>111</ele>
        <time>2018-10-09T14:05:05.106Z</time>
      </trkpt>
      <trkpt lat="48.10861" lon="1.3422">
        <ele>110</ele>
        <time>2018-10-09T14:05:06.106Z</time>
      </trkpt>
      <trkpt lat="48.1086" lon="1.34222">
        <ele>110</ele>
        <time>2018-10-09T14:05:07.106Z</time>
      </trkpt>
      <trkpt lat="48.1086" lon="1.34224">
        <ele>110</ele>
        <time>2018-10-09T14:05:08.106Z</time>
      </trkpt>
      <trkpt lat="48.1086" lon="1.34226">
        <ele>110</ele>
        <time>2018-10-09T14:05:09.106Z</time>
      </trkpt>
      <trkpt lat="48.1086" lon="1.34228">
        <ele>110</ele>
        <time>2018-10-09T14:05:10.106Z</time>
      </trkpt>
      <trkpt lat="48.10859" lon="1.3423">
        <ele>110</ele>
        <time>2018-10-09T14:05:11.106Z</time>
      </trkpt>
      <trkpt lat="48.10859" lon="1.34232">
        <ele>110</ele>
        <time>2018-10-09T14:05:12.106Z</time>
      </trkpt>
      <trkpt lat="48.10858" lon="1.34234">
        <ele>110</ele>
        <time>2018-10-09T14:05:13.106Z</time>
      </trkpt>
      <trkpt lat="48.10858" lon="1.34236">
        <ele>110</ele>
        <time>2018-10-09T14:05:14.106Z</time>
      </trkpt>
      <trkpt lat="48.10858" lon="1.34238">
        <ele>112</ele>
        <time>2018-10-09T14:05:15.106Z</time>
      </trkpt>
      <trkpt lat="48.10857" lon="1.3424">
        <ele>111</ele>
        <time>2018-10-09T14:05:16.106Z</time>
      </trkpt>
      <trkpt lat="48.10857" lon="1.34242">
        <ele>112</ele>
        <time>2018-10-09T14:05:17.106Z</time>
      </trkpt>
      <trkpt lat="48.10857" lon="1.34244">
        <ele>111</ele>
        <time>2018-10-09T14:05:18.106Z</time>
      </trkpt>
      <trkpt lat="48.10857" lon="1.34246">
        <ele>111</ele>
        <time>2018-10-09T14:05:19.106Z</time>
      </trkpt>
      <trkpt lat="48.10857" lon="1.34247">
        <ele>111</ele>
        <time>2018-10-09T14:05:20.106Z</time>
      </trkpt>
      <trkpt lat="48.10857" lon="1.34249">
        <ele>112</ele>
        <time>2018-10-09T14:05:21.106Z</time>
      </trkpt>
      <trkpt lat="48.10857" lon="1.3425">
        <ele>112</ele>
        <time>2018-10-09T14:05:22.106Z</time>
      </trkpt>
      <trkpt lat="48.10856" lon="1.34252">
        <ele>112</ele>
        <time>2018-10-09T14:05:23.106Z</time>
      </trkpt>
      <trkpt lat="48.10856" lon="1.34254">
        <ele>112</ele>
        <time>2018-10-09T14:05:24.106Z</time>
      </trkpt>
      <trkpt lat="48.10856" lon="1.34256">
        <ele>112</ele>
        <time>2018-10-09T14:05:25.106Z</time>
      </trkpt>
      <trkpt lat="48.10856" lon="1.34258">
        <ele>112</ele>
        <time>2018-10-09T14:05:26.106Z</time>
      </trkpt>
      <trkpt lat="48.10856" lon="1.3426">
        <ele>111</ele>
        <time>2018-10-09T14:05:27.106Z</time>
      </trkpt>
      <trkpt lat="48.10855" lon="1.34261">
        <ele>112</ele>
        <time>2018-10-09T14:05:28.106Z</time>
      </trkpt>
      <trkpt lat="48.10855" lon="1.34264">
        <ele>112</ele>
        <time>2018-10-09T14:05:29.106Z</time>
      </trkpt>
      <trkpt lat="48.10855" lon="1.34266">
        <ele>112</ele>
        <time>2018-10-09T14:05:30.106Z</time>
      </trkpt>
      <trkpt lat="48.10855" lon="1.34268">
        <ele>111</ele>
        <time>2018-10-09T14:05:31.106Z</time>
      </trkpt>
      <trkpt lat="48.10854" lon="1.3427">
        <ele>111</ele>
        <time>2018-10-09T14:05:32.106Z</time>
      </trkpt>
      <trkpt lat="48.10854" lon="1.34272">
        <ele>110</ele>
        <time>2018-10-09T14:05:33.106Z</time>
      </trkpt>
      <trkpt lat="48.10853" lon="1.34274">
        <ele>110</ele>
        <time>2018-10-09T14:05:34.106Z</time>
      </trkpt>
      <trkpt lat="48.10853" lon="1.34276">
        <ele>109</ele>
        <time>2018-10-09T14:05:35.106Z</time>
      </trkpt>
      <trkpt lat="48.10852" lon="1.34279">
        <ele>109</ele>
        <time>2018-10-09T14:05:36.106Z</time>
      </trkpt>
      <trkpt lat="48.10851" lon="1.34281">
        <ele>109</ele>
        <time>2018-10-09T14:05:37.106Z</time>
      </trkpt>
      <trkpt lat="48.10851" lon="1.34283">
        <ele>110</ele>
        <time>2018-10-09T14:05:38.106Z</time>
      </trkpt>
      <trkpt lat="48.10851" lon="1.34285">
        <ele>110</ele>
        <time>2018-10-09T14:05:39.106Z</time>
      </trkpt>
      <trkpt lat="48.1085" lon="1.34287">
        <ele>110</ele>
        <time>2018-10-09T14:05:40.106Z</time>
      </trkpt>
      <trkpt lat="48.1085" lon="1.34289">
        <ele>110</ele>
        <time>2018-10-09T14:05:41.106Z</time>
      </trkpt>
      <trkpt lat="48.10849" lon="1.34291">
        <ele>110</ele>
        <time>2018-10-09T14:05:42.106Z</time>
      </trkpt>
      <trkpt lat="48.10849" lon="1.34293">
        <ele>110</ele>
        <time>2018-10-09T14:05:43.106Z</time>
      </trkpt>
      <trkpt lat="48.10849" lon="1.34295">
        <ele>110</ele>
        <time>2018-10-09T14:05:44.106Z</time>
      </trkpt>
      <trkpt lat="48.10848" lon="1.34297">
        <ele>110</ele>
        <time>2018-10-09T14:05:45.106Z</time>
      </trkpt>
      <trkpt lat="48.10848" lon="1.343">
        <ele>110</ele>
        <time>2018-10-09T14:05:46.106Z</time>
      </trkpt>
      <trkpt lat="48.10847" lon="1.34302">
        <ele>110</ele>
        <time>2018-10-09T14:05:47.106Z</time>
      </trkpt>
      <trkpt lat="48.10847" lon="1.34304">
        <ele>110</ele>
        <time>2018-10-09T14:05:48.106Z</time>
      </trkpt>
      <trkpt lat="48.10847" lon="1.34306">
        <ele>110</ele>
        <time>2018-10-09T14:05:49.106Z</time>
      </trkpt>
      <trkpt lat="48.10846" lon="1.34308">
        <ele>110</ele>
        <time>2018-10-09T14:05:50.106Z</time>
      </trkpt>
      <trkpt lat="48.10846" lon="1.3431">
        <ele>110</ele>
        <time>2018-10-09T14:05:51.106Z</time>
      </trkpt>
      <trkpt lat="48.10846" lon="1.34312">
        <ele>110</ele>
        <time>2018-10-09T14:05:52.106Z</time>
      </trkpt>
      <trkpt lat="48.10846" lon="1.34314">
        <ele>110</ele>
        <time>2018-10-09T14:05:53.106Z</time>
      </trkpt>
      <trkpt lat="48.10845" lon="1.34316">
        <ele>110</ele>
        <time>2018-10-09T14:05:54.106Z</time>
      </trkpt>
      <trkpt lat="48.10844" lon="1.34318">
        <ele>109</ele>
        <time>2018-10-09T14:05:55.106Z</time>
      </trkpt>
      <trkpt lat="48.10844" lon="1.3432">
        <ele>109</ele>
        <time>2018-10-09T14:05:56.106Z</time>
      </trkpt>
      <trkpt lat="48.10843" lon="1.34322">
        <ele>109</ele>
        <time>2018-10-09T14:05:57.106Z</time>
      </trkpt>
      <trkpt lat="48.10842" lon="1.34324">
        <ele>109</ele>
        <time>2018-10-09T14:05:58.106Z</time>
      </trkpt>
      <trkpt lat="48.10842" lon="1.34326">
        <ele>109</ele>
        <time>2018-10-09T14:05:59.106Z</time>
      </trkpt>
      <trkpt lat="48.10842" lon="1.34328">
        <ele>109</ele>
        <time>2018-10-09T14:06:00.106Z</time>
      </trkpt>
      <trkpt lat="48.10841" lon="1.3433">
        <ele>108</ele>
        <time>2018-10-09T14:06:01.106Z</time>
      </trkpt>
      <trkpt lat="48.10841" lon="1.34332">
        <ele>108</ele>
        <time>2018-10-09T14:06:02.106Z</time>
      </trkpt>
      <trkpt lat="48.10841" lon="1.34334">
        <ele>109</ele>
        <time>2018-10-09T14:06:03.106Z</time>
      </trkpt>
      <trkpt lat="48.1084" lon="1.34336">
        <ele>109</ele>
        <time>2018-10-09T14:06:04.106Z</time>
      </trkpt>
      <trkpt lat="48.1084" lon="1.34338">
        <ele>109</ele>
        <time>2018-10-09T14:06:05.106Z</time>
      </trkpt>
      <trkpt lat="48.1084" lon="1.3434">
        <ele>109</ele>
        <time>2018-10-09T14:06:06.106Z</time>
      </trkpt>
      <trkpt lat="48.10839" lon="1.34342">
        <ele>110</ele>
        <time>2018-10-09T14:06:07.106Z</time>
      </trkpt>
      <trkpt lat="48.10839" lon="1.34344">
        <ele>110</ele>
        <time>2018-10-09T14:06:08.106Z</time>
      </trkpt>
      <trkpt lat="48.10838" lon="1.34346">
        <ele>109</ele>
        <time>2018-10-09T14:06:09.106Z</time>
      </trkpt>
      <trkpt lat="48.10838" lon="1.34349">
        <ele>108</ele>
        <time>2018-10-09T14:06:10.106Z</time>
      </trkpt>
      <trkpt lat="48.10837" lon="1.34351">
        <ele>109</ele>
        <time>2018-10-09T14:06:11.106Z</time>
      </trkpt>
      <trkpt lat="48.10837" lon="1.34353">
        <ele>108</ele>
        <time>2018-10-09T14:06:12.106Z</time>
      </trkpt>
      <trkpt lat="48.10836" lon="1.34355">
        <ele>108</ele>
        <time>2018-10-09T14:06:13.106Z</time>
      </trkpt>
      <trkpt lat="48.10836" lon="1.34357">
        <ele>108</ele>
        <time>2018-10-09T14:06:14.106Z</time>
      </trkpt>
      <trkpt lat="48.10835" lon="1.3436">
        <ele>107</ele>
        <time>2018-10-09T14:06:15.106Z</time>
      </trkpt>
      <trkpt lat="48.10834" lon="1.34362">
        <ele>107</ele>
        <time>2018-10-09T14:06:16.106Z</time>
      </trkpt>
      <trkpt lat="48.10833" lon="1.34363">
        <ele>107</ele>
        <time>2018-10-09T14:06:17.106Z</time>
      </trkpt>
      <trkpt lat="48.10833" lon="1.34366">
        <ele>107</ele>
        <time>2018-10-09T14:06:18.106Z</time>
      </trkpt>
      <trkpt lat="48.10832" lon="1.34368">
        <ele>107</ele>
        <time>2018-10-09T14:06:19.106Z</time>
      </trkpt>
      <trkpt lat="48.10831" lon="1.3437">
        <ele>107</ele>
        <time>2018-10-09T14:06:20.106Z</time>
      </trkpt>
      <trkpt lat="48.10831" lon="1.34372">
        <ele>108</ele>
        <time>2018-10-09T14:06:21.106Z</time>
      </trkpt>
      <trkpt lat="48.10831" lon="1.34374">
        <ele>108</ele>
        <time>2018-10-09T14:06:22.106Z</time>
      </trkpt>
      <trkpt lat="48.1083" lon="1.34376">
        <ele>108</ele>
        <time>2018-10-09T14:06:23.106Z</time>
      </trkpt>
      <trkpt lat="48.1083" lon="1.34378">
        <ele>108</ele>
        <time>2018-10-09T14:06:24.106Z</time>
      </trkpt>
      <trkpt lat="48.10829" lon="1.34381">
        <ele>107</ele>
        <time>2018-10-09T14:06:25.106Z</time>
      </trkpt>
      <trkpt lat="48.10829" lon="1.34383">
        <ele>107</ele>
        <time>2018-10-09T14:06:26.106Z</time>
      </trkpt>
      <trkpt lat="48.10829" lon="1.34385">
        <ele>107</ele>
        <time>2018-10-09T14:06:27.106Z</time>
      </trkpt>
      <trkpt lat="48.10828" lon="1.34387">
        <ele>107</ele>
        <time>2018-10-09T14:06:28.106Z</time>
      </trkpt>
      <trkpt lat="48.10828" lon="1.34388">
        <ele>107</ele>
        <time>2018-10-09T14:06:29.106Z</time>
      </trkpt>
      <trkpt lat="48.10828" lon="1.3439">
        <ele>107</ele>
        <time>2018-10-09T14:06:30.106Z</time>
      </trkpt>
      <trkpt lat="48.10827" lon="1.34392">
        <ele>107</ele>
        <time>2018-10-09T14:06:31.106Z</time>
      </trkpt>
      <trkpt lat="48.10827" lon="1.34394">
        <ele>107</ele>
        <time>2018-10-09T14:06:32.106Z</time>
      </trkpt>
      <trkpt lat="48.10826" lon="1.34397">
        <ele>107</ele>
        <time>2018-10-09T14:06:33.106Z</time>
      </trkpt>
      <trkpt lat="48.10826" lon="1.34399">
        <ele>108</ele>
        <time>2018-10-09T14:06:34.106Z</time>
      </trkpt>
      <trkpt lat="48.10825" lon="1.344">
        <ele>108</ele>
        <time>2018-10-09T14:06:35.106Z</time>
      </trkpt>
      <trkpt lat="48.10825" lon="1.34402">
        <ele>109</ele>
        <time>2018-10-09T14:06:36.106Z</time>
      </trkpt>
      <trkpt lat="48.10825" lon="1.34404">
        <ele>109</ele>
        <time>2018-10-09T14:06:37.106Z</time>
      </trkpt>
      <trkpt lat="48.10825" lon="1.34406">
        <ele>110</ele>
        <time>2018-10-09T14:06:38.106Z</time>
      </trkpt>
      <trkpt lat="48.10824" lon="1.34408">
        <ele>110</ele>
        <time>2018-10-09T14:06:39.106Z</time>
      </trkpt>
      <trkpt lat="48.10824" lon="1.3441">
        <ele>111</ele>
        <time>2018-10-09T14:06:40.106Z</time>
      </trkpt>
      <trkpt lat="48.10824" lon="1.34412">
        <ele>111</ele>
        <time>2018-10-09T14:06:41.106Z</time>
      </trkpt>
      <trkpt lat="48.10824" lon="1.34413">
        <ele>112</ele>
        <time>2018-10-09T14:06:42.106Z</time>
      </trkpt>
      <trkpt lat="48.10824" lon="1.34415">
        <ele>112</ele>
        <time>2018-10-09T14:06:43.106Z</time>
      </trkpt>
      <trkpt lat="48.10824" lon="1.34417">
        <ele>113</ele>
        <time>2018-10-09T14:06:44.106Z</time>
      </trkpt>
      <trkpt lat="48.10824" lon="1.34418">
        <ele>114</ele>
        <time>2018-10-09T14:06:45.106Z</time>
      </trkpt>
      <trkpt lat="48.10823" lon="1.3442">
        <ele>114</ele>
        <time>2018-10-09T14:06:46.106Z</time>
      </trkpt>
      <trkpt lat="48.10823" lon="1.34422">
        <ele>114</ele>
        <time>2018-10-09T14:06:47.106Z</time>
      </trkpt>
      <trkpt lat="48.10823" lon="1.34424">
        <ele>114</ele>
        <time>2018-10-09T14:06:48.106Z</time>
      </trkpt>
      <trkpt lat="48.10822" lon="1.34426">
        <ele>114</ele>
        <time>2018-10-09T14:06:49.106Z</time>
      </trkpt>
      <trkpt lat="48.10822" lon="1.34429">
        <ele>114</ele>
        <time>2018-10-09T14:06:50.106Z</time>
      </trkpt>
      <trkpt lat="48.10821" lon="1.34431">
        <ele>114</ele>
        <time>2018-10-09T14:06:51.106Z</time>
      </trkpt>
      <trkpt lat="48.1082" lon="1.34434">
        <ele>113</ele>
        <time>2018-10-09T14:06:52.106Z</time>
      </trkpt>
      <trkpt lat="48.10819" lon="1.34437">
        <ele>113</ele>
        <time>2018-10-09T14:06:53.106Z</time>
      </trkpt>
      <trkpt lat="48.10818" lon="1.34439">
        <ele>113</ele>
        <time>2018-10-09T14:06:54.106Z</time>
      </trkpt>
      <trkpt lat="48.10817" lon="1.34441">
        <ele>113</ele>
        <time>2018-10-09T14:06:55.106Z</time>
      </trkpt>
      <trkpt lat="48.10817" lon="1.34443">
        <ele>115</ele>
        <time>2018-10-09T14:06:56.106Z</time>
      </trkpt>
      <trkpt lat="48.10817" lon="1.34445">
        <ele>115</ele>
        <time>2018-10-09T14:06:57.106Z</time>
      </trkpt>
      <trkpt lat="48.10817" lon="1.34447">
        <ele>115</ele>
        <time>2018-10-09T14:06:58.106Z</time>
      </trkpt>
      <trkpt lat="48.10816" lon="1.34449">
        <ele>115</ele>
        <time>2018-10-09T14:06:59.106Z</time>
      </trkpt>
      <trkpt lat="48.10816" lon="1.34451">
        <ele>115</ele>
        <time>2018-10-09T14:07:00.106Z</time>
      </trkpt>
      <trkpt lat="48.10815" lon="1.34453">
        <ele>115</ele>
        <time>2018-10-09T14:07:01.106Z</time>
      </trkpt>
      <trkpt lat="48.10814" lon="1.34456">
        <ele>115</ele>
        <time>2018-10-09T14:07:02.106Z</time>
      </trkpt>
      <trkpt lat="48.10813" lon="1.34458">
        <ele>115</ele>
        <time>2018-10-09T14:07:03.106Z</time>
      </trkpt>
      <trkpt lat="48.10813" lon="1.3446">
        <ele>115</ele>
        <time>2018-10-09T14:07:04.106Z</time>
      </trkpt>
      <trkpt lat="48.10812" lon="1.34462">
        <ele>116</ele>
        <time>2018-10-09T14:07:05.106Z</time>
      </trkpt>
      <trkpt lat="48.10811" lon="1.34464">
        <ele>116</ele>
        <time>2018-10-09T14:07:06.106Z</time>
      </trkpt>
      <trkpt lat="48.10811" lon="1.34466">
        <ele>116</ele>
        <time>2018-10-09T14:07:07.106Z</time>
      </trkpt>
      <trkpt lat="48.1081" lon="1.34468">
        <ele>116</ele>
        <time>2018-10-09T14:07:08.106Z</time>
      </trkpt>
      <trkpt lat="48.1081" lon="1.3447">
        <ele>115</ele>
        <time>2018-10-09T14:07:09.106Z</time>
      </trkpt>
      <trkpt lat="48.10809" lon="1.34472">
        <ele>115</ele>
        <time>2018-10-09T14:07:10.106Z</time>
      </trkpt>
      <trkpt lat="48.10809" lon="1.34473">
        <ele>116</ele>
        <time>2018-10-09T14:07:11.106Z</time>
      </trkpt>
      <trkpt lat="48.10808" lon="1.34475">
        <ele>116</ele>
        <time>2018-10-09T14:07:12.106Z</time>
      </trkpt>
      <trkpt lat="48.10808" lon="1.34477">
        <ele>116</ele>
        <time>2018-10-09T14:07:13.106Z</time>
      </trkpt>
      <trkpt lat="48.10807" lon="1.34479">
        <ele>116</ele>
        <time>2018-10-09T14:07:14.106Z</time>
      </trkpt>
      <trkpt lat="48.10807" lon="1.34481">
        <ele>117</ele>
        <time>2018-10-09T14:07:15.106Z</time>
      </trkpt>
      <trkpt lat="48.10806" lon="1.34483">
        <ele>117</ele>
        <time>2018-10-09T14:07:16.106Z</time>
      </trkpt>
      <trkpt lat="48.10806" lon="1.34484">
        <ele>118</ele>
        <time>2018-10-09T14:07:17.106Z</time>
      </trkpt>
      <trkpt lat="48.10805" lon="1.34486">
        <ele>119</ele>
        <time>2018-10-09T14:07:18.106Z</time>
      </trkpt>
      <trkpt lat="48.10805" lon="1.34488">
        <ele>120</ele>
        <time>2018-10-09T14:07:19.106Z</time>
      </trkpt>
      <trkpt lat="48.10804" lon="1.34489">
        <ele>120</ele>
        <time>2018-10-09T14:07:20.106Z</time>
      </trkpt>
      <trkpt lat="48.10804" lon="1.34491">
        <ele>120</ele>
        <time>2018-10-09T14:07:21.106Z</time>
      </trkpt>
      <trkpt lat="48.10803" lon="1.34492">
        <ele>121</ele>
        <time>2018-10-09T14:07:22.106Z</time>
      </trkpt>
      <trkpt lat="48.10803" lon="1.34493">
        <ele>121</ele>
        <time>2018-10-09T14:07:23.106Z</time>
      </trkpt>
      <trkpt lat="48.10802" lon="1.34494">
        <ele>122</ele>
        <time>2018-10-09T14:07:24.106Z</time>
      </trkpt>
      <trkpt lat="48.10802" lon="1.34496">
        <ele>123</ele>
        <time>2018-10-09T14:07:25.106Z</time>
      </trkpt>
      <trkpt lat="48.10801" lon="1.34496">
        <ele>122</ele>
        <time>2018-10-09T14:07:26.106Z</time>
      </trkpt>
      <trkpt lat="48.108" lon="1.34498">
        <ele>123</ele>
        <time>2018-10-09T14:07:27.106Z</time>
      </trkpt>
      <trkpt lat="48.108" lon="1.34499">
        <ele>123</ele>
        <time>2018-10-09T14:07:28.106Z</time>
      </trkpt>
      <trkpt lat="48.10799" lon="1.34501">
        <ele>122</ele>
        <time>2018-10-09T14:07:29.106Z</time>
      </trkpt>
      <trkpt lat="48.10798" lon="1.34503">
        <ele>121</ele>
        <time>2018-10-09T14:07:30.106Z</time>
      </trkpt>
      <trkpt lat="48.10797" lon="1.34505">
        <ele>121</ele>
        <time>2018-10-09T14:07:31.106Z</time>
      </trkpt>
      <trkpt lat="48.10796" lon="1.34508">
        <ele>121</ele>
        <time>2018-10-09T14:07:32.106Z</time>
      </trkpt>
      <trkpt lat="48.10795" lon="1.3451">
        <ele>122</ele>
        <time>2018-10-09T14:07:33.106Z</time>
      </trkpt>
      <trkpt lat="48.10795" lon="1.34512">
        <ele>122</ele>
        <time>2018-10-09T14:07:34.106Z</time>
      </trkpt>
      <trkpt lat="48.10794" lon="1.34514">
        <ele>123</ele>
        <time>2018-10-09T14:07:35.106Z</time>
      </trkpt>
      <trkpt lat="48.10794" lon="1.34515">
        <ele>123</ele>
        <time>2018-10-09T14:07:36.106Z</time>
      </trkpt>
      <trkpt lat="48.10793" lon="1.34517">
        <ele>123</ele>
        <time>2018-10-09T14:07:37.106Z</time>
      </trkpt>
      <trkpt lat="48.10792" lon="1.34519">
        <ele>124</ele>
        <time>2018-10-09T14:07:38.106Z</time>
      </trkpt>
      <trkpt lat="48.10791" lon="1.34521">
        <ele>125</ele>
        <time>2018-10-09T14:07:39.106Z</time>
      </trkpt>
      <trkpt lat="48.10791" lon="1.34523">
        <ele>125</ele>
        <time>2018-10-09T14:07:40.106Z</time>
      </trkpt>
      <trkpt lat="48.1079" lon="1.34525">
        <ele>126</ele>
        <time>2018-10-09T14:07:41.106Z</time>
      </trkpt>
      <trkpt lat="48.1079" lon="1.34526">
        <ele>125</ele>
        <time>2018-10-09T14:07:42.106Z</time>
      </trkpt>
      <trkpt lat="48.1079" lon="1.34528">
        <ele>126</ele>
        <time>2018-10-09T14:07:43.106Z</time>
      </trkpt>
      <trkpt lat="48.10789" lon="1.3453">
        <ele>127</ele>
        <time>2018-10-09T14:07:44.106Z</time>
      </trkpt>
      <trkpt lat="48.10788" lon="1.34531">
        <ele>126</ele>
        <time>2018-10-09T14:07:45.106Z</time>
      </trkpt>
      <trkpt lat="48.10788" lon="1.34533">
        <ele>126</ele>
        <time>2018-10-09T14:07:46.106Z</time>
      </trkpt>
      <trkpt lat="48.10787" lon="1.34535">
        <ele>125</ele>
        <time>2018-10-09T14:07:47.106Z</time>
      </trkpt>
      <trkpt lat="48.10786" lon="1.34536">
        <ele>125</ele>
        <time>2018-10-09T14:07:48.106Z</time>
      </trkpt>
      <trkpt lat="48.10786" lon="1.34538">
        <ele>125</ele>
        <time>2018-10-09T14:07:49.106Z</time>
      </trkpt>
      <trkpt lat="48.10785" lon="1.3454">
        <ele>125</ele>
        <time>2018-10-09T14:07:50.106Z</time>
      </trkpt>
      <trkpt lat="48.10785" lon="1.34541">
        <ele>125</ele>
        <time>2018-10-09T14:07:51.106Z</time>
      </trkpt>
      <trkpt lat="48.10784" lon="1.34543">
        <ele>125</ele>
        <time>2018-10-09T14:07:52.106Z</time>
      </trkpt>
      <trkpt lat="48.10784" lon="1.34545">
        <ele>126</ele>
        <time>2018-10-09T14:07:53.106Z</time>
      </trkpt>
      <trkpt lat="48.10784" lon="1.34546">
        <ele>125</ele>
        <time>2018-10-09T14:07:54.106Z</time>
      </trkpt>
      <trkpt lat="48.10785" lon="1.34548">
        <ele>126</ele>
        <time>2018-10-09T14:07:55.106Z</time>
      </trkpt>
      <trkpt lat="48.10784" lon="1.34549">
        <ele>126</ele>
        <time>2018-10-09T14:07:56.106Z</time>
      </trkpt>
      <trkpt lat="48.10784" lon="1.34551">
        <ele>126</ele>
        <time>2018-10-09T14:07:57.106Z</time>
      </trkpt>
      <trkpt lat="48.10784" lon="1.34552">
        <ele>126</ele>
        <time>2018-10-09T14:07:58.106Z</time>
      </trkpt>
      <trkpt lat="48.10784" lon="1.34553">
        <ele>127</ele>
        <time>2018-10-09T14:07:59.106Z</time>
      </trkpt>
      <trkpt lat="48.10783" lon="1.34555">
        <ele>125</ele>
        <time>2018-10-09T14:08:00.106Z</time>
      </trkpt>
      <trkpt lat="48.10782" lon="1.34557">
        <ele>125</ele>
        <time>2018-10-09T14:08:01.106Z</time>
      </trkpt>
      <trkpt lat="48.10781" lon="1.34559">
        <ele>125</ele>
        <time>2018-10-09T14:08:02.106Z</time>
      </trkpt>
      <trkpt lat="48.10781" lon="1.3456">
        <ele>126</ele>
        <time>2018-10-09T14:08:03.106Z</time>
      </trkpt>
      <trkpt lat="48.1078" lon="1.34561">
        <ele>126</ele>
        <time>2018-10-09T14:08:04.106Z</time>
      </trkpt>
      <trkpt lat="48.1078" lon="1.34563">
        <ele>126</ele>
        <time>2018-10-09T14:08:05.106Z</time>
      </trkpt>
      <trkpt lat="48.10779" lon="1.34564">
        <ele>126</ele>
        <time>2018-10-09T14:08:06.106Z</time>
      </trkpt>
      <trkpt lat="48.10779" lon="1.34565">
        <ele>125</ele>
        <time>2018-10-09T14:08:07.106Z</time>
      </trkpt>
      <trkpt lat="48.10779" lon="1.34567">
        <ele>125</ele>
        <time>2018-10-09T14:08:08.106Z</time>
      </trkpt>
      <trkpt lat="48.10778" lon="1.3457">
        <ele>125</ele>
        <time>2018-10-09T14:08:09.106Z</time>
      </trkpt>
      <trkpt lat="48.10776" lon="1.34572">
        <ele>125</ele>
        <time>2018-10-09T14:08:10.106Z</time>
      </trkpt>
      <trkpt lat="48.10775" lon="1.34574">
        <ele>126</ele>
        <time>2018-10-09T14:08:11.106Z</time>
      </trkpt>
      <trkpt lat="48.10774" lon="1.34576">
        <ele>126</ele>
        <time>2018-10-09T14:08:12.106Z</time>
      </trkpt>
      <trkpt lat="48.10773" lon="1.34578">
        <ele>124</ele>
        <time>2018-10-09T14:08:13.106Z</time>
      </trkpt>
      <trkpt lat="48.10772" lon="1.3458">
        <ele>124</ele>
        <time>2018-10-09T14:08:14.106Z</time>
      </trkpt>
      <trkpt lat="48.10771" lon="1.34582">
        <ele>123</ele>
        <time>2018-10-09T14:08:15.106Z</time>
      </trkpt>
      <trkpt lat="48.1077" lon="1.34583">
        <ele>123</ele>
        <time>2018-10-09T14:08:16.106Z</time>
      </trkpt>
      <trkpt lat="48.1077" lon="1.34584">
        <ele>123</ele>
        <time>2018-10-09T14:08:17.106Z</time>
      </trkpt>
      <trkpt lat="48.1077" lon="1.34584">
        <ele>122</ele>
        <time>2018-10-09T14:08:18.106Z</time>
      </trkpt>
      <trkpt lat="48.1077" lon="1.34584">
        <ele>121</ele>
        <time>2018-10-09T14:08:19.106Z</time>
      </trkpt>
      <trkpt lat="48.1077" lon="1.34585">
        <ele>121</ele>
        <time>2018-10-09T14:08:20.106Z</time>
      </trkpt>
      <trkpt lat="48.1077" lon="1.34585">
        <ele>122</ele>
        <time>2018-10-09T14:08:21.106Z</time>
      </trkpt>
      <trkpt lat="48.1077" lon="1.34585">
        <ele>121</ele>
        <time>2018-10-09T14:08:22.106Z</time>
      </trkpt>
      <trkpt lat="48.10771" lon="1.34586">
        <ele>121</ele>
        <time>2018-10-09T14:08:23.106Z</time>
      </trkpt>
      <trkpt lat="48.10771" lon="1.34586">
        <ele>122</ele>
        <time>2018-10-09T14:08:24.106Z</time>
      </trkpt>
      <trkpt lat="48.1077" lon="1.34599">
        <ele>120</ele>
        <time>2018-10-09T14:08:25.106Z</time>
      </trkpt>
      <trkpt lat="48.10769" lon="1.346">
        <ele>120</ele>
        <time>2018-10-09T14:08:26.106Z</time>
      </trkpt>
      <trkpt lat="48.10768" lon="1.34602">
        <ele>119</ele>
        <time>2018-10-09T14:08:27.106Z</time>
      </trkpt>
      <trkpt lat="48.10767" lon="1.34603">
        <ele>119</ele>
        <time>2018-10-09T14:08:28.106Z</time>
      </trkpt>
      <trkpt lat="48.10767" lon="1.34604">
        <ele>119</ele>
        <time>2018-10-09T14:08:29.106Z</time>
      </trkpt>
      <trkpt lat="48.10766" lon="1.34605">
        <ele>120</ele>
        <time>2018-10-09T14:08:30.106Z</time>
      </trkpt>
      <trkpt lat="48.10766" lon="1.34607">
        <ele>119</ele>
        <time>2018-10-09T14:08:31.106Z</time>
      </trkpt>
      <trkpt lat="48.10766" lon="1.34609">
        <ele>120</ele>
        <time>2018-10-09T14:08:32.106Z</time>
      </trkpt>
      <trkpt lat="48.10766" lon="1.3461">
        <ele>120</ele>
        <time>2018-10-09T14:08:33.106Z</time>
      </trkpt>
      <trkpt lat="48.10766" lon="1.34611">
        <ele>119</ele>
        <time>2018-10-09T14:08:34.106Z</time>
      </trkpt>
      <trkpt lat="48.10765" lon="1.34613">
        <ele>119</ele>
        <time>2018-10-09T14:08:35.106Z</time>
      </trkpt>
      <trkpt lat="48.10765" lon="1.34614">
        <ele>118</ele>
        <time>2018-10-09T14:08:36.106Z</time>
      </trkpt>
      <trkpt lat="48.10764" lon="1.34615">
        <ele>118</ele>
        <time>2018-10-09T14:08:37.106Z</time>
      </trkpt>
      <trkpt lat="48.10763" lon="1.34617">
        <ele>118</ele>
        <time>2018-10-09T14:08:38.106Z</time>
      </trkpt>
      <trkpt lat="48.10763" lon="1.34619">
        <ele>118</ele>
        <time>2018-10-09T14:08:39.106Z</time>
      </trkpt>
      <trkpt lat="48.10762" lon="1.34621">
        <ele>117</ele>
        <time>2018-10-09T14:08:40.106Z</time>
      </trkpt>
      <trkpt lat="48.10762" lon="1.34623">
        <ele>117</ele>
        <time>2018-10-09T14:08:41.106Z</time>
      </trkpt>
      <trkpt lat="48.10761" lon="1.34624">
        <ele>116</ele>
        <time>2018-10-09T14:08:42.106Z</time>
      </trkpt>
      <trkpt lat="48.1076" lon="1.34626">
        <ele>116</ele>
        <time>2018-10-09T14:08:43.106Z</time>
      </trkpt>
      <trkpt lat="48.1076" lon="1.34628">
        <ele>116</ele>
        <time>2018-10-09T14:08:44.106Z</time>
      </trkpt>
      <trkpt lat="48.10759" lon="1.34629">
        <ele>112</ele>
        <time>2018-10-09T14:08:45.106Z</time>
      </trkpt>
      <trkpt lat="48.10758" lon="1.34631">
        <ele>112</ele>
        <time>2018-10-09T14:08:46.106Z</time>
      </trkpt>
      <trkpt lat="48.10757" lon="1.34634">
        <ele>112</ele>
        <time>2018-10-09T14:08:47.106Z</time>
      </trkpt>
      <trkpt lat="48.10757" lon="1.34636">
        <ele>111</ele>
        <time>2018-10-09T14:08:48.106Z</time>
      </trkpt>
      <trkpt lat="48.10756" lon="1.34637">
        <ele>112</ele>
        <time>2018-10-09T14:08:49.106Z</time>
      </trkpt>
      <trkpt lat="48.10756" lon="1.34639">
        <ele>111</ele>
        <time>2018-10-09T14:08:50.106Z</time>
      </trkpt>
      <trkpt lat="48.10756" lon="1.34641">
        <ele>112</ele>
        <time>2018-10-09T14:08:51.106Z</time>
      </trkpt>
      <trkpt lat="48.10755" lon="1.34642">
        <ele>113</ele>
        <time>2018-10-09T14:08:52.106Z</time>
      </trkpt>
      <trkpt lat="48.10755" lon="1.34644">
        <ele>112</ele>
        <time>2018-10-09T14:08:53.106Z</time>
      </trkpt>
      <trkpt lat="48.10754" lon="1.34646">
        <ele>112</ele>
        <time>2018-10-09T14:08:54.106Z</time>
      </trkpt>
      <trkpt lat="48.10754" lon="1.34648">
        <ele>112</ele>
        <time>2018-10-09T14:08:55.106Z</time>
      </trkpt>
      <trkpt lat="48.10753" lon="1.3465">
        <ele>112</ele>
        <time>2018-10-09T14:08:56.106Z</time>
      </trkpt>
      <trkpt lat="48.10753" lon="1.34651">
        <ele>112</ele>
        <time>2018-10-09T14:08:57.106Z</time>
      </trkpt>
      <trkpt lat="48.10752" lon="1.34653">
        <ele>112</ele>
        <time>2018-10-09T14:08:58.106Z</time>
      </trkpt>
      <trkpt lat="48.10752" lon="1.34655">
        <ele>112</ele>
        <time>2018-10-09T14:08:59.106Z</time>
      </trkpt>
      <trkpt lat="48.10752" lon="1.34657">
        <ele>113</ele>
        <time>2018-10-09T14:09:00.106Z</time>
      </trkpt>
      <trkpt lat="48.10751" lon="1.34659">
        <ele>110</ele>
        <time>2018-10-09T14:09:01.106Z</time>
      </trkpt>
      <trkpt lat="48.10751" lon="1.34661">
        <ele>111</ele>
        <time>2018-10-09T14:09:02.106Z</time>
      </trkpt>
      <trkpt lat="48.10751" lon="1.34663">
        <ele>110</ele>
        <time>2018-10-09T14:09:03.106Z</time>
      </trkpt>
      <trkpt lat="48.1075" lon="1.34665">
        <ele>110</ele>
        <time>2018-10-09T14:09:04.106Z</time>
      </trkpt>
      <trkpt lat="48.10749" lon="1.34667">
        <ele>109</ele>
        <time>2018-10-09T14:09:05.106Z</time>
      </trkpt>
      <trkpt lat="48.10749" lon="1.34669">
        <ele>109</ele>
        <time>2018-10-09T14:09:06.106Z</time>
      </trkpt>
      <trkpt lat="48.10748" lon="1.34671">
        <ele>109</ele>
        <time>2018-10-09T14:09:07.106Z</time>
      </trkpt>
      <trkpt lat="48.10748" lon="1.34672">
        <ele>109</ele>
        <time>2018-10-09T14:09:08.106Z</time>
      </trkpt>
      <trkpt lat="48.10748" lon="1.34674">
        <ele>109</ele>
        <time>2018-10-09T14:09:09.106Z</time>
      </trkpt>
      <trkpt lat="48.10747" lon="1.34676">
        <ele>108</ele>
        <time>2018-10-09T14:09:10.106Z</time>
      </trkpt>
      <trkpt lat="48.10747" lon="1.34677">
        <ele>109</ele>
        <time>2018-10-09T14:09:11.106Z</time>
      </trkpt>
      <trkpt lat="48.10747" lon="1.34679">
        <ele>109</ele>
        <time>2018-10-09T14:09:12.106Z</time>
      </trkpt>
      <trkpt lat="48.10747" lon="1.34681">
        <ele>109</ele>
        <time>2018-10-09T14:09:13.106Z</time>
      </trkpt>
      <trkpt lat="48.10747" lon="1.34682">
        <ele>109</ele>
        <time>2018-10-09T14:09:14.106Z</time>
      </trkpt>
      <trkpt lat="48.10746" lon="1.34683">
        <ele>108</ele>
        <time>2018-10-09T14:09:15.106Z</time>
      </trkpt>
      <trkpt lat="48.10746" lon="1.34685">
        <ele>108</ele>
        <time>2018-10-09T14:09:16.106Z</time>
      </trkpt>
      <trkpt lat="48.10745" lon="1.34686">
        <ele>109</ele>
        <time>2018-10-09T14:09:17.106Z</time>
      </trkpt>
      <trkpt lat="48.10745" lon="1.34688">
        <ele>110</ele>
        <time>2018-10-09T14:09:18.106Z</time>
      </trkpt>
      <trkpt lat="48.10745" lon="1.3469">
        <ele>110</ele>
        <time>2018-10-09T14:09:19.106Z</time>
      </trkpt>
      <trkpt lat="48.10744" lon="1.34691">
        <ele>110</ele>
        <time>2018-10-09T14:09:20.106Z</time>
      </trkpt>
      <trkpt lat="48.10744" lon="1.34693">
        <ele>110</ele>
        <time>2018-10-09T14:09:21.106Z</time>
      </trkpt>
      <trkpt lat="48.10744" lon="1.34694">
        <ele>110</ele>
        <time>2018-10-09T14:09:22.106Z</time>
      </trkpt>
      <trkpt lat="48.10743" lon="1.34696">
        <ele>111</ele>
        <time>2018-10-09T14:09:23.106Z</time>
      </trkpt>
      <trkpt lat="48.10743" lon="1.34698">
        <ele>110</ele>
        <time>2018-10-09T14:09:24.106Z</time>
      </trkpt>
      <trkpt lat="48.10743" lon="1.34699">
        <ele>111</ele>
        <time>2018-10-09T14:09:25.106Z</time>
      </trkpt>
      <trkpt lat="48.10742" lon="1.347">
        <ele>111</ele>
        <time>2018-10-09T14:09:26.106Z</time>
      </trkpt>
      <trkpt lat="48.10742" lon="1.34702">
        <ele>112</ele>
        <time>2018-10-09T14:09:27.106Z</time>
      </trkpt>
      <trkpt lat="48.10741" lon="1.34703">
        <ele>113</ele>
        <time>2018-10-09T14:09:28.106Z</time>
      </trkpt>
      <trkpt lat="48.10742" lon="1.34705">
        <ele>115</ele>
        <time>2018-10-09T14:09:29.106Z</time>
      </trkpt>
      <trkpt lat="48.10742" lon="1.34706">
        <ele>116</ele>
        <time>2018-10-09T14:09:30.106Z</time>
      </trkpt>
      <trkpt lat="48.10742" lon="1.34708">
        <ele>117</ele>
        <time>2018-10-09T14:09:31.106Z</time>
      </trkpt>
      <trkpt lat="48.10742" lon="1.3471">
        <ele>117</ele>
        <time>2018-10-09T14:09:32.106Z</time>
      </trkpt>
      <trkpt lat="48.10742" lon="1.34712">
        <ele>118</ele>
        <time>2018-10-09T14:09:33.106Z</time>
      </trkpt>
      <trkpt lat="48.10741" lon="1.34713">
        <ele>117</ele>
        <time>2018-10-09T14:09:34.106Z</time>
      </trkpt>
      <trkpt lat="48.1074" lon="1.34715">
        <ele>117</ele>
        <time>2018-10-09T14:09:35.106Z</time>
      </trkpt>
      <trkpt lat="48.1074" lon="1.34717">
        <ele>117</ele>
        <time>2018-10-09T14:09:36.106Z</time>
      </trkpt>
      <trkpt lat="48.1074" lon="1.34718">
        <ele>119</ele>
        <time>2018-10-09T14:09:37.106Z</time>
      </trkpt>
      <trkpt lat="48.1074" lon="1.3472">
        <ele>119</ele>
        <time>2018-10-09T14:09:38.106Z</time>
      </trkpt>
      <trkpt lat="48.1074" lon="1.34721">
        <ele>119</ele>
        <time>2018-10-09T14:09:39.106Z</time>
      </trkpt>
      <trkpt lat="48.1074" lon="1.34723">
        <ele>119</ele>
        <time>2018-10-09T14:09:40.106Z</time>
      </trkpt>
      <trkpt lat="48.10739" lon="1.34724">
        <ele>118</ele>
        <time>2018-10-09T14:09:41.106Z</time>
      </trkpt>
      <trkpt lat="48.10739" lon="1.34726">
        <ele>119</ele>
        <time>2018-10-09T14:09:42.106Z</time>
      </trkpt>
      <trkpt lat="48.10738" lon="1.34728">
        <ele>119</ele>
        <time>2018-10-09T14:09:43.106Z</time>
      </trkpt>
      <trkpt lat="48.10738" lon="1.34729">
        <ele>119</ele>
        <time>2018-10-09T14:09:44.106Z</time>
      </trkpt>
      <trkpt lat="48.10738" lon="1.34731">
        <ele>118</ele>
        <time>2018-10-09T14:09:45.106Z</time>
      </trkpt>
      <trkpt lat="48.10737" lon="1.34734">
        <ele>117</ele>
        <time>2018-10-09T14:09:46.106Z</time>
      </trkpt>
      <trkpt lat="48.10736" lon="1.34736">
        <ele>116</ele>
        <time>2018-10-09T14:09:47.106Z</time>
      </trkpt>
      <trkpt lat="48.10735" lon="1.34738">
        <ele>116</ele>
        <time>2018-10-09T14:09:48.106Z</time>
      </trkpt>
      <trkpt lat="48.10735" lon="1.34741">
        <ele>115</ele>
        <time>2018-10-09T14:09:49.106Z</time>
      </trkpt>
      <trkpt lat="48.10734" lon="1.34743">
        <ele>116</ele>
        <time>2018-10-09T14:09:50.106Z</time>
      </trkpt>
      <trkpt lat="48.10734" lon="1.34745">
        <ele>116</ele>
        <time>2018-10-09T14:09:51.106Z</time>
      </trkpt>
      <trkpt lat="48.10734" lon="1.34747">
        <ele>116</ele>
        <time>2018-10-09T14:09:52.106Z</time>
      </trkpt>
      <trkpt lat="48.10733" lon="1.34749">
        <ele>115</ele>
        <time>2018-10-09T14:09:53.106Z</time>
      </trkpt>
      <trkpt lat="48.10733" lon="1.34751">
        <ele>115</ele>
        <time>2018-10-09T14:09:54.106Z</time>
      </trkpt>
      <trkpt lat="48.10733" lon="1.34753">
        <ele>115</ele>
        <time>2018-10-09T14:09:55.106Z</time>
      </trkpt>
      <trkpt lat="48.10733" lon="1.34754">
        <ele>115</ele>
        <time>2018-10-09T14:09:56.106Z</time>
      </trkpt>
      <trkpt lat="48.10733" lon="1.34756">
        <ele>115</ele>
        <time>2018-10-09T14:09:57.106Z</time>
      </trkpt>
      <trkpt lat="48.10733" lon="1.34757">
        <ele>115</ele>
        <time>2018-10-09T14:09:58.106Z</time>
      </trkpt>
      <trkpt lat="48.10733" lon="1.34759">
        <ele>115</ele>
        <time>2018-10-09T14:09:59.106Z</time>
      </trkpt>
      <trkpt lat="48.10733" lon="1.3476">
        <ele>115</ele>
        <time>2018-10-09T14:10:00.106Z</time>
      </trkpt>
      <trkpt lat="48.10733" lon="1.34762">
        <ele>115</ele>
        <time>2018-10-09T14:10:01.106Z</time>
      </trkpt>
      <trkpt lat="48.10732" lon="1.34764">
        <ele>114</ele>
        <time>2018-10-09T14:10:02.106Z</time>
      </trkpt>
      <trkpt lat="48.10731" lon="1.34765">
        <ele>113</ele>
        <time>2018-10-09T14:10:03.106Z</time>
      </trkpt>
      <trkpt lat="48.10731" lon="1.34767">
        <ele>113</ele>
        <time>2018-10-09T14:10:04.106Z</time>
      </trkpt>
      <trkpt lat="48.1073" lon="1.34769">
        <ele>113</ele>
        <time>2018-10-09T14:10:05.106Z</time>
      </trkpt>
      <trkpt lat="48.1073" lon="1.3477">
        <ele>113</ele>
        <time>2018-10-09T14:10:06.106Z</time>
      </trkpt>
      <trkpt lat="48.1073" lon="1.34772">
        <ele>114</ele>
        <time>2018-10-09T14:10:07.106Z</time>
      </trkpt>
      <trkpt lat="48.1073" lon="1.34773">
        <ele>114</ele>
        <time>2018-10-09T14:10:08.106Z</time>
      </trkpt>
      <trkpt lat="48.10729" lon="1.34774">
        <ele>113</ele>
        <time>2018-10-09T14:10:09.106Z</time>
      </trkpt>
      <trkpt lat="48.10729" lon="1.34775">
        <ele>113</ele>
        <time>2018-10-09T14:10:10.106Z</time>
      </trkpt>
      <trkpt lat="48.10729" lon="1.34777">
        <ele>114</ele>
        <time>2018-10-09T14:10:11.106Z</time>
      </trkpt>
      <trkpt lat="48.10729" lon="1.34778">
        <ele>114</ele>
        <time>2018-10-09T14:10:12.106Z</time>
      </trkpt>
      <trkpt lat="48.10728" lon="1.3478">
        <ele>115</ele>
        <time>2018-10-09T14:10:13.106Z</time>
      </trkpt>
      <trkpt lat="48.10728" lon="1.34782">
        <ele>115</ele>
        <time>2018-10-09T14:10:14.106Z</time>
      </trkpt>
      <trkpt lat="48.10728" lon="1.34783">
        <ele>115</ele>
        <time>2018-10-09T14:10:15.106Z</time>
      </trkpt>
      <trkpt lat="48.10728" lon="1.34785">
        <ele>116</ele>
        <time>2018-10-09T14:10:16.106Z</time>
      </trkpt>
      <trkpt lat="48.10727" lon="1.34788">
        <ele>117</ele>
        <time>2018-10-09T14:10:17.106Z</time>
      </trkpt>
      <trkpt lat="48.10726" lon="1.3479">
        <ele>118</ele>
        <time>2018-10-09T14:10:18.106Z</time>
      </trkpt>
      <trkpt lat="48.10725" lon="1.34793">
        <ele>118</ele>
        <time>2018-10-09T14:10:19.106Z</time>
      </trkpt>
      <trkpt lat="48.10725" lon="1.34795">
        <ele>118</ele>
        <time>2018-10-09T14:10:20.106Z</time>
      </trkpt>
      <trkpt lat="48.10724" lon="1.34797">
        <ele>119</ele>
        <time>2018-10-09T14:10:21.106Z</time>
      </trkpt>
      <trkpt lat="48.10723" lon="1.34798">
        <ele>119</ele>
        <time>2018-10-09T14:10:22.106Z</time>
      </trkpt>
      <trkpt lat="48.10722" lon="1.348">
        <ele>119</ele>
        <time>2018-10-09T14:10:23.106Z</time>
      </trkpt>
      <trkpt lat="48.10722" lon="1.34802">
        <ele>120</ele>
        <time>2018-10-09T14:10:24.106Z</time>
      </trkpt>
      <trkpt lat="48.10721" lon="1.34803">
        <ele>120</ele>
        <time>2018-10-09T14:10:25.106Z</time>
      </trkpt>
      <trkpt lat="48.10721" lon="1.34805">
        <ele>121</ele>
        <time>2018-10-09T14:10:26.106Z</time>
      </trkpt>
      <trkpt lat="48.1072" lon="1.34807">
        <ele>121</ele>
        <time>2018-10-09T14:10:27.106Z</time>
      </trkpt>
      <trkpt lat="48.1072" lon="1.34809">
        <ele>121</ele>
        <time>2018-10-09T14:10:28.106Z</time>
      </trkpt>
      <trkpt lat="48.10719" lon="1.3481">
        <ele>122</ele>
        <time>2018-10-09T14:10:29.106Z</time>
      </trkpt>
      <trkpt lat="48.10718" lon="1.34812">
        <ele>122</ele>
        <time>2018-10-09T14:10:30.106Z</time>
      </trkpt>
      <trkpt lat="48.10718" lon="1.34814">
        <ele>122</ele>
        <time>2018-10-09T14:10:31.106Z</time>
      </trkpt>
      <trkpt lat="48.10717" lon="1.34816">
        <ele>123</ele>
        <time>2018-10-09T14:10:32.106Z</time>
      </trkpt>
      <trkpt lat="48.10716" lon="1.34818">
        <ele>123</ele>
        <time>2018-10-09T14:10:33.106Z</time>
      </trkpt>
      <trkpt lat="48.10716" lon="1.3482">
        <ele>124</ele>
        <time>2018-10-09T14:10:34.106Z</time>
      </trkpt>
      <trkpt lat="48.10715" lon="1.34822">
        <ele>124</ele>
        <time>2018-10-09T14:10:35.106Z</time>
      </trkpt>
      <trkpt lat="48.10715" lon="1.34824">
        <ele>124</ele>
        <time>2018-10-09T14:10:36.106Z</time>
      </trkpt>
      <trkpt lat="48.10715" lon="1.34825">
        <ele>124</ele>
        <time>2018-10-09T14:10:37.106Z</time>
      </trkpt>
      <trkpt lat="48.10714" lon="1.34827">
        <ele>124</ele>
        <time>2018-10-09T14:10:38.106Z</time>
      </trkpt>
      <trkpt lat="48.10714" lon="1.34828">
        <ele>125</ele>
        <time>2018-10-09T14:10:39.106Z</time>
      </trkpt>
      <trkpt lat="48.10713" lon="1.3483">
        <ele>125</ele>
        <time>2018-10-09T14:10:40.106Z</time>
      </trkpt>
      <trkpt lat="48.10713" lon="1.34831">
        <ele>126</ele>
        <time>2018-10-09T14:10:41.106Z</time>
      </trkpt>
      <trkpt lat="48.10712" lon="1.34833">
        <ele>126</ele>
        <time>2018-10-09T14:10:42.106Z</time>
      </trkpt>
      <trkpt lat="48.10712" lon="1.34834">
        <ele>125</ele>
        <time>2018-10-09T14:10:43.106Z</time>
      </trkpt>
      <trkpt lat="48.10712" lon="1.34835">
        <ele>125</ele>
        <time>2018-10-09T14:10:44.106Z</time>
      </trkpt>
      <trkpt lat="48.10711" lon="1.34837">
        <ele>125</ele>
        <time>2018-10-09T14:10:45.106Z</time>
      </trkpt>
      <trkpt lat="48.10711" lon="1.34839">
        <ele>124</ele>
        <time>2018-10-09T14:10:46.106Z</time>
      </trkpt>
      <trkpt lat="48.10711" lon="1.3484">
        <ele>125</ele>
        <time>2018-10-09T14:10:47.106Z</time>
      </trkpt>
      <trkpt lat="48.1071" lon="1.34842">
        <ele>125</ele>
        <time>2018-10-09T14:10:48.106Z</time>
      </trkpt>
      <trkpt lat="48.1071" lon="1.34844">
        <ele>126</ele>
        <time>2018-10-09T14:10:49.106Z</time>
      </trkpt>
      <trkpt lat="48.1071" lon="1.34846">
        <ele>125</ele>
        <time>2018-10-09T14:10:50.106Z</time>
      </trkpt>
      <trkpt lat="48.10709" lon="1.34848">
        <ele>126</ele>
        <time>2018-10-09T14:10:51.106Z</time>
      </trkpt>
      <trkpt lat="48.10708" lon="1.3485">
        <ele>125</ele>
        <time>2018-10-09T14:10:52.106Z</time>
      </trkpt>
      <trkpt lat="48.10708" lon="1.34851">
        <ele>125</ele>
        <time>2018-10-09T14:10:53.106Z</time>
      </trkpt>
      <trkpt lat="48.10707" lon="1.34853">
        <ele>125</ele>
        <time>2018-10-09T14:10:54.106Z</time>
      </trkpt>
      <trkpt lat="48.10706" lon="1.34855">
        <ele>125</ele>
        <time>2018-10-09T14:10:55.106Z</time>
      </trkpt>
      <trkpt lat="48.10706" lon="1.34856">
        <ele>125</ele>
        <time>2018-10-09T14:10:56.106Z</time>
      </trkpt>
      <trkpt lat="48.10705" lon="1.34858">
        <ele>125</ele>
        <time>2018-10-09T14:10:57.106Z</time>
      </trkpt>
      <trkpt lat="48.10704" lon="1.3486">
        <ele>126</ele>
        <time>2018-10-09T14:10:58.106Z</time>
      </trkpt>
      <trkpt lat="48.10704" lon="1.34862">
        <ele>126</ele>
        <time>2018-10-09T14:10:59.106Z</time>
      </trkpt>
      <trkpt lat="48.10703" lon="1.34864">
        <ele>126</ele>
        <time>2018-10-09T14:11:00.106Z</time>
      </trkpt>
      <trkpt lat="48.10703" lon="1.34866">
        <ele>126</ele>
        <time>2018-10-09T14:11:01.106Z</time>
      </trkpt>
      <trkpt lat="48.10702" lon="1.34868">
        <ele>126</ele>
        <time>2018-10-09T14:11:02.106Z</time>
      </trkpt>
      <trkpt lat="48.10702" lon="1.34869">
        <ele>125</ele>
        <time>2018-10-09T14:11:03.106Z</time>
      </trkpt>
      <trkpt lat="48.10701" lon="1.34871">
        <ele>125</ele>
        <time>2018-10-09T14:11:04.106Z</time>
      </trkpt>
      <trkpt lat="48.107" lon="1.34872">
        <ele>125</ele>
        <time>2018-10-09T14:11:05.106Z</time>
      </trkpt>
      <trkpt lat="48.107" lon="1.34874">
        <ele>125</ele>
        <time>2018-10-09T14:11:06.106Z</time>
      </trkpt>
      <trkpt lat="48.10699" lon="1.34875">
        <ele>124</ele>
        <time>2018-10-09T14:11:07.106Z</time>
      </trkpt>
      <trkpt lat="48.10699" lon="1.34876">
        <ele>124</ele>
        <time>2018-10-09T14:11:08.106Z</time>
      </trkpt>
      <trkpt lat="48.10698" lon="1.34877">
        <ele>124</ele>
        <time>2018-10-09T14:11:09.106Z</time>
      </trkpt>
      <trkpt lat="48.10698" lon="1.34879">
        <ele>124</ele>
        <time>2018-10-09T14:11:10.106Z</time>
      </trkpt>
      <trkpt lat="48.10698" lon="1.3488">
        <ele>124</ele>
        <time>2018-10-09T14:11:11.106Z</time>
      </trkpt>
      <trkpt lat="48.10697" lon="1.34881">
        <ele>124</ele>
        <time>2018-10-09T14:11:12.106Z</time>
      </trkpt>
      <trkpt lat="48.10697" lon="1.34883">
        <ele>124</ele>
        <time>2018-10-09T14:11:13.106Z</time>
      </trkpt>
      <trkpt lat="48.10697" lon="1.34885">
        <ele>124</ele>
        <time>2018-10-09T14:11:14.106Z</time>
      </trkpt>
      <trkpt lat="48.10696" lon="1.34886">
        <ele>125</ele>
        <time>2018-10-09T14:11:15.106Z</time>
      </trkpt>
      <trkpt lat="48.10696" lon="1.34888">
        <ele>126</ele>
        <time>2018-10-09T14:11:16.106Z</time>
      </trkpt>
      <trkpt lat="48.10697" lon="1.34889">
        <ele>127</ele>
        <time>2018-10-09T14:11:17.106Z</time>
      </trkpt>
      <trkpt lat="48.10697" lon="1.3489">
        <ele>128</ele>
        <time>2018-10-09T14:11:18.106Z</time>
      </trkpt>
      <trkpt lat="48.10697" lon="1.34892">
        <ele>128</ele>
        <time>2018-10-09T14:11:19.106Z</time>
      </trkpt>
      <trkpt lat="48.10696" lon="1.34893">
        <ele>128</ele>
        <time>2018-10-09T14:11:20.106Z</time>
      </trkpt>
      <trkpt lat="48.10696" lon="1.34895">
        <ele>128</ele>
        <time>2018-10-09T14:11:21.106Z</time>
      </trkpt>
      <trkpt lat="48.10695" lon="1.34897">
        <ele>128</ele>
        <time>2018-10-09T14:11:22.106Z</time>
      </trkpt>
      <trkpt lat="48.10694" lon="1.349">
        <ele>128</ele>
        <time>2018-10-09T14:11:23.106Z</time>
      </trkpt>
      <trkpt lat="48.10693" lon="1.34902">
        <ele>126</ele>
        <time>2018-10-09T14:11:24.106Z</time>
      </trkpt>
      <trkpt lat="48.10691" lon="1.34904">
        <ele>125</ele>
        <time>2018-10-09T14:11:25.106Z</time>
      </trkpt>
      <trkpt lat="48.1069" lon="1.34906">
        <ele>125</ele>
        <time>2018-10-09T14:11:26.106Z</time>
      </trkpt>
      <trkpt lat="48.10689" lon="1.34908">
        <ele>122</ele>
        <time>2018-10-09T14:11:27.106Z</time>
      </trkpt>
      <trkpt lat="48.10688" lon="1.34911">
        <ele>121</ele>
        <time>2018-10-09T14:11:28.106Z</time>
      </trkpt>
      <trkpt lat="48.10686" lon="1.34914">
        <ele>120</ele>
        <time>2018-10-09T14:11:29.106Z</time>
      </trkpt>
      <trkpt lat="48.10685" lon="1.34916">
        <ele>119</ele>
        <time>2018-10-09T14:11:30.106Z</time>
      </trkpt>
      <trkpt lat="48.10684" lon="1.34919">
        <ele>118</ele>
        <time>2018-10-09T14:11:31.106Z</time>
      </trkpt>
      <trkpt lat="48.10683" lon="1.34921">
        <ele>117</ele>
        <time>2018-10-09T14:11:32.106Z</time>
      </trkpt>
      <trkpt lat="48.10683" lon="1.34923">
        <ele>117</ele>
        <time>2018-10-09T14:11:33.106Z</time>
      </trkpt>
      <trkpt lat="48.10682" lon="1.34925">
        <ele>117</ele>
        <time>2018-10-09T14:11:34.106Z</time>
      </trkpt>
      <trkpt lat="48.10682" lon="1.34926">
        <ele>116</ele>
        <time>2018-10-09T14:11:35.106Z</time>
      </trkpt>
      <trkpt lat="48.10682" lon="1.34928">
        <ele>116</ele>
        <time>2018-10-09T14:11:36.106Z</time>
      </trkpt>
      <trkpt lat="48.10682" lon="1.34929">
        <ele>115</ele>
        <time>2018-10-09T14:11:37.106Z</time>
      </trkpt>
      <trkpt lat="48.10681" lon="1.34931">
        <ele>114</ele>
        <time>2018-10-09T14:11:38.106Z</time>
      </trkpt>
      <trkpt lat="48.10681" lon="1.34933">
        <ele>114</ele>
        <time>2018-10-09T14:11:39.106Z</time>
      </trkpt>
      <trkpt lat="48.10681" lon="1.34934">
        <ele>113</ele>
        <time>2018-10-09T14:11:40.106Z</time>
      </trkpt>
      <trkpt lat="48.1068" lon="1.34936">
        <ele>113</ele>
        <time>2018-10-09T14:11:41.106Z</time>
      </trkpt>
      <trkpt lat="48.1068" lon="1.34938">
        <ele>113</ele>
        <time>2018-10-09T14:11:42.106Z</time>
      </trkpt>
      <trkpt lat="48.10679" lon="1.34939">
        <ele>113</ele>
        <time>2018-10-09T14:11:43.106Z</time>
      </trkpt>
      <trkpt lat="48.10679" lon="1.34941">
        <ele>113</ele>
        <time>2018-10-09T14:11:44.106Z</time>
      </trkpt>
      <trkpt lat="48.10679" lon="1.34943">
        <ele>112</ele>
        <time>2018-10-09T14:11:45.106Z</time>
      </trkpt>
      <trkpt lat="48.10679" lon="1.34944">
        <ele>112</ele>
        <time>2018-10-09T14:11:46.106Z</time>
      </trkpt>
      <trkpt lat="48.10679" lon="1.34946">
        <ele>112</ele>
        <time>2018-10-09T14:11:47.106Z</time>
      </trkpt>
      <trkpt lat="48.10678" lon="1.34948">
        <ele>112</ele>
        <time>2018-10-09T14:11:48.106Z</time>
      </trkpt>
      <trkpt lat="48.10678" lon="1.34949">
        <ele>111</ele>
        <time>2018-10-09T14:11:49.106Z</time>
      </trkpt>
      <trkpt lat="48.10677" lon="1.34951">
        <ele>111</ele>
        <time>2018-10-09T14:11:50.106Z</time>
      </trkpt>
      <trkpt lat="48.10677" lon="1.34952">
        <ele>111</ele>
        <time>2018-10-09T14:11:51.106Z</time>
      </trkpt>
      <trkpt lat="48.10676" lon="1.34954">
        <ele>111</ele>
        <time>2018-10-09T14:11:52.106Z</time>
      </trkpt>
      <trkpt lat="48.10676" lon="1.34955">
        <ele>111</ele>
        <time>2018-10-09T14:11:53.106Z</time>
      </trkpt>
      <trkpt lat="48.10675" lon="1.34957">
        <ele>111</ele>
        <time>2018-10-09T14:11:54.106Z</time>
      </trkpt>
      <trkpt lat="48.10675" lon="1.34958">
        <ele>111</ele>
        <time>2018-10-09T14:11:55.106Z</time>
      </trkpt>
      <trkpt lat="48.10674" lon="1.3496">
        <ele>110</ele>
        <time>2018-10-09T14:11:56.106Z</time>
      </trkpt>
      <trkpt lat="48.10673" lon="1.34962">
        <ele>110</ele>
        <time>2018-10-09T14:11:57.106Z</time>
      </trkpt>
      <trkpt lat="48.10672" lon="1.34964">
        <ele>110</ele>
        <time>2018-10-09T14:11:58.106Z</time>
      </trkpt>
      <trkpt lat="48.10671" lon="1.34966">
        <ele>110</ele>
        <time>2018-10-09T14:11:59.106Z</time>
      </trkpt>
      <trkpt lat="48.10671" lon="1.34967">
        <ele>110</ele>
        <time>2018-10-09T14:12:00.106Z</time>
      </trkpt>
      <trkpt lat="48.10671" lon="1.34969">
        <ele>110</ele>
        <time>2018-10-09T14:12:01.106Z</time>
      </trkpt>
      <trkpt lat="48.1067" lon="1.34971">
        <ele>109</ele>
        <time>2018-10-09T14:12:02.106Z</time>
      </trkpt>
      <trkpt lat="48.1067" lon="1.34973">
        <ele>109</ele>
        <time>2018-10-09T14:12:03.106Z</time>
      </trkpt>
      <trkpt lat="48.10669" lon="1.34974">
        <ele>109</ele>
        <time>2018-10-09T14:12:04.106Z</time>
      </trkpt>
      <trkpt lat="48.10669" lon="1.34976">
        <ele>110</ele>
        <time>2018-10-09T14:12:05.106Z</time>
      </trkpt>
      <trkpt lat="48.10668" lon="1.34977">
        <ele>110</ele>
        <time>2018-10-09T14:12:06.106Z</time>
      </trkpt>
      <trkpt lat="48.10668" lon="1.34979">
        <ele>110</ele>
        <time>2018-10-09T14:12:07.106Z</time>
      </trkpt>
      <trkpt lat="48.10667" lon="1.3498">
        <ele>110</ele>
        <time>2018-10-09T14:12:08.106Z</time>
      </trkpt>
      <trkpt lat="48.10666" lon="1.34982">
        <ele>110</ele>
        <time>2018-10-09T14:12:09.106Z</time>
      </trkpt>
      <trkpt lat="48.10666" lon="1.34983">
        <ele>110</ele>
        <time>2018-10-09T14:12:10.106Z</time>
      </trkpt>
      <trkpt lat="48.10665" lon="1.34984">
        <ele>110</ele>
        <time>2018-10-09T14:12:11.106Z</time>
      </trkpt>
      <trkpt lat="48.10665" lon="1.34985">
        <ele>110</ele>
        <time>2018-10-09T14:12:12.106Z</time>
      </trkpt>
      <trkpt lat="48.10664" lon="1.34987">
        <ele>110</ele>
        <time>2018-10-09T14:12:13.106Z</time>
      </trkpt>
      <trkpt lat="48.10663" lon="1.34989">
        <ele>109</ele>
        <time>2018-10-09T14:12:14.106Z</time>
      </trkpt>
      <trkpt lat="48.10662" lon="1.34991">
        <ele>109</ele>
        <time>2018-10-09T14:12:15.106Z</time>
      </trkpt>
      <trkpt lat="48.10661" lon="1.34993">
        <ele>109</ele>
        <time>2018-10-09T14:12:16.106Z</time>
      </trkpt>
      <trkpt lat="48.1066" lon="1.34994">
        <ele>109</ele>
        <time>2018-10-09T14:12:17.106Z</time>
      </trkpt>
      <trkpt lat="48.10659" lon="1.34996">
        <ele>110</ele>
        <time>2018-10-09T14:12:18.106Z</time>
      </trkpt>
      <trkpt lat="48.10659" lon="1.34997">
        <ele>109</ele>
        <time>2018-10-09T14:12:19.106Z</time>
      </trkpt>
      <trkpt lat="48.10658" lon="1.34999">
        <ele>109</ele>
        <time>2018-10-09T14:12:20.106Z</time>
      </trkpt>
      <trkpt lat="48.10657" lon="1.35001">
        <ele>108</ele>
        <time>2018-10-09T14:12:21.106Z</time>
      </trkpt>
      <trkpt lat="48.10657" lon="1.35003">
        <ele>108</ele>
        <time>2018-10-09T14:12:22.106Z</time>
      </trkpt>
      <trkpt lat="48.10656" lon="1.35004">
        <ele>108</ele>
        <time>2018-10-09T14:12:23.106Z</time>
      </trkpt>
      <trkpt lat="48.10656" lon="1.35006">
        <ele>107</ele>
        <time>2018-10-09T14:12:24.106Z</time>
      </trkpt>
      <trkpt lat="48.10655" lon="1.35008">
        <ele>107</ele>
        <time>2018-10-09T14:12:25.106Z</time>
      </trkpt>
      <trkpt lat="48.10654" lon="1.3501">
        <ele>107</ele>
        <time>2018-10-09T14:12:26.106Z</time>
      </trkpt>
      <trkpt lat="48.10654" lon="1.35012">
        <ele>107</ele>
        <time>2018-10-09T14:12:27.106Z</time>
      </trkpt>
      <trkpt lat="48.10654" lon="1.35013">
        <ele>106</ele>
        <time>2018-10-09T14:12:28.106Z</time>
      </trkpt>
      <trkpt lat="48.10654" lon="1.35015">
        <ele>107</ele>
        <time>2018-10-09T14:12:29.106Z</time>
      </trkpt>
      <trkpt lat="48.10654" lon="1.35017">
        <ele>107</ele>
        <time>2018-10-09T14:12:30.106Z</time>
      </trkpt>
      <trkpt lat="48.10654" lon="1.35019">
        <ele>108</ele>
        <time>2018-10-09T14:12:31.106Z</time>
      </trkpt>
      <trkpt lat="48.10653" lon="1.35021">
        <ele>108</ele>
        <time>2018-10-09T14:12:32.106Z</time>
      </trkpt>
      <trkpt lat="48.10653" lon="1.35023">
        <ele>108</ele>
        <time>2018-10-09T14:12:33.106Z</time>
      </trkpt>
      <trkpt lat="48.10652" lon="1.35025">
        <ele>108</ele>
        <time>2018-10-09T14:12:34.106Z</time>
      </trkpt>
      <trkpt lat="48.10651" lon="1.35027">
        <ele>108</ele>
        <time>2018-10-09T14:12:35.106Z</time>
      </trkpt>
      <trkpt lat="48.10651" lon="1.35029">
        <ele>108</ele>
        <time>2018-10-09T14:12:36.106Z</time>
      </trkpt>
      <trkpt lat="48.1065" lon="1.35031">
        <ele>108</ele>
        <time>2018-10-09T14:12:37.106Z</time>
      </trkpt>
      <trkpt lat="48.1065" lon="1.35033">
        <ele>108</ele>
        <time>2018-10-09T14:12:38.106Z</time>
      </trkpt>
      <trkpt lat="48.10649" lon="1.35035">
        <ele>108</ele>
        <time>2018-10-09T14:12:39.106Z</time>
      </trkpt>
      <trkpt lat="48.10648" lon="1.35036">
        <ele>108</ele>
        <time>2018-10-09T14:12:40.106Z</time>
      </trkpt>
      <trkpt lat="48.10648" lon="1.35038">
        <ele>108</ele>
        <time>2018-10-09T14:12:41.106Z</time>
      </trkpt>
      <trkpt lat="48.10647" lon="1.3504">
        <ele>108</ele>
        <time>2018-10-09T14:12:42.106Z</time>
      </trkpt>
      <trkpt lat="48.10647" lon="1.35042">
        <ele>107</ele>
        <time>2018-10-09T14:12:43.106Z</time>
      </trkpt>
      <trkpt lat="48.10646" lon="1.35044">
        <ele>107</ele>
        <time>2018-10-09T14:12:44.106Z</time>
      </trkpt>
      <trkpt lat="48.10645" lon="1.35046">
        <ele>108</ele>
        <time>2018-10-09T14:12:45.106Z</time>
      </trkpt>
      <trkpt lat="48.10645" lon="1.35048">
        <ele>108</ele>
        <time>2018-10-09T14:12:46.106Z</time>
      </trkpt>
      <trkpt lat="48.10644" lon="1.3505">
        <ele>107</ele>
        <time>2018-10-09T14:12:47.106Z</time>
      </trkpt>
      <trkpt lat="48.10644" lon="1.35051">
        <ele>107</ele>
        <time>2018-10-09T14:12:48.106Z</time>
      </trkpt>
      <trkpt lat="48.10643" lon="1.35053">
        <ele>107</ele>
        <time>2018-10-09T14:12:49.106Z</time>
      </trkpt>
      <trkpt lat="48.10643" lon="1.35055">
        <ele>107</ele>
        <time>2018-10-09T14:12:50.106Z</time>
      </trkpt>
      <trkpt lat="48.10643" lon="1.35057">
        <ele>107</ele>
        <time>2018-10-09T14:12:51.106Z</time>
      </trkpt>
      <trkpt lat="48.10643" lon="1.35058">
        <ele>107</ele>
        <time>2018-10-09T14:12:52.106Z</time>
      </trkpt>
      <trkpt lat="48.10643" lon="1.3506">
        <ele>107</ele>
        <time>2018-10-09T14:12:53.106Z</time>
      </trkpt>
      <trkpt lat="48.10642" lon="1.35062">
        <ele>107</ele>
        <time>2018-10-09T14:12:54.106Z</time>
      </trkpt>
      <trkpt lat="48.10642" lon="1.35063">
        <ele>107</ele>
        <time>2018-10-09T14:12:55.106Z</time>
      </trkpt>
      <trkpt lat="48.10641" lon="1.35065">
        <ele>107</ele>
        <time>2018-10-09T14:12:56.106Z</time>
      </trkpt>
      <trkpt lat="48.10641" lon="1.35067">
        <ele>107</ele>
        <time>2018-10-09T14:12:57.106Z</time>
      </trkpt>
      <trkpt lat="48.10641" lon="1.35069">
        <ele>107</ele>
        <time>2018-10-09T14:12:58.106Z</time>
      </trkpt>
      <trkpt lat="48.1064" lon="1.35071">
        <ele>107</ele>
        <time>2018-10-09T14:12:59.106Z</time>
      </trkpt>
      <trkpt lat="48.1064" lon="1.35073">
        <ele>107</ele>
        <time>2018-10-09T14:13:00.106Z</time>
      </trkpt>
      <trkpt lat="48.1064" lon="1.35075">
        <ele>107</ele>
        <time>2018-10-09T14:13:01.106Z</time>
      </trkpt>
      <trkpt lat="48.10639" lon="1.35077">
        <ele>107</ele>
        <time>2018-10-09T14:13:02.106Z</time>
      </trkpt>
      <trkpt lat="48.10639" lon="1.35079">
        <ele>107</ele>
        <time>2018-10-09T14:13:03.106Z</time>
      </trkpt>
      <trkpt lat="48.10639" lon="1.3508">
        <ele>106</ele>
        <time>2018-10-09T14:13:04.106Z</time>
      </trkpt>
      <trkpt lat="48.10638" lon="1.35082">
        <ele>107</ele>
        <time>2018-10-09T14:13:05.106Z</time>
      </trkpt>
      <trkpt lat="48.10638" lon="1.35084">
        <ele>106</ele>
        <time>2018-10-09T14:13:06.106Z</time>
      </trkpt>
      <trkpt lat="48.10638" lon="1.35086">
        <ele>106</ele>
        <time>2018-10-09T14:13:07.106Z</time>
      </trkpt>
      <trkpt lat="48.10638" lon="1.35088">
        <ele>106</ele>
        <time>2018-10-09T14:13:08.106Z</time>
      </trkpt>
      <trkpt lat="48.10637" lon="1.3509">
        <ele>106</ele>
        <time>2018-10-09T14:13:09.106Z</time>
      </trkpt>
      <trkpt lat="48.10637" lon="1.35093">
        <ele>106</ele>
        <time>2018-10-09T14:13:10.106Z</time>
      </trkpt>
      <trkpt lat="48.10637" lon="1.35095">
        <ele>106</ele>
        <time>2018-10-09T14:13:11.106Z</time>
      </trkpt>
      <trkpt lat="48.10637" lon="1.35097">
        <ele>106</ele>
        <time>2018-10-09T14:13:12.106Z</time>
      </trkpt>
      <trkpt lat="48.10637" lon="1.35098">
        <ele>105</ele>
        <time>2018-10-09T14:13:13.106Z</time>
      </trkpt>
      <trkpt lat="48.10636" lon="1.351">
        <ele>105</ele>
        <time>2018-10-09T14:13:14.106Z</time>
      </trkpt>
      <trkpt lat="48.10635" lon="1.35102">
        <ele>105</ele>
        <time>2018-10-09T14:13:15.106Z</time>
      </trkpt>
      <trkpt lat="48.10635" lon="1.35105">
        <ele>104</ele>
        <time>2018-10-09T14:13:16.106Z</time>
      </trkpt>
      <trkpt lat="48.10635" lon="1.35107">
        <ele>104</ele>
        <time>2018-10-09T14:13:17.106Z</time>
      </trkpt>
      <trkpt lat="48.10634" lon="1.35109">
        <ele>104</ele>
        <time>2018-10-09T14:13:18.106Z</time>
      </trkpt>
      <trkpt lat="48.10634" lon="1.35111">
        <ele>104</ele>
        <time>2018-10-09T14:13:19.106Z</time>
      </trkpt>
      <trkpt lat="48.10634" lon="1.35113">
        <ele>104</ele>
        <time>2018-10-09T14:13:20.106Z</time>
      </trkpt>
      <trkpt lat="48.10634" lon="1.35115">
        <ele>104</ele>
        <time>2018-10-09T14:13:21.106Z</time>
      </trkpt>
      <trkpt lat="48.10633" lon="1.35117">
        <ele>104</ele>
        <time>2018-10-09T14:13:22.106Z</time>
      </trkpt>
      <trkpt lat="48.10633" lon="1.35119">
        <ele>104</ele>
        <time>2018-10-09T14:13:23.106Z</time>
      </trkpt>
      <trkpt lat="48.10632" lon="1.35121">
        <ele>104</ele>
        <time>2018-10-09T14:13:24.106Z</time>
      </trkpt>
      <trkpt lat="48.10632" lon="1.35123">
        <ele>105</ele>
        <time>2018-10-09T14:13:25.106Z</time>
      </trkpt>
      <trkpt lat="48.10632" lon="1.35125">
        <ele>105</ele>
        <time>2018-10-09T14:13:26.106Z</time>
      </trkpt>
      <trkpt lat="48.10632" lon="1.35127">
        <ele>105</ele>
        <time>2018-10-09T14:13:27.106Z</time>
      </trkpt>
      <trkpt lat="48.10632" lon="1.35129">
        <ele>105</ele>
        <time>2018-10-09T14:13:28.106Z</time>
      </trkpt>
      <trkpt lat="48.10632" lon="1.35131">
        <ele>105</ele>
        <time>2018-10-09T14:13:29.106Z</time>
      </trkpt>
      <trkpt lat="48.10632" lon="1.35133">
        <ele>105</ele>
        <time>2018-10-09T14:13:30.106Z</time>
      </trkpt>
      <trkpt lat="48.10631" lon="1.35135">
        <ele>104</ele>
        <time>2018-10-09T14:13:31.106Z</time>
      </trkpt>
      <trkpt lat="48.10631" lon="1.35137">
        <ele>104</ele>
        <time>2018-10-09T14:13:32.106Z</time>
      </trkpt>
      <trkpt lat="48.10631" lon="1.35139">
        <ele>104</ele>
        <time>2018-10-09T14:13:33.106Z</time>
      </trkpt>
      <trkpt lat="48.10631" lon="1.3514">
        <ele>105</ele>
        <time>2018-10-09T14:13:34.106Z</time>
      </trkpt>
      <trkpt lat="48.10631" lon="1.35142">
        <ele>105</ele>
        <time>2018-10-09T14:13:35.106Z</time>
      </trkpt>
      <trkpt lat="48.10631" lon="1.35144">
        <ele>105</ele>
        <time>2018-10-09T14:13:36.106Z</time>
      </trkpt>
      <trkpt lat="48.10631" lon="1.35145">
        <ele>105</ele>
        <time>2018-10-09T14:13:37.106Z</time>
      </trkpt>
      <trkpt lat="48.10631" lon="1.35147">
        <ele>105</ele>
        <time>2018-10-09T14:13:38.106Z</time>
      </trkpt>
      <trkpt lat="48.10631" lon="1.35148">
        <ele>105</ele>
        <time>2018-10-09T14:13:39.106Z</time>
      </trkpt>
      <trkpt lat="48.10631" lon="1.3515">
        <ele>105</ele>
        <time>2018-10-09T14:13:40.106Z</time>
      </trkpt>
      <trkpt lat="48.1063" lon="1.35151">
        <ele>105</ele>
        <time>2018-10-09T14:13:41.106Z</time>
      </trkpt>
      <trkpt lat="48.1063" lon="1.35153">
        <ele>105</ele>
        <time>2018-10-09T14:13:42.106Z</time>
      </trkpt>
      <trkpt lat="48.1063" lon="1.35155">
        <ele>106</ele>
        <time>2018-10-09T14:13:43.106Z</time>
      </trkpt>
      <trkpt lat="48.1063" lon="1.35156">
        <ele>107</ele>
        <time>2018-10-09T14:13:44.106Z</time>
      </trkpt>
      <trkpt lat="48.10631" lon="1.35158">
        <ele>108</ele>
        <time>2018-10-09T14:13:45.106Z</time>
      </trkpt>
      <trkpt lat="48.10631" lon="1.3516">
        <ele>108</ele>
        <time>2018-10-09T14:13:46.106Z</time>
      </trkpt>
      <trkpt lat="48.10631" lon="1.35162">
        <ele>108</ele>
        <time>2018-10-09T14:13:47.106Z</time>
      </trkpt>
      <trkpt lat="48.10631" lon="1.35164">
        <ele>108</ele>
        <time>2018-10-09T14:13:48.106Z</time>
      </trkpt>
      <trkpt lat="48.10631" lon="1.35166">
        <ele>109</ele>
        <time>2018-10-09T14:13:49.106Z</time>
      </trkpt>
      <trkpt lat="48.1063" lon="1.35168">
        <ele>108</ele>
        <time>2018-10-09T14:13:50.106Z</time>
      </trkpt>
      <trkpt lat="48.1063" lon="1.35169">
        <ele>108</ele>
        <time>2018-10-09T14:13:51.106Z</time>
      </trkpt>
      <trkpt lat="48.10629" lon="1.35171">
        <ele>108</ele>
        <time>2018-10-09T14:13:52.106Z</time>
      </trkpt>
      <trkpt lat="48.10629" lon="1.35173">
        <ele>108</ele>
        <time>2018-10-09T14:13:53.106Z</time>
      </trkpt>
      <trkpt lat="48.10629" lon="1.35174">
        <ele>108</ele>
        <time>2018-10-09T14:13:54.106Z</time>
      </trkpt>
      <trkpt lat="48.10629" lon="1.35176">
        <ele>107</ele>
        <time>2018-10-09T14:13:55.106Z</time>
      </trkpt>
      <trkpt lat="48.10629" lon="1.35178">
        <ele>107</ele>
        <time>2018-10-09T14:13:56.106Z</time>
      </trkpt>
      <trkpt lat="48.10628" lon="1.35179">
        <ele>107</ele>
        <time>2018-10-09T14:13:57.106Z</time>
      </trkpt>
      <trkpt lat="48.10628" lon="1.35181">
        <ele>106</ele>
        <time>2018-10-09T14:13:58.106Z</time>
      </trkpt>
      <trkpt lat="48.10627" lon="1.35183">
        <ele>106</ele>
        <time>2018-10-09T14:13:59.106Z</time>
      </trkpt>
      <trkpt lat="48.10627" lon="1.35185">
        <ele>106</ele>
        <time>2018-10-09T14:14:00.106Z</time>
      </trkpt>
      <trkpt lat="48.10627" lon="1.35187">
        <ele>106</ele>
        <time>2018-10-09T14:14:01.106Z</time>
      </trkpt>
      <trkpt lat="48.10626" lon="1.3519">
        <ele>107</ele>
        <time>2018-10-09T14:14:02.106Z</time>
      </trkpt>
      <trkpt lat="48.10626" lon="1.35192">
        <ele>107</ele>
        <time>2018-10-09T14:14:03.106Z</time>
      </trkpt>
      <trkpt lat="48.10626" lon="1.35194">
        <ele>107</ele>
        <time>2018-10-09T14:14:04.106Z</time>
      </trkpt>
      <trkpt lat="48.10625" lon="1.35196">
        <ele>107</ele>
        <time>2018-10-09T14:14:05.106Z</time>
      </trkpt>
      <trkpt lat="48.10624" lon="1.35198">
        <ele>108</ele>
        <time>2018-10-09T14:14:06.106Z</time>
      </trkpt>
      <trkpt lat="48.10624" lon="1.352">
        <ele>107</ele>
        <time>2018-10-09T14:14:07.106Z</time>
      </trkpt>
      <trkpt lat="48.10623" lon="1.35202">
        <ele>108</ele>
        <time>2018-10-09T14:14:08.106Z</time>
      </trkpt>
      <trkpt lat="48.10623" lon="1.35204">
        <ele>108</ele>
        <time>2018-10-09T14:14:09.106Z</time>
      </trkpt>
      <trkpt lat="48.10622" lon="1.35206">
        <ele>109</ele>
        <time>2018-10-09T14:14:10.106Z</time>
      </trkpt>
      <trkpt lat="48.10621" lon="1.35208">
        <ele>109</ele>
        <time>2018-10-09T14:14:11.106Z</time>
      </trkpt>
      <trkpt lat="48.10621" lon="1.35211">
        <ele>109</ele>
        <time>2018-10-09T14:14:12.106Z</time>
      </trkpt>
      <trkpt lat="48.1062" lon="1.35213">
        <ele>110</ele>
        <time>2018-10-09T14:14:13.106Z</time>
      </trkpt>
      <trkpt lat="48.1062" lon="1.35215">
        <ele>110</ele>
        <time>2018-10-09T14:14:14.106Z</time>
      </trkpt>
      <trkpt lat="48.1062" lon="1.35217">
        <ele>110</ele>
        <time>2018-10-09T14:14:15.106Z</time>
      </trkpt>
      <trkpt lat="48.1062" lon="1.35218">
        <ele>111</ele>
        <time>2018-10-09T14:14:16.106Z</time>
      </trkpt>
      <trkpt lat="48.10621" lon="1.35219">
        <ele>111</ele>
        <time>2018-10-09T14:14:17.106Z</time>
      </trkpt>
      <trkpt lat="48.10621" lon="1.35221">
        <ele>112</ele>
        <time>2018-10-09T14:14:18.106Z</time>
      </trkpt>
      <trkpt lat="48.10621" lon="1.35222">
        <ele>112</ele>
        <time>2018-10-09T14:14:19.106Z</time>
      </trkpt>
      <trkpt lat="48.10621" lon="1.35224">
        <ele>112</ele>
        <time>2018-10-09T14:14:20.106Z</time>
      </trkpt>
      <trkpt lat="48.10621" lon="1.35226">
        <ele>112</ele>
        <time>2018-10-09T14:14:21.106Z</time>
      </trkpt>
      <trkpt lat="48.10621" lon="1.35227">
        <ele>112</ele>
        <time>2018-10-09T14:14:22.106Z</time>
      </trkpt>
      <trkpt lat="48.10621" lon="1.35229">
        <ele>114</ele>
        <time>2018-10-09T14:14:23.106Z</time>
      </trkpt>
      <trkpt lat="48.10621" lon="1.35231">
        <ele>114</ele>
        <time>2018-10-09T14:14:24.106Z</time>
      </trkpt>
      <trkpt lat="48.10621" lon="1.35233">
        <ele>114</ele>
        <time>2018-10-09T14:14:25.106Z</time>
      </trkpt>
      <trkpt lat="48.10622" lon="1.35235">
        <ele>114</ele>
        <time>2018-10-09T14:14:26.106Z</time>
      </trkpt>
      <trkpt lat="48.10622" lon="1.35237">
        <ele>114</ele>
        <time>2018-10-09T14:14:27.106Z</time>
      </trkpt>
      <trkpt lat="48.10622" lon="1.35239">
        <ele>114</ele>
        <time>2018-10-09T14:14:28.106Z</time>
      </trkpt>
      <trkpt lat="48.10622" lon="1.3524">
        <ele>115</ele>
        <time>2018-10-09T14:14:29.106Z</time>
      </trkpt>
      <trkpt lat="48.10622" lon="1.35242">
        <ele>114</ele>
        <time>2018-10-09T14:14:30.106Z</time>
      </trkpt>
      <trkpt lat="48.10623" lon="1.35245">
        <ele>115</ele>
        <time>2018-10-09T14:14:31.106Z</time>
      </trkpt>
      <trkpt lat="48.10622" lon="1.35247">
        <ele>114</ele>
        <time>2018-10-09T14:14:32.106Z</time>
      </trkpt>
      <trkpt lat="48.10622" lon="1.3525">
        <ele>114</ele>
        <time>2018-10-09T14:14:33.106Z</time>
      </trkpt>
      <trkpt lat="48.10622" lon="1.35252">
        <ele>114</ele>
        <time>2018-10-09T14:14:34.106Z</time>
      </trkpt>
      <trkpt lat="48.10622" lon="1.35255">
        <ele>114</ele>
        <time>2018-10-09T14:14:35.106Z</time>
      </trkpt>
      <trkpt lat="48.10622" lon="1.35257">
        <ele>113</ele>
        <time>2018-10-09T14:14:36.106Z</time>
      </trkpt>
      <trkpt lat="48.10621" lon="1.35259">
        <ele>114</ele>
        <time>2018-10-09T14:14:37.106Z</time>
      </trkpt>
      <trkpt lat="48.10621" lon="1.35261">
        <ele>113</ele>
        <time>2018-10-09T14:14:38.106Z</time>
      </trkpt>
      <trkpt lat="48.1062" lon="1.35263">
        <ele>113</ele>
        <time>2018-10-09T14:14:39.106Z</time>
      </trkpt>
      <trkpt lat="48.1062" lon="1.35265">
        <ele>111</ele>
        <time>2018-10-09T14:14:40.106Z</time>
      </trkpt>
      <trkpt lat="48.10619" lon="1.35268">
        <ele>110</ele>
        <time>2018-10-09T14:14:41.106Z</time>
      </trkpt>
      <trkpt lat="48.10619" lon="1.35269">
        <ele>111</ele>
        <time>2018-10-09T14:14:42.106Z</time>
      </trkpt>
      <trkpt lat="48.10619" lon="1.35271">
        <ele>110</ele>
        <time>2018-10-09T14:14:43.106Z</time>
      </trkpt>
      <trkpt lat="48.10619" lon="1.35273">
        <ele>109</ele>
        <time>2018-10-09T14:14:44.106Z</time>
      </trkpt>
      <trkpt lat="48.10619" lon="1.35275">
        <ele>108</ele>
        <time>2018-10-09T14:14:45.106Z</time>
      </trkpt>
      <trkpt lat="48.10619" lon="1.35277">
        <ele>108</ele>
        <time>2018-10-09T14:14:46.106Z</time>
      </trkpt>
      <trkpt lat="48.10619" lon="1.35279">
        <ele>108</ele>
        <time>2018-10-09T14:14:47.106Z</time>
      </trkpt>
      <trkpt lat="48.10619" lon="1.3528">
        <ele>108</ele>
        <time>2018-10-09T14:14:48.106Z</time>
      </trkpt>
      <trkpt lat="48.10619" lon="1.35282">
        <ele>108</ele>
        <time>2018-10-09T14:14:49.106Z</time>
      </trkpt>
      <trkpt lat="48.10619" lon="1.35284">
        <ele>108</ele>
        <time>2018-10-09T14:14:50.106Z</time>
      </trkpt>
      <trkpt lat="48.10618" lon="1.35286">
        <ele>109</ele>
        <time>2018-10-09T14:14:51.106Z</time>
      </trkpt>
      <trkpt lat="48.10618" lon="1.35288">
        <ele>110</ele>
        <time>2018-10-09T14:14:52.106Z</time>
      </trkpt>
      <trkpt lat="48.10618" lon="1.3529">
        <ele>110</ele>
        <time>2018-10-09T14:14:53.106Z</time>
      </trkpt>
      <trkpt lat="48.10618" lon="1.35293">
        <ele>110</ele>
        <time>2018-10-09T14:14:54.106Z</time>
      </trkpt>
      <trkpt lat="48.10618" lon="1.35295">
        <ele>110</ele>
        <time>2018-10-09T14:14:55.106Z</time>
      </trkpt>
      <trkpt lat="48.10617" lon="1.35296">
        <ele>111</ele>
        <time>2018-10-09T14:14:56.106Z</time>
      </trkpt>
      <trkpt lat="48.10617" lon="1.35298">
        <ele>111</ele>
        <time>2018-10-09T14:14:57.106Z</time>
      </trkpt>
      <trkpt lat="48.10617" lon="1.353">
        <ele>111</ele>
        <time>2018-10-09T14:14:58.106Z</time>
      </trkpt>
      <trkpt lat="48.10616" lon="1.35303">
        <ele>112</ele>
        <time>2018-10-09T14:14:59.106Z</time>
      </trkpt>
      <trkpt lat="48.10616" lon="1.35305">
        <ele>112</ele>
        <time>2018-10-09T14:15:00.106Z</time>
      </trkpt>
      <trkpt lat="48.10616" lon="1.35307">
        <ele>113</ele>
        <time>2018-10-09T14:15:01.106Z</time>
      </trkpt>
      <trkpt lat="48.10616" lon="1.35308">
        <ele>113</ele>
        <time>2018-10-09T14:15:02.106Z</time>
      </trkpt>
      <trkpt lat="48.10616" lon="1.3531">
        <ele>113</ele>
        <time>2018-10-09T14:15:03.106Z</time>
      </trkpt>
      <trkpt lat="48.10616" lon="1.35312">
        <ele>113</ele>
        <time>2018-10-09T14:15:04.106Z</time>
      </trkpt>
      <trkpt lat="48.10616" lon="1.35313">
        <ele>113</ele>
        <time>2018-10-09T14:15:05.106Z</time>
      </trkpt>
      <trkpt lat="48.10616" lon="1.35315">
        <ele>113</ele>
        <time>2018-10-09T14:15:06.106Z</time>
      </trkpt>
      <trkpt lat="48.10617" lon="1.35317">
        <ele>114</ele>
        <time>2018-10-09T14:15:07.106Z</time>
      </trkpt>
      <trkpt lat="48.10617" lon="1.35318">
        <ele>115</ele>
        <time>2018-10-09T14:15:08.106Z</time>
      </trkpt>
      <trkpt lat="48.10617" lon="1.3532">
        <ele>114</ele>
        <time>2018-10-09T14:15:09.106Z</time>
      </trkpt>
      <trkpt lat="48.10617" lon="1.35322">
        <ele>115</ele>
        <time>2018-10-09T14:15:10.106Z</time>
      </trkpt>
      <trkpt lat="48.10617" lon="1.35323">
        <ele>115</ele>
        <time>2018-10-09T14:15:11.106Z</time>
      </trkpt>
      <trkpt lat="48.10618" lon="1.35325">
        <ele>117</ele>
        <time>2018-10-09T14:15:12.106Z</time>
      </trkpt>
      <trkpt lat="48.10618" lon="1.35327">
        <ele>118</ele>
        <time>2018-10-09T14:15:13.106Z</time>
      </trkpt>
      <trkpt lat="48.10618" lon="1.35329">
        <ele>118</ele>
        <time>2018-10-09T14:15:14.106Z</time>
      </trkpt>
      <trkpt lat="48.10618" lon="1.35331">
        <ele>119</ele>
        <time>2018-10-09T14:15:15.106Z</time>
      </trkpt>
      <trkpt lat="48.10618" lon="1.35333">
        <ele>119</ele>
        <time>2018-10-09T14:15:16.106Z</time>
      </trkpt>
      <trkpt lat="48.10618" lon="1.35335">
        <ele>119</ele>
        <time>2018-10-09T14:15:17.106Z</time>
      </trkpt>
      <trkpt lat="48.10618" lon="1.35337">
        <ele>119</ele>
        <time>2018-10-09T14:15:18.106Z</time>
      </trkpt>
      <trkpt lat="48.10618" lon="1.35339">
        <ele>119</ele>
        <time>2018-10-09T14:15:19.106Z</time>
      </trkpt>
      <trkpt lat="48.10618" lon="1.35341">
        <ele>119</ele>
        <time>2018-10-09T14:15:20.106Z</time>
      </trkpt>
      <trkpt lat="48.10618" lon="1.35343">
        <ele>118</ele>
        <time>2018-10-09T14:15:21.106Z</time>
      </trkpt>
      <trkpt lat="48.10617" lon="1.35344">
        <ele>118</ele>
        <time>2018-10-09T14:15:22.106Z</time>
      </trkpt>
      <trkpt lat="48.10617" lon="1.35346">
        <ele>117</ele>
        <time>2018-10-09T14:15:23.106Z</time>
      </trkpt>
      <trkpt lat="48.10616" lon="1.35348">
        <ele>117</ele>
        <time>2018-10-09T14:15:24.106Z</time>
      </trkpt>
      <trkpt lat="48.10615" lon="1.3535">
        <ele>117</ele>
        <time>2018-10-09T14:15:25.106Z</time>
      </trkpt>
      <trkpt lat="48.10615" lon="1.35351">
        <ele>117</ele>
        <time>2018-10-09T14:15:26.106Z</time>
      </trkpt>
      <trkpt lat="48.10614" lon="1.35353">
        <ele>117</ele>
        <time>2018-10-09T14:15:27.106Z</time>
      </trkpt>
      <trkpt lat="48.10614" lon="1.35355">
        <ele>117</ele>
        <time>2018-10-09T14:15:28.106Z</time>
      </trkpt>
      <trkpt lat="48.10613" lon="1.35357">
        <ele>118</ele>
        <time>2018-10-09T14:15:29.106Z</time>
      </trkpt>
      <trkpt lat="48.10613" lon="1.35359">
        <ele>119</ele>
        <time>2018-10-09T14:15:30.106Z</time>
      </trkpt>
      <trkpt lat="48.10613" lon="1.35361">
        <ele>119</ele>
        <time>2018-10-09T14:15:31.106Z</time>
      </trkpt>
      <trkpt lat="48.10614" lon="1.35362">
        <ele>120</ele>
        <time>2018-10-09T14:15:32.106Z</time>
      </trkpt>
      <trkpt lat="48.10614" lon="1.35365">
        <ele>121</ele>
        <time>2018-10-09T14:15:33.106Z</time>
      </trkpt>
      <trkpt lat="48.10614" lon="1.35367">
        <ele>122</ele>
        <time>2018-10-09T14:15:34.106Z</time>
      </trkpt>
      <trkpt lat="48.10615" lon="1.35368">
        <ele>123</ele>
        <time>2018-10-09T14:15:35.106Z</time>
      </trkpt>
      <trkpt lat="48.10615" lon="1.3537">
        <ele>123</ele>
        <time>2018-10-09T14:15:36.106Z</time>
      </trkpt>
      <trkpt lat="48.10615" lon="1.35371">
        <ele>124</ele>
        <time>2018-10-09T14:15:37.106Z</time>
      </trkpt>
      <trkpt lat="48.10615" lon="1.35373">
        <ele>123</ele>
        <time>2018-10-09T14:15:38.106Z</time>
      </trkpt>
      <trkpt lat="48.10615" lon="1.35375">
        <ele>122</ele>
        <time>2018-10-09T14:15:39.106Z</time>
      </trkpt>
      <trkpt lat="48.10614" lon="1.35378">
        <ele>121</ele>
        <time>2018-10-09T14:15:40.106Z</time>
      </trkpt>
      <trkpt lat="48.10613" lon="1.3538">
        <ele>120</ele>
        <time>2018-10-09T14:15:41.106Z</time>
      </trkpt>
      <trkpt lat="48.10613" lon="1.35382">
        <ele>119</ele>
        <time>2018-10-09T14:15:42.106Z</time>
      </trkpt>
      <trkpt lat="48.10612" lon="1.35384">
        <ele>120</ele>
        <time>2018-10-09T14:15:43.106Z</time>
      </trkpt>
      <trkpt lat="48.10612" lon="1.35386">
        <ele>119</ele>
        <time>2018-10-09T14:15:44.106Z</time>
      </trkpt>
      <trkpt lat="48.10611" lon="1.35388">
        <ele>118</ele>
        <time>2018-10-09T14:15:45.106Z</time>
      </trkpt>
      <trkpt lat="48.10611" lon="1.3539">
        <ele>118</ele>
        <time>2018-10-09T14:15:46.106Z</time>
      </trkpt>
      <trkpt lat="48.1061" lon="1.35391">
        <ele>117</ele>
        <time>2018-10-09T14:15:47.106Z</time>
      </trkpt>
      <trkpt lat="48.10609" lon="1.35393">
        <ele>117</ele>
        <time>2018-10-09T14:15:48.106Z</time>
      </trkpt>
      <trkpt lat="48.10609" lon="1.35395">
        <ele>116</ele>
        <time>2018-10-09T14:15:49.106Z</time>
      </trkpt>
      <trkpt lat="48.10608" lon="1.35398">
        <ele>116</ele>
        <time>2018-10-09T14:15:50.106Z</time>
      </trkpt>
      <trkpt lat="48.10608" lon="1.354">
        <ele>116</ele>
        <time>2018-10-09T14:15:51.106Z</time>
      </trkpt>
      <trkpt lat="48.10608" lon="1.35401">
        <ele>116</ele>
        <time>2018-10-09T14:15:52.106Z</time>
      </trkpt>
      <trkpt lat="48.10608" lon="1.35403">
        <ele>117</ele>
        <time>2018-10-09T14:15:53.106Z</time>
      </trkpt>
      <trkpt lat="48.10607" lon="1.35405">
        <ele>117</ele>
        <time>2018-10-09T14:15:54.106Z</time>
      </trkpt>
      <trkpt lat="48.10606" lon="1.35408">
        <ele>117</ele>
        <time>2018-10-09T14:15:55.106Z</time>
      </trkpt>
      <trkpt lat="48.10606" lon="1.3541">
        <ele>118</ele>
        <time>2018-10-09T14:15:56.106Z</time>
      </trkpt>
      <trkpt lat="48.10607" lon="1.35411">
        <ele>118</ele>
        <time>2018-10-09T14:15:57.106Z</time>
      </trkpt>
      <trkpt lat="48.10607" lon="1.35413">
        <ele>117</ele>
        <time>2018-10-09T14:15:58.106Z</time>
      </trkpt>
      <trkpt lat="48.10607" lon="1.35415">
        <ele>116</ele>
        <time>2018-10-09T14:15:59.106Z</time>
      </trkpt>
      <trkpt lat="48.10606" lon="1.35417">
        <ele>116</ele>
        <time>2018-10-09T14:16:00.106Z</time>
      </trkpt>
      <trkpt lat="48.10606" lon="1.35419">
        <ele>116</ele>
        <time>2018-10-09T14:16:01.106Z</time>
      </trkpt>
      <trkpt lat="48.10605" lon="1.35421">
        <ele>116</ele>
        <time>2018-10-09T14:16:02.106Z</time>
      </trkpt>
      <trkpt lat="48.10605" lon="1.35423">
        <ele>116</ele>
        <time>2018-10-09T14:16:03.106Z</time>
      </trkpt>
      <trkpt lat="48.10604" lon="1.35425">
        <ele>116</ele>
        <time>2018-10-09T14:16:04.106Z</time>
      </trkpt>
      <trkpt lat="48.10604" lon="1.35428">
        <ele>116</ele>
        <time>2018-10-09T14:16:05.106Z</time>
      </trkpt>
      <trkpt lat="48.10604" lon="1.3543">
        <ele>116</ele>
        <time>2018-10-09T14:16:06.106Z</time>
      </trkpt>
      <trkpt lat="48.10604" lon="1.35432">
        <ele>116</ele>
        <time>2018-10-09T14:16:07.106Z</time>
      </trkpt>
      <trkpt lat="48.10604" lon="1.35434">
        <ele>115</ele>
        <time>2018-10-09T14:16:08.106Z</time>
      </trkpt>
      <trkpt lat="48.10604" lon="1.35436">
        <ele>116</ele>
        <time>2018-10-09T14:16:09.106Z</time>
      </trkpt>
      <trkpt lat="48.10604" lon="1.35438">
        <ele>115</ele>
        <time>2018-10-09T14:16:10.106Z</time>
      </trkpt>
      <trkpt lat="48.10604" lon="1.3544">
        <ele>115</ele>
        <time>2018-10-09T14:16:11.106Z</time>
      </trkpt>
      <trkpt lat="48.10604" lon="1.35441">
        <ele>114</ele>
        <time>2018-10-09T14:16:12.106Z</time>
      </trkpt>
      <trkpt lat="48.10604" lon="1.35443">
        <ele>115</ele>
        <time>2018-10-09T14:16:13.106Z</time>
      </trkpt>
      <trkpt lat="48.10604" lon="1.35445">
        <ele>115</ele>
        <time>2018-10-09T14:16:14.106Z</time>
      </trkpt>
      <trkpt lat="48.10604" lon="1.35447">
        <ele>115</ele>
        <time>2018-10-09T14:16:15.106Z</time>
      </trkpt>
      <trkpt lat="48.10604" lon="1.35449">
        <ele>115</ele>
        <time>2018-10-09T14:16:16.106Z</time>
      </trkpt>
      <trkpt lat="48.10604" lon="1.35451">
        <ele>115</ele>
        <time>2018-10-09T14:16:17.106Z</time>
      </trkpt>
      <trkpt lat="48.10604" lon="1.35452">
        <ele>114</ele>
        <time>2018-10-09T14:16:18.106Z</time>
      </trkpt>
      <trkpt lat="48.10604" lon="1.35454">
        <ele>114</ele>
        <time>2018-10-09T14:16:19.106Z</time>
      </trkpt>
      <trkpt lat="48.10604" lon="1.35456">
        <ele>113</ele>
        <time>2018-10-09T14:16:20.106Z</time>
      </trkpt>
      <trkpt lat="48.10604" lon="1.35459">
        <ele>113</ele>
        <time>2018-10-09T14:16:21.106Z</time>
      </trkpt>
      <trkpt lat="48.10603" lon="1.35461">
        <ele>114</ele>
        <time>2018-10-09T14:16:22.106Z</time>
      </trkpt>
      <trkpt lat="48.10603" lon="1.35463">
        <ele>113</ele>
        <time>2018-10-09T14:16:23.106Z</time>
      </trkpt>
      <trkpt lat="48.10603" lon="1.35465">
        <ele>113</ele>
        <time>2018-10-09T14:16:24.106Z</time>
      </trkpt>
      <trkpt lat="48.10603" lon="1.35466">
        <ele>113</ele>
        <time>2018-10-09T14:16:25.106Z</time>
      </trkpt>
      <trkpt lat="48.10603" lon="1.35468">
        <ele>113</ele>
        <time>2018-10-09T14:16:26.106Z</time>
      </trkpt>
      <trkpt lat="48.10603" lon="1.3547">
        <ele>113</ele>
        <time>2018-10-09T14:16:27.106Z</time>
      </trkpt>
      <trkpt lat="48.10603" lon="1.35472">
        <ele>114</ele>
        <time>2018-10-09T14:16:28.106Z</time>
      </trkpt>
      <trkpt lat="48.10603" lon="1.35474">
        <ele>114</ele>
        <time>2018-10-09T14:16:29.106Z</time>
      </trkpt>
      <trkpt lat="48.10603" lon="1.35476">
        <ele>114</ele>
        <time>2018-10-09T14:16:30.106Z</time>
      </trkpt>
      <trkpt lat="48.10603" lon="1.35478">
        <ele>114</ele>
        <time>2018-10-09T14:16:31.106Z</time>
      </trkpt>
      <trkpt lat="48.10603" lon="1.3548">
        <ele>113</ele>
        <time>2018-10-09T14:16:32.106Z</time>
      </trkpt>
      <trkpt lat="48.10603" lon="1.35482">
        <ele>114</ele>
        <time>2018-10-09T14:16:33.106Z</time>
      </trkpt>
      <trkpt lat="48.10603" lon="1.35484">
        <ele>114</ele>
        <time>2018-10-09T14:16:34.106Z</time>
      </trkpt>
      <trkpt lat="48.10603" lon="1.35486">
        <ele>115</ele>
        <time>2018-10-09T14:16:35.106Z</time>
      </trkpt>
      <trkpt lat="48.10603" lon="1.35488">
        <ele>116</ele>
        <time>2018-10-09T14:16:36.106Z</time>
      </trkpt>
      <trkpt lat="48.10603" lon="1.3549">
        <ele>117</ele>
        <time>2018-10-09T14:16:37.106Z</time>
      </trkpt>
      <trkpt lat="48.10604" lon="1.35492">
        <ele>118</ele>
        <time>2018-10-09T14:16:38.106Z</time>
      </trkpt>
      <trkpt lat="48.10604" lon="1.35494">
        <ele>118</ele>
        <time>2018-10-09T14:16:39.106Z</time>
      </trkpt>
      <trkpt lat="48.10604" lon="1.35496">
        <ele>119</ele>
        <time>2018-10-09T14:16:40.106Z</time>
      </trkpt>
      <trkpt lat="48.10604" lon="1.35497">
        <ele>119</ele>
        <time>2018-10-09T14:16:41.106Z</time>
      </trkpt>
      <trkpt lat="48.10604" lon="1.35499">
        <ele>120</ele>
        <time>2018-10-09T14:16:42.106Z</time>
      </trkpt>
      <trkpt lat="48.10604" lon="1.35501">
        <ele>119</ele>
        <time>2018-10-09T14:16:43.106Z</time>
      </trkpt>
      <trkpt lat="48.10604" lon="1.35502">
        <ele>119</ele>
        <time>2018-10-09T14:16:44.106Z</time>
      </trkpt>
      <trkpt lat="48.10604" lon="1.35504">
        <ele>119</ele>
        <time>2018-10-09T14:16:45.106Z</time>
      </trkpt>
      <trkpt lat="48.10603" lon="1.35505">
        <ele>119</ele>
        <time>2018-10-09T14:16:46.106Z</time>
      </trkpt>
      <trkpt lat="48.10603" lon="1.35507">
        <ele>118</ele>
        <time>2018-10-09T14:16:47.106Z</time>
      </trkpt>
      <trkpt lat="48.10602" lon="1.35509">
        <ele>117</ele>
        <time>2018-10-09T14:16:48.106Z</time>
      </trkpt>
      <trkpt lat="48.10602" lon="1.35511">
        <ele>118</ele>
        <time>2018-10-09T14:16:49.106Z</time>
      </trkpt>
      <trkpt lat="48.10602" lon="1.35513">
        <ele>118</ele>
        <time>2018-10-09T14:16:50.106Z</time>
      </trkpt>
      <trkpt lat="48.10602" lon="1.35514">
        <ele>118</ele>
        <time>2018-10-09T14:16:51.106Z</time>
      </trkpt>
      <trkpt lat="48.10603" lon="1.35516">
        <ele>116</ele>
        <time>2018-10-09T14:16:52.106Z</time>
      </trkpt>
      <trkpt lat="48.10603" lon="1.35519">
        <ele>115</ele>
        <time>2018-10-09T14:16:53.106Z</time>
      </trkpt>
      <trkpt lat="48.10603" lon="1.35521">
        <ele>115</ele>
        <time>2018-10-09T14:16:54.106Z</time>
      </trkpt>
      <trkpt lat="48.10604" lon="1.35523">
        <ele>114</ele>
        <time>2018-10-09T14:16:55.106Z</time>
      </trkpt>
      <trkpt lat="48.10604" lon="1.35524">
        <ele>114</ele>
        <time>2018-10-09T14:16:56.106Z</time>
      </trkpt>
      <trkpt lat="48.10604" lon="1.35526">
        <ele>114</ele>
        <time>2018-10-09T14:16:57.106Z</time>
      </trkpt>
      <trkpt lat="48.10604" lon="1.35527">
        <ele>113</ele>
        <time>2018-10-09T14:16:58.106Z</time>
      </trkpt>
      <trkpt lat="48.10604" lon="1.35529">
        <ele>114</ele>
        <time>2018-10-09T14:16:59.106Z</time>
      </trkpt>
      <trkpt lat="48.10605" lon="1.3553">
        <ele>114</ele>
        <time>2018-10-09T14:17:00.106Z</time>
      </trkpt>
      <trkpt lat="48.10605" lon="1.35532">
        <ele>116</ele>
        <time>2018-10-09T14:17:01.106Z</time>
      </trkpt>
      <trkpt lat="48.10605" lon="1.35534">
        <ele>116</ele>
        <time>2018-10-09T14:17:02.106Z</time>
      </trkpt>
      <trkpt lat="48.10605" lon="1.35536">
        <ele>116</ele>
        <time>2018-10-09T14:17:03.106Z</time>
      </trkpt>
      <trkpt lat="48.10605" lon="1.35538">
        <ele>116</ele>
        <time>2018-10-09T14:17:04.106Z</time>
      </trkpt>
      <trkpt lat="48.10606" lon="1.3554">
        <ele>116</ele>
        <time>2018-10-09T14:17:05.106Z</time>
      </trkpt>
      <trkpt lat="48.10606" lon="1.35542">
        <ele>116</ele>
        <time>2018-10-09T14:17:06.106Z</time>
      </trkpt>
      <trkpt lat="48.10607" lon="1.35544">
        <ele>116</ele>
        <time>2018-10-09T14:17:07.106Z</time>
      </trkpt>
      <trkpt lat="48.10607" lon="1.35546">
        <ele>117</ele>
        <time>2018-10-09T14:17:08.106Z</time>
      </trkpt>
      <trkpt lat="48.10607" lon="1.35548">
        <ele>118</ele>
        <time>2018-10-09T14:17:09.106Z</time>
      </trkpt>
      <trkpt lat="48.10607" lon="1.3555">
        <ele>118</ele>
        <time>2018-10-09T14:17:10.106Z</time>
      </trkpt>
      <trkpt lat="48.10607" lon="1.35552">
        <ele>119</ele>
        <time>2018-10-09T14:17:11.106Z</time>
      </trkpt>
      <trkpt lat="48.10607" lon="1.35555">
        <ele>120</ele>
        <time>2018-10-09T14:17:12.106Z</time>
      </trkpt>
      <trkpt lat="48.10607" lon="1.35557">
        <ele>120</ele>
        <time>2018-10-09T14:17:13.106Z</time>
      </trkpt>
      <trkpt lat="48.10607" lon="1.35558">
        <ele>120</ele>
        <time>2018-10-09T14:17:14.106Z</time>
      </trkpt>
      <trkpt lat="48.10607" lon="1.3556">
        <ele>122</ele>
        <time>2018-10-09T14:17:15.106Z</time>
      </trkpt>
      <trkpt lat="48.10607" lon="1.35562">
        <ele>122</ele>
        <time>2018-10-09T14:17:16.106Z</time>
      </trkpt>
      <trkpt lat="48.10606" lon="1.35563">
        <ele>122</ele>
        <time>2018-10-09T14:17:17.106Z</time>
      </trkpt>
      <trkpt lat="48.10606" lon="1.35565">
        <ele>122</ele>
        <time>2018-10-09T14:17:18.106Z</time>
      </trkpt>
      <trkpt lat="48.10606" lon="1.35568">
        <ele>121</ele>
        <time>2018-10-09T14:17:19.106Z</time>
      </trkpt>
      <trkpt lat="48.10606" lon="1.3557">
        <ele>121</ele>
        <time>2018-10-09T14:17:20.106Z</time>
      </trkpt>
      <trkpt lat="48.10606" lon="1.35572">
        <ele>121</ele>
        <time>2018-10-09T14:17:21.106Z</time>
      </trkpt>
      <trkpt lat="48.10606" lon="1.35574">
        <ele>121</ele>
        <time>2018-10-09T14:17:22.106Z</time>
      </trkpt>
      <trkpt lat="48.10606" lon="1.35576">
        <ele>120</ele>
        <time>2018-10-09T14:17:23.106Z</time>
      </trkpt>
      <trkpt lat="48.10605" lon="1.35577">
        <ele>119</ele>
        <time>2018-10-09T14:17:24.106Z</time>
      </trkpt>
      <trkpt lat="48.10605" lon="1.35579">
        <ele>119</ele>
        <time>2018-10-09T14:17:25.106Z</time>
      </trkpt>
      <trkpt lat="48.10604" lon="1.35581">
        <ele>119</ele>
        <time>2018-10-09T14:17:26.106Z</time>
      </trkpt>
      <trkpt lat="48.10604" lon="1.35582">
        <ele>119</ele>
        <time>2018-10-09T14:17:27.106Z</time>
      </trkpt>
      <trkpt lat="48.10604" lon="1.35584">
        <ele>119</ele>
        <time>2018-10-09T14:17:28.106Z</time>
      </trkpt>
      <trkpt lat="48.10604" lon="1.35586">
        <ele>119</ele>
        <time>2018-10-09T14:17:29.106Z</time>
      </trkpt>
      <trkpt lat="48.10604" lon="1.35587">
        <ele>117</ele>
        <time>2018-10-09T14:17:30.106Z</time>
      </trkpt>
      <trkpt lat="48.10604" lon="1.35589">
        <ele>117</ele>
        <time>2018-10-09T14:17:31.106Z</time>
      </trkpt>
      <trkpt lat="48.10604" lon="1.35591">
        <ele>116</ele>
        <time>2018-10-09T14:17:32.106Z</time>
      </trkpt>
      <trkpt lat="48.10603" lon="1.35593">
        <ele>115</ele>
        <time>2018-10-09T14:17:33.106Z</time>
      </trkpt>
      <trkpt lat="48.10603" lon="1.35595">
        <ele>114</ele>
        <time>2018-10-09T14:17:34.106Z</time>
      </trkpt>
      <trkpt lat="48.10603" lon="1.35598">
        <ele>113</ele>
        <time>2018-10-09T14:17:35.106Z</time>
      </trkpt>
      <trkpt lat="48.10603" lon="1.356">
        <ele>112</ele>
        <time>2018-10-09T14:17:36.106Z</time>
      </trkpt>
      <trkpt lat="48.10603" lon="1.35603">
        <ele>112</ele>
        <time>2018-10-09T14:17:37.106Z</time>
      </trkpt>
      <trkpt lat="48.10602" lon="1.35605">
        <ele>112</ele>
        <time>2018-10-09T14:17:38.106Z</time>
      </trkpt>
      <trkpt lat="48.10602" lon="1.35607">
        <ele>111</ele>
        <time>2018-10-09T14:17:39.106Z</time>
      </trkpt>
      <trkpt lat="48.10601" lon="1.35609">
        <ele>111</ele>
        <time>2018-10-09T14:17:40.106Z</time>
      </trkpt>
      <trkpt lat="48.10601" lon="1.35611">
        <ele>111</ele>
        <time>2018-10-09T14:17:41.106Z</time>
      </trkpt>
      <trkpt lat="48.106" lon="1.35613">
        <ele>110</ele>
        <time>2018-10-09T14:17:42.106Z</time>
      </trkpt>
      <trkpt lat="48.10599" lon="1.35616">
        <ele>110</ele>
        <time>2018-10-09T14:17:43.106Z</time>
      </trkpt>
      <trkpt lat="48.10598" lon="1.35618">
        <ele>110</ele>
        <time>2018-10-09T14:17:44.106Z</time>
      </trkpt>
      <trkpt lat="48.10598" lon="1.3562">
        <ele>109</ele>
        <time>2018-10-09T14:17:45.106Z</time>
      </trkpt>
      <trkpt lat="48.10597" lon="1.35622">
        <ele>109</ele>
        <time>2018-10-09T14:17:46.106Z</time>
      </trkpt>
      <trkpt lat="48.10597" lon="1.35625">
        <ele>110</ele>
        <time>2018-10-09T14:17:47.106Z</time>
      </trkpt>
      <trkpt lat="48.10597" lon="1.35627">
        <ele>110</ele>
        <time>2018-10-09T14:17:48.106Z</time>
      </trkpt>
      <trkpt lat="48.10597" lon="1.3563">
        <ele>111</ele>
        <time>2018-10-09T14:17:49.106Z</time>
      </trkpt>
      <trkpt lat="48.10597" lon="1.35633">
        <ele>111</ele>
        <time>2018-10-09T14:17:50.106Z</time>
      </trkpt>
      <trkpt lat="48.10597" lon="1.35635">
        <ele>111</ele>
        <time>2018-10-09T14:17:51.106Z</time>
      </trkpt>
      <trkpt lat="48.10596" lon="1.35637">
        <ele>111</ele>
        <time>2018-10-09T14:17:52.106Z</time>
      </trkpt>
      <trkpt lat="48.10596" lon="1.35639">
        <ele>110</ele>
        <time>2018-10-09T14:17:53.106Z</time>
      </trkpt>
      <trkpt lat="48.10596" lon="1.35641">
        <ele>109</ele>
        <time>2018-10-09T14:17:54.106Z</time>
      </trkpt>
      <trkpt lat="48.10596" lon="1.35642">
        <ele>109</ele>
        <time>2018-10-09T14:17:55.106Z</time>
      </trkpt>
      <trkpt lat="48.10595" lon="1.35644">
        <ele>109</ele>
        <time>2018-10-09T14:17:56.106Z</time>
      </trkpt>
      <trkpt lat="48.10595" lon="1.35646">
        <ele>109</ele>
        <time>2018-10-09T14:17:57.106Z</time>
      </trkpt>
      <trkpt lat="48.10594" lon="1.35648">
        <ele>108</ele>
        <time>2018-10-09T14:17:58.106Z</time>
      </trkpt>
      <trkpt lat="48.10594" lon="1.3565">
        <ele>108</ele>
        <time>2018-10-09T14:17:59.106Z</time>
      </trkpt>
      <trkpt lat="48.10594" lon="1.35652">
        <ele>108</ele>
        <time>2018-10-09T14:18:00.106Z</time>
      </trkpt>
      <trkpt lat="48.10593" lon="1.35654">
        <ele>108</ele>
        <time>2018-10-09T14:18:01.106Z</time>
      </trkpt>
      <trkpt lat="48.10593" lon="1.35656">
        <ele>108</ele>
        <time>2018-10-09T14:18:02.106Z</time>
      </trkpt>
      <trkpt lat="48.10593" lon="1.35658">
        <ele>108</ele>
        <time>2018-10-09T14:18:03.106Z</time>
      </trkpt>
      <trkpt lat="48.10593" lon="1.3566">
        <ele>108</ele>
        <time>2018-10-09T14:18:04.106Z</time>
      </trkpt>
      <trkpt lat="48.10592" lon="1.35662">
        <ele>108</ele>
        <time>2018-10-09T14:18:05.106Z</time>
      </trkpt>
      <trkpt lat="48.10592" lon="1.35664">
        <ele>108</ele>
        <time>2018-10-09T14:18:06.106Z</time>
      </trkpt>
      <trkpt lat="48.10592" lon="1.35666">
        <ele>109</ele>
        <time>2018-10-09T14:18:07.106Z</time>
      </trkpt>
      <trkpt lat="48.10591" lon="1.35668">
        <ele>108</ele>
        <time>2018-10-09T14:18:08.106Z</time>
      </trkpt>
      <trkpt lat="48.10591" lon="1.3567">
        <ele>109</ele>
        <time>2018-10-09T14:18:09.106Z</time>
      </trkpt>
      <trkpt lat="48.10591" lon="1.35672">
        <ele>109</ele>
        <time>2018-10-09T14:18:10.106Z</time>
      </trkpt>
      <trkpt lat="48.10591" lon="1.35674">
        <ele>109</ele>
        <time>2018-10-09T14:18:11.106Z</time>
      </trkpt>
      <trkpt lat="48.10591" lon="1.35676">
        <ele>109</ele>
        <time>2018-10-09T14:18:12.106Z</time>
      </trkpt>
      <trkpt lat="48.1059" lon="1.35679">
        <ele>109</ele>
        <time>2018-10-09T14:18:13.106Z</time>
      </trkpt>
      <trkpt lat="48.1059" lon="1.35681">
        <ele>109</ele>
        <time>2018-10-09T14:18:14.106Z</time>
      </trkpt>
      <trkpt lat="48.1059" lon="1.35683">
        <ele>109</ele>
        <time>2018-10-09T14:18:15.106Z</time>
      </trkpt>
      <trkpt lat="48.10589" lon="1.35685">
        <ele>109</ele>
        <time>2018-10-09T14:18:16.106Z</time>
      </trkpt>
      <trkpt lat="48.10589" lon="1.35687">
        <ele>109</ele>
        <time>2018-10-09T14:18:17.106Z</time>
      </trkpt>
      <trkpt lat="48.10589" lon="1.35689">
        <ele>109</ele>
        <time>2018-10-09T14:18:18.106Z</time>
      </trkpt>
      <trkpt lat="48.10589" lon="1.35691">
        <ele>109</ele>
        <time>2018-10-09T14:18:19.106Z</time>
      </trkpt>
      <trkpt lat="48.10589" lon="1.35693">
        <ele>109</ele>
        <time>2018-10-09T14:18:20.106Z</time>
      </trkpt>
      <trkpt lat="48.10588" lon="1.35695">
        <ele>108</ele>
        <time>2018-10-09T14:18:21.106Z</time>
      </trkpt>
      <trkpt lat="48.10588" lon="1.35697">
        <ele>108</ele>
        <time>2018-10-09T14:18:22.106Z</time>
      </trkpt>
      <trkpt lat="48.10587" lon="1.35699">
        <ele>108</ele>
        <time>2018-10-09T14:18:23.106Z</time>
      </trkpt>
      <trkpt lat="48.10587" lon="1.35701">
        <ele>108</ele>
        <time>2018-10-09T14:18:24.106Z</time>
      </trkpt>
      <trkpt lat="48.10587" lon="1.35703">
        <ele>108</ele>
        <time>2018-10-09T14:18:25.106Z</time>
      </trkpt>
      <trkpt lat="48.10587" lon="1.35705">
        <ele>108</ele>
        <time>2018-10-09T14:18:26.106Z</time>
      </trkpt>
      <trkpt lat="48.10587" lon="1.35707">
        <ele>108</ele>
        <time>2018-10-09T14:18:27.106Z</time>
      </trkpt>
      <trkpt lat="48.10586" lon="1.3571">
        <ele>109</ele>
        <time>2018-10-09T14:18:28.106Z</time>
      </trkpt>
      <trkpt lat="48.10586" lon="1.35712">
        <ele>108</ele>
        <time>2018-10-09T14:18:29.106Z</time>
      </trkpt>
      <trkpt lat="48.10586" lon="1.35714">
        <ele>108</ele>
        <time>2018-10-09T14:18:30.106Z</time>
      </trkpt>
      <trkpt lat="48.10585" lon="1.35716">
        <ele>108</ele>
        <time>2018-10-09T14:18:31.106Z</time>
      </trkpt>
      <trkpt lat="48.10585" lon="1.35717">
        <ele>108</ele>
        <time>2018-10-09T14:18:32.106Z</time>
      </trkpt>
      <trkpt lat="48.10585" lon="1.35719">
        <ele>108</ele>
        <time>2018-10-09T14:18:33.106Z</time>
      </trkpt>
      <trkpt lat="48.10585" lon="1.35721">
        <ele>108</ele>
        <time>2018-10-09T14:18:34.106Z</time>
      </trkpt>
      <trkpt lat="48.10584" lon="1.35724">
        <ele>108</ele>
        <time>2018-10-09T14:18:35.106Z</time>
      </trkpt>
      <trkpt lat="48.10584" lon="1.35726">
        <ele>108</ele>
        <time>2018-10-09T14:18:36.106Z</time>
      </trkpt>
      <trkpt lat="48.10584" lon="1.35728">
        <ele>107</ele>
        <time>2018-10-09T14:18:37.106Z</time>
      </trkpt>
      <trkpt lat="48.10583" lon="1.3573">
        <ele>107</ele>
        <time>2018-10-09T14:18:38.106Z</time>
      </trkpt>
      <trkpt lat="48.10583" lon="1.35732">
        <ele>107</ele>
        <time>2018-10-09T14:18:39.106Z</time>
      </trkpt>
      <trkpt lat="48.10583" lon="1.35734">
        <ele>107</ele>
        <time>2018-10-09T14:18:40.106Z</time>
      </trkpt>
      <trkpt lat="48.10583" lon="1.35736">
        <ele>107</ele>
        <time>2018-10-09T14:18:41.106Z</time>
      </trkpt>
      <trkpt lat="48.10583" lon="1.35738">
        <ele>107</ele>
        <time>2018-10-09T14:18:42.106Z</time>
      </trkpt>
      <trkpt lat="48.10582" lon="1.3574">
        <ele>107</ele>
        <time>2018-10-09T14:18:43.106Z</time>
      </trkpt>
      <trkpt lat="48.10582" lon="1.35742">
        <ele>107</ele>
        <time>2018-10-09T14:18:44.106Z</time>
      </trkpt>
      <trkpt lat="48.10582" lon="1.35743">
        <ele>106</ele>
        <time>2018-10-09T14:18:45.106Z</time>
      </trkpt>
      <trkpt lat="48.10582" lon="1.35745">
        <ele>106</ele>
        <time>2018-10-09T14:18:46.106Z</time>
      </trkpt>
      <trkpt lat="48.10581" lon="1.35747">
        <ele>106</ele>
        <time>2018-10-09T14:18:47.106Z</time>
      </trkpt>
      <trkpt lat="48.10581" lon="1.35748">
        <ele>106</ele>
        <time>2018-10-09T14:18:48.106Z</time>
      </trkpt>
      <trkpt lat="48.1058" lon="1.3575">
        <ele>106</ele>
        <time>2018-10-09T14:18:49.106Z</time>
      </trkpt>
      <trkpt lat="48.1058" lon="1.35752">
        <ele>105</ele>
        <time>2018-10-09T14:18:50.106Z</time>
      </trkpt>
      <trkpt lat="48.1058" lon="1.35754">
        <ele>105</ele>
        <time>2018-10-09T14:18:51.106Z</time>
      </trkpt>
      <trkpt lat="48.1058" lon="1.35756">
        <ele>105</ele>
        <time>2018-10-09T14:18:52.106Z</time>
      </trkpt>
      <trkpt lat="48.10579" lon="1.35758">
        <ele>105</ele>
        <time>2018-10-09T14:18:53.106Z</time>
      </trkpt>
      <trkpt lat="48.10579" lon="1.3576">
        <ele>106</ele>
        <time>2018-10-09T14:18:54.106Z</time>
      </trkpt>
      <trkpt lat="48.10579" lon="1.35762">
        <ele>105</ele>
        <time>2018-10-09T14:18:55.106Z</time>
      </trkpt>
      <trkpt lat="48.10579" lon="1.35764">
        <ele>106</ele>
        <time>2018-10-09T14:18:56.106Z</time>
      </trkpt>
      <trkpt lat="48.10579" lon="1.35766">
        <ele>105</ele>
        <time>2018-10-09T14:18:57.106Z</time>
      </trkpt>
      <trkpt lat="48.10579" lon="1.35768">
        <ele>106</ele>
        <time>2018-10-09T14:18:58.106Z</time>
      </trkpt>
      <trkpt lat="48.10579" lon="1.3577">
        <ele>106</ele>
        <time>2018-10-09T14:18:59.106Z</time>
      </trkpt>
      <trkpt lat="48.10579" lon="1.35772">
        <ele>106</ele>
        <time>2018-10-09T14:19:00.106Z</time>
      </trkpt>
      <trkpt lat="48.10578" lon="1.35774">
        <ele>106</ele>
        <time>2018-10-09T14:19:01.106Z</time>
      </trkpt>
      <trkpt lat="48.10578" lon="1.35776">
        <ele>106</ele>
        <time>2018-10-09T14:19:02.106Z</time>
      </trkpt>
      <trkpt lat="48.10578" lon="1.35778">
        <ele>106</ele>
        <time>2018-10-09T14:19:03.106Z</time>
      </trkpt>
      <trkpt lat="48.10578" lon="1.3578">
        <ele>106</ele>
        <time>2018-10-09T14:19:04.106Z</time>
      </trkpt>
      <trkpt lat="48.10577" lon="1.35782">
        <ele>106</ele>
        <time>2018-10-09T14:19:05.106Z</time>
      </trkpt>
      <trkpt lat="48.10577" lon="1.35784">
        <ele>106</ele>
        <time>2018-10-09T14:19:06.106Z</time>
      </trkpt>
      <trkpt lat="48.10577" lon="1.35786">
        <ele>106</ele>
        <time>2018-10-09T14:19:07.106Z</time>
      </trkpt>
      <trkpt lat="48.10577" lon="1.35788">
        <ele>106</ele>
        <time>2018-10-09T14:19:08.106Z</time>
      </trkpt>
      <trkpt lat="48.10577" lon="1.3579">
        <ele>107</ele>
        <time>2018-10-09T14:19:09.106Z</time>
      </trkpt>
      <trkpt lat="48.10576" lon="1.35793">
        <ele>107</ele>
        <time>2018-10-09T14:19:10.106Z</time>
      </trkpt>
      <trkpt lat="48.10576" lon="1.35795">
        <ele>107</ele>
        <time>2018-10-09T14:19:11.106Z</time>
      </trkpt>
      <trkpt lat="48.10576" lon="1.35796">
        <ele>107</ele>
        <time>2018-10-09T14:19:12.106Z</time>
      </trkpt>
      <trkpt lat="48.10576" lon="1.35798">
        <ele>107</ele>
        <time>2018-10-09T14:19:13.106Z</time>
      </trkpt>
      <trkpt lat="48.10575" lon="1.358">
        <ele>107</ele>
        <time>2018-10-09T14:19:14.106Z</time>
      </trkpt>
      <trkpt lat="48.10574" lon="1.35802">
        <ele>107</ele>
        <time>2018-10-09T14:19:15.106Z</time>
      </trkpt>
      <trkpt lat="48.10574" lon="1.35804">
        <ele>107</ele>
        <time>2018-10-09T14:19:16.106Z</time>
      </trkpt>
      <trkpt lat="48.10574" lon="1.35806">
        <ele>107</ele>
        <time>2018-10-09T14:19:17.106Z</time>
      </trkpt>
      <trkpt lat="48.10573" lon="1.35808">
        <ele>107</ele>
        <time>2018-10-09T14:19:18.106Z</time>
      </trkpt>
      <trkpt lat="48.10573" lon="1.35811">
        <ele>107</ele>
        <time>2018-10-09T14:19:19.106Z</time>
      </trkpt>
      <trkpt lat="48.10573" lon="1.35813">
        <ele>107</ele>
        <time>2018-10-09T14:19:20.106Z</time>
      </trkpt>
      <trkpt lat="48.10573" lon="1.35815">
        <ele>107</ele>
        <time>2018-10-09T14:19:21.106Z</time>
      </trkpt>
      <trkpt lat="48.10573" lon="1.35817">
        <ele>108</ele>
        <time>2018-10-09T14:19:22.106Z</time>
      </trkpt>
      <trkpt lat="48.10573" lon="1.35819">
        <ele>108</ele>
        <time>2018-10-09T14:19:23.106Z</time>
      </trkpt>
      <trkpt lat="48.10573" lon="1.35821">
        <ele>108</ele>
        <time>2018-10-09T14:19:24.106Z</time>
      </trkpt>
      <trkpt lat="48.10573" lon="1.35823">
        <ele>108</ele>
        <time>2018-10-09T14:19:25.106Z</time>
      </trkpt>
      <trkpt lat="48.10573" lon="1.35825">
        <ele>108</ele>
        <time>2018-10-09T14:19:26.106Z</time>
      </trkpt>
      <trkpt lat="48.10573" lon="1.35826">
        <ele>108</ele>
        <time>2018-10-09T14:19:27.106Z</time>
      </trkpt>
      <trkpt lat="48.10572" lon="1.35828">
        <ele>107</ele>
        <time>2018-10-09T14:19:28.106Z</time>
      </trkpt>
      <trkpt lat="48.10572" lon="1.3583">
        <ele>107</ele>
        <time>2018-10-09T14:19:29.106Z</time>
      </trkpt>
      <trkpt lat="48.10571" lon="1.35832">
        <ele>107</ele>
        <time>2018-10-09T14:19:30.106Z</time>
      </trkpt>
      <trkpt lat="48.10571" lon="1.35833">
        <ele>106</ele>
        <time>2018-10-09T14:19:31.106Z</time>
      </trkpt>
      <trkpt lat="48.10571" lon="1.35835">
        <ele>106</ele>
        <time>2018-10-09T14:19:32.106Z</time>
      </trkpt>
      <trkpt lat="48.10571" lon="1.35837">
        <ele>105</ele>
        <time>2018-10-09T14:19:33.106Z</time>
      </trkpt>
      <trkpt lat="48.10571" lon="1.35839">
        <ele>105</ele>
        <time>2018-10-09T14:19:34.106Z</time>
      </trkpt>
      <trkpt lat="48.1057" lon="1.35841">
        <ele>105</ele>
        <time>2018-10-09T14:19:35.106Z</time>
      </trkpt>
      <trkpt lat="48.10571" lon="1.35843">
        <ele>105</ele>
        <time>2018-10-09T14:19:36.106Z</time>
      </trkpt>
      <trkpt lat="48.10571" lon="1.35845">
        <ele>104</ele>
        <time>2018-10-09T14:19:37.106Z</time>
      </trkpt>
      <trkpt lat="48.10571" lon="1.35847">
        <ele>104</ele>
        <time>2018-10-09T14:19:38.106Z</time>
      </trkpt>
      <trkpt lat="48.10571" lon="1.35849">
        <ele>103</ele>
        <time>2018-10-09T14:19:39.106Z</time>
      </trkpt>
      <trkpt lat="48.10571" lon="1.35851">
        <ele>103</ele>
        <time>2018-10-09T14:19:40.106Z</time>
      </trkpt>
      <trkpt lat="48.10571" lon="1.35852">
        <ele>104</ele>
        <time>2018-10-09T14:19:41.106Z</time>
      </trkpt>
      <trkpt lat="48.10572" lon="1.35854">
        <ele>104</ele>
        <time>2018-10-09T14:19:42.106Z</time>
      </trkpt>
      <trkpt lat="48.10572" lon="1.35856">
        <ele>104</ele>
        <time>2018-10-09T14:19:43.106Z</time>
      </trkpt>
      <trkpt lat="48.10572" lon="1.35858">
        <ele>104</ele>
        <time>2018-10-09T14:19:44.106Z</time>
      </trkpt>
      <trkpt lat="48.10573" lon="1.3586">
        <ele>105</ele>
        <time>2018-10-09T14:19:45.106Z</time>
      </trkpt>
      <trkpt lat="48.10573" lon="1.35862">
        <ele>104</ele>
        <time>2018-10-09T14:19:46.106Z</time>
      </trkpt>
      <trkpt lat="48.10572" lon="1.35864">
        <ele>104</ele>
        <time>2018-10-09T14:19:47.106Z</time>
      </trkpt>
      <trkpt lat="48.10572" lon="1.35866">
        <ele>104</ele>
        <time>2018-10-09T14:19:48.106Z</time>
      </trkpt>
      <trkpt lat="48.10572" lon="1.35868">
        <ele>104</ele>
        <time>2018-10-09T14:19:49.106Z</time>
      </trkpt>
      <trkpt lat="48.10572" lon="1.3587">
        <ele>105</ele>
        <time>2018-10-09T14:19:50.106Z</time>
      </trkpt>
      <trkpt lat="48.10573" lon="1.35872">
        <ele>105</ele>
        <time>2018-10-09T14:19:51.106Z</time>
      </trkpt>
      <trkpt lat="48.10573" lon="1.35874">
        <ele>105</ele>
        <time>2018-10-09T14:19:52.106Z</time>
      </trkpt>
      <trkpt lat="48.10573" lon="1.35876">
        <ele>105</ele>
        <time>2018-10-09T14:19:53.106Z</time>
      </trkpt>
      <trkpt lat="48.10573" lon="1.35878">
        <ele>105</ele>
        <time>2018-10-09T14:19:54.106Z</time>
      </trkpt>
      <trkpt lat="48.10573" lon="1.3588">
        <ele>105</ele>
        <time>2018-10-09T14:19:55.106Z</time>
      </trkpt>
      <trkpt lat="48.10574" lon="1.35882">
        <ele>105</ele>
        <time>2018-10-09T14:19:56.106Z</time>
      </trkpt>
      <trkpt lat="48.10574" lon="1.35883">
        <ele>106</ele>
        <time>2018-10-09T14:19:57.106Z</time>
      </trkpt>
      <trkpt lat="48.10574" lon="1.35885">
        <ele>105</ele>
        <time>2018-10-09T14:19:58.106Z</time>
      </trkpt>
      <trkpt lat="48.10574" lon="1.35888">
        <ele>105</ele>
        <time>2018-10-09T14:19:59.106Z</time>
      </trkpt>
      <trkpt lat="48.10574" lon="1.3589">
        <ele>106</ele>
        <time>2018-10-09T14:20:00.106Z</time>
      </trkpt>
      <trkpt lat="48.10574" lon="1.35891">
        <ele>106</ele>
        <time>2018-10-09T14:20:01.106Z</time>
      </trkpt>
      <trkpt lat="48.10574" lon="1.35893">
        <ele>106</ele>
        <time>2018-10-09T14:20:02.106Z</time>
      </trkpt>
      <trkpt lat="48.10574" lon="1.35895">
        <ele>106</ele>
        <time>2018-10-09T14:20:03.106Z</time>
      </trkpt>
      <trkpt lat="48.10574" lon="1.35898">
        <ele>106</ele>
        <time>2018-10-09T14:20:04.106Z</time>
      </trkpt>
      <trkpt lat="48.10574" lon="1.35899">
        <ele>106</ele>
        <time>2018-10-09T14:20:05.106Z</time>
      </trkpt>
      <trkpt lat="48.10574" lon="1.35901">
        <ele>106</ele>
        <time>2018-10-09T14:20:06.106Z</time>
      </trkpt>
      <trkpt lat="48.10574" lon="1.35903">
        <ele>105</ele>
        <time>2018-10-09T14:20:07.106Z</time>
      </trkpt>
      <trkpt lat="48.10574" lon="1.35905">
        <ele>105</ele>
        <time>2018-10-09T14:20:08.106Z</time>
      </trkpt>
      <trkpt lat="48.10574" lon="1.35907">
        <ele>105</ele>
        <time>2018-10-09T14:20:09.106Z</time>
      </trkpt>
      <trkpt lat="48.10573" lon="1.35909">
        <ele>105</ele>
        <time>2018-10-09T14:20:10.106Z</time>
      </trkpt>
      <trkpt lat="48.10573" lon="1.35911">
        <ele>105</ele>
        <time>2018-10-09T14:20:11.106Z</time>
      </trkpt>
      <trkpt lat="48.10573" lon="1.35913">
        <ele>105</ele>
        <time>2018-10-09T14:20:12.106Z</time>
      </trkpt>
      <trkpt lat="48.10573" lon="1.35915">
        <ele>105</ele>
        <time>2018-10-09T14:20:13.106Z</time>
      </trkpt>
      <trkpt lat="48.10573" lon="1.35917">
        <ele>104</ele>
        <time>2018-10-09T14:20:14.106Z</time>
      </trkpt>
      <trkpt lat="48.10573" lon="1.35919">
        <ele>105</ele>
        <time>2018-10-09T14:20:15.106Z</time>
      </trkpt>
      <trkpt lat="48.10574" lon="1.35921">
        <ele>105</ele>
        <time>2018-10-09T14:20:16.106Z</time>
      </trkpt>
      <trkpt lat="48.10574" lon="1.35923">
        <ele>105</ele>
        <time>2018-10-09T14:20:17.106Z</time>
      </trkpt>
      <trkpt lat="48.10574" lon="1.35925">
        <ele>105</ele>
        <time>2018-10-09T14:20:18.106Z</time>
      </trkpt>
      <trkpt lat="48.10574" lon="1.35927">
        <ele>106</ele>
        <time>2018-10-09T14:20:19.106Z</time>
      </trkpt>
      <trkpt lat="48.10574" lon="1.35929">
        <ele>106</ele>
        <time>2018-10-09T14:20:20.106Z</time>
      </trkpt>
      <trkpt lat="48.10575" lon="1.35931">
        <ele>107</ele>
        <time>2018-10-09T14:20:21.106Z</time>
      </trkpt>
      <trkpt lat="48.10575" lon="1.35933">
        <ele>107</ele>
        <time>2018-10-09T14:20:22.106Z</time>
      </trkpt>
      <trkpt lat="48.10576" lon="1.35935">
        <ele>107</ele>
        <time>2018-10-09T14:20:23.106Z</time>
      </trkpt>
      <trkpt lat="48.10576" lon="1.35937">
        <ele>107</ele>
        <time>2018-10-09T14:20:24.106Z</time>
      </trkpt>
      <trkpt lat="48.10576" lon="1.35939">
        <ele>107</ele>
        <time>2018-10-09T14:20:25.106Z</time>
      </trkpt>
      <trkpt lat="48.10576" lon="1.35941">
        <ele>107</ele>
        <time>2018-10-09T14:20:26.106Z</time>
      </trkpt>
      <trkpt lat="48.10577" lon="1.35943">
        <ele>108</ele>
        <time>2018-10-09T14:20:27.106Z</time>
      </trkpt>
      <trkpt lat="48.10577" lon="1.35945">
        <ele>108</ele>
        <time>2018-10-09T14:20:28.106Z</time>
      </trkpt>
      <trkpt lat="48.10577" lon="1.35947">
        <ele>108</ele>
        <time>2018-10-09T14:20:29.106Z</time>
      </trkpt>
      <trkpt lat="48.10577" lon="1.35949">
        <ele>108</ele>
        <time>2018-10-09T14:20:30.106Z</time>
      </trkpt>
      <trkpt lat="48.10577" lon="1.35951">
        <ele>109</ele>
        <time>2018-10-09T14:20:31.106Z</time>
      </trkpt>
      <trkpt lat="48.10578" lon="1.35953">
        <ele>109</ele>
        <time>2018-10-09T14:20:32.106Z</time>
      </trkpt>
      <trkpt lat="48.10578" lon="1.35955">
        <ele>109</ele>
        <time>2018-10-09T14:20:33.106Z</time>
      </trkpt>
      <trkpt lat="48.10578" lon="1.35957">
        <ele>110</ele>
        <time>2018-10-09T14:20:34.106Z</time>
      </trkpt>
      <trkpt lat="48.10579" lon="1.35959">
        <ele>109</ele>
        <time>2018-10-09T14:20:35.106Z</time>
      </trkpt>
      <trkpt lat="48.10579" lon="1.35961">
        <ele>109</ele>
        <time>2018-10-09T14:20:36.106Z</time>
      </trkpt>
      <trkpt lat="48.10579" lon="1.35963">
        <ele>110</ele>
        <time>2018-10-09T14:20:37.106Z</time>
      </trkpt>
      <trkpt lat="48.10579" lon="1.35965">
        <ele>110</ele>
        <time>2018-10-09T14:20:38.106Z</time>
      </trkpt>
      <trkpt lat="48.10579" lon="1.35967">
        <ele>111</ele>
        <time>2018-10-09T14:20:39.106Z</time>
      </trkpt>
      <trkpt lat="48.1058" lon="1.35969">
        <ele>111</ele>
        <time>2018-10-09T14:20:40.106Z</time>
      </trkpt>
      <trkpt lat="48.1058" lon="1.35971">
        <ele>111</ele>
        <time>2018-10-09T14:20:41.106Z</time>
      </trkpt>
      <trkpt lat="48.10581" lon="1.35973">
        <ele>112</ele>
        <time>2018-10-09T14:20:42.106Z</time>
      </trkpt>
      <trkpt lat="48.10581" lon="1.35975">
        <ele>112</ele>
        <time>2018-10-09T14:20:43.106Z</time>
      </trkpt>
      <trkpt lat="48.10581" lon="1.35976">
        <ele>112</ele>
        <time>2018-10-09T14:20:44.106Z</time>
      </trkpt>
      <trkpt lat="48.10581" lon="1.35978">
        <ele>112</ele>
        <time>2018-10-09T14:20:45.106Z</time>
      </trkpt>
      <trkpt lat="48.10582" lon="1.3598">
        <ele>113</ele>
        <time>2018-10-09T14:20:46.106Z</time>
      </trkpt>
      <trkpt lat="48.10582" lon="1.35981">
        <ele>113</ele>
        <time>2018-10-09T14:20:47.106Z</time>
      </trkpt>
      <trkpt lat="48.10582" lon="1.35983">
        <ele>113</ele>
        <time>2018-10-09T14:20:48.106Z</time>
      </trkpt>
      <trkpt lat="48.10583" lon="1.35984">
        <ele>112</ele>
        <time>2018-10-09T14:20:49.106Z</time>
      </trkpt>
      <trkpt lat="48.10584" lon="1.35986">
        <ele>112</ele>
        <time>2018-10-09T14:20:50.106Z</time>
      </trkpt>
      <trkpt lat="48.10585" lon="1.35987">
        <ele>111</ele>
        <time>2018-10-09T14:20:51.106Z</time>
      </trkpt>
      <trkpt lat="48.10585" lon="1.35989">
        <ele>111</ele>
        <time>2018-10-09T14:20:52.106Z</time>
      </trkpt>
      <trkpt lat="48.10586" lon="1.3599">
        <ele>111</ele>
        <time>2018-10-09T14:20:53.106Z</time>
      </trkpt>
      <trkpt lat="48.10587" lon="1.35992">
        <ele>110</ele>
        <time>2018-10-09T14:20:54.106Z</time>
      </trkpt>
      <trkpt lat="48.10587" lon="1.35993">
        <ele>110</ele>
        <time>2018-10-09T14:20:55.106Z</time>
      </trkpt>
      <trkpt lat="48.10588" lon="1.35994">
        <ele>111</ele>
        <time>2018-10-09T14:20:56.106Z</time>
      </trkpt>
      <trkpt lat="48.10589" lon="1.35996">
        <ele>110</ele>
        <time>2018-10-09T14:20:57.106Z</time>
      </trkpt>
      <trkpt lat="48.10589" lon="1.35997">
        <ele>110</ele>
        <time>2018-10-09T14:20:58.106Z</time>
      </trkpt>
      <trkpt lat="48.10589" lon="1.35998">
        <ele>109</ele>
        <time>2018-10-09T14:20:59.106Z</time>
      </trkpt>
      <trkpt lat="48.1059" lon="1.36">
        <ele>109</ele>
        <time>2018-10-09T14:21:00.106Z</time>
      </trkpt>
      <trkpt lat="48.1059" lon="1.36001">
        <ele>109</ele>
        <time>2018-10-09T14:21:01.106Z</time>
      </trkpt>
      <trkpt lat="48.1059" lon="1.36002">
        <ele>109</ele>
        <time>2018-10-09T14:21:02.106Z</time>
      </trkpt>
      <trkpt lat="48.10591" lon="1.36003">
        <ele>109</ele>
        <time>2018-10-09T14:21:03.106Z</time>
      </trkpt>
      <trkpt lat="48.10591" lon="1.36005">
        <ele>108</ele>
        <time>2018-10-09T14:21:04.106Z</time>
      </trkpt>
      <trkpt lat="48.10592" lon="1.36006">
        <ele>108</ele>
        <time>2018-10-09T14:21:05.106Z</time>
      </trkpt>
      <trkpt lat="48.10593" lon="1.36008">
        <ele>108</ele>
        <time>2018-10-09T14:21:06.106Z</time>
      </trkpt>
      <trkpt lat="48.10594" lon="1.36009">
        <ele>108</ele>
        <time>2018-10-09T14:21:07.106Z</time>
      </trkpt>
      <trkpt lat="48.10595" lon="1.36011">
        <ele>107</ele>
        <time>2018-10-09T14:21:08.106Z</time>
      </trkpt>
      <trkpt lat="48.10595" lon="1.36012">
        <ele>107</ele>
        <time>2018-10-09T14:21:09.106Z</time>
      </trkpt>
      <trkpt lat="48.10596" lon="1.36014">
        <ele>107</ele>
        <time>2018-10-09T14:21:10.106Z</time>
      </trkpt>
      <trkpt lat="48.10596" lon="1.36015">
        <ele>107</ele>
        <time>2018-10-09T14:21:11.106Z</time>
      </trkpt>
      <trkpt lat="48.10596" lon="1.36016">
        <ele>107</ele>
        <time>2018-10-09T14:21:12.106Z</time>
      </trkpt>
      <trkpt lat="48.10597" lon="1.36017">
        <ele>107</ele>
        <time>2018-10-09T14:21:13.106Z</time>
      </trkpt>
      <trkpt lat="48.10597" lon="1.36019">
        <ele>107</ele>
        <time>2018-10-09T14:21:14.106Z</time>
      </trkpt>
      <trkpt lat="48.10597" lon="1.3602">
        <ele>107</ele>
        <time>2018-10-09T14:21:15.106Z</time>
      </trkpt>
      <trkpt lat="48.10597" lon="1.36021">
        <ele>107</ele>
        <time>2018-10-09T14:21:16.106Z</time>
      </trkpt>
      <trkpt lat="48.10597" lon="1.36023">
        <ele>107</ele>
        <time>2018-10-09T14:21:17.106Z</time>
      </trkpt>
      <trkpt lat="48.10598" lon="1.36024">
        <ele>107</ele>
        <time>2018-10-09T14:21:18.106Z</time>
      </trkpt>
      <trkpt lat="48.10598" lon="1.36026">
        <ele>107</ele>
        <time>2018-10-09T14:21:19.106Z</time>
      </trkpt>
      <trkpt lat="48.10599" lon="1.36027">
        <ele>107</ele>
        <time>2018-10-09T14:21:20.106Z</time>
      </trkpt>
      <trkpt lat="48.10599" lon="1.36029">
        <ele>107</ele>
        <time>2018-10-09T14:21:21.106Z</time>
      </trkpt>
      <trkpt lat="48.106" lon="1.36031">
        <ele>107</ele>
        <time>2018-10-09T14:21:22.106Z</time>
      </trkpt>
      <trkpt lat="48.106" lon="1.36033">
        <ele>106</ele>
        <time>2018-10-09T14:21:23.106Z</time>
      </trkpt>
      <trkpt lat="48.10601" lon="1.36035">
        <ele>106</ele>
        <time>2018-10-09T14:21:24.106Z</time>
      </trkpt>
      <trkpt lat="48.10601" lon="1.36037">
        <ele>106</ele>
        <time>2018-10-09T14:21:25.106Z</time>
      </trkpt>
      <trkpt lat="48.10602" lon="1.36038">
        <ele>106</ele>
        <time>2018-10-09T14:21:26.106Z</time>
      </trkpt>
      <trkpt lat="48.10603" lon="1.3604">
        <ele>106</ele>
        <time>2018-10-09T14:21:27.106Z</time>
      </trkpt>
      <trkpt lat="48.10604" lon="1.36042">
        <ele>106</ele>
        <time>2018-10-09T14:21:28.106Z</time>
      </trkpt>
      <trkpt lat="48.10605" lon="1.36044">
        <ele>107</ele>
        <time>2018-10-09T14:21:29.106Z</time>
      </trkpt>
      <trkpt lat="48.10605" lon="1.36046">
        <ele>107</ele>
        <time>2018-10-09T14:21:30.106Z</time>
      </trkpt>
      <trkpt lat="48.10606" lon="1.36048">
        <ele>107</ele>
        <time>2018-10-09T14:21:31.106Z</time>
      </trkpt>
      <trkpt lat="48.10607" lon="1.3605">
        <ele>107</ele>
        <time>2018-10-09T14:21:32.106Z</time>
      </trkpt>
      <trkpt lat="48.10608" lon="1.36052">
        <ele>106</ele>
        <time>2018-10-09T14:21:33.106Z</time>
      </trkpt>
      <trkpt lat="48.10609" lon="1.36054">
        <ele>107</ele>
        <time>2018-10-09T14:21:34.106Z</time>
      </trkpt>
      <trkpt lat="48.10609" lon="1.36055">
        <ele>106</ele>
        <time>2018-10-09T14:21:35.106Z</time>
      </trkpt>
      <trkpt lat="48.1061" lon="1.36057">
        <ele>107</ele>
        <time>2018-10-09T14:21:36.106Z</time>
      </trkpt>
      <trkpt lat="48.10611" lon="1.36059">
        <ele>106</ele>
        <time>2018-10-09T14:21:37.106Z</time>
      </trkpt>
      <trkpt lat="48.10611" lon="1.36061">
        <ele>106</ele>
        <time>2018-10-09T14:21:38.106Z</time>
      </trkpt>
      <trkpt lat="48.10612" lon="1.36063">
        <ele>106</ele>
        <time>2018-10-09T14:21:39.106Z</time>
      </trkpt>
      <trkpt lat="48.10613" lon="1.36064">
        <ele>106</ele>
        <time>2018-10-09T14:21:40.106Z</time>
      </trkpt>
      <trkpt lat="48.10614" lon="1.36066">
        <ele>106</ele>
        <time>2018-10-09T14:21:41.106Z</time>
      </trkpt>
      <trkpt lat="48.10614" lon="1.36067">
        <ele>107</ele>
        <time>2018-10-09T14:21:42.106Z</time>
      </trkpt>
      <trkpt lat="48.10615" lon="1.36069">
        <ele>107</ele>
        <time>2018-10-09T14:21:43.106Z</time>
      </trkpt>
      <trkpt lat="48.10616" lon="1.3607">
        <ele>107</ele>
        <time>2018-10-09T14:21:44.106Z</time>
      </trkpt>
      <trkpt lat="48.10617" lon="1.36072">
        <ele>107</ele>
        <time>2018-10-09T14:21:45.106Z</time>
      </trkpt>
      <trkpt lat="48.10617" lon="1.36074">
        <ele>107</ele>
        <time>2018-10-09T14:21:46.106Z</time>
      </trkpt>
      <trkpt lat="48.10617" lon="1.36075">
        <ele>107</ele>
        <time>2018-10-09T14:21:47.106Z</time>
      </trkpt>
      <trkpt lat="48.10618" lon="1.36077">
        <ele>106</ele>
        <time>2018-10-09T14:21:48.106Z</time>
      </trkpt>
      <trkpt lat="48.10618" lon="1.36079">
        <ele>106</ele>
        <time>2018-10-09T14:21:49.106Z</time>
      </trkpt>
      <trkpt lat="48.10619" lon="1.36081">
        <ele>106</ele>
        <time>2018-10-09T14:21:50.106Z</time>
      </trkpt>
      <trkpt lat="48.10619" lon="1.36082">
        <ele>105</ele>
        <time>2018-10-09T14:21:51.106Z</time>
      </trkpt>
      <trkpt lat="48.1062" lon="1.36084">
        <ele>105</ele>
        <time>2018-10-09T14:21:52.106Z</time>
      </trkpt>
      <trkpt lat="48.10621" lon="1.36086">
        <ele>105</ele>
        <time>2018-10-09T14:21:53.106Z</time>
      </trkpt>
      <trkpt lat="48.10621" lon="1.36088">
        <ele>105</ele>
        <time>2018-10-09T14:21:54.106Z</time>
      </trkpt>
      <trkpt lat="48.10622" lon="1.3609">
        <ele>105</ele>
        <time>2018-10-09T14:21:55.106Z</time>
      </trkpt>
      <trkpt lat="48.10623" lon="1.36092">
        <ele>105</ele>
        <time>2018-10-09T14:21:56.106Z</time>
      </trkpt>
      <trkpt lat="48.10623" lon="1.36094">
        <ele>105</ele>
        <time>2018-10-09T14:21:57.106Z</time>
      </trkpt>
      <trkpt lat="48.10624" lon="1.36096">
        <ele>104</ele>
        <time>2018-10-09T14:21:58.106Z</time>
      </trkpt>
      <trkpt lat="48.10624" lon="1.36098">
        <ele>104</ele>
        <time>2018-10-09T14:21:59.106Z</time>
      </trkpt>
      <trkpt lat="48.10624" lon="1.361">
        <ele>104</ele>
        <time>2018-10-09T14:22:00.106Z</time>
      </trkpt>
      <trkpt lat="48.10625" lon="1.36102">
        <ele>104</ele>
        <time>2018-10-09T14:22:01.106Z</time>
      </trkpt>
      <trkpt lat="48.10626" lon="1.36104">
        <ele>104</ele>
        <time>2018-10-09T14:22:02.106Z</time>
      </trkpt>
      <trkpt lat="48.10627" lon="1.36106">
        <ele>103</ele>
        <time>2018-10-09T14:22:03.106Z</time>
      </trkpt>
      <trkpt lat="48.10627" lon="1.36108">
        <ele>104</ele>
        <time>2018-10-09T14:22:04.106Z</time>
      </trkpt>
      <trkpt lat="48.10628" lon="1.3611">
        <ele>104</ele>
        <time>2018-10-09T14:22:05.106Z</time>
      </trkpt>
      <trkpt lat="48.10628" lon="1.36112">
        <ele>105</ele>
        <time>2018-10-09T14:22:06.106Z</time>
      </trkpt>
      <trkpt lat="48.10629" lon="1.36114">
        <ele>105</ele>
        <time>2018-10-09T14:22:07.106Z</time>
      </trkpt>
      <trkpt lat="48.1063" lon="1.36116">
        <ele>105</ele>
        <time>2018-10-09T14:22:08.106Z</time>
      </trkpt>
      <trkpt lat="48.10631" lon="1.36118">
        <ele>106</ele>
        <time>2018-10-09T14:22:09.106Z</time>
      </trkpt>
      <trkpt lat="48.10632" lon="1.3612">
        <ele>106</ele>
        <time>2018-10-09T14:22:10.106Z</time>
      </trkpt>
      <trkpt lat="48.10633" lon="1.36122">
        <ele>106</ele>
        <time>2018-10-09T14:22:11.106Z</time>
      </trkpt>
      <trkpt lat="48.10634" lon="1.36124">
        <ele>106</ele>
        <time>2018-10-09T14:22:12.106Z</time>
      </trkpt>
      <trkpt lat="48.10634" lon="1.36125">
        <ele>107</ele>
        <time>2018-10-09T14:22:13.106Z</time>
      </trkpt>
      <trkpt lat="48.10635" lon="1.36127">
        <ele>107</ele>
        <time>2018-10-09T14:22:14.106Z</time>
      </trkpt>
      <trkpt lat="48.10636" lon="1.36128">
        <ele>108</ele>
        <time>2018-10-09T14:22:15.106Z</time>
      </trkpt>
      <trkpt lat="48.10637" lon="1.3613">
        <ele>108</ele>
        <time>2018-10-09T14:22:16.106Z</time>
      </trkpt>
      <trkpt lat="48.10639" lon="1.36132">
        <ele>109</ele>
        <time>2018-10-09T14:22:17.106Z</time>
      </trkpt>
      <trkpt lat="48.1064" lon="1.36134">
        <ele>109</ele>
        <time>2018-10-09T14:22:18.106Z</time>
      </trkpt>
      <trkpt lat="48.1064" lon="1.36136">
        <ele>109</ele>
        <time>2018-10-09T14:22:19.106Z</time>
      </trkpt>
      <trkpt lat="48.10641" lon="1.36138">
        <ele>108</ele>
        <time>2018-10-09T14:22:20.106Z</time>
      </trkpt>
      <trkpt lat="48.10642" lon="1.3614">
        <ele>109</ele>
        <time>2018-10-09T14:22:21.106Z</time>
      </trkpt>
      <trkpt lat="48.10642" lon="1.36142">
        <ele>108</ele>
        <time>2018-10-09T14:22:22.106Z</time>
      </trkpt>
      <trkpt lat="48.10643" lon="1.36144">
        <ele>108</ele>
        <time>2018-10-09T14:22:23.106Z</time>
      </trkpt>
      <trkpt lat="48.10643" lon="1.36146">
        <ele>108</ele>
        <time>2018-10-09T14:22:24.106Z</time>
      </trkpt>
      <trkpt lat="48.10643" lon="1.36148">
        <ele>108</ele>
        <time>2018-10-09T14:22:25.106Z</time>
      </trkpt>
      <trkpt lat="48.10644" lon="1.3615">
        <ele>108</ele>
        <time>2018-10-09T14:22:26.106Z</time>
      </trkpt>
      <trkpt lat="48.10645" lon="1.36152">
        <ele>108</ele>
        <time>2018-10-09T14:22:27.106Z</time>
      </trkpt>
      <trkpt lat="48.10645" lon="1.36153">
        <ele>108</ele>
        <time>2018-10-09T14:22:28.106Z</time>
      </trkpt>
      <trkpt lat="48.10646" lon="1.36155">
        <ele>108</ele>
        <time>2018-10-09T14:22:29.106Z</time>
      </trkpt>
      <trkpt lat="48.10646" lon="1.36157">
        <ele>108</ele>
        <time>2018-10-09T14:22:30.106Z</time>
      </trkpt>
      <trkpt lat="48.10647" lon="1.36159">
        <ele>107</ele>
        <time>2018-10-09T14:22:31.106Z</time>
      </trkpt>
      <trkpt lat="48.10648" lon="1.36161">
        <ele>107</ele>
        <time>2018-10-09T14:22:32.106Z</time>
      </trkpt>
      <trkpt lat="48.10649" lon="1.36163">
        <ele>107</ele>
        <time>2018-10-09T14:22:33.106Z</time>
      </trkpt>
      <trkpt lat="48.10649" lon="1.36165">
        <ele>107</ele>
        <time>2018-10-09T14:22:34.106Z</time>
      </trkpt>
      <trkpt lat="48.1065" lon="1.36167">
        <ele>107</ele>
        <time>2018-10-09T14:22:35.106Z</time>
      </trkpt>
      <trkpt lat="48.1065" lon="1.36169">
        <ele>106</ele>
        <time>2018-10-09T14:22:36.106Z</time>
      </trkpt>
      <trkpt lat="48.10651" lon="1.36171">
        <ele>106</ele>
        <time>2018-10-09T14:22:37.106Z</time>
      </trkpt>
      <trkpt lat="48.10651" lon="1.36173">
        <ele>107</ele>
        <time>2018-10-09T14:22:38.106Z</time>
      </trkpt>
      <trkpt lat="48.10652" lon="1.36175">
        <ele>107</ele>
        <time>2018-10-09T14:22:39.106Z</time>
      </trkpt>
      <trkpt lat="48.10653" lon="1.36177">
        <ele>107</ele>
        <time>2018-10-09T14:22:40.106Z</time>
      </trkpt>
      <trkpt lat="48.10654" lon="1.36179">
        <ele>107</ele>
        <time>2018-10-09T14:22:41.106Z</time>
      </trkpt>
      <trkpt lat="48.10654" lon="1.3618">
        <ele>107</ele>
        <time>2018-10-09T14:22:42.106Z</time>
      </trkpt>
      <trkpt lat="48.10655" lon="1.36182">
        <ele>107</ele>
        <time>2018-10-09T14:22:43.106Z</time>
      </trkpt>
      <trkpt lat="48.10656" lon="1.36184">
        <ele>107</ele>
        <time>2018-10-09T14:22:44.106Z</time>
      </trkpt>
      <trkpt lat="48.10656" lon="1.36185">
        <ele>107</ele>
        <time>2018-10-09T14:22:45.106Z</time>
      </trkpt>
      <trkpt lat="48.10657" lon="1.36187">
        <ele>108</ele>
        <time>2018-10-09T14:22:46.106Z</time>
      </trkpt>
      <trkpt lat="48.10658" lon="1.36188">
        <ele>108</ele>
        <time>2018-10-09T14:22:47.106Z</time>
      </trkpt>
      <trkpt lat="48.10658" lon="1.3619">
        <ele>108</ele>
        <time>2018-10-09T14:22:48.106Z</time>
      </trkpt>
      <trkpt lat="48.10659" lon="1.36192">
        <ele>108</ele>
        <time>2018-10-09T14:22:49.106Z</time>
      </trkpt>
      <trkpt lat="48.1066" lon="1.36193">
        <ele>108</ele>
        <time>2018-10-09T14:22:50.106Z</time>
      </trkpt>
      <trkpt lat="48.1066" lon="1.36195">
        <ele>108</ele>
        <time>2018-10-09T14:22:51.106Z</time>
      </trkpt>
      <trkpt lat="48.10661" lon="1.36196">
        <ele>108</ele>
        <time>2018-10-09T14:22:52.106Z</time>
      </trkpt>
      <trkpt lat="48.10661" lon="1.36198">
        <ele>109</ele>
        <time>2018-10-09T14:22:53.106Z</time>
      </trkpt>
      <trkpt lat="48.10661" lon="1.36198">
        <ele>108</ele>
        <time>2018-10-09T14:22:54.106Z</time>
      </trkpt>
      <trkpt lat="48.10661" lon="1.36198">
        <ele>109</ele>
        <time>2018-10-09T14:22:55.106Z</time>
      </trkpt>
      <trkpt lat="48.10661" lon="1.36198">
        <ele>109</ele>
        <time>2018-10-09T14:22:56.106Z</time>
      </trkpt>
      <trkpt lat="48.10661" lon="1.36198">
        <ele>108</ele>
        <time>2018-10-09T14:22:57.106Z</time>
      </trkpt>
      <trkpt lat="48.10661" lon="1.36198">
        <ele>108</ele>
        <time>2018-10-09T14:22:58.106Z</time>
      </trkpt>
      <trkpt lat="48.10661" lon="1.36198">
        <ele>108</ele>
        <time>2018-10-09T14:22:59.106Z</time>
      </trkpt>
      <trkpt lat="48.10661" lon="1.36199">
        <ele>109</ele>
        <time>2018-10-09T14:23:00.106Z</time>
      </trkpt>
      <trkpt lat="48.10662" lon="1.36199">
        <ele>109</ele>
        <time>2018-10-09T14:23:01.106Z</time>
      </trkpt>
      <trkpt lat="48.10662" lon="1.36199">
        <ele>109</ele>
        <time>2018-10-09T14:23:02.106Z</time>
      </trkpt>
      <trkpt lat="48.10662" lon="1.36199">
        <ele>109</ele>
        <time>2018-10-09T14:23:03.106Z</time>
      </trkpt>
      <trkpt lat="48.10661" lon="1.36201">
        <ele>108</ele>
        <time>2018-10-09T14:23:04.121Z</time>
      </trkpt>
      <trkpt lat="48.10661" lon="1.36202">
        <ele>108</ele>
        <time>2018-10-09T14:23:05.121Z</time>
      </trkpt>
      <trkpt lat="48.10661" lon="1.36203">
        <ele>108</ele>
        <time>2018-10-09T14:23:06.121Z</time>
      </trkpt>
      <trkpt lat="48.10662" lon="1.36204">
        <ele>109</ele>
        <time>2018-10-09T14:23:07.121Z</time>
      </trkpt>
      <trkpt lat="48.10662" lon="1.36205">
        <ele>109</ele>
        <time>2018-10-09T14:23:08.121Z</time>
      </trkpt>
      <trkpt lat="48.10662" lon="1.36206">
        <ele>109</ele>
        <time>2018-10-09T14:23:09.121Z</time>
      </trkpt>
      <trkpt lat="48.10663" lon="1.36207">
        <ele>109</ele>
        <time>2018-10-09T14:23:10.121Z</time>
      </trkpt>
      <trkpt lat="48.10663" lon="1.36208">
        <ele>108</ele>
        <time>2018-10-09T14:23:11.121Z</time>
      </trkpt>
      <trkpt lat="48.10663" lon="1.3621">
        <ele>107</ele>
        <time>2018-10-09T14:23:12.121Z</time>
      </trkpt>
      <trkpt lat="48.10664" lon="1.36212">
        <ele>106</ele>
        <time>2018-10-09T14:23:13.121Z</time>
      </trkpt>
      <trkpt lat="48.10665" lon="1.36215">
        <ele>105</ele>
        <time>2018-10-09T14:23:14.121Z</time>
      </trkpt>
      <trkpt lat="48.10665" lon="1.36218">
        <ele>105</ele>
        <time>2018-10-09T14:23:15.121Z</time>
      </trkpt>
      <trkpt lat="48.10666" lon="1.3622">
        <ele>105</ele>
        <time>2018-10-09T14:23:16.121Z</time>
      </trkpt>
      <trkpt lat="48.10666" lon="1.36223">
        <ele>105</ele>
        <time>2018-10-09T14:23:17.121Z</time>
      </trkpt>
      <trkpt lat="48.10667" lon="1.36225">
        <ele>105</ele>
        <time>2018-10-09T14:23:18.121Z</time>
      </trkpt>
      <trkpt lat="48.10668" lon="1.36228">
        <ele>105</ele>
        <time>2018-10-09T14:23:19.121Z</time>
      </trkpt>
      <trkpt lat="48.10668" lon="1.3623">
        <ele>105</ele>
        <time>2018-10-09T14:23:20.121Z</time>
      </trkpt>
      <trkpt lat="48.10669" lon="1.36232">
        <ele>105</ele>
        <time>2018-10-09T14:23:21.121Z</time>
      </trkpt>
      <trkpt lat="48.10669" lon="1.36233">
        <ele>105</ele>
        <time>2018-10-09T14:23:22.121Z</time>
      </trkpt>
      <trkpt lat="48.1067" lon="1.36235">
        <ele>105</ele>
        <time>2018-10-09T14:23:23.121Z</time>
      </trkpt>
      <trkpt lat="48.1067" lon="1.36237">
        <ele>105</ele>
        <time>2018-10-09T14:23:24.121Z</time>
      </trkpt>
      <trkpt lat="48.10671" lon="1.36239">
        <ele>105</ele>
        <time>2018-10-09T14:23:25.121Z</time>
      </trkpt>
      <trkpt lat="48.10671" lon="1.3624">
        <ele>106</ele>
        <time>2018-10-09T14:23:26.121Z</time>
      </trkpt>
      <trkpt lat="48.10672" lon="1.36241">
        <ele>106</ele>
        <time>2018-10-09T14:23:27.121Z</time>
      </trkpt>
      <trkpt lat="48.10673" lon="1.36242">
        <ele>107</ele>
        <time>2018-10-09T14:23:28.121Z</time>
      </trkpt>
      <trkpt lat="48.10674" lon="1.36243">
        <ele>107</ele>
        <time>2018-10-09T14:23:29.121Z</time>
      </trkpt>
      <trkpt lat="48.10675" lon="1.36245">
        <ele>107</ele>
        <time>2018-10-09T14:23:30.121Z</time>
      </trkpt>
      <trkpt lat="48.10676" lon="1.36246">
        <ele>107</ele>
        <time>2018-10-09T14:23:31.121Z</time>
      </trkpt>
      <trkpt lat="48.10676" lon="1.36248">
        <ele>108</ele>
        <time>2018-10-09T14:23:32.121Z</time>
      </trkpt>
      <trkpt lat="48.10677" lon="1.36249">
        <ele>108</ele>
        <time>2018-10-09T14:23:33.121Z</time>
      </trkpt>
      <trkpt lat="48.10678" lon="1.36251">
        <ele>108</ele>
        <time>2018-10-09T14:23:34.121Z</time>
      </trkpt>
      <trkpt lat="48.10678" lon="1.36252">
        <ele>108</ele>
        <time>2018-10-09T14:23:35.121Z</time>
      </trkpt>
      <trkpt lat="48.10679" lon="1.36254">
        <ele>109</ele>
        <time>2018-10-09T14:23:36.121Z</time>
      </trkpt>
      <trkpt lat="48.10679" lon="1.36254">
        <ele>110</ele>
        <time>2018-10-09T14:23:37.121Z</time>
      </trkpt>
      <trkpt lat="48.1068" lon="1.36256">
        <ele>110</ele>
        <time>2018-10-09T14:23:38.121Z</time>
      </trkpt>
      <trkpt lat="48.10681" lon="1.36257">
        <ele>110</ele>
        <time>2018-10-09T14:23:39.121Z</time>
      </trkpt>
      <trkpt lat="48.10681" lon="1.36259">
        <ele>110</ele>
        <time>2018-10-09T14:23:40.121Z</time>
      </trkpt>
      <trkpt lat="48.10682" lon="1.3626">
        <ele>110</ele>
        <time>2018-10-09T14:23:41.121Z</time>
      </trkpt>
      <trkpt lat="48.10682" lon="1.36262">
        <ele>110</ele>
        <time>2018-10-09T14:23:42.121Z</time>
      </trkpt>
      <trkpt lat="48.10683" lon="1.36264">
        <ele>110</ele>
        <time>2018-10-09T14:23:43.121Z</time>
      </trkpt>
      <trkpt lat="48.10683" lon="1.36265">
        <ele>110</ele>
        <time>2018-10-09T14:23:44.121Z</time>
      </trkpt>
      <trkpt lat="48.10684" lon="1.36267">
        <ele>110</ele>
        <time>2018-10-09T14:23:45.121Z</time>
      </trkpt>
      <trkpt lat="48.10685" lon="1.36269">
        <ele>110</ele>
        <time>2018-10-09T14:23:46.121Z</time>
      </trkpt>
      <trkpt lat="48.10686" lon="1.36271">
        <ele>109</ele>
        <time>2018-10-09T14:23:47.121Z</time>
      </trkpt>
      <trkpt lat="48.10686" lon="1.36273">
        <ele>109</ele>
        <time>2018-10-09T14:23:48.121Z</time>
      </trkpt>
      <trkpt lat="48.10687" lon="1.36274">
        <ele>108</ele>
        <time>2018-10-09T14:23:49.121Z</time>
      </trkpt>
      <trkpt lat="48.10688" lon="1.36276">
        <ele>107</ele>
        <time>2018-10-09T14:23:50.121Z</time>
      </trkpt>
      <trkpt lat="48.10689" lon="1.36277">
        <ele>107</ele>
        <time>2018-10-09T14:23:51.121Z</time>
      </trkpt>
      <trkpt lat="48.10689" lon="1.36279">
        <ele>106</ele>
        <time>2018-10-09T14:23:52.121Z</time>
      </trkpt>
      <trkpt lat="48.1069" lon="1.3628">
        <ele>105</ele>
        <time>2018-10-09T14:23:53.121Z</time>
      </trkpt>
      <trkpt lat="48.10691" lon="1.36282">
        <ele>105</ele>
        <time>2018-10-09T14:23:54.121Z</time>
      </trkpt>
      <trkpt lat="48.10692" lon="1.36284">
        <ele>106</ele>
        <time>2018-10-09T14:23:55.121Z</time>
      </trkpt>
      <trkpt lat="48.10693" lon="1.36286">
        <ele>105</ele>
        <time>2018-10-09T14:23:56.121Z</time>
      </trkpt>
      <trkpt lat="48.10694" lon="1.36288">
        <ele>106</ele>
        <time>2018-10-09T14:23:57.121Z</time>
      </trkpt>
      <trkpt lat="48.10695" lon="1.36289">
        <ele>105</ele>
        <time>2018-10-09T14:23:58.121Z</time>
      </trkpt>
      <trkpt lat="48.10696" lon="1.3629">
        <ele>105</ele>
        <time>2018-10-09T14:23:59.121Z</time>
      </trkpt>
      <trkpt lat="48.10698" lon="1.36291">
        <ele>105</ele>
        <time>2018-10-09T14:24:00.121Z</time>
      </trkpt>
      <trkpt lat="48.10698" lon="1.36293">
        <ele>105</ele>
        <time>2018-10-09T14:24:01.121Z</time>
      </trkpt>
      <trkpt lat="48.10699" lon="1.36295">
        <ele>104</ele>
        <time>2018-10-09T14:24:02.121Z</time>
      </trkpt>
      <trkpt lat="48.10699" lon="1.36297">
        <ele>104</ele>
        <time>2018-10-09T14:24:03.121Z</time>
      </trkpt>
      <trkpt lat="48.107" lon="1.36299">
        <ele>104</ele>
        <time>2018-10-09T14:24:04.121Z</time>
      </trkpt>
      <trkpt lat="48.10701" lon="1.36301">
        <ele>104</ele>
        <time>2018-10-09T14:24:05.121Z</time>
      </trkpt>
      <trkpt lat="48.10702" lon="1.36303">
        <ele>104</ele>
        <time>2018-10-09T14:24:06.121Z</time>
      </trkpt>
      <trkpt lat="48.10702" lon="1.36305">
        <ele>103</ele>
        <time>2018-10-09T14:24:07.121Z</time>
      </trkpt>
      <trkpt lat="48.10703" lon="1.36306">
        <ele>104</ele>
        <time>2018-10-09T14:24:08.121Z</time>
      </trkpt>
      <trkpt lat="48.10704" lon="1.36308">
        <ele>103</ele>
        <time>2018-10-09T14:24:09.121Z</time>
      </trkpt>
      <trkpt lat="48.10705" lon="1.3631">
        <ele>104</ele>
        <time>2018-10-09T14:24:10.121Z</time>
      </trkpt>
      <trkpt lat="48.10706" lon="1.36312">
        <ele>104</ele>
        <time>2018-10-09T14:24:11.121Z</time>
      </trkpt>
      <trkpt lat="48.10707" lon="1.36315">
        <ele>104</ele>
        <time>2018-10-09T14:24:12.121Z</time>
      </trkpt>
      <trkpt lat="48.10708" lon="1.36316">
        <ele>104</ele>
        <time>2018-10-09T14:24:13.121Z</time>
      </trkpt>
      <trkpt lat="48.10708" lon="1.36318">
        <ele>105</ele>
        <time>2018-10-09T14:24:14.121Z</time>
      </trkpt>
      <trkpt lat="48.10709" lon="1.3632">
        <ele>105</ele>
        <time>2018-10-09T14:24:15.121Z</time>
      </trkpt>
      <trkpt lat="48.1071" lon="1.36322">
        <ele>105</ele>
        <time>2018-10-09T14:24:16.121Z</time>
      </trkpt>
      <trkpt lat="48.10711" lon="1.36324">
        <ele>105</ele>
        <time>2018-10-09T14:24:17.121Z</time>
      </trkpt>
      <trkpt lat="48.10712" lon="1.36326">
        <ele>105</ele>
        <time>2018-10-09T14:24:18.121Z</time>
      </trkpt>
      <trkpt lat="48.10712" lon="1.36328">
        <ele>105</ele>
        <time>2018-10-09T14:24:19.121Z</time>
      </trkpt>
      <trkpt lat="48.10713" lon="1.3633">
        <ele>105</ele>
        <time>2018-10-09T14:24:20.121Z</time>
      </trkpt>
      <trkpt lat="48.10713" lon="1.36332">
        <ele>105</ele>
        <time>2018-10-09T14:24:21.121Z</time>
      </trkpt>
      <trkpt lat="48.10714" lon="1.36333">
        <ele>106</ele>
        <time>2018-10-09T14:24:22.121Z</time>
      </trkpt>
      <trkpt lat="48.10715" lon="1.36335">
        <ele>106</ele>
        <time>2018-10-09T14:24:23.121Z</time>
      </trkpt>
      <trkpt lat="48.10715" lon="1.36337">
        <ele>106</ele>
        <time>2018-10-09T14:24:24.121Z</time>
      </trkpt>
      <trkpt lat="48.10716" lon="1.36339">
        <ele>106</ele>
        <time>2018-10-09T14:24:25.121Z</time>
      </trkpt>
      <trkpt lat="48.10717" lon="1.36341">
        <ele>106</ele>
        <time>2018-10-09T14:24:26.121Z</time>
      </trkpt>
      <trkpt lat="48.10717" lon="1.36343">
        <ele>106</ele>
        <time>2018-10-09T14:24:27.121Z</time>
      </trkpt>
      <trkpt lat="48.10718" lon="1.36345">
        <ele>106</ele>
        <time>2018-10-09T14:24:28.121Z</time>
      </trkpt>
      <trkpt lat="48.10718" lon="1.36347">
        <ele>107</ele>
        <time>2018-10-09T14:24:29.121Z</time>
      </trkpt>
      <trkpt lat="48.10719" lon="1.36349">
        <ele>107</ele>
        <time>2018-10-09T14:24:30.121Z</time>
      </trkpt>
      <trkpt lat="48.1072" lon="1.3635">
        <ele>107</ele>
        <time>2018-10-09T14:24:31.121Z</time>
      </trkpt>
      <trkpt lat="48.1072" lon="1.36352">
        <ele>107</ele>
        <time>2018-10-09T14:24:32.121Z</time>
      </trkpt>
      <trkpt lat="48.10721" lon="1.36353">
        <ele>107</ele>
        <time>2018-10-09T14:24:33.121Z</time>
      </trkpt>
      <trkpt lat="48.10721" lon="1.36355">
        <ele>107</ele>
        <time>2018-10-09T14:24:34.121Z</time>
      </trkpt>
      <trkpt lat="48.10722" lon="1.36357">
        <ele>107</ele>
        <time>2018-10-09T14:24:35.121Z</time>
      </trkpt>
      <trkpt lat="48.10722" lon="1.36359">
        <ele>107</ele>
        <time>2018-10-09T14:24:36.121Z</time>
      </trkpt>
      <trkpt lat="48.10723" lon="1.3636">
        <ele>107</ele>
        <time>2018-10-09T14:24:37.121Z</time>
      </trkpt>
      <trkpt lat="48.10723" lon="1.36362">
        <ele>107</ele>
        <time>2018-10-09T14:24:38.121Z</time>
      </trkpt>
      <trkpt lat="48.10724" lon="1.36364">
        <ele>107</ele>
        <time>2018-10-09T14:24:39.121Z</time>
      </trkpt>
      <trkpt lat="48.10724" lon="1.36365">
        <ele>107</ele>
        <time>2018-10-09T14:24:40.121Z</time>
      </trkpt>
      <trkpt lat="48.10725" lon="1.36367">
        <ele>107</ele>
        <time>2018-10-09T14:24:41.121Z</time>
      </trkpt>
      <trkpt lat="48.10726" lon="1.36369">
        <ele>107</ele>
        <time>2018-10-09T14:24:42.121Z</time>
      </trkpt>
      <trkpt lat="48.10726" lon="1.3637">
        <ele>107</ele>
        <time>2018-10-09T14:24:43.121Z</time>
      </trkpt>
      <trkpt lat="48.10727" lon="1.36372">
        <ele>107</ele>
        <time>2018-10-09T14:24:44.121Z</time>
      </trkpt>
      <trkpt lat="48.10727" lon="1.36374">
        <ele>107</ele>
        <time>2018-10-09T14:24:45.121Z</time>
      </trkpt>
      <trkpt lat="48.10728" lon="1.36375">
        <ele>106</ele>
        <time>2018-10-09T14:24:46.121Z</time>
      </trkpt>
      <trkpt lat="48.10728" lon="1.36377">
        <ele>106</ele>
        <time>2018-10-09T14:24:47.121Z</time>
      </trkpt>
      <trkpt lat="48.10729" lon="1.36379">
        <ele>107</ele>
        <time>2018-10-09T14:24:48.121Z</time>
      </trkpt>
      <trkpt lat="48.1073" lon="1.3638">
        <ele>106</ele>
        <time>2018-10-09T14:24:49.121Z</time>
      </trkpt>
      <trkpt lat="48.1073" lon="1.36382">
        <ele>107</ele>
        <time>2018-10-09T14:24:50.121Z</time>
      </trkpt>
      <trkpt lat="48.10731" lon="1.36383">
        <ele>107</ele>
        <time>2018-10-09T14:24:51.121Z</time>
      </trkpt>
      <trkpt lat="48.10731" lon="1.36385">
        <ele>106</ele>
        <time>2018-10-09T14:24:52.121Z</time>
      </trkpt>
      <trkpt lat="48.10732" lon="1.36387">
        <ele>106</ele>
        <time>2018-10-09T14:24:53.121Z</time>
      </trkpt>
      <trkpt lat="48.10732" lon="1.36388">
        <ele>106</ele>
        <time>2018-10-09T14:24:54.121Z</time>
      </trkpt>
      <trkpt lat="48.10733" lon="1.3639">
        <ele>106</ele>
        <time>2018-10-09T14:24:55.121Z</time>
      </trkpt>
      <trkpt lat="48.10733" lon="1.36391">
        <ele>107</ele>
        <time>2018-10-09T14:24:56.121Z</time>
      </trkpt>
      <trkpt lat="48.10733" lon="1.36393">
        <ele>106</ele>
        <time>2018-10-09T14:24:57.121Z</time>
      </trkpt>
      <trkpt lat="48.10734" lon="1.36393">
        <ele>106</ele>
        <time>2018-10-09T14:24:58.121Z</time>
      </trkpt>
      <trkpt lat="48.10734" lon="1.36394">
        <ele>106</ele>
        <time>2018-10-09T14:24:59.121Z</time>
      </trkpt>
      <trkpt lat="48.10734" lon="1.36394">
        <ele>106</ele>
        <time>2018-10-09T14:25:00.121Z</time>
      </trkpt>
      <trkpt lat="48.10734" lon="1.36395">
        <ele>105</ele>
        <time>2018-10-09T14:25:01.121Z</time>
      </trkpt>
      <trkpt lat="48.10735" lon="1.36397">
        <ele>106</ele>
        <time>2018-10-09T14:25:02.121Z</time>
      </trkpt>
      <trkpt lat="48.10735" lon="1.36399">
        <ele>105</ele>
        <time>2018-10-09T14:25:03.121Z</time>
      </trkpt>
      <trkpt lat="48.10736" lon="1.36401">
        <ele>107</ele>
        <time>2018-10-09T14:25:04.121Z</time>
      </trkpt>
      <trkpt lat="48.10736" lon="1.36402">
        <ele>107</ele>
        <time>2018-10-09T14:25:05.121Z</time>
      </trkpt>
      <trkpt lat="48.10737" lon="1.36404">
        <ele>107</ele>
        <time>2018-10-09T14:25:06.121Z</time>
      </trkpt>
      <trkpt lat="48.10737" lon="1.36405">
        <ele>107</ele>
        <time>2018-10-09T14:25:07.121Z</time>
      </trkpt>
      <trkpt lat="48.10738" lon="1.36407">
        <ele>107</ele>
        <time>2018-10-09T14:25:08.121Z</time>
      </trkpt>
      <trkpt lat="48.10738" lon="1.36409">
        <ele>107</ele>
        <time>2018-10-09T14:25:09.121Z</time>
      </trkpt>
      <trkpt lat="48.10739" lon="1.36411">
        <ele>107</ele>
        <time>2018-10-09T14:25:10.121Z</time>
      </trkpt>
      <trkpt lat="48.10739" lon="1.36413">
        <ele>108</ele>
        <time>2018-10-09T14:25:11.121Z</time>
      </trkpt>
      <trkpt lat="48.10739" lon="1.36414">
        <ele>108</ele>
        <time>2018-10-09T14:25:12.121Z</time>
      </trkpt>
      <trkpt lat="48.10739" lon="1.36416">
        <ele>108</ele>
        <time>2018-10-09T14:25:13.121Z</time>
      </trkpt>
      <trkpt lat="48.10739" lon="1.36419">
        <ele>107</ele>
        <time>2018-10-09T14:25:14.121Z</time>
      </trkpt>
      <trkpt lat="48.10738" lon="1.36421">
        <ele>107</ele>
        <time>2018-10-09T14:25:15.121Z</time>
      </trkpt>
      <trkpt lat="48.10738" lon="1.36422">
        <ele>106</ele>
        <time>2018-10-09T14:25:16.121Z</time>
      </trkpt>
      <trkpt lat="48.10738" lon="1.36424">
        <ele>106</ele>
        <time>2018-10-09T14:25:17.121Z</time>
      </trkpt>
      <trkpt lat="48.10738" lon="1.36426">
        <ele>106</ele>
        <time>2018-10-09T14:25:18.121Z</time>
      </trkpt>
      <trkpt lat="48.10738" lon="1.36428">
        <ele>106</ele>
        <time>2018-10-09T14:25:19.121Z</time>
      </trkpt>
      <trkpt lat="48.10738" lon="1.3643">
        <ele>106</ele>
        <time>2018-10-09T14:25:20.121Z</time>
      </trkpt>
      <trkpt lat="48.10738" lon="1.36431">
        <ele>106</ele>
        <time>2018-10-09T14:25:21.121Z</time>
      </trkpt>
      <trkpt lat="48.10738" lon="1.36433">
        <ele>106</ele>
        <time>2018-10-09T14:25:22.121Z</time>
      </trkpt>
      <trkpt lat="48.10738" lon="1.36435">
        <ele>106</ele>
        <time>2018-10-09T14:25:23.121Z</time>
      </trkpt>
      <trkpt lat="48.10738" lon="1.36436">
        <ele>106</ele>
        <time>2018-10-09T14:25:24.121Z</time>
      </trkpt>
      <trkpt lat="48.10738" lon="1.36438">
        <ele>106</ele>
        <time>2018-10-09T14:25:25.121Z</time>
      </trkpt>
      <trkpt lat="48.10738" lon="1.36439">
        <ele>106</ele>
        <time>2018-10-09T14:25:26.121Z</time>
      </trkpt>
      <trkpt lat="48.10738" lon="1.36441">
        <ele>106</ele>
        <time>2018-10-09T14:25:27.121Z</time>
      </trkpt>
      <trkpt lat="48.10738" lon="1.36442">
        <ele>105</ele>
        <time>2018-10-09T14:25:28.121Z</time>
      </trkpt>
      <trkpt lat="48.10738" lon="1.36443">
        <ele>105</ele>
        <time>2018-10-09T14:25:29.121Z</time>
      </trkpt>
      <trkpt lat="48.10738" lon="1.36444">
        <ele>105</ele>
        <time>2018-10-09T14:25:30.121Z</time>
      </trkpt>
      <trkpt lat="48.10738" lon="1.36446">
        <ele>105</ele>
        <time>2018-10-09T14:25:31.121Z</time>
      </trkpt>
      <trkpt lat="48.10738" lon="1.36447">
        <ele>105</ele>
        <time>2018-10-09T14:25:32.121Z</time>
      </trkpt>
      <trkpt lat="48.10738" lon="1.36449">
        <ele>105</ele>
        <time>2018-10-09T14:25:33.121Z</time>
      </trkpt>
      <trkpt lat="48.10739" lon="1.3645">
        <ele>106</ele>
        <time>2018-10-09T14:25:34.121Z</time>
      </trkpt>
      <trkpt lat="48.10739" lon="1.36451">
        <ele>107</ele>
        <time>2018-10-09T14:25:35.121Z</time>
      </trkpt>
      <trkpt lat="48.10739" lon="1.36452">
        <ele>107</ele>
        <time>2018-10-09T14:25:36.121Z</time>
      </trkpt>
      <trkpt lat="48.10739" lon="1.36454">
        <ele>107</ele>
        <time>2018-10-09T14:25:37.121Z</time>
      </trkpt>
      <trkpt lat="48.10739" lon="1.36455">
        <ele>109</ele>
        <time>2018-10-09T14:25:38.121Z</time>
      </trkpt>
      <trkpt lat="48.1074" lon="1.36457">
        <ele>109</ele>
        <time>2018-10-09T14:25:39.121Z</time>
      </trkpt>
      <trkpt lat="48.1074" lon="1.36459">
        <ele>110</ele>
        <time>2018-10-09T14:25:40.121Z</time>
      </trkpt>
      <trkpt lat="48.10741" lon="1.36461">
        <ele>110</ele>
        <time>2018-10-09T14:25:41.121Z</time>
      </trkpt>
      <trkpt lat="48.10741" lon="1.36463">
        <ele>110</ele>
        <time>2018-10-09T14:25:42.121Z</time>
      </trkpt>
      <trkpt lat="48.10741" lon="1.36464">
        <ele>109</ele>
        <time>2018-10-09T14:25:43.121Z</time>
      </trkpt>
      <trkpt lat="48.10742" lon="1.36466">
        <ele>110</ele>
        <time>2018-10-09T14:25:44.121Z</time>
      </trkpt>
      <trkpt lat="48.10742" lon="1.36468">
        <ele>110</ele>
        <time>2018-10-09T14:25:45.121Z</time>
      </trkpt>
      <trkpt lat="48.10743" lon="1.36469">
        <ele>111</ele>
        <time>2018-10-09T14:25:46.121Z</time>
      </trkpt>
      <trkpt lat="48.10743" lon="1.36471">
        <ele>111</ele>
        <time>2018-10-09T14:25:47.121Z</time>
      </trkpt>
      <trkpt lat="48.10744" lon="1.36473">
        <ele>111</ele>
        <time>2018-10-09T14:25:48.121Z</time>
      </trkpt>
      <trkpt lat="48.10744" lon="1.36474">
        <ele>112</ele>
        <time>2018-10-09T14:25:49.121Z</time>
      </trkpt>
      <trkpt lat="48.10744" lon="1.36476">
        <ele>112</ele>
        <time>2018-10-09T14:25:50.121Z</time>
      </trkpt>
      <trkpt lat="48.10745" lon="1.36478">
        <ele>112</ele>
        <time>2018-10-09T14:25:51.121Z</time>
      </trkpt>
      <trkpt lat="48.10745" lon="1.36479">
        <ele>113</ele>
        <time>2018-10-09T14:25:52.121Z</time>
      </trkpt>
      <trkpt lat="48.10746" lon="1.36481">
        <ele>114</ele>
        <time>2018-10-09T14:25:53.121Z</time>
      </trkpt>
      <trkpt lat="48.10747" lon="1.36483">
        <ele>115</ele>
        <time>2018-10-09T14:25:54.121Z</time>
      </trkpt>
      <trkpt lat="48.10747" lon="1.36484">
        <ele>115</ele>
        <time>2018-10-09T14:25:55.121Z</time>
      </trkpt>
      <trkpt lat="48.10748" lon="1.36486">
        <ele>116</ele>
        <time>2018-10-09T14:25:56.121Z</time>
      </trkpt>
      <trkpt lat="48.10749" lon="1.36488">
        <ele>117</ele>
        <time>2018-10-09T14:25:57.121Z</time>
      </trkpt>
      <trkpt lat="48.10749" lon="1.36489">
        <ele>118</ele>
        <time>2018-10-09T14:25:58.121Z</time>
      </trkpt>
      <trkpt lat="48.1075" lon="1.36491">
        <ele>119</ele>
        <time>2018-10-09T14:25:59.121Z</time>
      </trkpt>
      <trkpt lat="48.1075" lon="1.36492">
        <ele>119</ele>
        <time>2018-10-09T14:26:00.121Z</time>
      </trkpt>
      <trkpt lat="48.10751" lon="1.36494">
        <ele>119</ele>
        <time>2018-10-09T14:26:01.121Z</time>
      </trkpt>
      <trkpt lat="48.10751" lon="1.36495">
        <ele>119</ele>
        <time>2018-10-09T14:26:02.121Z</time>
      </trkpt>
      <trkpt lat="48.10751" lon="1.36496">
        <ele>119</ele>
        <time>2018-10-09T14:26:03.121Z</time>
      </trkpt>
      <trkpt lat="48.10751" lon="1.36498">
        <ele>120</ele>
        <time>2018-10-09T14:26:04.121Z</time>
      </trkpt>
      <trkpt lat="48.10751" lon="1.365">
        <ele>120</ele>
        <time>2018-10-09T14:26:05.121Z</time>
      </trkpt>
      <trkpt lat="48.10751" lon="1.36502">
        <ele>121</ele>
        <time>2018-10-09T14:26:06.121Z</time>
      </trkpt>
      <trkpt lat="48.10752" lon="1.36503">
        <ele>122</ele>
        <time>2018-10-09T14:26:07.121Z</time>
      </trkpt>
      <trkpt lat="48.10752" lon="1.36505">
        <ele>122</ele>
        <time>2018-10-09T14:26:08.121Z</time>
      </trkpt>
      <trkpt lat="48.10752" lon="1.36507">
        <ele>123</ele>
        <time>2018-10-09T14:26:09.121Z</time>
      </trkpt>
      <trkpt lat="48.10752" lon="1.36509">
        <ele>123</ele>
        <time>2018-10-09T14:26:10.121Z</time>
      </trkpt>
      <trkpt lat="48.10752" lon="1.3651">
        <ele>124</ele>
        <time>2018-10-09T14:26:11.121Z</time>
      </trkpt>
      <trkpt lat="48.10752" lon="1.36512">
        <ele>124</ele>
        <time>2018-10-09T14:26:12.121Z</time>
      </trkpt>
      <trkpt lat="48.10753" lon="1.36514">
        <ele>125</ele>
        <time>2018-10-09T14:26:13.121Z</time>
      </trkpt>
      <trkpt lat="48.10753" lon="1.36515">
        <ele>125</ele>
        <time>2018-10-09T14:26:14.121Z</time>
      </trkpt>
      <trkpt lat="48.10753" lon="1.36517">
        <ele>125</ele>
        <time>2018-10-09T14:26:15.121Z</time>
      </trkpt>
      <trkpt lat="48.10754" lon="1.36519">
        <ele>126</ele>
        <time>2018-10-09T14:26:16.121Z</time>
      </trkpt>
      <trkpt lat="48.10754" lon="1.36521">
        <ele>126</ele>
        <time>2018-10-09T14:26:17.121Z</time>
      </trkpt>
      <trkpt lat="48.10754" lon="1.36522">
        <ele>126</ele>
        <time>2018-10-09T14:26:18.121Z</time>
      </trkpt>
      <trkpt lat="48.10755" lon="1.36524">
        <ele>126</ele>
        <time>2018-10-09T14:26:19.121Z</time>
      </trkpt>
      <trkpt lat="48.10755" lon="1.36525">
        <ele>126</ele>
        <time>2018-10-09T14:26:20.121Z</time>
      </trkpt>
      <trkpt lat="48.10755" lon="1.36527">
        <ele>126</ele>
        <time>2018-10-09T14:26:21.121Z</time>
      </trkpt>
      <trkpt lat="48.10755" lon="1.36529">
        <ele>127</ele>
        <time>2018-10-09T14:26:22.121Z</time>
      </trkpt>
      <trkpt lat="48.10756" lon="1.3653">
        <ele>127</ele>
        <time>2018-10-09T14:26:23.121Z</time>
      </trkpt>
      <trkpt lat="48.10756" lon="1.36532">
        <ele>127</ele>
        <time>2018-10-09T14:26:24.121Z</time>
      </trkpt>
      <trkpt lat="48.10756" lon="1.36534">
        <ele>127</ele>
        <time>2018-10-09T14:26:25.121Z</time>
      </trkpt>
      <trkpt lat="48.10756" lon="1.36535">
        <ele>127</ele>
        <time>2018-10-09T14:26:26.121Z</time>
      </trkpt>
      <trkpt lat="48.10756" lon="1.36537">
        <ele>127</ele>
        <time>2018-10-09T14:26:27.121Z</time>
      </trkpt>
      <trkpt lat="48.10757" lon="1.36538">
        <ele>127</ele>
        <time>2018-10-09T14:26:28.121Z</time>
      </trkpt>
      <trkpt lat="48.10757" lon="1.3654">
        <ele>127</ele>
        <time>2018-10-09T14:26:29.121Z</time>
      </trkpt>
      <trkpt lat="48.10757" lon="1.36541">
        <ele>127</ele>
        <time>2018-10-09T14:26:30.121Z</time>
      </trkpt>
      <trkpt lat="48.10757" lon="1.36542">
        <ele>128</ele>
        <time>2018-10-09T14:26:31.121Z</time>
      </trkpt>
      <trkpt lat="48.10758" lon="1.36543">
        <ele>128</ele>
        <time>2018-10-09T14:26:32.121Z</time>
      </trkpt>
      <trkpt lat="48.10758" lon="1.36545">
        <ele>128</ele>
        <time>2018-10-09T14:26:33.121Z</time>
      </trkpt>
      <trkpt lat="48.10758" lon="1.36546">
        <ele>128</ele>
        <time>2018-10-09T14:26:34.121Z</time>
      </trkpt>
      <trkpt lat="48.10758" lon="1.36548">
        <ele>128</ele>
        <time>2018-10-09T14:26:35.121Z</time>
      </trkpt>
      <trkpt lat="48.10759" lon="1.3655">
        <ele>127</ele>
        <time>2018-10-09T14:26:36.121Z</time>
      </trkpt>
      <trkpt lat="48.10759" lon="1.36551">
        <ele>127</ele>
        <time>2018-10-09T14:26:37.121Z</time>
      </trkpt>
      <trkpt lat="48.10759" lon="1.36553">
        <ele>126</ele>
        <time>2018-10-09T14:26:38.121Z</time>
      </trkpt>
      <trkpt lat="48.1076" lon="1.36554">
        <ele>126</ele>
        <time>2018-10-09T14:26:39.121Z</time>
      </trkpt>
      <trkpt lat="48.1076" lon="1.36556">
        <ele>126</ele>
        <time>2018-10-09T14:26:40.121Z</time>
      </trkpt>
      <trkpt lat="48.1076" lon="1.36558">
        <ele>127</ele>
        <time>2018-10-09T14:26:41.121Z</time>
      </trkpt>
      <trkpt lat="48.1076" lon="1.36559">
        <ele>126</ele>
        <time>2018-10-09T14:26:42.121Z</time>
      </trkpt>
      <trkpt lat="48.1076" lon="1.36561">
        <ele>127</ele>
        <time>2018-10-09T14:26:43.121Z</time>
      </trkpt>
      <trkpt lat="48.10759" lon="1.36563">
        <ele>127</ele>
        <time>2018-10-09T14:26:44.121Z</time>
      </trkpt>
      <trkpt lat="48.1076" lon="1.36565">
        <ele>127</ele>
        <time>2018-10-09T14:26:45.121Z</time>
      </trkpt>
      <trkpt lat="48.1076" lon="1.36566">
        <ele>127</ele>
        <time>2018-10-09T14:26:46.121Z</time>
      </trkpt>
      <trkpt lat="48.1076" lon="1.36568">
        <ele>127</ele>
        <time>2018-10-09T14:26:47.121Z</time>
      </trkpt>
      <trkpt lat="48.1076" lon="1.36569">
        <ele>127</ele>
        <time>2018-10-09T14:26:48.121Z</time>
      </trkpt>
      <trkpt lat="48.1076" lon="1.36571">
        <ele>127</ele>
        <time>2018-10-09T14:26:49.121Z</time>
      </trkpt>
      <trkpt lat="48.1076" lon="1.36573">
        <ele>128</ele>
        <time>2018-10-09T14:26:50.121Z</time>
      </trkpt>
      <trkpt lat="48.10761" lon="1.36574">
        <ele>128</ele>
        <time>2018-10-09T14:26:51.121Z</time>
      </trkpt>
      <trkpt lat="48.10761" lon="1.36576">
        <ele>128</ele>
        <time>2018-10-09T14:26:52.121Z</time>
      </trkpt>
      <trkpt lat="48.10761" lon="1.36578">
        <ele>129</ele>
        <time>2018-10-09T14:26:53.121Z</time>
      </trkpt>
      <trkpt lat="48.10761" lon="1.36579">
        <ele>129</ele>
        <time>2018-10-09T14:26:54.121Z</time>
      </trkpt>
      <trkpt lat="48.10761" lon="1.36581">
        <ele>129</ele>
        <time>2018-10-09T14:26:55.121Z</time>
      </trkpt>
      <trkpt lat="48.10761" lon="1.36582">
        <ele>129</ele>
        <time>2018-10-09T14:26:56.121Z</time>
      </trkpt>
      <trkpt lat="48.10762" lon="1.36584">
        <ele>130</ele>
        <time>2018-10-09T14:26:57.121Z</time>
      </trkpt>
      <trkpt lat="48.10762" lon="1.36585">
        <ele>130</ele>
        <time>2018-10-09T14:26:58.121Z</time>
      </trkpt>
      <trkpt lat="48.10763" lon="1.36587">
        <ele>130</ele>
        <time>2018-10-09T14:26:59.121Z</time>
      </trkpt>
      <trkpt lat="48.10763" lon="1.36588">
        <ele>130</ele>
        <time>2018-10-09T14:27:00.121Z</time>
      </trkpt>
      <trkpt lat="48.10763" lon="1.36589">
        <ele>130</ele>
        <time>2018-10-09T14:27:01.121Z</time>
      </trkpt>
      <trkpt lat="48.10764" lon="1.36591">
        <ele>129</ele>
        <time>2018-10-09T14:27:02.121Z</time>
      </trkpt>
      <trkpt lat="48.10764" lon="1.36592">
        <ele>129</ele>
        <time>2018-10-09T14:27:03.121Z</time>
      </trkpt>
      <trkpt lat="48.10765" lon="1.36594">
        <ele>129</ele>
        <time>2018-10-09T14:27:04.121Z</time>
      </trkpt>
      <trkpt lat="48.10765" lon="1.36597">
        <ele>129</ele>
        <time>2018-10-09T14:27:05.121Z</time>
      </trkpt>
      <trkpt lat="48.10766" lon="1.36599">
        <ele>129</ele>
        <time>2018-10-09T14:27:06.121Z</time>
      </trkpt>
      <trkpt lat="48.10766" lon="1.36601">
        <ele>129</ele>
        <time>2018-10-09T14:27:07.121Z</time>
      </trkpt>
      <trkpt lat="48.10767" lon="1.36603">
        <ele>128</ele>
        <time>2018-10-09T14:27:08.121Z</time>
      </trkpt>
      <trkpt lat="48.10767" lon="1.36605">
        <ele>128</ele>
        <time>2018-10-09T14:27:09.121Z</time>
      </trkpt>
      <trkpt lat="48.10767" lon="1.36607">
        <ele>129</ele>
        <time>2018-10-09T14:27:10.121Z</time>
      </trkpt>
      <trkpt lat="48.10768" lon="1.36609">
        <ele>129</ele>
        <time>2018-10-09T14:27:11.121Z</time>
      </trkpt>
      <trkpt lat="48.10768" lon="1.36611">
        <ele>129</ele>
        <time>2018-10-09T14:27:12.121Z</time>
      </trkpt>
      <trkpt lat="48.10769" lon="1.36613">
        <ele>129</ele>
        <time>2018-10-09T14:27:13.121Z</time>
      </trkpt>
      <trkpt lat="48.10769" lon="1.36615">
        <ele>129</ele>
        <time>2018-10-09T14:27:14.121Z</time>
      </trkpt>
      <trkpt lat="48.1077" lon="1.36617">
        <ele>129</ele>
        <time>2018-10-09T14:27:15.121Z</time>
      </trkpt>
      <trkpt lat="48.1077" lon="1.36619">
        <ele>130</ele>
        <time>2018-10-09T14:27:16.121Z</time>
      </trkpt>
      <trkpt lat="48.1077" lon="1.36621">
        <ele>129</ele>
        <time>2018-10-09T14:27:17.121Z</time>
      </trkpt>
      <trkpt lat="48.1077" lon="1.36622">
        <ele>129</ele>
        <time>2018-10-09T14:27:18.121Z</time>
      </trkpt>
      <trkpt lat="48.10771" lon="1.36624">
        <ele>130</ele>
        <time>2018-10-09T14:27:19.121Z</time>
      </trkpt>
      <trkpt lat="48.10771" lon="1.36625">
        <ele>130</ele>
        <time>2018-10-09T14:27:20.121Z</time>
      </trkpt>
      <trkpt lat="48.10771" lon="1.36627">
        <ele>130</ele>
        <time>2018-10-09T14:27:21.121Z</time>
      </trkpt>
      <trkpt lat="48.1077" lon="1.36629">
        <ele>130</ele>
        <time>2018-10-09T14:27:22.121Z</time>
      </trkpt>
      <trkpt lat="48.1077" lon="1.36631">
        <ele>130</ele>
        <time>2018-10-09T14:27:23.121Z</time>
      </trkpt>
      <trkpt lat="48.1077" lon="1.36633">
        <ele>130</ele>
        <time>2018-10-09T14:27:24.121Z</time>
      </trkpt>
      <trkpt lat="48.1077" lon="1.36635">
        <ele>131</ele>
        <time>2018-10-09T14:27:25.121Z</time>
      </trkpt>
      <trkpt lat="48.10769" lon="1.36637">
        <ele>131</ele>
        <time>2018-10-09T14:27:26.121Z</time>
      </trkpt>
      <trkpt lat="48.10769" lon="1.36638">
        <ele>131</ele>
        <time>2018-10-09T14:27:27.121Z</time>
      </trkpt>
      <trkpt lat="48.10769" lon="1.3664">
        <ele>132</ele>
        <time>2018-10-09T14:27:28.121Z</time>
      </trkpt>
      <trkpt lat="48.10769" lon="1.36642">
        <ele>131</ele>
        <time>2018-10-09T14:27:29.121Z</time>
      </trkpt>
      <trkpt lat="48.10768" lon="1.36643">
        <ele>132</ele>
        <time>2018-10-09T14:27:30.121Z</time>
      </trkpt>
      <trkpt lat="48.10768" lon="1.36645">
        <ele>132</ele>
        <time>2018-10-09T14:27:31.121Z</time>
      </trkpt>
      <trkpt lat="48.10768" lon="1.36647">
        <ele>132</ele>
        <time>2018-10-09T14:27:32.121Z</time>
      </trkpt>
      <trkpt lat="48.10767" lon="1.36648">
        <ele>132</ele>
        <time>2018-10-09T14:27:33.121Z</time>
      </trkpt>
      <trkpt lat="48.10766" lon="1.3665">
        <ele>132</ele>
        <time>2018-10-09T14:27:34.121Z</time>
      </trkpt>
      <trkpt lat="48.10766" lon="1.36651">
        <ele>132</ele>
        <time>2018-10-09T14:27:35.121Z</time>
      </trkpt>
      <trkpt lat="48.10766" lon="1.36653">
        <ele>132</ele>
        <time>2018-10-09T14:27:36.121Z</time>
      </trkpt>
      <trkpt lat="48.10766" lon="1.36654">
        <ele>133</ele>
        <time>2018-10-09T14:27:37.121Z</time>
      </trkpt>
      <trkpt lat="48.10765" lon="1.36656">
        <ele>132</ele>
        <time>2018-10-09T14:27:38.121Z</time>
      </trkpt>
      <trkpt lat="48.10765" lon="1.36657">
        <ele>132</ele>
        <time>2018-10-09T14:27:39.121Z</time>
      </trkpt>
      <trkpt lat="48.10764" lon="1.36659">
        <ele>132</ele>
        <time>2018-10-09T14:27:40.121Z</time>
      </trkpt>
      <trkpt lat="48.10763" lon="1.3666">
        <ele>132</ele>
        <time>2018-10-09T14:27:41.121Z</time>
      </trkpt>
      <trkpt lat="48.10763" lon="1.36661">
        <ele>132</ele>
        <time>2018-10-09T14:27:42.121Z</time>
      </trkpt>
      <trkpt lat="48.10762" lon="1.36663">
        <ele>132</ele>
        <time>2018-10-09T14:27:43.121Z</time>
      </trkpt>
      <trkpt lat="48.10761" lon="1.36664">
        <ele>132</ele>
        <time>2018-10-09T14:27:44.121Z</time>
      </trkpt>
      <trkpt lat="48.10761" lon="1.36665">
        <ele>132</ele>
        <time>2018-10-09T14:27:45.121Z</time>
      </trkpt>
      <trkpt lat="48.1076" lon="1.36666">
        <ele>132</ele>
        <time>2018-10-09T14:27:46.121Z</time>
      </trkpt>
      <trkpt lat="48.10759" lon="1.36667">
        <ele>131</ele>
        <time>2018-10-09T14:27:47.121Z</time>
      </trkpt>
      <trkpt lat="48.10759" lon="1.36669">
        <ele>132</ele>
        <time>2018-10-09T14:27:48.121Z</time>
      </trkpt>
      <trkpt lat="48.10758" lon="1.3667">
        <ele>132</ele>
        <time>2018-10-09T14:27:49.121Z</time>
      </trkpt>
      <trkpt lat="48.10758" lon="1.36671">
        <ele>132</ele>
        <time>2018-10-09T14:27:50.121Z</time>
      </trkpt>
      <trkpt lat="48.10757" lon="1.36672">
        <ele>132</ele>
        <time>2018-10-09T14:27:51.121Z</time>
      </trkpt>
      <trkpt lat="48.10757" lon="1.36674">
        <ele>132</ele>
        <time>2018-10-09T14:27:52.121Z</time>
      </trkpt>
      <trkpt lat="48.10756" lon="1.36675">
        <ele>132</ele>
        <time>2018-10-09T14:27:53.121Z</time>
      </trkpt>
      <trkpt lat="48.10756" lon="1.36676">
        <ele>133</ele>
        <time>2018-10-09T14:27:54.121Z</time>
      </trkpt>
      <trkpt lat="48.10755" lon="1.36678">
        <ele>133</ele>
        <time>2018-10-09T14:27:55.121Z</time>
      </trkpt>
      <trkpt lat="48.10754" lon="1.36679">
        <ele>132</ele>
        <time>2018-10-09T14:27:56.121Z</time>
      </trkpt>
      <trkpt lat="48.10753" lon="1.3668">
        <ele>132</ele>
        <time>2018-10-09T14:27:57.121Z</time>
      </trkpt>
      <trkpt lat="48.10753" lon="1.36681">
        <ele>132</ele>
        <time>2018-10-09T14:27:58.121Z</time>
      </trkpt>
      <trkpt lat="48.10752" lon="1.36683">
        <ele>132</ele>
        <time>2018-10-09T14:27:59.121Z</time>
      </trkpt>
      <trkpt lat="48.10751" lon="1.36684">
        <ele>132</ele>
        <time>2018-10-09T14:28:00.121Z</time>
      </trkpt>
      <trkpt lat="48.10751" lon="1.36685">
        <ele>132</ele>
        <time>2018-10-09T14:28:01.121Z</time>
      </trkpt>
      <trkpt lat="48.1075" lon="1.36686">
        <ele>132</ele>
        <time>2018-10-09T14:28:02.121Z</time>
      </trkpt>
      <trkpt lat="48.10749" lon="1.36687">
        <ele>133</ele>
        <time>2018-10-09T14:28:03.121Z</time>
      </trkpt>
      <trkpt lat="48.10748" lon="1.36689">
        <ele>133</ele>
        <time>2018-10-09T14:28:04.121Z</time>
      </trkpt>
      <trkpt lat="48.10747" lon="1.3669">
        <ele>133</ele>
        <time>2018-10-09T14:28:05.121Z</time>
      </trkpt>
      <trkpt lat="48.10746" lon="1.36691">
        <ele>133</ele>
        <time>2018-10-09T14:28:06.121Z</time>
      </trkpt>
      <trkpt lat="48.10746" lon="1.36693">
        <ele>133</ele>
        <time>2018-10-09T14:28:07.121Z</time>
      </trkpt>
      <trkpt lat="48.10745" lon="1.36694">
        <ele>133</ele>
        <time>2018-10-09T14:28:08.121Z</time>
      </trkpt>
      <trkpt lat="48.10744" lon="1.36696">
        <ele>133</ele>
        <time>2018-10-09T14:28:09.121Z</time>
      </trkpt>
      <trkpt lat="48.10743" lon="1.36697">
        <ele>133</ele>
        <time>2018-10-09T14:28:10.121Z</time>
      </trkpt>
      <trkpt lat="48.10743" lon="1.36699">
        <ele>133</ele>
        <time>2018-10-09T14:28:11.121Z</time>
      </trkpt>
      <trkpt lat="48.10742" lon="1.367">
        <ele>133</ele>
        <time>2018-10-09T14:28:12.121Z</time>
      </trkpt>
      <trkpt lat="48.10741" lon="1.36701">
        <ele>133</ele>
        <time>2018-10-09T14:28:13.121Z</time>
      </trkpt>
      <trkpt lat="48.1074" lon="1.36702">
        <ele>133</ele>
        <time>2018-10-09T14:28:14.121Z</time>
      </trkpt>
      <trkpt lat="48.1074" lon="1.36703">
        <ele>133</ele>
        <time>2018-10-09T14:28:15.121Z</time>
      </trkpt>
      <trkpt lat="48.10739" lon="1.36704">
        <ele>133</ele>
        <time>2018-10-09T14:28:16.121Z</time>
      </trkpt>
      <trkpt lat="48.10738" lon="1.36706">
        <ele>133</ele>
        <time>2018-10-09T14:28:17.121Z</time>
      </trkpt>
      <trkpt lat="48.10737" lon="1.36707">
        <ele>133</ele>
        <time>2018-10-09T14:28:18.121Z</time>
      </trkpt>
      <trkpt lat="48.10737" lon="1.36708">
        <ele>133</ele>
        <time>2018-10-09T14:28:19.121Z</time>
      </trkpt>
      <trkpt lat="48.10736" lon="1.3671">
        <ele>133</ele>
        <time>2018-10-09T14:28:20.121Z</time>
      </trkpt>
      <trkpt lat="48.10735" lon="1.36711">
        <ele>132</ele>
        <time>2018-10-09T14:28:21.121Z</time>
      </trkpt>
      <trkpt lat="48.10734" lon="1.36712">
        <ele>132</ele>
        <time>2018-10-09T14:28:22.121Z</time>
      </trkpt>
      <trkpt lat="48.10733" lon="1.36714">
        <ele>133</ele>
        <time>2018-10-09T14:28:23.121Z</time>
      </trkpt>
      <trkpt lat="48.10732" lon="1.36715">
        <ele>133</ele>
        <time>2018-10-09T14:28:24.121Z</time>
      </trkpt>
      <trkpt lat="48.10732" lon="1.36717">
        <ele>133</ele>
        <time>2018-10-09T14:28:25.121Z</time>
      </trkpt>
      <trkpt lat="48.10732" lon="1.36719">
        <ele>133</ele>
        <time>2018-10-09T14:28:26.121Z</time>
      </trkpt>
      <trkpt lat="48.10731" lon="1.36721">
        <ele>133</ele>
        <time>2018-10-09T14:28:27.121Z</time>
      </trkpt>
      <trkpt lat="48.10731" lon="1.36722">
        <ele>133</ele>
        <time>2018-10-09T14:28:28.121Z</time>
      </trkpt>
      <trkpt lat="48.1073" lon="1.36724">
        <ele>133</ele>
        <time>2018-10-09T14:28:29.121Z</time>
      </trkpt>
      <trkpt lat="48.1073" lon="1.36726">
        <ele>133</ele>
        <time>2018-10-09T14:28:30.121Z</time>
      </trkpt>
      <trkpt lat="48.1073" lon="1.36728">
        <ele>133</ele>
        <time>2018-10-09T14:28:31.121Z</time>
      </trkpt>
      <trkpt lat="48.10729" lon="1.3673">
        <ele>133</ele>
        <time>2018-10-09T14:28:32.121Z</time>
      </trkpt>
      <trkpt lat="48.10729" lon="1.36732">
        <ele>133</ele>
        <time>2018-10-09T14:28:33.121Z</time>
      </trkpt>
      <trkpt lat="48.10729" lon="1.36734">
        <ele>133</ele>
        <time>2018-10-09T14:28:34.121Z</time>
      </trkpt>
      <trkpt lat="48.10729" lon="1.36736">
        <ele>133</ele>
        <time>2018-10-09T14:28:35.121Z</time>
      </trkpt>
      <trkpt lat="48.10729" lon="1.36738">
        <ele>133</ele>
        <time>2018-10-09T14:28:36.121Z</time>
      </trkpt>
      <trkpt lat="48.10729" lon="1.3674">
        <ele>133</ele>
        <time>2018-10-09T14:28:37.121Z</time>
      </trkpt>
      <trkpt lat="48.10728" lon="1.36742">
        <ele>133</ele>
        <time>2018-10-09T14:28:38.121Z</time>
      </trkpt>
      <trkpt lat="48.10728" lon="1.36743">
        <ele>133</ele>
        <time>2018-10-09T14:28:39.121Z</time>
      </trkpt>
      <trkpt lat="48.10728" lon="1.36745">
        <ele>133</ele>
        <time>2018-10-09T14:28:40.121Z</time>
      </trkpt>
      <trkpt lat="48.10728" lon="1.36747">
        <ele>133</ele>
        <time>2018-10-09T14:28:41.121Z</time>
      </trkpt>
      <trkpt lat="48.10728" lon="1.36749">
        <ele>133</ele>
        <time>2018-10-09T14:28:42.121Z</time>
      </trkpt>
      <trkpt lat="48.10728" lon="1.36751">
        <ele>133</ele>
        <time>2018-10-09T14:28:43.121Z</time>
      </trkpt>
      <trkpt lat="48.10728" lon="1.36753">
        <ele>133</ele>
        <time>2018-10-09T14:28:44.121Z</time>
      </trkpt>
      <trkpt lat="48.10728" lon="1.36755">
        <ele>133</ele>
        <time>2018-10-09T14:28:45.121Z</time>
      </trkpt>
      <trkpt lat="48.10728" lon="1.36757">
        <ele>133</ele>
        <time>2018-10-09T14:28:46.121Z</time>
      </trkpt>
      <trkpt lat="48.10728" lon="1.36759">
        <ele>133</ele>
        <time>2018-10-09T14:28:47.121Z</time>
      </trkpt>
      <trkpt lat="48.10727" lon="1.36761">
        <ele>133</ele>
        <time>2018-10-09T14:28:48.121Z</time>
      </trkpt>
      <trkpt lat="48.10727" lon="1.36763">
        <ele>133</ele>
        <time>2018-10-09T14:28:49.121Z</time>
      </trkpt>
      <trkpt lat="48.10726" lon="1.36765">
        <ele>133</ele>
        <time>2018-10-09T14:28:50.121Z</time>
      </trkpt>
      <trkpt lat="48.10726" lon="1.36767">
        <ele>133</ele>
        <time>2018-10-09T14:28:51.121Z</time>
      </trkpt>
      <trkpt lat="48.10726" lon="1.36769">
        <ele>133</ele>
        <time>2018-10-09T14:28:52.121Z</time>
      </trkpt>
      <trkpt lat="48.10725" lon="1.36771">
        <ele>133</ele>
        <time>2018-10-09T14:28:53.121Z</time>
      </trkpt>
      <trkpt lat="48.10725" lon="1.36772">
        <ele>133</ele>
        <time>2018-10-09T14:28:54.121Z</time>
      </trkpt>
      <trkpt lat="48.10724" lon="1.36774">
        <ele>133</ele>
        <time>2018-10-09T14:28:55.121Z</time>
      </trkpt>
      <trkpt lat="48.10724" lon="1.36776">
        <ele>133</ele>
        <time>2018-10-09T14:28:56.121Z</time>
      </trkpt>
      <trkpt lat="48.10723" lon="1.36778">
        <ele>133</ele>
        <time>2018-10-09T14:28:57.121Z</time>
      </trkpt>
      <trkpt lat="48.10723" lon="1.3678">
        <ele>133</ele>
        <time>2018-10-09T14:28:58.121Z</time>
      </trkpt>
      <trkpt lat="48.10722" lon="1.36781">
        <ele>133</ele>
        <time>2018-10-09T14:28:59.121Z</time>
      </trkpt>
      <trkpt lat="48.10722" lon="1.36783">
        <ele>133</ele>
        <time>2018-10-09T14:29:00.121Z</time>
      </trkpt>
      <trkpt lat="48.10721" lon="1.36785">
        <ele>134</ele>
        <time>2018-10-09T14:29:01.121Z</time>
      </trkpt>
      <trkpt lat="48.1072" lon="1.36787">
        <ele>134</ele>
        <time>2018-10-09T14:29:02.121Z</time>
      </trkpt>
      <trkpt lat="48.10719" lon="1.36789">
        <ele>134</ele>
        <time>2018-10-09T14:29:03.121Z</time>
      </trkpt>
      <trkpt lat="48.10719" lon="1.3679">
        <ele>134</ele>
        <time>2018-10-09T14:29:04.121Z</time>
      </trkpt>
      <trkpt lat="48.10718" lon="1.36792">
        <ele>134</ele>
        <time>2018-10-09T14:29:05.121Z</time>
      </trkpt>
      <trkpt lat="48.10717" lon="1.36793">
        <ele>134</ele>
        <time>2018-10-09T14:29:06.121Z</time>
      </trkpt>
      <trkpt lat="48.10716" lon="1.36795">
        <ele>134</ele>
        <time>2018-10-09T14:29:07.121Z</time>
      </trkpt>
      <trkpt lat="48.10715" lon="1.36797">
        <ele>134</ele>
        <time>2018-10-09T14:29:08.121Z</time>
      </trkpt>
      <trkpt lat="48.10714" lon="1.36798">
        <ele>134</ele>
        <time>2018-10-09T14:29:09.121Z</time>
      </trkpt>
      <trkpt lat="48.10714" lon="1.368">
        <ele>134</ele>
        <time>2018-10-09T14:29:10.121Z</time>
      </trkpt>
      <trkpt lat="48.10713" lon="1.36801">
        <ele>134</ele>
        <time>2018-10-09T14:29:11.121Z</time>
      </trkpt>
      <trkpt lat="48.10712" lon="1.36802">
        <ele>134</ele>
        <time>2018-10-09T14:29:12.121Z</time>
      </trkpt>
      <trkpt lat="48.10711" lon="1.36804">
        <ele>134</ele>
        <time>2018-10-09T14:29:13.121Z</time>
      </trkpt>
      <trkpt lat="48.1071" lon="1.36805">
        <ele>135</ele>
        <time>2018-10-09T14:29:14.121Z</time>
      </trkpt>
      <trkpt lat="48.10709" lon="1.36807">
        <ele>135</ele>
        <time>2018-10-09T14:29:15.121Z</time>
      </trkpt>
      <trkpt lat="48.10708" lon="1.36808">
        <ele>135</ele>
        <time>2018-10-09T14:29:16.121Z</time>
      </trkpt>
      <trkpt lat="48.10707" lon="1.36809">
        <ele>135</ele>
        <time>2018-10-09T14:29:17.121Z</time>
      </trkpt>
      <trkpt lat="48.10706" lon="1.36809">
        <ele>135</ele>
        <time>2018-10-09T14:29:18.121Z</time>
      </trkpt>
      <trkpt lat="48.10705" lon="1.3681">
        <ele>135</ele>
        <time>2018-10-09T14:29:19.121Z</time>
      </trkpt>
      <trkpt lat="48.10704" lon="1.36811">
        <ele>135</ele>
        <time>2018-10-09T14:29:20.121Z</time>
      </trkpt>
      <trkpt lat="48.10702" lon="1.36812">
        <ele>135</ele>
        <time>2018-10-09T14:29:21.121Z</time>
      </trkpt>
      <trkpt lat="48.10701" lon="1.36812">
        <ele>135</ele>
        <time>2018-10-09T14:29:22.121Z</time>
      </trkpt>
      <trkpt lat="48.107" lon="1.36813">
        <ele>134</ele>
        <time>2018-10-09T14:29:23.121Z</time>
      </trkpt>
      <trkpt lat="48.10699" lon="1.36813">
        <ele>134</ele>
        <time>2018-10-09T14:29:24.121Z</time>
      </trkpt>
      <trkpt lat="48.10698" lon="1.36814">
        <ele>134</ele>
        <time>2018-10-09T14:29:25.121Z</time>
      </trkpt>
      <trkpt lat="48.10697" lon="1.36814">
        <ele>134</ele>
        <time>2018-10-09T14:29:26.121Z</time>
      </trkpt>
      <trkpt lat="48.10696" lon="1.36815">
        <ele>134</ele>
        <time>2018-10-09T14:29:27.121Z</time>
      </trkpt>
      <trkpt lat="48.10695" lon="1.36816">
        <ele>134</ele>
        <time>2018-10-09T14:29:28.121Z</time>
      </trkpt>
      <trkpt lat="48.10695" lon="1.36816">
        <ele>133</ele>
        <time>2018-10-09T14:29:29.121Z</time>
      </trkpt>
      <trkpt lat="48.10694" lon="1.36817">
        <ele>133</ele>
        <time>2018-10-09T14:29:30.121Z</time>
      </trkpt>
      <trkpt lat="48.10693" lon="1.36818">
        <ele>133</ele>
        <time>2018-10-09T14:29:31.121Z</time>
      </trkpt>
      <trkpt lat="48.10693" lon="1.36819">
        <ele>133</ele>
        <time>2018-10-09T14:29:32.121Z</time>
      </trkpt>
      <trkpt lat="48.10692" lon="1.3682">
        <ele>133</ele>
        <time>2018-10-09T14:29:33.121Z</time>
      </trkpt>
      <trkpt lat="48.10691" lon="1.3682">
        <ele>133</ele>
        <time>2018-10-09T14:29:34.121Z</time>
      </trkpt>
      <trkpt lat="48.1069" lon="1.36821">
        <ele>133</ele>
        <time>2018-10-09T14:29:35.121Z</time>
      </trkpt>
      <trkpt lat="48.10689" lon="1.36821">
        <ele>133</ele>
        <time>2018-10-09T14:29:36.121Z</time>
      </trkpt>
      <trkpt lat="48.10688" lon="1.36822">
        <ele>133</ele>
        <time>2018-10-09T14:29:37.121Z</time>
      </trkpt>
      <trkpt lat="48.10687" lon="1.36822">
        <ele>133</ele>
        <time>2018-10-09T14:29:38.121Z</time>
      </trkpt>
      <trkpt lat="48.10686" lon="1.36823">
        <ele>133</ele>
        <time>2018-10-09T14:29:39.121Z</time>
      </trkpt>
      <trkpt lat="48.10685" lon="1.36822">
        <ele>133</ele>
        <time>2018-10-09T14:29:40.121Z</time>
      </trkpt>
      <trkpt lat="48.10684" lon="1.36822">
        <ele>133</ele>
        <time>2018-10-09T14:29:41.121Z</time>
      </trkpt>
      <trkpt lat="48.10683" lon="1.36822">
        <ele>133</ele>
        <time>2018-10-09T14:29:42.121Z</time>
      </trkpt>
      <trkpt lat="48.10683" lon="1.36822">
        <ele>133</ele>
        <time>2018-10-09T14:29:43.121Z</time>
      </trkpt>
      <trkpt lat="48.10683" lon="1.36822">
        <ele>133</ele>
        <time>2018-10-09T14:29:44.121Z</time>
      </trkpt>
      <trkpt lat="48.10682" lon="1.36822">
        <ele>134</ele>
        <time>2018-10-09T14:29:45.121Z</time>
      </trkpt>
      <trkpt lat="48.10682" lon="1.36822">
        <ele>135</ele>
        <time>2018-10-09T14:29:46.121Z</time>
      </trkpt>
      <trkpt lat="48.10682" lon="1.36823">
        <ele>135</ele>
        <time>2018-10-09T14:29:47.121Z</time>
      </trkpt>
      <trkpt lat="48.10682" lon="1.36824">
        <ele>135</ele>
        <time>2018-10-09T14:29:48.121Z</time>
      </trkpt>
      <trkpt lat="48.10682" lon="1.36825">
        <ele>135</ele>
        <time>2018-10-09T14:29:49.121Z</time>
      </trkpt>
      <trkpt lat="48.10681" lon="1.36825">
        <ele>135</ele>
        <time>2018-10-09T14:29:50.121Z</time>
      </trkpt>
      <trkpt lat="48.10681" lon="1.36825">
        <ele>135</ele>
        <time>2018-10-09T14:29:51.121Z</time>
      </trkpt>
      <trkpt lat="48.10681" lon="1.36825">
        <ele>135</ele>
        <time>2018-10-09T14:29:52.121Z</time>
      </trkpt>
      <trkpt lat="48.1068" lon="1.36825">
        <ele>135</ele>
        <time>2018-10-09T14:29:53.121Z</time>
      </trkpt>
      <trkpt lat="48.1068" lon="1.36825">
        <ele>136</ele>
        <time>2018-10-09T14:29:54.121Z</time>
      </trkpt>
      <trkpt lat="48.1068" lon="1.36825">
        <ele>135</ele>
        <time>2018-10-09T14:29:55.121Z</time>
      </trkpt>
      <trkpt lat="48.1068" lon="1.36825">
        <ele>135</ele>
        <time>2018-10-09T14:29:56.121Z</time>
      </trkpt>
      <trkpt lat="48.1068" lon="1.36825">
        <ele>136</ele>
        <time>2018-10-09T14:29:57.121Z</time>
      </trkpt>
    </trkseg>
  </trk>
</gpx>